<?xml version="1.0" encoding="UTF-8" standalone="no" ?>
<gpx xmlns="http://www.topografix.com/GPX/1/1" xmlns:xsi="http://www.w3.org/2001/XMLSchema-instance" xsi:schemaLocation="http://www.topografix.com/GPX/1/1 http://www.topografix.com/GPX/1/1/gpx.xsd" version="1.1" creator="VisuGPX - https://www.visugpx.com">
  <metadata>
    <name>Balade en Ardèche</name>
    <desc><![CDATA[De Bollène à La Levade en Ardèche]]></desc>
  </metadata>
  <trk>
    <name><![CDATA[Balade en Ardèche_1]]></name>
    <trkseg>
      <trkpt lat="44.27389" lon="4.74491">
        <ele>56</ele>
        <time>2018-05-16T06:08:56.1Z</time>
      </trkpt>
      <trkpt lat="44.27389" lon="4.74492">
        <ele>56</ele>
        <time>2018-05-16T06:08:58.1Z</time>
      </trkpt>
      <trkpt lat="44.27389" lon="4.7449">
        <ele>56</ele>
        <time>2018-05-16T06:09:00.1Z</time>
      </trkpt>
      <trkpt lat="44.27389" lon="4.7449">
        <ele>56</ele>
        <time>2018-05-16T06:09:03.1Z</time>
      </trkpt>
      <trkpt lat="44.2739" lon="4.74488">
        <ele>56</ele>
        <time>2018-05-16T06:09:05.1Z</time>
      </trkpt>
      <trkpt lat="44.27391" lon="4.74483">
        <ele>57</ele>
        <time>2018-05-16T06:09:08.1Z</time>
      </trkpt>
      <trkpt lat="44.27391" lon="4.74475">
        <ele>57</ele>
        <time>2018-05-16T06:09:11.1Z</time>
      </trkpt>
      <trkpt lat="44.27391" lon="4.74469">
        <ele>56</ele>
        <time>2018-05-16T06:09:13.1Z</time>
      </trkpt>
      <trkpt lat="44.27389" lon="4.74461">
        <ele>56</ele>
        <time>2018-05-16T06:09:15.1Z</time>
      </trkpt>
      <trkpt lat="44.27388" lon="4.74455">
        <ele>56</ele>
        <time>2018-05-16T06:09:17.1Z</time>
      </trkpt>
      <trkpt lat="44.27389" lon="4.74447">
        <ele>56</ele>
        <time>2018-05-16T06:09:19.1Z</time>
      </trkpt>
      <trkpt lat="44.27391" lon="4.74439">
        <ele>55</ele>
        <time>2018-05-16T06:09:21.1Z</time>
      </trkpt>
      <trkpt lat="44.27393" lon="4.74433">
        <ele>55</ele>
        <time>2018-05-16T06:09:24.1Z</time>
      </trkpt>
      <trkpt lat="44.27393" lon="4.74433">
        <ele>54</ele>
        <time>2018-05-16T06:09:26.1Z</time>
      </trkpt>
      <trkpt lat="44.27393" lon="4.74432">
        <ele>54</ele>
        <time>2018-05-16T06:09:28.1Z</time>
      </trkpt>
      <trkpt lat="44.27393" lon="4.74432">
        <ele>54</ele>
        <time>2018-05-16T06:09:30.1Z</time>
      </trkpt>
      <trkpt lat="44.27393" lon="4.74432">
        <ele>54</ele>
        <time>2018-05-16T06:09:32.1Z</time>
      </trkpt>
      <trkpt lat="44.27393" lon="4.74431">
        <ele>54</ele>
        <time>2018-05-16T06:09:35.1Z</time>
      </trkpt>
      <trkpt lat="44.27393" lon="4.74431">
        <ele>54</ele>
        <time>2018-05-16T06:09:38.1Z</time>
      </trkpt>
      <trkpt lat="44.27393" lon="4.74431">
        <ele>54</ele>
        <time>2018-05-16T06:09:43.1Z</time>
      </trkpt>
      <trkpt lat="44.27393" lon="4.7443">
        <ele>54</ele>
        <time>2018-05-16T06:09:49.1Z</time>
      </trkpt>
      <trkpt lat="44.27394" lon="4.74428">
        <ele>54</ele>
        <time>2018-05-16T06:09:51.1Z</time>
      </trkpt>
      <trkpt lat="44.27397" lon="4.74425">
        <ele>54</ele>
        <time>2018-05-16T06:09:54.1Z</time>
      </trkpt>
      <trkpt lat="44.274" lon="4.74422">
        <ele>54</ele>
        <time>2018-05-16T06:09:57.1Z</time>
      </trkpt>
      <trkpt lat="44.27401" lon="4.74419">
        <ele>54</ele>
        <time>2018-05-16T06:09:59.1Z</time>
      </trkpt>
      <trkpt lat="44.27405" lon="4.74416">
        <ele>53</ele>
        <time>2018-05-16T06:10:02.1Z</time>
      </trkpt>
      <trkpt lat="44.27406" lon="4.74414">
        <ele>53</ele>
        <time>2018-05-16T06:10:04.1Z</time>
      </trkpt>
      <trkpt lat="44.27408" lon="4.74414">
        <ele>53</ele>
        <time>2018-05-16T06:10:06.1Z</time>
      </trkpt>
      <trkpt lat="44.27412" lon="4.74415">
        <ele>53</ele>
        <time>2018-05-16T06:10:09.1Z</time>
      </trkpt>
      <trkpt lat="44.27419" lon="4.74416">
        <ele>54</ele>
        <time>2018-05-16T06:10:12.1Z</time>
      </trkpt>
      <trkpt lat="44.27426" lon="4.74419">
        <ele>54</ele>
        <time>2018-05-16T06:10:15.1Z</time>
      </trkpt>
      <trkpt lat="44.27432" lon="4.7442">
        <ele>54</ele>
        <time>2018-05-16T06:10:17.1Z</time>
      </trkpt>
      <trkpt lat="44.27441" lon="4.74422">
        <ele>54</ele>
        <time>2018-05-16T06:10:20.1Z</time>
      </trkpt>
      <trkpt lat="44.27452" lon="4.74425">
        <ele>54</ele>
        <time>2018-05-16T06:10:23.1Z</time>
      </trkpt>
      <trkpt lat="44.27458" lon="4.74427">
        <ele>54</ele>
        <time>2018-05-16T06:10:25.1Z</time>
      </trkpt>
      <trkpt lat="44.27468" lon="4.74429">
        <ele>54</ele>
        <time>2018-05-16T06:10:28.1Z</time>
      </trkpt>
      <trkpt lat="44.27475" lon="4.74431">
        <ele>54</ele>
        <time>2018-05-16T06:10:30.1Z</time>
      </trkpt>
      <trkpt lat="44.27482" lon="4.74432">
        <ele>54</ele>
        <time>2018-05-16T06:10:32.1Z</time>
      </trkpt>
      <trkpt lat="44.27489" lon="4.74433">
        <ele>54</ele>
        <time>2018-05-16T06:10:34.1Z</time>
      </trkpt>
      <trkpt lat="44.27502" lon="4.74435">
        <ele>54</ele>
        <time>2018-05-16T06:10:37.1Z</time>
      </trkpt>
      <trkpt lat="44.27514" lon="4.74439">
        <ele>54</ele>
        <time>2018-05-16T06:10:40.1Z</time>
      </trkpt>
      <trkpt lat="44.27523" lon="4.74441">
        <ele>54</ele>
        <time>2018-05-16T06:10:42.1Z</time>
      </trkpt>
      <trkpt lat="44.27533" lon="4.74444">
        <ele>54</ele>
        <time>2018-05-16T06:10:44.1Z</time>
      </trkpt>
      <trkpt lat="44.27542" lon="4.74445">
        <ele>54</ele>
        <time>2018-05-16T06:10:46.1Z</time>
      </trkpt>
      <trkpt lat="44.27557" lon="4.74448">
        <ele>55</ele>
        <time>2018-05-16T06:10:49.1Z</time>
      </trkpt>
      <trkpt lat="44.27567" lon="4.74451">
        <ele>55</ele>
        <time>2018-05-16T06:10:51.1Z</time>
      </trkpt>
      <trkpt lat="44.27578" lon="4.74453">
        <ele>55</ele>
        <time>2018-05-16T06:10:53.1Z</time>
      </trkpt>
      <trkpt lat="44.2759" lon="4.74456">
        <ele>55</ele>
        <time>2018-05-16T06:10:56.1Z</time>
      </trkpt>
      <trkpt lat="44.27598" lon="4.74459">
        <ele>55</ele>
        <time>2018-05-16T06:10:58.1Z</time>
      </trkpt>
      <trkpt lat="44.2761" lon="4.74462">
        <ele>55</ele>
        <time>2018-05-16T06:11:01.1Z</time>
      </trkpt>
      <trkpt lat="44.27623" lon="4.74465">
        <ele>55</ele>
        <time>2018-05-16T06:11:04.1Z</time>
      </trkpt>
      <trkpt lat="44.27635" lon="4.74468">
        <ele>56</ele>
        <time>2018-05-16T06:11:07.1Z</time>
      </trkpt>
      <trkpt lat="44.27643" lon="4.74471">
        <ele>56</ele>
        <time>2018-05-16T06:11:09.1Z</time>
      </trkpt>
      <trkpt lat="44.27649" lon="4.74474">
        <ele>56</ele>
        <time>2018-05-16T06:11:11.1Z</time>
      </trkpt>
      <trkpt lat="44.27662" lon="4.74479">
        <ele>56</ele>
        <time>2018-05-16T06:11:14.1Z</time>
      </trkpt>
      <trkpt lat="44.27674" lon="4.74483">
        <ele>56</ele>
        <time>2018-05-16T06:11:17.1Z</time>
      </trkpt>
      <trkpt lat="44.27682" lon="4.74486">
        <ele>56</ele>
        <time>2018-05-16T06:11:19.1Z</time>
      </trkpt>
      <trkpt lat="44.27691" lon="4.7449">
        <ele>56</ele>
        <time>2018-05-16T06:11:21.1Z</time>
      </trkpt>
      <trkpt lat="44.27698" lon="4.74494">
        <ele>56</ele>
        <time>2018-05-16T06:11:23.1Z</time>
      </trkpt>
      <trkpt lat="44.27704" lon="4.745">
        <ele>56</ele>
        <time>2018-05-16T06:11:25.1Z</time>
      </trkpt>
      <trkpt lat="44.27711" lon="4.74505">
        <ele>56</ele>
        <time>2018-05-16T06:11:28.1Z</time>
      </trkpt>
      <trkpt lat="44.27721" lon="4.7451">
        <ele>56</ele>
        <time>2018-05-16T06:11:31.1Z</time>
      </trkpt>
      <trkpt lat="44.27729" lon="4.74515">
        <ele>56</ele>
        <time>2018-05-16T06:11:34.1Z</time>
      </trkpt>
      <trkpt lat="44.27732" lon="4.74516">
        <ele>56</ele>
        <time>2018-05-16T06:11:36.1Z</time>
      </trkpt>
      <trkpt lat="44.27733" lon="4.74516">
        <ele>56</ele>
        <time>2018-05-16T06:11:38.1Z</time>
      </trkpt>
      <trkpt lat="44.27739" lon="4.74519">
        <ele>56</ele>
        <time>2018-05-16T06:11:41.1Z</time>
      </trkpt>
      <trkpt lat="44.27747" lon="4.74525">
        <ele>56</ele>
        <time>2018-05-16T06:11:44.1Z</time>
      </trkpt>
      <trkpt lat="44.2776" lon="4.74533">
        <ele>57</ele>
        <time>2018-05-16T06:11:47.1Z</time>
      </trkpt>
      <trkpt lat="44.27774" lon="4.7454">
        <ele>57</ele>
        <time>2018-05-16T06:11:50.1Z</time>
      </trkpt>
      <trkpt lat="44.27787" lon="4.74547">
        <ele>57</ele>
        <time>2018-05-16T06:11:53.1Z</time>
      </trkpt>
      <trkpt lat="44.27795" lon="4.74551">
        <ele>57</ele>
        <time>2018-05-16T06:11:55.1Z</time>
      </trkpt>
      <trkpt lat="44.27804" lon="4.74557">
        <ele>57</ele>
        <time>2018-05-16T06:11:57.1Z</time>
      </trkpt>
      <trkpt lat="44.27814" lon="4.74564">
        <ele>58</ele>
        <time>2018-05-16T06:11:59.1Z</time>
      </trkpt>
      <trkpt lat="44.27829" lon="4.74576">
        <ele>59</ele>
        <time>2018-05-16T06:12:02.1Z</time>
      </trkpt>
      <trkpt lat="44.2784" lon="4.74584">
        <ele>59</ele>
        <time>2018-05-16T06:12:04.1Z</time>
      </trkpt>
      <trkpt lat="44.27851" lon="4.74593">
        <ele>60</ele>
        <time>2018-05-16T06:12:06.1Z</time>
      </trkpt>
      <trkpt lat="44.2786" lon="4.746">
        <ele>60</ele>
        <time>2018-05-16T06:12:08.1Z</time>
      </trkpt>
      <trkpt lat="44.27877" lon="4.74609">
        <ele>59</ele>
        <time>2018-05-16T06:12:11.1Z</time>
      </trkpt>
      <trkpt lat="44.27888" lon="4.74613">
        <ele>58</ele>
        <time>2018-05-16T06:12:13.1Z</time>
      </trkpt>
      <trkpt lat="44.27904" lon="4.74604">
        <ele>57</ele>
        <time>2018-05-16T06:12:16.1Z</time>
      </trkpt>
      <trkpt lat="44.27916" lon="4.74597">
        <ele>58</ele>
        <time>2018-05-16T06:12:18.1Z</time>
      </trkpt>
      <trkpt lat="44.2793" lon="4.74592">
        <ele>58</ele>
        <time>2018-05-16T06:12:20.1Z</time>
      </trkpt>
      <trkpt lat="44.27949" lon="4.74586">
        <ele>58</ele>
        <time>2018-05-16T06:12:23.1Z</time>
      </trkpt>
      <trkpt lat="44.2797" lon="4.74588">
        <ele>57</ele>
        <time>2018-05-16T06:12:26.1Z</time>
      </trkpt>
      <trkpt lat="44.27983" lon="4.74593">
        <ele>56</ele>
        <time>2018-05-16T06:12:28.1Z</time>
      </trkpt>
      <trkpt lat="44.28002" lon="4.74605">
        <ele>55</ele>
        <time>2018-05-16T06:12:31.1Z</time>
      </trkpt>
      <trkpt lat="44.28013" lon="4.74612">
        <ele>55</ele>
        <time>2018-05-16T06:12:33.1Z</time>
      </trkpt>
      <trkpt lat="44.28027" lon="4.74621">
        <ele>55</ele>
        <time>2018-05-16T06:12:36.1Z</time>
      </trkpt>
      <trkpt lat="44.28036" lon="4.74627">
        <ele>53</ele>
        <time>2018-05-16T06:12:39.1Z</time>
      </trkpt>
      <trkpt lat="44.28038" lon="4.74629">
        <ele>51</ele>
        <time>2018-05-16T06:12:42.1Z</time>
      </trkpt>
      <trkpt lat="44.28039" lon="4.7463">
        <ele>51</ele>
        <time>2018-05-16T06:12:44.1Z</time>
      </trkpt>
      <trkpt lat="44.28039" lon="4.7463">
        <ele>50</ele>
        <time>2018-05-16T06:12:46.1Z</time>
      </trkpt>
      <trkpt lat="44.28039" lon="4.7463">
        <ele>50</ele>
        <time>2018-05-16T06:12:49.1Z</time>
      </trkpt>
      <trkpt lat="44.2804" lon="4.74631">
        <ele>50</ele>
        <time>2018-05-16T06:12:52.1Z</time>
      </trkpt>
      <trkpt lat="44.2804" lon="4.74631">
        <ele>50</ele>
        <time>2018-05-16T06:12:55.1Z</time>
      </trkpt>
      <trkpt lat="44.28041" lon="4.74632">
        <ele>50</ele>
        <time>2018-05-16T06:12:58.1Z</time>
      </trkpt>
      <trkpt lat="44.28041" lon="4.74632">
        <ele>51</ele>
        <time>2018-05-16T06:13:00.1Z</time>
      </trkpt>
      <trkpt lat="44.28046" lon="4.74633">
        <ele>51</ele>
        <time>2018-05-16T06:13:03.1Z</time>
      </trkpt>
      <trkpt lat="44.2805" lon="4.74635">
        <ele>51</ele>
        <time>2018-05-16T06:13:05.1Z</time>
      </trkpt>
      <trkpt lat="44.28054" lon="4.7464">
        <ele>52</ele>
        <time>2018-05-16T06:13:08.1Z</time>
      </trkpt>
      <trkpt lat="44.28062" lon="4.74646">
        <ele>53</ele>
        <time>2018-05-16T06:13:10.1Z</time>
      </trkpt>
      <trkpt lat="44.28074" lon="4.74656">
        <ele>54</ele>
        <time>2018-05-16T06:13:13.1Z</time>
      </trkpt>
      <trkpt lat="44.28084" lon="4.74666">
        <ele>54</ele>
        <time>2018-05-16T06:13:16.1Z</time>
      </trkpt>
      <trkpt lat="44.28095" lon="4.74675">
        <ele>52</ele>
        <time>2018-05-16T06:13:19.1Z</time>
      </trkpt>
      <trkpt lat="44.28102" lon="4.74682">
        <ele>52</ele>
        <time>2018-05-16T06:13:21.1Z</time>
      </trkpt>
      <trkpt lat="44.28113" lon="4.7469">
        <ele>52</ele>
        <time>2018-05-16T06:13:24.1Z</time>
      </trkpt>
      <trkpt lat="44.28121" lon="4.74695">
        <ele>53</ele>
        <time>2018-05-16T06:13:26.1Z</time>
      </trkpt>
      <trkpt lat="44.28128" lon="4.747">
        <ele>53</ele>
        <time>2018-05-16T06:13:28.1Z</time>
      </trkpt>
      <trkpt lat="44.2814" lon="4.74708">
        <ele>54</ele>
        <time>2018-05-16T06:13:31.1Z</time>
      </trkpt>
      <trkpt lat="44.28148" lon="4.74712">
        <ele>54</ele>
        <time>2018-05-16T06:13:33.1Z</time>
      </trkpt>
      <trkpt lat="44.28159" lon="4.74718">
        <ele>54</ele>
        <time>2018-05-16T06:13:36.1Z</time>
      </trkpt>
      <trkpt lat="44.28167" lon="4.74721">
        <ele>53</ele>
        <time>2018-05-16T06:13:38.1Z</time>
      </trkpt>
      <trkpt lat="44.28175" lon="4.74724">
        <ele>54</ele>
        <time>2018-05-16T06:13:40.1Z</time>
      </trkpt>
      <trkpt lat="44.28188" lon="4.74726">
        <ele>54</ele>
        <time>2018-05-16T06:13:43.1Z</time>
      </trkpt>
      <trkpt lat="44.28196" lon="4.74725">
        <ele>54</ele>
        <time>2018-05-16T06:13:45.1Z</time>
      </trkpt>
      <trkpt lat="44.28207" lon="4.74719">
        <ele>54</ele>
        <time>2018-05-16T06:13:48.1Z</time>
      </trkpt>
      <trkpt lat="44.28215" lon="4.74719">
        <ele>54</ele>
        <time>2018-05-16T06:13:50.1Z</time>
      </trkpt>
      <trkpt lat="44.28223" lon="4.74719">
        <ele>54</ele>
        <time>2018-05-16T06:13:52.1Z</time>
      </trkpt>
      <trkpt lat="44.28234" lon="4.74719">
        <ele>55</ele>
        <time>2018-05-16T06:13:55.1Z</time>
      </trkpt>
      <trkpt lat="44.28242" lon="4.74719">
        <ele>54</ele>
        <time>2018-05-16T06:13:57.1Z</time>
      </trkpt>
      <trkpt lat="44.28251" lon="4.74719">
        <ele>55</ele>
        <time>2018-05-16T06:13:59.1Z</time>
      </trkpt>
      <trkpt lat="44.2826" lon="4.74719">
        <ele>55</ele>
        <time>2018-05-16T06:14:01.1Z</time>
      </trkpt>
      <trkpt lat="44.28272" lon="4.74719">
        <ele>55</ele>
        <time>2018-05-16T06:14:04.1Z</time>
      </trkpt>
      <trkpt lat="44.28281" lon="4.74717">
        <ele>55</ele>
        <time>2018-05-16T06:14:06.1Z</time>
      </trkpt>
      <trkpt lat="44.2829" lon="4.74715">
        <ele>55</ele>
        <time>2018-05-16T06:14:08.1Z</time>
      </trkpt>
      <trkpt lat="44.283" lon="4.74702">
        <ele>54</ele>
        <time>2018-05-16T06:14:11.1Z</time>
      </trkpt>
      <trkpt lat="44.28304" lon="4.74689">
        <ele>54</ele>
        <time>2018-05-16T06:14:13.1Z</time>
      </trkpt>
      <trkpt lat="44.28316" lon="4.74678">
        <ele>53</ele>
        <time>2018-05-16T06:14:16.1Z</time>
      </trkpt>
      <trkpt lat="44.28325" lon="4.7467">
        <ele>53</ele>
        <time>2018-05-16T06:14:18.1Z</time>
      </trkpt>
      <trkpt lat="44.28337" lon="4.74656">
        <ele>53</ele>
        <time>2018-05-16T06:14:21.1Z</time>
      </trkpt>
      <trkpt lat="44.28351" lon="4.74642">
        <ele>53</ele>
        <time>2018-05-16T06:14:24.1Z</time>
      </trkpt>
      <trkpt lat="44.2836" lon="4.7463">
        <ele>54</ele>
        <time>2018-05-16T06:14:26.1Z</time>
      </trkpt>
      <trkpt lat="44.28374" lon="4.74614">
        <ele>53</ele>
        <time>2018-05-16T06:14:29.1Z</time>
      </trkpt>
      <trkpt lat="44.28383" lon="4.74604">
        <ele>53</ele>
        <time>2018-05-16T06:14:31.1Z</time>
      </trkpt>
      <trkpt lat="44.28397" lon="4.74589">
        <ele>53</ele>
        <time>2018-05-16T06:14:34.1Z</time>
      </trkpt>
      <trkpt lat="44.28407" lon="4.74579">
        <ele>54</ele>
        <time>2018-05-16T06:14:36.1Z</time>
      </trkpt>
      <trkpt lat="44.28415" lon="4.74569">
        <ele>54</ele>
        <time>2018-05-16T06:14:38.1Z</time>
      </trkpt>
      <trkpt lat="44.28424" lon="4.74559">
        <ele>54</ele>
        <time>2018-05-16T06:14:40.1Z</time>
      </trkpt>
      <trkpt lat="44.28432" lon="4.74549">
        <ele>54</ele>
        <time>2018-05-16T06:14:42.1Z</time>
      </trkpt>
      <trkpt lat="44.28441" lon="4.7454">
        <ele>53</ele>
        <time>2018-05-16T06:14:44.1Z</time>
      </trkpt>
      <trkpt lat="44.28455" lon="4.74525">
        <ele>53</ele>
        <time>2018-05-16T06:14:47.1Z</time>
      </trkpt>
      <trkpt lat="44.28463" lon="4.74516">
        <ele>52</ele>
        <time>2018-05-16T06:14:49.1Z</time>
      </trkpt>
      <trkpt lat="44.28475" lon="4.74502">
        <ele>52</ele>
        <time>2018-05-16T06:14:52.1Z</time>
      </trkpt>
      <trkpt lat="44.28482" lon="4.74493">
        <ele>52</ele>
        <time>2018-05-16T06:14:54.1Z</time>
      </trkpt>
      <trkpt lat="44.28489" lon="4.74484">
        <ele>51</ele>
        <time>2018-05-16T06:14:56.1Z</time>
      </trkpt>
      <trkpt lat="44.28497" lon="4.74476">
        <ele>50</ele>
        <time>2018-05-16T06:14:58.1Z</time>
      </trkpt>
      <trkpt lat="44.28508" lon="4.74463">
        <ele>51</ele>
        <time>2018-05-16T06:15:01.1Z</time>
      </trkpt>
      <trkpt lat="44.28516" lon="4.74454">
        <ele>51</ele>
        <time>2018-05-16T06:15:03.1Z</time>
      </trkpt>
      <trkpt lat="44.28524" lon="4.74445">
        <ele>51</ele>
        <time>2018-05-16T06:15:05.1Z</time>
      </trkpt>
      <trkpt lat="44.28536" lon="4.74431">
        <ele>52</ele>
        <time>2018-05-16T06:15:08.1Z</time>
      </trkpt>
      <trkpt lat="44.28548" lon="4.74419">
        <ele>51</ele>
        <time>2018-05-16T06:15:11.1Z</time>
      </trkpt>
      <trkpt lat="44.28557" lon="4.74411">
        <ele>52</ele>
        <time>2018-05-16T06:15:13.1Z</time>
      </trkpt>
      <trkpt lat="44.28566" lon="4.74403">
        <ele>51</ele>
        <time>2018-05-16T06:15:15.1Z</time>
      </trkpt>
      <trkpt lat="44.2858" lon="4.74391">
        <ele>51</ele>
        <time>2018-05-16T06:15:18.1Z</time>
      </trkpt>
      <trkpt lat="44.28592" lon="4.7438">
        <ele>52</ele>
        <time>2018-05-16T06:15:21.1Z</time>
      </trkpt>
      <trkpt lat="44.286" lon="4.74373">
        <ele>53</ele>
        <time>2018-05-16T06:15:23.1Z</time>
      </trkpt>
      <trkpt lat="44.28612" lon="4.7436">
        <ele>53</ele>
        <time>2018-05-16T06:15:26.1Z</time>
      </trkpt>
      <trkpt lat="44.2862" lon="4.74351">
        <ele>53</ele>
        <time>2018-05-16T06:15:28.1Z</time>
      </trkpt>
      <trkpt lat="44.28632" lon="4.74339">
        <ele>52</ele>
        <time>2018-05-16T06:15:31.1Z</time>
      </trkpt>
      <trkpt lat="44.28639" lon="4.74332">
        <ele>52</ele>
        <time>2018-05-16T06:15:33.1Z</time>
      </trkpt>
      <trkpt lat="44.2865" lon="4.74319">
        <ele>51</ele>
        <time>2018-05-16T06:15:36.1Z</time>
      </trkpt>
      <trkpt lat="44.28657" lon="4.74311">
        <ele>51</ele>
        <time>2018-05-16T06:15:38.1Z</time>
      </trkpt>
      <trkpt lat="44.28667" lon="4.743">
        <ele>51</ele>
        <time>2018-05-16T06:15:41.1Z</time>
      </trkpt>
      <trkpt lat="44.28677" lon="4.74291">
        <ele>51</ele>
        <time>2018-05-16T06:15:44.1Z</time>
      </trkpt>
      <trkpt lat="44.28682" lon="4.7428">
        <ele>51</ele>
        <time>2018-05-16T06:15:46.1Z</time>
      </trkpt>
      <trkpt lat="44.28677" lon="4.74264">
        <ele>51</ele>
        <time>2018-05-16T06:15:49.1Z</time>
      </trkpt>
      <trkpt lat="44.28665" lon="4.74255">
        <ele>51</ele>
        <time>2018-05-16T06:15:52.1Z</time>
      </trkpt>
      <trkpt lat="44.28655" lon="4.74242">
        <ele>52</ele>
        <time>2018-05-16T06:15:55.1Z</time>
      </trkpt>
      <trkpt lat="44.28649" lon="4.74232">
        <ele>52</ele>
        <time>2018-05-16T06:15:57.1Z</time>
      </trkpt>
      <trkpt lat="44.28643" lon="4.74221">
        <ele>52</ele>
        <time>2018-05-16T06:15:59.1Z</time>
      </trkpt>
      <trkpt lat="44.28635" lon="4.74204">
        <ele>52</ele>
        <time>2018-05-16T06:16:02.1Z</time>
      </trkpt>
      <trkpt lat="44.28628" lon="4.74194">
        <ele>52</ele>
        <time>2018-05-16T06:16:04.1Z</time>
      </trkpt>
      <trkpt lat="44.28619" lon="4.74177">
        <ele>52</ele>
        <time>2018-05-16T06:16:07.1Z</time>
      </trkpt>
      <trkpt lat="44.28613" lon="4.74166">
        <ele>52</ele>
        <time>2018-05-16T06:16:09.1Z</time>
      </trkpt>
      <trkpt lat="44.28603" lon="4.7415">
        <ele>52</ele>
        <time>2018-05-16T06:16:12.1Z</time>
      </trkpt>
      <trkpt lat="44.28594" lon="4.74133">
        <ele>53</ele>
        <time>2018-05-16T06:16:15.1Z</time>
      </trkpt>
      <trkpt lat="44.28585" lon="4.74115">
        <ele>53</ele>
        <time>2018-05-16T06:16:18.1Z</time>
      </trkpt>
      <trkpt lat="44.28579" lon="4.74103">
        <ele>53</ele>
        <time>2018-05-16T06:16:20.1Z</time>
      </trkpt>
      <trkpt lat="44.28573" lon="4.74091">
        <ele>53</ele>
        <time>2018-05-16T06:16:22.1Z</time>
      </trkpt>
      <trkpt lat="44.28564" lon="4.74072">
        <ele>54</ele>
        <time>2018-05-16T06:16:25.1Z</time>
      </trkpt>
      <trkpt lat="44.28559" lon="4.7406">
        <ele>54</ele>
        <time>2018-05-16T06:16:27.1Z</time>
      </trkpt>
      <trkpt lat="44.28554" lon="4.74048">
        <ele>54</ele>
        <time>2018-05-16T06:16:29.1Z</time>
      </trkpt>
      <trkpt lat="44.28546" lon="4.74029">
        <ele>55</ele>
        <time>2018-05-16T06:16:32.1Z</time>
      </trkpt>
      <trkpt lat="44.28541" lon="4.74017">
        <ele>55</ele>
        <time>2018-05-16T06:16:34.1Z</time>
      </trkpt>
      <trkpt lat="44.28537" lon="4.74003">
        <ele>56</ele>
        <time>2018-05-16T06:16:36.1Z</time>
      </trkpt>
      <trkpt lat="44.2853" lon="4.73983">
        <ele>56</ele>
        <time>2018-05-16T06:16:39.1Z</time>
      </trkpt>
      <trkpt lat="44.28526" lon="4.7397">
        <ele>56</ele>
        <time>2018-05-16T06:16:41.1Z</time>
      </trkpt>
      <trkpt lat="44.28521" lon="4.73956">
        <ele>56</ele>
        <time>2018-05-16T06:16:43.1Z</time>
      </trkpt>
      <trkpt lat="44.28517" lon="4.73943">
        <ele>56</ele>
        <time>2018-05-16T06:16:45.1Z</time>
      </trkpt>
      <trkpt lat="44.28511" lon="4.73922">
        <ele>57</ele>
        <time>2018-05-16T06:16:48.1Z</time>
      </trkpt>
      <trkpt lat="44.28506" lon="4.73902">
        <ele>57</ele>
        <time>2018-05-16T06:16:51.1Z</time>
      </trkpt>
      <trkpt lat="44.28502" lon="4.73887">
        <ele>57</ele>
        <time>2018-05-16T06:16:53.1Z</time>
      </trkpt>
      <trkpt lat="44.28496" lon="4.73867">
        <ele>58</ele>
        <time>2018-05-16T06:16:56.1Z</time>
      </trkpt>
      <trkpt lat="44.28493" lon="4.73852">
        <ele>58</ele>
        <time>2018-05-16T06:16:58.1Z</time>
      </trkpt>
      <trkpt lat="44.28489" lon="4.7383">
        <ele>58</ele>
        <time>2018-05-16T06:17:01.1Z</time>
      </trkpt>
      <trkpt lat="44.28485" lon="4.73815">
        <ele>59</ele>
        <time>2018-05-16T06:17:03.1Z</time>
      </trkpt>
      <trkpt lat="44.28481" lon="4.73792">
        <ele>59</ele>
        <time>2018-05-16T06:17:06.1Z</time>
      </trkpt>
      <trkpt lat="44.28478" lon="4.73777">
        <ele>59</ele>
        <time>2018-05-16T06:17:08.1Z</time>
      </trkpt>
      <trkpt lat="44.28475" lon="4.73762">
        <ele>59</ele>
        <time>2018-05-16T06:17:10.1Z</time>
      </trkpt>
      <trkpt lat="44.28472" lon="4.73746">
        <ele>59</ele>
        <time>2018-05-16T06:17:12.1Z</time>
      </trkpt>
      <trkpt lat="44.28468" lon="4.73722">
        <ele>59</ele>
        <time>2018-05-16T06:17:15.1Z</time>
      </trkpt>
      <trkpt lat="44.28466" lon="4.73706">
        <ele>59</ele>
        <time>2018-05-16T06:17:17.1Z</time>
      </trkpt>
      <trkpt lat="44.28461" lon="4.73682">
        <ele>59</ele>
        <time>2018-05-16T06:17:20.1Z</time>
      </trkpt>
      <trkpt lat="44.28458" lon="4.73657">
        <ele>58</ele>
        <time>2018-05-16T06:17:23.1Z</time>
      </trkpt>
      <trkpt lat="44.28455" lon="4.73639">
        <ele>58</ele>
        <time>2018-05-16T06:17:25.1Z</time>
      </trkpt>
      <trkpt lat="44.2845" lon="4.73612">
        <ele>58</ele>
        <time>2018-05-16T06:17:28.1Z</time>
      </trkpt>
      <trkpt lat="44.28447" lon="4.73583">
        <ele>58</ele>
        <time>2018-05-16T06:17:31.1Z</time>
      </trkpt>
      <trkpt lat="44.28444" lon="4.73563">
        <ele>57</ele>
        <time>2018-05-16T06:17:33.1Z</time>
      </trkpt>
      <trkpt lat="44.28442" lon="4.73543">
        <ele>57</ele>
        <time>2018-05-16T06:17:35.1Z</time>
      </trkpt>
      <trkpt lat="44.28439" lon="4.73512">
        <ele>57</ele>
        <time>2018-05-16T06:17:38.1Z</time>
      </trkpt>
      <trkpt lat="44.28437" lon="4.73482">
        <ele>56</ele>
        <time>2018-05-16T06:17:41.1Z</time>
      </trkpt>
      <trkpt lat="44.28437" lon="4.73461">
        <ele>56</ele>
        <time>2018-05-16T06:17:43.1Z</time>
      </trkpt>
      <trkpt lat="44.28436" lon="4.7343">
        <ele>55</ele>
        <time>2018-05-16T06:17:46.1Z</time>
      </trkpt>
      <trkpt lat="44.28437" lon="4.73411">
        <ele>54</ele>
        <time>2018-05-16T06:17:48.1Z</time>
      </trkpt>
      <trkpt lat="44.28437" lon="4.73391">
        <ele>54</ele>
        <time>2018-05-16T06:17:50.1Z</time>
      </trkpt>
      <trkpt lat="44.28439" lon="4.73364">
        <ele>53</ele>
        <time>2018-05-16T06:17:53.1Z</time>
      </trkpt>
      <trkpt lat="44.28441" lon="4.73347">
        <ele>53</ele>
        <time>2018-05-16T06:17:55.1Z</time>
      </trkpt>
      <trkpt lat="44.28445" lon="4.73322">
        <ele>53</ele>
        <time>2018-05-16T06:17:58.1Z</time>
      </trkpt>
      <trkpt lat="44.28447" lon="4.73306">
        <ele>52</ele>
        <time>2018-05-16T06:18:00.1Z</time>
      </trkpt>
      <trkpt lat="44.2845" lon="4.7329">
        <ele>52</ele>
        <time>2018-05-16T06:18:02.1Z</time>
      </trkpt>
      <trkpt lat="44.28452" lon="4.73274">
        <ele>52</ele>
        <time>2018-05-16T06:18:04.1Z</time>
      </trkpt>
      <trkpt lat="44.28457" lon="4.73252">
        <ele>52</ele>
        <time>2018-05-16T06:18:07.1Z</time>
      </trkpt>
      <trkpt lat="44.28461" lon="4.73231">
        <ele>51</ele>
        <time>2018-05-16T06:18:10.1Z</time>
      </trkpt>
      <trkpt lat="44.28466" lon="4.73209">
        <ele>51</ele>
        <time>2018-05-16T06:18:13.1Z</time>
      </trkpt>
      <trkpt lat="44.2847" lon="4.73195">
        <ele>52</ele>
        <time>2018-05-16T06:18:15.1Z</time>
      </trkpt>
      <trkpt lat="44.28474" lon="4.73176">
        <ele>54</ele>
        <time>2018-05-16T06:18:18.1Z</time>
      </trkpt>
      <trkpt lat="44.28479" lon="4.73158">
        <ele>54</ele>
        <time>2018-05-16T06:18:21.1Z</time>
      </trkpt>
      <trkpt lat="44.28482" lon="4.73145">
        <ele>54</ele>
        <time>2018-05-16T06:18:23.1Z</time>
      </trkpt>
      <trkpt lat="44.28487" lon="4.73125">
        <ele>53</ele>
        <time>2018-05-16T06:18:26.1Z</time>
      </trkpt>
      <trkpt lat="44.28491" lon="4.73105">
        <ele>53</ele>
        <time>2018-05-16T06:18:29.1Z</time>
      </trkpt>
      <trkpt lat="44.28494" lon="4.73092">
        <ele>53</ele>
        <time>2018-05-16T06:18:31.1Z</time>
      </trkpt>
      <trkpt lat="44.28499" lon="4.73072">
        <ele>53</ele>
        <time>2018-05-16T06:18:34.1Z</time>
      </trkpt>
      <trkpt lat="44.28504" lon="4.73052">
        <ele>52</ele>
        <time>2018-05-16T06:18:37.1Z</time>
      </trkpt>
      <trkpt lat="44.28507" lon="4.73038">
        <ele>52</ele>
        <time>2018-05-16T06:18:39.1Z</time>
      </trkpt>
      <trkpt lat="44.28512" lon="4.73017">
        <ele>52</ele>
        <time>2018-05-16T06:18:42.1Z</time>
      </trkpt>
      <trkpt lat="44.28515" lon="4.73001">
        <ele>51</ele>
        <time>2018-05-16T06:18:44.1Z</time>
      </trkpt>
      <trkpt lat="44.28519" lon="4.72986">
        <ele>51</ele>
        <time>2018-05-16T06:18:46.1Z</time>
      </trkpt>
      <trkpt lat="44.28524" lon="4.72962">
        <ele>51</ele>
        <time>2018-05-16T06:18:49.1Z</time>
      </trkpt>
      <trkpt lat="44.28529" lon="4.72936">
        <ele>50</ele>
        <time>2018-05-16T06:18:52.1Z</time>
      </trkpt>
      <trkpt lat="44.28533" lon="4.7291">
        <ele>50</ele>
        <time>2018-05-16T06:18:55.1Z</time>
      </trkpt>
      <trkpt lat="44.28536" lon="4.72893">
        <ele>50</ele>
        <time>2018-05-16T06:18:57.1Z</time>
      </trkpt>
      <trkpt lat="44.28538" lon="4.72876">
        <ele>50</ele>
        <time>2018-05-16T06:18:59.1Z</time>
      </trkpt>
      <trkpt lat="44.28541" lon="4.72851">
        <ele>50</ele>
        <time>2018-05-16T06:19:02.1Z</time>
      </trkpt>
      <trkpt lat="44.28543" lon="4.72827">
        <ele>50</ele>
        <time>2018-05-16T06:19:05.1Z</time>
      </trkpt>
      <trkpt lat="44.28544" lon="4.72812">
        <ele>50</ele>
        <time>2018-05-16T06:19:07.1Z</time>
      </trkpt>
      <trkpt lat="44.28547" lon="4.7279">
        <ele>50</ele>
        <time>2018-05-16T06:19:10.1Z</time>
      </trkpt>
      <trkpt lat="44.28549" lon="4.72776">
        <ele>50</ele>
        <time>2018-05-16T06:19:12.1Z</time>
      </trkpt>
      <trkpt lat="44.28554" lon="4.72755">
        <ele>50</ele>
        <time>2018-05-16T06:19:15.1Z</time>
      </trkpt>
      <trkpt lat="44.2856" lon="4.72746">
        <ele>50</ele>
        <time>2018-05-16T06:19:17.1Z</time>
      </trkpt>
      <trkpt lat="44.28571" lon="4.72737">
        <ele>50</ele>
        <time>2018-05-16T06:19:20.1Z</time>
      </trkpt>
      <trkpt lat="44.28582" lon="4.72736">
        <ele>50</ele>
        <time>2018-05-16T06:19:23.1Z</time>
      </trkpt>
      <trkpt lat="44.2859" lon="4.72738">
        <ele>50</ele>
        <time>2018-05-16T06:19:25.1Z</time>
      </trkpt>
      <trkpt lat="44.28598" lon="4.72739">
        <ele>50</ele>
        <time>2018-05-16T06:19:27.1Z</time>
      </trkpt>
      <trkpt lat="44.28607" lon="4.72743">
        <ele>49</ele>
        <time>2018-05-16T06:19:30.1Z</time>
      </trkpt>
      <trkpt lat="44.28614" lon="4.72748">
        <ele>49</ele>
        <time>2018-05-16T06:19:32.1Z</time>
      </trkpt>
      <trkpt lat="44.28625" lon="4.72755">
        <ele>48</ele>
        <time>2018-05-16T06:19:35.1Z</time>
      </trkpt>
      <trkpt lat="44.28636" lon="4.72763">
        <ele>48</ele>
        <time>2018-05-16T06:19:38.1Z</time>
      </trkpt>
      <trkpt lat="44.28643" lon="4.72768">
        <ele>47</ele>
        <time>2018-05-16T06:19:40.1Z</time>
      </trkpt>
      <trkpt lat="44.28654" lon="4.72775">
        <ele>48</ele>
        <time>2018-05-16T06:19:43.1Z</time>
      </trkpt>
      <trkpt lat="44.28665" lon="4.72783">
        <ele>48</ele>
        <time>2018-05-16T06:19:46.1Z</time>
      </trkpt>
      <trkpt lat="44.28677" lon="4.72791">
        <ele>48</ele>
        <time>2018-05-16T06:19:49.1Z</time>
      </trkpt>
      <trkpt lat="44.28688" lon="4.72799">
        <ele>49</ele>
        <time>2018-05-16T06:19:52.1Z</time>
      </trkpt>
      <trkpt lat="44.28701" lon="4.72808">
        <ele>49</ele>
        <time>2018-05-16T06:19:55.1Z</time>
      </trkpt>
      <trkpt lat="44.28708" lon="4.72814">
        <ele>49</ele>
        <time>2018-05-16T06:19:57.1Z</time>
      </trkpt>
      <trkpt lat="44.28719" lon="4.72822">
        <ele>48</ele>
        <time>2018-05-16T06:20:00.1Z</time>
      </trkpt>
      <trkpt lat="44.28727" lon="4.72828">
        <ele>49</ele>
        <time>2018-05-16T06:20:02.1Z</time>
      </trkpt>
      <trkpt lat="44.28734" lon="4.72833">
        <ele>49</ele>
        <time>2018-05-16T06:20:04.1Z</time>
      </trkpt>
      <trkpt lat="44.28741" lon="4.72839">
        <ele>49</ele>
        <time>2018-05-16T06:20:06.1Z</time>
      </trkpt>
      <trkpt lat="44.28753" lon="4.72848">
        <ele>49</ele>
        <time>2018-05-16T06:20:09.1Z</time>
      </trkpt>
      <trkpt lat="44.28765" lon="4.72856">
        <ele>49</ele>
        <time>2018-05-16T06:20:12.1Z</time>
      </trkpt>
      <trkpt lat="44.28778" lon="4.72866">
        <ele>50</ele>
        <time>2018-05-16T06:20:15.1Z</time>
      </trkpt>
      <trkpt lat="44.28793" lon="4.72875">
        <ele>50</ele>
        <time>2018-05-16T06:20:18.1Z</time>
      </trkpt>
      <trkpt lat="44.28805" lon="4.72884">
        <ele>50</ele>
        <time>2018-05-16T06:20:21.1Z</time>
      </trkpt>
      <trkpt lat="44.28817" lon="4.72893">
        <ele>50</ele>
        <time>2018-05-16T06:20:24.1Z</time>
      </trkpt>
      <trkpt lat="44.28825" lon="4.729">
        <ele>50</ele>
        <time>2018-05-16T06:20:26.1Z</time>
      </trkpt>
      <trkpt lat="44.28838" lon="4.72911">
        <ele>49</ele>
        <time>2018-05-16T06:20:29.1Z</time>
      </trkpt>
      <trkpt lat="44.28848" lon="4.72919">
        <ele>49</ele>
        <time>2018-05-16T06:20:31.1Z</time>
      </trkpt>
      <trkpt lat="44.28862" lon="4.72931">
        <ele>49</ele>
        <time>2018-05-16T06:20:34.1Z</time>
      </trkpt>
      <trkpt lat="44.28876" lon="4.72944">
        <ele>50</ele>
        <time>2018-05-16T06:20:37.1Z</time>
      </trkpt>
      <trkpt lat="44.28884" lon="4.72953">
        <ele>50</ele>
        <time>2018-05-16T06:20:39.1Z</time>
      </trkpt>
      <trkpt lat="44.28891" lon="4.72961">
        <ele>50</ele>
        <time>2018-05-16T06:20:41.1Z</time>
      </trkpt>
      <trkpt lat="44.289" lon="4.7297">
        <ele>50</ele>
        <time>2018-05-16T06:20:43.1Z</time>
      </trkpt>
      <trkpt lat="44.28913" lon="4.72983">
        <ele>50</ele>
        <time>2018-05-16T06:20:46.1Z</time>
      </trkpt>
      <trkpt lat="44.28925" lon="4.72996">
        <ele>50</ele>
        <time>2018-05-16T06:20:49.1Z</time>
      </trkpt>
      <trkpt lat="44.28933" lon="4.73004">
        <ele>50</ele>
        <time>2018-05-16T06:20:51.1Z</time>
      </trkpt>
      <trkpt lat="44.28942" lon="4.73012">
        <ele>51</ele>
        <time>2018-05-16T06:20:53.1Z</time>
      </trkpt>
      <trkpt lat="44.28951" lon="4.73019">
        <ele>51</ele>
        <time>2018-05-16T06:20:55.1Z</time>
      </trkpt>
      <trkpt lat="44.28964" lon="4.73029">
        <ele>51</ele>
        <time>2018-05-16T06:20:58.1Z</time>
      </trkpt>
      <trkpt lat="44.28978" lon="4.73037">
        <ele>51</ele>
        <time>2018-05-16T06:21:01.1Z</time>
      </trkpt>
      <trkpt lat="44.28987" lon="4.73041">
        <ele>51</ele>
        <time>2018-05-16T06:21:03.1Z</time>
      </trkpt>
      <trkpt lat="44.29002" lon="4.73047">
        <ele>52</ele>
        <time>2018-05-16T06:21:06.1Z</time>
      </trkpt>
      <trkpt lat="44.29016" lon="4.73051">
        <ele>52</ele>
        <time>2018-05-16T06:21:09.1Z</time>
      </trkpt>
      <trkpt lat="44.29026" lon="4.73053">
        <ele>52</ele>
        <time>2018-05-16T06:21:11.1Z</time>
      </trkpt>
      <trkpt lat="44.29036" lon="4.73053">
        <ele>52</ele>
        <time>2018-05-16T06:21:13.1Z</time>
      </trkpt>
      <trkpt lat="44.29046" lon="4.73054">
        <ele>52</ele>
        <time>2018-05-16T06:21:15.1Z</time>
      </trkpt>
      <trkpt lat="44.29057" lon="4.73053">
        <ele>52</ele>
        <time>2018-05-16T06:21:17.1Z</time>
      </trkpt>
      <trkpt lat="44.29067" lon="4.73052">
        <ele>52</ele>
        <time>2018-05-16T06:21:19.1Z</time>
      </trkpt>
      <trkpt lat="44.29082" lon="4.73048">
        <ele>53</ele>
        <time>2018-05-16T06:21:22.1Z</time>
      </trkpt>
      <trkpt lat="44.29093" lon="4.73045">
        <ele>53</ele>
        <time>2018-05-16T06:21:24.1Z</time>
      </trkpt>
      <trkpt lat="44.29103" lon="4.73041">
        <ele>53</ele>
        <time>2018-05-16T06:21:26.1Z</time>
      </trkpt>
      <trkpt lat="44.29113" lon="4.73036">
        <ele>52</ele>
        <time>2018-05-16T06:21:28.1Z</time>
      </trkpt>
      <trkpt lat="44.29123" lon="4.73031">
        <ele>52</ele>
        <time>2018-05-16T06:21:30.1Z</time>
      </trkpt>
      <trkpt lat="44.29137" lon="4.7302">
        <ele>51</ele>
        <time>2018-05-16T06:21:33.1Z</time>
      </trkpt>
      <trkpt lat="44.29147" lon="4.73011">
        <ele>50</ele>
        <time>2018-05-16T06:21:35.1Z</time>
      </trkpt>
      <trkpt lat="44.2916" lon="4.72999">
        <ele>51</ele>
        <time>2018-05-16T06:21:38.1Z</time>
      </trkpt>
      <trkpt lat="44.29168" lon="4.7299">
        <ele>51</ele>
        <time>2018-05-16T06:21:40.1Z</time>
      </trkpt>
      <trkpt lat="44.29176" lon="4.7298">
        <ele>51</ele>
        <time>2018-05-16T06:21:42.1Z</time>
      </trkpt>
      <trkpt lat="44.29183" lon="4.72969">
        <ele>51</ele>
        <time>2018-05-16T06:21:44.1Z</time>
      </trkpt>
      <trkpt lat="44.2919" lon="4.72958">
        <ele>51</ele>
        <time>2018-05-16T06:21:46.1Z</time>
      </trkpt>
      <trkpt lat="44.292" lon="4.72941">
        <ele>52</ele>
        <time>2018-05-16T06:21:49.1Z</time>
      </trkpt>
      <trkpt lat="44.29205" lon="4.72929">
        <ele>52</ele>
        <time>2018-05-16T06:21:51.1Z</time>
      </trkpt>
      <trkpt lat="44.29211" lon="4.72917">
        <ele>52</ele>
        <time>2018-05-16T06:21:53.1Z</time>
      </trkpt>
      <trkpt lat="44.29217" lon="4.72904">
        <ele>52</ele>
        <time>2018-05-16T06:21:55.1Z</time>
      </trkpt>
      <trkpt lat="44.29224" lon="4.72885">
        <ele>51</ele>
        <time>2018-05-16T06:21:58.1Z</time>
      </trkpt>
      <trkpt lat="44.29229" lon="4.72872">
        <ele>52</ele>
        <time>2018-05-16T06:22:00.1Z</time>
      </trkpt>
      <trkpt lat="44.29233" lon="4.7286">
        <ele>52</ele>
        <time>2018-05-16T06:22:02.1Z</time>
      </trkpt>
      <trkpt lat="44.29237" lon="4.72848">
        <ele>51</ele>
        <time>2018-05-16T06:22:04.1Z</time>
      </trkpt>
      <trkpt lat="44.29243" lon="4.72828">
        <ele>51</ele>
        <time>2018-05-16T06:22:07.1Z</time>
      </trkpt>
      <trkpt lat="44.29246" lon="4.72816">
        <ele>51</ele>
        <time>2018-05-16T06:22:09.1Z</time>
      </trkpt>
      <trkpt lat="44.2925" lon="4.72803">
        <ele>52</ele>
        <time>2018-05-16T06:22:11.1Z</time>
      </trkpt>
      <trkpt lat="44.29256" lon="4.72783">
        <ele>52</ele>
        <time>2018-05-16T06:22:14.1Z</time>
      </trkpt>
      <trkpt lat="44.2926" lon="4.72769">
        <ele>50</ele>
        <time>2018-05-16T06:22:16.1Z</time>
      </trkpt>
      <trkpt lat="44.29264" lon="4.72756">
        <ele>49</ele>
        <time>2018-05-16T06:22:18.1Z</time>
      </trkpt>
      <trkpt lat="44.29268" lon="4.72742">
        <ele>49</ele>
        <time>2018-05-16T06:22:20.1Z</time>
      </trkpt>
      <trkpt lat="44.29274" lon="4.72721">
        <ele>49</ele>
        <time>2018-05-16T06:22:23.1Z</time>
      </trkpt>
      <trkpt lat="44.29278" lon="4.72707">
        <ele>49</ele>
        <time>2018-05-16T06:22:25.1Z</time>
      </trkpt>
      <trkpt lat="44.29282" lon="4.72694">
        <ele>49</ele>
        <time>2018-05-16T06:22:27.1Z</time>
      </trkpt>
      <trkpt lat="44.29286" lon="4.7268">
        <ele>49</ele>
        <time>2018-05-16T06:22:29.1Z</time>
      </trkpt>
      <trkpt lat="44.2929" lon="4.72667">
        <ele>49</ele>
        <time>2018-05-16T06:22:31.1Z</time>
      </trkpt>
      <trkpt lat="44.29295" lon="4.72653">
        <ele>49</ele>
        <time>2018-05-16T06:22:33.1Z</time>
      </trkpt>
      <trkpt lat="44.29301" lon="4.72633">
        <ele>49</ele>
        <time>2018-05-16T06:22:36.1Z</time>
      </trkpt>
      <trkpt lat="44.29305" lon="4.72619">
        <ele>50</ele>
        <time>2018-05-16T06:22:38.1Z</time>
      </trkpt>
      <trkpt lat="44.29309" lon="4.72606">
        <ele>51</ele>
        <time>2018-05-16T06:22:40.1Z</time>
      </trkpt>
      <trkpt lat="44.29313" lon="4.72592">
        <ele>51</ele>
        <time>2018-05-16T06:22:42.1Z</time>
      </trkpt>
      <trkpt lat="44.29319" lon="4.72573">
        <ele>51</ele>
        <time>2018-05-16T06:22:45.1Z</time>
      </trkpt>
      <trkpt lat="44.29323" lon="4.7256">
        <ele>50</ele>
        <time>2018-05-16T06:22:47.1Z</time>
      </trkpt>
      <trkpt lat="44.29327" lon="4.72546">
        <ele>49</ele>
        <time>2018-05-16T06:22:49.1Z</time>
      </trkpt>
      <trkpt lat="44.2933" lon="4.72533">
        <ele>49</ele>
        <time>2018-05-16T06:22:51.1Z</time>
      </trkpt>
      <trkpt lat="44.29334" lon="4.72519">
        <ele>49</ele>
        <time>2018-05-16T06:22:53.1Z</time>
      </trkpt>
      <trkpt lat="44.2934" lon="4.72499">
        <ele>49</ele>
        <time>2018-05-16T06:22:56.1Z</time>
      </trkpt>
      <trkpt lat="44.29343" lon="4.72485">
        <ele>49</ele>
        <time>2018-05-16T06:22:58.1Z</time>
      </trkpt>
      <trkpt lat="44.29346" lon="4.72472">
        <ele>49</ele>
        <time>2018-05-16T06:23:00.1Z</time>
      </trkpt>
      <trkpt lat="44.29352" lon="4.7245">
        <ele>48</ele>
        <time>2018-05-16T06:23:03.1Z</time>
      </trkpt>
      <trkpt lat="44.29356" lon="4.72437">
        <ele>48</ele>
        <time>2018-05-16T06:23:05.1Z</time>
      </trkpt>
      <trkpt lat="44.29359" lon="4.72423">
        <ele>48</ele>
        <time>2018-05-16T06:23:07.1Z</time>
      </trkpt>
      <trkpt lat="44.29364" lon="4.72409">
        <ele>49</ele>
        <time>2018-05-16T06:23:09.1Z</time>
      </trkpt>
      <trkpt lat="44.29368" lon="4.72395">
        <ele>49</ele>
        <time>2018-05-16T06:23:11.1Z</time>
      </trkpt>
      <trkpt lat="44.29374" lon="4.72375">
        <ele>49</ele>
        <time>2018-05-16T06:23:14.1Z</time>
      </trkpt>
      <trkpt lat="44.29379" lon="4.72362">
        <ele>49</ele>
        <time>2018-05-16T06:23:16.1Z</time>
      </trkpt>
      <trkpt lat="44.29387" lon="4.72343">
        <ele>49</ele>
        <time>2018-05-16T06:23:19.1Z</time>
      </trkpt>
      <trkpt lat="44.29395" lon="4.72325">
        <ele>49</ele>
        <time>2018-05-16T06:23:22.1Z</time>
      </trkpt>
      <trkpt lat="44.294" lon="4.72314">
        <ele>50</ele>
        <time>2018-05-16T06:23:24.1Z</time>
      </trkpt>
      <trkpt lat="44.29405" lon="4.72302">
        <ele>50</ele>
        <time>2018-05-16T06:23:26.1Z</time>
      </trkpt>
      <trkpt lat="44.29411" lon="4.7229">
        <ele>50</ele>
        <time>2018-05-16T06:23:28.1Z</time>
      </trkpt>
      <trkpt lat="44.29416" lon="4.72278">
        <ele>49</ele>
        <time>2018-05-16T06:23:30.1Z</time>
      </trkpt>
      <trkpt lat="44.29424" lon="4.7226">
        <ele>49</ele>
        <time>2018-05-16T06:23:33.1Z</time>
      </trkpt>
      <trkpt lat="44.2943" lon="4.72248">
        <ele>50</ele>
        <time>2018-05-16T06:23:35.1Z</time>
      </trkpt>
      <trkpt lat="44.29435" lon="4.72236">
        <ele>49</ele>
        <time>2018-05-16T06:23:37.1Z</time>
      </trkpt>
      <trkpt lat="44.29441" lon="4.72224">
        <ele>49</ele>
        <time>2018-05-16T06:23:39.1Z</time>
      </trkpt>
      <trkpt lat="44.29448" lon="4.72205">
        <ele>51</ele>
        <time>2018-05-16T06:23:42.1Z</time>
      </trkpt>
      <trkpt lat="44.29453" lon="4.72192">
        <ele>51</ele>
        <time>2018-05-16T06:23:44.1Z</time>
      </trkpt>
      <trkpt lat="44.29457" lon="4.7218">
        <ele>50</ele>
        <time>2018-05-16T06:23:46.1Z</time>
      </trkpt>
      <trkpt lat="44.29462" lon="4.72167">
        <ele>50</ele>
        <time>2018-05-16T06:23:48.1Z</time>
      </trkpt>
      <trkpt lat="44.29467" lon="4.72147">
        <ele>49</ele>
        <time>2018-05-16T06:23:51.1Z</time>
      </trkpt>
      <trkpt lat="44.2947" lon="4.72133">
        <ele>48</ele>
        <time>2018-05-16T06:23:53.1Z</time>
      </trkpt>
      <trkpt lat="44.29474" lon="4.72113">
        <ele>47</ele>
        <time>2018-05-16T06:23:56.1Z</time>
      </trkpt>
      <trkpt lat="44.29477" lon="4.721">
        <ele>47</ele>
        <time>2018-05-16T06:23:58.1Z</time>
      </trkpt>
      <trkpt lat="44.29479" lon="4.72086">
        <ele>47</ele>
        <time>2018-05-16T06:24:00.1Z</time>
      </trkpt>
      <trkpt lat="44.29482" lon="4.72065">
        <ele>49</ele>
        <time>2018-05-16T06:24:03.1Z</time>
      </trkpt>
      <trkpt lat="44.29483" lon="4.72052">
        <ele>49</ele>
        <time>2018-05-16T06:24:05.1Z</time>
      </trkpt>
      <trkpt lat="44.29485" lon="4.72039">
        <ele>49</ele>
        <time>2018-05-16T06:24:07.1Z</time>
      </trkpt>
      <trkpt lat="44.29487" lon="4.72026">
        <ele>48</ele>
        <time>2018-05-16T06:24:09.1Z</time>
      </trkpt>
      <trkpt lat="44.29489" lon="4.72005">
        <ele>47</ele>
        <time>2018-05-16T06:24:12.1Z</time>
      </trkpt>
      <trkpt lat="44.29491" lon="4.7199">
        <ele>47</ele>
        <time>2018-05-16T06:24:14.1Z</time>
      </trkpt>
      <trkpt lat="44.29492" lon="4.71976">
        <ele>46</ele>
        <time>2018-05-16T06:24:16.1Z</time>
      </trkpt>
      <trkpt lat="44.29493" lon="4.71963">
        <ele>47</ele>
        <time>2018-05-16T06:24:18.1Z</time>
      </trkpt>
      <trkpt lat="44.29495" lon="4.71949">
        <ele>47</ele>
        <time>2018-05-16T06:24:20.1Z</time>
      </trkpt>
      <trkpt lat="44.29496" lon="4.71935">
        <ele>47</ele>
        <time>2018-05-16T06:24:22.1Z</time>
      </trkpt>
      <trkpt lat="44.29497" lon="4.7192">
        <ele>47</ele>
        <time>2018-05-16T06:24:24.1Z</time>
      </trkpt>
      <trkpt lat="44.29499" lon="4.719">
        <ele>46</ele>
        <time>2018-05-16T06:24:27.1Z</time>
      </trkpt>
      <trkpt lat="44.29501" lon="4.71885">
        <ele>46</ele>
        <time>2018-05-16T06:24:29.1Z</time>
      </trkpt>
      <trkpt lat="44.29502" lon="4.71871">
        <ele>45</ele>
        <time>2018-05-16T06:24:31.1Z</time>
      </trkpt>
      <trkpt lat="44.29511" lon="4.71852">
        <ele>46</ele>
        <time>2018-05-16T06:24:34.1Z</time>
      </trkpt>
      <trkpt lat="44.29518" lon="4.71839">
        <ele>46</ele>
        <time>2018-05-16T06:24:36.1Z</time>
      </trkpt>
      <trkpt lat="44.2952" lon="4.71823">
        <ele>46</ele>
        <time>2018-05-16T06:24:38.1Z</time>
      </trkpt>
      <trkpt lat="44.29515" lon="4.71801">
        <ele>46</ele>
        <time>2018-05-16T06:24:41.1Z</time>
      </trkpt>
      <trkpt lat="44.29511" lon="4.71788">
        <ele>46</ele>
        <time>2018-05-16T06:24:43.1Z</time>
      </trkpt>
      <trkpt lat="44.2951" lon="4.71766">
        <ele>46</ele>
        <time>2018-05-16T06:24:46.1Z</time>
      </trkpt>
      <trkpt lat="44.29511" lon="4.71751">
        <ele>46</ele>
        <time>2018-05-16T06:24:48.1Z</time>
      </trkpt>
      <trkpt lat="44.29511" lon="4.71737">
        <ele>46</ele>
        <time>2018-05-16T06:24:50.1Z</time>
      </trkpt>
      <trkpt lat="44.29512" lon="4.71715">
        <ele>46</ele>
        <time>2018-05-16T06:24:53.1Z</time>
      </trkpt>
      <trkpt lat="44.29513" lon="4.717">
        <ele>46</ele>
        <time>2018-05-16T06:24:55.1Z</time>
      </trkpt>
      <trkpt lat="44.29514" lon="4.71685">
        <ele>47</ele>
        <time>2018-05-16T06:24:57.1Z</time>
      </trkpt>
      <trkpt lat="44.29515" lon="4.71662">
        <ele>47</ele>
        <time>2018-05-16T06:25:00.1Z</time>
      </trkpt>
      <trkpt lat="44.29517" lon="4.71638">
        <ele>47</ele>
        <time>2018-05-16T06:25:03.1Z</time>
      </trkpt>
      <trkpt lat="44.29519" lon="4.71623">
        <ele>47</ele>
        <time>2018-05-16T06:25:05.1Z</time>
      </trkpt>
      <trkpt lat="44.2952" lon="4.71608">
        <ele>46</ele>
        <time>2018-05-16T06:25:07.1Z</time>
      </trkpt>
      <trkpt lat="44.29521" lon="4.71594">
        <ele>46</ele>
        <time>2018-05-16T06:25:09.1Z</time>
      </trkpt>
      <trkpt lat="44.29522" lon="4.71579">
        <ele>46</ele>
        <time>2018-05-16T06:25:11.1Z</time>
      </trkpt>
      <trkpt lat="44.29523" lon="4.71564">
        <ele>47</ele>
        <time>2018-05-16T06:25:13.1Z</time>
      </trkpt>
      <trkpt lat="44.29524" lon="4.71548">
        <ele>48</ele>
        <time>2018-05-16T06:25:15.1Z</time>
      </trkpt>
      <trkpt lat="44.29526" lon="4.71526">
        <ele>48</ele>
        <time>2018-05-16T06:25:18.1Z</time>
      </trkpt>
      <trkpt lat="44.29528" lon="4.71503">
        <ele>49</ele>
        <time>2018-05-16T06:25:21.1Z</time>
      </trkpt>
      <trkpt lat="44.29529" lon="4.71489">
        <ele>48</ele>
        <time>2018-05-16T06:25:23.1Z</time>
      </trkpt>
      <trkpt lat="44.29531" lon="4.71467">
        <ele>47</ele>
        <time>2018-05-16T06:25:26.1Z</time>
      </trkpt>
      <trkpt lat="44.29533" lon="4.71453">
        <ele>47</ele>
        <time>2018-05-16T06:25:28.1Z</time>
      </trkpt>
      <trkpt lat="44.29534" lon="4.7144">
        <ele>46</ele>
        <time>2018-05-16T06:25:30.1Z</time>
      </trkpt>
      <trkpt lat="44.29536" lon="4.71425">
        <ele>47</ele>
        <time>2018-05-16T06:25:32.1Z</time>
      </trkpt>
      <trkpt lat="44.29538" lon="4.71412">
        <ele>47</ele>
        <time>2018-05-16T06:25:34.1Z</time>
      </trkpt>
      <trkpt lat="44.29541" lon="4.71391">
        <ele>47</ele>
        <time>2018-05-16T06:25:37.1Z</time>
      </trkpt>
      <trkpt lat="44.29544" lon="4.71377">
        <ele>47</ele>
        <time>2018-05-16T06:25:39.1Z</time>
      </trkpt>
      <trkpt lat="44.29547" lon="4.71363">
        <ele>47</ele>
        <time>2018-05-16T06:25:41.1Z</time>
      </trkpt>
      <trkpt lat="44.29552" lon="4.71343">
        <ele>47</ele>
        <time>2018-05-16T06:25:44.1Z</time>
      </trkpt>
      <trkpt lat="44.29556" lon="4.7133">
        <ele>46</ele>
        <time>2018-05-16T06:25:46.1Z</time>
      </trkpt>
      <trkpt lat="44.2956" lon="4.71317">
        <ele>46</ele>
        <time>2018-05-16T06:25:48.1Z</time>
      </trkpt>
      <trkpt lat="44.29567" lon="4.71297">
        <ele>46</ele>
        <time>2018-05-16T06:25:51.1Z</time>
      </trkpt>
      <trkpt lat="44.29572" lon="4.71285">
        <ele>46</ele>
        <time>2018-05-16T06:25:53.1Z</time>
      </trkpt>
      <trkpt lat="44.29576" lon="4.71273">
        <ele>47</ele>
        <time>2018-05-16T06:25:55.1Z</time>
      </trkpt>
      <trkpt lat="44.29583" lon="4.71255">
        <ele>48</ele>
        <time>2018-05-16T06:25:58.1Z</time>
      </trkpt>
      <trkpt lat="44.29588" lon="4.71244">
        <ele>48</ele>
        <time>2018-05-16T06:26:00.1Z</time>
      </trkpt>
      <trkpt lat="44.29592" lon="4.71232">
        <ele>48</ele>
        <time>2018-05-16T06:26:02.1Z</time>
      </trkpt>
      <trkpt lat="44.29597" lon="4.71221">
        <ele>48</ele>
        <time>2018-05-16T06:26:04.1Z</time>
      </trkpt>
      <trkpt lat="44.29602" lon="4.71209">
        <ele>48</ele>
        <time>2018-05-16T06:26:06.1Z</time>
      </trkpt>
      <trkpt lat="44.29606" lon="4.71198">
        <ele>47</ele>
        <time>2018-05-16T06:26:08.1Z</time>
      </trkpt>
      <trkpt lat="44.29613" lon="4.7118">
        <ele>48</ele>
        <time>2018-05-16T06:26:11.1Z</time>
      </trkpt>
      <trkpt lat="44.29618" lon="4.71168">
        <ele>48</ele>
        <time>2018-05-16T06:26:13.1Z</time>
      </trkpt>
      <trkpt lat="44.29623" lon="4.71155">
        <ele>48</ele>
        <time>2018-05-16T06:26:15.1Z</time>
      </trkpt>
      <trkpt lat="44.29628" lon="4.71142">
        <ele>49</ele>
        <time>2018-05-16T06:26:17.1Z</time>
      </trkpt>
      <trkpt lat="44.29635" lon="4.71124">
        <ele>49</ele>
        <time>2018-05-16T06:26:20.1Z</time>
      </trkpt>
      <trkpt lat="44.2964" lon="4.71112">
        <ele>50</ele>
        <time>2018-05-16T06:26:22.1Z</time>
      </trkpt>
      <trkpt lat="44.29645" lon="4.71099">
        <ele>50</ele>
        <time>2018-05-16T06:26:24.1Z</time>
      </trkpt>
      <trkpt lat="44.29653" lon="4.7108">
        <ele>49</ele>
        <time>2018-05-16T06:26:27.1Z</time>
      </trkpt>
      <trkpt lat="44.29659" lon="4.71066">
        <ele>48</ele>
        <time>2018-05-16T06:26:29.1Z</time>
      </trkpt>
      <trkpt lat="44.29665" lon="4.71053">
        <ele>47</ele>
        <time>2018-05-16T06:26:31.1Z</time>
      </trkpt>
      <trkpt lat="44.29673" lon="4.71032">
        <ele>48</ele>
        <time>2018-05-16T06:26:34.1Z</time>
      </trkpt>
      <trkpt lat="44.29679" lon="4.71019">
        <ele>48</ele>
        <time>2018-05-16T06:26:36.1Z</time>
      </trkpt>
      <trkpt lat="44.29689" lon="4.70999">
        <ele>47</ele>
        <time>2018-05-16T06:26:39.1Z</time>
      </trkpt>
      <trkpt lat="44.29695" lon="4.70988">
        <ele>48</ele>
        <time>2018-05-16T06:26:41.1Z</time>
      </trkpt>
      <trkpt lat="44.29705" lon="4.70971">
        <ele>49</ele>
        <time>2018-05-16T06:26:44.1Z</time>
      </trkpt>
      <trkpt lat="44.29715" lon="4.70957">
        <ele>49</ele>
        <time>2018-05-16T06:26:47.1Z</time>
      </trkpt>
      <trkpt lat="44.29721" lon="4.70948">
        <ele>49</ele>
        <time>2018-05-16T06:26:49.1Z</time>
      </trkpt>
      <trkpt lat="44.29728" lon="4.70939">
        <ele>49</ele>
        <time>2018-05-16T06:26:51.1Z</time>
      </trkpt>
      <trkpt lat="44.29736" lon="4.7093">
        <ele>48</ele>
        <time>2018-05-16T06:26:53.1Z</time>
      </trkpt>
      <trkpt lat="44.29747" lon="4.70917">
        <ele>48</ele>
        <time>2018-05-16T06:26:56.1Z</time>
      </trkpt>
      <trkpt lat="44.29755" lon="4.70908">
        <ele>48</ele>
        <time>2018-05-16T06:26:58.1Z</time>
      </trkpt>
      <trkpt lat="44.29763" lon="4.70899">
        <ele>47</ele>
        <time>2018-05-16T06:27:00.1Z</time>
      </trkpt>
      <trkpt lat="44.29775" lon="4.70886">
        <ele>47</ele>
        <time>2018-05-16T06:27:03.1Z</time>
      </trkpt>
      <trkpt lat="44.29786" lon="4.70872">
        <ele>47</ele>
        <time>2018-05-16T06:27:06.1Z</time>
      </trkpt>
      <trkpt lat="44.29794" lon="4.70864">
        <ele>47</ele>
        <time>2018-05-16T06:27:08.1Z</time>
      </trkpt>
      <trkpt lat="44.29801" lon="4.70855">
        <ele>47</ele>
        <time>2018-05-16T06:27:10.1Z</time>
      </trkpt>
      <trkpt lat="44.29809" lon="4.70846">
        <ele>46</ele>
        <time>2018-05-16T06:27:12.1Z</time>
      </trkpt>
      <trkpt lat="44.29816" lon="4.70837">
        <ele>47</ele>
        <time>2018-05-16T06:27:14.1Z</time>
      </trkpt>
      <trkpt lat="44.29827" lon="4.70824">
        <ele>47</ele>
        <time>2018-05-16T06:27:17.1Z</time>
      </trkpt>
      <trkpt lat="44.29835" lon="4.70816">
        <ele>47</ele>
        <time>2018-05-16T06:27:19.1Z</time>
      </trkpt>
      <trkpt lat="44.29842" lon="4.70807">
        <ele>47</ele>
        <time>2018-05-16T06:27:21.1Z</time>
      </trkpt>
      <trkpt lat="44.2985" lon="4.70797">
        <ele>46</ele>
        <time>2018-05-16T06:27:23.1Z</time>
      </trkpt>
      <trkpt lat="44.29861" lon="4.70784">
        <ele>47</ele>
        <time>2018-05-16T06:27:26.1Z</time>
      </trkpt>
      <trkpt lat="44.29868" lon="4.70775">
        <ele>46</ele>
        <time>2018-05-16T06:27:28.1Z</time>
      </trkpt>
      <trkpt lat="44.29878" lon="4.7076">
        <ele>46</ele>
        <time>2018-05-16T06:27:31.1Z</time>
      </trkpt>
      <trkpt lat="44.29888" lon="4.70745">
        <ele>46</ele>
        <time>2018-05-16T06:27:34.1Z</time>
      </trkpt>
      <trkpt lat="44.29895" lon="4.70734">
        <ele>45</ele>
        <time>2018-05-16T06:27:36.1Z</time>
      </trkpt>
      <trkpt lat="44.29902" lon="4.70723">
        <ele>46</ele>
        <time>2018-05-16T06:27:38.1Z</time>
      </trkpt>
      <trkpt lat="44.29911" lon="4.70705">
        <ele>46</ele>
        <time>2018-05-16T06:27:41.1Z</time>
      </trkpt>
      <trkpt lat="44.29917" lon="4.70693">
        <ele>46</ele>
        <time>2018-05-16T06:27:43.1Z</time>
      </trkpt>
      <trkpt lat="44.29925" lon="4.70675">
        <ele>46</ele>
        <time>2018-05-16T06:27:46.1Z</time>
      </trkpt>
      <trkpt lat="44.2993" lon="4.70663">
        <ele>47</ele>
        <time>2018-05-16T06:27:48.1Z</time>
      </trkpt>
      <trkpt lat="44.29934" lon="4.7065">
        <ele>48</ele>
        <time>2018-05-16T06:27:50.1Z</time>
      </trkpt>
      <trkpt lat="44.2994" lon="4.70631">
        <ele>48</ele>
        <time>2018-05-16T06:27:53.1Z</time>
      </trkpt>
      <trkpt lat="44.29944" lon="4.70618">
        <ele>48</ele>
        <time>2018-05-16T06:27:55.1Z</time>
      </trkpt>
      <trkpt lat="44.29948" lon="4.70606">
        <ele>48</ele>
        <time>2018-05-16T06:27:57.1Z</time>
      </trkpt>
      <trkpt lat="44.29952" lon="4.70587">
        <ele>48</ele>
        <time>2018-05-16T06:28:00.1Z</time>
      </trkpt>
      <trkpt lat="44.29955" lon="4.70575">
        <ele>49</ele>
        <time>2018-05-16T06:28:02.1Z</time>
      </trkpt>
      <trkpt lat="44.29958" lon="4.70555">
        <ele>50</ele>
        <time>2018-05-16T06:28:05.1Z</time>
      </trkpt>
      <trkpt lat="44.2996" lon="4.70536">
        <ele>50</ele>
        <time>2018-05-16T06:28:08.1Z</time>
      </trkpt>
      <trkpt lat="44.29961" lon="4.70523">
        <ele>50</ele>
        <time>2018-05-16T06:28:10.1Z</time>
      </trkpt>
      <trkpt lat="44.29962" lon="4.7051">
        <ele>50</ele>
        <time>2018-05-16T06:28:12.1Z</time>
      </trkpt>
      <trkpt lat="44.29962" lon="4.7049">
        <ele>51</ele>
        <time>2018-05-16T06:28:15.1Z</time>
      </trkpt>
      <trkpt lat="44.29963" lon="4.70477">
        <ele>51</ele>
        <time>2018-05-16T06:28:17.1Z</time>
      </trkpt>
      <trkpt lat="44.29962" lon="4.70464">
        <ele>51</ele>
        <time>2018-05-16T06:28:19.1Z</time>
      </trkpt>
      <trkpt lat="44.29961" lon="4.70451">
        <ele>52</ele>
        <time>2018-05-16T06:28:21.1Z</time>
      </trkpt>
      <trkpt lat="44.2996" lon="4.70431">
        <ele>53</ele>
        <time>2018-05-16T06:28:24.1Z</time>
      </trkpt>
      <trkpt lat="44.29959" lon="4.70418">
        <ele>53</ele>
        <time>2018-05-16T06:28:26.1Z</time>
      </trkpt>
      <trkpt lat="44.29958" lon="4.70405">
        <ele>54</ele>
        <time>2018-05-16T06:28:28.1Z</time>
      </trkpt>
      <trkpt lat="44.29956" lon="4.70387">
        <ele>54</ele>
        <time>2018-05-16T06:28:31.1Z</time>
      </trkpt>
      <trkpt lat="44.29955" lon="4.70374">
        <ele>55</ele>
        <time>2018-05-16T06:28:33.1Z</time>
      </trkpt>
      <trkpt lat="44.29953" lon="4.70363">
        <ele>55</ele>
        <time>2018-05-16T06:28:35.1Z</time>
      </trkpt>
      <trkpt lat="44.29952" lon="4.70351">
        <ele>55</ele>
        <time>2018-05-16T06:28:37.1Z</time>
      </trkpt>
      <trkpt lat="44.29951" lon="4.70339">
        <ele>56</ele>
        <time>2018-05-16T06:28:39.1Z</time>
      </trkpt>
      <trkpt lat="44.29949" lon="4.7032">
        <ele>56</ele>
        <time>2018-05-16T06:28:42.1Z</time>
      </trkpt>
      <trkpt lat="44.29947" lon="4.70307">
        <ele>56</ele>
        <time>2018-05-16T06:28:44.1Z</time>
      </trkpt>
      <trkpt lat="44.29945" lon="4.70293">
        <ele>56</ele>
        <time>2018-05-16T06:28:46.1Z</time>
      </trkpt>
      <trkpt lat="44.29943" lon="4.70272">
        <ele>55</ele>
        <time>2018-05-16T06:28:49.1Z</time>
      </trkpt>
      <trkpt lat="44.29941" lon="4.70258">
        <ele>56</ele>
        <time>2018-05-16T06:28:51.1Z</time>
      </trkpt>
      <trkpt lat="44.2994" lon="4.70243">
        <ele>55</ele>
        <time>2018-05-16T06:28:53.1Z</time>
      </trkpt>
      <trkpt lat="44.29937" lon="4.70221">
        <ele>56</ele>
        <time>2018-05-16T06:28:56.1Z</time>
      </trkpt>
      <trkpt lat="44.29936" lon="4.70205">
        <ele>56</ele>
        <time>2018-05-16T06:28:58.1Z</time>
      </trkpt>
      <trkpt lat="44.29933" lon="4.70183">
        <ele>55</ele>
        <time>2018-05-16T06:29:01.1Z</time>
      </trkpt>
      <trkpt lat="44.29932" lon="4.70167">
        <ele>55</ele>
        <time>2018-05-16T06:29:03.1Z</time>
      </trkpt>
      <trkpt lat="44.2993" lon="4.70152">
        <ele>54</ele>
        <time>2018-05-16T06:29:05.1Z</time>
      </trkpt>
      <trkpt lat="44.29927" lon="4.70128">
        <ele>54</ele>
        <time>2018-05-16T06:29:08.1Z</time>
      </trkpt>
      <trkpt lat="44.29926" lon="4.70112">
        <ele>54</ele>
        <time>2018-05-16T06:29:10.1Z</time>
      </trkpt>
      <trkpt lat="44.29924" lon="4.70096">
        <ele>54</ele>
        <time>2018-05-16T06:29:12.1Z</time>
      </trkpt>
      <trkpt lat="44.29922" lon="4.7008">
        <ele>54</ele>
        <time>2018-05-16T06:29:14.1Z</time>
      </trkpt>
      <trkpt lat="44.29919" lon="4.70056">
        <ele>53</ele>
        <time>2018-05-16T06:29:17.1Z</time>
      </trkpt>
      <trkpt lat="44.29917" lon="4.7004">
        <ele>53</ele>
        <time>2018-05-16T06:29:19.1Z</time>
      </trkpt>
      <trkpt lat="44.29916" lon="4.70024">
        <ele>52</ele>
        <time>2018-05-16T06:29:21.1Z</time>
      </trkpt>
      <trkpt lat="44.29913" lon="4.7">
        <ele>52</ele>
        <time>2018-05-16T06:29:24.1Z</time>
      </trkpt>
      <trkpt lat="44.29911" lon="4.69985">
        <ele>52</ele>
        <time>2018-05-16T06:29:26.1Z</time>
      </trkpt>
      <trkpt lat="44.2991" lon="4.6997">
        <ele>52</ele>
        <time>2018-05-16T06:29:28.1Z</time>
      </trkpt>
      <trkpt lat="44.29907" lon="4.69947">
        <ele>52</ele>
        <time>2018-05-16T06:29:31.1Z</time>
      </trkpt>
      <trkpt lat="44.29905" lon="4.69933">
        <ele>52</ele>
        <time>2018-05-16T06:29:33.1Z</time>
      </trkpt>
      <trkpt lat="44.29904" lon="4.69917">
        <ele>52</ele>
        <time>2018-05-16T06:29:35.1Z</time>
      </trkpt>
      <trkpt lat="44.29902" lon="4.69902">
        <ele>52</ele>
        <time>2018-05-16T06:29:37.1Z</time>
      </trkpt>
      <trkpt lat="44.29898" lon="4.69877">
        <ele>52</ele>
        <time>2018-05-16T06:29:40.1Z</time>
      </trkpt>
      <trkpt lat="44.29896" lon="4.69861">
        <ele>52</ele>
        <time>2018-05-16T06:29:42.1Z</time>
      </trkpt>
      <trkpt lat="44.29894" lon="4.69844">
        <ele>52</ele>
        <time>2018-05-16T06:29:44.1Z</time>
      </trkpt>
      <trkpt lat="44.29891" lon="4.6982">
        <ele>51</ele>
        <time>2018-05-16T06:29:47.1Z</time>
      </trkpt>
      <trkpt lat="44.29888" lon="4.69794">
        <ele>51</ele>
        <time>2018-05-16T06:29:50.1Z</time>
      </trkpt>
      <trkpt lat="44.29885" lon="4.69776">
        <ele>50</ele>
        <time>2018-05-16T06:29:52.1Z</time>
      </trkpt>
      <trkpt lat="44.29883" lon="4.69757">
        <ele>50</ele>
        <time>2018-05-16T06:29:54.1Z</time>
      </trkpt>
      <trkpt lat="44.29879" lon="4.69728">
        <ele>51</ele>
        <time>2018-05-16T06:29:57.1Z</time>
      </trkpt>
      <trkpt lat="44.29876" lon="4.69709">
        <ele>50</ele>
        <time>2018-05-16T06:29:59.1Z</time>
      </trkpt>
      <trkpt lat="44.29874" lon="4.6969">
        <ele>50</ele>
        <time>2018-05-16T06:30:01.1Z</time>
      </trkpt>
      <trkpt lat="44.29879" lon="4.69672">
        <ele>47</ele>
        <time>2018-05-16T06:30:04.1Z</time>
      </trkpt>
      <trkpt lat="44.29888" lon="4.69678">
        <ele>47</ele>
        <time>2018-05-16T06:30:06.1Z</time>
      </trkpt>
      <trkpt lat="44.29892" lon="4.69693">
        <ele>47</ele>
        <time>2018-05-16T06:30:08.1Z</time>
      </trkpt>
      <trkpt lat="44.29894" lon="4.6971">
        <ele>46</ele>
        <time>2018-05-16T06:30:10.1Z</time>
      </trkpt>
      <trkpt lat="44.29896" lon="4.69737">
        <ele>45</ele>
        <time>2018-05-16T06:30:13.1Z</time>
      </trkpt>
      <trkpt lat="44.29899" lon="4.69763">
        <ele>44</ele>
        <time>2018-05-16T06:30:16.1Z</time>
      </trkpt>
      <trkpt lat="44.29903" lon="4.69778">
        <ele>44</ele>
        <time>2018-05-16T06:30:18.1Z</time>
      </trkpt>
      <trkpt lat="44.29912" lon="4.69785">
        <ele>44</ele>
        <time>2018-05-16T06:30:20.1Z</time>
      </trkpt>
      <trkpt lat="44.29927" lon="4.69787">
        <ele>44</ele>
        <time>2018-05-16T06:30:23.1Z</time>
      </trkpt>
      <trkpt lat="44.29943" lon="4.69783">
        <ele>44</ele>
        <time>2018-05-16T06:30:26.1Z</time>
      </trkpt>
      <trkpt lat="44.29959" lon="4.69781">
        <ele>44</ele>
        <time>2018-05-16T06:30:29.1Z</time>
      </trkpt>
      <trkpt lat="44.2997" lon="4.6978">
        <ele>44</ele>
        <time>2018-05-16T06:30:31.1Z</time>
      </trkpt>
      <trkpt lat="44.29981" lon="4.69779">
        <ele>44</ele>
        <time>2018-05-16T06:30:33.1Z</time>
      </trkpt>
      <trkpt lat="44.29992" lon="4.69779">
        <ele>44</ele>
        <time>2018-05-16T06:30:35.1Z</time>
      </trkpt>
      <trkpt lat="44.30008" lon="4.6978">
        <ele>44</ele>
        <time>2018-05-16T06:30:38.1Z</time>
      </trkpt>
      <trkpt lat="44.30025" lon="4.69783">
        <ele>44</ele>
        <time>2018-05-16T06:30:41.1Z</time>
      </trkpt>
      <trkpt lat="44.3004" lon="4.69787">
        <ele>44</ele>
        <time>2018-05-16T06:30:44.1Z</time>
      </trkpt>
      <trkpt lat="44.30049" lon="4.69791">
        <ele>44</ele>
        <time>2018-05-16T06:30:46.1Z</time>
      </trkpt>
      <trkpt lat="44.30058" lon="4.69794">
        <ele>44</ele>
        <time>2018-05-16T06:30:48.1Z</time>
      </trkpt>
      <trkpt lat="44.30064" lon="4.69793">
        <ele>45</ele>
        <time>2018-05-16T06:30:50.1Z</time>
      </trkpt>
      <trkpt lat="44.30073" lon="4.69782">
        <ele>45</ele>
        <time>2018-05-16T06:30:53.1Z</time>
      </trkpt>
      <trkpt lat="44.30077" lon="4.69771">
        <ele>45</ele>
        <time>2018-05-16T06:30:55.1Z</time>
      </trkpt>
      <trkpt lat="44.30082" lon="4.69756">
        <ele>45</ele>
        <time>2018-05-16T06:30:58.1Z</time>
      </trkpt>
      <trkpt lat="44.3009" lon="4.6974">
        <ele>44</ele>
        <time>2018-05-16T06:31:01.1Z</time>
      </trkpt>
      <trkpt lat="44.30096" lon="4.6973">
        <ele>44</ele>
        <time>2018-05-16T06:31:03.1Z</time>
      </trkpt>
      <trkpt lat="44.30102" lon="4.6972">
        <ele>45</ele>
        <time>2018-05-16T06:31:05.1Z</time>
      </trkpt>
      <trkpt lat="44.30109" lon="4.69711">
        <ele>47</ele>
        <time>2018-05-16T06:31:07.1Z</time>
      </trkpt>
      <trkpt lat="44.30114" lon="4.69703">
        <ele>47</ele>
        <time>2018-05-16T06:31:09.1Z</time>
      </trkpt>
      <trkpt lat="44.30124" lon="4.69689">
        <ele>47</ele>
        <time>2018-05-16T06:31:12.1Z</time>
      </trkpt>
      <trkpt lat="44.3013" lon="4.6968">
        <ele>46</ele>
        <time>2018-05-16T06:31:14.1Z</time>
      </trkpt>
      <trkpt lat="44.30139" lon="4.69667">
        <ele>44</ele>
        <time>2018-05-16T06:31:17.1Z</time>
      </trkpt>
      <trkpt lat="44.30146" lon="4.69659">
        <ele>44</ele>
        <time>2018-05-16T06:31:19.1Z</time>
      </trkpt>
      <trkpt lat="44.30153" lon="4.6965">
        <ele>43</ele>
        <time>2018-05-16T06:31:21.1Z</time>
      </trkpt>
      <trkpt lat="44.30162" lon="4.69636">
        <ele>43</ele>
        <time>2018-05-16T06:31:24.1Z</time>
      </trkpt>
      <trkpt lat="44.30169" lon="4.69627">
        <ele>43</ele>
        <time>2018-05-16T06:31:26.1Z</time>
      </trkpt>
      <trkpt lat="44.30176" lon="4.69617">
        <ele>42</ele>
        <time>2018-05-16T06:31:28.1Z</time>
      </trkpt>
      <trkpt lat="44.30183" lon="4.69607">
        <ele>42</ele>
        <time>2018-05-16T06:31:30.1Z</time>
      </trkpt>
      <trkpt lat="44.30193" lon="4.69594">
        <ele>42</ele>
        <time>2018-05-16T06:31:33.1Z</time>
      </trkpt>
      <trkpt lat="44.302" lon="4.69585">
        <ele>42</ele>
        <time>2018-05-16T06:31:35.1Z</time>
      </trkpt>
      <trkpt lat="44.30206" lon="4.69575">
        <ele>43</ele>
        <time>2018-05-16T06:31:37.1Z</time>
      </trkpt>
      <trkpt lat="44.30214" lon="4.69565">
        <ele>43</ele>
        <time>2018-05-16T06:31:39.1Z</time>
      </trkpt>
      <trkpt lat="44.30225" lon="4.69552">
        <ele>44</ele>
        <time>2018-05-16T06:31:42.1Z</time>
      </trkpt>
      <trkpt lat="44.30238" lon="4.69539">
        <ele>44</ele>
        <time>2018-05-16T06:31:45.1Z</time>
      </trkpt>
      <trkpt lat="44.30246" lon="4.69529">
        <ele>44</ele>
        <time>2018-05-16T06:31:47.1Z</time>
      </trkpt>
      <trkpt lat="44.30258" lon="4.69513">
        <ele>44</ele>
        <time>2018-05-16T06:31:50.1Z</time>
      </trkpt>
      <trkpt lat="44.30265" lon="4.69501">
        <ele>44</ele>
        <time>2018-05-16T06:31:52.1Z</time>
      </trkpt>
      <trkpt lat="44.3027" lon="4.69489">
        <ele>43</ele>
        <time>2018-05-16T06:31:54.1Z</time>
      </trkpt>
      <trkpt lat="44.30278" lon="4.69472">
        <ele>43</ele>
        <time>2018-05-16T06:31:57.1Z</time>
      </trkpt>
      <trkpt lat="44.30286" lon="4.69453">
        <ele>43</ele>
        <time>2018-05-16T06:32:00.1Z</time>
      </trkpt>
      <trkpt lat="44.30294" lon="4.69434">
        <ele>43</ele>
        <time>2018-05-16T06:32:03.1Z</time>
      </trkpt>
      <trkpt lat="44.30301" lon="4.69415">
        <ele>43</ele>
        <time>2018-05-16T06:32:06.1Z</time>
      </trkpt>
      <trkpt lat="44.30306" lon="4.69403">
        <ele>43</ele>
        <time>2018-05-16T06:32:08.1Z</time>
      </trkpt>
      <trkpt lat="44.30313" lon="4.69385">
        <ele>43</ele>
        <time>2018-05-16T06:32:11.1Z</time>
      </trkpt>
      <trkpt lat="44.30318" lon="4.69368">
        <ele>44</ele>
        <time>2018-05-16T06:32:14.1Z</time>
      </trkpt>
      <trkpt lat="44.30326" lon="4.69352">
        <ele>44</ele>
        <time>2018-05-16T06:32:16.1Z</time>
      </trkpt>
      <trkpt lat="44.30331" lon="4.69342">
        <ele>44</ele>
        <time>2018-05-16T06:32:19.1Z</time>
      </trkpt>
      <trkpt lat="44.3034" lon="4.69326">
        <ele>43</ele>
        <time>2018-05-16T06:32:22.1Z</time>
      </trkpt>
      <trkpt lat="44.30346" lon="4.69314">
        <ele>42</ele>
        <time>2018-05-16T06:32:24.1Z</time>
      </trkpt>
      <trkpt lat="44.30355" lon="4.69295">
        <ele>42</ele>
        <time>2018-05-16T06:32:27.1Z</time>
      </trkpt>
      <trkpt lat="44.30364" lon="4.69277">
        <ele>43</ele>
        <time>2018-05-16T06:32:30.1Z</time>
      </trkpt>
      <trkpt lat="44.30373" lon="4.6926">
        <ele>44</ele>
        <time>2018-05-16T06:32:33.1Z</time>
      </trkpt>
      <trkpt lat="44.30378" lon="4.6925">
        <ele>44</ele>
        <time>2018-05-16T06:32:35.1Z</time>
      </trkpt>
      <trkpt lat="44.30389" lon="4.69238">
        <ele>44</ele>
        <time>2018-05-16T06:32:38.1Z</time>
      </trkpt>
      <trkpt lat="44.304" lon="4.69225">
        <ele>44</ele>
        <time>2018-05-16T06:32:40.1Z</time>
      </trkpt>
      <trkpt lat="44.30408" lon="4.69216">
        <ele>44</ele>
        <time>2018-05-16T06:32:43.1Z</time>
      </trkpt>
      <trkpt lat="44.30418" lon="4.69202">
        <ele>43</ele>
        <time>2018-05-16T06:32:46.1Z</time>
      </trkpt>
      <trkpt lat="44.30424" lon="4.69191">
        <ele>44</ele>
        <time>2018-05-16T06:32:48.1Z</time>
      </trkpt>
      <trkpt lat="44.30431" lon="4.6918">
        <ele>44</ele>
        <time>2018-05-16T06:32:50.1Z</time>
      </trkpt>
      <trkpt lat="44.30438" lon="4.69168">
        <ele>44</ele>
        <time>2018-05-16T06:32:52.1Z</time>
      </trkpt>
      <trkpt lat="44.30444" lon="4.69157">
        <ele>44</ele>
        <time>2018-05-16T06:32:54.1Z</time>
      </trkpt>
      <trkpt lat="44.3045" lon="4.69145">
        <ele>44</ele>
        <time>2018-05-16T06:32:56.1Z</time>
      </trkpt>
      <trkpt lat="44.3046" lon="4.69128">
        <ele>44</ele>
        <time>2018-05-16T06:32:58.1Z</time>
      </trkpt>
      <trkpt lat="44.30466" lon="4.69116">
        <ele>44</ele>
        <time>2018-05-16T06:33:00.1Z</time>
      </trkpt>
      <trkpt lat="44.30471" lon="4.69104">
        <ele>43</ele>
        <time>2018-05-16T06:33:03.1Z</time>
      </trkpt>
      <trkpt lat="44.30477" lon="4.69093">
        <ele>44</ele>
        <time>2018-05-16T06:33:05.1Z</time>
      </trkpt>
      <trkpt lat="44.30481" lon="4.69081">
        <ele>44</ele>
        <time>2018-05-16T06:33:07.1Z</time>
      </trkpt>
      <trkpt lat="44.30487" lon="4.69069">
        <ele>44</ele>
        <time>2018-05-16T06:33:09.1Z</time>
      </trkpt>
      <trkpt lat="44.30492" lon="4.69057">
        <ele>44</ele>
        <time>2018-05-16T06:33:11.1Z</time>
      </trkpt>
      <trkpt lat="44.305" lon="4.69038">
        <ele>43</ele>
        <time>2018-05-16T06:33:13.1Z</time>
      </trkpt>
      <trkpt lat="44.30504" lon="4.69026">
        <ele>43</ele>
        <time>2018-05-16T06:33:16.1Z</time>
      </trkpt>
      <trkpt lat="44.3051" lon="4.69014">
        <ele>44</ele>
        <time>2018-05-16T06:33:18.1Z</time>
      </trkpt>
      <trkpt lat="44.30518" lon="4.68997">
        <ele>44</ele>
        <time>2018-05-16T06:33:21.1Z</time>
      </trkpt>
      <trkpt lat="44.30525" lon="4.68979">
        <ele>43</ele>
        <time>2018-05-16T06:33:23.1Z</time>
      </trkpt>
      <trkpt lat="44.3053" lon="4.68966">
        <ele>42</ele>
        <time>2018-05-16T06:33:25.1Z</time>
      </trkpt>
      <trkpt lat="44.30535" lon="4.68954">
        <ele>42</ele>
        <time>2018-05-16T06:33:28.1Z</time>
      </trkpt>
      <trkpt lat="44.30539" lon="4.68934">
        <ele>42</ele>
        <time>2018-05-16T06:33:30.1Z</time>
      </trkpt>
      <trkpt lat="44.30537" lon="4.68913">
        <ele>43</ele>
        <time>2018-05-16T06:33:33.1Z</time>
      </trkpt>
      <trkpt lat="44.30534" lon="4.68899">
        <ele>42</ele>
        <time>2018-05-16T06:33:36.1Z</time>
      </trkpt>
      <trkpt lat="44.30531" lon="4.68877">
        <ele>42</ele>
        <time>2018-05-16T06:33:39.1Z</time>
      </trkpt>
      <trkpt lat="44.30527" lon="4.68856">
        <ele>42</ele>
        <time>2018-05-16T06:33:41.1Z</time>
      </trkpt>
      <trkpt lat="44.30528" lon="4.68843">
        <ele>42</ele>
        <time>2018-05-16T06:33:44.1Z</time>
      </trkpt>
      <trkpt lat="44.30534" lon="4.68839">
        <ele>42</ele>
        <time>2018-05-16T06:33:46.1Z</time>
      </trkpt>
      <trkpt lat="44.30545" lon="4.68838">
        <ele>42</ele>
        <time>2018-05-16T06:33:49.1Z</time>
      </trkpt>
      <trkpt lat="44.30551" lon="4.68837">
        <ele>43</ele>
        <time>2018-05-16T06:33:51.1Z</time>
      </trkpt>
      <trkpt lat="44.30558" lon="4.68837">
        <ele>42</ele>
        <time>2018-05-16T06:33:53.1Z</time>
      </trkpt>
      <trkpt lat="44.30569" lon="4.68835">
        <ele>42</ele>
        <time>2018-05-16T06:33:55.1Z</time>
      </trkpt>
      <trkpt lat="44.30578" lon="4.68834">
        <ele>42</ele>
        <time>2018-05-16T06:33:57.1Z</time>
      </trkpt>
      <trkpt lat="44.30591" lon="4.68833">
        <ele>43</ele>
        <time>2018-05-16T06:34:00.1Z</time>
      </trkpt>
      <trkpt lat="44.30605" lon="4.6883">
        <ele>42</ele>
        <time>2018-05-16T06:34:03.1Z</time>
      </trkpt>
      <trkpt lat="44.30613" lon="4.68825">
        <ele>43</ele>
        <time>2018-05-16T06:34:06.1Z</time>
      </trkpt>
      <trkpt lat="44.30624" lon="4.68814">
        <ele>43</ele>
        <time>2018-05-16T06:34:08.1Z</time>
      </trkpt>
      <trkpt lat="44.30632" lon="4.68806">
        <ele>43</ele>
        <time>2018-05-16T06:34:10.1Z</time>
      </trkpt>
      <trkpt lat="44.30642" lon="4.68791">
        <ele>44</ele>
        <time>2018-05-16T06:34:13.1Z</time>
      </trkpt>
      <trkpt lat="44.30649" lon="4.68782">
        <ele>43</ele>
        <time>2018-05-16T06:34:16.1Z</time>
      </trkpt>
      <trkpt lat="44.3066" lon="4.68768">
        <ele>43</ele>
        <time>2018-05-16T06:34:18.1Z</time>
      </trkpt>
      <trkpt lat="44.30667" lon="4.68758">
        <ele>42</ele>
        <time>2018-05-16T06:34:20.1Z</time>
      </trkpt>
      <trkpt lat="44.30674" lon="4.68749">
        <ele>42</ele>
        <time>2018-05-16T06:34:22.1Z</time>
      </trkpt>
      <trkpt lat="44.30685" lon="4.68734">
        <ele>43</ele>
        <time>2018-05-16T06:34:25.1Z</time>
      </trkpt>
      <trkpt lat="44.30696" lon="4.6872">
        <ele>43</ele>
        <time>2018-05-16T06:34:29.1Z</time>
      </trkpt>
      <trkpt lat="44.30707" lon="4.68707">
        <ele>43</ele>
        <time>2018-05-16T06:34:32.1Z</time>
      </trkpt>
      <trkpt lat="44.30715" lon="4.68697">
        <ele>43</ele>
        <time>2018-05-16T06:34:34.1Z</time>
      </trkpt>
      <trkpt lat="44.30723" lon="4.68688">
        <ele>42</ele>
        <time>2018-05-16T06:34:36.1Z</time>
      </trkpt>
      <trkpt lat="44.30734" lon="4.68673">
        <ele>43</ele>
        <time>2018-05-16T06:34:38.1Z</time>
      </trkpt>
      <trkpt lat="44.3074" lon="4.68661">
        <ele>44</ele>
        <time>2018-05-16T06:34:41.1Z</time>
      </trkpt>
      <trkpt lat="44.30748" lon="4.68643">
        <ele>44</ele>
        <time>2018-05-16T06:34:44.1Z</time>
      </trkpt>
      <trkpt lat="44.30754" lon="4.6863">
        <ele>43</ele>
        <time>2018-05-16T06:34:47.1Z</time>
      </trkpt>
      <trkpt lat="44.30758" lon="4.68625">
        <ele>42</ele>
        <time>2018-05-16T06:34:50.1Z</time>
      </trkpt>
      <trkpt lat="44.3076" lon="4.68619">
        <ele>42</ele>
        <time>2018-05-16T06:34:52.1Z</time>
      </trkpt>
      <trkpt lat="44.3076" lon="4.68614">
        <ele>42</ele>
        <time>2018-05-16T06:34:54.1Z</time>
      </trkpt>
      <trkpt lat="44.30761" lon="4.68605">
        <ele>42</ele>
        <time>2018-05-16T06:34:57.1Z</time>
      </trkpt>
      <trkpt lat="44.30765" lon="4.68601">
        <ele>42</ele>
        <time>2018-05-16T06:35:00.1Z</time>
      </trkpt>
      <trkpt lat="44.30774" lon="4.68598">
        <ele>43</ele>
        <time>2018-05-16T06:35:03.1Z</time>
      </trkpt>
      <trkpt lat="44.30785" lon="4.68597">
        <ele>43</ele>
        <time>2018-05-16T06:35:05.1Z</time>
      </trkpt>
      <trkpt lat="44.30793" lon="4.68597">
        <ele>44</ele>
        <time>2018-05-16T06:35:07.1Z</time>
      </trkpt>
      <trkpt lat="44.30803" lon="4.68597">
        <ele>44</ele>
        <time>2018-05-16T06:35:09.1Z</time>
      </trkpt>
      <trkpt lat="44.30812" lon="4.68597">
        <ele>44</ele>
        <time>2018-05-16T06:35:11.1Z</time>
      </trkpt>
      <trkpt lat="44.30822" lon="4.68596">
        <ele>45</ele>
        <time>2018-05-16T06:35:14.1Z</time>
      </trkpt>
      <trkpt lat="44.30831" lon="4.68596">
        <ele>44</ele>
        <time>2018-05-16T06:35:16.1Z</time>
      </trkpt>
      <trkpt lat="44.30846" lon="4.68596">
        <ele>44</ele>
        <time>2018-05-16T06:35:19.1Z</time>
      </trkpt>
      <trkpt lat="44.30856" lon="4.68596">
        <ele>44</ele>
        <time>2018-05-16T06:35:21.1Z</time>
      </trkpt>
      <trkpt lat="44.30872" lon="4.68596">
        <ele>44</ele>
        <time>2018-05-16T06:35:23.1Z</time>
      </trkpt>
      <trkpt lat="44.30883" lon="4.68596">
        <ele>44</ele>
        <time>2018-05-16T06:35:25.1Z</time>
      </trkpt>
      <trkpt lat="44.30894" lon="4.68596">
        <ele>44</ele>
        <time>2018-05-16T06:35:28.1Z</time>
      </trkpt>
      <trkpt lat="44.30909" lon="4.68596">
        <ele>44</ele>
        <time>2018-05-16T06:35:30.1Z</time>
      </trkpt>
      <trkpt lat="44.30924" lon="4.68597">
        <ele>44</ele>
        <time>2018-05-16T06:35:33.1Z</time>
      </trkpt>
      <trkpt lat="44.30934" lon="4.68597">
        <ele>44</ele>
        <time>2018-05-16T06:35:35.1Z</time>
      </trkpt>
      <trkpt lat="44.30943" lon="4.68597">
        <ele>44</ele>
        <time>2018-05-16T06:35:38.1Z</time>
      </trkpt>
      <trkpt lat="44.30958" lon="4.68597">
        <ele>44</ele>
        <time>2018-05-16T06:35:40.1Z</time>
      </trkpt>
      <trkpt lat="44.30968" lon="4.68597">
        <ele>44</ele>
        <time>2018-05-16T06:35:43.1Z</time>
      </trkpt>
      <trkpt lat="44.30978" lon="4.68597">
        <ele>45</ele>
        <time>2018-05-16T06:35:45.1Z</time>
      </trkpt>
      <trkpt lat="44.30994" lon="4.68598">
        <ele>45</ele>
        <time>2018-05-16T06:35:47.1Z</time>
      </trkpt>
      <trkpt lat="44.31005" lon="4.68598">
        <ele>45</ele>
        <time>2018-05-16T06:35:50.1Z</time>
      </trkpt>
      <trkpt lat="44.3102" lon="4.68598">
        <ele>45</ele>
        <time>2018-05-16T06:35:52.1Z</time>
      </trkpt>
      <trkpt lat="44.31031" lon="4.68598">
        <ele>45</ele>
        <time>2018-05-16T06:35:54.1Z</time>
      </trkpt>
      <trkpt lat="44.3104" lon="4.68599">
        <ele>45</ele>
        <time>2018-05-16T06:35:57.1Z</time>
      </trkpt>
      <trkpt lat="44.3105" lon="4.68598">
        <ele>44</ele>
        <time>2018-05-16T06:35:59.1Z</time>
      </trkpt>
      <trkpt lat="44.3106" lon="4.68598">
        <ele>43</ele>
        <time>2018-05-16T06:36:01.1Z</time>
      </trkpt>
      <trkpt lat="44.31076" lon="4.68599">
        <ele>43</ele>
        <time>2018-05-16T06:36:03.1Z</time>
      </trkpt>
      <trkpt lat="44.31086" lon="4.68599">
        <ele>43</ele>
        <time>2018-05-16T06:36:05.1Z</time>
      </trkpt>
      <trkpt lat="44.31096" lon="4.68599">
        <ele>44</ele>
        <time>2018-05-16T06:36:08.1Z</time>
      </trkpt>
      <trkpt lat="44.31111" lon="4.68599">
        <ele>45</ele>
        <time>2018-05-16T06:36:10.1Z</time>
      </trkpt>
      <trkpt lat="44.31125" lon="4.68599">
        <ele>45</ele>
        <time>2018-05-16T06:36:14.1Z</time>
      </trkpt>
      <trkpt lat="44.31139" lon="4.686">
        <ele>44</ele>
        <time>2018-05-16T06:36:17.1Z</time>
      </trkpt>
      <trkpt lat="44.31153" lon="4.686">
        <ele>43</ele>
        <time>2018-05-16T06:36:20.1Z</time>
      </trkpt>
      <trkpt lat="44.31166" lon="4.686">
        <ele>43</ele>
        <time>2018-05-16T06:36:22.1Z</time>
      </trkpt>
      <trkpt lat="44.31179" lon="4.68598">
        <ele>43</ele>
        <time>2018-05-16T06:36:25.1Z</time>
      </trkpt>
      <trkpt lat="44.31186" lon="4.68594">
        <ele>43</ele>
        <time>2018-05-16T06:36:27.1Z</time>
      </trkpt>
      <trkpt lat="44.31192" lon="4.68586">
        <ele>42</ele>
        <time>2018-05-16T06:36:29.1Z</time>
      </trkpt>
      <trkpt lat="44.31196" lon="4.68576">
        <ele>42</ele>
        <time>2018-05-16T06:36:32.1Z</time>
      </trkpt>
      <trkpt lat="44.31205" lon="4.68565">
        <ele>44</ele>
        <time>2018-05-16T06:36:35.1Z</time>
      </trkpt>
      <trkpt lat="44.31211" lon="4.68556">
        <ele>45</ele>
        <time>2018-05-16T06:36:37.1Z</time>
      </trkpt>
      <trkpt lat="44.31214" lon="4.68541">
        <ele>45</ele>
        <time>2018-05-16T06:36:40.1Z</time>
      </trkpt>
      <trkpt lat="44.31213" lon="4.6853">
        <ele>44</ele>
        <time>2018-05-16T06:36:42.1Z</time>
      </trkpt>
      <trkpt lat="44.3121" lon="4.6851">
        <ele>42</ele>
        <time>2018-05-16T06:36:44.1Z</time>
      </trkpt>
      <trkpt lat="44.31209" lon="4.68497">
        <ele>41</ele>
        <time>2018-05-16T06:36:47.1Z</time>
      </trkpt>
      <trkpt lat="44.3121" lon="4.68478">
        <ele>41</ele>
        <time>2018-05-16T06:36:49.1Z</time>
      </trkpt>
      <trkpt lat="44.3121" lon="4.6846">
        <ele>41</ele>
        <time>2018-05-16T06:36:52.1Z</time>
      </trkpt>
      <trkpt lat="44.31207" lon="4.68449">
        <ele>41</ele>
        <time>2018-05-16T06:36:54.1Z</time>
      </trkpt>
      <trkpt lat="44.31203" lon="4.68438">
        <ele>42</ele>
        <time>2018-05-16T06:36:57.1Z</time>
      </trkpt>
      <trkpt lat="44.31197" lon="4.68429">
        <ele>42</ele>
        <time>2018-05-16T06:36:59.1Z</time>
      </trkpt>
      <trkpt lat="44.31185" lon="4.68419">
        <ele>42</ele>
        <time>2018-05-16T06:37:01.1Z</time>
      </trkpt>
      <trkpt lat="44.31176" lon="4.68415">
        <ele>42</ele>
        <time>2018-05-16T06:37:04.1Z</time>
      </trkpt>
      <trkpt lat="44.31165" lon="4.68413">
        <ele>41</ele>
        <time>2018-05-16T06:37:06.1Z</time>
      </trkpt>
      <trkpt lat="44.31154" lon="4.68411">
        <ele>41</ele>
        <time>2018-05-16T06:37:08.1Z</time>
      </trkpt>
      <trkpt lat="44.31143" lon="4.6841">
        <ele>41</ele>
        <time>2018-05-16T06:37:10.1Z</time>
      </trkpt>
      <trkpt lat="44.31131" lon="4.6841">
        <ele>41</ele>
        <time>2018-05-16T06:37:12.1Z</time>
      </trkpt>
      <trkpt lat="44.3112" lon="4.68409">
        <ele>41</ele>
        <time>2018-05-16T06:37:14.1Z</time>
      </trkpt>
      <trkpt lat="44.31109" lon="4.68409">
        <ele>41</ele>
        <time>2018-05-16T06:37:16.1Z</time>
      </trkpt>
      <trkpt lat="44.31094" lon="4.68408">
        <ele>41</ele>
        <time>2018-05-16T06:37:19.1Z</time>
      </trkpt>
      <trkpt lat="44.31084" lon="4.68408">
        <ele>41</ele>
        <time>2018-05-16T06:37:21.1Z</time>
      </trkpt>
      <trkpt lat="44.31069" lon="4.68407">
        <ele>41</ele>
        <time>2018-05-16T06:37:23.1Z</time>
      </trkpt>
      <trkpt lat="44.3106" lon="4.68406">
        <ele>41</ele>
        <time>2018-05-16T06:37:25.1Z</time>
      </trkpt>
      <trkpt lat="44.31045" lon="4.68405">
        <ele>41</ele>
        <time>2018-05-16T06:37:28.1Z</time>
      </trkpt>
      <trkpt lat="44.31035" lon="4.68403">
        <ele>41</ele>
        <time>2018-05-16T06:37:31.1Z</time>
      </trkpt>
      <trkpt lat="44.31019" lon="4.684">
        <ele>41</ele>
        <time>2018-05-16T06:37:33.1Z</time>
      </trkpt>
      <trkpt lat="44.31009" lon="4.68397">
        <ele>41</ele>
        <time>2018-05-16T06:37:36.1Z</time>
      </trkpt>
      <trkpt lat="44.30999" lon="4.68393">
        <ele>41</ele>
        <time>2018-05-16T06:37:38.1Z</time>
      </trkpt>
      <trkpt lat="44.30984" lon="4.68385">
        <ele>41</ele>
        <time>2018-05-16T06:37:40.1Z</time>
      </trkpt>
      <trkpt lat="44.30973" lon="4.6838">
        <ele>41</ele>
        <time>2018-05-16T06:37:42.1Z</time>
      </trkpt>
      <trkpt lat="44.30963" lon="4.68374">
        <ele>41</ele>
        <time>2018-05-16T06:37:44.1Z</time>
      </trkpt>
      <trkpt lat="44.30953" lon="4.68369">
        <ele>42</ele>
        <time>2018-05-16T06:37:46.1Z</time>
      </trkpt>
      <trkpt lat="44.30943" lon="4.68364">
        <ele>41</ele>
        <time>2018-05-16T06:37:48.1Z</time>
      </trkpt>
      <trkpt lat="44.30934" lon="4.68357">
        <ele>41</ele>
        <time>2018-05-16T06:37:50.1Z</time>
      </trkpt>
      <trkpt lat="44.30925" lon="4.68349">
        <ele>41</ele>
        <time>2018-05-16T06:37:53.1Z</time>
      </trkpt>
      <trkpt lat="44.30916" lon="4.6834">
        <ele>41</ele>
        <time>2018-05-16T06:37:55.1Z</time>
      </trkpt>
      <trkpt lat="44.30904" lon="4.68326">
        <ele>41</ele>
        <time>2018-05-16T06:37:57.1Z</time>
      </trkpt>
      <trkpt lat="44.30896" lon="4.68316">
        <ele>42</ele>
        <time>2018-05-16T06:37:59.1Z</time>
      </trkpt>
      <trkpt lat="44.30885" lon="4.68303">
        <ele>41</ele>
        <time>2018-05-16T06:38:02.1Z</time>
      </trkpt>
      <trkpt lat="44.30878" lon="4.68296">
        <ele>41</ele>
        <time>2018-05-16T06:38:04.1Z</time>
      </trkpt>
      <trkpt lat="44.3087" lon="4.68288">
        <ele>41</ele>
        <time>2018-05-16T06:38:07.1Z</time>
      </trkpt>
      <trkpt lat="44.30859" lon="4.68276">
        <ele>41</ele>
        <time>2018-05-16T06:38:09.1Z</time>
      </trkpt>
      <trkpt lat="44.30848" lon="4.68263">
        <ele>41</ele>
        <time>2018-05-16T06:38:12.1Z</time>
      </trkpt>
      <trkpt lat="44.30841" lon="4.68255">
        <ele>41</ele>
        <time>2018-05-16T06:38:14.1Z</time>
      </trkpt>
      <trkpt lat="44.30834" lon="4.68247">
        <ele>41</ele>
        <time>2018-05-16T06:38:16.1Z</time>
      </trkpt>
      <trkpt lat="44.30824" lon="4.68232">
        <ele>41</ele>
        <time>2018-05-16T06:38:19.1Z</time>
      </trkpt>
      <trkpt lat="44.30823" lon="4.6822">
        <ele>41</ele>
        <time>2018-05-16T06:38:21.1Z</time>
      </trkpt>
      <trkpt lat="44.30828" lon="4.6821">
        <ele>42</ele>
        <time>2018-05-16T06:38:24.1Z</time>
      </trkpt>
      <trkpt lat="44.30835" lon="4.68202">
        <ele>43</ele>
        <time>2018-05-16T06:38:26.1Z</time>
      </trkpt>
      <trkpt lat="44.30843" lon="4.68194">
        <ele>43</ele>
        <time>2018-05-16T06:38:28.1Z</time>
      </trkpt>
      <trkpt lat="44.30853" lon="4.68183">
        <ele>43</ele>
        <time>2018-05-16T06:38:30.1Z</time>
      </trkpt>
      <trkpt lat="44.30861" lon="4.68175">
        <ele>43</ele>
        <time>2018-05-16T06:38:32.1Z</time>
      </trkpt>
      <trkpt lat="44.30868" lon="4.68166">
        <ele>42</ele>
        <time>2018-05-16T06:38:34.1Z</time>
      </trkpt>
      <trkpt lat="44.30875" lon="4.68157">
        <ele>42</ele>
        <time>2018-05-16T06:38:36.1Z</time>
      </trkpt>
      <trkpt lat="44.30882" lon="4.68148">
        <ele>42</ele>
        <time>2018-05-16T06:38:38.1Z</time>
      </trkpt>
      <trkpt lat="44.30889" lon="4.68138">
        <ele>42</ele>
        <time>2018-05-16T06:38:40.1Z</time>
      </trkpt>
      <trkpt lat="44.30896" lon="4.68128">
        <ele>42</ele>
        <time>2018-05-16T06:38:43.1Z</time>
      </trkpt>
      <trkpt lat="44.30907" lon="4.68114">
        <ele>41</ele>
        <time>2018-05-16T06:38:45.1Z</time>
      </trkpt>
      <trkpt lat="44.30917" lon="4.681">
        <ele>41</ele>
        <time>2018-05-16T06:38:48.1Z</time>
      </trkpt>
      <trkpt lat="44.30925" lon="4.6809">
        <ele>41</ele>
        <time>2018-05-16T06:38:50.1Z</time>
      </trkpt>
      <trkpt lat="44.30932" lon="4.68081">
        <ele>41</ele>
        <time>2018-05-16T06:38:52.1Z</time>
      </trkpt>
      <trkpt lat="44.3094" lon="4.68072">
        <ele>40</ele>
        <time>2018-05-16T06:38:55.1Z</time>
      </trkpt>
      <trkpt lat="44.30952" lon="4.68059">
        <ele>41</ele>
        <time>2018-05-16T06:38:57.1Z</time>
      </trkpt>
      <trkpt lat="44.30961" lon="4.68052">
        <ele>41</ele>
        <time>2018-05-16T06:39:00.1Z</time>
      </trkpt>
      <trkpt lat="44.30973" lon="4.68042">
        <ele>41</ele>
        <time>2018-05-16T06:39:02.1Z</time>
      </trkpt>
      <trkpt lat="44.30982" lon="4.68036">
        <ele>42</ele>
        <time>2018-05-16T06:39:05.1Z</time>
      </trkpt>
      <trkpt lat="44.30995" lon="4.68025">
        <ele>42</ele>
        <time>2018-05-16T06:39:07.1Z</time>
      </trkpt>
      <trkpt lat="44.31004" lon="4.68018">
        <ele>43</ele>
        <time>2018-05-16T06:39:09.1Z</time>
      </trkpt>
      <trkpt lat="44.31017" lon="4.68009">
        <ele>42</ele>
        <time>2018-05-16T06:39:12.1Z</time>
      </trkpt>
      <trkpt lat="44.31025" lon="4.68002">
        <ele>42</ele>
        <time>2018-05-16T06:39:14.1Z</time>
      </trkpt>
      <trkpt lat="44.31038" lon="4.67991">
        <ele>42</ele>
        <time>2018-05-16T06:39:17.1Z</time>
      </trkpt>
      <trkpt lat="44.31046" lon="4.67985">
        <ele>42</ele>
        <time>2018-05-16T06:39:19.1Z</time>
      </trkpt>
      <trkpt lat="44.31054" lon="4.67978">
        <ele>41</ele>
        <time>2018-05-16T06:39:22.1Z</time>
      </trkpt>
      <trkpt lat="44.31062" lon="4.67971">
        <ele>42</ele>
        <time>2018-05-16T06:39:24.1Z</time>
      </trkpt>
      <trkpt lat="44.31075" lon="4.67961">
        <ele>42</ele>
        <time>2018-05-16T06:39:26.1Z</time>
      </trkpt>
      <trkpt lat="44.31083" lon="4.67954">
        <ele>42</ele>
        <time>2018-05-16T06:39:28.1Z</time>
      </trkpt>
      <trkpt lat="44.31091" lon="4.67948">
        <ele>42</ele>
        <time>2018-05-16T06:39:31.1Z</time>
      </trkpt>
      <trkpt lat="44.31102" lon="4.67939">
        <ele>42</ele>
        <time>2018-05-16T06:39:33.1Z</time>
      </trkpt>
      <trkpt lat="44.31109" lon="4.67933">
        <ele>41</ele>
        <time>2018-05-16T06:39:35.1Z</time>
      </trkpt>
      <trkpt lat="44.31118" lon="4.67926">
        <ele>41</ele>
        <time>2018-05-16T06:39:38.1Z</time>
      </trkpt>
      <trkpt lat="44.31126" lon="4.67919">
        <ele>41</ele>
        <time>2018-05-16T06:39:40.1Z</time>
      </trkpt>
      <trkpt lat="44.31134" lon="4.67913">
        <ele>41</ele>
        <time>2018-05-16T06:39:42.1Z</time>
      </trkpt>
      <trkpt lat="44.31142" lon="4.67906">
        <ele>42</ele>
        <time>2018-05-16T06:39:44.1Z</time>
      </trkpt>
      <trkpt lat="44.3115" lon="4.67899">
        <ele>42</ele>
        <time>2018-05-16T06:39:46.1Z</time>
      </trkpt>
      <trkpt lat="44.31159" lon="4.67893">
        <ele>41</ele>
        <time>2018-05-16T06:39:48.1Z</time>
      </trkpt>
      <trkpt lat="44.31167" lon="4.67886">
        <ele>41</ele>
        <time>2018-05-16T06:39:50.1Z</time>
      </trkpt>
      <trkpt lat="44.3118" lon="4.67875">
        <ele>40</ele>
        <time>2018-05-16T06:39:53.1Z</time>
      </trkpt>
      <trkpt lat="44.31189" lon="4.67868">
        <ele>41</ele>
        <time>2018-05-16T06:39:55.1Z</time>
      </trkpt>
      <trkpt lat="44.31197" lon="4.67861">
        <ele>41</ele>
        <time>2018-05-16T06:39:57.1Z</time>
      </trkpt>
      <trkpt lat="44.3121" lon="4.67851">
        <ele>41</ele>
        <time>2018-05-16T06:39:59.1Z</time>
      </trkpt>
      <trkpt lat="44.31219" lon="4.67844">
        <ele>41</ele>
        <time>2018-05-16T06:40:01.1Z</time>
      </trkpt>
      <trkpt lat="44.31227" lon="4.67837">
        <ele>42</ele>
        <time>2018-05-16T06:40:03.1Z</time>
      </trkpt>
      <trkpt lat="44.31236" lon="4.6783">
        <ele>42</ele>
        <time>2018-05-16T06:40:06.1Z</time>
      </trkpt>
      <trkpt lat="44.31249" lon="4.6782">
        <ele>41</ele>
        <time>2018-05-16T06:40:08.1Z</time>
      </trkpt>
      <trkpt lat="44.31258" lon="4.67813">
        <ele>41</ele>
        <time>2018-05-16T06:40:10.1Z</time>
      </trkpt>
      <trkpt lat="44.31271" lon="4.67802">
        <ele>41</ele>
        <time>2018-05-16T06:40:13.1Z</time>
      </trkpt>
      <trkpt lat="44.31279" lon="4.67796">
        <ele>41</ele>
        <time>2018-05-16T06:40:15.1Z</time>
      </trkpt>
      <trkpt lat="44.31288" lon="4.67789">
        <ele>41</ele>
        <time>2018-05-16T06:40:17.1Z</time>
      </trkpt>
      <trkpt lat="44.31296" lon="4.67782">
        <ele>41</ele>
        <time>2018-05-16T06:40:19.1Z</time>
      </trkpt>
      <trkpt lat="44.31305" lon="4.67775">
        <ele>41</ele>
        <time>2018-05-16T06:40:21.1Z</time>
      </trkpt>
      <trkpt lat="44.31314" lon="4.67768">
        <ele>41</ele>
        <time>2018-05-16T06:40:24.1Z</time>
      </trkpt>
      <trkpt lat="44.31326" lon="4.67758">
        <ele>42</ele>
        <time>2018-05-16T06:40:26.1Z</time>
      </trkpt>
      <trkpt lat="44.31335" lon="4.67751">
        <ele>43</ele>
        <time>2018-05-16T06:40:28.1Z</time>
      </trkpt>
      <trkpt lat="44.31343" lon="4.67744">
        <ele>43</ele>
        <time>2018-05-16T06:40:30.1Z</time>
      </trkpt>
      <trkpt lat="44.31356" lon="4.67733">
        <ele>43</ele>
        <time>2018-05-16T06:40:33.1Z</time>
      </trkpt>
      <trkpt lat="44.31364" lon="4.67726">
        <ele>43</ele>
        <time>2018-05-16T06:40:35.1Z</time>
      </trkpt>
      <trkpt lat="44.31373" lon="4.6772">
        <ele>42</ele>
        <time>2018-05-16T06:40:37.1Z</time>
      </trkpt>
      <trkpt lat="44.31381" lon="4.67713">
        <ele>42</ele>
        <time>2018-05-16T06:40:40.1Z</time>
      </trkpt>
      <trkpt lat="44.31394" lon="4.67703">
        <ele>42</ele>
        <time>2018-05-16T06:40:42.1Z</time>
      </trkpt>
      <trkpt lat="44.31403" lon="4.67696">
        <ele>42</ele>
        <time>2018-05-16T06:40:44.1Z</time>
      </trkpt>
      <trkpt lat="44.31411" lon="4.67689">
        <ele>42</ele>
        <time>2018-05-16T06:40:46.1Z</time>
      </trkpt>
      <trkpt lat="44.3142" lon="4.67682">
        <ele>42</ele>
        <time>2018-05-16T06:40:49.1Z</time>
      </trkpt>
      <trkpt lat="44.31433" lon="4.67671">
        <ele>42</ele>
        <time>2018-05-16T06:40:52.1Z</time>
      </trkpt>
      <trkpt lat="44.31442" lon="4.67664">
        <ele>42</ele>
        <time>2018-05-16T06:40:54.1Z</time>
      </trkpt>
      <trkpt lat="44.31455" lon="4.67653">
        <ele>42</ele>
        <time>2018-05-16T06:40:57.1Z</time>
      </trkpt>
      <trkpt lat="44.31468" lon="4.67642">
        <ele>42</ele>
        <time>2018-05-16T06:40:59.1Z</time>
      </trkpt>
      <trkpt lat="44.31482" lon="4.67632">
        <ele>42</ele>
        <time>2018-05-16T06:41:02.1Z</time>
      </trkpt>
      <trkpt lat="44.31491" lon="4.67625">
        <ele>42</ele>
        <time>2018-05-16T06:41:04.1Z</time>
      </trkpt>
      <trkpt lat="44.31499" lon="4.67618">
        <ele>42</ele>
        <time>2018-05-16T06:41:06.1Z</time>
      </trkpt>
      <trkpt lat="44.31507" lon="4.67612">
        <ele>42</ele>
        <time>2018-05-16T06:41:08.1Z</time>
      </trkpt>
      <trkpt lat="44.3152" lon="4.67602">
        <ele>42</ele>
        <time>2018-05-16T06:41:11.1Z</time>
      </trkpt>
      <trkpt lat="44.31529" lon="4.67595">
        <ele>43</ele>
        <time>2018-05-16T06:41:14.1Z</time>
      </trkpt>
      <trkpt lat="44.31542" lon="4.67585">
        <ele>43</ele>
        <time>2018-05-16T06:41:17.1Z</time>
      </trkpt>
      <trkpt lat="44.31555" lon="4.67575">
        <ele>43</ele>
        <time>2018-05-16T06:41:19.1Z</time>
      </trkpt>
      <trkpt lat="44.31564" lon="4.67567">
        <ele>42</ele>
        <time>2018-05-16T06:41:21.1Z</time>
      </trkpt>
      <trkpt lat="44.31577" lon="4.67557">
        <ele>42</ele>
        <time>2018-05-16T06:41:24.1Z</time>
      </trkpt>
      <trkpt lat="44.31586" lon="4.6755">
        <ele>43</ele>
        <time>2018-05-16T06:41:27.1Z</time>
      </trkpt>
      <trkpt lat="44.31599" lon="4.6754">
        <ele>43</ele>
        <time>2018-05-16T06:41:29.1Z</time>
      </trkpt>
      <trkpt lat="44.31612" lon="4.67529">
        <ele>43</ele>
        <time>2018-05-16T06:41:32.1Z</time>
      </trkpt>
      <trkpt lat="44.31625" lon="4.67519">
        <ele>43</ele>
        <time>2018-05-16T06:41:35.1Z</time>
      </trkpt>
      <trkpt lat="44.31638" lon="4.67508">
        <ele>42</ele>
        <time>2018-05-16T06:41:38.1Z</time>
      </trkpt>
      <trkpt lat="44.31646" lon="4.67501">
        <ele>43</ele>
        <time>2018-05-16T06:41:41.1Z</time>
      </trkpt>
      <trkpt lat="44.31659" lon="4.67491">
        <ele>42</ele>
        <time>2018-05-16T06:41:43.1Z</time>
      </trkpt>
      <trkpt lat="44.31672" lon="4.67481">
        <ele>42</ele>
        <time>2018-05-16T06:41:46.1Z</time>
      </trkpt>
      <trkpt lat="44.3168" lon="4.67473">
        <ele>42</ele>
        <time>2018-05-16T06:41:48.1Z</time>
      </trkpt>
      <trkpt lat="44.31686" lon="4.67463">
        <ele>43</ele>
        <time>2018-05-16T06:41:50.1Z</time>
      </trkpt>
      <trkpt lat="44.3169" lon="4.67451">
        <ele>43</ele>
        <time>2018-05-16T06:41:52.1Z</time>
      </trkpt>
      <trkpt lat="44.31694" lon="4.67438">
        <ele>43</ele>
        <time>2018-05-16T06:41:55.1Z</time>
      </trkpt>
      <trkpt lat="44.317" lon="4.6742">
        <ele>42</ele>
        <time>2018-05-16T06:41:57.1Z</time>
      </trkpt>
      <trkpt lat="44.31703" lon="4.67407">
        <ele>42</ele>
        <time>2018-05-16T06:41:59.1Z</time>
      </trkpt>
      <trkpt lat="44.31707" lon="4.67395">
        <ele>42</ele>
        <time>2018-05-16T06:42:01.1Z</time>
      </trkpt>
      <trkpt lat="44.3171" lon="4.67382">
        <ele>42</ele>
        <time>2018-05-16T06:42:04.1Z</time>
      </trkpt>
      <trkpt lat="44.31715" lon="4.67363">
        <ele>42</ele>
        <time>2018-05-16T06:42:06.1Z</time>
      </trkpt>
      <trkpt lat="44.31718" lon="4.6735">
        <ele>42</ele>
        <time>2018-05-16T06:42:08.1Z</time>
      </trkpt>
      <trkpt lat="44.31722" lon="4.67338">
        <ele>42</ele>
        <time>2018-05-16T06:42:10.1Z</time>
      </trkpt>
      <trkpt lat="44.31727" lon="4.67319">
        <ele>42</ele>
        <time>2018-05-16T06:42:13.1Z</time>
      </trkpt>
      <trkpt lat="44.31731" lon="4.67307">
        <ele>41</ele>
        <time>2018-05-16T06:42:15.1Z</time>
      </trkpt>
      <trkpt lat="44.31736" lon="4.67287">
        <ele>41</ele>
        <time>2018-05-16T06:42:18.1Z</time>
      </trkpt>
      <trkpt lat="44.3174" lon="4.67274">
        <ele>42</ele>
        <time>2018-05-16T06:42:21.1Z</time>
      </trkpt>
      <trkpt lat="44.31746" lon="4.67254">
        <ele>42</ele>
        <time>2018-05-16T06:42:23.1Z</time>
      </trkpt>
      <trkpt lat="44.31749" lon="4.6724">
        <ele>42</ele>
        <time>2018-05-16T06:42:25.1Z</time>
      </trkpt>
      <trkpt lat="44.31753" lon="4.67227">
        <ele>42</ele>
        <time>2018-05-16T06:42:27.1Z</time>
      </trkpt>
      <trkpt lat="44.31758" lon="4.67207">
        <ele>42</ele>
        <time>2018-05-16T06:42:30.1Z</time>
      </trkpt>
      <trkpt lat="44.31762" lon="4.67195">
        <ele>42</ele>
        <time>2018-05-16T06:42:32.1Z</time>
      </trkpt>
      <trkpt lat="44.31765" lon="4.67181">
        <ele>42</ele>
        <time>2018-05-16T06:42:34.1Z</time>
      </trkpt>
      <trkpt lat="44.3177" lon="4.67162">
        <ele>41</ele>
        <time>2018-05-16T06:42:37.1Z</time>
      </trkpt>
      <trkpt lat="44.31773" lon="4.67149">
        <ele>42</ele>
        <time>2018-05-16T06:42:39.1Z</time>
      </trkpt>
      <trkpt lat="44.31775" lon="4.67135">
        <ele>42</ele>
        <time>2018-05-16T06:42:41.1Z</time>
      </trkpt>
      <trkpt lat="44.31781" lon="4.67115">
        <ele>41</ele>
        <time>2018-05-16T06:42:44.1Z</time>
      </trkpt>
      <trkpt lat="44.31784" lon="4.67102">
        <ele>41</ele>
        <time>2018-05-16T06:42:46.1Z</time>
      </trkpt>
      <trkpt lat="44.3179" lon="4.67083">
        <ele>41</ele>
        <time>2018-05-16T06:42:49.1Z</time>
      </trkpt>
      <trkpt lat="44.31794" lon="4.6707">
        <ele>41</ele>
        <time>2018-05-16T06:42:51.1Z</time>
      </trkpt>
      <trkpt lat="44.31799" lon="4.67051">
        <ele>41</ele>
        <time>2018-05-16T06:42:55.1Z</time>
      </trkpt>
      <trkpt lat="44.31804" lon="4.67031">
        <ele>42</ele>
        <time>2018-05-16T06:42:57.1Z</time>
      </trkpt>
      <trkpt lat="44.31807" lon="4.67018">
        <ele>42</ele>
        <time>2018-05-16T06:42:59.1Z</time>
      </trkpt>
      <trkpt lat="44.3181" lon="4.67004">
        <ele>41</ele>
        <time>2018-05-16T06:43:01.1Z</time>
      </trkpt>
      <trkpt lat="44.31815" lon="4.66985">
        <ele>42</ele>
        <time>2018-05-16T06:43:04.1Z</time>
      </trkpt>
      <trkpt lat="44.31821" lon="4.66965">
        <ele>42</ele>
        <time>2018-05-16T06:43:08.1Z</time>
      </trkpt>
      <trkpt lat="44.31824" lon="4.66954">
        <ele>42</ele>
        <time>2018-05-16T06:43:10.1Z</time>
      </trkpt>
      <trkpt lat="44.31829" lon="4.66938">
        <ele>43</ele>
        <time>2018-05-16T06:43:12.1Z</time>
      </trkpt>
      <trkpt lat="44.31833" lon="4.66928">
        <ele>43</ele>
        <time>2018-05-16T06:43:15.1Z</time>
      </trkpt>
      <trkpt lat="44.31843" lon="4.66918">
        <ele>43</ele>
        <time>2018-05-16T06:43:17.1Z</time>
      </trkpt>
      <trkpt lat="44.31852" lon="4.66916">
        <ele>43</ele>
        <time>2018-05-16T06:43:19.1Z</time>
      </trkpt>
      <trkpt lat="44.31863" lon="4.66917">
        <ele>43</ele>
        <time>2018-05-16T06:43:21.1Z</time>
      </trkpt>
      <trkpt lat="44.31874" lon="4.66917">
        <ele>42</ele>
        <time>2018-05-16T06:43:23.1Z</time>
      </trkpt>
      <trkpt lat="44.3189" lon="4.66913">
        <ele>43</ele>
        <time>2018-05-16T06:43:26.1Z</time>
      </trkpt>
      <trkpt lat="44.319" lon="4.66908">
        <ele>43</ele>
        <time>2018-05-16T06:43:29.1Z</time>
      </trkpt>
      <trkpt lat="44.3191" lon="4.66902">
        <ele>43</ele>
        <time>2018-05-16T06:43:31.1Z</time>
      </trkpt>
      <trkpt lat="44.31924" lon="4.66892">
        <ele>43</ele>
        <time>2018-05-16T06:43:33.1Z</time>
      </trkpt>
      <trkpt lat="44.31932" lon="4.66886">
        <ele>43</ele>
        <time>2018-05-16T06:43:35.1Z</time>
      </trkpt>
      <trkpt lat="44.31941" lon="4.6688">
        <ele>42</ele>
        <time>2018-05-16T06:43:37.1Z</time>
      </trkpt>
      <trkpt lat="44.31949" lon="4.66874">
        <ele>42</ele>
        <time>2018-05-16T06:43:39.1Z</time>
      </trkpt>
      <trkpt lat="44.31958" lon="4.66867">
        <ele>42</ele>
        <time>2018-05-16T06:43:41.1Z</time>
      </trkpt>
      <trkpt lat="44.31966" lon="4.6686">
        <ele>42</ele>
        <time>2018-05-16T06:43:43.1Z</time>
      </trkpt>
      <trkpt lat="44.31975" lon="4.66852">
        <ele>42</ele>
        <time>2018-05-16T06:43:45.1Z</time>
      </trkpt>
      <trkpt lat="44.31984" lon="4.66845">
        <ele>42</ele>
        <time>2018-05-16T06:43:48.1Z</time>
      </trkpt>
      <trkpt lat="44.31997" lon="4.66833">
        <ele>42</ele>
        <time>2018-05-16T06:43:50.1Z</time>
      </trkpt>
      <trkpt lat="44.32005" lon="4.66825">
        <ele>42</ele>
        <time>2018-05-16T06:43:52.1Z</time>
      </trkpt>
      <trkpt lat="44.32018" lon="4.66814">
        <ele>41</ele>
        <time>2018-05-16T06:43:55.1Z</time>
      </trkpt>
      <trkpt lat="44.32027" lon="4.66806">
        <ele>41</ele>
        <time>2018-05-16T06:43:57.1Z</time>
      </trkpt>
      <trkpt lat="44.32035" lon="4.66798">
        <ele>41</ele>
        <time>2018-05-16T06:43:59.1Z</time>
      </trkpt>
      <trkpt lat="44.32043" lon="4.6679">
        <ele>41</ele>
        <time>2018-05-16T06:44:01.1Z</time>
      </trkpt>
      <trkpt lat="44.32052" lon="4.6678">
        <ele>41</ele>
        <time>2018-05-16T06:44:04.1Z</time>
      </trkpt>
      <trkpt lat="44.32059" lon="4.66771">
        <ele>41</ele>
        <time>2018-05-16T06:44:06.1Z</time>
      </trkpt>
      <trkpt lat="44.3207" lon="4.66756">
        <ele>41</ele>
        <time>2018-05-16T06:44:08.1Z</time>
      </trkpt>
      <trkpt lat="44.32076" lon="4.66745">
        <ele>41</ele>
        <time>2018-05-16T06:44:10.1Z</time>
      </trkpt>
      <trkpt lat="44.32085" lon="4.66728">
        <ele>41</ele>
        <time>2018-05-16T06:44:13.1Z</time>
      </trkpt>
      <trkpt lat="44.3209" lon="4.66716">
        <ele>41</ele>
        <time>2018-05-16T06:44:15.1Z</time>
      </trkpt>
      <trkpt lat="44.32095" lon="4.66704">
        <ele>41</ele>
        <time>2018-05-16T06:44:17.1Z</time>
      </trkpt>
      <trkpt lat="44.321" lon="4.66691">
        <ele>41</ele>
        <time>2018-05-16T06:44:19.1Z</time>
      </trkpt>
      <trkpt lat="44.32103" lon="4.66679">
        <ele>42</ele>
        <time>2018-05-16T06:44:22.1Z</time>
      </trkpt>
      <trkpt lat="44.32107" lon="4.6666">
        <ele>42</ele>
        <time>2018-05-16T06:44:24.1Z</time>
      </trkpt>
      <trkpt lat="44.32114" lon="4.66646">
        <ele>42</ele>
        <time>2018-05-16T06:44:27.1Z</time>
      </trkpt>
      <trkpt lat="44.3212" lon="4.66629">
        <ele>42</ele>
        <time>2018-05-16T06:44:30.1Z</time>
      </trkpt>
      <trkpt lat="44.32123" lon="4.66615">
        <ele>41</ele>
        <time>2018-05-16T06:44:32.1Z</time>
      </trkpt>
      <trkpt lat="44.32126" lon="4.66602">
        <ele>41</ele>
        <time>2018-05-16T06:44:35.1Z</time>
      </trkpt>
      <trkpt lat="44.32131" lon="4.66582">
        <ele>41</ele>
        <time>2018-05-16T06:44:37.1Z</time>
      </trkpt>
      <trkpt lat="44.32135" lon="4.6657">
        <ele>41</ele>
        <time>2018-05-16T06:44:39.1Z</time>
      </trkpt>
      <trkpt lat="44.3214" lon="4.66558">
        <ele>41</ele>
        <time>2018-05-16T06:44:42.1Z</time>
      </trkpt>
      <trkpt lat="44.32147" lon="4.66539">
        <ele>41</ele>
        <time>2018-05-16T06:44:44.1Z</time>
      </trkpt>
      <trkpt lat="44.32153" lon="4.66528">
        <ele>40</ele>
        <time>2018-05-16T06:44:46.1Z</time>
      </trkpt>
      <trkpt lat="44.32159" lon="4.66518">
        <ele>40</ele>
        <time>2018-05-16T06:44:49.1Z</time>
      </trkpt>
      <trkpt lat="44.32167" lon="4.66501">
        <ele>40</ele>
        <time>2018-05-16T06:44:51.1Z</time>
      </trkpt>
      <trkpt lat="44.32172" lon="4.6649">
        <ele>40</ele>
        <time>2018-05-16T06:44:53.1Z</time>
      </trkpt>
      <trkpt lat="44.32177" lon="4.66479">
        <ele>41</ele>
        <time>2018-05-16T06:44:55.1Z</time>
      </trkpt>
      <trkpt lat="44.32183" lon="4.66469">
        <ele>41</ele>
        <time>2018-05-16T06:44:57.1Z</time>
      </trkpt>
      <trkpt lat="44.32191" lon="4.66453">
        <ele>42</ele>
        <time>2018-05-16T06:45:00.1Z</time>
      </trkpt>
      <trkpt lat="44.32198" lon="4.66437">
        <ele>42</ele>
        <time>2018-05-16T06:45:03.1Z</time>
      </trkpt>
      <trkpt lat="44.32204" lon="4.66427">
        <ele>42</ele>
        <time>2018-05-16T06:45:06.1Z</time>
      </trkpt>
      <trkpt lat="44.32216" lon="4.66411">
        <ele>41</ele>
        <time>2018-05-16T06:45:08.1Z</time>
      </trkpt>
      <trkpt lat="44.32227" lon="4.66397">
        <ele>42</ele>
        <time>2018-05-16T06:45:12.1Z</time>
      </trkpt>
      <trkpt lat="44.3224" lon="4.66382">
        <ele>41</ele>
        <time>2018-05-16T06:45:15.1Z</time>
      </trkpt>
      <trkpt lat="44.32252" lon="4.66367">
        <ele>42</ele>
        <time>2018-05-16T06:45:17.1Z</time>
      </trkpt>
      <trkpt lat="44.3226" lon="4.66357">
        <ele>42</ele>
        <time>2018-05-16T06:45:19.1Z</time>
      </trkpt>
      <trkpt lat="44.32272" lon="4.66342">
        <ele>42</ele>
        <time>2018-05-16T06:45:22.1Z</time>
      </trkpt>
      <trkpt lat="44.32283" lon="4.66328">
        <ele>42</ele>
        <time>2018-05-16T06:45:25.1Z</time>
      </trkpt>
      <trkpt lat="44.3229" lon="4.66318">
        <ele>43</ele>
        <time>2018-05-16T06:45:27.1Z</time>
      </trkpt>
      <trkpt lat="44.32297" lon="4.66307">
        <ele>42</ele>
        <time>2018-05-16T06:45:29.1Z</time>
      </trkpt>
      <trkpt lat="44.32304" lon="4.66297">
        <ele>42</ele>
        <time>2018-05-16T06:45:31.1Z</time>
      </trkpt>
      <trkpt lat="44.32314" lon="4.66281">
        <ele>42</ele>
        <time>2018-05-16T06:45:34.1Z</time>
      </trkpt>
      <trkpt lat="44.32321" lon="4.6627">
        <ele>42</ele>
        <time>2018-05-16T06:45:36.1Z</time>
      </trkpt>
      <trkpt lat="44.32332" lon="4.66254">
        <ele>42</ele>
        <time>2018-05-16T06:45:39.1Z</time>
      </trkpt>
      <trkpt lat="44.32338" lon="4.66243">
        <ele>42</ele>
        <time>2018-05-16T06:45:41.1Z</time>
      </trkpt>
      <trkpt lat="44.32345" lon="4.66232">
        <ele>42</ele>
        <time>2018-05-16T06:45:44.1Z</time>
      </trkpt>
      <trkpt lat="44.32356" lon="4.66215">
        <ele>41</ele>
        <time>2018-05-16T06:45:46.1Z</time>
      </trkpt>
      <trkpt lat="44.32368" lon="4.66198">
        <ele>40</ele>
        <time>2018-05-16T06:45:49.1Z</time>
      </trkpt>
      <trkpt lat="44.32375" lon="4.66188">
        <ele>41</ele>
        <time>2018-05-16T06:45:51.1Z</time>
      </trkpt>
      <trkpt lat="44.32386" lon="4.66172">
        <ele>41</ele>
        <time>2018-05-16T06:45:54.1Z</time>
      </trkpt>
      <trkpt lat="44.32393" lon="4.66162">
        <ele>41</ele>
        <time>2018-05-16T06:45:57.1Z</time>
      </trkpt>
      <trkpt lat="44.32404" lon="4.66146">
        <ele>41</ele>
        <time>2018-05-16T06:45:59.1Z</time>
      </trkpt>
      <trkpt lat="44.32411" lon="4.66136">
        <ele>41</ele>
        <time>2018-05-16T06:46:01.1Z</time>
      </trkpt>
      <trkpt lat="44.32418" lon="4.66125">
        <ele>41</ele>
        <time>2018-05-16T06:46:03.1Z</time>
      </trkpt>
      <trkpt lat="44.32426" lon="4.66116">
        <ele>41</ele>
        <time>2018-05-16T06:46:05.1Z</time>
      </trkpt>
      <trkpt lat="44.32433" lon="4.66106">
        <ele>41</ele>
        <time>2018-05-16T06:46:07.1Z</time>
      </trkpt>
      <trkpt lat="44.32444" lon="4.66091">
        <ele>41</ele>
        <time>2018-05-16T06:46:11.1Z</time>
      </trkpt>
      <trkpt lat="44.32455" lon="4.66077">
        <ele>42</ele>
        <time>2018-05-16T06:46:13.1Z</time>
      </trkpt>
      <trkpt lat="44.32462" lon="4.66067">
        <ele>42</ele>
        <time>2018-05-16T06:46:15.1Z</time>
      </trkpt>
      <trkpt lat="44.32472" lon="4.66052">
        <ele>41</ele>
        <time>2018-05-16T06:46:18.1Z</time>
      </trkpt>
      <trkpt lat="44.32479" lon="4.66043">
        <ele>41</ele>
        <time>2018-05-16T06:46:20.1Z</time>
      </trkpt>
      <trkpt lat="44.32486" lon="4.66034">
        <ele>41</ele>
        <time>2018-05-16T06:46:22.1Z</time>
      </trkpt>
      <trkpt lat="44.32493" lon="4.66024">
        <ele>42</ele>
        <time>2018-05-16T06:46:25.1Z</time>
      </trkpt>
      <trkpt lat="44.32503" lon="4.6601">
        <ele>42</ele>
        <time>2018-05-16T06:46:27.1Z</time>
      </trkpt>
      <trkpt lat="44.3251" lon="4.66001">
        <ele>42</ele>
        <time>2018-05-16T06:46:29.1Z</time>
      </trkpt>
      <trkpt lat="44.32518" lon="4.65991">
        <ele>42</ele>
        <time>2018-05-16T06:46:31.1Z</time>
      </trkpt>
      <trkpt lat="44.32528" lon="4.65977">
        <ele>42</ele>
        <time>2018-05-16T06:46:34.1Z</time>
      </trkpt>
      <trkpt lat="44.32534" lon="4.65968">
        <ele>42</ele>
        <time>2018-05-16T06:46:37.1Z</time>
      </trkpt>
      <trkpt lat="44.32545" lon="4.65955">
        <ele>42</ele>
        <time>2018-05-16T06:46:39.1Z</time>
      </trkpt>
      <trkpt lat="44.32552" lon="4.65947">
        <ele>42</ele>
        <time>2018-05-16T06:46:41.1Z</time>
      </trkpt>
      <trkpt lat="44.3256" lon="4.6594">
        <ele>42</ele>
        <time>2018-05-16T06:46:43.1Z</time>
      </trkpt>
      <trkpt lat="44.32569" lon="4.65933">
        <ele>42</ele>
        <time>2018-05-16T06:46:45.1Z</time>
      </trkpt>
      <trkpt lat="44.32582" lon="4.65928">
        <ele>42</ele>
        <time>2018-05-16T06:46:48.1Z</time>
      </trkpt>
      <trkpt lat="44.32592" lon="4.65925">
        <ele>42</ele>
        <time>2018-05-16T06:46:50.1Z</time>
      </trkpt>
      <trkpt lat="44.32601" lon="4.65923">
        <ele>43</ele>
        <time>2018-05-16T06:46:52.1Z</time>
      </trkpt>
      <trkpt lat="44.32611" lon="4.65921">
        <ele>43</ele>
        <time>2018-05-16T06:46:54.1Z</time>
      </trkpt>
      <trkpt lat="44.3262" lon="4.65919">
        <ele>43</ele>
        <time>2018-05-16T06:46:56.1Z</time>
      </trkpt>
      <trkpt lat="44.32634" lon="4.65917">
        <ele>43</ele>
        <time>2018-05-16T06:46:59.1Z</time>
      </trkpt>
      <trkpt lat="44.32644" lon="4.65915">
        <ele>43</ele>
        <time>2018-05-16T06:47:02.1Z</time>
      </trkpt>
      <trkpt lat="44.32658" lon="4.65914">
        <ele>43</ele>
        <time>2018-05-16T06:47:04.1Z</time>
      </trkpt>
      <trkpt lat="44.32668" lon="4.65914">
        <ele>42</ele>
        <time>2018-05-16T06:47:06.1Z</time>
      </trkpt>
      <trkpt lat="44.32679" lon="4.65916">
        <ele>42</ele>
        <time>2018-05-16T06:47:08.1Z</time>
      </trkpt>
      <trkpt lat="44.32688" lon="4.65918">
        <ele>42</ele>
        <time>2018-05-16T06:47:10.1Z</time>
      </trkpt>
      <trkpt lat="44.32702" lon="4.65921">
        <ele>42</ele>
        <time>2018-05-16T06:47:13.1Z</time>
      </trkpt>
      <trkpt lat="44.32717" lon="4.65925">
        <ele>42</ele>
        <time>2018-05-16T06:47:16.1Z</time>
      </trkpt>
      <trkpt lat="44.32727" lon="4.65927">
        <ele>43</ele>
        <time>2018-05-16T06:47:19.1Z</time>
      </trkpt>
      <trkpt lat="44.32743" lon="4.65931">
        <ele>42</ele>
        <time>2018-05-16T06:47:21.1Z</time>
      </trkpt>
      <trkpt lat="44.32758" lon="4.65934">
        <ele>42</ele>
        <time>2018-05-16T06:47:24.1Z</time>
      </trkpt>
      <trkpt lat="44.32769" lon="4.65937">
        <ele>42</ele>
        <time>2018-05-16T06:47:26.1Z</time>
      </trkpt>
      <trkpt lat="44.32779" lon="4.65939">
        <ele>42</ele>
        <time>2018-05-16T06:47:28.1Z</time>
      </trkpt>
      <trkpt lat="44.3279" lon="4.65941">
        <ele>43</ele>
        <time>2018-05-16T06:47:31.1Z</time>
      </trkpt>
      <trkpt lat="44.32805" lon="4.65944">
        <ele>43</ele>
        <time>2018-05-16T06:47:33.1Z</time>
      </trkpt>
      <trkpt lat="44.32815" lon="4.65946">
        <ele>43</ele>
        <time>2018-05-16T06:47:35.1Z</time>
      </trkpt>
      <trkpt lat="44.32826" lon="4.65948">
        <ele>43</ele>
        <time>2018-05-16T06:47:37.1Z</time>
      </trkpt>
      <trkpt lat="44.32842" lon="4.65951">
        <ele>42</ele>
        <time>2018-05-16T06:47:40.1Z</time>
      </trkpt>
      <trkpt lat="44.32852" lon="4.65953">
        <ele>42</ele>
        <time>2018-05-16T06:47:43.1Z</time>
      </trkpt>
      <trkpt lat="44.32867" lon="4.65956">
        <ele>42</ele>
        <time>2018-05-16T06:47:45.1Z</time>
      </trkpt>
      <trkpt lat="44.32877" lon="4.65958">
        <ele>42</ele>
        <time>2018-05-16T06:47:47.1Z</time>
      </trkpt>
      <trkpt lat="44.32887" lon="4.6596">
        <ele>42</ele>
        <time>2018-05-16T06:47:49.1Z</time>
      </trkpt>
      <trkpt lat="44.32896" lon="4.65963">
        <ele>42</ele>
        <time>2018-05-16T06:47:51.1Z</time>
      </trkpt>
      <trkpt lat="44.32912" lon="4.65966">
        <ele>43</ele>
        <time>2018-05-16T06:47:54.1Z</time>
      </trkpt>
      <trkpt lat="44.32922" lon="4.65969">
        <ele>43</ele>
        <time>2018-05-16T06:47:56.1Z</time>
      </trkpt>
      <trkpt lat="44.32932" lon="4.65972">
        <ele>43</ele>
        <time>2018-05-16T06:47:59.1Z</time>
      </trkpt>
      <trkpt lat="44.32948" lon="4.65974">
        <ele>43</ele>
        <time>2018-05-16T06:48:01.1Z</time>
      </trkpt>
      <trkpt lat="44.32964" lon="4.65973">
        <ele>43</ele>
        <time>2018-05-16T06:48:04.1Z</time>
      </trkpt>
      <trkpt lat="44.32974" lon="4.65971">
        <ele>43</ele>
        <time>2018-05-16T06:48:06.1Z</time>
      </trkpt>
      <trkpt lat="44.32988" lon="4.65971">
        <ele>43</ele>
        <time>2018-05-16T06:48:09.1Z</time>
      </trkpt>
      <trkpt lat="44.32998" lon="4.6597">
        <ele>42</ele>
        <time>2018-05-16T06:48:11.1Z</time>
      </trkpt>
      <trkpt lat="44.33008" lon="4.6597">
        <ele>42</ele>
        <time>2018-05-16T06:48:13.1Z</time>
      </trkpt>
      <trkpt lat="44.33023" lon="4.6597">
        <ele>42</ele>
        <time>2018-05-16T06:48:16.1Z</time>
      </trkpt>
      <trkpt lat="44.33033" lon="4.65971">
        <ele>42</ele>
        <time>2018-05-16T06:48:18.1Z</time>
      </trkpt>
      <trkpt lat="44.33044" lon="4.65972">
        <ele>42</ele>
        <time>2018-05-16T06:48:20.1Z</time>
      </trkpt>
      <trkpt lat="44.33054" lon="4.65974">
        <ele>42</ele>
        <time>2018-05-16T06:48:22.1Z</time>
      </trkpt>
      <trkpt lat="44.33069" lon="4.65977">
        <ele>42</ele>
        <time>2018-05-16T06:48:25.1Z</time>
      </trkpt>
      <trkpt lat="44.33084" lon="4.6598">
        <ele>42</ele>
        <time>2018-05-16T06:48:28.1Z</time>
      </trkpt>
      <trkpt lat="44.33099" lon="4.65982">
        <ele>42</ele>
        <time>2018-05-16T06:48:31.1Z</time>
      </trkpt>
      <trkpt lat="44.33109" lon="4.65983">
        <ele>42</ele>
        <time>2018-05-16T06:48:33.1Z</time>
      </trkpt>
      <trkpt lat="44.33119" lon="4.65984">
        <ele>42</ele>
        <time>2018-05-16T06:48:35.1Z</time>
      </trkpt>
      <trkpt lat="44.3313" lon="4.65983">
        <ele>42</ele>
        <time>2018-05-16T06:48:38.1Z</time>
      </trkpt>
      <trkpt lat="44.33141" lon="4.65982">
        <ele>42</ele>
        <time>2018-05-16T06:48:40.1Z</time>
      </trkpt>
      <trkpt lat="44.33156" lon="4.65978">
        <ele>41</ele>
        <time>2018-05-16T06:48:42.1Z</time>
      </trkpt>
      <trkpt lat="44.33171" lon="4.65974">
        <ele>41</ele>
        <time>2018-05-16T06:48:45.1Z</time>
      </trkpt>
      <trkpt lat="44.33182" lon="4.65971">
        <ele>41</ele>
        <time>2018-05-16T06:48:47.1Z</time>
      </trkpt>
      <trkpt lat="44.33191" lon="4.65968">
        <ele>41</ele>
        <time>2018-05-16T06:48:49.1Z</time>
      </trkpt>
      <trkpt lat="44.332" lon="4.65965">
        <ele>41</ele>
        <time>2018-05-16T06:48:51.1Z</time>
      </trkpt>
      <trkpt lat="44.33212" lon="4.65961">
        <ele>41</ele>
        <time>2018-05-16T06:48:54.1Z</time>
      </trkpt>
      <trkpt lat="44.33226" lon="4.65958">
        <ele>41</ele>
        <time>2018-05-16T06:48:57.1Z</time>
      </trkpt>
      <trkpt lat="44.3324" lon="4.65955">
        <ele>41</ele>
        <time>2018-05-16T06:49:00.1Z</time>
      </trkpt>
      <trkpt lat="44.33253" lon="4.65951">
        <ele>41</ele>
        <time>2018-05-16T06:49:03.1Z</time>
      </trkpt>
      <trkpt lat="44.33261" lon="4.65949">
        <ele>40</ele>
        <time>2018-05-16T06:49:05.1Z</time>
      </trkpt>
      <trkpt lat="44.33271" lon="4.65947">
        <ele>41</ele>
        <time>2018-05-16T06:49:08.1Z</time>
      </trkpt>
      <trkpt lat="44.33285" lon="4.65943">
        <ele>41</ele>
        <time>2018-05-16T06:49:10.1Z</time>
      </trkpt>
      <trkpt lat="44.333" lon="4.65938">
        <ele>41</ele>
        <time>2018-05-16T06:49:13.1Z</time>
      </trkpt>
      <trkpt lat="44.3331" lon="4.65935">
        <ele>41</ele>
        <time>2018-05-16T06:49:15.1Z</time>
      </trkpt>
      <trkpt lat="44.33326" lon="4.65931">
        <ele>41</ele>
        <time>2018-05-16T06:49:18.1Z</time>
      </trkpt>
      <trkpt lat="44.33336" lon="4.65929">
        <ele>41</ele>
        <time>2018-05-16T06:49:21.1Z</time>
      </trkpt>
      <trkpt lat="44.33353" lon="4.65926">
        <ele>41</ele>
        <time>2018-05-16T06:49:23.1Z</time>
      </trkpt>
      <trkpt lat="44.33364" lon="4.65925">
        <ele>41</ele>
        <time>2018-05-16T06:49:25.1Z</time>
      </trkpt>
      <trkpt lat="44.33376" lon="4.65924">
        <ele>40</ele>
        <time>2018-05-16T06:49:27.1Z</time>
      </trkpt>
      <trkpt lat="44.33387" lon="4.65925">
        <ele>41</ele>
        <time>2018-05-16T06:49:29.1Z</time>
      </trkpt>
      <trkpt lat="44.33404" lon="4.65927">
        <ele>41</ele>
        <time>2018-05-16T06:49:32.1Z</time>
      </trkpt>
      <trkpt lat="44.33416" lon="4.65929">
        <ele>42</ele>
        <time>2018-05-16T06:49:34.1Z</time>
      </trkpt>
      <trkpt lat="44.33427" lon="4.65933">
        <ele>42</ele>
        <time>2018-05-16T06:49:36.1Z</time>
      </trkpt>
      <trkpt lat="44.33442" lon="4.65937">
        <ele>42</ele>
        <time>2018-05-16T06:49:39.1Z</time>
      </trkpt>
      <trkpt lat="44.33456" lon="4.65941">
        <ele>43</ele>
        <time>2018-05-16T06:49:42.1Z</time>
      </trkpt>
      <trkpt lat="44.33465" lon="4.65944">
        <ele>43</ele>
        <time>2018-05-16T06:49:44.1Z</time>
      </trkpt>
      <trkpt lat="44.33473" lon="4.65945">
        <ele>44</ele>
        <time>2018-05-16T06:49:46.1Z</time>
      </trkpt>
      <trkpt lat="44.33484" lon="4.65947">
        <ele>44</ele>
        <time>2018-05-16T06:49:49.1Z</time>
      </trkpt>
      <trkpt lat="44.33491" lon="4.65947">
        <ele>44</ele>
        <time>2018-05-16T06:49:51.1Z</time>
      </trkpt>
      <trkpt lat="44.33503" lon="4.65949">
        <ele>44</ele>
        <time>2018-05-16T06:49:54.1Z</time>
      </trkpt>
      <trkpt lat="44.33513" lon="4.65952">
        <ele>43</ele>
        <time>2018-05-16T06:49:56.1Z</time>
      </trkpt>
      <trkpt lat="44.33525" lon="4.65956">
        <ele>43</ele>
        <time>2018-05-16T06:49:58.1Z</time>
      </trkpt>
      <trkpt lat="44.33538" lon="4.65962">
        <ele>43</ele>
        <time>2018-05-16T06:50:01.1Z</time>
      </trkpt>
      <trkpt lat="44.33558" lon="4.6597">
        <ele>44</ele>
        <time>2018-05-16T06:50:03.1Z</time>
      </trkpt>
      <trkpt lat="44.33577" lon="4.65979">
        <ele>44</ele>
        <time>2018-05-16T06:50:06.1Z</time>
      </trkpt>
      <trkpt lat="44.33595" lon="4.65988">
        <ele>44</ele>
        <time>2018-05-16T06:50:09.1Z</time>
      </trkpt>
      <trkpt lat="44.33612" lon="4.65997">
        <ele>43</ele>
        <time>2018-05-16T06:50:12.1Z</time>
      </trkpt>
      <trkpt lat="44.33627" lon="4.66004">
        <ele>44</ele>
        <time>2018-05-16T06:50:15.1Z</time>
      </trkpt>
      <trkpt lat="44.33643" lon="4.66012">
        <ele>44</ele>
        <time>2018-05-16T06:50:18.1Z</time>
      </trkpt>
      <trkpt lat="44.33652" lon="4.66017">
        <ele>44</ele>
        <time>2018-05-16T06:50:20.1Z</time>
      </trkpt>
      <trkpt lat="44.33662" lon="4.66021">
        <ele>43</ele>
        <time>2018-05-16T06:50:22.1Z</time>
      </trkpt>
      <trkpt lat="44.33676" lon="4.66028">
        <ele>43</ele>
        <time>2018-05-16T06:50:25.1Z</time>
      </trkpt>
      <trkpt lat="44.33686" lon="4.66032">
        <ele>43</ele>
        <time>2018-05-16T06:50:27.1Z</time>
      </trkpt>
      <trkpt lat="44.33696" lon="4.66036">
        <ele>43</ele>
        <time>2018-05-16T06:50:29.1Z</time>
      </trkpt>
      <trkpt lat="44.33706" lon="4.6604">
        <ele>44</ele>
        <time>2018-05-16T06:50:31.1Z</time>
      </trkpt>
      <trkpt lat="44.3372" lon="4.66046">
        <ele>44</ele>
        <time>2018-05-16T06:50:34.1Z</time>
      </trkpt>
      <trkpt lat="44.3373" lon="4.6605">
        <ele>43</ele>
        <time>2018-05-16T06:50:36.1Z</time>
      </trkpt>
      <trkpt lat="44.33746" lon="4.66056">
        <ele>43</ele>
        <time>2018-05-16T06:50:39.1Z</time>
      </trkpt>
      <trkpt lat="44.33757" lon="4.66059">
        <ele>43</ele>
        <time>2018-05-16T06:50:41.1Z</time>
      </trkpt>
      <trkpt lat="44.3377" lon="4.66062">
        <ele>42</ele>
        <time>2018-05-16T06:50:44.1Z</time>
      </trkpt>
      <trkpt lat="44.33778" lon="4.66064">
        <ele>42</ele>
        <time>2018-05-16T06:50:46.1Z</time>
      </trkpt>
      <trkpt lat="44.33786" lon="4.66066">
        <ele>42</ele>
        <time>2018-05-16T06:50:48.1Z</time>
      </trkpt>
      <trkpt lat="44.33792" lon="4.66069">
        <ele>42</ele>
        <time>2018-05-16T06:50:50.1Z</time>
      </trkpt>
      <trkpt lat="44.33803" lon="4.66073">
        <ele>42</ele>
        <time>2018-05-16T06:50:53.1Z</time>
      </trkpt>
      <trkpt lat="44.33818" lon="4.66079">
        <ele>42</ele>
        <time>2018-05-16T06:50:56.1Z</time>
      </trkpt>
      <trkpt lat="44.33827" lon="4.66085">
        <ele>43</ele>
        <time>2018-05-16T06:50:58.1Z</time>
      </trkpt>
      <trkpt lat="44.33841" lon="4.66095">
        <ele>43</ele>
        <time>2018-05-16T06:51:01.1Z</time>
      </trkpt>
      <trkpt lat="44.33856" lon="4.66104">
        <ele>44</ele>
        <time>2018-05-16T06:51:04.1Z</time>
      </trkpt>
      <trkpt lat="44.33866" lon="4.6611">
        <ele>44</ele>
        <time>2018-05-16T06:51:06.1Z</time>
      </trkpt>
      <trkpt lat="44.33882" lon="4.66118">
        <ele>44</ele>
        <time>2018-05-16T06:51:09.1Z</time>
      </trkpt>
      <trkpt lat="44.33892" lon="4.66124">
        <ele>44</ele>
        <time>2018-05-16T06:51:11.1Z</time>
      </trkpt>
      <trkpt lat="44.33907" lon="4.66133">
        <ele>44</ele>
        <time>2018-05-16T06:51:14.1Z</time>
      </trkpt>
      <trkpt lat="44.33922" lon="4.66142">
        <ele>44</ele>
        <time>2018-05-16T06:51:17.1Z</time>
      </trkpt>
      <trkpt lat="44.33932" lon="4.66147">
        <ele>43</ele>
        <time>2018-05-16T06:51:19.1Z</time>
      </trkpt>
      <trkpt lat="44.33942" lon="4.66151">
        <ele>42</ele>
        <time>2018-05-16T06:51:22.1Z</time>
      </trkpt>
      <trkpt lat="44.33958" lon="4.66151">
        <ele>43</ele>
        <time>2018-05-16T06:51:24.1Z</time>
      </trkpt>
      <trkpt lat="44.33974" lon="4.66147">
        <ele>44</ele>
        <time>2018-05-16T06:51:27.1Z</time>
      </trkpt>
      <trkpt lat="44.33989" lon="4.66143">
        <ele>45</ele>
        <time>2018-05-16T06:51:30.1Z</time>
      </trkpt>
      <trkpt lat="44.34" lon="4.6614">
        <ele>45</ele>
        <time>2018-05-16T06:51:32.1Z</time>
      </trkpt>
      <trkpt lat="44.34014" lon="4.66136">
        <ele>45</ele>
        <time>2018-05-16T06:51:35.1Z</time>
      </trkpt>
      <trkpt lat="44.34023" lon="4.66133">
        <ele>44</ele>
        <time>2018-05-16T06:51:38.1Z</time>
      </trkpt>
      <trkpt lat="44.34037" lon="4.66128">
        <ele>44</ele>
        <time>2018-05-16T06:51:40.1Z</time>
      </trkpt>
      <trkpt lat="44.34048" lon="4.66125">
        <ele>44</ele>
        <time>2018-05-16T06:51:42.1Z</time>
      </trkpt>
      <trkpt lat="44.34063" lon="4.6612">
        <ele>44</ele>
        <time>2018-05-16T06:51:45.1Z</time>
      </trkpt>
      <trkpt lat="44.34073" lon="4.66116">
        <ele>45</ele>
        <time>2018-05-16T06:51:47.1Z</time>
      </trkpt>
      <trkpt lat="44.34088" lon="4.66111">
        <ele>44</ele>
        <time>2018-05-16T06:51:50.1Z</time>
      </trkpt>
      <trkpt lat="44.34103" lon="4.66105">
        <ele>44</ele>
        <time>2018-05-16T06:51:53.1Z</time>
      </trkpt>
      <trkpt lat="44.34113" lon="4.66102">
        <ele>44</ele>
        <time>2018-05-16T06:51:55.1Z</time>
      </trkpt>
      <trkpt lat="44.34128" lon="4.66096">
        <ele>45</ele>
        <time>2018-05-16T06:51:58.1Z</time>
      </trkpt>
      <trkpt lat="44.34138" lon="4.66092">
        <ele>45</ele>
        <time>2018-05-16T06:52:00.1Z</time>
      </trkpt>
      <trkpt lat="44.34148" lon="4.66089">
        <ele>45</ele>
        <time>2018-05-16T06:52:02.1Z</time>
      </trkpt>
      <trkpt lat="44.34162" lon="4.66083">
        <ele>45</ele>
        <time>2018-05-16T06:52:05.1Z</time>
      </trkpt>
      <trkpt lat="44.34172" lon="4.6608">
        <ele>45</ele>
        <time>2018-05-16T06:52:07.1Z</time>
      </trkpt>
      <trkpt lat="44.34187" lon="4.66074">
        <ele>45</ele>
        <time>2018-05-16T06:52:10.1Z</time>
      </trkpt>
      <trkpt lat="44.34196" lon="4.66071">
        <ele>45</ele>
        <time>2018-05-16T06:52:12.1Z</time>
      </trkpt>
      <trkpt lat="44.34206" lon="4.66067">
        <ele>45</ele>
        <time>2018-05-16T06:52:14.1Z</time>
      </trkpt>
      <trkpt lat="44.34221" lon="4.66062">
        <ele>44</ele>
        <time>2018-05-16T06:52:17.1Z</time>
      </trkpt>
      <trkpt lat="44.3423" lon="4.66058">
        <ele>44</ele>
        <time>2018-05-16T06:52:19.1Z</time>
      </trkpt>
      <trkpt lat="44.34244" lon="4.66051">
        <ele>45</ele>
        <time>2018-05-16T06:52:22.1Z</time>
      </trkpt>
      <trkpt lat="44.34258" lon="4.66043">
        <ele>45</ele>
        <time>2018-05-16T06:52:25.1Z</time>
      </trkpt>
      <trkpt lat="44.34267" lon="4.66037">
        <ele>44</ele>
        <time>2018-05-16T06:52:27.1Z</time>
      </trkpt>
      <trkpt lat="44.34277" lon="4.66032">
        <ele>44</ele>
        <time>2018-05-16T06:52:29.1Z</time>
      </trkpt>
      <trkpt lat="44.34286" lon="4.66026">
        <ele>44</ele>
        <time>2018-05-16T06:52:31.1Z</time>
      </trkpt>
      <trkpt lat="44.34295" lon="4.6602">
        <ele>44</ele>
        <time>2018-05-16T06:52:33.1Z</time>
      </trkpt>
      <trkpt lat="44.34304" lon="4.66015">
        <ele>45</ele>
        <time>2018-05-16T06:52:35.1Z</time>
      </trkpt>
      <trkpt lat="44.34313" lon="4.6601">
        <ele>45</ele>
        <time>2018-05-16T06:52:38.1Z</time>
      </trkpt>
      <trkpt lat="44.34326" lon="4.66002">
        <ele>45</ele>
        <time>2018-05-16T06:52:40.1Z</time>
      </trkpt>
      <trkpt lat="44.3434" lon="4.65993">
        <ele>45</ele>
        <time>2018-05-16T06:52:43.1Z</time>
      </trkpt>
      <trkpt lat="44.34349" lon="4.65987">
        <ele>45</ele>
        <time>2018-05-16T06:52:45.1Z</time>
      </trkpt>
      <trkpt lat="44.34359" lon="4.65982">
        <ele>45</ele>
        <time>2018-05-16T06:52:47.1Z</time>
      </trkpt>
      <trkpt lat="44.34373" lon="4.65974">
        <ele>44</ele>
        <time>2018-05-16T06:52:50.1Z</time>
      </trkpt>
      <trkpt lat="44.34382" lon="4.65968">
        <ele>44</ele>
        <time>2018-05-16T06:52:52.1Z</time>
      </trkpt>
      <trkpt lat="44.34396" lon="4.65959">
        <ele>44</ele>
        <time>2018-05-16T06:52:55.1Z</time>
      </trkpt>
      <trkpt lat="44.34406" lon="4.65954">
        <ele>45</ele>
        <time>2018-05-16T06:52:58.1Z</time>
      </trkpt>
      <trkpt lat="44.34419" lon="4.65945">
        <ele>45</ele>
        <time>2018-05-16T06:53:00.1Z</time>
      </trkpt>
      <trkpt lat="44.34433" lon="4.65937">
        <ele>45</ele>
        <time>2018-05-16T06:53:03.1Z</time>
      </trkpt>
      <trkpt lat="44.34442" lon="4.65932">
        <ele>45</ele>
        <time>2018-05-16T06:53:05.1Z</time>
      </trkpt>
      <trkpt lat="44.34456" lon="4.65923">
        <ele>44</ele>
        <time>2018-05-16T06:53:08.1Z</time>
      </trkpt>
      <trkpt lat="44.34465" lon="4.65917">
        <ele>45</ele>
        <time>2018-05-16T06:53:10.1Z</time>
      </trkpt>
      <trkpt lat="44.3448" lon="4.65908">
        <ele>45</ele>
        <time>2018-05-16T06:53:13.1Z</time>
      </trkpt>
      <trkpt lat="44.34494" lon="4.659">
        <ele>45</ele>
        <time>2018-05-16T06:53:16.1Z</time>
      </trkpt>
      <trkpt lat="44.34508" lon="4.65891">
        <ele>44</ele>
        <time>2018-05-16T06:53:19.1Z</time>
      </trkpt>
      <trkpt lat="44.34517" lon="4.65885">
        <ele>44</ele>
        <time>2018-05-16T06:53:21.1Z</time>
      </trkpt>
      <trkpt lat="44.34532" lon="4.65877">
        <ele>44</ele>
        <time>2018-05-16T06:53:24.1Z</time>
      </trkpt>
      <trkpt lat="44.34541" lon="4.65871">
        <ele>45</ele>
        <time>2018-05-16T06:53:26.1Z</time>
      </trkpt>
      <trkpt lat="44.34555" lon="4.65863">
        <ele>44</ele>
        <time>2018-05-16T06:53:29.1Z</time>
      </trkpt>
      <trkpt lat="44.34569" lon="4.65855">
        <ele>44</ele>
        <time>2018-05-16T06:53:32.1Z</time>
      </trkpt>
      <trkpt lat="44.34578" lon="4.65849">
        <ele>44</ele>
        <time>2018-05-16T06:53:34.1Z</time>
      </trkpt>
      <trkpt lat="44.34592" lon="4.6584">
        <ele>44</ele>
        <time>2018-05-16T06:53:37.1Z</time>
      </trkpt>
      <trkpt lat="44.34605" lon="4.65832">
        <ele>44</ele>
        <time>2018-05-16T06:53:40.1Z</time>
      </trkpt>
      <trkpt lat="44.34617" lon="4.65825">
        <ele>43</ele>
        <time>2018-05-16T06:53:43.1Z</time>
      </trkpt>
      <trkpt lat="44.34631" lon="4.65822">
        <ele>44</ele>
        <time>2018-05-16T06:53:46.1Z</time>
      </trkpt>
      <trkpt lat="44.34641" lon="4.65823">
        <ele>44</ele>
        <time>2018-05-16T06:53:48.1Z</time>
      </trkpt>
      <trkpt lat="44.34656" lon="4.6583">
        <ele>45</ele>
        <time>2018-05-16T06:53:51.1Z</time>
      </trkpt>
      <trkpt lat="44.34665" lon="4.65838">
        <ele>45</ele>
        <time>2018-05-16T06:53:53.1Z</time>
      </trkpt>
      <trkpt lat="44.34679" lon="4.6585">
        <ele>45</ele>
        <time>2018-05-16T06:53:56.1Z</time>
      </trkpt>
      <trkpt lat="44.34687" lon="4.65857">
        <ele>45</ele>
        <time>2018-05-16T06:53:58.1Z</time>
      </trkpt>
      <trkpt lat="44.34696" lon="4.65864">
        <ele>45</ele>
        <time>2018-05-16T06:54:01.1Z</time>
      </trkpt>
      <trkpt lat="44.34709" lon="4.65873">
        <ele>44</ele>
        <time>2018-05-16T06:54:03.1Z</time>
      </trkpt>
      <trkpt lat="44.34724" lon="4.65882">
        <ele>44</ele>
        <time>2018-05-16T06:54:06.1Z</time>
      </trkpt>
      <trkpt lat="44.34734" lon="4.65888">
        <ele>44</ele>
        <time>2018-05-16T06:54:08.1Z</time>
      </trkpt>
      <trkpt lat="44.34748" lon="4.65898">
        <ele>44</ele>
        <time>2018-05-16T06:54:11.1Z</time>
      </trkpt>
      <trkpt lat="44.34762" lon="4.65907">
        <ele>44</ele>
        <time>2018-05-16T06:54:14.1Z</time>
      </trkpt>
      <trkpt lat="44.34771" lon="4.65913">
        <ele>44</ele>
        <time>2018-05-16T06:54:16.1Z</time>
      </trkpt>
      <trkpt lat="44.34785" lon="4.65919">
        <ele>45</ele>
        <time>2018-05-16T06:54:19.1Z</time>
      </trkpt>
      <trkpt lat="44.34795" lon="4.65921">
        <ele>45</ele>
        <time>2018-05-16T06:54:21.1Z</time>
      </trkpt>
      <trkpt lat="44.3481" lon="4.65921">
        <ele>45</ele>
        <time>2018-05-16T06:54:24.1Z</time>
      </trkpt>
      <trkpt lat="44.34825" lon="4.6592">
        <ele>44</ele>
        <time>2018-05-16T06:54:27.1Z</time>
      </trkpt>
      <trkpt lat="44.34835" lon="4.65919">
        <ele>43</ele>
        <time>2018-05-16T06:54:29.1Z</time>
      </trkpt>
      <trkpt lat="44.3485" lon="4.65918">
        <ele>43</ele>
        <time>2018-05-16T06:54:32.1Z</time>
      </trkpt>
      <trkpt lat="44.34859" lon="4.65916">
        <ele>43</ele>
        <time>2018-05-16T06:54:34.1Z</time>
      </trkpt>
      <trkpt lat="44.34869" lon="4.65915">
        <ele>44</ele>
        <time>2018-05-16T06:54:36.1Z</time>
      </trkpt>
      <trkpt lat="44.34881" lon="4.65913">
        <ele>44</ele>
        <time>2018-05-16T06:54:39.1Z</time>
      </trkpt>
      <trkpt lat="44.34897" lon="4.65909">
        <ele>45</ele>
        <time>2018-05-16T06:54:42.1Z</time>
      </trkpt>
      <trkpt lat="44.34912" lon="4.65902">
        <ele>45</ele>
        <time>2018-05-16T06:54:45.1Z</time>
      </trkpt>
      <trkpt lat="44.34921" lon="4.65897">
        <ele>45</ele>
        <time>2018-05-16T06:54:47.1Z</time>
      </trkpt>
      <trkpt lat="44.34931" lon="4.65891">
        <ele>44</ele>
        <time>2018-05-16T06:54:49.1Z</time>
      </trkpt>
      <trkpt lat="44.3494" lon="4.65884">
        <ele>44</ele>
        <time>2018-05-16T06:54:51.1Z</time>
      </trkpt>
      <trkpt lat="44.34949" lon="4.65877">
        <ele>44</ele>
        <time>2018-05-16T06:54:53.1Z</time>
      </trkpt>
      <trkpt lat="44.34959" lon="4.6587">
        <ele>44</ele>
        <time>2018-05-16T06:54:55.1Z</time>
      </trkpt>
      <trkpt lat="44.34969" lon="4.65863">
        <ele>44</ele>
        <time>2018-05-16T06:54:57.1Z</time>
      </trkpt>
      <trkpt lat="44.34978" lon="4.65856">
        <ele>44</ele>
        <time>2018-05-16T06:54:59.1Z</time>
      </trkpt>
      <trkpt lat="44.34987" lon="4.65849">
        <ele>44</ele>
        <time>2018-05-16T06:55:02.1Z</time>
      </trkpt>
      <trkpt lat="44.35002" lon="4.65839">
        <ele>44</ele>
        <time>2018-05-16T06:55:04.1Z</time>
      </trkpt>
      <trkpt lat="44.35012" lon="4.65832">
        <ele>44</ele>
        <time>2018-05-16T06:55:06.1Z</time>
      </trkpt>
      <trkpt lat="44.35026" lon="4.65822">
        <ele>44</ele>
        <time>2018-05-16T06:55:09.1Z</time>
      </trkpt>
      <trkpt lat="44.35035" lon="4.65815">
        <ele>45</ele>
        <time>2018-05-16T06:55:11.1Z</time>
      </trkpt>
      <trkpt lat="44.35044" lon="4.65808">
        <ele>46</ele>
        <time>2018-05-16T06:55:13.1Z</time>
      </trkpt>
      <trkpt lat="44.35054" lon="4.65802">
        <ele>46</ele>
        <time>2018-05-16T06:55:15.1Z</time>
      </trkpt>
      <trkpt lat="44.35063" lon="4.65795">
        <ele>46</ele>
        <time>2018-05-16T06:55:17.1Z</time>
      </trkpt>
      <trkpt lat="44.35072" lon="4.65788">
        <ele>45</ele>
        <time>2018-05-16T06:55:19.1Z</time>
      </trkpt>
      <trkpt lat="44.35086" lon="4.65778">
        <ele>44</ele>
        <time>2018-05-16T06:55:22.1Z</time>
      </trkpt>
      <trkpt lat="44.35099" lon="4.65768">
        <ele>45</ele>
        <time>2018-05-16T06:55:25.1Z</time>
      </trkpt>
      <trkpt lat="44.35109" lon="4.65761">
        <ele>45</ele>
        <time>2018-05-16T06:55:27.1Z</time>
      </trkpt>
      <trkpt lat="44.35118" lon="4.65755">
        <ele>45</ele>
        <time>2018-05-16T06:55:29.1Z</time>
      </trkpt>
      <trkpt lat="44.35132" lon="4.65744">
        <ele>46</ele>
        <time>2018-05-16T06:55:32.1Z</time>
      </trkpt>
      <trkpt lat="44.35141" lon="4.65737">
        <ele>45</ele>
        <time>2018-05-16T06:55:34.1Z</time>
      </trkpt>
      <trkpt lat="44.35155" lon="4.65727">
        <ele>45</ele>
        <time>2018-05-16T06:55:37.1Z</time>
      </trkpt>
      <trkpt lat="44.35164" lon="4.6572">
        <ele>44</ele>
        <time>2018-05-16T06:55:39.1Z</time>
      </trkpt>
      <trkpt lat="44.35174" lon="4.65713">
        <ele>44</ele>
        <time>2018-05-16T06:55:41.1Z</time>
      </trkpt>
      <trkpt lat="44.35183" lon="4.65706">
        <ele>44</ele>
        <time>2018-05-16T06:55:43.1Z</time>
      </trkpt>
      <trkpt lat="44.35192" lon="4.657">
        <ele>45</ele>
        <time>2018-05-16T06:55:45.1Z</time>
      </trkpt>
      <trkpt lat="44.35202" lon="4.65693">
        <ele>45</ele>
        <time>2018-05-16T06:55:47.1Z</time>
      </trkpt>
      <trkpt lat="44.35215" lon="4.65683">
        <ele>46</ele>
        <time>2018-05-16T06:55:50.1Z</time>
      </trkpt>
      <trkpt lat="44.35224" lon="4.65676">
        <ele>45</ele>
        <time>2018-05-16T06:55:52.1Z</time>
      </trkpt>
      <trkpt lat="44.35233" lon="4.6567">
        <ele>45</ele>
        <time>2018-05-16T06:55:54.1Z</time>
      </trkpt>
      <trkpt lat="44.35242" lon="4.65663">
        <ele>45</ele>
        <time>2018-05-16T06:55:56.1Z</time>
      </trkpt>
      <trkpt lat="44.35256" lon="4.65653">
        <ele>45</ele>
        <time>2018-05-16T06:55:59.1Z</time>
      </trkpt>
      <trkpt lat="44.35265" lon="4.65647">
        <ele>45</ele>
        <time>2018-05-16T06:56:01.1Z</time>
      </trkpt>
      <trkpt lat="44.35274" lon="4.6564">
        <ele>45</ele>
        <time>2018-05-16T06:56:03.1Z</time>
      </trkpt>
      <trkpt lat="44.35283" lon="4.65634">
        <ele>45</ele>
        <time>2018-05-16T06:56:05.1Z</time>
      </trkpt>
      <trkpt lat="44.35297" lon="4.65625">
        <ele>45</ele>
        <time>2018-05-16T06:56:08.1Z</time>
      </trkpt>
      <trkpt lat="44.35306" lon="4.65618">
        <ele>45</ele>
        <time>2018-05-16T06:56:10.1Z</time>
      </trkpt>
      <trkpt lat="44.3532" lon="4.65608">
        <ele>45</ele>
        <time>2018-05-16T06:56:13.1Z</time>
      </trkpt>
      <trkpt lat="44.35329" lon="4.65602">
        <ele>44</ele>
        <time>2018-05-16T06:56:15.1Z</time>
      </trkpt>
      <trkpt lat="44.35338" lon="4.65595">
        <ele>44</ele>
        <time>2018-05-16T06:56:17.1Z</time>
      </trkpt>
      <trkpt lat="44.35351" lon="4.65587">
        <ele>44</ele>
        <time>2018-05-16T06:56:20.1Z</time>
      </trkpt>
      <trkpt lat="44.35361" lon="4.65585">
        <ele>45</ele>
        <time>2018-05-16T06:56:22.1Z</time>
      </trkpt>
      <trkpt lat="44.35376" lon="4.65587">
        <ele>45</ele>
        <time>2018-05-16T06:56:25.1Z</time>
      </trkpt>
      <trkpt lat="44.3539" lon="4.65595">
        <ele>45</ele>
        <time>2018-05-16T06:56:28.1Z</time>
      </trkpt>
      <trkpt lat="44.35399" lon="4.65602">
        <ele>44</ele>
        <time>2018-05-16T06:56:30.1Z</time>
      </trkpt>
      <trkpt lat="44.35408" lon="4.65608">
        <ele>44</ele>
        <time>2018-05-16T06:56:32.1Z</time>
      </trkpt>
      <trkpt lat="44.35418" lon="4.65614">
        <ele>44</ele>
        <time>2018-05-16T06:56:34.1Z</time>
      </trkpt>
      <trkpt lat="44.35427" lon="4.6562">
        <ele>44</ele>
        <time>2018-05-16T06:56:36.1Z</time>
      </trkpt>
      <trkpt lat="44.35437" lon="4.65625">
        <ele>45</ele>
        <time>2018-05-16T06:56:38.1Z</time>
      </trkpt>
      <trkpt lat="44.35449" lon="4.65632">
        <ele>46</ele>
        <time>2018-05-16T06:56:41.1Z</time>
      </trkpt>
      <trkpt lat="44.35458" lon="4.65637">
        <ele>46</ele>
        <time>2018-05-16T06:56:43.1Z</time>
      </trkpt>
      <trkpt lat="44.35468" lon="4.65642">
        <ele>46</ele>
        <time>2018-05-16T06:56:45.1Z</time>
      </trkpt>
      <trkpt lat="44.35477" lon="4.65646">
        <ele>45</ele>
        <time>2018-05-16T06:56:47.1Z</time>
      </trkpt>
      <trkpt lat="44.35491" lon="4.65655">
        <ele>45</ele>
        <time>2018-05-16T06:56:50.1Z</time>
      </trkpt>
      <trkpt lat="44.35506" lon="4.65662">
        <ele>46</ele>
        <time>2018-05-16T06:56:53.1Z</time>
      </trkpt>
      <trkpt lat="44.35515" lon="4.65666">
        <ele>46</ele>
        <time>2018-05-16T06:56:55.1Z</time>
      </trkpt>
      <trkpt lat="44.35531" lon="4.65667">
        <ele>46</ele>
        <time>2018-05-16T06:56:58.1Z</time>
      </trkpt>
      <trkpt lat="44.35546" lon="4.65668">
        <ele>45</ele>
        <time>2018-05-16T06:57:01.1Z</time>
      </trkpt>
      <trkpt lat="44.35562" lon="4.65668">
        <ele>46</ele>
        <time>2018-05-16T06:57:04.1Z</time>
      </trkpt>
      <trkpt lat="44.35573" lon="4.65668">
        <ele>46</ele>
        <time>2018-05-16T06:57:06.1Z</time>
      </trkpt>
      <trkpt lat="44.35589" lon="4.65668">
        <ele>46</ele>
        <time>2018-05-16T06:57:09.1Z</time>
      </trkpt>
      <trkpt lat="44.35599" lon="4.65668">
        <ele>45</ele>
        <time>2018-05-16T06:57:11.1Z</time>
      </trkpt>
      <trkpt lat="44.35609" lon="4.65669">
        <ele>46</ele>
        <time>2018-05-16T06:57:13.1Z</time>
      </trkpt>
      <trkpt lat="44.35624" lon="4.6567">
        <ele>45</ele>
        <time>2018-05-16T06:57:16.1Z</time>
      </trkpt>
      <trkpt lat="44.35635" lon="4.65671">
        <ele>45</ele>
        <time>2018-05-16T06:57:18.1Z</time>
      </trkpt>
      <trkpt lat="44.3565" lon="4.65672">
        <ele>44</ele>
        <time>2018-05-16T06:57:21.1Z</time>
      </trkpt>
      <trkpt lat="44.35659" lon="4.65673">
        <ele>44</ele>
        <time>2018-05-16T06:57:23.1Z</time>
      </trkpt>
      <trkpt lat="44.35674" lon="4.65675">
        <ele>44</ele>
        <time>2018-05-16T06:57:26.1Z</time>
      </trkpt>
      <trkpt lat="44.3569" lon="4.65677">
        <ele>45</ele>
        <time>2018-05-16T06:57:29.1Z</time>
      </trkpt>
      <trkpt lat="44.357" lon="4.65678">
        <ele>45</ele>
        <time>2018-05-16T06:57:31.1Z</time>
      </trkpt>
      <trkpt lat="44.35711" lon="4.65678">
        <ele>46</ele>
        <time>2018-05-16T06:57:33.1Z</time>
      </trkpt>
      <trkpt lat="44.35726" lon="4.65679">
        <ele>45</ele>
        <time>2018-05-16T06:57:36.1Z</time>
      </trkpt>
      <trkpt lat="44.35735" lon="4.65679">
        <ele>46</ele>
        <time>2018-05-16T06:57:38.1Z</time>
      </trkpt>
      <trkpt lat="44.35743" lon="4.65679">
        <ele>45</ele>
        <time>2018-05-16T06:57:40.1Z</time>
      </trkpt>
      <trkpt lat="44.35752" lon="4.65676">
        <ele>44</ele>
        <time>2018-05-16T06:57:43.1Z</time>
      </trkpt>
      <trkpt lat="44.35757" lon="4.65674">
        <ele>44</ele>
        <time>2018-05-16T06:57:45.1Z</time>
      </trkpt>
      <trkpt lat="44.35765" lon="4.65662">
        <ele>43</ele>
        <time>2018-05-16T06:57:48.1Z</time>
      </trkpt>
      <trkpt lat="44.35775" lon="4.65651">
        <ele>43</ele>
        <time>2018-05-16T06:57:51.1Z</time>
      </trkpt>
      <trkpt lat="44.35782" lon="4.65646">
        <ele>43</ele>
        <time>2018-05-16T06:57:53.1Z</time>
      </trkpt>
      <trkpt lat="44.35791" lon="4.65641">
        <ele>44</ele>
        <time>2018-05-16T06:57:55.1Z</time>
      </trkpt>
      <trkpt lat="44.35805" lon="4.65636">
        <ele>45</ele>
        <time>2018-05-16T06:57:58.1Z</time>
      </trkpt>
      <trkpt lat="44.3582" lon="4.6563">
        <ele>45</ele>
        <time>2018-05-16T06:58:01.1Z</time>
      </trkpt>
      <trkpt lat="44.3583" lon="4.65626">
        <ele>45</ele>
        <time>2018-05-16T06:58:03.1Z</time>
      </trkpt>
      <trkpt lat="44.35844" lon="4.6562">
        <ele>45</ele>
        <time>2018-05-16T06:58:06.1Z</time>
      </trkpt>
      <trkpt lat="44.3586" lon="4.65615">
        <ele>45</ele>
        <time>2018-05-16T06:58:09.1Z</time>
      </trkpt>
      <trkpt lat="44.3587" lon="4.65611">
        <ele>45</ele>
        <time>2018-05-16T06:58:11.1Z</time>
      </trkpt>
      <trkpt lat="44.35886" lon="4.65605">
        <ele>46</ele>
        <time>2018-05-16T06:58:14.1Z</time>
      </trkpt>
      <trkpt lat="44.35897" lon="4.65601">
        <ele>46</ele>
        <time>2018-05-16T06:58:16.1Z</time>
      </trkpt>
      <trkpt lat="44.35907" lon="4.65597">
        <ele>47</ele>
        <time>2018-05-16T06:58:18.1Z</time>
      </trkpt>
      <trkpt lat="44.35922" lon="4.65591">
        <ele>47</ele>
        <time>2018-05-16T06:58:21.1Z</time>
      </trkpt>
      <trkpt lat="44.35938" lon="4.65586">
        <ele>48</ele>
        <time>2018-05-16T06:58:24.1Z</time>
      </trkpt>
      <trkpt lat="44.35948" lon="4.65583">
        <ele>48</ele>
        <time>2018-05-16T06:58:26.1Z</time>
      </trkpt>
      <trkpt lat="44.35964" lon="4.65578">
        <ele>47</ele>
        <time>2018-05-16T06:58:29.1Z</time>
      </trkpt>
      <trkpt lat="44.35975" lon="4.65576">
        <ele>47</ele>
        <time>2018-05-16T06:58:31.1Z</time>
      </trkpt>
      <trkpt lat="44.35986" lon="4.65574">
        <ele>46</ele>
        <time>2018-05-16T06:58:33.1Z</time>
      </trkpt>
      <trkpt lat="44.35997" lon="4.65573">
        <ele>46</ele>
        <time>2018-05-16T06:58:35.1Z</time>
      </trkpt>
      <trkpt lat="44.36014" lon="4.65572">
        <ele>46</ele>
        <time>2018-05-16T06:58:38.1Z</time>
      </trkpt>
      <trkpt lat="44.36031" lon="4.65571">
        <ele>46</ele>
        <time>2018-05-16T06:58:41.1Z</time>
      </trkpt>
      <trkpt lat="44.36042" lon="4.6557">
        <ele>46</ele>
        <time>2018-05-16T06:58:43.1Z</time>
      </trkpt>
      <trkpt lat="44.36059" lon="4.65569">
        <ele>45</ele>
        <time>2018-05-16T06:58:46.1Z</time>
      </trkpt>
      <trkpt lat="44.3607" lon="4.65568">
        <ele>45</ele>
        <time>2018-05-16T06:58:48.1Z</time>
      </trkpt>
      <trkpt lat="44.36082" lon="4.65567">
        <ele>45</ele>
        <time>2018-05-16T06:58:50.1Z</time>
      </trkpt>
      <trkpt lat="44.36098" lon="4.65565">
        <ele>46</ele>
        <time>2018-05-16T06:58:53.1Z</time>
      </trkpt>
      <trkpt lat="44.3611" lon="4.65563">
        <ele>46</ele>
        <time>2018-05-16T06:58:55.1Z</time>
      </trkpt>
      <trkpt lat="44.36126" lon="4.65561">
        <ele>46</ele>
        <time>2018-05-16T06:58:58.1Z</time>
      </trkpt>
      <trkpt lat="44.36137" lon="4.65559">
        <ele>46</ele>
        <time>2018-05-16T06:59:00.1Z</time>
      </trkpt>
      <trkpt lat="44.36148" lon="4.65559">
        <ele>46</ele>
        <time>2018-05-16T06:59:02.1Z</time>
      </trkpt>
      <trkpt lat="44.36165" lon="4.65559">
        <ele>46</ele>
        <time>2018-05-16T06:59:05.1Z</time>
      </trkpt>
      <trkpt lat="44.36182" lon="4.6556">
        <ele>46</ele>
        <time>2018-05-16T06:59:08.1Z</time>
      </trkpt>
      <trkpt lat="44.36199" lon="4.65563">
        <ele>46</ele>
        <time>2018-05-16T06:59:11.1Z</time>
      </trkpt>
      <trkpt lat="44.36216" lon="4.65568">
        <ele>47</ele>
        <time>2018-05-16T06:59:14.1Z</time>
      </trkpt>
      <trkpt lat="44.36232" lon="4.65572">
        <ele>47</ele>
        <time>2018-05-16T06:59:17.1Z</time>
      </trkpt>
      <trkpt lat="44.36249" lon="4.65577">
        <ele>46</ele>
        <time>2018-05-16T06:59:20.1Z</time>
      </trkpt>
      <trkpt lat="44.3626" lon="4.6558">
        <ele>46</ele>
        <time>2018-05-16T06:59:22.1Z</time>
      </trkpt>
      <trkpt lat="44.36277" lon="4.65584">
        <ele>46</ele>
        <time>2018-05-16T06:59:25.1Z</time>
      </trkpt>
      <trkpt lat="44.36288" lon="4.65587">
        <ele>46</ele>
        <time>2018-05-16T06:59:27.1Z</time>
      </trkpt>
      <trkpt lat="44.36304" lon="4.65591">
        <ele>46</ele>
        <time>2018-05-16T06:59:30.1Z</time>
      </trkpt>
      <trkpt lat="44.36322" lon="4.65594">
        <ele>46</ele>
        <time>2018-05-16T06:59:33.1Z</time>
      </trkpt>
      <trkpt lat="44.36333" lon="4.65596">
        <ele>46</ele>
        <time>2018-05-16T06:59:35.1Z</time>
      </trkpt>
      <trkpt lat="44.3635" lon="4.65598">
        <ele>46</ele>
        <time>2018-05-16T06:59:38.1Z</time>
      </trkpt>
      <trkpt lat="44.36361" lon="4.656">
        <ele>46</ele>
        <time>2018-05-16T06:59:40.1Z</time>
      </trkpt>
      <trkpt lat="44.36378" lon="4.65601">
        <ele>47</ele>
        <time>2018-05-16T06:59:43.1Z</time>
      </trkpt>
      <trkpt lat="44.3639" lon="4.65603">
        <ele>47</ele>
        <time>2018-05-16T06:59:45.1Z</time>
      </trkpt>
      <trkpt lat="44.36401" lon="4.65604">
        <ele>47</ele>
        <time>2018-05-16T06:59:47.1Z</time>
      </trkpt>
      <trkpt lat="44.36413" lon="4.65605">
        <ele>47</ele>
        <time>2018-05-16T06:59:49.1Z</time>
      </trkpt>
      <trkpt lat="44.3643" lon="4.65606">
        <ele>47</ele>
        <time>2018-05-16T06:59:52.1Z</time>
      </trkpt>
      <trkpt lat="44.36441" lon="4.65608">
        <ele>47</ele>
        <time>2018-05-16T06:59:54.1Z</time>
      </trkpt>
      <trkpt lat="44.36452" lon="4.65609">
        <ele>47</ele>
        <time>2018-05-16T06:59:56.1Z</time>
      </trkpt>
      <trkpt lat="44.36463" lon="4.6561">
        <ele>47</ele>
        <time>2018-05-16T06:59:58.1Z</time>
      </trkpt>
      <trkpt lat="44.3648" lon="4.65612">
        <ele>48</ele>
        <time>2018-05-16T07:00:01.1Z</time>
      </trkpt>
      <trkpt lat="44.36491" lon="4.65613">
        <ele>48</ele>
        <time>2018-05-16T07:00:03.1Z</time>
      </trkpt>
      <trkpt lat="44.36505" lon="4.65614">
        <ele>48</ele>
        <time>2018-05-16T07:00:06.1Z</time>
      </trkpt>
      <trkpt lat="44.36516" lon="4.65615">
        <ele>47</ele>
        <time>2018-05-16T07:00:08.1Z</time>
      </trkpt>
      <trkpt lat="44.36528" lon="4.65617">
        <ele>47</ele>
        <time>2018-05-16T07:00:10.1Z</time>
      </trkpt>
      <trkpt lat="44.36545" lon="4.65618">
        <ele>48</ele>
        <time>2018-05-16T07:00:13.1Z</time>
      </trkpt>
      <trkpt lat="44.36557" lon="4.65619">
        <ele>48</ele>
        <time>2018-05-16T07:00:15.1Z</time>
      </trkpt>
      <trkpt lat="44.36574" lon="4.65621">
        <ele>47</ele>
        <time>2018-05-16T07:00:18.1Z</time>
      </trkpt>
      <trkpt lat="44.36585" lon="4.65622">
        <ele>47</ele>
        <time>2018-05-16T07:00:20.1Z</time>
      </trkpt>
      <trkpt lat="44.36602" lon="4.65623">
        <ele>47</ele>
        <time>2018-05-16T07:00:23.1Z</time>
      </trkpt>
      <trkpt lat="44.36613" lon="4.65624">
        <ele>48</ele>
        <time>2018-05-16T07:00:25.1Z</time>
      </trkpt>
      <trkpt lat="44.36624" lon="4.65625">
        <ele>48</ele>
        <time>2018-05-16T07:00:27.1Z</time>
      </trkpt>
      <trkpt lat="44.36635" lon="4.65626">
        <ele>47</ele>
        <time>2018-05-16T07:00:29.1Z</time>
      </trkpt>
      <trkpt lat="44.36646" lon="4.65627">
        <ele>47</ele>
        <time>2018-05-16T07:00:31.1Z</time>
      </trkpt>
      <trkpt lat="44.36656" lon="4.65628">
        <ele>47</ele>
        <time>2018-05-16T07:00:33.1Z</time>
      </trkpt>
      <trkpt lat="44.36672" lon="4.65631">
        <ele>48</ele>
        <time>2018-05-16T07:00:36.1Z</time>
      </trkpt>
      <trkpt lat="44.36683" lon="4.65634">
        <ele>48</ele>
        <time>2018-05-16T07:00:38.1Z</time>
      </trkpt>
      <trkpt lat="44.36693" lon="4.65637">
        <ele>48</ele>
        <time>2018-05-16T07:00:40.1Z</time>
      </trkpt>
      <trkpt lat="44.36709" lon="4.65641">
        <ele>48</ele>
        <time>2018-05-16T07:00:43.1Z</time>
      </trkpt>
      <trkpt lat="44.36725" lon="4.65646">
        <ele>48</ele>
        <time>2018-05-16T07:00:46.1Z</time>
      </trkpt>
      <trkpt lat="44.36741" lon="4.65649">
        <ele>49</ele>
        <time>2018-05-16T07:00:49.1Z</time>
      </trkpt>
      <trkpt lat="44.36755" lon="4.65653">
        <ele>49</ele>
        <time>2018-05-16T07:00:52.1Z</time>
      </trkpt>
      <trkpt lat="44.36765" lon="4.65655">
        <ele>48</ele>
        <time>2018-05-16T07:00:55.1Z</time>
      </trkpt>
      <trkpt lat="44.3677" lon="4.65657">
        <ele>47</ele>
        <time>2018-05-16T07:00:57.1Z</time>
      </trkpt>
      <trkpt lat="44.36774" lon="4.65657">
        <ele>47</ele>
        <time>2018-05-16T07:01:00.1Z</time>
      </trkpt>
      <trkpt lat="44.36774" lon="4.65657">
        <ele>47</ele>
        <time>2018-05-16T07:01:02.1Z</time>
      </trkpt>
      <trkpt lat="44.36774" lon="4.65657">
        <ele>46</ele>
        <time>2018-05-16T07:01:04.1Z</time>
      </trkpt>
      <trkpt lat="44.36775" lon="4.65657">
        <ele>46</ele>
        <time>2018-05-16T07:01:08.1Z</time>
      </trkpt>
      <trkpt lat="44.36775" lon="4.65657">
        <ele>46</ele>
        <time>2018-05-16T07:01:11.1Z</time>
      </trkpt>
      <trkpt lat="44.36775" lon="4.65657">
        <ele>47</ele>
        <time>2018-05-16T07:01:13.1Z</time>
      </trkpt>
      <trkpt lat="44.36775" lon="4.65657">
        <ele>47</ele>
        <time>2018-05-16T07:01:16.1Z</time>
      </trkpt>
      <trkpt lat="44.36775" lon="4.65657">
        <ele>46</ele>
        <time>2018-05-16T07:01:24.1Z</time>
      </trkpt>
      <trkpt lat="44.36776" lon="4.65657">
        <ele>46</ele>
        <time>2018-05-16T07:01:27.1Z</time>
      </trkpt>
      <trkpt lat="44.36776" lon="4.65657">
        <ele>46</ele>
        <time>2018-05-16T07:01:31.1Z</time>
      </trkpt>
      <trkpt lat="44.3678" lon="4.65656">
        <ele>46</ele>
        <time>2018-05-16T07:01:34.1Z</time>
      </trkpt>
      <trkpt lat="44.36783" lon="4.65652">
        <ele>46</ele>
        <time>2018-05-16T07:01:36.1Z</time>
      </trkpt>
      <trkpt lat="44.36786" lon="4.65641">
        <ele>46</ele>
        <time>2018-05-16T07:01:39.1Z</time>
      </trkpt>
      <trkpt lat="44.36788" lon="4.65631">
        <ele>47</ele>
        <time>2018-05-16T07:01:41.1Z</time>
      </trkpt>
      <trkpt lat="44.36789" lon="4.6562">
        <ele>47</ele>
        <time>2018-05-16T07:01:43.1Z</time>
      </trkpt>
      <trkpt lat="44.36791" lon="4.656">
        <ele>47</ele>
        <time>2018-05-16T07:01:46.1Z</time>
      </trkpt>
      <trkpt lat="44.36792" lon="4.65587">
        <ele>47</ele>
        <time>2018-05-16T07:01:48.1Z</time>
      </trkpt>
      <trkpt lat="44.36792" lon="4.65573">
        <ele>48</ele>
        <time>2018-05-16T07:01:50.1Z</time>
      </trkpt>
      <trkpt lat="44.36794" lon="4.6556">
        <ele>47</ele>
        <time>2018-05-16T07:01:52.1Z</time>
      </trkpt>
      <trkpt lat="44.36797" lon="4.65543">
        <ele>48</ele>
        <time>2018-05-16T07:01:55.1Z</time>
      </trkpt>
      <trkpt lat="44.368" lon="4.65523">
        <ele>48</ele>
        <time>2018-05-16T07:01:58.1Z</time>
      </trkpt>
      <trkpt lat="44.36802" lon="4.65511">
        <ele>48</ele>
        <time>2018-05-16T07:02:00.1Z</time>
      </trkpt>
      <trkpt lat="44.36803" lon="4.6549">
        <ele>48</ele>
        <time>2018-05-16T07:02:03.1Z</time>
      </trkpt>
      <trkpt lat="44.36804" lon="4.65477">
        <ele>48</ele>
        <time>2018-05-16T07:02:05.1Z</time>
      </trkpt>
      <trkpt lat="44.36806" lon="4.65456">
        <ele>47</ele>
        <time>2018-05-16T07:02:08.1Z</time>
      </trkpt>
      <trkpt lat="44.36808" lon="4.65443">
        <ele>48</ele>
        <time>2018-05-16T07:02:10.1Z</time>
      </trkpt>
      <trkpt lat="44.3681" lon="4.65428">
        <ele>48</ele>
        <time>2018-05-16T07:02:12.1Z</time>
      </trkpt>
      <trkpt lat="44.36811" lon="4.65407">
        <ele>48</ele>
        <time>2018-05-16T07:02:15.1Z</time>
      </trkpt>
      <trkpt lat="44.36813" lon="4.65392">
        <ele>48</ele>
        <time>2018-05-16T07:02:17.1Z</time>
      </trkpt>
      <trkpt lat="44.36814" lon="4.6537">
        <ele>48</ele>
        <time>2018-05-16T07:02:20.1Z</time>
      </trkpt>
      <trkpt lat="44.36815" lon="4.65356">
        <ele>48</ele>
        <time>2018-05-16T07:02:22.1Z</time>
      </trkpt>
      <trkpt lat="44.36817" lon="4.65335">
        <ele>48</ele>
        <time>2018-05-16T07:02:25.1Z</time>
      </trkpt>
      <trkpt lat="44.36817" lon="4.6532">
        <ele>48</ele>
        <time>2018-05-16T07:02:27.1Z</time>
      </trkpt>
      <trkpt lat="44.36818" lon="4.65306">
        <ele>48</ele>
        <time>2018-05-16T07:02:29.1Z</time>
      </trkpt>
      <trkpt lat="44.36819" lon="4.65291">
        <ele>49</ele>
        <time>2018-05-16T07:02:31.1Z</time>
      </trkpt>
      <trkpt lat="44.36821" lon="4.65271">
        <ele>48</ele>
        <time>2018-05-16T07:02:34.1Z</time>
      </trkpt>
      <trkpt lat="44.36823" lon="4.6525">
        <ele>48</ele>
        <time>2018-05-16T07:02:37.1Z</time>
      </trkpt>
      <trkpt lat="44.36824" lon="4.65237">
        <ele>49</ele>
        <time>2018-05-16T07:02:39.1Z</time>
      </trkpt>
      <trkpt lat="44.36826" lon="4.65216">
        <ele>48</ele>
        <time>2018-05-16T07:02:42.1Z</time>
      </trkpt>
      <trkpt lat="44.36828" lon="4.65203">
        <ele>49</ele>
        <time>2018-05-16T07:02:44.1Z</time>
      </trkpt>
      <trkpt lat="44.36829" lon="4.65183">
        <ele>49</ele>
        <time>2018-05-16T07:02:47.1Z</time>
      </trkpt>
      <trkpt lat="44.3683" lon="4.65163">
        <ele>50</ele>
        <time>2018-05-16T07:02:50.1Z</time>
      </trkpt>
      <trkpt lat="44.36831" lon="4.6515">
        <ele>50</ele>
        <time>2018-05-16T07:02:52.1Z</time>
      </trkpt>
      <trkpt lat="44.36833" lon="4.65137">
        <ele>51</ele>
        <time>2018-05-16T07:02:54.1Z</time>
      </trkpt>
      <trkpt lat="44.36835" lon="4.65117">
        <ele>51</ele>
        <time>2018-05-16T07:02:57.1Z</time>
      </trkpt>
      <trkpt lat="44.36836" lon="4.65103">
        <ele>51</ele>
        <time>2018-05-16T07:02:59.1Z</time>
      </trkpt>
      <trkpt lat="44.36837" lon="4.6509">
        <ele>51</ele>
        <time>2018-05-16T07:03:01.1Z</time>
      </trkpt>
      <trkpt lat="44.36839" lon="4.65071">
        <ele>52</ele>
        <time>2018-05-16T07:03:04.1Z</time>
      </trkpt>
      <trkpt lat="44.3684" lon="4.65053">
        <ele>52</ele>
        <time>2018-05-16T07:03:07.1Z</time>
      </trkpt>
      <trkpt lat="44.3684" lon="4.65041">
        <ele>53</ele>
        <time>2018-05-16T07:03:09.1Z</time>
      </trkpt>
      <trkpt lat="44.36841" lon="4.65029">
        <ele>53</ele>
        <time>2018-05-16T07:03:11.1Z</time>
      </trkpt>
      <trkpt lat="44.36842" lon="4.6501">
        <ele>52</ele>
        <time>2018-05-16T07:03:14.1Z</time>
      </trkpt>
      <trkpt lat="44.36843" lon="4.64998">
        <ele>53</ele>
        <time>2018-05-16T07:03:16.1Z</time>
      </trkpt>
      <trkpt lat="44.36845" lon="4.64978">
        <ele>54</ele>
        <time>2018-05-16T07:03:19.1Z</time>
      </trkpt>
      <trkpt lat="44.36845" lon="4.64965">
        <ele>54</ele>
        <time>2018-05-16T07:03:21.1Z</time>
      </trkpt>
      <trkpt lat="44.36846" lon="4.64952">
        <ele>54</ele>
        <time>2018-05-16T07:03:23.1Z</time>
      </trkpt>
      <trkpt lat="44.36848" lon="4.64933">
        <ele>54</ele>
        <time>2018-05-16T07:03:26.1Z</time>
      </trkpt>
      <trkpt lat="44.36849" lon="4.6492">
        <ele>55</ele>
        <time>2018-05-16T07:03:28.1Z</time>
      </trkpt>
      <trkpt lat="44.3685" lon="4.64908">
        <ele>55</ele>
        <time>2018-05-16T07:03:30.1Z</time>
      </trkpt>
      <trkpt lat="44.36851" lon="4.64888">
        <ele>55</ele>
        <time>2018-05-16T07:03:33.1Z</time>
      </trkpt>
      <trkpt lat="44.36852" lon="4.64875">
        <ele>55</ele>
        <time>2018-05-16T07:03:35.1Z</time>
      </trkpt>
      <trkpt lat="44.36853" lon="4.64861">
        <ele>55</ele>
        <time>2018-05-16T07:03:37.1Z</time>
      </trkpt>
      <trkpt lat="44.36855" lon="4.64847">
        <ele>55</ele>
        <time>2018-05-16T07:03:39.1Z</time>
      </trkpt>
      <trkpt lat="44.36856" lon="4.64824">
        <ele>55</ele>
        <time>2018-05-16T07:03:42.1Z</time>
      </trkpt>
      <trkpt lat="44.36858" lon="4.64807">
        <ele>55</ele>
        <time>2018-05-16T07:03:44.1Z</time>
      </trkpt>
      <trkpt lat="44.36859" lon="4.6479">
        <ele>54</ele>
        <time>2018-05-16T07:03:46.1Z</time>
      </trkpt>
      <trkpt lat="44.36861" lon="4.64768">
        <ele>53</ele>
        <time>2018-05-16T07:03:49.1Z</time>
      </trkpt>
      <trkpt lat="44.36863" lon="4.64756">
        <ele>51</ele>
        <time>2018-05-16T07:03:51.1Z</time>
      </trkpt>
      <trkpt lat="44.36863" lon="4.64747">
        <ele>50</ele>
        <time>2018-05-16T07:03:53.1Z</time>
      </trkpt>
      <trkpt lat="44.36865" lon="4.64736">
        <ele>48</ele>
        <time>2018-05-16T07:03:56.1Z</time>
      </trkpt>
      <trkpt lat="44.36865" lon="4.64732">
        <ele>47</ele>
        <time>2018-05-16T07:03:58.1Z</time>
      </trkpt>
      <trkpt lat="44.36866" lon="4.64727">
        <ele>47</ele>
        <time>2018-05-16T07:04:00.1Z</time>
      </trkpt>
      <trkpt lat="44.36871" lon="4.64715">
        <ele>47</ele>
        <time>2018-05-16T07:04:03.1Z</time>
      </trkpt>
      <trkpt lat="44.36871" lon="4.64699">
        <ele>47</ele>
        <time>2018-05-16T07:04:06.1Z</time>
      </trkpt>
      <trkpt lat="44.36872" lon="4.64688">
        <ele>47</ele>
        <time>2018-05-16T07:04:08.1Z</time>
      </trkpt>
      <trkpt lat="44.36875" lon="4.64675">
        <ele>47</ele>
        <time>2018-05-16T07:04:10.1Z</time>
      </trkpt>
      <trkpt lat="44.36878" lon="4.64657">
        <ele>47</ele>
        <time>2018-05-16T07:04:13.1Z</time>
      </trkpt>
      <trkpt lat="44.3688" lon="4.64646">
        <ele>47</ele>
        <time>2018-05-16T07:04:15.1Z</time>
      </trkpt>
      <trkpt lat="44.36883" lon="4.64637">
        <ele>47</ele>
        <time>2018-05-16T07:04:17.1Z</time>
      </trkpt>
      <trkpt lat="44.36887" lon="4.64624">
        <ele>48</ele>
        <time>2018-05-16T07:04:20.1Z</time>
      </trkpt>
      <trkpt lat="44.36889" lon="4.64614">
        <ele>48</ele>
        <time>2018-05-16T07:04:22.1Z</time>
      </trkpt>
      <trkpt lat="44.36891" lon="4.64605">
        <ele>49</ele>
        <time>2018-05-16T07:04:24.1Z</time>
      </trkpt>
      <trkpt lat="44.36891" lon="4.64597">
        <ele>49</ele>
        <time>2018-05-16T07:04:26.1Z</time>
      </trkpt>
      <trkpt lat="44.36893" lon="4.64587">
        <ele>50</ele>
        <time>2018-05-16T07:04:28.1Z</time>
      </trkpt>
      <trkpt lat="44.36895" lon="4.64572">
        <ele>50</ele>
        <time>2018-05-16T07:04:31.1Z</time>
      </trkpt>
      <trkpt lat="44.36896" lon="4.64559">
        <ele>51</ele>
        <time>2018-05-16T07:04:34.1Z</time>
      </trkpt>
      <trkpt lat="44.369" lon="4.64545">
        <ele>51</ele>
        <time>2018-05-16T07:04:37.1Z</time>
      </trkpt>
      <trkpt lat="44.36901" lon="4.64536">
        <ele>52</ele>
        <time>2018-05-16T07:04:39.1Z</time>
      </trkpt>
      <trkpt lat="44.369" lon="4.64523">
        <ele>52</ele>
        <time>2018-05-16T07:04:42.1Z</time>
      </trkpt>
      <trkpt lat="44.36897" lon="4.64511">
        <ele>53</ele>
        <time>2018-05-16T07:04:45.1Z</time>
      </trkpt>
      <trkpt lat="44.36894" lon="4.64503">
        <ele>53</ele>
        <time>2018-05-16T07:04:47.1Z</time>
      </trkpt>
      <trkpt lat="44.36895" lon="4.64488">
        <ele>53</ele>
        <time>2018-05-16T07:04:50.1Z</time>
      </trkpt>
      <trkpt lat="44.36902" lon="4.64475">
        <ele>53</ele>
        <time>2018-05-16T07:04:53.1Z</time>
      </trkpt>
      <trkpt lat="44.36906" lon="4.64467">
        <ele>53</ele>
        <time>2018-05-16T07:04:55.1Z</time>
      </trkpt>
      <trkpt lat="44.36916" lon="4.64459">
        <ele>54</ele>
        <time>2018-05-16T07:04:58.1Z</time>
      </trkpt>
      <trkpt lat="44.36923" lon="4.64454">
        <ele>55</ele>
        <time>2018-05-16T07:05:00.1Z</time>
      </trkpt>
      <trkpt lat="44.36929" lon="4.64449">
        <ele>55</ele>
        <time>2018-05-16T07:05:02.1Z</time>
      </trkpt>
      <trkpt lat="44.36935" lon="4.64446">
        <ele>55</ele>
        <time>2018-05-16T07:05:04.1Z</time>
      </trkpt>
      <trkpt lat="44.36942" lon="4.64441">
        <ele>55</ele>
        <time>2018-05-16T07:05:06.1Z</time>
      </trkpt>
      <trkpt lat="44.36951" lon="4.64435">
        <ele>56</ele>
        <time>2018-05-16T07:05:09.1Z</time>
      </trkpt>
      <trkpt lat="44.36958" lon="4.64429">
        <ele>56</ele>
        <time>2018-05-16T07:05:12.1Z</time>
      </trkpt>
      <trkpt lat="44.36964" lon="4.64425">
        <ele>56</ele>
        <time>2018-05-16T07:05:14.1Z</time>
      </trkpt>
      <trkpt lat="44.36973" lon="4.64418">
        <ele>56</ele>
        <time>2018-05-16T07:05:17.1Z</time>
      </trkpt>
      <trkpt lat="44.36978" lon="4.64414">
        <ele>56</ele>
        <time>2018-05-16T07:05:19.1Z</time>
      </trkpt>
      <trkpt lat="44.36983" lon="4.6441">
        <ele>56</ele>
        <time>2018-05-16T07:05:21.1Z</time>
      </trkpt>
      <trkpt lat="44.36991" lon="4.64404">
        <ele>57</ele>
        <time>2018-05-16T07:05:24.1Z</time>
      </trkpt>
      <trkpt lat="44.36998" lon="4.64401">
        <ele>58</ele>
        <time>2018-05-16T07:05:26.1Z</time>
      </trkpt>
      <trkpt lat="44.37008" lon="4.64399">
        <ele>59</ele>
        <time>2018-05-16T07:05:29.1Z</time>
      </trkpt>
      <trkpt lat="44.37016" lon="4.64394">
        <ele>60</ele>
        <time>2018-05-16T07:05:32.1Z</time>
      </trkpt>
      <trkpt lat="44.37026" lon="4.64393">
        <ele>60</ele>
        <time>2018-05-16T07:05:35.1Z</time>
      </trkpt>
      <trkpt lat="44.37036" lon="4.64394">
        <ele>60</ele>
        <time>2018-05-16T07:05:38.1Z</time>
      </trkpt>
      <trkpt lat="44.37043" lon="4.64397">
        <ele>61</ele>
        <time>2018-05-16T07:05:40.1Z</time>
      </trkpt>
      <trkpt lat="44.37049" lon="4.64398">
        <ele>61</ele>
        <time>2018-05-16T07:05:43.1Z</time>
      </trkpt>
      <trkpt lat="44.37052" lon="4.64398">
        <ele>61</ele>
        <time>2018-05-16T07:05:45.1Z</time>
      </trkpt>
      <trkpt lat="44.37057" lon="4.644">
        <ele>60</ele>
        <time>2018-05-16T07:05:47.1Z</time>
      </trkpt>
      <trkpt lat="44.37066" lon="4.64404">
        <ele>61</ele>
        <time>2018-05-16T07:05:50.1Z</time>
      </trkpt>
      <trkpt lat="44.37074" lon="4.64407">
        <ele>61</ele>
        <time>2018-05-16T07:05:52.1Z</time>
      </trkpt>
      <trkpt lat="44.37081" lon="4.6441">
        <ele>61</ele>
        <time>2018-05-16T07:05:54.1Z</time>
      </trkpt>
      <trkpt lat="44.37093" lon="4.64414">
        <ele>61</ele>
        <time>2018-05-16T07:05:57.1Z</time>
      </trkpt>
      <trkpt lat="44.371" lon="4.64416">
        <ele>61</ele>
        <time>2018-05-16T07:05:59.1Z</time>
      </trkpt>
      <trkpt lat="44.37113" lon="4.64417">
        <ele>61</ele>
        <time>2018-05-16T07:06:02.1Z</time>
      </trkpt>
      <trkpt lat="44.37126" lon="4.64417">
        <ele>61</ele>
        <time>2018-05-16T07:06:05.1Z</time>
      </trkpt>
      <trkpt lat="44.37138" lon="4.64422">
        <ele>61</ele>
        <time>2018-05-16T07:06:08.1Z</time>
      </trkpt>
      <trkpt lat="44.37146" lon="4.64426">
        <ele>61</ele>
        <time>2018-05-16T07:06:10.1Z</time>
      </trkpt>
      <trkpt lat="44.3716" lon="4.64431">
        <ele>61</ele>
        <time>2018-05-16T07:06:13.1Z</time>
      </trkpt>
      <trkpt lat="44.37174" lon="4.64434">
        <ele>61</ele>
        <time>2018-05-16T07:06:16.1Z</time>
      </trkpt>
      <trkpt lat="44.37182" lon="4.64429">
        <ele>61</ele>
        <time>2018-05-16T07:06:18.1Z</time>
      </trkpt>
      <trkpt lat="44.37188" lon="4.64421">
        <ele>60</ele>
        <time>2018-05-16T07:06:20.1Z</time>
      </trkpt>
      <trkpt lat="44.37199" lon="4.6441">
        <ele>61</ele>
        <time>2018-05-16T07:06:23.1Z</time>
      </trkpt>
      <trkpt lat="44.37206" lon="4.64402">
        <ele>61</ele>
        <time>2018-05-16T07:06:25.1Z</time>
      </trkpt>
      <trkpt lat="44.37215" lon="4.64391">
        <ele>61</ele>
        <time>2018-05-16T07:06:28.1Z</time>
      </trkpt>
      <trkpt lat="44.37221" lon="4.64383">
        <ele>62</ele>
        <time>2018-05-16T07:06:30.1Z</time>
      </trkpt>
      <trkpt lat="44.37228" lon="4.64374">
        <ele>62</ele>
        <time>2018-05-16T07:06:32.1Z</time>
      </trkpt>
      <trkpt lat="44.37233" lon="4.64365">
        <ele>62</ele>
        <time>2018-05-16T07:06:34.1Z</time>
      </trkpt>
      <trkpt lat="44.3724" lon="4.64351">
        <ele>63</ele>
        <time>2018-05-16T07:06:37.1Z</time>
      </trkpt>
      <trkpt lat="44.37245" lon="4.64343">
        <ele>63</ele>
        <time>2018-05-16T07:06:39.1Z</time>
      </trkpt>
      <trkpt lat="44.37253" lon="4.6433">
        <ele>63</ele>
        <time>2018-05-16T07:06:42.1Z</time>
      </trkpt>
      <trkpt lat="44.37261" lon="4.64317">
        <ele>64</ele>
        <time>2018-05-16T07:06:45.1Z</time>
      </trkpt>
      <trkpt lat="44.37269" lon="4.64302">
        <ele>64</ele>
        <time>2018-05-16T07:06:48.1Z</time>
      </trkpt>
      <trkpt lat="44.37272" lon="4.6429">
        <ele>64</ele>
        <time>2018-05-16T07:06:50.1Z</time>
      </trkpt>
      <trkpt lat="44.37276" lon="4.64271">
        <ele>65</ele>
        <time>2018-05-16T07:06:53.1Z</time>
      </trkpt>
      <trkpt lat="44.3728" lon="4.6426">
        <ele>66</ele>
        <time>2018-05-16T07:06:55.1Z</time>
      </trkpt>
      <trkpt lat="44.37283" lon="4.64249">
        <ele>66</ele>
        <time>2018-05-16T07:06:57.1Z</time>
      </trkpt>
      <trkpt lat="44.37287" lon="4.64233">
        <ele>67</ele>
        <time>2018-05-16T07:07:00.1Z</time>
      </trkpt>
      <trkpt lat="44.37289" lon="4.64221">
        <ele>66</ele>
        <time>2018-05-16T07:07:02.1Z</time>
      </trkpt>
      <trkpt lat="44.37292" lon="4.64205">
        <ele>67</ele>
        <time>2018-05-16T07:07:05.1Z</time>
      </trkpt>
      <trkpt lat="44.37296" lon="4.64195">
        <ele>67</ele>
        <time>2018-05-16T07:07:07.1Z</time>
      </trkpt>
      <trkpt lat="44.37302" lon="4.6418">
        <ele>67</ele>
        <time>2018-05-16T07:07:10.1Z</time>
      </trkpt>
      <trkpt lat="44.37308" lon="4.64164">
        <ele>68</ele>
        <time>2018-05-16T07:07:13.1Z</time>
      </trkpt>
      <trkpt lat="44.37309" lon="4.64145">
        <ele>69</ele>
        <time>2018-05-16T07:07:16.1Z</time>
      </trkpt>
      <trkpt lat="44.37305" lon="4.64136">
        <ele>69</ele>
        <time>2018-05-16T07:07:18.1Z</time>
      </trkpt>
      <trkpt lat="44.37294" lon="4.64129">
        <ele>69</ele>
        <time>2018-05-16T07:07:21.1Z</time>
      </trkpt>
      <trkpt lat="44.37288" lon="4.64122">
        <ele>69</ele>
        <time>2018-05-16T07:07:23.1Z</time>
      </trkpt>
      <trkpt lat="44.37282" lon="4.64107">
        <ele>69</ele>
        <time>2018-05-16T07:07:26.1Z</time>
      </trkpt>
      <trkpt lat="44.37278" lon="4.64097">
        <ele>69</ele>
        <time>2018-05-16T07:07:28.1Z</time>
      </trkpt>
      <trkpt lat="44.37272" lon="4.64083">
        <ele>70</ele>
        <time>2018-05-16T07:07:31.1Z</time>
      </trkpt>
      <trkpt lat="44.37268" lon="4.64074">
        <ele>70</ele>
        <time>2018-05-16T07:07:33.1Z</time>
      </trkpt>
      <trkpt lat="44.37264" lon="4.64059">
        <ele>71</ele>
        <time>2018-05-16T07:07:36.1Z</time>
      </trkpt>
      <trkpt lat="44.37262" lon="4.6405">
        <ele>71</ele>
        <time>2018-05-16T07:07:38.1Z</time>
      </trkpt>
      <trkpt lat="44.37259" lon="4.64041">
        <ele>72</ele>
        <time>2018-05-16T07:07:40.1Z</time>
      </trkpt>
      <trkpt lat="44.37256" lon="4.64026">
        <ele>72</ele>
        <time>2018-05-16T07:07:43.1Z</time>
      </trkpt>
      <trkpt lat="44.37253" lon="4.64012">
        <ele>73</ele>
        <time>2018-05-16T07:07:46.1Z</time>
      </trkpt>
      <trkpt lat="44.37249" lon="4.63999">
        <ele>73</ele>
        <time>2018-05-16T07:07:49.1Z</time>
      </trkpt>
      <trkpt lat="44.37247" lon="4.6399">
        <ele>74</ele>
        <time>2018-05-16T07:07:51.1Z</time>
      </trkpt>
      <trkpt lat="44.37244" lon="4.63982">
        <ele>74</ele>
        <time>2018-05-16T07:07:53.1Z</time>
      </trkpt>
      <trkpt lat="44.37239" lon="4.63971">
        <ele>75</ele>
        <time>2018-05-16T07:07:56.1Z</time>
      </trkpt>
      <trkpt lat="44.37233" lon="4.63959">
        <ele>76</ele>
        <time>2018-05-16T07:07:59.1Z</time>
      </trkpt>
      <trkpt lat="44.37226" lon="4.63946">
        <ele>76</ele>
        <time>2018-05-16T07:08:02.1Z</time>
      </trkpt>
      <trkpt lat="44.37222" lon="4.63938">
        <ele>77</ele>
        <time>2018-05-16T07:08:04.1Z</time>
      </trkpt>
      <trkpt lat="44.37215" lon="4.63925">
        <ele>77</ele>
        <time>2018-05-16T07:08:07.1Z</time>
      </trkpt>
      <trkpt lat="44.37208" lon="4.63911">
        <ele>78</ele>
        <time>2018-05-16T07:08:10.1Z</time>
      </trkpt>
      <trkpt lat="44.37201" lon="4.639">
        <ele>78</ele>
        <time>2018-05-16T07:08:13.1Z</time>
      </trkpt>
      <trkpt lat="44.37192" lon="4.63891">
        <ele>79</ele>
        <time>2018-05-16T07:08:16.1Z</time>
      </trkpt>
      <trkpt lat="44.37182" lon="4.63882">
        <ele>79</ele>
        <time>2018-05-16T07:08:19.1Z</time>
      </trkpt>
      <trkpt lat="44.37171" lon="4.63877">
        <ele>80</ele>
        <time>2018-05-16T07:08:22.1Z</time>
      </trkpt>
      <trkpt lat="44.37164" lon="4.63874">
        <ele>80</ele>
        <time>2018-05-16T07:08:24.1Z</time>
      </trkpt>
      <trkpt lat="44.37157" lon="4.63871">
        <ele>81</ele>
        <time>2018-05-16T07:08:26.1Z</time>
      </trkpt>
      <trkpt lat="44.37146" lon="4.63867">
        <ele>81</ele>
        <time>2018-05-16T07:08:29.1Z</time>
      </trkpt>
      <trkpt lat="44.37139" lon="4.63864">
        <ele>82</ele>
        <time>2018-05-16T07:08:31.1Z</time>
      </trkpt>
      <trkpt lat="44.37128" lon="4.63861">
        <ele>82</ele>
        <time>2018-05-16T07:08:34.1Z</time>
      </trkpt>
      <trkpt lat="44.37122" lon="4.63858">
        <ele>82</ele>
        <time>2018-05-16T07:08:36.1Z</time>
      </trkpt>
      <trkpt lat="44.37112" lon="4.63855">
        <ele>83</ele>
        <time>2018-05-16T07:08:39.1Z</time>
      </trkpt>
      <trkpt lat="44.37106" lon="4.63852">
        <ele>83</ele>
        <time>2018-05-16T07:08:41.1Z</time>
      </trkpt>
      <trkpt lat="44.37099" lon="4.6385">
        <ele>84</ele>
        <time>2018-05-16T07:08:43.1Z</time>
      </trkpt>
      <trkpt lat="44.3709" lon="4.63849">
        <ele>84</ele>
        <time>2018-05-16T07:08:46.1Z</time>
      </trkpt>
      <trkpt lat="44.3708" lon="4.6385">
        <ele>85</ele>
        <time>2018-05-16T07:08:49.1Z</time>
      </trkpt>
      <trkpt lat="44.3707" lon="4.63851">
        <ele>86</ele>
        <time>2018-05-16T07:08:52.1Z</time>
      </trkpt>
      <trkpt lat="44.37063" lon="4.63851">
        <ele>86</ele>
        <time>2018-05-16T07:08:54.1Z</time>
      </trkpt>
      <trkpt lat="44.37056" lon="4.63851">
        <ele>87</ele>
        <time>2018-05-16T07:08:56.1Z</time>
      </trkpt>
      <trkpt lat="44.37045" lon="4.63849">
        <ele>87</ele>
        <time>2018-05-16T07:08:59.1Z</time>
      </trkpt>
      <trkpt lat="44.37039" lon="4.63845">
        <ele>87</ele>
        <time>2018-05-16T07:09:01.1Z</time>
      </trkpt>
      <trkpt lat="44.37031" lon="4.63839">
        <ele>87</ele>
        <time>2018-05-16T07:09:04.1Z</time>
      </trkpt>
      <trkpt lat="44.37025" lon="4.63834">
        <ele>88</ele>
        <time>2018-05-16T07:09:06.1Z</time>
      </trkpt>
      <trkpt lat="44.37016" lon="4.63826">
        <ele>89</ele>
        <time>2018-05-16T07:09:09.1Z</time>
      </trkpt>
      <trkpt lat="44.37011" lon="4.63821">
        <ele>89</ele>
        <time>2018-05-16T07:09:11.1Z</time>
      </trkpt>
      <trkpt lat="44.37005" lon="4.63815">
        <ele>90</ele>
        <time>2018-05-16T07:09:13.1Z</time>
      </trkpt>
      <trkpt lat="44.36998" lon="4.63806">
        <ele>90</ele>
        <time>2018-05-16T07:09:16.1Z</time>
      </trkpt>
      <trkpt lat="44.36993" lon="4.63799">
        <ele>91</ele>
        <time>2018-05-16T07:09:18.1Z</time>
      </trkpt>
      <trkpt lat="44.36988" lon="4.63786">
        <ele>91</ele>
        <time>2018-05-16T07:09:21.1Z</time>
      </trkpt>
      <trkpt lat="44.36986" lon="4.63778">
        <ele>92</ele>
        <time>2018-05-16T07:09:23.1Z</time>
      </trkpt>
      <trkpt lat="44.36982" lon="4.63764">
        <ele>92</ele>
        <time>2018-05-16T07:09:26.1Z</time>
      </trkpt>
      <trkpt lat="44.36979" lon="4.63756">
        <ele>92</ele>
        <time>2018-05-16T07:09:28.1Z</time>
      </trkpt>
      <trkpt lat="44.36975" lon="4.63747">
        <ele>93</ele>
        <time>2018-05-16T07:09:30.1Z</time>
      </trkpt>
      <trkpt lat="44.3697" lon="4.63735">
        <ele>93</ele>
        <time>2018-05-16T07:09:33.1Z</time>
      </trkpt>
      <trkpt lat="44.36963" lon="4.63724">
        <ele>94</ele>
        <time>2018-05-16T07:09:36.1Z</time>
      </trkpt>
      <trkpt lat="44.36957" lon="4.63718">
        <ele>94</ele>
        <time>2018-05-16T07:09:38.1Z</time>
      </trkpt>
      <trkpt lat="44.36952" lon="4.63712">
        <ele>95</ele>
        <time>2018-05-16T07:09:40.1Z</time>
      </trkpt>
      <trkpt lat="44.36944" lon="4.63702">
        <ele>95</ele>
        <time>2018-05-16T07:09:43.1Z</time>
      </trkpt>
      <trkpt lat="44.36939" lon="4.63696">
        <ele>96</ele>
        <time>2018-05-16T07:09:45.1Z</time>
      </trkpt>
      <trkpt lat="44.36931" lon="4.63687">
        <ele>97</ele>
        <time>2018-05-16T07:09:48.1Z</time>
      </trkpt>
      <trkpt lat="44.36923" lon="4.63678">
        <ele>97</ele>
        <time>2018-05-16T07:09:51.1Z</time>
      </trkpt>
      <trkpt lat="44.36919" lon="4.63671">
        <ele>98</ele>
        <time>2018-05-16T07:09:53.1Z</time>
      </trkpt>
      <trkpt lat="44.36913" lon="4.6366">
        <ele>98</ele>
        <time>2018-05-16T07:09:56.1Z</time>
      </trkpt>
      <trkpt lat="44.36909" lon="4.63653">
        <ele>99</ele>
        <time>2018-05-16T07:09:58.1Z</time>
      </trkpt>
      <trkpt lat="44.36906" lon="4.63645">
        <ele>99</ele>
        <time>2018-05-16T07:10:00.1Z</time>
      </trkpt>
      <trkpt lat="44.36904" lon="4.63632">
        <ele>99</ele>
        <time>2018-05-16T07:10:03.1Z</time>
      </trkpt>
      <trkpt lat="44.36901" lon="4.6362">
        <ele>100</ele>
        <time>2018-05-16T07:10:06.1Z</time>
      </trkpt>
      <trkpt lat="44.36899" lon="4.63611">
        <ele>100</ele>
        <time>2018-05-16T07:10:08.1Z</time>
      </trkpt>
      <trkpt lat="44.36897" lon="4.63602">
        <ele>101</ele>
        <time>2018-05-16T07:10:10.1Z</time>
      </trkpt>
      <trkpt lat="44.36895" lon="4.63593">
        <ele>101</ele>
        <time>2018-05-16T07:10:12.1Z</time>
      </trkpt>
      <trkpt lat="44.36888" lon="4.63582">
        <ele>102</ele>
        <time>2018-05-16T07:10:15.1Z</time>
      </trkpt>
      <trkpt lat="44.3688" lon="4.63572">
        <ele>102</ele>
        <time>2018-05-16T07:10:18.1Z</time>
      </trkpt>
      <trkpt lat="44.36874" lon="4.63565">
        <ele>102</ele>
        <time>2018-05-16T07:10:20.1Z</time>
      </trkpt>
      <trkpt lat="44.36866" lon="4.63555">
        <ele>103</ele>
        <time>2018-05-16T07:10:23.1Z</time>
      </trkpt>
      <trkpt lat="44.36861" lon="4.63549">
        <ele>103</ele>
        <time>2018-05-16T07:10:25.1Z</time>
      </trkpt>
      <trkpt lat="44.36856" lon="4.63543">
        <ele>103</ele>
        <time>2018-05-16T07:10:27.1Z</time>
      </trkpt>
      <trkpt lat="44.36847" lon="4.63534">
        <ele>104</ele>
        <time>2018-05-16T07:10:30.1Z</time>
      </trkpt>
      <trkpt lat="44.36839" lon="4.63524">
        <ele>104</ele>
        <time>2018-05-16T07:10:33.1Z</time>
      </trkpt>
      <trkpt lat="44.36831" lon="4.63514">
        <ele>105</ele>
        <time>2018-05-16T07:10:36.1Z</time>
      </trkpt>
      <trkpt lat="44.36824" lon="4.63504">
        <ele>106</ele>
        <time>2018-05-16T07:10:39.1Z</time>
      </trkpt>
      <trkpt lat="44.3682" lon="4.63496">
        <ele>106</ele>
        <time>2018-05-16T07:10:41.1Z</time>
      </trkpt>
      <trkpt lat="44.36815" lon="4.63484">
        <ele>106</ele>
        <time>2018-05-16T07:10:44.1Z</time>
      </trkpt>
      <trkpt lat="44.36812" lon="4.63475">
        <ele>107</ele>
        <time>2018-05-16T07:10:46.1Z</time>
      </trkpt>
      <trkpt lat="44.36808" lon="4.63461">
        <ele>107</ele>
        <time>2018-05-16T07:10:49.1Z</time>
      </trkpt>
      <trkpt lat="44.36806" lon="4.63446">
        <ele>108</ele>
        <time>2018-05-16T07:10:52.1Z</time>
      </trkpt>
      <trkpt lat="44.36803" lon="4.63431">
        <ele>109</ele>
        <time>2018-05-16T07:10:55.1Z</time>
      </trkpt>
      <trkpt lat="44.36801" lon="4.63416">
        <ele>110</ele>
        <time>2018-05-16T07:10:58.1Z</time>
      </trkpt>
      <trkpt lat="44.368" lon="4.63406">
        <ele>110</ele>
        <time>2018-05-16T07:11:00.1Z</time>
      </trkpt>
      <trkpt lat="44.36798" lon="4.63396">
        <ele>111</ele>
        <time>2018-05-16T07:11:02.1Z</time>
      </trkpt>
      <trkpt lat="44.36797" lon="4.63387">
        <ele>111</ele>
        <time>2018-05-16T07:11:04.1Z</time>
      </trkpt>
      <trkpt lat="44.36795" lon="4.63373">
        <ele>112</ele>
        <time>2018-05-16T07:11:07.1Z</time>
      </trkpt>
      <trkpt lat="44.36793" lon="4.63358">
        <ele>112</ele>
        <time>2018-05-16T07:11:10.1Z</time>
      </trkpt>
      <trkpt lat="44.36792" lon="4.63349">
        <ele>113</ele>
        <time>2018-05-16T07:11:12.1Z</time>
      </trkpt>
      <trkpt lat="44.3679" lon="4.63339">
        <ele>113</ele>
        <time>2018-05-16T07:11:14.1Z</time>
      </trkpt>
      <trkpt lat="44.36788" lon="4.63325">
        <ele>113</ele>
        <time>2018-05-16T07:11:17.1Z</time>
      </trkpt>
      <trkpt lat="44.36786" lon="4.63315">
        <ele>113</ele>
        <time>2018-05-16T07:11:19.1Z</time>
      </trkpt>
      <trkpt lat="44.36785" lon="4.63305">
        <ele>113</ele>
        <time>2018-05-16T07:11:21.1Z</time>
      </trkpt>
      <trkpt lat="44.36782" lon="4.63289">
        <ele>114</ele>
        <time>2018-05-16T07:11:24.1Z</time>
      </trkpt>
      <trkpt lat="44.36781" lon="4.63279">
        <ele>114</ele>
        <time>2018-05-16T07:11:26.1Z</time>
      </trkpt>
      <trkpt lat="44.36778" lon="4.63263">
        <ele>114</ele>
        <time>2018-05-16T07:11:29.1Z</time>
      </trkpt>
      <trkpt lat="44.36775" lon="4.63246">
        <ele>115</ele>
        <time>2018-05-16T07:11:32.1Z</time>
      </trkpt>
      <trkpt lat="44.36773" lon="4.63235">
        <ele>115</ele>
        <time>2018-05-16T07:11:34.1Z</time>
      </trkpt>
      <trkpt lat="44.36772" lon="4.63218">
        <ele>115</ele>
        <time>2018-05-16T07:11:37.1Z</time>
      </trkpt>
      <trkpt lat="44.3677" lon="4.63206">
        <ele>115</ele>
        <time>2018-05-16T07:11:39.1Z</time>
      </trkpt>
      <trkpt lat="44.36768" lon="4.63184">
        <ele>115</ele>
        <time>2018-05-16T07:11:42.1Z</time>
      </trkpt>
      <trkpt lat="44.36766" lon="4.63166">
        <ele>114</ele>
        <time>2018-05-16T07:11:44.1Z</time>
      </trkpt>
      <trkpt lat="44.36765" lon="4.63137">
        <ele>113</ele>
        <time>2018-05-16T07:11:47.1Z</time>
      </trkpt>
      <trkpt lat="44.36765" lon="4.63105">
        <ele>112</ele>
        <time>2018-05-16T07:11:50.1Z</time>
      </trkpt>
      <trkpt lat="44.36766" lon="4.63071">
        <ele>112</ele>
        <time>2018-05-16T07:11:53.1Z</time>
      </trkpt>
      <trkpt lat="44.36766" lon="4.63035">
        <ele>112</ele>
        <time>2018-05-16T07:11:56.1Z</time>
      </trkpt>
      <trkpt lat="44.36767" lon="4.62997">
        <ele>112</ele>
        <time>2018-05-16T07:11:59.1Z</time>
      </trkpt>
      <trkpt lat="44.36769" lon="4.62958">
        <ele>111</ele>
        <time>2018-05-16T07:12:02.1Z</time>
      </trkpt>
      <trkpt lat="44.36771" lon="4.6292">
        <ele>109</ele>
        <time>2018-05-16T07:12:05.1Z</time>
      </trkpt>
      <trkpt lat="44.36773" lon="4.62894">
        <ele>108</ele>
        <time>2018-05-16T07:12:07.1Z</time>
      </trkpt>
      <trkpt lat="44.36777" lon="4.62858">
        <ele>107</ele>
        <time>2018-05-16T07:12:10.1Z</time>
      </trkpt>
      <trkpt lat="44.36781" lon="4.62835">
        <ele>107</ele>
        <time>2018-05-16T07:12:12.1Z</time>
      </trkpt>
      <trkpt lat="44.36787" lon="4.628">
        <ele>108</ele>
        <time>2018-05-16T07:12:15.1Z</time>
      </trkpt>
      <trkpt lat="44.36791" lon="4.62779">
        <ele>107</ele>
        <time>2018-05-16T07:12:17.1Z</time>
      </trkpt>
      <trkpt lat="44.368" lon="4.62751">
        <ele>106</ele>
        <time>2018-05-16T07:12:20.1Z</time>
      </trkpt>
      <trkpt lat="44.36806" lon="4.62733">
        <ele>105</ele>
        <time>2018-05-16T07:12:22.1Z</time>
      </trkpt>
      <trkpt lat="44.36811" lon="4.62715">
        <ele>105</ele>
        <time>2018-05-16T07:12:24.1Z</time>
      </trkpt>
      <trkpt lat="44.36811" lon="4.62688">
        <ele>104</ele>
        <time>2018-05-16T07:12:27.1Z</time>
      </trkpt>
      <trkpt lat="44.3681" lon="4.62672">
        <ele>104</ele>
        <time>2018-05-16T07:12:29.1Z</time>
      </trkpt>
      <trkpt lat="44.36807" lon="4.62648">
        <ele>104</ele>
        <time>2018-05-16T07:12:32.1Z</time>
      </trkpt>
      <trkpt lat="44.36805" lon="4.62634">
        <ele>104</ele>
        <time>2018-05-16T07:12:34.1Z</time>
      </trkpt>
      <trkpt lat="44.36803" lon="4.6262">
        <ele>104</ele>
        <time>2018-05-16T07:12:36.1Z</time>
      </trkpt>
      <trkpt lat="44.368" lon="4.62607">
        <ele>104</ele>
        <time>2018-05-16T07:12:38.1Z</time>
      </trkpt>
      <trkpt lat="44.36797" lon="4.62589">
        <ele>104</ele>
        <time>2018-05-16T07:12:41.1Z</time>
      </trkpt>
      <trkpt lat="44.36795" lon="4.62578">
        <ele>105</ele>
        <time>2018-05-16T07:12:43.1Z</time>
      </trkpt>
      <trkpt lat="44.36793" lon="4.62563">
        <ele>105</ele>
        <time>2018-05-16T07:12:46.1Z</time>
      </trkpt>
      <trkpt lat="44.36793" lon="4.62554">
        <ele>106</ele>
        <time>2018-05-16T07:12:48.1Z</time>
      </trkpt>
      <trkpt lat="44.36794" lon="4.6254">
        <ele>106</ele>
        <time>2018-05-16T07:12:51.1Z</time>
      </trkpt>
      <trkpt lat="44.36795" lon="4.62531">
        <ele>107</ele>
        <time>2018-05-16T07:12:53.1Z</time>
      </trkpt>
      <trkpt lat="44.36798" lon="4.62518">
        <ele>108</ele>
        <time>2018-05-16T07:12:56.1Z</time>
      </trkpt>
      <trkpt lat="44.368" lon="4.62506">
        <ele>108</ele>
        <time>2018-05-16T07:12:59.1Z</time>
      </trkpt>
      <trkpt lat="44.36801" lon="4.62499">
        <ele>109</ele>
        <time>2018-05-16T07:13:01.1Z</time>
      </trkpt>
      <trkpt lat="44.36802" lon="4.62492">
        <ele>109</ele>
        <time>2018-05-16T07:13:03.1Z</time>
      </trkpt>
      <trkpt lat="44.36803" lon="4.62484">
        <ele>110</ele>
        <time>2018-05-16T07:13:05.1Z</time>
      </trkpt>
      <trkpt lat="44.36805" lon="4.62476">
        <ele>110</ele>
        <time>2018-05-16T07:13:07.1Z</time>
      </trkpt>
      <trkpt lat="44.36806" lon="4.62464">
        <ele>111</ele>
        <time>2018-05-16T07:13:10.1Z</time>
      </trkpt>
      <trkpt lat="44.36806" lon="4.62451">
        <ele>111</ele>
        <time>2018-05-16T07:13:13.1Z</time>
      </trkpt>
      <trkpt lat="44.36805" lon="4.62443">
        <ele>112</ele>
        <time>2018-05-16T07:13:15.1Z</time>
      </trkpt>
      <trkpt lat="44.36802" lon="4.62431">
        <ele>112</ele>
        <time>2018-05-16T07:13:18.1Z</time>
      </trkpt>
      <trkpt lat="44.36801" lon="4.62424">
        <ele>113</ele>
        <time>2018-05-16T07:13:20.1Z</time>
      </trkpt>
      <trkpt lat="44.36798" lon="4.62415">
        <ele>114</ele>
        <time>2018-05-16T07:13:23.1Z</time>
      </trkpt>
      <trkpt lat="44.36794" lon="4.62406">
        <ele>115</ele>
        <time>2018-05-16T07:13:26.1Z</time>
      </trkpt>
      <trkpt lat="44.36792" lon="4.62397">
        <ele>115</ele>
        <time>2018-05-16T07:13:29.1Z</time>
      </trkpt>
      <trkpt lat="44.36789" lon="4.62388">
        <ele>116</ele>
        <time>2018-05-16T07:13:32.1Z</time>
      </trkpt>
      <trkpt lat="44.36786" lon="4.62379">
        <ele>116</ele>
        <time>2018-05-16T07:13:35.1Z</time>
      </trkpt>
      <trkpt lat="44.36782" lon="4.62368">
        <ele>117</ele>
        <time>2018-05-16T07:13:38.1Z</time>
      </trkpt>
      <trkpt lat="44.36779" lon="4.62357">
        <ele>118</ele>
        <time>2018-05-16T07:13:41.1Z</time>
      </trkpt>
      <trkpt lat="44.36775" lon="4.62346">
        <ele>119</ele>
        <time>2018-05-16T07:13:44.1Z</time>
      </trkpt>
      <trkpt lat="44.36773" lon="4.62338">
        <ele>119</ele>
        <time>2018-05-16T07:13:46.1Z</time>
      </trkpt>
      <trkpt lat="44.36771" lon="4.62329">
        <ele>119</ele>
        <time>2018-05-16T07:13:48.1Z</time>
      </trkpt>
      <trkpt lat="44.36769" lon="4.62321">
        <ele>119</ele>
        <time>2018-05-16T07:13:50.1Z</time>
      </trkpt>
      <trkpt lat="44.36768" lon="4.62308">
        <ele>120</ele>
        <time>2018-05-16T07:13:53.1Z</time>
      </trkpt>
      <trkpt lat="44.36767" lon="4.623">
        <ele>120</ele>
        <time>2018-05-16T07:13:55.1Z</time>
      </trkpt>
      <trkpt lat="44.36767" lon="4.62291">
        <ele>121</ele>
        <time>2018-05-16T07:13:57.1Z</time>
      </trkpt>
      <trkpt lat="44.36767" lon="4.62278">
        <ele>121</ele>
        <time>2018-05-16T07:14:00.1Z</time>
      </trkpt>
      <trkpt lat="44.36766" lon="4.62269">
        <ele>122</ele>
        <time>2018-05-16T07:14:02.1Z</time>
      </trkpt>
      <trkpt lat="44.36766" lon="4.62255">
        <ele>122</ele>
        <time>2018-05-16T07:14:05.1Z</time>
      </trkpt>
      <trkpt lat="44.36765" lon="4.62247">
        <ele>122</ele>
        <time>2018-05-16T07:14:07.1Z</time>
      </trkpt>
      <trkpt lat="44.36764" lon="4.62238">
        <ele>123</ele>
        <time>2018-05-16T07:14:09.1Z</time>
      </trkpt>
      <trkpt lat="44.36761" lon="4.62226">
        <ele>124</ele>
        <time>2018-05-16T07:14:12.1Z</time>
      </trkpt>
      <trkpt lat="44.36759" lon="4.62217">
        <ele>124</ele>
        <time>2018-05-16T07:14:14.1Z</time>
      </trkpt>
      <trkpt lat="44.36757" lon="4.62208">
        <ele>124</ele>
        <time>2018-05-16T07:14:16.1Z</time>
      </trkpt>
      <trkpt lat="44.36754" lon="4.62195">
        <ele>125</ele>
        <time>2018-05-16T07:14:19.1Z</time>
      </trkpt>
      <trkpt lat="44.36751" lon="4.62186">
        <ele>125</ele>
        <time>2018-05-16T07:14:21.1Z</time>
      </trkpt>
      <trkpt lat="44.36747" lon="4.62172">
        <ele>125</ele>
        <time>2018-05-16T07:14:24.1Z</time>
      </trkpt>
      <trkpt lat="44.36743" lon="4.62164">
        <ele>126</ele>
        <time>2018-05-16T07:14:26.1Z</time>
      </trkpt>
      <trkpt lat="44.36739" lon="4.62155">
        <ele>126</ele>
        <time>2018-05-16T07:14:28.1Z</time>
      </trkpt>
      <trkpt lat="44.36732" lon="4.62144">
        <ele>126</ele>
        <time>2018-05-16T07:14:31.1Z</time>
      </trkpt>
      <trkpt lat="44.36725" lon="4.62135">
        <ele>126</ele>
        <time>2018-05-16T07:14:34.1Z</time>
      </trkpt>
      <trkpt lat="44.3672" lon="4.62129">
        <ele>126</ele>
        <time>2018-05-16T07:14:36.1Z</time>
      </trkpt>
      <trkpt lat="44.36714" lon="4.62124">
        <ele>126</ele>
        <time>2018-05-16T07:14:38.1Z</time>
      </trkpt>
      <trkpt lat="44.36709" lon="4.62117">
        <ele>126</ele>
        <time>2018-05-16T07:14:40.1Z</time>
      </trkpt>
      <trkpt lat="44.36703" lon="4.6211">
        <ele>126</ele>
        <time>2018-05-16T07:14:42.1Z</time>
      </trkpt>
      <trkpt lat="44.36699" lon="4.62104">
        <ele>126</ele>
        <time>2018-05-16T07:14:44.1Z</time>
      </trkpt>
      <trkpt lat="44.3669" lon="4.62092">
        <ele>127</ele>
        <time>2018-05-16T07:14:47.1Z</time>
      </trkpt>
      <trkpt lat="44.36685" lon="4.62084">
        <ele>127</ele>
        <time>2018-05-16T07:14:49.1Z</time>
      </trkpt>
      <trkpt lat="44.36676" lon="4.62072">
        <ele>127</ele>
        <time>2018-05-16T07:14:52.1Z</time>
      </trkpt>
      <trkpt lat="44.36668" lon="4.62059">
        <ele>128</ele>
        <time>2018-05-16T07:14:55.1Z</time>
      </trkpt>
      <trkpt lat="44.36662" lon="4.62051">
        <ele>129</ele>
        <time>2018-05-16T07:14:57.1Z</time>
      </trkpt>
      <trkpt lat="44.36654" lon="4.62038">
        <ele>130</ele>
        <time>2018-05-16T07:15:00.1Z</time>
      </trkpt>
      <trkpt lat="44.36648" lon="4.6203">
        <ele>130</ele>
        <time>2018-05-16T07:15:02.1Z</time>
      </trkpt>
      <trkpt lat="44.36642" lon="4.62022">
        <ele>130</ele>
        <time>2018-05-16T07:15:04.1Z</time>
      </trkpt>
      <trkpt lat="44.36636" lon="4.62014">
        <ele>131</ele>
        <time>2018-05-16T07:15:06.1Z</time>
      </trkpt>
      <trkpt lat="44.36626" lon="4.62002">
        <ele>132</ele>
        <time>2018-05-16T07:15:09.1Z</time>
      </trkpt>
      <trkpt lat="44.3662" lon="4.61994">
        <ele>132</ele>
        <time>2018-05-16T07:15:11.1Z</time>
      </trkpt>
      <trkpt lat="44.36613" lon="4.61985">
        <ele>132</ele>
        <time>2018-05-16T07:15:13.1Z</time>
      </trkpt>
      <trkpt lat="44.36602" lon="4.61973">
        <ele>132</ele>
        <time>2018-05-16T07:15:16.1Z</time>
      </trkpt>
      <trkpt lat="44.36591" lon="4.61961">
        <ele>133</ele>
        <time>2018-05-16T07:15:19.1Z</time>
      </trkpt>
      <trkpt lat="44.36584" lon="4.61953">
        <ele>133</ele>
        <time>2018-05-16T07:15:21.1Z</time>
      </trkpt>
      <trkpt lat="44.36573" lon="4.61943">
        <ele>133</ele>
        <time>2018-05-16T07:15:24.1Z</time>
      </trkpt>
      <trkpt lat="44.36567" lon="4.61937">
        <ele>133</ele>
        <time>2018-05-16T07:15:26.1Z</time>
      </trkpt>
      <trkpt lat="44.36561" lon="4.61931">
        <ele>134</ele>
        <time>2018-05-16T07:15:28.1Z</time>
      </trkpt>
      <trkpt lat="44.36554" lon="4.61919">
        <ele>135</ele>
        <time>2018-05-16T07:15:31.1Z</time>
      </trkpt>
      <trkpt lat="44.36552" lon="4.61905">
        <ele>136</ele>
        <time>2018-05-16T07:15:34.1Z</time>
      </trkpt>
      <trkpt lat="44.36553" lon="4.61896">
        <ele>136</ele>
        <time>2018-05-16T07:15:36.1Z</time>
      </trkpt>
      <trkpt lat="44.36557" lon="4.61884">
        <ele>137</ele>
        <time>2018-05-16T07:15:39.1Z</time>
      </trkpt>
      <trkpt lat="44.36563" lon="4.61873">
        <ele>138</ele>
        <time>2018-05-16T07:15:42.1Z</time>
      </trkpt>
      <trkpt lat="44.36569" lon="4.61863">
        <ele>138</ele>
        <time>2018-05-16T07:15:45.1Z</time>
      </trkpt>
      <trkpt lat="44.36575" lon="4.61852">
        <ele>139</ele>
        <time>2018-05-16T07:15:48.1Z</time>
      </trkpt>
      <trkpt lat="44.36578" lon="4.61839">
        <ele>139</ele>
        <time>2018-05-16T07:15:51.1Z</time>
      </trkpt>
      <trkpt lat="44.36579" lon="4.61825">
        <ele>141</ele>
        <time>2018-05-16T07:15:54.1Z</time>
      </trkpt>
      <trkpt lat="44.36576" lon="4.61815">
        <ele>141</ele>
        <time>2018-05-16T07:15:56.1Z</time>
      </trkpt>
      <trkpt lat="44.36573" lon="4.61806">
        <ele>142</ele>
        <time>2018-05-16T07:15:58.1Z</time>
      </trkpt>
      <trkpt lat="44.36566" lon="4.61794">
        <ele>143</ele>
        <time>2018-05-16T07:16:01.1Z</time>
      </trkpt>
      <trkpt lat="44.36562" lon="4.61787">
        <ele>143</ele>
        <time>2018-05-16T07:16:03.1Z</time>
      </trkpt>
      <trkpt lat="44.36555" lon="4.61775">
        <ele>144</ele>
        <time>2018-05-16T07:16:06.1Z</time>
      </trkpt>
      <trkpt lat="44.36551" lon="4.61766">
        <ele>144</ele>
        <time>2018-05-16T07:16:08.1Z</time>
      </trkpt>
      <trkpt lat="44.36545" lon="4.61753">
        <ele>144</ele>
        <time>2018-05-16T07:16:11.1Z</time>
      </trkpt>
      <trkpt lat="44.36541" lon="4.61744">
        <ele>145</ele>
        <time>2018-05-16T07:16:13.1Z</time>
      </trkpt>
      <trkpt lat="44.36535" lon="4.61731">
        <ele>145</ele>
        <time>2018-05-16T07:16:16.1Z</time>
      </trkpt>
      <trkpt lat="44.36531" lon="4.61721">
        <ele>145</ele>
        <time>2018-05-16T07:16:18.1Z</time>
      </trkpt>
      <trkpt lat="44.36527" lon="4.61712">
        <ele>145</ele>
        <time>2018-05-16T07:16:20.1Z</time>
      </trkpt>
      <trkpt lat="44.36521" lon="4.61697">
        <ele>146</ele>
        <time>2018-05-16T07:16:23.1Z</time>
      </trkpt>
      <trkpt lat="44.36517" lon="4.61688">
        <ele>146</ele>
        <time>2018-05-16T07:16:25.1Z</time>
      </trkpt>
      <trkpt lat="44.36513" lon="4.61674">
        <ele>146</ele>
        <time>2018-05-16T07:16:28.1Z</time>
      </trkpt>
      <trkpt lat="44.36511" lon="4.61659">
        <ele>146</ele>
        <time>2018-05-16T07:16:31.1Z</time>
      </trkpt>
      <trkpt lat="44.3651" lon="4.6165">
        <ele>147</ele>
        <time>2018-05-16T07:16:33.1Z</time>
      </trkpt>
      <trkpt lat="44.36509" lon="4.61641">
        <ele>148</ele>
        <time>2018-05-16T07:16:35.1Z</time>
      </trkpt>
      <trkpt lat="44.36509" lon="4.61626">
        <ele>149</ele>
        <time>2018-05-16T07:16:38.1Z</time>
      </trkpt>
      <trkpt lat="44.36508" lon="4.61617">
        <ele>149</ele>
        <time>2018-05-16T07:16:40.1Z</time>
      </trkpt>
      <trkpt lat="44.36507" lon="4.61603">
        <ele>149</ele>
        <time>2018-05-16T07:16:43.1Z</time>
      </trkpt>
      <trkpt lat="44.36507" lon="4.61593">
        <ele>149</ele>
        <time>2018-05-16T07:16:45.1Z</time>
      </trkpt>
      <trkpt lat="44.36506" lon="4.61579">
        <ele>150</ele>
        <time>2018-05-16T07:16:48.1Z</time>
      </trkpt>
      <trkpt lat="44.36505" lon="4.6157">
        <ele>151</ele>
        <time>2018-05-16T07:16:50.1Z</time>
      </trkpt>
      <trkpt lat="44.36505" lon="4.6156">
        <ele>151</ele>
        <time>2018-05-16T07:16:52.1Z</time>
      </trkpt>
      <trkpt lat="44.36505" lon="4.61551">
        <ele>151</ele>
        <time>2018-05-16T07:16:54.1Z</time>
      </trkpt>
      <trkpt lat="44.36504" lon="4.61542">
        <ele>152</ele>
        <time>2018-05-16T07:16:56.1Z</time>
      </trkpt>
      <trkpt lat="44.36503" lon="4.61532">
        <ele>153</ele>
        <time>2018-05-16T07:16:58.1Z</time>
      </trkpt>
      <trkpt lat="44.36501" lon="4.61518">
        <ele>153</ele>
        <time>2018-05-16T07:17:01.1Z</time>
      </trkpt>
      <trkpt lat="44.36499" lon="4.61509">
        <ele>153</ele>
        <time>2018-05-16T07:17:03.1Z</time>
      </trkpt>
      <trkpt lat="44.36495" lon="4.61495">
        <ele>154</ele>
        <time>2018-05-16T07:17:06.1Z</time>
      </trkpt>
      <trkpt lat="44.36489" lon="4.61483">
        <ele>155</ele>
        <time>2018-05-16T07:17:09.1Z</time>
      </trkpt>
      <trkpt lat="44.36484" lon="4.61475">
        <ele>155</ele>
        <time>2018-05-16T07:17:11.1Z</time>
      </trkpt>
      <trkpt lat="44.36477" lon="4.61465">
        <ele>156</ele>
        <time>2018-05-16T07:17:14.1Z</time>
      </trkpt>
      <trkpt lat="44.36472" lon="4.61458">
        <ele>157</ele>
        <time>2018-05-16T07:17:16.1Z</time>
      </trkpt>
      <trkpt lat="44.36467" lon="4.61451">
        <ele>157</ele>
        <time>2018-05-16T07:17:18.1Z</time>
      </trkpt>
      <trkpt lat="44.36462" lon="4.61444">
        <ele>157</ele>
        <time>2018-05-16T07:17:20.1Z</time>
      </trkpt>
      <trkpt lat="44.36456" lon="4.61433">
        <ele>158</ele>
        <time>2018-05-16T07:17:23.1Z</time>
      </trkpt>
      <trkpt lat="44.36451" lon="4.61425">
        <ele>159</ele>
        <time>2018-05-16T07:17:25.1Z</time>
      </trkpt>
      <trkpt lat="44.36444" lon="4.61414">
        <ele>159</ele>
        <time>2018-05-16T07:17:28.1Z</time>
      </trkpt>
      <trkpt lat="44.3644" lon="4.61406">
        <ele>159</ele>
        <time>2018-05-16T07:17:30.1Z</time>
      </trkpt>
      <trkpt lat="44.36434" lon="4.61394">
        <ele>160</ele>
        <time>2018-05-16T07:17:33.1Z</time>
      </trkpt>
      <trkpt lat="44.36428" lon="4.61382">
        <ele>161</ele>
        <time>2018-05-16T07:17:36.1Z</time>
      </trkpt>
      <trkpt lat="44.36425" lon="4.61374">
        <ele>161</ele>
        <time>2018-05-16T07:17:38.1Z</time>
      </trkpt>
      <trkpt lat="44.36421" lon="4.61361">
        <ele>161</ele>
        <time>2018-05-16T07:17:41.1Z</time>
      </trkpt>
      <trkpt lat="44.36419" lon="4.61345">
        <ele>161</ele>
        <time>2018-05-16T07:17:44.1Z</time>
      </trkpt>
      <trkpt lat="44.3642" lon="4.61336">
        <ele>161</ele>
        <time>2018-05-16T07:17:46.1Z</time>
      </trkpt>
      <trkpt lat="44.36422" lon="4.61327">
        <ele>161</ele>
        <time>2018-05-16T07:17:48.1Z</time>
      </trkpt>
      <trkpt lat="44.36424" lon="4.61318">
        <ele>162</ele>
        <time>2018-05-16T07:17:50.1Z</time>
      </trkpt>
      <trkpt lat="44.36427" lon="4.61305">
        <ele>163</ele>
        <time>2018-05-16T07:17:53.1Z</time>
      </trkpt>
      <trkpt lat="44.3643" lon="4.61295">
        <ele>163</ele>
        <time>2018-05-16T07:17:55.1Z</time>
      </trkpt>
      <trkpt lat="44.36432" lon="4.61286">
        <ele>164</ele>
        <time>2018-05-16T07:17:57.1Z</time>
      </trkpt>
      <trkpt lat="44.36433" lon="4.61277">
        <ele>164</ele>
        <time>2018-05-16T07:17:59.1Z</time>
      </trkpt>
      <trkpt lat="44.36435" lon="4.61263">
        <ele>164</ele>
        <time>2018-05-16T07:18:02.1Z</time>
      </trkpt>
      <trkpt lat="44.36434" lon="4.61249">
        <ele>165</ele>
        <time>2018-05-16T07:18:05.1Z</time>
      </trkpt>
      <trkpt lat="44.36433" lon="4.6124">
        <ele>166</ele>
        <time>2018-05-16T07:18:07.1Z</time>
      </trkpt>
      <trkpt lat="44.36431" lon="4.61232">
        <ele>166</ele>
        <time>2018-05-16T07:18:09.1Z</time>
      </trkpt>
      <trkpt lat="44.36429" lon="4.61219">
        <ele>167</ele>
        <time>2018-05-16T07:18:12.1Z</time>
      </trkpt>
      <trkpt lat="44.36427" lon="4.61211">
        <ele>167</ele>
        <time>2018-05-16T07:18:14.1Z</time>
      </trkpt>
      <trkpt lat="44.36424" lon="4.61202">
        <ele>167</ele>
        <time>2018-05-16T07:18:16.1Z</time>
      </trkpt>
      <trkpt lat="44.36421" lon="4.61189">
        <ele>168</ele>
        <time>2018-05-16T07:18:19.1Z</time>
      </trkpt>
      <trkpt lat="44.36418" lon="4.61176">
        <ele>169</ele>
        <time>2018-05-16T07:18:22.1Z</time>
      </trkpt>
      <trkpt lat="44.36416" lon="4.61167">
        <ele>169</ele>
        <time>2018-05-16T07:18:24.1Z</time>
      </trkpt>
      <trkpt lat="44.36413" lon="4.61158">
        <ele>170</ele>
        <time>2018-05-16T07:18:26.1Z</time>
      </trkpt>
      <trkpt lat="44.36411" lon="4.61148">
        <ele>170</ele>
        <time>2018-05-16T07:18:28.1Z</time>
      </trkpt>
      <trkpt lat="44.36408" lon="4.61138">
        <ele>170</ele>
        <time>2018-05-16T07:18:30.1Z</time>
      </trkpt>
      <trkpt lat="44.36406" lon="4.61129">
        <ele>171</ele>
        <time>2018-05-16T07:18:32.1Z</time>
      </trkpt>
      <trkpt lat="44.36404" lon="4.6112">
        <ele>171</ele>
        <time>2018-05-16T07:18:34.1Z</time>
      </trkpt>
      <trkpt lat="44.364" lon="4.61106">
        <ele>172</ele>
        <time>2018-05-16T07:18:37.1Z</time>
      </trkpt>
      <trkpt lat="44.36396" lon="4.61093">
        <ele>173</ele>
        <time>2018-05-16T07:18:40.1Z</time>
      </trkpt>
      <trkpt lat="44.36393" lon="4.61084">
        <ele>173</ele>
        <time>2018-05-16T07:18:42.1Z</time>
      </trkpt>
      <trkpt lat="44.36391" lon="4.61074">
        <ele>174</ele>
        <time>2018-05-16T07:18:44.1Z</time>
      </trkpt>
      <trkpt lat="44.36387" lon="4.61064">
        <ele>174</ele>
        <time>2018-05-16T07:18:46.1Z</time>
      </trkpt>
      <trkpt lat="44.36383" lon="4.61055">
        <ele>174</ele>
        <time>2018-05-16T07:18:48.1Z</time>
      </trkpt>
      <trkpt lat="44.36377" lon="4.61046">
        <ele>175</ele>
        <time>2018-05-16T07:18:50.1Z</time>
      </trkpt>
      <trkpt lat="44.36372" lon="4.61038">
        <ele>174</ele>
        <time>2018-05-16T07:18:52.1Z</time>
      </trkpt>
      <trkpt lat="44.36365" lon="4.61029">
        <ele>175</ele>
        <time>2018-05-16T07:18:55.1Z</time>
      </trkpt>
      <trkpt lat="44.36359" lon="4.61023">
        <ele>175</ele>
        <time>2018-05-16T07:18:57.1Z</time>
      </trkpt>
      <trkpt lat="44.36354" lon="4.61018">
        <ele>176</ele>
        <time>2018-05-16T07:18:59.1Z</time>
      </trkpt>
      <trkpt lat="44.36349" lon="4.61013">
        <ele>176</ele>
        <time>2018-05-16T07:19:01.1Z</time>
      </trkpt>
      <trkpt lat="44.36343" lon="4.61008">
        <ele>177</ele>
        <time>2018-05-16T07:19:03.1Z</time>
      </trkpt>
      <trkpt lat="44.36338" lon="4.61003">
        <ele>178</ele>
        <time>2018-05-16T07:19:05.1Z</time>
      </trkpt>
      <trkpt lat="44.36333" lon="4.60998">
        <ele>178</ele>
        <time>2018-05-16T07:19:07.1Z</time>
      </trkpt>
      <trkpt lat="44.36327" lon="4.60992">
        <ele>179</ele>
        <time>2018-05-16T07:19:09.1Z</time>
      </trkpt>
      <trkpt lat="44.36319" lon="4.60985">
        <ele>179</ele>
        <time>2018-05-16T07:19:12.1Z</time>
      </trkpt>
      <trkpt lat="44.36311" lon="4.60977">
        <ele>179</ele>
        <time>2018-05-16T07:19:15.1Z</time>
      </trkpt>
      <trkpt lat="44.36305" lon="4.60972">
        <ele>180</ele>
        <time>2018-05-16T07:19:17.1Z</time>
      </trkpt>
      <trkpt lat="44.363" lon="4.60966">
        <ele>180</ele>
        <time>2018-05-16T07:19:19.1Z</time>
      </trkpt>
      <trkpt lat="44.36294" lon="4.60961">
        <ele>180</ele>
        <time>2018-05-16T07:19:21.1Z</time>
      </trkpt>
      <trkpt lat="44.36288" lon="4.60956">
        <ele>181</ele>
        <time>2018-05-16T07:19:23.1Z</time>
      </trkpt>
      <trkpt lat="44.36282" lon="4.6095">
        <ele>181</ele>
        <time>2018-05-16T07:19:25.1Z</time>
      </trkpt>
      <trkpt lat="44.36274" lon="4.60941">
        <ele>182</ele>
        <time>2018-05-16T07:19:28.1Z</time>
      </trkpt>
      <trkpt lat="44.36269" lon="4.60934">
        <ele>183</ele>
        <time>2018-05-16T07:19:30.1Z</time>
      </trkpt>
      <trkpt lat="44.36263" lon="4.60923">
        <ele>183</ele>
        <time>2018-05-16T07:19:33.1Z</time>
      </trkpt>
      <trkpt lat="44.36258" lon="4.60916">
        <ele>184</ele>
        <time>2018-05-16T07:19:35.1Z</time>
      </trkpt>
      <trkpt lat="44.36251" lon="4.60905">
        <ele>185</ele>
        <time>2018-05-16T07:19:38.1Z</time>
      </trkpt>
      <trkpt lat="44.36246" lon="4.60897">
        <ele>185</ele>
        <time>2018-05-16T07:19:40.1Z</time>
      </trkpt>
      <trkpt lat="44.36239" lon="4.60885">
        <ele>186</ele>
        <time>2018-05-16T07:19:43.1Z</time>
      </trkpt>
      <trkpt lat="44.36232" lon="4.60874">
        <ele>186</ele>
        <time>2018-05-16T07:19:46.1Z</time>
      </trkpt>
      <trkpt lat="44.36227" lon="4.60866">
        <ele>186</ele>
        <time>2018-05-16T07:19:48.1Z</time>
      </trkpt>
      <trkpt lat="44.36222" lon="4.60858">
        <ele>186</ele>
        <time>2018-05-16T07:19:50.1Z</time>
      </trkpt>
      <trkpt lat="44.36214" lon="4.60846">
        <ele>187</ele>
        <time>2018-05-16T07:19:53.1Z</time>
      </trkpt>
      <trkpt lat="44.36209" lon="4.60836">
        <ele>187</ele>
        <time>2018-05-16T07:19:55.1Z</time>
      </trkpt>
      <trkpt lat="44.362" lon="4.60821">
        <ele>187</ele>
        <time>2018-05-16T07:19:58.1Z</time>
      </trkpt>
      <trkpt lat="44.36194" lon="4.60811">
        <ele>187</ele>
        <time>2018-05-16T07:20:00.1Z</time>
      </trkpt>
      <trkpt lat="44.36188" lon="4.60799">
        <ele>187</ele>
        <time>2018-05-16T07:20:02.1Z</time>
      </trkpt>
      <trkpt lat="44.36183" lon="4.60787">
        <ele>186</ele>
        <time>2018-05-16T07:20:04.1Z</time>
      </trkpt>
      <trkpt lat="44.36177" lon="4.60774">
        <ele>186</ele>
        <time>2018-05-16T07:20:06.1Z</time>
      </trkpt>
      <trkpt lat="44.36169" lon="4.60753">
        <ele>186</ele>
        <time>2018-05-16T07:20:09.1Z</time>
      </trkpt>
      <trkpt lat="44.36164" lon="4.6074">
        <ele>186</ele>
        <time>2018-05-16T07:20:11.1Z</time>
      </trkpt>
      <trkpt lat="44.36154" lon="4.6072">
        <ele>186</ele>
        <time>2018-05-16T07:20:14.1Z</time>
      </trkpt>
      <trkpt lat="44.36142" lon="4.60701">
        <ele>186</ele>
        <time>2018-05-16T07:20:17.1Z</time>
      </trkpt>
      <trkpt lat="44.36129" lon="4.60684">
        <ele>186</ele>
        <time>2018-05-16T07:20:20.1Z</time>
      </trkpt>
      <trkpt lat="44.3612" lon="4.60673">
        <ele>185</ele>
        <time>2018-05-16T07:20:22.1Z</time>
      </trkpt>
      <trkpt lat="44.36111" lon="4.60663">
        <ele>185</ele>
        <time>2018-05-16T07:20:24.1Z</time>
      </trkpt>
      <trkpt lat="44.36098" lon="4.60648">
        <ele>185</ele>
        <time>2018-05-16T07:20:27.1Z</time>
      </trkpt>
      <trkpt lat="44.36089" lon="4.60638">
        <ele>185</ele>
        <time>2018-05-16T07:20:29.1Z</time>
      </trkpt>
      <trkpt lat="44.36077" lon="4.60624">
        <ele>185</ele>
        <time>2018-05-16T07:20:32.1Z</time>
      </trkpt>
      <trkpt lat="44.36069" lon="4.60616">
        <ele>186</ele>
        <time>2018-05-16T07:20:34.1Z</time>
      </trkpt>
      <trkpt lat="44.36059" lon="4.60603">
        <ele>185</ele>
        <time>2018-05-16T07:20:37.1Z</time>
      </trkpt>
      <trkpt lat="44.36051" lon="4.60595">
        <ele>185</ele>
        <time>2018-05-16T07:20:39.1Z</time>
      </trkpt>
      <trkpt lat="44.36044" lon="4.60587">
        <ele>185</ele>
        <time>2018-05-16T07:20:41.1Z</time>
      </trkpt>
      <trkpt lat="44.36033" lon="4.60575">
        <ele>185</ele>
        <time>2018-05-16T07:20:44.1Z</time>
      </trkpt>
      <trkpt lat="44.36026" lon="4.60566">
        <ele>185</ele>
        <time>2018-05-16T07:20:46.1Z</time>
      </trkpt>
      <trkpt lat="44.36014" lon="4.60553">
        <ele>186</ele>
        <time>2018-05-16T07:20:49.1Z</time>
      </trkpt>
      <trkpt lat="44.36002" lon="4.6054">
        <ele>186</ele>
        <time>2018-05-16T07:20:52.1Z</time>
      </trkpt>
      <trkpt lat="44.35991" lon="4.60527">
        <ele>185</ele>
        <time>2018-05-16T07:20:55.1Z</time>
      </trkpt>
      <trkpt lat="44.35979" lon="4.60514">
        <ele>185</ele>
        <time>2018-05-16T07:20:58.1Z</time>
      </trkpt>
      <trkpt lat="44.35971" lon="4.60504">
        <ele>185</ele>
        <time>2018-05-16T07:21:00.1Z</time>
      </trkpt>
      <trkpt lat="44.3596" lon="4.60487">
        <ele>185</ele>
        <time>2018-05-16T07:21:03.1Z</time>
      </trkpt>
      <trkpt lat="44.35952" lon="4.60473">
        <ele>185</ele>
        <time>2018-05-16T07:21:05.1Z</time>
      </trkpt>
      <trkpt lat="44.35944" lon="4.60453">
        <ele>185</ele>
        <time>2018-05-16T07:21:08.1Z</time>
      </trkpt>
      <trkpt lat="44.3594" lon="4.60442">
        <ele>185</ele>
        <time>2018-05-16T07:21:10.1Z</time>
      </trkpt>
      <trkpt lat="44.35937" lon="4.60429">
        <ele>185</ele>
        <time>2018-05-16T07:21:12.1Z</time>
      </trkpt>
      <trkpt lat="44.35934" lon="4.60416">
        <ele>185</ele>
        <time>2018-05-16T07:21:14.1Z</time>
      </trkpt>
      <trkpt lat="44.35931" lon="4.60396">
        <ele>186</ele>
        <time>2018-05-16T07:21:17.1Z</time>
      </trkpt>
      <trkpt lat="44.35929" lon="4.60382">
        <ele>186</ele>
        <time>2018-05-16T07:21:19.1Z</time>
      </trkpt>
      <trkpt lat="44.35927" lon="4.60368">
        <ele>186</ele>
        <time>2018-05-16T07:21:21.1Z</time>
      </trkpt>
      <trkpt lat="44.35925" lon="4.60347">
        <ele>186</ele>
        <time>2018-05-16T07:21:24.1Z</time>
      </trkpt>
      <trkpt lat="44.35923" lon="4.60332">
        <ele>187</ele>
        <time>2018-05-16T07:21:26.1Z</time>
      </trkpt>
      <trkpt lat="44.35923" lon="4.6031">
        <ele>187</ele>
        <time>2018-05-16T07:21:29.1Z</time>
      </trkpt>
      <trkpt lat="44.35925" lon="4.60294">
        <ele>187</ele>
        <time>2018-05-16T07:21:31.1Z</time>
      </trkpt>
      <trkpt lat="44.35926" lon="4.60278">
        <ele>187</ele>
        <time>2018-05-16T07:21:33.1Z</time>
      </trkpt>
      <trkpt lat="44.35928" lon="4.60262">
        <ele>187</ele>
        <time>2018-05-16T07:21:35.1Z</time>
      </trkpt>
      <trkpt lat="44.35931" lon="4.60248">
        <ele>187</ele>
        <time>2018-05-16T07:21:37.1Z</time>
      </trkpt>
      <trkpt lat="44.35934" lon="4.60234">
        <ele>187</ele>
        <time>2018-05-16T07:21:39.1Z</time>
      </trkpt>
      <trkpt lat="44.35938" lon="4.60221">
        <ele>187</ele>
        <time>2018-05-16T07:21:41.1Z</time>
      </trkpt>
      <trkpt lat="44.3594" lon="4.60208">
        <ele>188</ele>
        <time>2018-05-16T07:21:43.1Z</time>
      </trkpt>
      <trkpt lat="44.35942" lon="4.60194">
        <ele>189</ele>
        <time>2018-05-16T07:21:45.1Z</time>
      </trkpt>
      <trkpt lat="44.35946" lon="4.60176">
        <ele>189</ele>
        <time>2018-05-16T07:21:48.1Z</time>
      </trkpt>
      <trkpt lat="44.35949" lon="4.60157">
        <ele>189</ele>
        <time>2018-05-16T07:21:51.1Z</time>
      </trkpt>
      <trkpt lat="44.35952" lon="4.60138">
        <ele>190</ele>
        <time>2018-05-16T07:21:54.1Z</time>
      </trkpt>
      <trkpt lat="44.35954" lon="4.60125">
        <ele>190</ele>
        <time>2018-05-16T07:21:56.1Z</time>
      </trkpt>
      <trkpt lat="44.35956" lon="4.60114">
        <ele>191</ele>
        <time>2018-05-16T07:21:58.1Z</time>
      </trkpt>
      <trkpt lat="44.35958" lon="4.60103">
        <ele>191</ele>
        <time>2018-05-16T07:22:00.1Z</time>
      </trkpt>
      <trkpt lat="44.3596" lon="4.60092">
        <ele>191</ele>
        <time>2018-05-16T07:22:02.1Z</time>
      </trkpt>
      <trkpt lat="44.35963" lon="4.60077">
        <ele>191</ele>
        <time>2018-05-16T07:22:05.1Z</time>
      </trkpt>
      <trkpt lat="44.35965" lon="4.60066">
        <ele>192</ele>
        <time>2018-05-16T07:22:07.1Z</time>
      </trkpt>
      <trkpt lat="44.35966" lon="4.60055">
        <ele>192</ele>
        <time>2018-05-16T07:22:09.1Z</time>
      </trkpt>
      <trkpt lat="44.35968" lon="4.60043">
        <ele>193</ele>
        <time>2018-05-16T07:22:11.1Z</time>
      </trkpt>
      <trkpt lat="44.35971" lon="4.60026">
        <ele>193</ele>
        <time>2018-05-16T07:22:14.1Z</time>
      </trkpt>
      <trkpt lat="44.35973" lon="4.60009">
        <ele>194</ele>
        <time>2018-05-16T07:22:17.1Z</time>
      </trkpt>
      <trkpt lat="44.35976" lon="4.59997">
        <ele>194</ele>
        <time>2018-05-16T07:22:19.1Z</time>
      </trkpt>
      <trkpt lat="44.35979" lon="4.59979">
        <ele>195</ele>
        <time>2018-05-16T07:22:22.1Z</time>
      </trkpt>
      <trkpt lat="44.35981" lon="4.59967">
        <ele>195</ele>
        <time>2018-05-16T07:22:24.1Z</time>
      </trkpt>
      <trkpt lat="44.35984" lon="4.59948">
        <ele>196</ele>
        <time>2018-05-16T07:22:27.1Z</time>
      </trkpt>
      <trkpt lat="44.35986" lon="4.59931">
        <ele>197</ele>
        <time>2018-05-16T07:22:30.1Z</time>
      </trkpt>
      <trkpt lat="44.35989" lon="4.59919">
        <ele>197</ele>
        <time>2018-05-16T07:22:32.1Z</time>
      </trkpt>
      <trkpt lat="44.35992" lon="4.59901">
        <ele>198</ele>
        <time>2018-05-16T07:22:35.1Z</time>
      </trkpt>
      <trkpt lat="44.35994" lon="4.59889">
        <ele>198</ele>
        <time>2018-05-16T07:22:37.1Z</time>
      </trkpt>
      <trkpt lat="44.35997" lon="4.59872">
        <ele>198</ele>
        <time>2018-05-16T07:22:40.1Z</time>
      </trkpt>
      <trkpt lat="44.35999" lon="4.59856">
        <ele>199</ele>
        <time>2018-05-16T07:22:43.1Z</time>
      </trkpt>
      <trkpt lat="44.36001" lon="4.59843">
        <ele>199</ele>
        <time>2018-05-16T07:22:45.1Z</time>
      </trkpt>
      <trkpt lat="44.36002" lon="4.59831">
        <ele>199</ele>
        <time>2018-05-16T07:22:47.1Z</time>
      </trkpt>
      <trkpt lat="44.36002" lon="4.59809">
        <ele>199</ele>
        <time>2018-05-16T07:22:50.1Z</time>
      </trkpt>
      <trkpt lat="44.35999" lon="4.59792">
        <ele>199</ele>
        <time>2018-05-16T07:22:52.1Z</time>
      </trkpt>
      <trkpt lat="44.35993" lon="4.59765">
        <ele>198</ele>
        <time>2018-05-16T07:22:55.1Z</time>
      </trkpt>
      <trkpt lat="44.35985" lon="4.59741">
        <ele>198</ele>
        <time>2018-05-16T07:22:58.1Z</time>
      </trkpt>
      <trkpt lat="44.35979" lon="4.59727">
        <ele>198</ele>
        <time>2018-05-16T07:23:00.1Z</time>
      </trkpt>
      <trkpt lat="44.35972" lon="4.5971">
        <ele>198</ele>
        <time>2018-05-16T07:23:03.1Z</time>
      </trkpt>
      <trkpt lat="44.35965" lon="4.59692">
        <ele>198</ele>
        <time>2018-05-16T07:23:06.1Z</time>
      </trkpt>
      <trkpt lat="44.35958" lon="4.59673">
        <ele>199</ele>
        <time>2018-05-16T07:23:09.1Z</time>
      </trkpt>
      <trkpt lat="44.35954" lon="4.59661">
        <ele>199</ele>
        <time>2018-05-16T07:23:11.1Z</time>
      </trkpt>
      <trkpt lat="44.35949" lon="4.59648">
        <ele>199</ele>
        <time>2018-05-16T07:23:13.1Z</time>
      </trkpt>
      <trkpt lat="44.35942" lon="4.59628">
        <ele>200</ele>
        <time>2018-05-16T07:23:16.1Z</time>
      </trkpt>
      <trkpt lat="44.35938" lon="4.59615">
        <ele>200</ele>
        <time>2018-05-16T07:23:18.1Z</time>
      </trkpt>
      <trkpt lat="44.35934" lon="4.59602">
        <ele>200</ele>
        <time>2018-05-16T07:23:20.1Z</time>
      </trkpt>
      <trkpt lat="44.35926" lon="4.59583">
        <ele>200</ele>
        <time>2018-05-16T07:23:23.1Z</time>
      </trkpt>
      <trkpt lat="44.35922" lon="4.5957">
        <ele>200</ele>
        <time>2018-05-16T07:23:25.1Z</time>
      </trkpt>
      <trkpt lat="44.35917" lon="4.59557">
        <ele>201</ele>
        <time>2018-05-16T07:23:27.1Z</time>
      </trkpt>
      <trkpt lat="44.35913" lon="4.59545">
        <ele>201</ele>
        <time>2018-05-16T07:23:29.1Z</time>
      </trkpt>
      <trkpt lat="44.35907" lon="4.59525">
        <ele>202</ele>
        <time>2018-05-16T07:23:32.1Z</time>
      </trkpt>
      <trkpt lat="44.35903" lon="4.59505">
        <ele>203</ele>
        <time>2018-05-16T07:23:35.1Z</time>
      </trkpt>
      <trkpt lat="44.35899" lon="4.59484">
        <ele>203</ele>
        <time>2018-05-16T07:23:38.1Z</time>
      </trkpt>
      <trkpt lat="44.35898" lon="4.59464">
        <ele>204</ele>
        <time>2018-05-16T07:23:41.1Z</time>
      </trkpt>
      <trkpt lat="44.35898" lon="4.59451">
        <ele>205</ele>
        <time>2018-05-16T07:23:43.1Z</time>
      </trkpt>
      <trkpt lat="44.35898" lon="4.59439">
        <ele>206</ele>
        <time>2018-05-16T07:23:45.1Z</time>
      </trkpt>
      <trkpt lat="44.35898" lon="4.5942">
        <ele>206</ele>
        <time>2018-05-16T07:23:48.1Z</time>
      </trkpt>
      <trkpt lat="44.35899" lon="4.59408">
        <ele>206</ele>
        <time>2018-05-16T07:23:50.1Z</time>
      </trkpt>
      <trkpt lat="44.35899" lon="4.59395">
        <ele>206</ele>
        <time>2018-05-16T07:23:52.1Z</time>
      </trkpt>
      <trkpt lat="44.35899" lon="4.59375">
        <ele>207</ele>
        <time>2018-05-16T07:23:55.1Z</time>
      </trkpt>
      <trkpt lat="44.359" lon="4.59355">
        <ele>208</ele>
        <time>2018-05-16T07:23:58.1Z</time>
      </trkpt>
      <trkpt lat="44.359" lon="4.59335">
        <ele>208</ele>
        <time>2018-05-16T07:24:01.1Z</time>
      </trkpt>
      <trkpt lat="44.35897" lon="4.59314">
        <ele>208</ele>
        <time>2018-05-16T07:24:04.1Z</time>
      </trkpt>
      <trkpt lat="44.35891" lon="4.59294">
        <ele>208</ele>
        <time>2018-05-16T07:24:07.1Z</time>
      </trkpt>
      <trkpt lat="44.35881" lon="4.59276">
        <ele>208</ele>
        <time>2018-05-16T07:24:10.1Z</time>
      </trkpt>
      <trkpt lat="44.35869" lon="4.59259">
        <ele>208</ele>
        <time>2018-05-16T07:24:13.1Z</time>
      </trkpt>
      <trkpt lat="44.35861" lon="4.59247">
        <ele>208</ele>
        <time>2018-05-16T07:24:15.1Z</time>
      </trkpt>
      <trkpt lat="44.35849" lon="4.59229">
        <ele>208</ele>
        <time>2018-05-16T07:24:18.1Z</time>
      </trkpt>
      <trkpt lat="44.35841" lon="4.59218">
        <ele>208</ele>
        <time>2018-05-16T07:24:20.1Z</time>
      </trkpt>
      <trkpt lat="44.35833" lon="4.59207">
        <ele>208</ele>
        <time>2018-05-16T07:24:22.1Z</time>
      </trkpt>
      <trkpt lat="44.35826" lon="4.59197">
        <ele>209</ele>
        <time>2018-05-16T07:24:24.1Z</time>
      </trkpt>
      <trkpt lat="44.35815" lon="4.5918">
        <ele>210</ele>
        <time>2018-05-16T07:24:27.1Z</time>
      </trkpt>
      <trkpt lat="44.35808" lon="4.5917">
        <ele>210</ele>
        <time>2018-05-16T07:24:29.1Z</time>
      </trkpt>
      <trkpt lat="44.35797" lon="4.59157">
        <ele>210</ele>
        <time>2018-05-16T07:24:32.1Z</time>
      </trkpt>
      <trkpt lat="44.35789" lon="4.59146">
        <ele>210</ele>
        <time>2018-05-16T07:24:34.1Z</time>
      </trkpt>
      <trkpt lat="44.3578" lon="4.59136">
        <ele>211</ele>
        <time>2018-05-16T07:24:36.1Z</time>
      </trkpt>
      <trkpt lat="44.3577" lon="4.59128">
        <ele>211</ele>
        <time>2018-05-16T07:24:38.1Z</time>
      </trkpt>
      <trkpt lat="44.35759" lon="4.59121">
        <ele>211</ele>
        <time>2018-05-16T07:24:40.1Z</time>
      </trkpt>
      <trkpt lat="44.35743" lon="4.5911">
        <ele>211</ele>
        <time>2018-05-16T07:24:43.1Z</time>
      </trkpt>
      <trkpt lat="44.35731" lon="4.59096">
        <ele>211</ele>
        <time>2018-05-16T07:24:46.1Z</time>
      </trkpt>
      <trkpt lat="44.35722" lon="4.5908">
        <ele>212</ele>
        <time>2018-05-16T07:24:49.1Z</time>
      </trkpt>
      <trkpt lat="44.35718" lon="4.59067">
        <ele>212</ele>
        <time>2018-05-16T07:24:51.1Z</time>
      </trkpt>
      <trkpt lat="44.35715" lon="4.59048">
        <ele>212</ele>
        <time>2018-05-16T07:24:54.1Z</time>
      </trkpt>
      <trkpt lat="44.35713" lon="4.59034">
        <ele>212</ele>
        <time>2018-05-16T07:24:56.1Z</time>
      </trkpt>
      <trkpt lat="44.3571" lon="4.5902">
        <ele>213</ele>
        <time>2018-05-16T07:24:58.1Z</time>
      </trkpt>
      <trkpt lat="44.35704" lon="4.59001">
        <ele>214</ele>
        <time>2018-05-16T07:25:01.1Z</time>
      </trkpt>
      <trkpt lat="44.35697" lon="4.58983">
        <ele>215</ele>
        <time>2018-05-16T07:25:04.1Z</time>
      </trkpt>
      <trkpt lat="44.35693" lon="4.5897">
        <ele>215</ele>
        <time>2018-05-16T07:25:06.1Z</time>
      </trkpt>
      <trkpt lat="44.35688" lon="4.58957">
        <ele>215</ele>
        <time>2018-05-16T07:25:08.1Z</time>
      </trkpt>
      <trkpt lat="44.35681" lon="4.58937">
        <ele>215</ele>
        <time>2018-05-16T07:25:11.1Z</time>
      </trkpt>
      <trkpt lat="44.35673" lon="4.58915">
        <ele>215</ele>
        <time>2018-05-16T07:25:14.1Z</time>
      </trkpt>
      <trkpt lat="44.35669" lon="4.58899">
        <ele>215</ele>
        <time>2018-05-16T07:25:16.1Z</time>
      </trkpt>
      <trkpt lat="44.35666" lon="4.58875">
        <ele>215</ele>
        <time>2018-05-16T07:25:19.1Z</time>
      </trkpt>
      <trkpt lat="44.35665" lon="4.58858">
        <ele>214</ele>
        <time>2018-05-16T07:25:21.1Z</time>
      </trkpt>
      <trkpt lat="44.35667" lon="4.58842">
        <ele>214</ele>
        <time>2018-05-16T07:25:23.1Z</time>
      </trkpt>
      <trkpt lat="44.35671" lon="4.58821">
        <ele>215</ele>
        <time>2018-05-16T07:25:26.1Z</time>
      </trkpt>
      <trkpt lat="44.35675" lon="4.58808">
        <ele>216</ele>
        <time>2018-05-16T07:25:28.1Z</time>
      </trkpt>
      <trkpt lat="44.35679" lon="4.58794">
        <ele>216</ele>
        <time>2018-05-16T07:25:30.1Z</time>
      </trkpt>
      <trkpt lat="44.35683" lon="4.58781">
        <ele>217</ele>
        <time>2018-05-16T07:25:32.1Z</time>
      </trkpt>
      <trkpt lat="44.35686" lon="4.58768">
        <ele>217</ele>
        <time>2018-05-16T07:25:34.1Z</time>
      </trkpt>
      <trkpt lat="44.35688" lon="4.58753">
        <ele>217</ele>
        <time>2018-05-16T07:25:36.1Z</time>
      </trkpt>
      <trkpt lat="44.35687" lon="4.58733">
        <ele>217</ele>
        <time>2018-05-16T07:25:39.1Z</time>
      </trkpt>
      <trkpt lat="44.35682" lon="4.58713">
        <ele>218</ele>
        <time>2018-05-16T07:25:42.1Z</time>
      </trkpt>
      <trkpt lat="44.35679" lon="4.587">
        <ele>218</ele>
        <time>2018-05-16T07:25:44.1Z</time>
      </trkpt>
      <trkpt lat="44.35676" lon="4.58678">
        <ele>218</ele>
        <time>2018-05-16T07:25:47.1Z</time>
      </trkpt>
      <trkpt lat="44.35674" lon="4.58657">
        <ele>218</ele>
        <time>2018-05-16T07:25:50.1Z</time>
      </trkpt>
      <trkpt lat="44.35672" lon="4.58636">
        <ele>218</ele>
        <time>2018-05-16T07:25:53.1Z</time>
      </trkpt>
      <trkpt lat="44.3567" lon="4.58622">
        <ele>218</ele>
        <time>2018-05-16T07:25:55.1Z</time>
      </trkpt>
      <trkpt lat="44.35669" lon="4.58607">
        <ele>218</ele>
        <time>2018-05-16T07:25:57.1Z</time>
      </trkpt>
      <trkpt lat="44.35666" lon="4.58586">
        <ele>219</ele>
        <time>2018-05-16T07:26:00.1Z</time>
      </trkpt>
      <trkpt lat="44.35664" lon="4.58571">
        <ele>219</ele>
        <time>2018-05-16T07:26:02.1Z</time>
      </trkpt>
      <trkpt lat="44.35656" lon="4.58548">
        <ele>219</ele>
        <time>2018-05-16T07:26:05.1Z</time>
      </trkpt>
      <trkpt lat="44.35647" lon="4.58537">
        <ele>218</ele>
        <time>2018-05-16T07:26:07.1Z</time>
      </trkpt>
      <trkpt lat="44.3563" lon="4.58521">
        <ele>217</ele>
        <time>2018-05-16T07:26:10.1Z</time>
      </trkpt>
      <trkpt lat="44.35619" lon="4.58505">
        <ele>217</ele>
        <time>2018-05-16T07:26:12.1Z</time>
      </trkpt>
      <trkpt lat="44.35611" lon="4.58474">
        <ele>216</ele>
        <time>2018-05-16T07:26:15.1Z</time>
      </trkpt>
      <trkpt lat="44.35607" lon="4.58451">
        <ele>216</ele>
        <time>2018-05-16T07:26:17.1Z</time>
      </trkpt>
      <trkpt lat="44.3561" lon="4.58427">
        <ele>216</ele>
        <time>2018-05-16T07:26:19.1Z</time>
      </trkpt>
      <trkpt lat="44.35621" lon="4.58395">
        <ele>216</ele>
        <time>2018-05-16T07:26:22.1Z</time>
      </trkpt>
      <trkpt lat="44.35616" lon="4.58371">
        <ele>215</ele>
        <time>2018-05-16T07:26:24.1Z</time>
      </trkpt>
      <trkpt lat="44.35604" lon="4.58354">
        <ele>216</ele>
        <time>2018-05-16T07:26:26.1Z</time>
      </trkpt>
      <trkpt lat="44.35585" lon="4.58334">
        <ele>215</ele>
        <time>2018-05-16T07:26:29.1Z</time>
      </trkpt>
      <trkpt lat="44.35573" lon="4.58322">
        <ele>214</ele>
        <time>2018-05-16T07:26:31.1Z</time>
      </trkpt>
      <trkpt lat="44.35562" lon="4.5831">
        <ele>213</ele>
        <time>2018-05-16T07:26:33.1Z</time>
      </trkpt>
      <trkpt lat="44.35546" lon="4.58294">
        <ele>213</ele>
        <time>2018-05-16T07:26:36.1Z</time>
      </trkpt>
      <trkpt lat="44.35533" lon="4.58279">
        <ele>212</ele>
        <time>2018-05-16T07:26:39.1Z</time>
      </trkpt>
      <trkpt lat="44.35524" lon="4.58269">
        <ele>212</ele>
        <time>2018-05-16T07:26:41.1Z</time>
      </trkpt>
      <trkpt lat="44.35515" lon="4.58258">
        <ele>212</ele>
        <time>2018-05-16T07:26:43.1Z</time>
      </trkpt>
      <trkpt lat="44.35503" lon="4.5824">
        <ele>212</ele>
        <time>2018-05-16T07:26:46.1Z</time>
      </trkpt>
      <trkpt lat="44.35495" lon="4.58228">
        <ele>213</ele>
        <time>2018-05-16T07:26:48.1Z</time>
      </trkpt>
      <trkpt lat="44.35489" lon="4.58216">
        <ele>212</ele>
        <time>2018-05-16T07:26:50.1Z</time>
      </trkpt>
      <trkpt lat="44.35483" lon="4.58201">
        <ele>212</ele>
        <time>2018-05-16T07:26:52.1Z</time>
      </trkpt>
      <trkpt lat="44.35477" lon="4.58175">
        <ele>212</ele>
        <time>2018-05-16T07:26:55.1Z</time>
      </trkpt>
      <trkpt lat="44.35477" lon="4.58149">
        <ele>212</ele>
        <time>2018-05-16T07:26:58.1Z</time>
      </trkpt>
      <trkpt lat="44.35477" lon="4.58134">
        <ele>212</ele>
        <time>2018-05-16T07:27:00.1Z</time>
      </trkpt>
      <trkpt lat="44.35476" lon="4.58118">
        <ele>213</ele>
        <time>2018-05-16T07:27:02.1Z</time>
      </trkpt>
      <trkpt lat="44.35473" lon="4.58104">
        <ele>213</ele>
        <time>2018-05-16T07:27:04.1Z</time>
      </trkpt>
      <trkpt lat="44.35469" lon="4.58081">
        <ele>213</ele>
        <time>2018-05-16T07:27:07.1Z</time>
      </trkpt>
      <trkpt lat="44.35467" lon="4.58064">
        <ele>213</ele>
        <time>2018-05-16T07:27:09.1Z</time>
      </trkpt>
      <trkpt lat="44.35464" lon="4.58038">
        <ele>213</ele>
        <time>2018-05-16T07:27:12.1Z</time>
      </trkpt>
      <trkpt lat="44.35465" lon="4.5802">
        <ele>213</ele>
        <time>2018-05-16T07:27:14.1Z</time>
      </trkpt>
      <trkpt lat="44.35467" lon="4.58002">
        <ele>213</ele>
        <time>2018-05-16T07:27:16.1Z</time>
      </trkpt>
      <trkpt lat="44.35471" lon="4.57977">
        <ele>213</ele>
        <time>2018-05-16T07:27:19.1Z</time>
      </trkpt>
      <trkpt lat="44.35475" lon="4.57961">
        <ele>213</ele>
        <time>2018-05-16T07:27:21.1Z</time>
      </trkpt>
      <trkpt lat="44.35479" lon="4.57939">
        <ele>213</ele>
        <time>2018-05-16T07:27:24.1Z</time>
      </trkpt>
      <trkpt lat="44.35484" lon="4.57917">
        <ele>214</ele>
        <time>2018-05-16T07:27:27.1Z</time>
      </trkpt>
      <trkpt lat="44.35488" lon="4.57896">
        <ele>214</ele>
        <time>2018-05-16T07:27:30.1Z</time>
      </trkpt>
      <trkpt lat="44.35491" lon="4.57876">
        <ele>215</ele>
        <time>2018-05-16T07:27:33.1Z</time>
      </trkpt>
      <trkpt lat="44.35493" lon="4.57863">
        <ele>216</ele>
        <time>2018-05-16T07:27:35.1Z</time>
      </trkpt>
      <trkpt lat="44.35497" lon="4.57844">
        <ele>217</ele>
        <time>2018-05-16T07:27:38.1Z</time>
      </trkpt>
      <trkpt lat="44.355" lon="4.5783">
        <ele>218</ele>
        <time>2018-05-16T07:27:40.1Z</time>
      </trkpt>
      <trkpt lat="44.35502" lon="4.57818">
        <ele>218</ele>
        <time>2018-05-16T07:27:42.1Z</time>
      </trkpt>
      <trkpt lat="44.35505" lon="4.57804">
        <ele>218</ele>
        <time>2018-05-16T07:27:44.1Z</time>
      </trkpt>
      <trkpt lat="44.35507" lon="4.57791">
        <ele>219</ele>
        <time>2018-05-16T07:27:46.1Z</time>
      </trkpt>
      <trkpt lat="44.35512" lon="4.5777">
        <ele>219</ele>
        <time>2018-05-16T07:27:49.1Z</time>
      </trkpt>
      <trkpt lat="44.35514" lon="4.57757">
        <ele>219</ele>
        <time>2018-05-16T07:27:51.1Z</time>
      </trkpt>
      <trkpt lat="44.35517" lon="4.57743">
        <ele>219</ele>
        <time>2018-05-16T07:27:53.1Z</time>
      </trkpt>
      <trkpt lat="44.3552" lon="4.57729">
        <ele>220</ele>
        <time>2018-05-16T07:27:55.1Z</time>
      </trkpt>
      <trkpt lat="44.35523" lon="4.57716">
        <ele>220</ele>
        <time>2018-05-16T07:27:57.1Z</time>
      </trkpt>
      <trkpt lat="44.35526" lon="4.57704">
        <ele>220</ele>
        <time>2018-05-16T07:27:59.1Z</time>
      </trkpt>
      <trkpt lat="44.35531" lon="4.57685">
        <ele>221</ele>
        <time>2018-05-16T07:28:02.1Z</time>
      </trkpt>
      <trkpt lat="44.35534" lon="4.57672">
        <ele>222</ele>
        <time>2018-05-16T07:28:04.1Z</time>
      </trkpt>
      <trkpt lat="44.35538" lon="4.57652">
        <ele>222</ele>
        <time>2018-05-16T07:28:07.1Z</time>
      </trkpt>
      <trkpt lat="44.35543" lon="4.57633">
        <ele>222</ele>
        <time>2018-05-16T07:28:10.1Z</time>
      </trkpt>
      <trkpt lat="44.35547" lon="4.57613">
        <ele>222</ele>
        <time>2018-05-16T07:28:13.1Z</time>
      </trkpt>
      <trkpt lat="44.35549" lon="4.57599">
        <ele>222</ele>
        <time>2018-05-16T07:28:15.1Z</time>
      </trkpt>
      <trkpt lat="44.35553" lon="4.57579">
        <ele>223</ele>
        <time>2018-05-16T07:28:18.1Z</time>
      </trkpt>
      <trkpt lat="44.35556" lon="4.57566">
        <ele>224</ele>
        <time>2018-05-16T07:28:20.1Z</time>
      </trkpt>
      <trkpt lat="44.35558" lon="4.57551">
        <ele>224</ele>
        <time>2018-05-16T07:28:22.1Z</time>
      </trkpt>
      <trkpt lat="44.35563" lon="4.57529">
        <ele>224</ele>
        <time>2018-05-16T07:28:25.1Z</time>
      </trkpt>
      <trkpt lat="44.35566" lon="4.57515">
        <ele>224</ele>
        <time>2018-05-16T07:28:27.1Z</time>
      </trkpt>
      <trkpt lat="44.3557" lon="4.57494">
        <ele>225</ele>
        <time>2018-05-16T07:28:30.1Z</time>
      </trkpt>
      <trkpt lat="44.35573" lon="4.57481">
        <ele>225</ele>
        <time>2018-05-16T07:28:32.1Z</time>
      </trkpt>
      <trkpt lat="44.35577" lon="4.5746">
        <ele>226</ele>
        <time>2018-05-16T07:28:35.1Z</time>
      </trkpt>
      <trkpt lat="44.3558" lon="4.57445">
        <ele>226</ele>
        <time>2018-05-16T07:28:37.1Z</time>
      </trkpt>
      <trkpt lat="44.35583" lon="4.5743">
        <ele>226</ele>
        <time>2018-05-16T07:28:39.1Z</time>
      </trkpt>
      <trkpt lat="44.35587" lon="4.57409">
        <ele>226</ele>
        <time>2018-05-16T07:28:42.1Z</time>
      </trkpt>
      <trkpt lat="44.3559" lon="4.57395">
        <ele>226</ele>
        <time>2018-05-16T07:28:44.1Z</time>
      </trkpt>
      <trkpt lat="44.35595" lon="4.57372">
        <ele>226</ele>
        <time>2018-05-16T07:28:47.1Z</time>
      </trkpt>
      <trkpt lat="44.35598" lon="4.57357">
        <ele>226</ele>
        <time>2018-05-16T07:28:49.1Z</time>
      </trkpt>
      <trkpt lat="44.35603" lon="4.57333">
        <ele>226</ele>
        <time>2018-05-16T07:28:52.1Z</time>
      </trkpt>
      <trkpt lat="44.35608" lon="4.57308">
        <ele>226</ele>
        <time>2018-05-16T07:28:55.1Z</time>
      </trkpt>
      <trkpt lat="44.35611" lon="4.57292">
        <ele>227</ele>
        <time>2018-05-16T07:28:57.1Z</time>
      </trkpt>
      <trkpt lat="44.35613" lon="4.57276">
        <ele>226</ele>
        <time>2018-05-16T07:28:59.1Z</time>
      </trkpt>
      <trkpt lat="44.3562" lon="4.57257">
        <ele>227</ele>
        <time>2018-05-16T07:29:02.1Z</time>
      </trkpt>
      <trkpt lat="44.35628" lon="4.57242">
        <ele>227</ele>
        <time>2018-05-16T07:29:05.1Z</time>
      </trkpt>
      <trkpt lat="44.35634" lon="4.57235">
        <ele>227</ele>
        <time>2018-05-16T07:29:07.1Z</time>
      </trkpt>
      <trkpt lat="44.35644" lon="4.57225">
        <ele>228</ele>
        <time>2018-05-16T07:29:10.1Z</time>
      </trkpt>
      <trkpt lat="44.35654" lon="4.57215">
        <ele>228</ele>
        <time>2018-05-16T07:29:13.1Z</time>
      </trkpt>
      <trkpt lat="44.35663" lon="4.57202">
        <ele>229</ele>
        <time>2018-05-16T07:29:16.1Z</time>
      </trkpt>
      <trkpt lat="44.35668" lon="4.57192">
        <ele>230</ele>
        <time>2018-05-16T07:29:18.1Z</time>
      </trkpt>
      <trkpt lat="44.35673" lon="4.57174">
        <ele>230</ele>
        <time>2018-05-16T07:29:21.1Z</time>
      </trkpt>
      <trkpt lat="44.35678" lon="4.57156">
        <ele>231</ele>
        <time>2018-05-16T07:29:24.1Z</time>
      </trkpt>
      <trkpt lat="44.35681" lon="4.57143">
        <ele>231</ele>
        <time>2018-05-16T07:29:26.1Z</time>
      </trkpt>
      <trkpt lat="44.35684" lon="4.57129">
        <ele>232</ele>
        <time>2018-05-16T07:29:28.1Z</time>
      </trkpt>
      <trkpt lat="44.35687" lon="4.57114">
        <ele>232</ele>
        <time>2018-05-16T07:29:30.1Z</time>
      </trkpt>
      <trkpt lat="44.35691" lon="4.57098">
        <ele>232</ele>
        <time>2018-05-16T07:29:32.1Z</time>
      </trkpt>
      <trkpt lat="44.35696" lon="4.57072">
        <ele>232</ele>
        <time>2018-05-16T07:29:35.1Z</time>
      </trkpt>
      <trkpt lat="44.357" lon="4.57054">
        <ele>232</ele>
        <time>2018-05-16T07:29:37.1Z</time>
      </trkpt>
      <trkpt lat="44.35701" lon="4.5703">
        <ele>232</ele>
        <time>2018-05-16T07:29:40.1Z</time>
      </trkpt>
      <trkpt lat="44.35698" lon="4.5701">
        <ele>231</ele>
        <time>2018-05-16T07:29:43.1Z</time>
      </trkpt>
      <trkpt lat="44.35695" lon="4.56997">
        <ele>231</ele>
        <time>2018-05-16T07:29:45.1Z</time>
      </trkpt>
      <trkpt lat="44.35691" lon="4.56975">
        <ele>231</ele>
        <time>2018-05-16T07:29:48.1Z</time>
      </trkpt>
      <trkpt lat="44.35692" lon="4.5695">
        <ele>232</ele>
        <time>2018-05-16T07:29:51.1Z</time>
      </trkpt>
      <trkpt lat="44.35696" lon="4.56926">
        <ele>232</ele>
        <time>2018-05-16T07:29:54.1Z</time>
      </trkpt>
      <trkpt lat="44.35701" lon="4.56906">
        <ele>232</ele>
        <time>2018-05-16T07:29:57.1Z</time>
      </trkpt>
      <trkpt lat="44.35706" lon="4.56888">
        <ele>233</ele>
        <time>2018-05-16T07:30:00.1Z</time>
      </trkpt>
      <trkpt lat="44.3571" lon="4.56877">
        <ele>233</ele>
        <time>2018-05-16T07:30:02.1Z</time>
      </trkpt>
      <trkpt lat="44.35716" lon="4.5686">
        <ele>234</ele>
        <time>2018-05-16T07:30:05.1Z</time>
      </trkpt>
      <trkpt lat="44.35719" lon="4.56849">
        <ele>234</ele>
        <time>2018-05-16T07:30:07.1Z</time>
      </trkpt>
      <trkpt lat="44.35722" lon="4.56837">
        <ele>234</ele>
        <time>2018-05-16T07:30:09.1Z</time>
      </trkpt>
      <trkpt lat="44.35728" lon="4.5682">
        <ele>234</ele>
        <time>2018-05-16T07:30:12.1Z</time>
      </trkpt>
      <trkpt lat="44.35734" lon="4.56803">
        <ele>235</ele>
        <time>2018-05-16T07:30:15.1Z</time>
      </trkpt>
      <trkpt lat="44.35739" lon="4.56787">
        <ele>236</ele>
        <time>2018-05-16T07:30:18.1Z</time>
      </trkpt>
      <trkpt lat="44.35743" lon="4.56776">
        <ele>236</ele>
        <time>2018-05-16T07:30:20.1Z</time>
      </trkpt>
      <trkpt lat="44.35746" lon="4.56765">
        <ele>237</ele>
        <time>2018-05-16T07:30:22.1Z</time>
      </trkpt>
      <trkpt lat="44.35751" lon="4.56749">
        <ele>237</ele>
        <time>2018-05-16T07:30:25.1Z</time>
      </trkpt>
      <trkpt lat="44.35754" lon="4.56739">
        <ele>237</ele>
        <time>2018-05-16T07:30:27.1Z</time>
      </trkpt>
      <trkpt lat="44.35757" lon="4.56729">
        <ele>237</ele>
        <time>2018-05-16T07:30:29.1Z</time>
      </trkpt>
      <trkpt lat="44.35762" lon="4.56714">
        <ele>238</ele>
        <time>2018-05-16T07:30:32.1Z</time>
      </trkpt>
      <trkpt lat="44.35765" lon="4.56705">
        <ele>239</ele>
        <time>2018-05-16T07:30:34.1Z</time>
      </trkpt>
      <trkpt lat="44.3577" lon="4.56691">
        <ele>239</ele>
        <time>2018-05-16T07:30:37.1Z</time>
      </trkpt>
      <trkpt lat="44.35776" lon="4.56676">
        <ele>239</ele>
        <time>2018-05-16T07:30:40.1Z</time>
      </trkpt>
      <trkpt lat="44.35779" lon="4.56667">
        <ele>239</ele>
        <time>2018-05-16T07:30:42.1Z</time>
      </trkpt>
      <trkpt lat="44.35783" lon="4.56658">
        <ele>240</ele>
        <time>2018-05-16T07:30:44.1Z</time>
      </trkpt>
      <trkpt lat="44.35786" lon="4.56648">
        <ele>240</ele>
        <time>2018-05-16T07:30:46.1Z</time>
      </trkpt>
      <trkpt lat="44.35791" lon="4.56633">
        <ele>241</ele>
        <time>2018-05-16T07:30:49.1Z</time>
      </trkpt>
      <trkpt lat="44.35797" lon="4.56617">
        <ele>241</ele>
        <time>2018-05-16T07:30:52.1Z</time>
      </trkpt>
      <trkpt lat="44.35802" lon="4.56601">
        <ele>242</ele>
        <time>2018-05-16T07:30:55.1Z</time>
      </trkpt>
      <trkpt lat="44.35807" lon="4.56585">
        <ele>243</ele>
        <time>2018-05-16T07:30:58.1Z</time>
      </trkpt>
      <trkpt lat="44.3581" lon="4.56574">
        <ele>244</ele>
        <time>2018-05-16T07:31:00.1Z</time>
      </trkpt>
      <trkpt lat="44.35813" lon="4.56563">
        <ele>244</ele>
        <time>2018-05-16T07:31:02.1Z</time>
      </trkpt>
      <trkpt lat="44.35815" lon="4.56551">
        <ele>243</ele>
        <time>2018-05-16T07:31:04.1Z</time>
      </trkpt>
      <trkpt lat="44.35817" lon="4.56539">
        <ele>243</ele>
        <time>2018-05-16T07:31:06.1Z</time>
      </trkpt>
      <trkpt lat="44.35818" lon="4.56527">
        <ele>243</ele>
        <time>2018-05-16T07:31:08.1Z</time>
      </trkpt>
      <trkpt lat="44.35819" lon="4.56507">
        <ele>243</ele>
        <time>2018-05-16T07:31:11.1Z</time>
      </trkpt>
      <trkpt lat="44.3582" lon="4.56493">
        <ele>244</ele>
        <time>2018-05-16T07:31:13.1Z</time>
      </trkpt>
      <trkpt lat="44.3582" lon="4.56479">
        <ele>244</ele>
        <time>2018-05-16T07:31:15.1Z</time>
      </trkpt>
      <trkpt lat="44.35822" lon="4.56454">
        <ele>244</ele>
        <time>2018-05-16T07:31:18.1Z</time>
      </trkpt>
      <trkpt lat="44.35824" lon="4.56426">
        <ele>243</ele>
        <time>2018-05-16T07:31:21.1Z</time>
      </trkpt>
      <trkpt lat="44.3583" lon="4.56399">
        <ele>243</ele>
        <time>2018-05-16T07:31:24.1Z</time>
      </trkpt>
      <trkpt lat="44.35835" lon="4.56382">
        <ele>243</ele>
        <time>2018-05-16T07:31:26.1Z</time>
      </trkpt>
      <trkpt lat="44.35838" lon="4.56366">
        <ele>242</ele>
        <time>2018-05-16T07:31:28.1Z</time>
      </trkpt>
      <trkpt lat="44.35841" lon="4.56352">
        <ele>242</ele>
        <time>2018-05-16T07:31:30.1Z</time>
      </trkpt>
      <trkpt lat="44.35841" lon="4.56328">
        <ele>242</ele>
        <time>2018-05-16T07:31:33.1Z</time>
      </trkpt>
      <trkpt lat="44.35838" lon="4.56302">
        <ele>243</ele>
        <time>2018-05-16T07:31:36.1Z</time>
      </trkpt>
      <trkpt lat="44.35834" lon="4.56276">
        <ele>242</ele>
        <time>2018-05-16T07:31:39.1Z</time>
      </trkpt>
      <trkpt lat="44.35832" lon="4.56259">
        <ele>242</ele>
        <time>2018-05-16T07:31:41.1Z</time>
      </trkpt>
      <trkpt lat="44.35829" lon="4.56243">
        <ele>242</ele>
        <time>2018-05-16T07:31:43.1Z</time>
      </trkpt>
      <trkpt lat="44.35825" lon="4.56221">
        <ele>242</ele>
        <time>2018-05-16T07:31:46.1Z</time>
      </trkpt>
      <trkpt lat="44.35822" lon="4.56209">
        <ele>242</ele>
        <time>2018-05-16T07:31:48.1Z</time>
      </trkpt>
      <trkpt lat="44.35819" lon="4.56191">
        <ele>243</ele>
        <time>2018-05-16T07:31:51.1Z</time>
      </trkpt>
      <trkpt lat="44.35818" lon="4.56181">
        <ele>242</ele>
        <time>2018-05-16T07:31:53.1Z</time>
      </trkpt>
      <trkpt lat="44.35817" lon="4.56171">
        <ele>242</ele>
        <time>2018-05-16T07:31:55.1Z</time>
      </trkpt>
      <trkpt lat="44.35816" lon="4.56159">
        <ele>243</ele>
        <time>2018-05-16T07:31:58.1Z</time>
      </trkpt>
      <trkpt lat="44.35817" lon="4.5615">
        <ele>242</ele>
        <time>2018-05-16T07:32:01.1Z</time>
      </trkpt>
      <trkpt lat="44.35818" lon="4.56146">
        <ele>242</ele>
        <time>2018-05-16T07:32:04.1Z</time>
      </trkpt>
      <trkpt lat="44.35817" lon="4.56145">
        <ele>242</ele>
        <time>2018-05-16T07:32:06.1Z</time>
      </trkpt>
      <trkpt lat="44.35817" lon="4.56145">
        <ele>243</ele>
        <time>2018-05-16T07:32:08.1Z</time>
      </trkpt>
      <trkpt lat="44.35817" lon="4.56145">
        <ele>243</ele>
        <time>2018-05-16T07:32:11.1Z</time>
      </trkpt>
      <trkpt lat="44.35817" lon="4.56144">
        <ele>242</ele>
        <time>2018-05-16T07:32:13.1Z</time>
      </trkpt>
      <trkpt lat="44.35817" lon="4.56144">
        <ele>242</ele>
        <time>2018-05-16T07:32:17.1Z</time>
      </trkpt>
      <trkpt lat="44.35817" lon="4.56143">
        <ele>242</ele>
        <time>2018-05-16T07:32:20.1Z</time>
      </trkpt>
      <trkpt lat="44.35817" lon="4.56143">
        <ele>242</ele>
        <time>2018-05-16T07:32:23.1Z</time>
      </trkpt>
      <trkpt lat="44.35817" lon="4.56143">
        <ele>242</ele>
        <time>2018-05-16T07:32:25.1Z</time>
      </trkpt>
      <trkpt lat="44.35816" lon="4.56144">
        <ele>243</ele>
        <time>2018-05-16T07:32:27.1Z</time>
      </trkpt>
      <trkpt lat="44.35817" lon="4.56146">
        <ele>242</ele>
        <time>2018-05-16T07:32:30.1Z</time>
      </trkpt>
      <trkpt lat="44.35817" lon="4.56146">
        <ele>242</ele>
        <time>2018-05-16T07:32:32.1Z</time>
      </trkpt>
      <trkpt lat="44.35817" lon="4.56146">
        <ele>242</ele>
        <time>2018-05-16T07:32:40.1Z</time>
      </trkpt>
      <trkpt lat="44.35817" lon="4.56146">
        <ele>243</ele>
        <time>2018-05-16T07:32:46.1Z</time>
      </trkpt>
      <trkpt lat="44.35817" lon="4.56147">
        <ele>243</ele>
        <time>2018-05-16T07:32:53.1Z</time>
      </trkpt>
      <trkpt lat="44.35818" lon="4.56147">
        <ele>242</ele>
        <time>2018-05-16T07:33:02.1Z</time>
      </trkpt>
      <trkpt lat="44.35817" lon="4.56147">
        <ele>243</ele>
        <time>2018-05-16T07:33:13.1Z</time>
      </trkpt>
      <trkpt lat="44.35817" lon="4.56147">
        <ele>243</ele>
        <time>2018-05-16T07:33:17.1Z</time>
      </trkpt>
      <trkpt lat="44.35817" lon="4.56147">
        <ele>243</ele>
        <time>2018-05-16T07:33:24.1Z</time>
      </trkpt>
      <trkpt lat="44.35817" lon="4.56147">
        <ele>243</ele>
        <time>2018-05-16T07:33:49.1Z</time>
      </trkpt>
      <trkpt lat="44.35817" lon="4.56147">
        <ele>243</ele>
        <time>2018-05-16T07:33:53.1Z</time>
      </trkpt>
      <trkpt lat="44.35817" lon="4.56147">
        <ele>243</ele>
        <time>2018-05-16T07:33:58.1Z</time>
      </trkpt>
      <trkpt lat="44.35817" lon="4.56147">
        <ele>243</ele>
        <time>2018-05-16T07:34:01.1Z</time>
      </trkpt>
      <trkpt lat="44.35817" lon="4.56147">
        <ele>243</ele>
        <time>2018-05-16T07:34:13.1Z</time>
      </trkpt>
      <trkpt lat="44.35817" lon="4.56147">
        <ele>242</ele>
        <time>2018-05-16T07:34:20.1Z</time>
      </trkpt>
      <trkpt lat="44.35817" lon="4.56147">
        <ele>242</ele>
        <time>2018-05-16T07:34:23.1Z</time>
      </trkpt>
      <trkpt lat="44.35817" lon="4.56147">
        <ele>242</ele>
        <time>2018-05-16T07:34:27.1Z</time>
      </trkpt>
      <trkpt lat="44.35817" lon="4.56147">
        <ele>243</ele>
        <time>2018-05-16T07:34:33.1Z</time>
      </trkpt>
      <trkpt lat="44.35817" lon="4.56147">
        <ele>243</ele>
        <time>2018-05-16T07:34:40.1Z</time>
      </trkpt>
      <trkpt lat="44.35817" lon="4.56147">
        <ele>242</ele>
        <time>2018-05-16T07:34:44.1Z</time>
      </trkpt>
      <trkpt lat="44.35818" lon="4.56147">
        <ele>242</ele>
        <time>2018-05-16T07:34:46.1Z</time>
      </trkpt>
      <trkpt lat="44.35818" lon="4.56147">
        <ele>243</ele>
        <time>2018-05-16T07:34:49.1Z</time>
      </trkpt>
      <trkpt lat="44.35817" lon="4.56147">
        <ele>243</ele>
        <time>2018-05-16T07:34:51.1Z</time>
      </trkpt>
      <trkpt lat="44.35817" lon="4.56148">
        <ele>243</ele>
        <time>2018-05-16T07:34:54.1Z</time>
      </trkpt>
      <trkpt lat="44.35817" lon="4.56147">
        <ele>243</ele>
        <time>2018-05-16T07:34:57.1Z</time>
      </trkpt>
      <trkpt lat="44.35817" lon="4.56147">
        <ele>242</ele>
        <time>2018-05-16T07:35:03.1Z</time>
      </trkpt>
      <trkpt lat="44.35817" lon="4.56147">
        <ele>242</ele>
        <time>2018-05-16T07:35:05.1Z</time>
      </trkpt>
      <trkpt lat="44.35817" lon="4.56146">
        <ele>242</ele>
        <time>2018-05-16T07:35:08.1Z</time>
      </trkpt>
      <trkpt lat="44.35817" lon="4.56146">
        <ele>243</ele>
        <time>2018-05-16T07:35:12.1Z</time>
      </trkpt>
      <trkpt lat="44.35817" lon="4.56146">
        <ele>242</ele>
        <time>2018-05-16T07:35:14.1Z</time>
      </trkpt>
      <trkpt lat="44.35817" lon="4.56146">
        <ele>242</ele>
        <time>2018-05-16T07:35:18.1Z</time>
      </trkpt>
      <trkpt lat="44.35817" lon="4.56146">
        <ele>242</ele>
        <time>2018-05-16T07:35:20.1Z</time>
      </trkpt>
      <trkpt lat="44.35817" lon="4.56146">
        <ele>242</ele>
        <time>2018-05-16T07:35:23.1Z</time>
      </trkpt>
      <trkpt lat="44.35817" lon="4.56146">
        <ele>242</ele>
        <time>2018-05-16T07:35:27.1Z</time>
      </trkpt>
      <trkpt lat="44.35817" lon="4.56146">
        <ele>242</ele>
        <time>2018-05-16T07:35:29.1Z</time>
      </trkpt>
      <trkpt lat="44.35817" lon="4.56147">
        <ele>243</ele>
        <time>2018-05-16T07:35:32.1Z</time>
      </trkpt>
      <trkpt lat="44.35817" lon="4.56147">
        <ele>243</ele>
        <time>2018-05-16T07:35:37.1Z</time>
      </trkpt>
      <trkpt lat="44.35817" lon="4.56147">
        <ele>243</ele>
        <time>2018-05-16T07:35:40.1Z</time>
      </trkpt>
      <trkpt lat="44.35817" lon="4.56147">
        <ele>243</ele>
        <time>2018-05-16T07:35:43.1Z</time>
      </trkpt>
      <trkpt lat="44.35816" lon="4.56147">
        <ele>243</ele>
        <time>2018-05-16T07:35:47.1Z</time>
      </trkpt>
      <trkpt lat="44.35816" lon="4.56147">
        <ele>243</ele>
        <time>2018-05-16T07:35:49.1Z</time>
      </trkpt>
      <trkpt lat="44.35816" lon="4.56147">
        <ele>243</ele>
        <time>2018-05-16T07:35:53.1Z</time>
      </trkpt>
      <trkpt lat="44.35816" lon="4.56147">
        <ele>243</ele>
        <time>2018-05-16T07:35:57.1Z</time>
      </trkpt>
      <trkpt lat="44.35816" lon="4.56147">
        <ele>242</ele>
        <time>2018-05-16T07:36:00.1Z</time>
      </trkpt>
      <trkpt lat="44.35816" lon="4.56147">
        <ele>243</ele>
        <time>2018-05-16T07:36:03.1Z</time>
      </trkpt>
      <trkpt lat="44.35816" lon="4.56147">
        <ele>243</ele>
        <time>2018-05-16T07:36:07.1Z</time>
      </trkpt>
      <trkpt lat="44.35816" lon="4.56147">
        <ele>243</ele>
        <time>2018-05-16T07:36:10.1Z</time>
      </trkpt>
      <trkpt lat="44.35816" lon="4.56147">
        <ele>242</ele>
        <time>2018-05-16T07:36:13.1Z</time>
      </trkpt>
      <trkpt lat="44.35816" lon="4.56147">
        <ele>242</ele>
        <time>2018-05-16T07:36:18.1Z</time>
      </trkpt>
      <trkpt lat="44.35816" lon="4.56147">
        <ele>243</ele>
        <time>2018-05-16T07:36:21.1Z</time>
      </trkpt>
      <trkpt lat="44.35816" lon="4.56147">
        <ele>243</ele>
        <time>2018-05-16T07:36:26.1Z</time>
      </trkpt>
      <trkpt lat="44.35816" lon="4.56147">
        <ele>243</ele>
        <time>2018-05-16T07:36:30.1Z</time>
      </trkpt>
      <trkpt lat="44.35816" lon="4.56147">
        <ele>243</ele>
        <time>2018-05-16T07:36:36.1Z</time>
      </trkpt>
      <trkpt lat="44.35816" lon="4.56147">
        <ele>243</ele>
        <time>2018-05-16T07:36:38.1Z</time>
      </trkpt>
      <trkpt lat="44.35816" lon="4.56147">
        <ele>243</ele>
        <time>2018-05-16T07:36:41.1Z</time>
      </trkpt>
      <trkpt lat="44.35817" lon="4.56147">
        <ele>243</ele>
        <time>2018-05-16T07:36:43.1Z</time>
      </trkpt>
      <trkpt lat="44.35817" lon="4.56147">
        <ele>243</ele>
        <time>2018-05-16T07:36:50.1Z</time>
      </trkpt>
      <trkpt lat="44.35817" lon="4.56147">
        <ele>243</ele>
        <time>2018-05-16T07:36:52.1Z</time>
      </trkpt>
      <trkpt lat="44.35817" lon="4.56148">
        <ele>243</ele>
        <time>2018-05-16T07:36:55.1Z</time>
      </trkpt>
      <trkpt lat="44.35817" lon="4.56148">
        <ele>243</ele>
        <time>2018-05-16T07:36:58.1Z</time>
      </trkpt>
      <trkpt lat="44.35816" lon="4.56148">
        <ele>243</ele>
        <time>2018-05-16T07:37:04.1Z</time>
      </trkpt>
      <trkpt lat="44.35816" lon="4.56147">
        <ele>243</ele>
        <time>2018-05-16T07:37:07.1Z</time>
      </trkpt>
      <trkpt lat="44.35816" lon="4.56147">
        <ele>243</ele>
        <time>2018-05-16T07:37:10.1Z</time>
      </trkpt>
      <trkpt lat="44.35816" lon="4.56147">
        <ele>243</ele>
        <time>2018-05-16T07:37:15.1Z</time>
      </trkpt>
      <trkpt lat="44.35816" lon="4.56147">
        <ele>243</ele>
        <time>2018-05-16T07:37:22.1Z</time>
      </trkpt>
      <trkpt lat="44.35815" lon="4.56147">
        <ele>243</ele>
        <time>2018-05-16T07:37:24.1Z</time>
      </trkpt>
      <trkpt lat="44.35815" lon="4.56147">
        <ele>243</ele>
        <time>2018-05-16T07:37:27.1Z</time>
      </trkpt>
      <trkpt lat="44.35815" lon="4.56147">
        <ele>243</ele>
        <time>2018-05-16T07:37:29.1Z</time>
      </trkpt>
      <trkpt lat="44.35815" lon="4.56147">
        <ele>243</ele>
        <time>2018-05-16T07:37:31.1Z</time>
      </trkpt>
      <trkpt lat="44.35815" lon="4.56147">
        <ele>243</ele>
        <time>2018-05-16T07:37:34.1Z</time>
      </trkpt>
      <trkpt lat="44.35815" lon="4.56147">
        <ele>243</ele>
        <time>2018-05-16T07:37:37.1Z</time>
      </trkpt>
      <trkpt lat="44.35815" lon="4.56147">
        <ele>243</ele>
        <time>2018-05-16T07:37:39.1Z</time>
      </trkpt>
      <trkpt lat="44.35814" lon="4.56147">
        <ele>243</ele>
        <time>2018-05-16T07:37:42.1Z</time>
      </trkpt>
      <trkpt lat="44.35814" lon="4.56147">
        <ele>243</ele>
        <time>2018-05-16T07:37:44.1Z</time>
      </trkpt>
      <trkpt lat="44.35815" lon="4.56147">
        <ele>243</ele>
        <time>2018-05-16T07:37:48.1Z</time>
      </trkpt>
      <trkpt lat="44.35815" lon="4.56147">
        <ele>243</ele>
        <time>2018-05-16T07:37:51.1Z</time>
      </trkpt>
      <trkpt lat="44.35815" lon="4.56147">
        <ele>243</ele>
        <time>2018-05-16T07:37:54.1Z</time>
      </trkpt>
      <trkpt lat="44.35815" lon="4.56147">
        <ele>242</ele>
        <time>2018-05-16T07:37:56.1Z</time>
      </trkpt>
      <trkpt lat="44.35815" lon="4.56147">
        <ele>242</ele>
        <time>2018-05-16T07:37:59.1Z</time>
      </trkpt>
      <trkpt lat="44.35815" lon="4.56147">
        <ele>243</ele>
        <time>2018-05-16T07:38:02.1Z</time>
      </trkpt>
      <trkpt lat="44.35816" lon="4.56147">
        <ele>243</ele>
        <time>2018-05-16T07:38:05.1Z</time>
      </trkpt>
      <trkpt lat="44.35816" lon="4.56147">
        <ele>243</ele>
        <time>2018-05-16T07:38:08.1Z</time>
      </trkpt>
      <trkpt lat="44.35816" lon="4.56147">
        <ele>243</ele>
        <time>2018-05-16T07:38:10.1Z</time>
      </trkpt>
      <trkpt lat="44.35816" lon="4.56147">
        <ele>243</ele>
        <time>2018-05-16T07:38:12.1Z</time>
      </trkpt>
      <trkpt lat="44.35816" lon="4.56147">
        <ele>243</ele>
        <time>2018-05-16T07:38:18.1Z</time>
      </trkpt>
      <trkpt lat="44.35816" lon="4.56147">
        <ele>243</ele>
        <time>2018-05-16T07:38:22.1Z</time>
      </trkpt>
      <trkpt lat="44.35816" lon="4.56147">
        <ele>243</ele>
        <time>2018-05-16T07:38:25.1Z</time>
      </trkpt>
      <trkpt lat="44.35816" lon="4.56146">
        <ele>243</ele>
        <time>2018-05-16T07:38:28.1Z</time>
      </trkpt>
      <trkpt lat="44.35816" lon="4.56146">
        <ele>242</ele>
        <time>2018-05-16T07:38:35.1Z</time>
      </trkpt>
      <trkpt lat="44.35817" lon="4.56146">
        <ele>243</ele>
        <time>2018-05-16T07:38:40.1Z</time>
      </trkpt>
      <trkpt lat="44.35817" lon="4.56146">
        <ele>243</ele>
        <time>2018-05-16T07:38:42.1Z</time>
      </trkpt>
      <trkpt lat="44.35817" lon="4.56146">
        <ele>243</ele>
        <time>2018-05-16T07:38:49.1Z</time>
      </trkpt>
      <trkpt lat="44.35817" lon="4.56146">
        <ele>243</ele>
        <time>2018-05-16T07:38:53.1Z</time>
      </trkpt>
      <trkpt lat="44.35817" lon="4.56146">
        <ele>243</ele>
        <time>2018-05-16T07:38:56.1Z</time>
      </trkpt>
      <trkpt lat="44.35817" lon="4.56146">
        <ele>243</ele>
        <time>2018-05-16T07:38:59.1Z</time>
      </trkpt>
      <trkpt lat="44.35817" lon="4.56146">
        <ele>243</ele>
        <time>2018-05-16T07:39:06.1Z</time>
      </trkpt>
      <trkpt lat="44.35817" lon="4.56146">
        <ele>243</ele>
        <time>2018-05-16T07:39:10.1Z</time>
      </trkpt>
      <trkpt lat="44.35817" lon="4.56146">
        <ele>243</ele>
        <time>2018-05-16T07:39:17.1Z</time>
      </trkpt>
      <trkpt lat="44.35817" lon="4.56146">
        <ele>243</ele>
        <time>2018-05-16T07:39:21.1Z</time>
      </trkpt>
      <trkpt lat="44.35817" lon="4.56146">
        <ele>243</ele>
        <time>2018-05-16T07:39:23.1Z</time>
      </trkpt>
      <trkpt lat="44.35816" lon="4.56146">
        <ele>243</ele>
        <time>2018-05-16T07:39:27.1Z</time>
      </trkpt>
      <trkpt lat="44.35816" lon="4.56146">
        <ele>243</ele>
        <time>2018-05-16T07:39:30.1Z</time>
      </trkpt>
      <trkpt lat="44.35816" lon="4.56146">
        <ele>243</ele>
        <time>2018-05-16T07:39:32.1Z</time>
      </trkpt>
      <trkpt lat="44.35815" lon="4.56146">
        <ele>243</ele>
        <time>2018-05-16T07:39:35.1Z</time>
      </trkpt>
      <trkpt lat="44.35815" lon="4.56146">
        <ele>243</ele>
        <time>2018-05-16T07:39:37.1Z</time>
      </trkpt>
      <trkpt lat="44.35815" lon="4.56146">
        <ele>243</ele>
        <time>2018-05-16T07:39:40.1Z</time>
      </trkpt>
      <trkpt lat="44.35815" lon="4.56146">
        <ele>243</ele>
        <time>2018-05-16T07:39:42.1Z</time>
      </trkpt>
      <trkpt lat="44.35815" lon="4.56146">
        <ele>243</ele>
        <time>2018-05-16T07:39:45.1Z</time>
      </trkpt>
      <trkpt lat="44.35814" lon="4.56146">
        <ele>243</ele>
        <time>2018-05-16T07:39:47.1Z</time>
      </trkpt>
      <trkpt lat="44.35814" lon="4.56146">
        <ele>243</ele>
        <time>2018-05-16T07:39:50.1Z</time>
      </trkpt>
      <trkpt lat="44.35814" lon="4.56147">
        <ele>243</ele>
        <time>2018-05-16T07:39:54.1Z</time>
      </trkpt>
      <trkpt lat="44.35814" lon="4.56147">
        <ele>243</ele>
        <time>2018-05-16T07:40:01.1Z</time>
      </trkpt>
      <trkpt lat="44.35814" lon="4.56147">
        <ele>243</ele>
        <time>2018-05-16T07:40:10.1Z</time>
      </trkpt>
      <trkpt lat="44.35813" lon="4.56147">
        <ele>243</ele>
        <time>2018-05-16T07:40:13.1Z</time>
      </trkpt>
      <trkpt lat="44.35814" lon="4.56147">
        <ele>242</ele>
        <time>2018-05-16T07:40:19.1Z</time>
      </trkpt>
      <trkpt lat="44.35814" lon="4.56147">
        <ele>242</ele>
        <time>2018-05-16T07:40:22.1Z</time>
      </trkpt>
      <trkpt lat="44.35814" lon="4.56147">
        <ele>242</ele>
        <time>2018-05-16T07:40:26.1Z</time>
      </trkpt>
      <trkpt lat="44.35814" lon="4.56147">
        <ele>242</ele>
        <time>2018-05-16T07:40:30.1Z</time>
      </trkpt>
      <trkpt lat="44.35814" lon="4.56147">
        <ele>243</ele>
        <time>2018-05-16T07:40:33.1Z</time>
      </trkpt>
      <trkpt lat="44.35813" lon="4.56147">
        <ele>243</ele>
        <time>2018-05-16T07:40:40.1Z</time>
      </trkpt>
      <trkpt lat="44.35813" lon="4.56147">
        <ele>243</ele>
        <time>2018-05-16T07:40:45.1Z</time>
      </trkpt>
      <trkpt lat="44.35813" lon="4.56147">
        <ele>243</ele>
        <time>2018-05-16T07:40:51.1Z</time>
      </trkpt>
      <trkpt lat="44.35814" lon="4.56147">
        <ele>243</ele>
        <time>2018-05-16T07:40:54.1Z</time>
      </trkpt>
      <trkpt lat="44.35813" lon="4.56147">
        <ele>243</ele>
        <time>2018-05-16T07:40:56.1Z</time>
      </trkpt>
      <trkpt lat="44.35813" lon="4.56147">
        <ele>243</ele>
        <time>2018-05-16T07:40:59.1Z</time>
      </trkpt>
      <trkpt lat="44.35814" lon="4.56146">
        <ele>243</ele>
        <time>2018-05-16T07:41:02.1Z</time>
      </trkpt>
      <trkpt lat="44.35814" lon="4.56146">
        <ele>243</ele>
        <time>2018-05-16T07:41:05.1Z</time>
      </trkpt>
      <trkpt lat="44.35814" lon="4.56146">
        <ele>242</ele>
        <time>2018-05-16T07:41:07.1Z</time>
      </trkpt>
      <trkpt lat="44.35814" lon="4.56146">
        <ele>242</ele>
        <time>2018-05-16T07:41:10.1Z</time>
      </trkpt>
      <trkpt lat="44.35815" lon="4.56146">
        <ele>242</ele>
        <time>2018-05-16T07:41:12.1Z</time>
      </trkpt>
      <trkpt lat="44.35815" lon="4.56145">
        <ele>242</ele>
        <time>2018-05-16T07:41:14.1Z</time>
      </trkpt>
      <trkpt lat="44.35815" lon="4.56144">
        <ele>242</ele>
        <time>2018-05-16T07:41:16.1Z</time>
      </trkpt>
      <trkpt lat="44.35816" lon="4.56141">
        <ele>242</ele>
        <time>2018-05-16T07:41:19.1Z</time>
      </trkpt>
      <trkpt lat="44.35817" lon="4.56139">
        <ele>242</ele>
        <time>2018-05-16T07:41:21.1Z</time>
      </trkpt>
      <trkpt lat="44.35819" lon="4.56136">
        <ele>242</ele>
        <time>2018-05-16T07:41:23.1Z</time>
      </trkpt>
      <trkpt lat="44.35823" lon="4.56131">
        <ele>243</ele>
        <time>2018-05-16T07:41:26.1Z</time>
      </trkpt>
      <trkpt lat="44.35826" lon="4.56125">
        <ele>243</ele>
        <time>2018-05-16T07:41:28.1Z</time>
      </trkpt>
      <trkpt lat="44.35831" lon="4.56117">
        <ele>243</ele>
        <time>2018-05-16T07:41:31.1Z</time>
      </trkpt>
      <trkpt lat="44.35835" lon="4.56111">
        <ele>243</ele>
        <time>2018-05-16T07:41:33.1Z</time>
      </trkpt>
      <trkpt lat="44.35842" lon="4.56102">
        <ele>243</ele>
        <time>2018-05-16T07:41:36.1Z</time>
      </trkpt>
      <trkpt lat="44.35847" lon="4.56094">
        <ele>243</ele>
        <time>2018-05-16T07:41:38.1Z</time>
      </trkpt>
      <trkpt lat="44.35854" lon="4.56081">
        <ele>243</ele>
        <time>2018-05-16T07:41:41.1Z</time>
      </trkpt>
      <trkpt lat="44.35863" lon="4.56068">
        <ele>244</ele>
        <time>2018-05-16T07:41:44.1Z</time>
      </trkpt>
      <trkpt lat="44.35869" lon="4.56059">
        <ele>244</ele>
        <time>2018-05-16T07:41:46.1Z</time>
      </trkpt>
      <trkpt lat="44.35878" lon="4.56046">
        <ele>244</ele>
        <time>2018-05-16T07:41:49.1Z</time>
      </trkpt>
      <trkpt lat="44.35885" lon="4.56036">
        <ele>244</ele>
        <time>2018-05-16T07:41:51.1Z</time>
      </trkpt>
      <trkpt lat="44.35894" lon="4.5602">
        <ele>244</ele>
        <time>2018-05-16T07:41:54.1Z</time>
      </trkpt>
      <trkpt lat="44.35899" lon="4.56009">
        <ele>244</ele>
        <time>2018-05-16T07:41:56.1Z</time>
      </trkpt>
      <trkpt lat="44.35904" lon="4.55996">
        <ele>244</ele>
        <time>2018-05-16T07:41:58.1Z</time>
      </trkpt>
      <trkpt lat="44.35912" lon="4.55976">
        <ele>243</ele>
        <time>2018-05-16T07:42:01.1Z</time>
      </trkpt>
      <trkpt lat="44.35918" lon="4.55957">
        <ele>243</ele>
        <time>2018-05-16T07:42:04.1Z</time>
      </trkpt>
      <trkpt lat="44.35923" lon="4.55943">
        <ele>243</ele>
        <time>2018-05-16T07:42:06.1Z</time>
      </trkpt>
      <trkpt lat="44.35927" lon="4.55926">
        <ele>243</ele>
        <time>2018-05-16T07:42:09.1Z</time>
      </trkpt>
      <trkpt lat="44.3593" lon="4.55909">
        <ele>244</ele>
        <time>2018-05-16T07:42:12.1Z</time>
      </trkpt>
      <trkpt lat="44.35934" lon="4.55891">
        <ele>245</ele>
        <time>2018-05-16T07:42:15.1Z</time>
      </trkpt>
      <trkpt lat="44.35936" lon="4.55878">
        <ele>246</ele>
        <time>2018-05-16T07:42:17.1Z</time>
      </trkpt>
      <trkpt lat="44.35939" lon="4.55859">
        <ele>247</ele>
        <time>2018-05-16T07:42:20.1Z</time>
      </trkpt>
      <trkpt lat="44.35941" lon="4.55846">
        <ele>247</ele>
        <time>2018-05-16T07:42:22.1Z</time>
      </trkpt>
      <trkpt lat="44.35943" lon="4.55833">
        <ele>247</ele>
        <time>2018-05-16T07:42:24.1Z</time>
      </trkpt>
      <trkpt lat="44.35946" lon="4.55812">
        <ele>247</ele>
        <time>2018-05-16T07:42:27.1Z</time>
      </trkpt>
      <trkpt lat="44.35947" lon="4.55799">
        <ele>247</ele>
        <time>2018-05-16T07:42:29.1Z</time>
      </trkpt>
      <trkpt lat="44.3595" lon="4.55779">
        <ele>248</ele>
        <time>2018-05-16T07:42:32.1Z</time>
      </trkpt>
      <trkpt lat="44.35952" lon="4.55765">
        <ele>248</ele>
        <time>2018-05-16T07:42:34.1Z</time>
      </trkpt>
      <trkpt lat="44.35954" lon="4.55752">
        <ele>248</ele>
        <time>2018-05-16T07:42:36.1Z</time>
      </trkpt>
      <trkpt lat="44.35956" lon="4.55739">
        <ele>248</ele>
        <time>2018-05-16T07:42:38.1Z</time>
      </trkpt>
      <trkpt lat="44.35958" lon="4.55719">
        <ele>249</ele>
        <time>2018-05-16T07:42:41.1Z</time>
      </trkpt>
      <trkpt lat="44.35961" lon="4.55706">
        <ele>249</ele>
        <time>2018-05-16T07:42:43.1Z</time>
      </trkpt>
      <trkpt lat="44.35964" lon="4.55686">
        <ele>249</ele>
        <time>2018-05-16T07:42:46.1Z</time>
      </trkpt>
      <trkpt lat="44.35966" lon="4.55673">
        <ele>250</ele>
        <time>2018-05-16T07:42:48.1Z</time>
      </trkpt>
      <trkpt lat="44.35969" lon="4.55653">
        <ele>250</ele>
        <time>2018-05-16T07:42:51.1Z</time>
      </trkpt>
      <trkpt lat="44.35972" lon="4.55634">
        <ele>250</ele>
        <time>2018-05-16T07:42:54.1Z</time>
      </trkpt>
      <trkpt lat="44.35975" lon="4.55613">
        <ele>250</ele>
        <time>2018-05-16T07:42:57.1Z</time>
      </trkpt>
      <trkpt lat="44.35978" lon="4.55592">
        <ele>251</ele>
        <time>2018-05-16T07:43:00.1Z</time>
      </trkpt>
      <trkpt lat="44.35981" lon="4.55578">
        <ele>251</ele>
        <time>2018-05-16T07:43:02.1Z</time>
      </trkpt>
      <trkpt lat="44.35984" lon="4.55556">
        <ele>251</ele>
        <time>2018-05-16T07:43:05.1Z</time>
      </trkpt>
      <trkpt lat="44.35987" lon="4.55542">
        <ele>251</ele>
        <time>2018-05-16T07:43:07.1Z</time>
      </trkpt>
      <trkpt lat="44.35992" lon="4.55528">
        <ele>251</ele>
        <time>2018-05-16T07:43:09.1Z</time>
      </trkpt>
      <trkpt lat="44.35998" lon="4.55507">
        <ele>251</ele>
        <time>2018-05-16T07:43:12.1Z</time>
      </trkpt>
      <trkpt lat="44.36003" lon="4.55494">
        <ele>251</ele>
        <time>2018-05-16T07:43:14.1Z</time>
      </trkpt>
      <trkpt lat="44.36011" lon="4.55475">
        <ele>252</ele>
        <time>2018-05-16T07:43:17.1Z</time>
      </trkpt>
      <trkpt lat="44.36017" lon="4.55462">
        <ele>251</ele>
        <time>2018-05-16T07:43:19.1Z</time>
      </trkpt>
      <trkpt lat="44.36026" lon="4.55445">
        <ele>251</ele>
        <time>2018-05-16T07:43:22.1Z</time>
      </trkpt>
      <trkpt lat="44.36033" lon="4.55435">
        <ele>251</ele>
        <time>2018-05-16T07:43:24.1Z</time>
      </trkpt>
      <trkpt lat="44.36043" lon="4.5542">
        <ele>250</ele>
        <time>2018-05-16T07:43:27.1Z</time>
      </trkpt>
      <trkpt lat="44.36053" lon="4.55407">
        <ele>250</ele>
        <time>2018-05-16T07:43:30.1Z</time>
      </trkpt>
      <trkpt lat="44.36062" lon="4.55396">
        <ele>250</ele>
        <time>2018-05-16T07:43:33.1Z</time>
      </trkpt>
      <trkpt lat="44.36072" lon="4.55384">
        <ele>251</ele>
        <time>2018-05-16T07:43:36.1Z</time>
      </trkpt>
      <trkpt lat="44.3608" lon="4.55377">
        <ele>251</ele>
        <time>2018-05-16T07:43:38.1Z</time>
      </trkpt>
      <trkpt lat="44.36092" lon="4.55367">
        <ele>251</ele>
        <time>2018-05-16T07:43:41.1Z</time>
      </trkpt>
      <trkpt lat="44.36106" lon="4.55357">
        <ele>251</ele>
        <time>2018-05-16T07:43:44.1Z</time>
      </trkpt>
      <trkpt lat="44.36121" lon="4.55349">
        <ele>251</ele>
        <time>2018-05-16T07:43:47.1Z</time>
      </trkpt>
      <trkpt lat="44.3613" lon="4.55344">
        <ele>251</ele>
        <time>2018-05-16T07:43:49.1Z</time>
      </trkpt>
      <trkpt lat="44.3614" lon="4.55341">
        <ele>251</ele>
        <time>2018-05-16T07:43:51.1Z</time>
      </trkpt>
      <trkpt lat="44.36155" lon="4.55336">
        <ele>252</ele>
        <time>2018-05-16T07:43:54.1Z</time>
      </trkpt>
      <trkpt lat="44.36165" lon="4.55334">
        <ele>251</ele>
        <time>2018-05-16T07:43:56.1Z</time>
      </trkpt>
      <trkpt lat="44.36175" lon="4.55331">
        <ele>251</ele>
        <time>2018-05-16T07:43:58.1Z</time>
      </trkpt>
      <trkpt lat="44.36185" lon="4.55328">
        <ele>251</ele>
        <time>2018-05-16T07:44:00.1Z</time>
      </trkpt>
      <trkpt lat="44.36195" lon="4.55323">
        <ele>251</ele>
        <time>2018-05-16T07:44:02.1Z</time>
      </trkpt>
      <trkpt lat="44.36209" lon="4.55315">
        <ele>252</ele>
        <time>2018-05-16T07:44:05.1Z</time>
      </trkpt>
      <trkpt lat="44.36218" lon="4.55308">
        <ele>252</ele>
        <time>2018-05-16T07:44:07.1Z</time>
      </trkpt>
      <trkpt lat="44.3623" lon="4.55296">
        <ele>252</ele>
        <time>2018-05-16T07:44:10.1Z</time>
      </trkpt>
      <trkpt lat="44.36241" lon="4.55283">
        <ele>252</ele>
        <time>2018-05-16T07:44:13.1Z</time>
      </trkpt>
      <trkpt lat="44.36249" lon="4.5527">
        <ele>252</ele>
        <time>2018-05-16T07:44:16.1Z</time>
      </trkpt>
      <trkpt lat="44.36256" lon="4.55256">
        <ele>253</ele>
        <time>2018-05-16T07:44:19.1Z</time>
      </trkpt>
      <trkpt lat="44.3626" lon="4.55246">
        <ele>253</ele>
        <time>2018-05-16T07:44:21.1Z</time>
      </trkpt>
      <trkpt lat="44.36264" lon="4.55237">
        <ele>253</ele>
        <time>2018-05-16T07:44:23.1Z</time>
      </trkpt>
      <trkpt lat="44.36269" lon="4.55221">
        <ele>253</ele>
        <time>2018-05-16T07:44:26.1Z</time>
      </trkpt>
      <trkpt lat="44.36273" lon="4.55204">
        <ele>253</ele>
        <time>2018-05-16T07:44:29.1Z</time>
      </trkpt>
      <trkpt lat="44.36274" lon="4.55192">
        <ele>253</ele>
        <time>2018-05-16T07:44:31.1Z</time>
      </trkpt>
      <trkpt lat="44.36274" lon="4.55174">
        <ele>254</ele>
        <time>2018-05-16T07:44:34.1Z</time>
      </trkpt>
      <trkpt lat="44.36274" lon="4.55162">
        <ele>254</ele>
        <time>2018-05-16T07:44:36.1Z</time>
      </trkpt>
      <trkpt lat="44.36273" lon="4.55145">
        <ele>255</ele>
        <time>2018-05-16T07:44:39.1Z</time>
      </trkpt>
      <trkpt lat="44.36271" lon="4.55128">
        <ele>255</ele>
        <time>2018-05-16T07:44:42.1Z</time>
      </trkpt>
      <trkpt lat="44.36269" lon="4.55118">
        <ele>255</ele>
        <time>2018-05-16T07:44:44.1Z</time>
      </trkpt>
      <trkpt lat="44.36264" lon="4.55102">
        <ele>256</ele>
        <time>2018-05-16T07:44:47.1Z</time>
      </trkpt>
      <trkpt lat="44.36259" lon="4.55086">
        <ele>256</ele>
        <time>2018-05-16T07:44:50.1Z</time>
      </trkpt>
      <trkpt lat="44.36253" lon="4.55071">
        <ele>256</ele>
        <time>2018-05-16T07:44:53.1Z</time>
      </trkpt>
      <trkpt lat="44.36249" lon="4.55062">
        <ele>257</ele>
        <time>2018-05-16T07:44:55.1Z</time>
      </trkpt>
      <trkpt lat="44.36243" lon="4.55047">
        <ele>257</ele>
        <time>2018-05-16T07:44:58.1Z</time>
      </trkpt>
      <trkpt lat="44.36237" lon="4.55031">
        <ele>258</ele>
        <time>2018-05-16T07:45:01.1Z</time>
      </trkpt>
      <trkpt lat="44.36231" lon="4.55016">
        <ele>258</ele>
        <time>2018-05-16T07:45:04.1Z</time>
      </trkpt>
      <trkpt lat="44.36227" lon="4.55007">
        <ele>258</ele>
        <time>2018-05-16T07:45:06.1Z</time>
      </trkpt>
      <trkpt lat="44.36222" lon="4.54992">
        <ele>258</ele>
        <time>2018-05-16T07:45:09.1Z</time>
      </trkpt>
      <trkpt lat="44.36219" lon="4.54982">
        <ele>258</ele>
        <time>2018-05-16T07:45:11.1Z</time>
      </trkpt>
      <trkpt lat="44.36214" lon="4.54972">
        <ele>258</ele>
        <time>2018-05-16T07:45:13.1Z</time>
      </trkpt>
      <trkpt lat="44.36208" lon="4.54957">
        <ele>259</ele>
        <time>2018-05-16T07:45:16.1Z</time>
      </trkpt>
      <trkpt lat="44.36203" lon="4.54943">
        <ele>259</ele>
        <time>2018-05-16T07:45:19.1Z</time>
      </trkpt>
      <trkpt lat="44.36197" lon="4.54928">
        <ele>259</ele>
        <time>2018-05-16T07:45:22.1Z</time>
      </trkpt>
      <trkpt lat="44.36193" lon="4.54919">
        <ele>260</ele>
        <time>2018-05-16T07:45:24.1Z</time>
      </trkpt>
      <trkpt lat="44.36189" lon="4.54909">
        <ele>260</ele>
        <time>2018-05-16T07:45:26.1Z</time>
      </trkpt>
      <trkpt lat="44.36185" lon="4.54899">
        <ele>261</ele>
        <time>2018-05-16T07:45:28.1Z</time>
      </trkpt>
      <trkpt lat="44.36179" lon="4.54884">
        <ele>261</ele>
        <time>2018-05-16T07:45:31.1Z</time>
      </trkpt>
      <trkpt lat="44.36174" lon="4.54874">
        <ele>261</ele>
        <time>2018-05-16T07:45:33.1Z</time>
      </trkpt>
      <trkpt lat="44.36167" lon="4.54859">
        <ele>261</ele>
        <time>2018-05-16T07:45:36.1Z</time>
      </trkpt>
      <trkpt lat="44.3616" lon="4.54845">
        <ele>261</ele>
        <time>2018-05-16T07:45:39.1Z</time>
      </trkpt>
      <trkpt lat="44.36155" lon="4.54836">
        <ele>262</ele>
        <time>2018-05-16T07:45:41.1Z</time>
      </trkpt>
      <trkpt lat="44.36146" lon="4.54823">
        <ele>262</ele>
        <time>2018-05-16T07:45:44.1Z</time>
      </trkpt>
      <trkpt lat="44.36137" lon="4.54811">
        <ele>262</ele>
        <time>2018-05-16T07:45:47.1Z</time>
      </trkpt>
      <trkpt lat="44.36128" lon="4.54799">
        <ele>262</ele>
        <time>2018-05-16T07:45:50.1Z</time>
      </trkpt>
      <trkpt lat="44.36119" lon="4.54787">
        <ele>262</ele>
        <time>2018-05-16T07:45:53.1Z</time>
      </trkpt>
      <trkpt lat="44.3611" lon="4.54775">
        <ele>262</ele>
        <time>2018-05-16T07:45:56.1Z</time>
      </trkpt>
      <trkpt lat="44.36103" lon="4.54768">
        <ele>263</ele>
        <time>2018-05-16T07:45:58.1Z</time>
      </trkpt>
      <trkpt lat="44.36097" lon="4.5476">
        <ele>263</ele>
        <time>2018-05-16T07:46:00.1Z</time>
      </trkpt>
      <trkpt lat="44.36088" lon="4.54748">
        <ele>264</ele>
        <time>2018-05-16T07:46:03.1Z</time>
      </trkpt>
      <trkpt lat="44.36079" lon="4.54737">
        <ele>264</ele>
        <time>2018-05-16T07:46:06.1Z</time>
      </trkpt>
      <trkpt lat="44.36072" lon="4.5473">
        <ele>264</ele>
        <time>2018-05-16T07:46:08.1Z</time>
      </trkpt>
      <trkpt lat="44.36066" lon="4.54722">
        <ele>265</ele>
        <time>2018-05-16T07:46:10.1Z</time>
      </trkpt>
      <trkpt lat="44.36059" lon="4.54715">
        <ele>265</ele>
        <time>2018-05-16T07:46:12.1Z</time>
      </trkpt>
      <trkpt lat="44.36048" lon="4.54705">
        <ele>265</ele>
        <time>2018-05-16T07:46:15.1Z</time>
      </trkpt>
      <trkpt lat="44.3604" lon="4.54699">
        <ele>265</ele>
        <time>2018-05-16T07:46:17.1Z</time>
      </trkpt>
      <trkpt lat="44.36033" lon="4.54693">
        <ele>266</ele>
        <time>2018-05-16T07:46:19.1Z</time>
      </trkpt>
      <trkpt lat="44.36026" lon="4.54687">
        <ele>266</ele>
        <time>2018-05-16T07:46:21.1Z</time>
      </trkpt>
      <trkpt lat="44.36018" lon="4.54681">
        <ele>266</ele>
        <time>2018-05-16T07:46:23.1Z</time>
      </trkpt>
      <trkpt lat="44.36007" lon="4.54673">
        <ele>266</ele>
        <time>2018-05-16T07:46:26.1Z</time>
      </trkpt>
      <trkpt lat="44.35999" lon="4.54668">
        <ele>266</ele>
        <time>2018-05-16T07:46:28.1Z</time>
      </trkpt>
      <trkpt lat="44.35988" lon="4.54659">
        <ele>266</ele>
        <time>2018-05-16T07:46:31.1Z</time>
      </trkpt>
      <trkpt lat="44.35981" lon="4.54654">
        <ele>266</ele>
        <time>2018-05-16T07:46:33.1Z</time>
      </trkpt>
      <trkpt lat="44.35973" lon="4.54648">
        <ele>267</ele>
        <time>2018-05-16T07:46:35.1Z</time>
      </trkpt>
      <trkpt lat="44.35965" lon="4.54642">
        <ele>267</ele>
        <time>2018-05-16T07:46:37.1Z</time>
      </trkpt>
      <trkpt lat="44.35954" lon="4.54634">
        <ele>267</ele>
        <time>2018-05-16T07:46:40.1Z</time>
      </trkpt>
      <trkpt lat="44.35947" lon="4.54629">
        <ele>268</ele>
        <time>2018-05-16T07:46:42.1Z</time>
      </trkpt>
      <trkpt lat="44.35939" lon="4.54624">
        <ele>268</ele>
        <time>2018-05-16T07:46:44.1Z</time>
      </trkpt>
      <trkpt lat="44.35928" lon="4.54615">
        <ele>268</ele>
        <time>2018-05-16T07:46:47.1Z</time>
      </trkpt>
      <trkpt lat="44.35917" lon="4.54607">
        <ele>268</ele>
        <time>2018-05-16T07:46:50.1Z</time>
      </trkpt>
      <trkpt lat="44.3591" lon="4.54601">
        <ele>269</ele>
        <time>2018-05-16T07:46:52.1Z</time>
      </trkpt>
      <trkpt lat="44.35901" lon="4.54589">
        <ele>269</ele>
        <time>2018-05-16T07:46:55.1Z</time>
      </trkpt>
      <trkpt lat="44.35896" lon="4.5458">
        <ele>270</ele>
        <time>2018-05-16T07:46:57.1Z</time>
      </trkpt>
      <trkpt lat="44.35889" lon="4.54565">
        <ele>270</ele>
        <time>2018-05-16T07:47:00.1Z</time>
      </trkpt>
      <trkpt lat="44.35885" lon="4.54548">
        <ele>269</ele>
        <time>2018-05-16T07:47:03.1Z</time>
      </trkpt>
      <trkpt lat="44.35884" lon="4.54537">
        <ele>270</ele>
        <time>2018-05-16T07:47:05.1Z</time>
      </trkpt>
      <trkpt lat="44.35883" lon="4.5452">
        <ele>270</ele>
        <time>2018-05-16T07:47:08.1Z</time>
      </trkpt>
      <trkpt lat="44.35885" lon="4.54503">
        <ele>270</ele>
        <time>2018-05-16T07:47:11.1Z</time>
      </trkpt>
      <trkpt lat="44.35888" lon="4.54491">
        <ele>270</ele>
        <time>2018-05-16T07:47:13.1Z</time>
      </trkpt>
      <trkpt lat="44.35894" lon="4.54475">
        <ele>271</ele>
        <time>2018-05-16T07:47:16.1Z</time>
      </trkpt>
      <trkpt lat="44.359" lon="4.54466">
        <ele>271</ele>
        <time>2018-05-16T07:47:18.1Z</time>
      </trkpt>
      <trkpt lat="44.35909" lon="4.54453">
        <ele>271</ele>
        <time>2018-05-16T07:47:21.1Z</time>
      </trkpt>
      <trkpt lat="44.35914" lon="4.54444">
        <ele>271</ele>
        <time>2018-05-16T07:47:23.1Z</time>
      </trkpt>
      <trkpt lat="44.35923" lon="4.5443">
        <ele>272</ele>
        <time>2018-05-16T07:47:26.1Z</time>
      </trkpt>
      <trkpt lat="44.35929" lon="4.54421">
        <ele>272</ele>
        <time>2018-05-16T07:47:28.1Z</time>
      </trkpt>
      <trkpt lat="44.35935" lon="4.54412">
        <ele>272</ele>
        <time>2018-05-16T07:47:30.1Z</time>
      </trkpt>
      <trkpt lat="44.35944" lon="4.54398">
        <ele>272</ele>
        <time>2018-05-16T07:47:33.1Z</time>
      </trkpt>
      <trkpt lat="44.35954" lon="4.54384">
        <ele>272</ele>
        <time>2018-05-16T07:47:36.1Z</time>
      </trkpt>
      <trkpt lat="44.35963" lon="4.5437">
        <ele>272</ele>
        <time>2018-05-16T07:47:39.1Z</time>
      </trkpt>
      <trkpt lat="44.35972" lon="4.54356">
        <ele>272</ele>
        <time>2018-05-16T07:47:42.1Z</time>
      </trkpt>
      <trkpt lat="44.35979" lon="4.54347">
        <ele>272</ele>
        <time>2018-05-16T07:47:44.1Z</time>
      </trkpt>
      <trkpt lat="44.35985" lon="4.54337">
        <ele>272</ele>
        <time>2018-05-16T07:47:46.1Z</time>
      </trkpt>
      <trkpt lat="44.35994" lon="4.54323">
        <ele>271</ele>
        <time>2018-05-16T07:47:49.1Z</time>
      </trkpt>
      <trkpt lat="44.36003" lon="4.54309">
        <ele>271</ele>
        <time>2018-05-16T07:47:52.1Z</time>
      </trkpt>
      <trkpt lat="44.36013" lon="4.54294">
        <ele>271</ele>
        <time>2018-05-16T07:47:55.1Z</time>
      </trkpt>
      <trkpt lat="44.36023" lon="4.5428">
        <ele>271</ele>
        <time>2018-05-16T07:47:58.1Z</time>
      </trkpt>
      <trkpt lat="44.36032" lon="4.54266">
        <ele>272</ele>
        <time>2018-05-16T07:48:01.1Z</time>
      </trkpt>
      <trkpt lat="44.36038" lon="4.54256">
        <ele>272</ele>
        <time>2018-05-16T07:48:03.1Z</time>
      </trkpt>
      <trkpt lat="44.36044" lon="4.54246">
        <ele>272</ele>
        <time>2018-05-16T07:48:05.1Z</time>
      </trkpt>
      <trkpt lat="44.36054" lon="4.54232">
        <ele>272</ele>
        <time>2018-05-16T07:48:08.1Z</time>
      </trkpt>
      <trkpt lat="44.3606" lon="4.54222">
        <ele>273</ele>
        <time>2018-05-16T07:48:10.1Z</time>
      </trkpt>
      <trkpt lat="44.3607" lon="4.54208">
        <ele>273</ele>
        <time>2018-05-16T07:48:13.1Z</time>
      </trkpt>
      <trkpt lat="44.36079" lon="4.54193">
        <ele>273</ele>
        <time>2018-05-16T07:48:16.1Z</time>
      </trkpt>
      <trkpt lat="44.36089" lon="4.54179">
        <ele>272</ele>
        <time>2018-05-16T07:48:19.1Z</time>
      </trkpt>
      <trkpt lat="44.36095" lon="4.5417">
        <ele>272</ele>
        <time>2018-05-16T07:48:21.1Z</time>
      </trkpt>
      <trkpt lat="44.36106" lon="4.54154">
        <ele>272</ele>
        <time>2018-05-16T07:48:24.1Z</time>
      </trkpt>
      <trkpt lat="44.36113" lon="4.54143">
        <ele>272</ele>
        <time>2018-05-16T07:48:26.1Z</time>
      </trkpt>
      <trkpt lat="44.36125" lon="4.54125">
        <ele>271</ele>
        <time>2018-05-16T07:48:29.1Z</time>
      </trkpt>
      <trkpt lat="44.36133" lon="4.54112">
        <ele>271</ele>
        <time>2018-05-16T07:48:31.1Z</time>
      </trkpt>
      <trkpt lat="44.36146" lon="4.54092">
        <ele>272</ele>
        <time>2018-05-16T07:48:34.1Z</time>
      </trkpt>
      <trkpt lat="44.3616" lon="4.54071">
        <ele>272</ele>
        <time>2018-05-16T07:48:37.1Z</time>
      </trkpt>
      <trkpt lat="44.36174" lon="4.5405">
        <ele>270</ele>
        <time>2018-05-16T07:48:40.1Z</time>
      </trkpt>
      <trkpt lat="44.36187" lon="4.5403">
        <ele>269</ele>
        <time>2018-05-16T07:48:43.1Z</time>
      </trkpt>
      <trkpt lat="44.36196" lon="4.54017">
        <ele>268</ele>
        <time>2018-05-16T07:48:45.1Z</time>
      </trkpt>
      <trkpt lat="44.36207" lon="4.54">
        <ele>269</ele>
        <time>2018-05-16T07:48:48.1Z</time>
      </trkpt>
      <trkpt lat="44.36214" lon="4.53989">
        <ele>268</ele>
        <time>2018-05-16T07:48:50.1Z</time>
      </trkpt>
      <trkpt lat="44.36221" lon="4.53978">
        <ele>268</ele>
        <time>2018-05-16T07:48:52.1Z</time>
      </trkpt>
      <trkpt lat="44.36227" lon="4.53969">
        <ele>269</ele>
        <time>2018-05-16T07:48:54.1Z</time>
      </trkpt>
      <trkpt lat="44.36234" lon="4.53959">
        <ele>269</ele>
        <time>2018-05-16T07:48:56.1Z</time>
      </trkpt>
      <trkpt lat="44.36242" lon="4.53946">
        <ele>269</ele>
        <time>2018-05-16T07:48:59.1Z</time>
      </trkpt>
      <trkpt lat="44.36248" lon="4.53937">
        <ele>270</ele>
        <time>2018-05-16T07:49:01.1Z</time>
      </trkpt>
      <trkpt lat="44.36254" lon="4.53929">
        <ele>270</ele>
        <time>2018-05-16T07:49:03.1Z</time>
      </trkpt>
      <trkpt lat="44.36262" lon="4.53916">
        <ele>271</ele>
        <time>2018-05-16T07:49:06.1Z</time>
      </trkpt>
      <trkpt lat="44.36271" lon="4.53903">
        <ele>271</ele>
        <time>2018-05-16T07:49:09.1Z</time>
      </trkpt>
      <trkpt lat="44.36279" lon="4.5389">
        <ele>271</ele>
        <time>2018-05-16T07:49:12.1Z</time>
      </trkpt>
      <trkpt lat="44.36285" lon="4.53882">
        <ele>271</ele>
        <time>2018-05-16T07:49:14.1Z</time>
      </trkpt>
      <trkpt lat="44.3629" lon="4.53873">
        <ele>271</ele>
        <time>2018-05-16T07:49:16.1Z</time>
      </trkpt>
      <trkpt lat="44.36296" lon="4.53865">
        <ele>272</ele>
        <time>2018-05-16T07:49:18.1Z</time>
      </trkpt>
      <trkpt lat="44.36305" lon="4.53852">
        <ele>272</ele>
        <time>2018-05-16T07:49:21.1Z</time>
      </trkpt>
      <trkpt lat="44.36311" lon="4.53844">
        <ele>272</ele>
        <time>2018-05-16T07:49:23.1Z</time>
      </trkpt>
      <trkpt lat="44.3632" lon="4.5383">
        <ele>273</ele>
        <time>2018-05-16T07:49:26.1Z</time>
      </trkpt>
      <trkpt lat="44.36325" lon="4.53822">
        <ele>273</ele>
        <time>2018-05-16T07:49:28.1Z</time>
      </trkpt>
      <trkpt lat="44.36331" lon="4.53813">
        <ele>273</ele>
        <time>2018-05-16T07:49:30.1Z</time>
      </trkpt>
      <trkpt lat="44.36339" lon="4.538">
        <ele>274</ele>
        <time>2018-05-16T07:49:33.1Z</time>
      </trkpt>
      <trkpt lat="44.36345" lon="4.53792">
        <ele>274</ele>
        <time>2018-05-16T07:49:35.1Z</time>
      </trkpt>
      <trkpt lat="44.36351" lon="4.53783">
        <ele>275</ele>
        <time>2018-05-16T07:49:37.1Z</time>
      </trkpt>
      <trkpt lat="44.36361" lon="4.53769">
        <ele>275</ele>
        <time>2018-05-16T07:49:40.1Z</time>
      </trkpt>
      <trkpt lat="44.36367" lon="4.5376">
        <ele>275</ele>
        <time>2018-05-16T07:49:42.1Z</time>
      </trkpt>
      <trkpt lat="44.36376" lon="4.53747">
        <ele>275</ele>
        <time>2018-05-16T07:49:45.1Z</time>
      </trkpt>
      <trkpt lat="44.36382" lon="4.53738">
        <ele>275</ele>
        <time>2018-05-16T07:49:47.1Z</time>
      </trkpt>
      <trkpt lat="44.36388" lon="4.53729">
        <ele>276</ele>
        <time>2018-05-16T07:49:49.1Z</time>
      </trkpt>
      <trkpt lat="44.36397" lon="4.53717">
        <ele>276</ele>
        <time>2018-05-16T07:49:52.1Z</time>
      </trkpt>
      <trkpt lat="44.36406" lon="4.53705">
        <ele>276</ele>
        <time>2018-05-16T07:49:55.1Z</time>
      </trkpt>
      <trkpt lat="44.36411" lon="4.53698">
        <ele>276</ele>
        <time>2018-05-16T07:49:57.1Z</time>
      </trkpt>
      <trkpt lat="44.36419" lon="4.53688">
        <ele>276</ele>
        <time>2018-05-16T07:50:00.1Z</time>
      </trkpt>
      <trkpt lat="44.36423" lon="4.53682">
        <ele>276</ele>
        <time>2018-05-16T07:50:02.1Z</time>
      </trkpt>
      <trkpt lat="44.36431" lon="4.53671">
        <ele>275</ele>
        <time>2018-05-16T07:50:05.1Z</time>
      </trkpt>
      <trkpt lat="44.36437" lon="4.53663">
        <ele>276</ele>
        <time>2018-05-16T07:50:07.1Z</time>
      </trkpt>
      <trkpt lat="44.36447" lon="4.5365">
        <ele>277</ele>
        <time>2018-05-16T07:50:10.1Z</time>
      </trkpt>
      <trkpt lat="44.36453" lon="4.53642">
        <ele>277</ele>
        <time>2018-05-16T07:50:12.1Z</time>
      </trkpt>
      <trkpt lat="44.36462" lon="4.53629">
        <ele>278</ele>
        <time>2018-05-16T07:50:15.1Z</time>
      </trkpt>
      <trkpt lat="44.36469" lon="4.53621">
        <ele>277</ele>
        <time>2018-05-16T07:50:17.1Z</time>
      </trkpt>
      <trkpt lat="44.3648" lon="4.53608">
        <ele>278</ele>
        <time>2018-05-16T07:50:20.1Z</time>
      </trkpt>
      <trkpt lat="44.36488" lon="4.53599">
        <ele>278</ele>
        <time>2018-05-16T07:50:22.1Z</time>
      </trkpt>
      <trkpt lat="44.36498" lon="4.53586">
        <ele>278</ele>
        <time>2018-05-16T07:50:25.1Z</time>
      </trkpt>
      <trkpt lat="44.36509" lon="4.53576">
        <ele>277</ele>
        <time>2018-05-16T07:50:28.1Z</time>
      </trkpt>
      <trkpt lat="44.36516" lon="4.53569">
        <ele>277</ele>
        <time>2018-05-16T07:50:30.1Z</time>
      </trkpt>
      <trkpt lat="44.36523" lon="4.53561">
        <ele>277</ele>
        <time>2018-05-16T07:50:32.1Z</time>
      </trkpt>
      <trkpt lat="44.36532" lon="4.53553">
        <ele>277</ele>
        <time>2018-05-16T07:50:34.1Z</time>
      </trkpt>
      <trkpt lat="44.3654" lon="4.53544">
        <ele>277</ele>
        <time>2018-05-16T07:50:36.1Z</time>
      </trkpt>
      <trkpt lat="44.36549" lon="4.53535">
        <ele>277</ele>
        <time>2018-05-16T07:50:38.1Z</time>
      </trkpt>
      <trkpt lat="44.36563" lon="4.53522">
        <ele>277</ele>
        <time>2018-05-16T07:50:41.1Z</time>
      </trkpt>
      <trkpt lat="44.36576" lon="4.5351">
        <ele>276</ele>
        <time>2018-05-16T07:50:44.1Z</time>
      </trkpt>
      <trkpt lat="44.36585" lon="4.53502">
        <ele>277</ele>
        <time>2018-05-16T07:50:46.1Z</time>
      </trkpt>
      <trkpt lat="44.36597" lon="4.53491">
        <ele>276</ele>
        <time>2018-05-16T07:50:49.1Z</time>
      </trkpt>
      <trkpt lat="44.36605" lon="4.53483">
        <ele>277</ele>
        <time>2018-05-16T07:50:51.1Z</time>
      </trkpt>
      <trkpt lat="44.36613" lon="4.5347">
        <ele>277</ele>
        <time>2018-05-16T07:50:54.1Z</time>
      </trkpt>
      <trkpt lat="44.36618" lon="4.53454">
        <ele>278</ele>
        <time>2018-05-16T07:50:57.1Z</time>
      </trkpt>
      <trkpt lat="44.36618" lon="4.53443">
        <ele>278</ele>
        <time>2018-05-16T07:50:59.1Z</time>
      </trkpt>
      <trkpt lat="44.36616" lon="4.53427">
        <ele>278</ele>
        <time>2018-05-16T07:51:02.1Z</time>
      </trkpt>
      <trkpt lat="44.3661" lon="4.53413">
        <ele>279</ele>
        <time>2018-05-16T07:51:05.1Z</time>
      </trkpt>
      <trkpt lat="44.36603" lon="4.53399">
        <ele>281</ele>
        <time>2018-05-16T07:51:08.1Z</time>
      </trkpt>
      <trkpt lat="44.36599" lon="4.5339">
        <ele>281</ele>
        <time>2018-05-16T07:51:10.1Z</time>
      </trkpt>
      <trkpt lat="44.36593" lon="4.53377">
        <ele>281</ele>
        <time>2018-05-16T07:51:13.1Z</time>
      </trkpt>
      <trkpt lat="44.36589" lon="4.53369">
        <ele>282</ele>
        <time>2018-05-16T07:51:15.1Z</time>
      </trkpt>
      <trkpt lat="44.36585" lon="4.53361">
        <ele>282</ele>
        <time>2018-05-16T07:51:17.1Z</time>
      </trkpt>
      <trkpt lat="44.36581" lon="4.53352">
        <ele>282</ele>
        <time>2018-05-16T07:51:19.1Z</time>
      </trkpt>
      <trkpt lat="44.36575" lon="4.5334">
        <ele>282</ele>
        <time>2018-05-16T07:51:22.1Z</time>
      </trkpt>
      <trkpt lat="44.36571" lon="4.53331">
        <ele>282</ele>
        <time>2018-05-16T07:51:24.1Z</time>
      </trkpt>
      <trkpt lat="44.36567" lon="4.53322">
        <ele>282</ele>
        <time>2018-05-16T07:51:26.1Z</time>
      </trkpt>
      <trkpt lat="44.36563" lon="4.53308">
        <ele>284</ele>
        <time>2018-05-16T07:51:29.1Z</time>
      </trkpt>
      <trkpt lat="44.36561" lon="4.53298">
        <ele>284</ele>
        <time>2018-05-16T07:51:31.1Z</time>
      </trkpt>
      <trkpt lat="44.36559" lon="4.53281">
        <ele>285</ele>
        <time>2018-05-16T07:51:34.1Z</time>
      </trkpt>
      <trkpt lat="44.36559" lon="4.5327">
        <ele>285</ele>
        <time>2018-05-16T07:51:36.1Z</time>
      </trkpt>
      <trkpt lat="44.36559" lon="4.53254">
        <ele>285</ele>
        <time>2018-05-16T07:51:39.1Z</time>
      </trkpt>
      <trkpt lat="44.36559" lon="4.53243">
        <ele>286</ele>
        <time>2018-05-16T07:51:41.1Z</time>
      </trkpt>
      <trkpt lat="44.3656" lon="4.53232">
        <ele>286</ele>
        <time>2018-05-16T07:51:43.1Z</time>
      </trkpt>
      <trkpt lat="44.3656" lon="4.53215">
        <ele>287</ele>
        <time>2018-05-16T07:51:46.1Z</time>
      </trkpt>
      <trkpt lat="44.3656" lon="4.53203">
        <ele>287</ele>
        <time>2018-05-16T07:51:48.1Z</time>
      </trkpt>
      <trkpt lat="44.3656" lon="4.53193">
        <ele>287</ele>
        <time>2018-05-16T07:51:50.1Z</time>
      </trkpt>
      <trkpt lat="44.36557" lon="4.53177">
        <ele>287</ele>
        <time>2018-05-16T07:51:53.1Z</time>
      </trkpt>
      <trkpt lat="44.36554" lon="4.53166">
        <ele>288</ele>
        <time>2018-05-16T07:51:55.1Z</time>
      </trkpt>
      <trkpt lat="44.36551" lon="4.5315">
        <ele>288</ele>
        <time>2018-05-16T07:51:58.1Z</time>
      </trkpt>
      <trkpt lat="44.36549" lon="4.5314">
        <ele>288</ele>
        <time>2018-05-16T07:52:00.1Z</time>
      </trkpt>
      <trkpt lat="44.36546" lon="4.53129">
        <ele>289</ele>
        <time>2018-05-16T07:52:02.1Z</time>
      </trkpt>
      <trkpt lat="44.36544" lon="4.53117">
        <ele>289</ele>
        <time>2018-05-16T07:52:04.1Z</time>
      </trkpt>
      <trkpt lat="44.36541" lon="4.53106">
        <ele>290</ele>
        <time>2018-05-16T07:52:06.1Z</time>
      </trkpt>
      <trkpt lat="44.36538" lon="4.53095">
        <ele>290</ele>
        <time>2018-05-16T07:52:08.1Z</time>
      </trkpt>
      <trkpt lat="44.36535" lon="4.53079">
        <ele>290</ele>
        <time>2018-05-16T07:52:11.1Z</time>
      </trkpt>
      <trkpt lat="44.36532" lon="4.53067">
        <ele>291</ele>
        <time>2018-05-16T07:52:13.1Z</time>
      </trkpt>
      <trkpt lat="44.36528" lon="4.53051">
        <ele>291</ele>
        <time>2018-05-16T07:52:16.1Z</time>
      </trkpt>
      <trkpt lat="44.36524" lon="4.53035">
        <ele>291</ele>
        <time>2018-05-16T07:52:19.1Z</time>
      </trkpt>
      <trkpt lat="44.36522" lon="4.53025">
        <ele>292</ele>
        <time>2018-05-16T07:52:21.1Z</time>
      </trkpt>
      <trkpt lat="44.3652" lon="4.53015">
        <ele>292</ele>
        <time>2018-05-16T07:52:23.1Z</time>
      </trkpt>
      <trkpt lat="44.36519" lon="4.52999">
        <ele>293</ele>
        <time>2018-05-16T07:52:26.1Z</time>
      </trkpt>
      <trkpt lat="44.3652" lon="4.52983">
        <ele>293</ele>
        <time>2018-05-16T07:52:29.1Z</time>
      </trkpt>
      <trkpt lat="44.36522" lon="4.52967">
        <ele>293</ele>
        <time>2018-05-16T07:52:32.1Z</time>
      </trkpt>
      <trkpt lat="44.36525" lon="4.52956">
        <ele>293</ele>
        <time>2018-05-16T07:52:34.1Z</time>
      </trkpt>
      <trkpt lat="44.36532" lon="4.52942">
        <ele>294</ele>
        <time>2018-05-16T07:52:37.1Z</time>
      </trkpt>
      <trkpt lat="44.36537" lon="4.52933">
        <ele>294</ele>
        <time>2018-05-16T07:52:39.1Z</time>
      </trkpt>
      <trkpt lat="44.36544" lon="4.52925">
        <ele>294</ele>
        <time>2018-05-16T07:52:41.1Z</time>
      </trkpt>
      <trkpt lat="44.36554" lon="4.52915">
        <ele>295</ele>
        <time>2018-05-16T07:52:44.1Z</time>
      </trkpt>
      <trkpt lat="44.36561" lon="4.52909">
        <ele>295</ele>
        <time>2018-05-16T07:52:46.1Z</time>
      </trkpt>
      <trkpt lat="44.36568" lon="4.52903">
        <ele>295</ele>
        <time>2018-05-16T07:52:48.1Z</time>
      </trkpt>
      <trkpt lat="44.36575" lon="4.52897">
        <ele>296</ele>
        <time>2018-05-16T07:52:50.1Z</time>
      </trkpt>
      <trkpt lat="44.36586" lon="4.52889">
        <ele>296</ele>
        <time>2018-05-16T07:52:53.1Z</time>
      </trkpt>
      <trkpt lat="44.36594" lon="4.52884">
        <ele>296</ele>
        <time>2018-05-16T07:52:55.1Z</time>
      </trkpt>
      <trkpt lat="44.36605" lon="4.52876">
        <ele>297</ele>
        <time>2018-05-16T07:52:58.1Z</time>
      </trkpt>
      <trkpt lat="44.36615" lon="4.52868">
        <ele>297</ele>
        <time>2018-05-16T07:53:01.1Z</time>
      </trkpt>
      <trkpt lat="44.36626" lon="4.52859">
        <ele>298</ele>
        <time>2018-05-16T07:53:04.1Z</time>
      </trkpt>
      <trkpt lat="44.36633" lon="4.52852">
        <ele>298</ele>
        <time>2018-05-16T07:53:06.1Z</time>
      </trkpt>
      <trkpt lat="44.36643" lon="4.52842">
        <ele>298</ele>
        <time>2018-05-16T07:53:09.1Z</time>
      </trkpt>
      <trkpt lat="44.36649" lon="4.52833">
        <ele>298</ele>
        <time>2018-05-16T07:53:11.1Z</time>
      </trkpt>
      <trkpt lat="44.36656" lon="4.5282">
        <ele>298</ele>
        <time>2018-05-16T07:53:14.1Z</time>
      </trkpt>
      <trkpt lat="44.36661" lon="4.5281">
        <ele>299</ele>
        <time>2018-05-16T07:53:16.1Z</time>
      </trkpt>
      <trkpt lat="44.36664" lon="4.52801">
        <ele>299</ele>
        <time>2018-05-16T07:53:18.1Z</time>
      </trkpt>
      <trkpt lat="44.36667" lon="4.52794">
        <ele>299</ele>
        <time>2018-05-16T07:53:20.1Z</time>
      </trkpt>
      <trkpt lat="44.36669" lon="4.52788">
        <ele>299</ele>
        <time>2018-05-16T07:53:22.1Z</time>
      </trkpt>
      <trkpt lat="44.3667" lon="4.52787">
        <ele>299</ele>
        <time>2018-05-16T07:53:25.1Z</time>
      </trkpt>
      <trkpt lat="44.3667" lon="4.52786">
        <ele>299</ele>
        <time>2018-05-16T07:53:27.1Z</time>
      </trkpt>
      <trkpt lat="44.3667" lon="4.52786">
        <ele>299</ele>
        <time>2018-05-16T07:53:29.1Z</time>
      </trkpt>
      <trkpt lat="44.3667" lon="4.52786">
        <ele>299</ele>
        <time>2018-05-16T07:53:32.1Z</time>
      </trkpt>
      <trkpt lat="44.3667" lon="4.52785">
        <ele>299</ele>
        <time>2018-05-16T07:53:36.1Z</time>
      </trkpt>
      <trkpt lat="44.3667" lon="4.52785">
        <ele>299</ele>
        <time>2018-05-16T07:53:39.1Z</time>
      </trkpt>
      <trkpt lat="44.3667" lon="4.52785">
        <ele>299</ele>
        <time>2018-05-16T07:53:41.1Z</time>
      </trkpt>
      <trkpt lat="44.36671" lon="4.52785">
        <ele>299</ele>
        <time>2018-05-16T07:53:45.1Z</time>
      </trkpt>
      <trkpt lat="44.36671" lon="4.52786">
        <ele>299</ele>
        <time>2018-05-16T07:53:48.1Z</time>
      </trkpt>
      <trkpt lat="44.3667" lon="4.52786">
        <ele>299</ele>
        <time>2018-05-16T07:53:51.1Z</time>
      </trkpt>
      <trkpt lat="44.3667" lon="4.52786">
        <ele>299</ele>
        <time>2018-05-16T07:53:53.1Z</time>
      </trkpt>
      <trkpt lat="44.3667" lon="4.52786">
        <ele>299</ele>
        <time>2018-05-16T07:53:56.1Z</time>
      </trkpt>
      <trkpt lat="44.3667" lon="4.52786">
        <ele>299</ele>
        <time>2018-05-16T07:53:58.1Z</time>
      </trkpt>
      <trkpt lat="44.3667" lon="4.52785">
        <ele>299</ele>
        <time>2018-05-16T07:54:01.1Z</time>
      </trkpt>
      <trkpt lat="44.3667" lon="4.52785">
        <ele>299</ele>
        <time>2018-05-16T07:54:04.1Z</time>
      </trkpt>
      <trkpt lat="44.3667" lon="4.52785">
        <ele>299</ele>
        <time>2018-05-16T07:54:07.1Z</time>
      </trkpt>
      <trkpt lat="44.3667" lon="4.52785">
        <ele>299</ele>
        <time>2018-05-16T07:54:10.1Z</time>
      </trkpt>
      <trkpt lat="44.3667" lon="4.52784">
        <ele>299</ele>
        <time>2018-05-16T07:54:12.1Z</time>
      </trkpt>
      <trkpt lat="44.3667" lon="4.52784">
        <ele>299</ele>
        <time>2018-05-16T07:54:16.1Z</time>
      </trkpt>
      <trkpt lat="44.3667" lon="4.52784">
        <ele>299</ele>
        <time>2018-05-16T07:54:20.1Z</time>
      </trkpt>
      <trkpt lat="44.3667" lon="4.52784">
        <ele>299</ele>
        <time>2018-05-16T07:54:23.1Z</time>
      </trkpt>
      <trkpt lat="44.36671" lon="4.52784">
        <ele>299</ele>
        <time>2018-05-16T07:54:28.1Z</time>
      </trkpt>
      <trkpt lat="44.3667" lon="4.52784">
        <ele>299</ele>
        <time>2018-05-16T07:54:30.1Z</time>
      </trkpt>
      <trkpt lat="44.36671" lon="4.52782">
        <ele>299</ele>
        <time>2018-05-16T07:54:33.1Z</time>
      </trkpt>
      <trkpt lat="44.36671" lon="4.5278">
        <ele>299</ele>
        <time>2018-05-16T07:54:36.1Z</time>
      </trkpt>
      <trkpt lat="44.36672" lon="4.52779">
        <ele>299</ele>
        <time>2018-05-16T07:54:38.1Z</time>
      </trkpt>
      <trkpt lat="44.36672" lon="4.52776">
        <ele>300</ele>
        <time>2018-05-16T07:54:40.1Z</time>
      </trkpt>
      <trkpt lat="44.36672" lon="4.52773">
        <ele>300</ele>
        <time>2018-05-16T07:54:42.1Z</time>
      </trkpt>
      <trkpt lat="44.36674" lon="4.52767">
        <ele>300</ele>
        <time>2018-05-16T07:54:45.1Z</time>
      </trkpt>
      <trkpt lat="44.36675" lon="4.52762">
        <ele>300</ele>
        <time>2018-05-16T07:54:47.1Z</time>
      </trkpt>
      <trkpt lat="44.36676" lon="4.52756">
        <ele>300</ele>
        <time>2018-05-16T07:54:49.1Z</time>
      </trkpt>
      <trkpt lat="44.36677" lon="4.5275">
        <ele>300</ele>
        <time>2018-05-16T07:54:51.1Z</time>
      </trkpt>
      <trkpt lat="44.36677" lon="4.52737">
        <ele>301</ele>
        <time>2018-05-16T07:54:54.1Z</time>
      </trkpt>
      <trkpt lat="44.36677" lon="4.52728">
        <ele>301</ele>
        <time>2018-05-16T07:54:56.1Z</time>
      </trkpt>
      <trkpt lat="44.36676" lon="4.52718">
        <ele>301</ele>
        <time>2018-05-16T07:54:58.1Z</time>
      </trkpt>
      <trkpt lat="44.36673" lon="4.52701">
        <ele>302</ele>
        <time>2018-05-16T07:55:01.1Z</time>
      </trkpt>
      <trkpt lat="44.36671" lon="4.52691">
        <ele>302</ele>
        <time>2018-05-16T07:55:03.1Z</time>
      </trkpt>
      <trkpt lat="44.36665" lon="4.52675">
        <ele>302</ele>
        <time>2018-05-16T07:55:06.1Z</time>
      </trkpt>
      <trkpt lat="44.36659" lon="4.52661">
        <ele>303</ele>
        <time>2018-05-16T07:55:09.1Z</time>
      </trkpt>
      <trkpt lat="44.36651" lon="4.52647">
        <ele>303</ele>
        <time>2018-05-16T07:55:12.1Z</time>
      </trkpt>
      <trkpt lat="44.36646" lon="4.52639">
        <ele>303</ele>
        <time>2018-05-16T07:55:14.1Z</time>
      </trkpt>
      <trkpt lat="44.36638" lon="4.52626">
        <ele>304</ele>
        <time>2018-05-16T07:55:17.1Z</time>
      </trkpt>
      <trkpt lat="44.36632" lon="4.52617">
        <ele>304</ele>
        <time>2018-05-16T07:55:19.1Z</time>
      </trkpt>
      <trkpt lat="44.36623" lon="4.52605">
        <ele>305</ele>
        <time>2018-05-16T07:55:22.1Z</time>
      </trkpt>
      <trkpt lat="44.36617" lon="4.52597">
        <ele>305</ele>
        <time>2018-05-16T07:55:24.1Z</time>
      </trkpt>
      <trkpt lat="44.36612" lon="4.5259">
        <ele>306</ele>
        <time>2018-05-16T07:55:26.1Z</time>
      </trkpt>
      <trkpt lat="44.36604" lon="4.52577">
        <ele>306</ele>
        <time>2018-05-16T07:55:29.1Z</time>
      </trkpt>
      <trkpt lat="44.36596" lon="4.52565">
        <ele>306</ele>
        <time>2018-05-16T07:55:32.1Z</time>
      </trkpt>
      <trkpt lat="44.36588" lon="4.52551">
        <ele>307</ele>
        <time>2018-05-16T07:55:35.1Z</time>
      </trkpt>
      <trkpt lat="44.36583" lon="4.52541">
        <ele>307</ele>
        <time>2018-05-16T07:55:37.1Z</time>
      </trkpt>
      <trkpt lat="44.3658" lon="4.5253">
        <ele>307</ele>
        <time>2018-05-16T07:55:39.1Z</time>
      </trkpt>
      <trkpt lat="44.36577" lon="4.5252">
        <ele>308</ele>
        <time>2018-05-16T07:55:41.1Z</time>
      </trkpt>
      <trkpt lat="44.36575" lon="4.52508">
        <ele>308</ele>
        <time>2018-05-16T07:55:43.1Z</time>
      </trkpt>
      <trkpt lat="44.36573" lon="4.52497">
        <ele>308</ele>
        <time>2018-05-16T07:55:45.1Z</time>
      </trkpt>
      <trkpt lat="44.36571" lon="4.52481">
        <ele>308</ele>
        <time>2018-05-16T07:55:48.1Z</time>
      </trkpt>
      <trkpt lat="44.36571" lon="4.5247">
        <ele>308</ele>
        <time>2018-05-16T07:55:50.1Z</time>
      </trkpt>
      <trkpt lat="44.3657" lon="4.52453">
        <ele>309</ele>
        <time>2018-05-16T07:55:53.1Z</time>
      </trkpt>
      <trkpt lat="44.36571" lon="4.52442">
        <ele>309</ele>
        <time>2018-05-16T07:55:55.1Z</time>
      </trkpt>
      <trkpt lat="44.36572" lon="4.52431">
        <ele>310</ele>
        <time>2018-05-16T07:55:57.1Z</time>
      </trkpt>
      <trkpt lat="44.36573" lon="4.5242">
        <ele>310</ele>
        <time>2018-05-16T07:55:59.1Z</time>
      </trkpt>
      <trkpt lat="44.36574" lon="4.52408">
        <ele>311</ele>
        <time>2018-05-16T07:56:01.1Z</time>
      </trkpt>
      <trkpt lat="44.36575" lon="4.52397">
        <ele>311</ele>
        <time>2018-05-16T07:56:03.1Z</time>
      </trkpt>
      <trkpt lat="44.36577" lon="4.52387">
        <ele>311</ele>
        <time>2018-05-16T07:56:05.1Z</time>
      </trkpt>
      <trkpt lat="44.36581" lon="4.52371">
        <ele>311</ele>
        <time>2018-05-16T07:56:08.1Z</time>
      </trkpt>
      <trkpt lat="44.36583" lon="4.52361">
        <ele>311</ele>
        <time>2018-05-16T07:56:10.1Z</time>
      </trkpt>
      <trkpt lat="44.36589" lon="4.52347">
        <ele>312</ele>
        <time>2018-05-16T07:56:13.1Z</time>
      </trkpt>
      <trkpt lat="44.36592" lon="4.52337">
        <ele>312</ele>
        <time>2018-05-16T07:56:15.1Z</time>
      </trkpt>
      <trkpt lat="44.36599" lon="4.52323">
        <ele>313</ele>
        <time>2018-05-16T07:56:18.1Z</time>
      </trkpt>
      <trkpt lat="44.36604" lon="4.52314">
        <ele>313</ele>
        <time>2018-05-16T07:56:20.1Z</time>
      </trkpt>
      <trkpt lat="44.36609" lon="4.52307">
        <ele>313</ele>
        <time>2018-05-16T07:56:22.1Z</time>
      </trkpt>
      <trkpt lat="44.36614" lon="4.52299">
        <ele>314</ele>
        <time>2018-05-16T07:56:24.1Z</time>
      </trkpt>
      <trkpt lat="44.36623" lon="4.52288">
        <ele>314</ele>
        <time>2018-05-16T07:56:27.1Z</time>
      </trkpt>
      <trkpt lat="44.3663" lon="4.52281">
        <ele>315</ele>
        <time>2018-05-16T07:56:29.1Z</time>
      </trkpt>
      <trkpt lat="44.3664" lon="4.52271">
        <ele>315</ele>
        <time>2018-05-16T07:56:32.1Z</time>
      </trkpt>
      <trkpt lat="44.3665" lon="4.52263">
        <ele>315</ele>
        <time>2018-05-16T07:56:35.1Z</time>
      </trkpt>
      <trkpt lat="44.3666" lon="4.52256">
        <ele>315</ele>
        <time>2018-05-16T07:56:38.1Z</time>
      </trkpt>
      <trkpt lat="44.3667" lon="4.5225">
        <ele>316</ele>
        <time>2018-05-16T07:56:41.1Z</time>
      </trkpt>
      <trkpt lat="44.36677" lon="4.52247">
        <ele>316</ele>
        <time>2018-05-16T07:56:43.1Z</time>
      </trkpt>
      <trkpt lat="44.36687" lon="4.52243">
        <ele>316</ele>
        <time>2018-05-16T07:56:46.1Z</time>
      </trkpt>
      <trkpt lat="44.36699" lon="4.5224">
        <ele>317</ele>
        <time>2018-05-16T07:56:49.1Z</time>
      </trkpt>
      <trkpt lat="44.3671" lon="4.52238">
        <ele>318</ele>
        <time>2018-05-16T07:56:52.1Z</time>
      </trkpt>
      <trkpt lat="44.36722" lon="4.52238">
        <ele>318</ele>
        <time>2018-05-16T07:56:55.1Z</time>
      </trkpt>
      <trkpt lat="44.36729" lon="4.52238">
        <ele>318</ele>
        <time>2018-05-16T07:56:57.1Z</time>
      </trkpt>
      <trkpt lat="44.3674" lon="4.5224">
        <ele>318</ele>
        <time>2018-05-16T07:57:00.1Z</time>
      </trkpt>
      <trkpt lat="44.36747" lon="4.5224">
        <ele>319</ele>
        <time>2018-05-16T07:57:02.1Z</time>
      </trkpt>
      <trkpt lat="44.36759" lon="4.52242">
        <ele>319</ele>
        <time>2018-05-16T07:57:05.1Z</time>
      </trkpt>
      <trkpt lat="44.36771" lon="4.52243">
        <ele>319</ele>
        <time>2018-05-16T07:57:08.1Z</time>
      </trkpt>
      <trkpt lat="44.36783" lon="4.52245">
        <ele>320</ele>
        <time>2018-05-16T07:57:11.1Z</time>
      </trkpt>
      <trkpt lat="44.36791" lon="4.52245">
        <ele>320</ele>
        <time>2018-05-16T07:57:13.1Z</time>
      </trkpt>
      <trkpt lat="44.368" lon="4.52246">
        <ele>320</ele>
        <time>2018-05-16T07:57:15.1Z</time>
      </trkpt>
      <trkpt lat="44.36811" lon="4.52247">
        <ele>321</ele>
        <time>2018-05-16T07:57:18.1Z</time>
      </trkpt>
      <trkpt lat="44.3682" lon="4.52248">
        <ele>321</ele>
        <time>2018-05-16T07:57:20.1Z</time>
      </trkpt>
      <trkpt lat="44.36828" lon="4.52248">
        <ele>321</ele>
        <time>2018-05-16T07:57:22.1Z</time>
      </trkpt>
      <trkpt lat="44.36836" lon="4.52247">
        <ele>322</ele>
        <time>2018-05-16T07:57:24.1Z</time>
      </trkpt>
      <trkpt lat="44.36844" lon="4.52247">
        <ele>322</ele>
        <time>2018-05-16T07:57:26.1Z</time>
      </trkpt>
      <trkpt lat="44.36856" lon="4.52245">
        <ele>323</ele>
        <time>2018-05-16T07:57:29.1Z</time>
      </trkpt>
      <trkpt lat="44.36868" lon="4.52243">
        <ele>323</ele>
        <time>2018-05-16T07:57:32.1Z</time>
      </trkpt>
      <trkpt lat="44.36875" lon="4.52241">
        <ele>323</ele>
        <time>2018-05-16T07:57:34.1Z</time>
      </trkpt>
      <trkpt lat="44.36883" lon="4.52239">
        <ele>323</ele>
        <time>2018-05-16T07:57:36.1Z</time>
      </trkpt>
      <trkpt lat="44.36894" lon="4.52235">
        <ele>324</ele>
        <time>2018-05-16T07:57:39.1Z</time>
      </trkpt>
      <trkpt lat="44.36906" lon="4.52229">
        <ele>325</ele>
        <time>2018-05-16T07:57:42.1Z</time>
      </trkpt>
      <trkpt lat="44.36913" lon="4.52224">
        <ele>325</ele>
        <time>2018-05-16T07:57:44.1Z</time>
      </trkpt>
      <trkpt lat="44.36924" lon="4.52216">
        <ele>325</ele>
        <time>2018-05-16T07:57:47.1Z</time>
      </trkpt>
      <trkpt lat="44.36934" lon="4.52207">
        <ele>325</ele>
        <time>2018-05-16T07:57:50.1Z</time>
      </trkpt>
      <trkpt lat="44.36943" lon="4.52197">
        <ele>325</ele>
        <time>2018-05-16T07:57:53.1Z</time>
      </trkpt>
      <trkpt lat="44.36949" lon="4.5219">
        <ele>325</ele>
        <time>2018-05-16T07:57:55.1Z</time>
      </trkpt>
      <trkpt lat="44.36958" lon="4.52181">
        <ele>326</ele>
        <time>2018-05-16T07:57:58.1Z</time>
      </trkpt>
      <trkpt lat="44.36966" lon="4.5217">
        <ele>326</ele>
        <time>2018-05-16T07:58:01.1Z</time>
      </trkpt>
      <trkpt lat="44.36972" lon="4.52164">
        <ele>327</ele>
        <time>2018-05-16T07:58:03.1Z</time>
      </trkpt>
      <trkpt lat="44.36978" lon="4.52151">
        <ele>327</ele>
        <time>2018-05-16T07:58:06.1Z</time>
      </trkpt>
      <trkpt lat="44.3698" lon="4.52141">
        <ele>328</ele>
        <time>2018-05-16T07:58:08.1Z</time>
      </trkpt>
      <trkpt lat="44.36977" lon="4.52124">
        <ele>328</ele>
        <time>2018-05-16T07:58:11.1Z</time>
      </trkpt>
      <trkpt lat="44.36967" lon="4.52113">
        <ele>328</ele>
        <time>2018-05-16T07:58:14.1Z</time>
      </trkpt>
      <trkpt lat="44.36956" lon="4.52109">
        <ele>328</ele>
        <time>2018-05-16T07:58:17.1Z</time>
      </trkpt>
      <trkpt lat="44.36948" lon="4.52107">
        <ele>328</ele>
        <time>2018-05-16T07:58:19.1Z</time>
      </trkpt>
      <trkpt lat="44.3694" lon="4.52104">
        <ele>328</ele>
        <time>2018-05-16T07:58:21.1Z</time>
      </trkpt>
      <trkpt lat="44.36933" lon="4.52101">
        <ele>328</ele>
        <time>2018-05-16T07:58:23.1Z</time>
      </trkpt>
      <trkpt lat="44.36921" lon="4.52098">
        <ele>329</ele>
        <time>2018-05-16T07:58:26.1Z</time>
      </trkpt>
      <trkpt lat="44.36914" lon="4.52096">
        <ele>329</ele>
        <time>2018-05-16T07:58:28.1Z</time>
      </trkpt>
      <trkpt lat="44.36903" lon="4.52092">
        <ele>330</ele>
        <time>2018-05-16T07:58:31.1Z</time>
      </trkpt>
      <trkpt lat="44.36892" lon="4.52089">
        <ele>330</ele>
        <time>2018-05-16T07:58:34.1Z</time>
      </trkpt>
      <trkpt lat="44.36881" lon="4.52084">
        <ele>330</ele>
        <time>2018-05-16T07:58:37.1Z</time>
      </trkpt>
      <trkpt lat="44.36871" lon="4.52078">
        <ele>331</ele>
        <time>2018-05-16T07:58:40.1Z</time>
      </trkpt>
      <trkpt lat="44.36861" lon="4.52071">
        <ele>331</ele>
        <time>2018-05-16T07:58:43.1Z</time>
      </trkpt>
      <trkpt lat="44.36854" lon="4.52065">
        <ele>331</ele>
        <time>2018-05-16T07:58:45.1Z</time>
      </trkpt>
      <trkpt lat="44.36848" lon="4.5206">
        <ele>332</ele>
        <time>2018-05-16T07:58:47.1Z</time>
      </trkpt>
      <trkpt lat="44.36838" lon="4.52051">
        <ele>332</ele>
        <time>2018-05-16T07:58:50.1Z</time>
      </trkpt>
      <trkpt lat="44.36832" lon="4.52045">
        <ele>332</ele>
        <time>2018-05-16T07:58:52.1Z</time>
      </trkpt>
      <trkpt lat="44.36825" lon="4.5204">
        <ele>332</ele>
        <time>2018-05-16T07:58:54.1Z</time>
      </trkpt>
      <trkpt lat="44.36816" lon="4.52031">
        <ele>333</ele>
        <time>2018-05-16T07:58:57.1Z</time>
      </trkpt>
      <trkpt lat="44.36806" lon="4.52023">
        <ele>333</ele>
        <time>2018-05-16T07:59:00.1Z</time>
      </trkpt>
      <trkpt lat="44.36797" lon="4.52014">
        <ele>334</ele>
        <time>2018-05-16T07:59:03.1Z</time>
      </trkpt>
      <trkpt lat="44.3679" lon="4.52008">
        <ele>334</ele>
        <time>2018-05-16T07:59:05.1Z</time>
      </trkpt>
      <trkpt lat="44.3678" lon="4.51998">
        <ele>335</ele>
        <time>2018-05-16T07:59:08.1Z</time>
      </trkpt>
      <trkpt lat="44.3677" lon="4.51987">
        <ele>335</ele>
        <time>2018-05-16T07:59:11.1Z</time>
      </trkpt>
      <trkpt lat="44.3676" lon="4.51976">
        <ele>336</ele>
        <time>2018-05-16T07:59:14.1Z</time>
      </trkpt>
      <trkpt lat="44.36752" lon="4.51964">
        <ele>336</ele>
        <time>2018-05-16T07:59:17.1Z</time>
      </trkpt>
      <trkpt lat="44.36745" lon="4.51949">
        <ele>337</ele>
        <time>2018-05-16T07:59:20.1Z</time>
      </trkpt>
      <trkpt lat="44.3674" lon="4.51934">
        <ele>337</ele>
        <time>2018-05-16T07:59:23.1Z</time>
      </trkpt>
      <trkpt lat="44.36736" lon="4.51917">
        <ele>337</ele>
        <time>2018-05-16T07:59:26.1Z</time>
      </trkpt>
      <trkpt lat="44.36735" lon="4.51905">
        <ele>338</ele>
        <time>2018-05-16T07:59:28.1Z</time>
      </trkpt>
      <trkpt lat="44.36734" lon="4.51887">
        <ele>338</ele>
        <time>2018-05-16T07:59:31.1Z</time>
      </trkpt>
      <trkpt lat="44.36734" lon="4.51876">
        <ele>338</ele>
        <time>2018-05-16T07:59:33.1Z</time>
      </trkpt>
      <trkpt lat="44.36735" lon="4.51858">
        <ele>338</ele>
        <time>2018-05-16T07:59:36.1Z</time>
      </trkpt>
      <trkpt lat="44.36735" lon="4.51846">
        <ele>338</ele>
        <time>2018-05-16T07:59:38.1Z</time>
      </trkpt>
      <trkpt lat="44.36736" lon="4.51831">
        <ele>339</ele>
        <time>2018-05-16T07:59:41.1Z</time>
      </trkpt>
      <trkpt lat="44.36737" lon="4.5182">
        <ele>339</ele>
        <time>2018-05-16T07:59:43.1Z</time>
      </trkpt>
      <trkpt lat="44.36737" lon="4.51809">
        <ele>339</ele>
        <time>2018-05-16T07:59:45.1Z</time>
      </trkpt>
      <trkpt lat="44.36738" lon="4.51799">
        <ele>339</ele>
        <time>2018-05-16T07:59:47.1Z</time>
      </trkpt>
      <trkpt lat="44.36739" lon="4.51783">
        <ele>340</ele>
        <time>2018-05-16T07:59:50.1Z</time>
      </trkpt>
      <trkpt lat="44.36739" lon="4.51772">
        <ele>340</ele>
        <time>2018-05-16T07:59:52.1Z</time>
      </trkpt>
      <trkpt lat="44.3674" lon="4.51761">
        <ele>340</ele>
        <time>2018-05-16T07:59:54.1Z</time>
      </trkpt>
      <trkpt lat="44.3674" lon="4.5175">
        <ele>340</ele>
        <time>2018-05-16T07:59:56.1Z</time>
      </trkpt>
      <trkpt lat="44.36741" lon="4.5174">
        <ele>340</ele>
        <time>2018-05-16T07:59:58.1Z</time>
      </trkpt>
      <trkpt lat="44.36742" lon="4.51729">
        <ele>340</ele>
        <time>2018-05-16T08:00:00.1Z</time>
      </trkpt>
      <trkpt lat="44.36743" lon="4.51713">
        <ele>341</ele>
        <time>2018-05-16T08:00:03.1Z</time>
      </trkpt>
      <trkpt lat="44.36746" lon="4.51698">
        <ele>341</ele>
        <time>2018-05-16T08:00:06.1Z</time>
      </trkpt>
      <trkpt lat="44.36749" lon="4.51683">
        <ele>341</ele>
        <time>2018-05-16T08:00:09.1Z</time>
      </trkpt>
      <trkpt lat="44.36752" lon="4.51674">
        <ele>341</ele>
        <time>2018-05-16T08:00:11.1Z</time>
      </trkpt>
      <trkpt lat="44.36755" lon="4.51664">
        <ele>341</ele>
        <time>2018-05-16T08:00:13.1Z</time>
      </trkpt>
      <trkpt lat="44.36761" lon="4.5165">
        <ele>342</ele>
        <time>2018-05-16T08:00:16.1Z</time>
      </trkpt>
      <trkpt lat="44.36765" lon="4.51641">
        <ele>342</ele>
        <time>2018-05-16T08:00:18.1Z</time>
      </trkpt>
      <trkpt lat="44.36769" lon="4.51631">
        <ele>342</ele>
        <time>2018-05-16T08:00:20.1Z</time>
      </trkpt>
      <trkpt lat="44.36774" lon="4.51622">
        <ele>342</ele>
        <time>2018-05-16T08:00:22.1Z</time>
      </trkpt>
      <trkpt lat="44.36779" lon="4.51613">
        <ele>342</ele>
        <time>2018-05-16T08:00:24.1Z</time>
      </trkpt>
      <trkpt lat="44.36785" lon="4.51605">
        <ele>342</ele>
        <time>2018-05-16T08:00:26.1Z</time>
      </trkpt>
      <trkpt lat="44.36794" lon="4.51592">
        <ele>342</ele>
        <time>2018-05-16T08:00:29.1Z</time>
      </trkpt>
      <trkpt lat="44.368" lon="4.51585">
        <ele>342</ele>
        <time>2018-05-16T08:00:31.1Z</time>
      </trkpt>
      <trkpt lat="44.36811" lon="4.51573">
        <ele>342</ele>
        <time>2018-05-16T08:00:34.1Z</time>
      </trkpt>
      <trkpt lat="44.36821" lon="4.5156">
        <ele>342</ele>
        <time>2018-05-16T08:00:37.1Z</time>
      </trkpt>
      <trkpt lat="44.36828" lon="4.51553">
        <ele>342</ele>
        <time>2018-05-16T08:00:39.1Z</time>
      </trkpt>
      <trkpt lat="44.36834" lon="4.51545">
        <ele>342</ele>
        <time>2018-05-16T08:00:41.1Z</time>
      </trkpt>
      <trkpt lat="44.36844" lon="4.51532">
        <ele>342</ele>
        <time>2018-05-16T08:00:44.1Z</time>
      </trkpt>
      <trkpt lat="44.36854" lon="4.51521">
        <ele>342</ele>
        <time>2018-05-16T08:00:47.1Z</time>
      </trkpt>
      <trkpt lat="44.36864" lon="4.5151">
        <ele>342</ele>
        <time>2018-05-16T08:00:50.1Z</time>
      </trkpt>
      <trkpt lat="44.36873" lon="4.51497">
        <ele>343</ele>
        <time>2018-05-16T08:00:53.1Z</time>
      </trkpt>
      <trkpt lat="44.3688" lon="4.51489">
        <ele>343</ele>
        <time>2018-05-16T08:00:55.1Z</time>
      </trkpt>
      <trkpt lat="44.36886" lon="4.51482">
        <ele>343</ele>
        <time>2018-05-16T08:00:57.1Z</time>
      </trkpt>
      <trkpt lat="44.36896" lon="4.51471">
        <ele>344</ele>
        <time>2018-05-16T08:01:00.1Z</time>
      </trkpt>
      <trkpt lat="44.36902" lon="4.51463">
        <ele>344</ele>
        <time>2018-05-16T08:01:02.1Z</time>
      </trkpt>
      <trkpt lat="44.36912" lon="4.51452">
        <ele>344</ele>
        <time>2018-05-16T08:01:05.1Z</time>
      </trkpt>
      <trkpt lat="44.36918" lon="4.51444">
        <ele>344</ele>
        <time>2018-05-16T08:01:07.1Z</time>
      </trkpt>
      <trkpt lat="44.36925" lon="4.51437">
        <ele>344</ele>
        <time>2018-05-16T08:01:09.1Z</time>
      </trkpt>
      <trkpt lat="44.36934" lon="4.51426">
        <ele>345</ele>
        <time>2018-05-16T08:01:12.1Z</time>
      </trkpt>
      <trkpt lat="44.36943" lon="4.51415">
        <ele>345</ele>
        <time>2018-05-16T08:01:15.1Z</time>
      </trkpt>
      <trkpt lat="44.36949" lon="4.51408">
        <ele>346</ele>
        <time>2018-05-16T08:01:17.1Z</time>
      </trkpt>
      <trkpt lat="44.36958" lon="4.51398">
        <ele>346</ele>
        <time>2018-05-16T08:01:20.1Z</time>
      </trkpt>
      <trkpt lat="44.36965" lon="4.51392">
        <ele>346</ele>
        <time>2018-05-16T08:01:22.1Z</time>
      </trkpt>
      <trkpt lat="44.36974" lon="4.51381">
        <ele>347</ele>
        <time>2018-05-16T08:01:25.1Z</time>
      </trkpt>
      <trkpt lat="44.36982" lon="4.51375">
        <ele>347</ele>
        <time>2018-05-16T08:01:27.1Z</time>
      </trkpt>
      <trkpt lat="44.36993" lon="4.51364">
        <ele>347</ele>
        <time>2018-05-16T08:01:30.1Z</time>
      </trkpt>
      <trkpt lat="44.37" lon="4.51358">
        <ele>347</ele>
        <time>2018-05-16T08:01:32.1Z</time>
      </trkpt>
      <trkpt lat="44.3701" lon="4.51347">
        <ele>347</ele>
        <time>2018-05-16T08:01:35.1Z</time>
      </trkpt>
      <trkpt lat="44.37022" lon="4.51336">
        <ele>347</ele>
        <time>2018-05-16T08:01:38.1Z</time>
      </trkpt>
      <trkpt lat="44.3703" lon="4.51329">
        <ele>347</ele>
        <time>2018-05-16T08:01:40.1Z</time>
      </trkpt>
      <trkpt lat="44.37043" lon="4.51318">
        <ele>347</ele>
        <time>2018-05-16T08:01:43.1Z</time>
      </trkpt>
      <trkpt lat="44.37051" lon="4.5131">
        <ele>347</ele>
        <time>2018-05-16T08:01:45.1Z</time>
      </trkpt>
      <trkpt lat="44.37062" lon="4.513">
        <ele>347</ele>
        <time>2018-05-16T08:01:48.1Z</time>
      </trkpt>
      <trkpt lat="44.3707" lon="4.51293">
        <ele>347</ele>
        <time>2018-05-16T08:01:50.1Z</time>
      </trkpt>
      <trkpt lat="44.37078" lon="4.51287">
        <ele>348</ele>
        <time>2018-05-16T08:01:52.1Z</time>
      </trkpt>
      <trkpt lat="44.37085" lon="4.51281">
        <ele>348</ele>
        <time>2018-05-16T08:01:54.1Z</time>
      </trkpt>
      <trkpt lat="44.37095" lon="4.51272">
        <ele>348</ele>
        <time>2018-05-16T08:01:57.1Z</time>
      </trkpt>
      <trkpt lat="44.37101" lon="4.51267">
        <ele>348</ele>
        <time>2018-05-16T08:01:59.1Z</time>
      </trkpt>
      <trkpt lat="44.37106" lon="4.51261">
        <ele>348</ele>
        <time>2018-05-16T08:02:01.1Z</time>
      </trkpt>
      <trkpt lat="44.37112" lon="4.51255">
        <ele>348</ele>
        <time>2018-05-16T08:02:03.1Z</time>
      </trkpt>
      <trkpt lat="44.37119" lon="4.51249">
        <ele>349</ele>
        <time>2018-05-16T08:02:05.1Z</time>
      </trkpt>
      <trkpt lat="44.37128" lon="4.51239">
        <ele>349</ele>
        <time>2018-05-16T08:02:08.1Z</time>
      </trkpt>
      <trkpt lat="44.37135" lon="4.51233">
        <ele>350</ele>
        <time>2018-05-16T08:02:10.1Z</time>
      </trkpt>
      <trkpt lat="44.37144" lon="4.51224">
        <ele>350</ele>
        <time>2018-05-16T08:02:13.1Z</time>
      </trkpt>
      <trkpt lat="44.37154" lon="4.51214">
        <ele>350</ele>
        <time>2018-05-16T08:02:16.1Z</time>
      </trkpt>
      <trkpt lat="44.37163" lon="4.51204">
        <ele>351</ele>
        <time>2018-05-16T08:02:19.1Z</time>
      </trkpt>
      <trkpt lat="44.37168" lon="4.51197">
        <ele>351</ele>
        <time>2018-05-16T08:02:21.1Z</time>
      </trkpt>
      <trkpt lat="44.37173" lon="4.51189">
        <ele>352</ele>
        <time>2018-05-16T08:02:23.1Z</time>
      </trkpt>
      <trkpt lat="44.37177" lon="4.5118">
        <ele>352</ele>
        <time>2018-05-16T08:02:25.1Z</time>
      </trkpt>
      <trkpt lat="44.37183" lon="4.51164">
        <ele>352</ele>
        <time>2018-05-16T08:02:28.1Z</time>
      </trkpt>
      <trkpt lat="44.37185" lon="4.51154">
        <ele>352</ele>
        <time>2018-05-16T08:02:30.1Z</time>
      </trkpt>
      <trkpt lat="44.37187" lon="4.51143">
        <ele>352</ele>
        <time>2018-05-16T08:02:32.1Z</time>
      </trkpt>
      <trkpt lat="44.37188" lon="4.51131">
        <ele>353</ele>
        <time>2018-05-16T08:02:34.1Z</time>
      </trkpt>
      <trkpt lat="44.37188" lon="4.51116">
        <ele>353</ele>
        <time>2018-05-16T08:02:37.1Z</time>
      </trkpt>
      <trkpt lat="44.37188" lon="4.51105">
        <ele>353</ele>
        <time>2018-05-16T08:02:39.1Z</time>
      </trkpt>
      <trkpt lat="44.37187" lon="4.51094">
        <ele>354</ele>
        <time>2018-05-16T08:02:41.1Z</time>
      </trkpt>
      <trkpt lat="44.37186" lon="4.51083">
        <ele>354</ele>
        <time>2018-05-16T08:02:43.1Z</time>
      </trkpt>
      <trkpt lat="44.37187" lon="4.51067">
        <ele>354</ele>
        <time>2018-05-16T08:02:46.1Z</time>
      </trkpt>
      <trkpt lat="44.37187" lon="4.51057">
        <ele>354</ele>
        <time>2018-05-16T08:02:48.1Z</time>
      </trkpt>
      <trkpt lat="44.37187" lon="4.51046">
        <ele>355</ele>
        <time>2018-05-16T08:02:50.1Z</time>
      </trkpt>
      <trkpt lat="44.37188" lon="4.51029">
        <ele>354</ele>
        <time>2018-05-16T08:02:53.1Z</time>
      </trkpt>
      <trkpt lat="44.37189" lon="4.51018">
        <ele>355</ele>
        <time>2018-05-16T08:02:55.1Z</time>
      </trkpt>
      <trkpt lat="44.37192" lon="4.51003">
        <ele>355</ele>
        <time>2018-05-16T08:02:58.1Z</time>
      </trkpt>
      <trkpt lat="44.37197" lon="4.50988">
        <ele>355</ele>
        <time>2018-05-16T08:03:01.1Z</time>
      </trkpt>
      <trkpt lat="44.37201" lon="4.50977">
        <ele>356</ele>
        <time>2018-05-16T08:03:03.1Z</time>
      </trkpt>
      <trkpt lat="44.37204" lon="4.50967">
        <ele>356</ele>
        <time>2018-05-16T08:03:05.1Z</time>
      </trkpt>
      <trkpt lat="44.37209" lon="4.50956">
        <ele>356</ele>
        <time>2018-05-16T08:03:07.1Z</time>
      </trkpt>
      <trkpt lat="44.37212" lon="4.50947">
        <ele>356</ele>
        <time>2018-05-16T08:03:09.1Z</time>
      </trkpt>
      <trkpt lat="44.37218" lon="4.50933">
        <ele>356</ele>
        <time>2018-05-16T08:03:12.1Z</time>
      </trkpt>
      <trkpt lat="44.37222" lon="4.50924">
        <ele>357</ele>
        <time>2018-05-16T08:03:14.1Z</time>
      </trkpt>
      <trkpt lat="44.37225" lon="4.50916">
        <ele>357</ele>
        <time>2018-05-16T08:03:16.1Z</time>
      </trkpt>
      <trkpt lat="44.37232" lon="4.50904">
        <ele>357</ele>
        <time>2018-05-16T08:03:19.1Z</time>
      </trkpt>
      <trkpt lat="44.3724" lon="4.50893">
        <ele>358</ele>
        <time>2018-05-16T08:03:22.1Z</time>
      </trkpt>
      <trkpt lat="44.37249" lon="4.50885">
        <ele>358</ele>
        <time>2018-05-16T08:03:25.1Z</time>
      </trkpt>
      <trkpt lat="44.3726" lon="4.50881">
        <ele>359</ele>
        <time>2018-05-16T08:03:28.1Z</time>
      </trkpt>
      <trkpt lat="44.37271" lon="4.5088">
        <ele>359</ele>
        <time>2018-05-16T08:03:31.1Z</time>
      </trkpt>
      <trkpt lat="44.37278" lon="4.50879">
        <ele>360</ele>
        <time>2018-05-16T08:03:33.1Z</time>
      </trkpt>
      <trkpt lat="44.3729" lon="4.50875">
        <ele>360</ele>
        <time>2018-05-16T08:03:36.1Z</time>
      </trkpt>
      <trkpt lat="44.37297" lon="4.5087">
        <ele>360</ele>
        <time>2018-05-16T08:03:38.1Z</time>
      </trkpt>
      <trkpt lat="44.37304" lon="4.50856">
        <ele>360</ele>
        <time>2018-05-16T08:03:41.1Z</time>
      </trkpt>
      <trkpt lat="44.37308" lon="4.50841">
        <ele>360</ele>
        <time>2018-05-16T08:03:44.1Z</time>
      </trkpt>
      <trkpt lat="44.37309" lon="4.50824">
        <ele>361</ele>
        <time>2018-05-16T08:03:47.1Z</time>
      </trkpt>
      <trkpt lat="44.37308" lon="4.50808">
        <ele>361</ele>
        <time>2018-05-16T08:03:50.1Z</time>
      </trkpt>
      <trkpt lat="44.37306" lon="4.50792">
        <ele>362</ele>
        <time>2018-05-16T08:03:53.1Z</time>
      </trkpt>
      <trkpt lat="44.37306" lon="4.50782">
        <ele>362</ele>
        <time>2018-05-16T08:03:55.1Z</time>
      </trkpt>
      <trkpt lat="44.37304" lon="4.50767">
        <ele>363</ele>
        <time>2018-05-16T08:03:58.1Z</time>
      </trkpt>
      <trkpt lat="44.37303" lon="4.50752">
        <ele>363</ele>
        <time>2018-05-16T08:04:01.1Z</time>
      </trkpt>
      <trkpt lat="44.37302" lon="4.50741">
        <ele>363</ele>
        <time>2018-05-16T08:04:03.1Z</time>
      </trkpt>
      <trkpt lat="44.37302" lon="4.50726">
        <ele>363</ele>
        <time>2018-05-16T08:04:06.1Z</time>
      </trkpt>
      <trkpt lat="44.37302" lon="4.50715">
        <ele>364</ele>
        <time>2018-05-16T08:04:08.1Z</time>
      </trkpt>
      <trkpt lat="44.37303" lon="4.50704">
        <ele>364</ele>
        <time>2018-05-16T08:04:10.1Z</time>
      </trkpt>
      <trkpt lat="44.37305" lon="4.50694">
        <ele>365</ele>
        <time>2018-05-16T08:04:12.1Z</time>
      </trkpt>
      <trkpt lat="44.37308" lon="4.5068">
        <ele>365</ele>
        <time>2018-05-16T08:04:15.1Z</time>
      </trkpt>
      <trkpt lat="44.37312" lon="4.50666">
        <ele>365</ele>
        <time>2018-05-16T08:04:18.1Z</time>
      </trkpt>
      <trkpt lat="44.37315" lon="4.50653">
        <ele>365</ele>
        <time>2018-05-16T08:04:21.1Z</time>
      </trkpt>
      <trkpt lat="44.37319" lon="4.50643">
        <ele>365</ele>
        <time>2018-05-16T08:04:23.1Z</time>
      </trkpt>
      <trkpt lat="44.37324" lon="4.50629">
        <ele>365</ele>
        <time>2018-05-16T08:04:26.1Z</time>
      </trkpt>
      <trkpt lat="44.37328" lon="4.50619">
        <ele>366</ele>
        <time>2018-05-16T08:04:28.1Z</time>
      </trkpt>
      <trkpt lat="44.37334" lon="4.50609">
        <ele>366</ele>
        <time>2018-05-16T08:04:30.1Z</time>
      </trkpt>
      <trkpt lat="44.37342" lon="4.50597">
        <ele>366</ele>
        <time>2018-05-16T08:04:33.1Z</time>
      </trkpt>
      <trkpt lat="44.37352" lon="4.50587">
        <ele>366</ele>
        <time>2018-05-16T08:04:36.1Z</time>
      </trkpt>
      <trkpt lat="44.37361" lon="4.50577">
        <ele>367</ele>
        <time>2018-05-16T08:04:39.1Z</time>
      </trkpt>
      <trkpt lat="44.37367" lon="4.50571">
        <ele>367</ele>
        <time>2018-05-16T08:04:41.1Z</time>
      </trkpt>
      <trkpt lat="44.37377" lon="4.50563">
        <ele>368</ele>
        <time>2018-05-16T08:04:44.1Z</time>
      </trkpt>
      <trkpt lat="44.37383" lon="4.50558">
        <ele>368</ele>
        <time>2018-05-16T08:04:46.1Z</time>
      </trkpt>
      <trkpt lat="44.37392" lon="4.50549">
        <ele>368</ele>
        <time>2018-05-16T08:04:49.1Z</time>
      </trkpt>
      <trkpt lat="44.37399" lon="4.50542">
        <ele>369</ele>
        <time>2018-05-16T08:04:51.1Z</time>
      </trkpt>
      <trkpt lat="44.37405" lon="4.50536">
        <ele>369</ele>
        <time>2018-05-16T08:04:53.1Z</time>
      </trkpt>
      <trkpt lat="44.37412" lon="4.50531">
        <ele>369</ele>
        <time>2018-05-16T08:04:55.1Z</time>
      </trkpt>
      <trkpt lat="44.37418" lon="4.50526">
        <ele>369</ele>
        <time>2018-05-16T08:04:57.1Z</time>
      </trkpt>
      <trkpt lat="44.37428" lon="4.50518">
        <ele>370</ele>
        <time>2018-05-16T08:05:00.1Z</time>
      </trkpt>
      <trkpt lat="44.37439" lon="4.5051">
        <ele>370</ele>
        <time>2018-05-16T08:05:03.1Z</time>
      </trkpt>
      <trkpt lat="44.37446" lon="4.50505">
        <ele>371</ele>
        <time>2018-05-16T08:05:05.1Z</time>
      </trkpt>
      <trkpt lat="44.37453" lon="4.505">
        <ele>371</ele>
        <time>2018-05-16T08:05:07.1Z</time>
      </trkpt>
      <trkpt lat="44.3746" lon="4.50496">
        <ele>372</ele>
        <time>2018-05-16T08:05:09.1Z</time>
      </trkpt>
      <trkpt lat="44.37471" lon="4.5049">
        <ele>372</ele>
        <time>2018-05-16T08:05:12.1Z</time>
      </trkpt>
      <trkpt lat="44.37482" lon="4.50486">
        <ele>372</ele>
        <time>2018-05-16T08:05:15.1Z</time>
      </trkpt>
      <trkpt lat="44.3749" lon="4.50486">
        <ele>372</ele>
        <time>2018-05-16T08:05:17.1Z</time>
      </trkpt>
      <trkpt lat="44.37501" lon="4.50487">
        <ele>373</ele>
        <time>2018-05-16T08:05:20.1Z</time>
      </trkpt>
      <trkpt lat="44.37508" lon="4.50489">
        <ele>374</ele>
        <time>2018-05-16T08:05:22.1Z</time>
      </trkpt>
      <trkpt lat="44.37519" lon="4.50491">
        <ele>374</ele>
        <time>2018-05-16T08:05:25.1Z</time>
      </trkpt>
      <trkpt lat="44.37526" lon="4.50492">
        <ele>374</ele>
        <time>2018-05-16T08:05:27.1Z</time>
      </trkpt>
      <trkpt lat="44.37532" lon="4.50493">
        <ele>374</ele>
        <time>2018-05-16T08:05:29.1Z</time>
      </trkpt>
      <trkpt lat="44.37539" lon="4.50494">
        <ele>374</ele>
        <time>2018-05-16T08:05:31.1Z</time>
      </trkpt>
      <trkpt lat="44.37545" lon="4.50496">
        <ele>374</ele>
        <time>2018-05-16T08:05:33.1Z</time>
      </trkpt>
      <trkpt lat="44.37552" lon="4.50498">
        <ele>375</ele>
        <time>2018-05-16T08:05:35.1Z</time>
      </trkpt>
      <trkpt lat="44.37559" lon="4.50499">
        <ele>375</ele>
        <time>2018-05-16T08:05:37.1Z</time>
      </trkpt>
      <trkpt lat="44.37566" lon="4.505">
        <ele>375</ele>
        <time>2018-05-16T08:05:39.1Z</time>
      </trkpt>
      <trkpt lat="44.37577" lon="4.505">
        <ele>375</ele>
        <time>2018-05-16T08:05:42.1Z</time>
      </trkpt>
      <trkpt lat="44.3759" lon="4.50498">
        <ele>376</ele>
        <time>2018-05-16T08:05:45.1Z</time>
      </trkpt>
      <trkpt lat="44.37597" lon="4.50496">
        <ele>376</ele>
        <time>2018-05-16T08:05:47.1Z</time>
      </trkpt>
      <trkpt lat="44.37605" lon="4.50493">
        <ele>376</ele>
        <time>2018-05-16T08:05:49.1Z</time>
      </trkpt>
      <trkpt lat="44.37612" lon="4.5049">
        <ele>377</ele>
        <time>2018-05-16T08:05:51.1Z</time>
      </trkpt>
      <trkpt lat="44.37619" lon="4.50486">
        <ele>377</ele>
        <time>2018-05-16T08:05:53.1Z</time>
      </trkpt>
      <trkpt lat="44.37626" lon="4.50481">
        <ele>377</ele>
        <time>2018-05-16T08:05:55.1Z</time>
      </trkpt>
      <trkpt lat="44.37633" lon="4.50476">
        <ele>378</ele>
        <time>2018-05-16T08:05:57.1Z</time>
      </trkpt>
      <trkpt lat="44.3764" lon="4.50473">
        <ele>378</ele>
        <time>2018-05-16T08:05:59.1Z</time>
      </trkpt>
      <trkpt lat="44.37652" lon="4.50469">
        <ele>379</ele>
        <time>2018-05-16T08:06:02.1Z</time>
      </trkpt>
      <trkpt lat="44.37659" lon="4.50468">
        <ele>379</ele>
        <time>2018-05-16T08:06:04.1Z</time>
      </trkpt>
      <trkpt lat="44.37667" lon="4.50467">
        <ele>379</ele>
        <time>2018-05-16T08:06:06.1Z</time>
      </trkpt>
      <trkpt lat="44.37675" lon="4.50468">
        <ele>379</ele>
        <time>2018-05-16T08:06:08.1Z</time>
      </trkpt>
      <trkpt lat="44.37682" lon="4.5047">
        <ele>379</ele>
        <time>2018-05-16T08:06:10.1Z</time>
      </trkpt>
      <trkpt lat="44.37689" lon="4.50472">
        <ele>379</ele>
        <time>2018-05-16T08:06:12.1Z</time>
      </trkpt>
      <trkpt lat="44.37695" lon="4.50474">
        <ele>380</ele>
        <time>2018-05-16T08:06:14.1Z</time>
      </trkpt>
      <trkpt lat="44.37707" lon="4.50475">
        <ele>381</ele>
        <time>2018-05-16T08:06:17.1Z</time>
      </trkpt>
      <trkpt lat="44.37719" lon="4.50468">
        <ele>381</ele>
        <time>2018-05-16T08:06:20.1Z</time>
      </trkpt>
      <trkpt lat="44.37727" lon="4.50461">
        <ele>381</ele>
        <time>2018-05-16T08:06:22.1Z</time>
      </trkpt>
      <trkpt lat="44.37736" lon="4.50451">
        <ele>381</ele>
        <time>2018-05-16T08:06:25.1Z</time>
      </trkpt>
      <trkpt lat="44.37742" lon="4.50442">
        <ele>381</ele>
        <time>2018-05-16T08:06:27.1Z</time>
      </trkpt>
      <trkpt lat="44.3775" lon="4.50429">
        <ele>381</ele>
        <time>2018-05-16T08:06:30.1Z</time>
      </trkpt>
      <trkpt lat="44.37756" lon="4.50421">
        <ele>382</ele>
        <time>2018-05-16T08:06:32.1Z</time>
      </trkpt>
      <trkpt lat="44.37763" lon="4.50407">
        <ele>382</ele>
        <time>2018-05-16T08:06:35.1Z</time>
      </trkpt>
      <trkpt lat="44.3777" lon="4.50393">
        <ele>382</ele>
        <time>2018-05-16T08:06:38.1Z</time>
      </trkpt>
      <trkpt lat="44.37775" lon="4.50384">
        <ele>382</ele>
        <time>2018-05-16T08:06:40.1Z</time>
      </trkpt>
      <trkpt lat="44.37781" lon="4.50368">
        <ele>382</ele>
        <time>2018-05-16T08:06:43.1Z</time>
      </trkpt>
      <trkpt lat="44.37786" lon="4.50358">
        <ele>382</ele>
        <time>2018-05-16T08:06:45.1Z</time>
      </trkpt>
      <trkpt lat="44.3779" lon="4.5035">
        <ele>383</ele>
        <time>2018-05-16T08:06:47.1Z</time>
      </trkpt>
      <trkpt lat="44.37794" lon="4.50341">
        <ele>383</ele>
        <time>2018-05-16T08:06:49.1Z</time>
      </trkpt>
      <trkpt lat="44.37799" lon="4.50326">
        <ele>384</ele>
        <time>2018-05-16T08:06:52.1Z</time>
      </trkpt>
      <trkpt lat="44.37803" lon="4.50316">
        <ele>384</ele>
        <time>2018-05-16T08:06:54.1Z</time>
      </trkpt>
      <trkpt lat="44.37809" lon="4.50302">
        <ele>384</ele>
        <time>2018-05-16T08:06:57.1Z</time>
      </trkpt>
      <trkpt lat="44.37818" lon="4.50289">
        <ele>384</ele>
        <time>2018-05-16T08:07:00.1Z</time>
      </trkpt>
      <trkpt lat="44.37824" lon="4.50281">
        <ele>385</ele>
        <time>2018-05-16T08:07:02.1Z</time>
      </trkpt>
      <trkpt lat="44.37835" lon="4.50274">
        <ele>385</ele>
        <time>2018-05-16T08:07:05.1Z</time>
      </trkpt>
      <trkpt lat="44.37846" lon="4.50272">
        <ele>387</ele>
        <time>2018-05-16T08:07:08.1Z</time>
      </trkpt>
      <trkpt lat="44.37857" lon="4.50273">
        <ele>387</ele>
        <time>2018-05-16T08:07:11.1Z</time>
      </trkpt>
      <trkpt lat="44.37864" lon="4.50275">
        <ele>387</ele>
        <time>2018-05-16T08:07:13.1Z</time>
      </trkpt>
      <trkpt lat="44.37875" lon="4.50281">
        <ele>387</ele>
        <time>2018-05-16T08:07:16.1Z</time>
      </trkpt>
      <trkpt lat="44.37883" lon="4.50285">
        <ele>387</ele>
        <time>2018-05-16T08:07:18.1Z</time>
      </trkpt>
      <trkpt lat="44.37891" lon="4.50289">
        <ele>387</ele>
        <time>2018-05-16T08:07:20.1Z</time>
      </trkpt>
      <trkpt lat="44.37899" lon="4.50293">
        <ele>387</ele>
        <time>2018-05-16T08:07:22.1Z</time>
      </trkpt>
      <trkpt lat="44.37907" lon="4.50298">
        <ele>387</ele>
        <time>2018-05-16T08:07:24.1Z</time>
      </trkpt>
      <trkpt lat="44.37918" lon="4.50305">
        <ele>387</ele>
        <time>2018-05-16T08:07:27.1Z</time>
      </trkpt>
      <trkpt lat="44.37926" lon="4.50309">
        <ele>388</ele>
        <time>2018-05-16T08:07:29.1Z</time>
      </trkpt>
      <trkpt lat="44.37936" lon="4.50318">
        <ele>388</ele>
        <time>2018-05-16T08:07:32.1Z</time>
      </trkpt>
      <trkpt lat="44.37944" lon="4.50325">
        <ele>388</ele>
        <time>2018-05-16T08:07:34.1Z</time>
      </trkpt>
      <trkpt lat="44.37951" lon="4.50332">
        <ele>387</ele>
        <time>2018-05-16T08:07:36.1Z</time>
      </trkpt>
      <trkpt lat="44.3796" lon="4.50345">
        <ele>387</ele>
        <time>2018-05-16T08:07:39.1Z</time>
      </trkpt>
      <trkpt lat="44.37969" lon="4.50357">
        <ele>387</ele>
        <time>2018-05-16T08:07:42.1Z</time>
      </trkpt>
      <trkpt lat="44.37978" lon="4.5037">
        <ele>388</ele>
        <time>2018-05-16T08:07:45.1Z</time>
      </trkpt>
      <trkpt lat="44.37983" lon="4.50378">
        <ele>388</ele>
        <time>2018-05-16T08:07:47.1Z</time>
      </trkpt>
      <trkpt lat="44.37992" lon="4.50391">
        <ele>388</ele>
        <time>2018-05-16T08:07:50.1Z</time>
      </trkpt>
      <trkpt lat="44.37999" lon="4.504">
        <ele>388</ele>
        <time>2018-05-16T08:07:52.1Z</time>
      </trkpt>
      <trkpt lat="44.38005" lon="4.50409">
        <ele>388</ele>
        <time>2018-05-16T08:07:54.1Z</time>
      </trkpt>
      <trkpt lat="44.38013" lon="4.50419">
        <ele>388</ele>
        <time>2018-05-16T08:07:57.1Z</time>
      </trkpt>
      <trkpt lat="44.38018" lon="4.50426">
        <ele>388</ele>
        <time>2018-05-16T08:07:59.1Z</time>
      </trkpt>
      <trkpt lat="44.38023" lon="4.50434">
        <ele>389</ele>
        <time>2018-05-16T08:08:01.1Z</time>
      </trkpt>
      <trkpt lat="44.38032" lon="4.50445">
        <ele>389</ele>
        <time>2018-05-16T08:08:04.1Z</time>
      </trkpt>
      <trkpt lat="44.38037" lon="4.50453">
        <ele>389</ele>
        <time>2018-05-16T08:08:06.1Z</time>
      </trkpt>
      <trkpt lat="44.38043" lon="4.5046">
        <ele>389</ele>
        <time>2018-05-16T08:08:08.1Z</time>
      </trkpt>
      <trkpt lat="44.38051" lon="4.50471">
        <ele>388</ele>
        <time>2018-05-16T08:08:11.1Z</time>
      </trkpt>
      <trkpt lat="44.38059" lon="4.50482">
        <ele>389</ele>
        <time>2018-05-16T08:08:14.1Z</time>
      </trkpt>
      <trkpt lat="44.38069" lon="4.50491">
        <ele>389</ele>
        <time>2018-05-16T08:08:17.1Z</time>
      </trkpt>
      <trkpt lat="44.38076" lon="4.50496">
        <ele>389</ele>
        <time>2018-05-16T08:08:19.1Z</time>
      </trkpt>
      <trkpt lat="44.38082" lon="4.50502">
        <ele>389</ele>
        <time>2018-05-16T08:08:21.1Z</time>
      </trkpt>
      <trkpt lat="44.38089" lon="4.50508">
        <ele>389</ele>
        <time>2018-05-16T08:08:23.1Z</time>
      </trkpt>
      <trkpt lat="44.38101" lon="4.50518">
        <ele>389</ele>
        <time>2018-05-16T08:08:26.1Z</time>
      </trkpt>
      <trkpt lat="44.38109" lon="4.50524">
        <ele>389</ele>
        <time>2018-05-16T08:08:28.1Z</time>
      </trkpt>
      <trkpt lat="44.38121" lon="4.50533">
        <ele>389</ele>
        <time>2018-05-16T08:08:31.1Z</time>
      </trkpt>
      <trkpt lat="44.38134" lon="4.50542">
        <ele>389</ele>
        <time>2018-05-16T08:08:34.1Z</time>
      </trkpt>
      <trkpt lat="44.38148" lon="4.50553">
        <ele>389</ele>
        <time>2018-05-16T08:08:37.1Z</time>
      </trkpt>
      <trkpt lat="44.38163" lon="4.50564">
        <ele>389</ele>
        <time>2018-05-16T08:08:40.1Z</time>
      </trkpt>
      <trkpt lat="44.38178" lon="4.50575">
        <ele>389</ele>
        <time>2018-05-16T08:08:43.1Z</time>
      </trkpt>
      <trkpt lat="44.38193" lon="4.50587">
        <ele>388</ele>
        <time>2018-05-16T08:08:46.1Z</time>
      </trkpt>
      <trkpt lat="44.38208" lon="4.50599">
        <ele>387</ele>
        <time>2018-05-16T08:08:49.1Z</time>
      </trkpt>
      <trkpt lat="44.38222" lon="4.50611">
        <ele>386</ele>
        <time>2018-05-16T08:08:52.1Z</time>
      </trkpt>
      <trkpt lat="44.38232" lon="4.50621">
        <ele>386</ele>
        <time>2018-05-16T08:08:54.1Z</time>
      </trkpt>
      <trkpt lat="44.38241" lon="4.5063">
        <ele>386</ele>
        <time>2018-05-16T08:08:56.1Z</time>
      </trkpt>
      <trkpt lat="44.38255" lon="4.50646">
        <ele>385</ele>
        <time>2018-05-16T08:08:59.1Z</time>
      </trkpt>
      <trkpt lat="44.38263" lon="4.50656">
        <ele>385</ele>
        <time>2018-05-16T08:09:01.1Z</time>
      </trkpt>
      <trkpt lat="44.38276" lon="4.50671">
        <ele>385</ele>
        <time>2018-05-16T08:09:04.1Z</time>
      </trkpt>
      <trkpt lat="44.38289" lon="4.50686">
        <ele>385</ele>
        <time>2018-05-16T08:09:07.1Z</time>
      </trkpt>
      <trkpt lat="44.38297" lon="4.50696">
        <ele>384</ele>
        <time>2018-05-16T08:09:09.1Z</time>
      </trkpt>
      <trkpt lat="44.38306" lon="4.50707">
        <ele>384</ele>
        <time>2018-05-16T08:09:11.1Z</time>
      </trkpt>
      <trkpt lat="44.38319" lon="4.50723">
        <ele>385</ele>
        <time>2018-05-16T08:09:14.1Z</time>
      </trkpt>
      <trkpt lat="44.38332" lon="4.50739">
        <ele>385</ele>
        <time>2018-05-16T08:09:17.1Z</time>
      </trkpt>
      <trkpt lat="44.3834" lon="4.5075">
        <ele>384</ele>
        <time>2018-05-16T08:09:19.1Z</time>
      </trkpt>
      <trkpt lat="44.38349" lon="4.50761">
        <ele>384</ele>
        <time>2018-05-16T08:09:21.1Z</time>
      </trkpt>
      <trkpt lat="44.38358" lon="4.50772">
        <ele>383</ele>
        <time>2018-05-16T08:09:23.1Z</time>
      </trkpt>
      <trkpt lat="44.38371" lon="4.50788">
        <ele>382</ele>
        <time>2018-05-16T08:09:26.1Z</time>
      </trkpt>
      <trkpt lat="44.3838" lon="4.50799">
        <ele>383</ele>
        <time>2018-05-16T08:09:28.1Z</time>
      </trkpt>
      <trkpt lat="44.38388" lon="4.5081">
        <ele>382</ele>
        <time>2018-05-16T08:09:30.1Z</time>
      </trkpt>
      <trkpt lat="44.38396" lon="4.5082">
        <ele>383</ele>
        <time>2018-05-16T08:09:32.1Z</time>
      </trkpt>
      <trkpt lat="44.38405" lon="4.5083">
        <ele>382</ele>
        <time>2018-05-16T08:09:34.1Z</time>
      </trkpt>
      <trkpt lat="44.38417" lon="4.50846">
        <ele>382</ele>
        <time>2018-05-16T08:09:37.1Z</time>
      </trkpt>
      <trkpt lat="44.38426" lon="4.50857">
        <ele>381</ele>
        <time>2018-05-16T08:09:39.1Z</time>
      </trkpt>
      <trkpt lat="44.38434" lon="4.50868">
        <ele>381</ele>
        <time>2018-05-16T08:09:41.1Z</time>
      </trkpt>
      <trkpt lat="44.38448" lon="4.50883">
        <ele>381</ele>
        <time>2018-05-16T08:09:44.1Z</time>
      </trkpt>
      <trkpt lat="44.38458" lon="4.50892">
        <ele>381</ele>
        <time>2018-05-16T08:09:46.1Z</time>
      </trkpt>
      <trkpt lat="44.38467" lon="4.50903">
        <ele>380</ele>
        <time>2018-05-16T08:09:48.1Z</time>
      </trkpt>
      <trkpt lat="44.38477" lon="4.50912">
        <ele>380</ele>
        <time>2018-05-16T08:09:50.1Z</time>
      </trkpt>
      <trkpt lat="44.38491" lon="4.50927">
        <ele>380</ele>
        <time>2018-05-16T08:09:53.1Z</time>
      </trkpt>
      <trkpt lat="44.38501" lon="4.50936">
        <ele>380</ele>
        <time>2018-05-16T08:09:55.1Z</time>
      </trkpt>
      <trkpt lat="44.38511" lon="4.50946">
        <ele>380</ele>
        <time>2018-05-16T08:09:57.1Z</time>
      </trkpt>
      <trkpt lat="44.38525" lon="4.5096">
        <ele>380</ele>
        <time>2018-05-16T08:10:00.1Z</time>
      </trkpt>
      <trkpt lat="44.3854" lon="4.50974">
        <ele>379</ele>
        <time>2018-05-16T08:10:03.1Z</time>
      </trkpt>
      <trkpt lat="44.38549" lon="4.50983">
        <ele>379</ele>
        <time>2018-05-16T08:10:05.1Z</time>
      </trkpt>
      <trkpt lat="44.38558" lon="4.50991">
        <ele>379</ele>
        <time>2018-05-16T08:10:07.1Z</time>
      </trkpt>
      <trkpt lat="44.38571" lon="4.51005">
        <ele>379</ele>
        <time>2018-05-16T08:10:10.1Z</time>
      </trkpt>
      <trkpt lat="44.3858" lon="4.51013">
        <ele>379</ele>
        <time>2018-05-16T08:10:12.1Z</time>
      </trkpt>
      <trkpt lat="44.38594" lon="4.51026">
        <ele>378</ele>
        <time>2018-05-16T08:10:15.1Z</time>
      </trkpt>
      <trkpt lat="44.38608" lon="4.51038">
        <ele>378</ele>
        <time>2018-05-16T08:10:18.1Z</time>
      </trkpt>
      <trkpt lat="44.38623" lon="4.51048">
        <ele>378</ele>
        <time>2018-05-16T08:10:21.1Z</time>
      </trkpt>
      <trkpt lat="44.38637" lon="4.51057">
        <ele>378</ele>
        <time>2018-05-16T08:10:24.1Z</time>
      </trkpt>
      <trkpt lat="44.38647" lon="4.51062">
        <ele>378</ele>
        <time>2018-05-16T08:10:26.1Z</time>
      </trkpt>
      <trkpt lat="44.38657" lon="4.51067">
        <ele>379</ele>
        <time>2018-05-16T08:10:28.1Z</time>
      </trkpt>
      <trkpt lat="44.38667" lon="4.51073">
        <ele>379</ele>
        <time>2018-05-16T08:10:30.1Z</time>
      </trkpt>
      <trkpt lat="44.38682" lon="4.51082">
        <ele>378</ele>
        <time>2018-05-16T08:10:33.1Z</time>
      </trkpt>
      <trkpt lat="44.38698" lon="4.5109">
        <ele>378</ele>
        <time>2018-05-16T08:10:36.1Z</time>
      </trkpt>
      <trkpt lat="44.38708" lon="4.51096">
        <ele>378</ele>
        <time>2018-05-16T08:10:38.1Z</time>
      </trkpt>
      <trkpt lat="44.38718" lon="4.51101">
        <ele>378</ele>
        <time>2018-05-16T08:10:40.1Z</time>
      </trkpt>
      <trkpt lat="44.38728" lon="4.51107">
        <ele>378</ele>
        <time>2018-05-16T08:10:42.1Z</time>
      </trkpt>
      <trkpt lat="44.38738" lon="4.51113">
        <ele>378</ele>
        <time>2018-05-16T08:10:44.1Z</time>
      </trkpt>
      <trkpt lat="44.38753" lon="4.51121">
        <ele>378</ele>
        <time>2018-05-16T08:10:47.1Z</time>
      </trkpt>
      <trkpt lat="44.38763" lon="4.51126">
        <ele>377</ele>
        <time>2018-05-16T08:10:49.1Z</time>
      </trkpt>
      <trkpt lat="44.38779" lon="4.51135">
        <ele>378</ele>
        <time>2018-05-16T08:10:52.1Z</time>
      </trkpt>
      <trkpt lat="44.38789" lon="4.51141">
        <ele>378</ele>
        <time>2018-05-16T08:10:54.1Z</time>
      </trkpt>
      <trkpt lat="44.38804" lon="4.51149">
        <ele>377</ele>
        <time>2018-05-16T08:10:57.1Z</time>
      </trkpt>
      <trkpt lat="44.38819" lon="4.51158">
        <ele>377</ele>
        <time>2018-05-16T08:11:00.1Z</time>
      </trkpt>
      <trkpt lat="44.38834" lon="4.51166">
        <ele>377</ele>
        <time>2018-05-16T08:11:03.1Z</time>
      </trkpt>
      <trkpt lat="44.38844" lon="4.51171">
        <ele>378</ele>
        <time>2018-05-16T08:11:05.1Z</time>
      </trkpt>
      <trkpt lat="44.38853" lon="4.51175">
        <ele>377</ele>
        <time>2018-05-16T08:11:07.1Z</time>
      </trkpt>
      <trkpt lat="44.38862" lon="4.51181">
        <ele>377</ele>
        <time>2018-05-16T08:11:09.1Z</time>
      </trkpt>
      <trkpt lat="44.38873" lon="4.51191">
        <ele>377</ele>
        <time>2018-05-16T08:11:12.1Z</time>
      </trkpt>
      <trkpt lat="44.38879" lon="4.51198">
        <ele>376</ele>
        <time>2018-05-16T08:11:14.1Z</time>
      </trkpt>
      <trkpt lat="44.38884" lon="4.51204">
        <ele>375</ele>
        <time>2018-05-16T08:11:16.1Z</time>
      </trkpt>
      <trkpt lat="44.3889" lon="4.51208">
        <ele>375</ele>
        <time>2018-05-16T08:11:19.1Z</time>
      </trkpt>
      <trkpt lat="44.3889" lon="4.51208">
        <ele>374</ele>
        <time>2018-05-16T08:11:21.1Z</time>
      </trkpt>
      <trkpt lat="44.38891" lon="4.51208">
        <ele>374</ele>
        <time>2018-05-16T08:11:24.1Z</time>
      </trkpt>
      <trkpt lat="44.38891" lon="4.51209">
        <ele>374</ele>
        <time>2018-05-16T08:11:27.1Z</time>
      </trkpt>
      <trkpt lat="44.38892" lon="4.51209">
        <ele>374</ele>
        <time>2018-05-16T08:11:31.1Z</time>
      </trkpt>
      <trkpt lat="44.38892" lon="4.51209">
        <ele>374</ele>
        <time>2018-05-16T08:11:34.1Z</time>
      </trkpt>
      <trkpt lat="44.38892" lon="4.51209">
        <ele>374</ele>
        <time>2018-05-16T08:11:39.1Z</time>
      </trkpt>
      <trkpt lat="44.38891" lon="4.51209">
        <ele>374</ele>
        <time>2018-05-16T08:11:43.1Z</time>
      </trkpt>
      <trkpt lat="44.38891" lon="4.51208">
        <ele>374</ele>
        <time>2018-05-16T08:11:48.1Z</time>
      </trkpt>
      <trkpt lat="44.38891" lon="4.51208">
        <ele>374</ele>
        <time>2018-05-16T08:11:50.1Z</time>
      </trkpt>
      <trkpt lat="44.3889" lon="4.51208">
        <ele>374</ele>
        <time>2018-05-16T08:11:53.1Z</time>
      </trkpt>
      <trkpt lat="44.3889" lon="4.51208">
        <ele>374</ele>
        <time>2018-05-16T08:11:56.1Z</time>
      </trkpt>
      <trkpt lat="44.38889" lon="4.51208">
        <ele>375</ele>
        <time>2018-05-16T08:11:59.1Z</time>
      </trkpt>
      <trkpt lat="44.38889" lon="4.51208">
        <ele>374</ele>
        <time>2018-05-16T08:12:02.1Z</time>
      </trkpt>
      <trkpt lat="44.38889" lon="4.51208">
        <ele>374</ele>
        <time>2018-05-16T08:12:06.1Z</time>
      </trkpt>
      <trkpt lat="44.38889" lon="4.51208">
        <ele>374</ele>
        <time>2018-05-16T08:12:10.1Z</time>
      </trkpt>
      <trkpt lat="44.38888" lon="4.51208">
        <ele>374</ele>
        <time>2018-05-16T08:12:13.1Z</time>
      </trkpt>
      <trkpt lat="44.38888" lon="4.51208">
        <ele>374</ele>
        <time>2018-05-16T08:12:15.1Z</time>
      </trkpt>
      <trkpt lat="44.38887" lon="4.51208">
        <ele>374</ele>
        <time>2018-05-16T08:12:18.1Z</time>
      </trkpt>
      <trkpt lat="44.38887" lon="4.51208">
        <ele>374</ele>
        <time>2018-05-16T08:12:20.1Z</time>
      </trkpt>
      <trkpt lat="44.38887" lon="4.51208">
        <ele>374</ele>
        <time>2018-05-16T08:12:22.1Z</time>
      </trkpt>
      <trkpt lat="44.38887" lon="4.51208">
        <ele>374</ele>
        <time>2018-05-16T08:12:25.1Z</time>
      </trkpt>
      <trkpt lat="44.38887" lon="4.51208">
        <ele>374</ele>
        <time>2018-05-16T08:12:28.1Z</time>
      </trkpt>
      <trkpt lat="44.38886" lon="4.51208">
        <ele>374</ele>
        <time>2018-05-16T08:12:31.1Z</time>
      </trkpt>
      <trkpt lat="44.38886" lon="4.51208">
        <ele>375</ele>
        <time>2018-05-16T08:12:34.1Z</time>
      </trkpt>
      <trkpt lat="44.38886" lon="4.51209">
        <ele>375</ele>
        <time>2018-05-16T08:12:36.1Z</time>
      </trkpt>
      <trkpt lat="44.38886" lon="4.51209">
        <ele>375</ele>
        <time>2018-05-16T08:12:39.1Z</time>
      </trkpt>
      <trkpt lat="44.38887" lon="4.51209">
        <ele>375</ele>
        <time>2018-05-16T08:12:43.1Z</time>
      </trkpt>
      <trkpt lat="44.38887" lon="4.51209">
        <ele>375</ele>
        <time>2018-05-16T08:12:45.1Z</time>
      </trkpt>
      <trkpt lat="44.38887" lon="4.51209">
        <ele>375</ele>
        <time>2018-05-16T08:12:48.1Z</time>
      </trkpt>
      <trkpt lat="44.38887" lon="4.51209">
        <ele>375</ele>
        <time>2018-05-16T08:12:52.1Z</time>
      </trkpt>
      <trkpt lat="44.38887" lon="4.51209">
        <ele>375</ele>
        <time>2018-05-16T08:12:55.1Z</time>
      </trkpt>
      <trkpt lat="44.38888" lon="4.51209">
        <ele>375</ele>
        <time>2018-05-16T08:12:59.1Z</time>
      </trkpt>
      <trkpt lat="44.38888" lon="4.51209">
        <ele>375</ele>
        <time>2018-05-16T08:13:04.1Z</time>
      </trkpt>
      <trkpt lat="44.38889" lon="4.5121">
        <ele>375</ele>
        <time>2018-05-16T08:13:06.1Z</time>
      </trkpt>
      <trkpt lat="44.38892" lon="4.51214">
        <ele>375</ele>
        <time>2018-05-16T08:13:09.1Z</time>
      </trkpt>
      <trkpt lat="44.38895" lon="4.51214">
        <ele>375</ele>
        <time>2018-05-16T08:13:11.1Z</time>
      </trkpt>
      <trkpt lat="44.38899" lon="4.51213">
        <ele>375</ele>
        <time>2018-05-16T08:13:13.1Z</time>
      </trkpt>
      <trkpt lat="44.38905" lon="4.51211">
        <ele>375</ele>
        <time>2018-05-16T08:13:15.1Z</time>
      </trkpt>
      <trkpt lat="44.38914" lon="4.51205">
        <ele>376</ele>
        <time>2018-05-16T08:13:18.1Z</time>
      </trkpt>
      <trkpt lat="44.38924" lon="4.51199">
        <ele>376</ele>
        <time>2018-05-16T08:13:21.1Z</time>
      </trkpt>
      <trkpt lat="44.38931" lon="4.51195">
        <ele>377</ele>
        <time>2018-05-16T08:13:23.1Z</time>
      </trkpt>
      <trkpt lat="44.38938" lon="4.51192">
        <ele>376</ele>
        <time>2018-05-16T08:13:25.1Z</time>
      </trkpt>
      <trkpt lat="44.38947" lon="4.51187">
        <ele>376</ele>
        <time>2018-05-16T08:13:28.1Z</time>
      </trkpt>
      <trkpt lat="44.38955" lon="4.51183">
        <ele>376</ele>
        <time>2018-05-16T08:13:30.1Z</time>
      </trkpt>
      <trkpt lat="44.38966" lon="4.51177">
        <ele>376</ele>
        <time>2018-05-16T08:13:33.1Z</time>
      </trkpt>
      <trkpt lat="44.38976" lon="4.51171">
        <ele>376</ele>
        <time>2018-05-16T08:13:36.1Z</time>
      </trkpt>
      <trkpt lat="44.38983" lon="4.51168">
        <ele>377</ele>
        <time>2018-05-16T08:13:38.1Z</time>
      </trkpt>
      <trkpt lat="44.3899" lon="4.51166">
        <ele>377</ele>
        <time>2018-05-16T08:13:40.1Z</time>
      </trkpt>
      <trkpt lat="44.39" lon="4.51159">
        <ele>377</ele>
        <time>2018-05-16T08:13:43.1Z</time>
      </trkpt>
      <trkpt lat="44.39007" lon="4.51157">
        <ele>377</ele>
        <time>2018-05-16T08:13:45.1Z</time>
      </trkpt>
      <trkpt lat="44.39018" lon="4.5115">
        <ele>377</ele>
        <time>2018-05-16T08:13:48.1Z</time>
      </trkpt>
      <trkpt lat="44.39026" lon="4.51146">
        <ele>377</ele>
        <time>2018-05-16T08:13:50.1Z</time>
      </trkpt>
      <trkpt lat="44.39034" lon="4.51142">
        <ele>377</ele>
        <time>2018-05-16T08:13:52.1Z</time>
      </trkpt>
      <trkpt lat="44.39047" lon="4.51135">
        <ele>377</ele>
        <time>2018-05-16T08:13:55.1Z</time>
      </trkpt>
      <trkpt lat="44.39056" lon="4.5113">
        <ele>378</ele>
        <time>2018-05-16T08:13:57.1Z</time>
      </trkpt>
      <trkpt lat="44.39065" lon="4.51125">
        <ele>378</ele>
        <time>2018-05-16T08:13:59.1Z</time>
      </trkpt>
      <trkpt lat="44.39078" lon="4.51116">
        <ele>378</ele>
        <time>2018-05-16T08:14:02.1Z</time>
      </trkpt>
      <trkpt lat="44.39087" lon="4.51111">
        <ele>378</ele>
        <time>2018-05-16T08:14:04.1Z</time>
      </trkpt>
      <trkpt lat="44.39098" lon="4.51103">
        <ele>378</ele>
        <time>2018-05-16T08:14:07.1Z</time>
      </trkpt>
      <trkpt lat="44.39109" lon="4.51094">
        <ele>378</ele>
        <time>2018-05-16T08:14:10.1Z</time>
      </trkpt>
      <trkpt lat="44.39116" lon="4.51088">
        <ele>377</ele>
        <time>2018-05-16T08:14:12.1Z</time>
      </trkpt>
      <trkpt lat="44.39122" lon="4.51081">
        <ele>377</ele>
        <time>2018-05-16T08:14:14.1Z</time>
      </trkpt>
      <trkpt lat="44.39128" lon="4.51073">
        <ele>377</ele>
        <time>2018-05-16T08:14:16.1Z</time>
      </trkpt>
      <trkpt lat="44.39135" lon="4.51058">
        <ele>376</ele>
        <time>2018-05-16T08:14:19.1Z</time>
      </trkpt>
      <trkpt lat="44.3914" lon="4.51047">
        <ele>376</ele>
        <time>2018-05-16T08:14:21.1Z</time>
      </trkpt>
      <trkpt lat="44.39144" lon="4.51034">
        <ele>376</ele>
        <time>2018-05-16T08:14:23.1Z</time>
      </trkpt>
      <trkpt lat="44.39149" lon="4.51013">
        <ele>376</ele>
        <time>2018-05-16T08:14:26.1Z</time>
      </trkpt>
      <trkpt lat="44.39155" lon="4.5099">
        <ele>376</ele>
        <time>2018-05-16T08:14:29.1Z</time>
      </trkpt>
      <trkpt lat="44.39159" lon="4.50974">
        <ele>375</ele>
        <time>2018-05-16T08:14:31.1Z</time>
      </trkpt>
      <trkpt lat="44.39163" lon="4.50958">
        <ele>375</ele>
        <time>2018-05-16T08:14:33.1Z</time>
      </trkpt>
      <trkpt lat="44.39169" lon="4.50932">
        <ele>374</ele>
        <time>2018-05-16T08:14:36.1Z</time>
      </trkpt>
      <trkpt lat="44.39175" lon="4.50906">
        <ele>374</ele>
        <time>2018-05-16T08:14:39.1Z</time>
      </trkpt>
      <trkpt lat="44.39178" lon="4.50889">
        <ele>374</ele>
        <time>2018-05-16T08:14:41.1Z</time>
      </trkpt>
      <trkpt lat="44.39183" lon="4.50863">
        <ele>373</ele>
        <time>2018-05-16T08:14:44.1Z</time>
      </trkpt>
      <trkpt lat="44.39189" lon="4.50836">
        <ele>372</ele>
        <time>2018-05-16T08:14:47.1Z</time>
      </trkpt>
      <trkpt lat="44.39193" lon="4.50819">
        <ele>372</ele>
        <time>2018-05-16T08:14:49.1Z</time>
      </trkpt>
      <trkpt lat="44.39198" lon="4.50801">
        <ele>371</ele>
        <time>2018-05-16T08:14:51.1Z</time>
      </trkpt>
      <trkpt lat="44.39204" lon="4.50772">
        <ele>371</ele>
        <time>2018-05-16T08:14:54.1Z</time>
      </trkpt>
      <trkpt lat="44.39208" lon="4.50753">
        <ele>371</ele>
        <time>2018-05-16T08:14:56.1Z</time>
      </trkpt>
      <trkpt lat="44.39214" lon="4.50723">
        <ele>371</ele>
        <time>2018-05-16T08:14:59.1Z</time>
      </trkpt>
      <trkpt lat="44.39218" lon="4.50703">
        <ele>370</ele>
        <time>2018-05-16T08:15:01.1Z</time>
      </trkpt>
      <trkpt lat="44.39225" lon="4.50675">
        <ele>369</ele>
        <time>2018-05-16T08:15:04.1Z</time>
      </trkpt>
      <trkpt lat="44.39228" lon="4.50656">
        <ele>369</ele>
        <time>2018-05-16T08:15:06.1Z</time>
      </trkpt>
      <trkpt lat="44.39233" lon="4.50639">
        <ele>368</ele>
        <time>2018-05-16T08:15:08.1Z</time>
      </trkpt>
      <trkpt lat="44.39236" lon="4.50621">
        <ele>368</ele>
        <time>2018-05-16T08:15:10.1Z</time>
      </trkpt>
      <trkpt lat="44.39243" lon="4.50594">
        <ele>367</ele>
        <time>2018-05-16T08:15:13.1Z</time>
      </trkpt>
      <trkpt lat="44.3925" lon="4.50564">
        <ele>366</ele>
        <time>2018-05-16T08:15:16.1Z</time>
      </trkpt>
      <trkpt lat="44.39254" lon="4.50547">
        <ele>365</ele>
        <time>2018-05-16T08:15:18.1Z</time>
      </trkpt>
      <trkpt lat="44.39258" lon="4.50532">
        <ele>364</ele>
        <time>2018-05-16T08:15:20.1Z</time>
      </trkpt>
      <trkpt lat="44.39263" lon="4.5052">
        <ele>363</ele>
        <time>2018-05-16T08:15:22.1Z</time>
      </trkpt>
      <trkpt lat="44.39265" lon="4.50499">
        <ele>362</ele>
        <time>2018-05-16T08:15:25.1Z</time>
      </trkpt>
      <trkpt lat="44.39267" lon="4.50485">
        <ele>361</ele>
        <time>2018-05-16T08:15:27.1Z</time>
      </trkpt>
      <trkpt lat="44.39271" lon="4.50463">
        <ele>361</ele>
        <time>2018-05-16T08:15:30.1Z</time>
      </trkpt>
      <trkpt lat="44.39275" lon="4.50446">
        <ele>361</ele>
        <time>2018-05-16T08:15:32.1Z</time>
      </trkpt>
      <trkpt lat="44.3928" lon="4.50421">
        <ele>361</ele>
        <time>2018-05-16T08:15:35.1Z</time>
      </trkpt>
      <trkpt lat="44.39286" lon="4.50394">
        <ele>361</ele>
        <time>2018-05-16T08:15:38.1Z</time>
      </trkpt>
      <trkpt lat="44.39293" lon="4.50366">
        <ele>361</ele>
        <time>2018-05-16T08:15:41.1Z</time>
      </trkpt>
      <trkpt lat="44.39297" lon="4.50348">
        <ele>361</ele>
        <time>2018-05-16T08:15:43.1Z</time>
      </trkpt>
      <trkpt lat="44.39302" lon="4.50329">
        <ele>360</ele>
        <time>2018-05-16T08:15:45.1Z</time>
      </trkpt>
      <trkpt lat="44.39306" lon="4.5031">
        <ele>359</ele>
        <time>2018-05-16T08:15:47.1Z</time>
      </trkpt>
      <trkpt lat="44.39309" lon="4.50293">
        <ele>358</ele>
        <time>2018-05-16T08:15:49.1Z</time>
      </trkpt>
      <trkpt lat="44.39315" lon="4.50266">
        <ele>358</ele>
        <time>2018-05-16T08:15:52.1Z</time>
      </trkpt>
      <trkpt lat="44.39317" lon="4.50248">
        <ele>358</ele>
        <time>2018-05-16T08:15:54.1Z</time>
      </trkpt>
      <trkpt lat="44.3932" lon="4.50221">
        <ele>357</ele>
        <time>2018-05-16T08:15:57.1Z</time>
      </trkpt>
      <trkpt lat="44.39321" lon="4.50204">
        <ele>357</ele>
        <time>2018-05-16T08:15:59.1Z</time>
      </trkpt>
      <trkpt lat="44.39323" lon="4.50186">
        <ele>356</ele>
        <time>2018-05-16T08:16:01.1Z</time>
      </trkpt>
      <trkpt lat="44.39324" lon="4.5017">
        <ele>356</ele>
        <time>2018-05-16T08:16:03.1Z</time>
      </trkpt>
      <trkpt lat="44.39326" lon="4.50153">
        <ele>356</ele>
        <time>2018-05-16T08:16:05.1Z</time>
      </trkpt>
      <trkpt lat="44.39327" lon="4.50129">
        <ele>356</ele>
        <time>2018-05-16T08:16:08.1Z</time>
      </trkpt>
      <trkpt lat="44.39329" lon="4.50104">
        <ele>356</ele>
        <time>2018-05-16T08:16:11.1Z</time>
      </trkpt>
      <trkpt lat="44.3933" lon="4.50088">
        <ele>356</ele>
        <time>2018-05-16T08:16:13.1Z</time>
      </trkpt>
      <trkpt lat="44.39332" lon="4.50071">
        <ele>356</ele>
        <time>2018-05-16T08:16:15.1Z</time>
      </trkpt>
      <trkpt lat="44.39333" lon="4.50054">
        <ele>356</ele>
        <time>2018-05-16T08:16:17.1Z</time>
      </trkpt>
      <trkpt lat="44.39335" lon="4.50028">
        <ele>356</ele>
        <time>2018-05-16T08:16:20.1Z</time>
      </trkpt>
      <trkpt lat="44.39337" lon="4.50004">
        <ele>356</ele>
        <time>2018-05-16T08:16:23.1Z</time>
      </trkpt>
      <trkpt lat="44.39339" lon="4.49987">
        <ele>356</ele>
        <time>2018-05-16T08:16:25.1Z</time>
      </trkpt>
      <trkpt lat="44.3934" lon="4.49971">
        <ele>356</ele>
        <time>2018-05-16T08:16:27.1Z</time>
      </trkpt>
      <trkpt lat="44.39341" lon="4.49955">
        <ele>356</ele>
        <time>2018-05-16T08:16:29.1Z</time>
      </trkpt>
      <trkpt lat="44.39344" lon="4.49931">
        <ele>356</ele>
        <time>2018-05-16T08:16:32.1Z</time>
      </trkpt>
      <trkpt lat="44.39345" lon="4.49915">
        <ele>355</ele>
        <time>2018-05-16T08:16:34.1Z</time>
      </trkpt>
      <trkpt lat="44.39347" lon="4.49899">
        <ele>355</ele>
        <time>2018-05-16T08:16:36.1Z</time>
      </trkpt>
      <trkpt lat="44.39349" lon="4.49883">
        <ele>355</ele>
        <time>2018-05-16T08:16:38.1Z</time>
      </trkpt>
      <trkpt lat="44.39354" lon="4.49868">
        <ele>355</ele>
        <time>2018-05-16T08:16:40.1Z</time>
      </trkpt>
      <trkpt lat="44.39365" lon="4.49849">
        <ele>356</ele>
        <time>2018-05-16T08:16:43.1Z</time>
      </trkpt>
      <trkpt lat="44.39373" lon="4.49838">
        <ele>356</ele>
        <time>2018-05-16T08:16:45.1Z</time>
      </trkpt>
      <trkpt lat="44.39384" lon="4.49822">
        <ele>357</ele>
        <time>2018-05-16T08:16:48.1Z</time>
      </trkpt>
      <trkpt lat="44.39394" lon="4.49804">
        <ele>358</ele>
        <time>2018-05-16T08:16:51.1Z</time>
      </trkpt>
      <trkpt lat="44.394" lon="4.49791">
        <ele>358</ele>
        <time>2018-05-16T08:16:53.1Z</time>
      </trkpt>
      <trkpt lat="44.39409" lon="4.49772">
        <ele>358</ele>
        <time>2018-05-16T08:16:56.1Z</time>
      </trkpt>
      <trkpt lat="44.39417" lon="4.49752">
        <ele>358</ele>
        <time>2018-05-16T08:16:59.1Z</time>
      </trkpt>
      <trkpt lat="44.39426" lon="4.49731">
        <ele>358</ele>
        <time>2018-05-16T08:17:02.1Z</time>
      </trkpt>
      <trkpt lat="44.39435" lon="4.49711">
        <ele>357</ele>
        <time>2018-05-16T08:17:05.1Z</time>
      </trkpt>
      <trkpt lat="44.39441" lon="4.49697">
        <ele>358</ele>
        <time>2018-05-16T08:17:07.1Z</time>
      </trkpt>
      <trkpt lat="44.39449" lon="4.49676">
        <ele>358</ele>
        <time>2018-05-16T08:17:10.1Z</time>
      </trkpt>
      <trkpt lat="44.39454" lon="4.49662">
        <ele>358</ele>
        <time>2018-05-16T08:17:12.1Z</time>
      </trkpt>
      <trkpt lat="44.3946" lon="4.49639">
        <ele>358</ele>
        <time>2018-05-16T08:17:15.1Z</time>
      </trkpt>
      <trkpt lat="44.39463" lon="4.49624">
        <ele>358</ele>
        <time>2018-05-16T08:17:17.1Z</time>
      </trkpt>
      <trkpt lat="44.39467" lon="4.49601">
        <ele>358</ele>
        <time>2018-05-16T08:17:20.1Z</time>
      </trkpt>
      <trkpt lat="44.39469" lon="4.49585">
        <ele>358</ele>
        <time>2018-05-16T08:17:22.1Z</time>
      </trkpt>
      <trkpt lat="44.3947" lon="4.4957">
        <ele>359</ele>
        <time>2018-05-16T08:17:24.1Z</time>
      </trkpt>
      <trkpt lat="44.39472" lon="4.49555">
        <ele>359</ele>
        <time>2018-05-16T08:17:26.1Z</time>
      </trkpt>
      <trkpt lat="44.39473" lon="4.4954">
        <ele>359</ele>
        <time>2018-05-16T08:17:28.1Z</time>
      </trkpt>
      <trkpt lat="44.39474" lon="4.49525">
        <ele>359</ele>
        <time>2018-05-16T08:17:30.1Z</time>
      </trkpt>
      <trkpt lat="44.39475" lon="4.4951">
        <ele>359</ele>
        <time>2018-05-16T08:17:32.1Z</time>
      </trkpt>
      <trkpt lat="44.39475" lon="4.49496">
        <ele>359</ele>
        <time>2018-05-16T08:17:34.1Z</time>
      </trkpt>
      <trkpt lat="44.39476" lon="4.49482">
        <ele>359</ele>
        <time>2018-05-16T08:17:36.1Z</time>
      </trkpt>
      <trkpt lat="44.39476" lon="4.49461">
        <ele>359</ele>
        <time>2018-05-16T08:17:39.1Z</time>
      </trkpt>
      <trkpt lat="44.39476" lon="4.49446">
        <ele>359</ele>
        <time>2018-05-16T08:17:41.1Z</time>
      </trkpt>
      <trkpt lat="44.39477" lon="4.49432">
        <ele>358</ele>
        <time>2018-05-16T08:17:43.1Z</time>
      </trkpt>
      <trkpt lat="44.39477" lon="4.49418">
        <ele>359</ele>
        <time>2018-05-16T08:17:45.1Z</time>
      </trkpt>
      <trkpt lat="44.39478" lon="4.49404">
        <ele>359</ele>
        <time>2018-05-16T08:17:47.1Z</time>
      </trkpt>
      <trkpt lat="44.39479" lon="4.49383">
        <ele>359</ele>
        <time>2018-05-16T08:17:50.1Z</time>
      </trkpt>
      <trkpt lat="44.3948" lon="4.49369">
        <ele>359</ele>
        <time>2018-05-16T08:17:52.1Z</time>
      </trkpt>
      <trkpt lat="44.39482" lon="4.49348">
        <ele>360</ele>
        <time>2018-05-16T08:17:55.1Z</time>
      </trkpt>
      <trkpt lat="44.39483" lon="4.49334">
        <ele>360</ele>
        <time>2018-05-16T08:17:57.1Z</time>
      </trkpt>
      <trkpt lat="44.39486" lon="4.49312">
        <ele>360</ele>
        <time>2018-05-16T08:18:00.1Z</time>
      </trkpt>
      <trkpt lat="44.39489" lon="4.49298">
        <ele>359</ele>
        <time>2018-05-16T08:18:02.1Z</time>
      </trkpt>
      <trkpt lat="44.39492" lon="4.49277">
        <ele>359</ele>
        <time>2018-05-16T08:18:05.1Z</time>
      </trkpt>
      <trkpt lat="44.39494" lon="4.49254">
        <ele>359</ele>
        <time>2018-05-16T08:18:08.1Z</time>
      </trkpt>
      <trkpt lat="44.39496" lon="4.49239">
        <ele>359</ele>
        <time>2018-05-16T08:18:10.1Z</time>
      </trkpt>
      <trkpt lat="44.39499" lon="4.49215">
        <ele>359</ele>
        <time>2018-05-16T08:18:13.1Z</time>
      </trkpt>
      <trkpt lat="44.39502" lon="4.4919">
        <ele>360</ele>
        <time>2018-05-16T08:18:16.1Z</time>
      </trkpt>
      <trkpt lat="44.39505" lon="4.49173">
        <ele>360</ele>
        <time>2018-05-16T08:18:18.1Z</time>
      </trkpt>
      <trkpt lat="44.39508" lon="4.4915">
        <ele>360</ele>
        <time>2018-05-16T08:18:21.1Z</time>
      </trkpt>
      <trkpt lat="44.3951" lon="4.49134">
        <ele>360</ele>
        <time>2018-05-16T08:18:23.1Z</time>
      </trkpt>
      <trkpt lat="44.39513" lon="4.4911">
        <ele>360</ele>
        <time>2018-05-16T08:18:26.1Z</time>
      </trkpt>
      <trkpt lat="44.39516" lon="4.49094">
        <ele>360</ele>
        <time>2018-05-16T08:18:28.1Z</time>
      </trkpt>
      <trkpt lat="44.39519" lon="4.49071">
        <ele>361</ele>
        <time>2018-05-16T08:18:31.1Z</time>
      </trkpt>
      <trkpt lat="44.39521" lon="4.49055">
        <ele>361</ele>
        <time>2018-05-16T08:18:33.1Z</time>
      </trkpt>
      <trkpt lat="44.39524" lon="4.49032">
        <ele>361</ele>
        <time>2018-05-16T08:18:36.1Z</time>
      </trkpt>
      <trkpt lat="44.39526" lon="4.49007">
        <ele>361</ele>
        <time>2018-05-16T08:18:39.1Z</time>
      </trkpt>
      <trkpt lat="44.39528" lon="4.48981">
        <ele>361</ele>
        <time>2018-05-16T08:18:42.1Z</time>
      </trkpt>
      <trkpt lat="44.39529" lon="4.48955">
        <ele>360</ele>
        <time>2018-05-16T08:18:45.1Z</time>
      </trkpt>
      <trkpt lat="44.3953" lon="4.48938">
        <ele>361</ele>
        <time>2018-05-16T08:18:47.1Z</time>
      </trkpt>
      <trkpt lat="44.39531" lon="4.4892">
        <ele>361</ele>
        <time>2018-05-16T08:18:49.1Z</time>
      </trkpt>
      <trkpt lat="44.39533" lon="4.48903">
        <ele>361</ele>
        <time>2018-05-16T08:18:51.1Z</time>
      </trkpt>
      <trkpt lat="44.39534" lon="4.48886">
        <ele>362</ele>
        <time>2018-05-16T08:18:53.1Z</time>
      </trkpt>
      <trkpt lat="44.39537" lon="4.48861">
        <ele>362</ele>
        <time>2018-05-16T08:18:56.1Z</time>
      </trkpt>
      <trkpt lat="44.39539" lon="4.48845">
        <ele>362</ele>
        <time>2018-05-16T08:18:58.1Z</time>
      </trkpt>
      <trkpt lat="44.39541" lon="4.48821">
        <ele>362</ele>
        <time>2018-05-16T08:19:01.1Z</time>
      </trkpt>
      <trkpt lat="44.39544" lon="4.48796">
        <ele>362</ele>
        <time>2018-05-16T08:19:04.1Z</time>
      </trkpt>
      <trkpt lat="44.39547" lon="4.48771">
        <ele>362</ele>
        <time>2018-05-16T08:19:07.1Z</time>
      </trkpt>
      <trkpt lat="44.39548" lon="4.48755">
        <ele>362</ele>
        <time>2018-05-16T08:19:09.1Z</time>
      </trkpt>
      <trkpt lat="44.39551" lon="4.4873">
        <ele>362</ele>
        <time>2018-05-16T08:19:12.1Z</time>
      </trkpt>
      <trkpt lat="44.39552" lon="4.48714">
        <ele>362</ele>
        <time>2018-05-16T08:19:14.1Z</time>
      </trkpt>
      <trkpt lat="44.39554" lon="4.48698">
        <ele>362</ele>
        <time>2018-05-16T08:19:16.1Z</time>
      </trkpt>
      <trkpt lat="44.39557" lon="4.48674">
        <ele>363</ele>
        <time>2018-05-16T08:19:19.1Z</time>
      </trkpt>
      <trkpt lat="44.3956" lon="4.4865">
        <ele>363</ele>
        <time>2018-05-16T08:19:22.1Z</time>
      </trkpt>
      <trkpt lat="44.39562" lon="4.48634">
        <ele>363</ele>
        <time>2018-05-16T08:19:24.1Z</time>
      </trkpt>
      <trkpt lat="44.39566" lon="4.48619">
        <ele>362</ele>
        <time>2018-05-16T08:19:26.1Z</time>
      </trkpt>
      <trkpt lat="44.3957" lon="4.48604">
        <ele>362</ele>
        <time>2018-05-16T08:19:28.1Z</time>
      </trkpt>
      <trkpt lat="44.39574" lon="4.4859">
        <ele>362</ele>
        <time>2018-05-16T08:19:30.1Z</time>
      </trkpt>
      <trkpt lat="44.39582" lon="4.48569">
        <ele>362</ele>
        <time>2018-05-16T08:19:33.1Z</time>
      </trkpt>
      <trkpt lat="44.39587" lon="4.48556">
        <ele>363</ele>
        <time>2018-05-16T08:19:35.1Z</time>
      </trkpt>
      <trkpt lat="44.39593" lon="4.48542">
        <ele>363</ele>
        <time>2018-05-16T08:19:37.1Z</time>
      </trkpt>
      <trkpt lat="44.39601" lon="4.48522">
        <ele>364</ele>
        <time>2018-05-16T08:19:40.1Z</time>
      </trkpt>
      <trkpt lat="44.39609" lon="4.48502">
        <ele>365</ele>
        <time>2018-05-16T08:19:43.1Z</time>
      </trkpt>
      <trkpt lat="44.39615" lon="4.48489">
        <ele>365</ele>
        <time>2018-05-16T08:19:45.1Z</time>
      </trkpt>
      <trkpt lat="44.39621" lon="4.48476">
        <ele>365</ele>
        <time>2018-05-16T08:19:47.1Z</time>
      </trkpt>
      <trkpt lat="44.39626" lon="4.48464">
        <ele>365</ele>
        <time>2018-05-16T08:19:49.1Z</time>
      </trkpt>
      <trkpt lat="44.39632" lon="4.48453">
        <ele>364</ele>
        <time>2018-05-16T08:19:51.1Z</time>
      </trkpt>
      <trkpt lat="44.39637" lon="4.48444">
        <ele>364</ele>
        <time>2018-05-16T08:19:53.1Z</time>
      </trkpt>
      <trkpt lat="44.39646" lon="4.4843">
        <ele>365</ele>
        <time>2018-05-16T08:19:56.1Z</time>
      </trkpt>
      <trkpt lat="44.39652" lon="4.4842">
        <ele>365</ele>
        <time>2018-05-16T08:19:58.1Z</time>
      </trkpt>
      <trkpt lat="44.39658" lon="4.4841">
        <ele>365</ele>
        <time>2018-05-16T08:20:00.1Z</time>
      </trkpt>
      <trkpt lat="44.39663" lon="4.484">
        <ele>365</ele>
        <time>2018-05-16T08:20:02.1Z</time>
      </trkpt>
      <trkpt lat="44.39673" lon="4.48385">
        <ele>365</ele>
        <time>2018-05-16T08:20:05.1Z</time>
      </trkpt>
      <trkpt lat="44.39679" lon="4.48375">
        <ele>366</ele>
        <time>2018-05-16T08:20:07.1Z</time>
      </trkpt>
      <trkpt lat="44.39685" lon="4.48364">
        <ele>366</ele>
        <time>2018-05-16T08:20:09.1Z</time>
      </trkpt>
      <trkpt lat="44.39691" lon="4.48354">
        <ele>366</ele>
        <time>2018-05-16T08:20:11.1Z</time>
      </trkpt>
      <trkpt lat="44.397" lon="4.48339">
        <ele>366</ele>
        <time>2018-05-16T08:20:14.1Z</time>
      </trkpt>
      <trkpt lat="44.39706" lon="4.48329">
        <ele>366</ele>
        <time>2018-05-16T08:20:16.1Z</time>
      </trkpt>
      <trkpt lat="44.39712" lon="4.48318">
        <ele>366</ele>
        <time>2018-05-16T08:20:18.1Z</time>
      </trkpt>
      <trkpt lat="44.39718" lon="4.48307">
        <ele>367</ele>
        <time>2018-05-16T08:20:20.1Z</time>
      </trkpt>
      <trkpt lat="44.39723" lon="4.48296">
        <ele>367</ele>
        <time>2018-05-16T08:20:22.1Z</time>
      </trkpt>
      <trkpt lat="44.39728" lon="4.48286">
        <ele>367</ele>
        <time>2018-05-16T08:20:24.1Z</time>
      </trkpt>
      <trkpt lat="44.39732" lon="4.48274">
        <ele>367</ele>
        <time>2018-05-16T08:20:26.1Z</time>
      </trkpt>
      <trkpt lat="44.39736" lon="4.48263">
        <ele>367</ele>
        <time>2018-05-16T08:20:28.1Z</time>
      </trkpt>
      <trkpt lat="44.39742" lon="4.48244">
        <ele>367</ele>
        <time>2018-05-16T08:20:31.1Z</time>
      </trkpt>
      <trkpt lat="44.39746" lon="4.48232">
        <ele>367</ele>
        <time>2018-05-16T08:20:33.1Z</time>
      </trkpt>
      <trkpt lat="44.3975" lon="4.4822">
        <ele>367</ele>
        <time>2018-05-16T08:20:35.1Z</time>
      </trkpt>
      <trkpt lat="44.39753" lon="4.48208">
        <ele>367</ele>
        <time>2018-05-16T08:20:37.1Z</time>
      </trkpt>
      <trkpt lat="44.39757" lon="4.48197">
        <ele>367</ele>
        <time>2018-05-16T08:20:39.1Z</time>
      </trkpt>
      <trkpt lat="44.39761" lon="4.48186">
        <ele>367</ele>
        <time>2018-05-16T08:20:41.1Z</time>
      </trkpt>
      <trkpt lat="44.39765" lon="4.48174">
        <ele>366</ele>
        <time>2018-05-16T08:20:43.1Z</time>
      </trkpt>
      <trkpt lat="44.39772" lon="4.48156">
        <ele>367</ele>
        <time>2018-05-16T08:20:46.1Z</time>
      </trkpt>
      <trkpt lat="44.39777" lon="4.48143">
        <ele>367</ele>
        <time>2018-05-16T08:20:48.1Z</time>
      </trkpt>
      <trkpt lat="44.39785" lon="4.48131">
        <ele>366</ele>
        <time>2018-05-16T08:20:50.1Z</time>
      </trkpt>
      <trkpt lat="44.39793" lon="4.48118">
        <ele>366</ele>
        <time>2018-05-16T08:20:52.1Z</time>
      </trkpt>
      <trkpt lat="44.39803" lon="4.48107">
        <ele>366</ele>
        <time>2018-05-16T08:20:54.1Z</time>
      </trkpt>
      <trkpt lat="44.3982" lon="4.48092">
        <ele>366</ele>
        <time>2018-05-16T08:20:57.1Z</time>
      </trkpt>
      <trkpt lat="44.39833" lon="4.48085">
        <ele>366</ele>
        <time>2018-05-16T08:20:59.1Z</time>
      </trkpt>
      <trkpt lat="44.39846" lon="4.48079">
        <ele>366</ele>
        <time>2018-05-16T08:21:01.1Z</time>
      </trkpt>
      <trkpt lat="44.39861" lon="4.48074">
        <ele>366</ele>
        <time>2018-05-16T08:21:03.1Z</time>
      </trkpt>
      <trkpt lat="44.39884" lon="4.48068">
        <ele>365</ele>
        <time>2018-05-16T08:21:06.1Z</time>
      </trkpt>
      <trkpt lat="44.39901" lon="4.48064">
        <ele>365</ele>
        <time>2018-05-16T08:21:08.1Z</time>
      </trkpt>
      <trkpt lat="44.39926" lon="4.48058">
        <ele>364</ele>
        <time>2018-05-16T08:21:11.1Z</time>
      </trkpt>
      <trkpt lat="44.39953" lon="4.48051">
        <ele>363</ele>
        <time>2018-05-16T08:21:14.1Z</time>
      </trkpt>
      <trkpt lat="44.39981" lon="4.48045">
        <ele>362</ele>
        <time>2018-05-16T08:21:17.1Z</time>
      </trkpt>
      <trkpt lat="44.4001" lon="4.48045">
        <ele>361</ele>
        <time>2018-05-16T08:21:20.1Z</time>
      </trkpt>
      <trkpt lat="44.40039" lon="4.48055">
        <ele>359</ele>
        <time>2018-05-16T08:21:23.1Z</time>
      </trkpt>
      <trkpt lat="44.40057" lon="4.48066">
        <ele>359</ele>
        <time>2018-05-16T08:21:25.1Z</time>
      </trkpt>
      <trkpt lat="44.40075" lon="4.48079">
        <ele>358</ele>
        <time>2018-05-16T08:21:27.1Z</time>
      </trkpt>
      <trkpt lat="44.40092" lon="4.48093">
        <ele>358</ele>
        <time>2018-05-16T08:21:29.1Z</time>
      </trkpt>
      <trkpt lat="44.40109" lon="4.48109">
        <ele>357</ele>
        <time>2018-05-16T08:21:31.1Z</time>
      </trkpt>
      <trkpt lat="44.40132" lon="4.48138">
        <ele>356</ele>
        <time>2018-05-16T08:21:34.1Z</time>
      </trkpt>
      <trkpt lat="44.40152" lon="4.4817">
        <ele>355</ele>
        <time>2018-05-16T08:21:37.1Z</time>
      </trkpt>
      <trkpt lat="44.40175" lon="4.48198">
        <ele>354</ele>
        <time>2018-05-16T08:21:40.1Z</time>
      </trkpt>
      <trkpt lat="44.40202" lon="4.48199">
        <ele>353</ele>
        <time>2018-05-16T08:21:43.1Z</time>
      </trkpt>
      <trkpt lat="44.40218" lon="4.48176">
        <ele>351</ele>
        <time>2018-05-16T08:21:46.1Z</time>
      </trkpt>
      <trkpt lat="44.40222" lon="4.48147">
        <ele>349</ele>
        <time>2018-05-16T08:21:49.1Z</time>
      </trkpt>
      <trkpt lat="44.40222" lon="4.48128">
        <ele>349</ele>
        <time>2018-05-16T08:21:51.1Z</time>
      </trkpt>
      <trkpt lat="44.40219" lon="4.48102">
        <ele>350</ele>
        <time>2018-05-16T08:21:54.1Z</time>
      </trkpt>
      <trkpt lat="44.40216" lon="4.48085">
        <ele>350</ele>
        <time>2018-05-16T08:21:56.1Z</time>
      </trkpt>
      <trkpt lat="44.40215" lon="4.48069">
        <ele>350</ele>
        <time>2018-05-16T08:21:58.1Z</time>
      </trkpt>
      <trkpt lat="44.40211" lon="4.48046">
        <ele>350</ele>
        <time>2018-05-16T08:22:01.1Z</time>
      </trkpt>
      <trkpt lat="44.4021" lon="4.48031">
        <ele>351</ele>
        <time>2018-05-16T08:22:03.1Z</time>
      </trkpt>
      <trkpt lat="44.40208" lon="4.4801">
        <ele>351</ele>
        <time>2018-05-16T08:22:06.1Z</time>
      </trkpt>
      <trkpt lat="44.40205" lon="4.47989">
        <ele>352</ele>
        <time>2018-05-16T08:22:09.1Z</time>
      </trkpt>
      <trkpt lat="44.40203" lon="4.47975">
        <ele>353</ele>
        <time>2018-05-16T08:22:11.1Z</time>
      </trkpt>
      <trkpt lat="44.40199" lon="4.47955">
        <ele>354</ele>
        <time>2018-05-16T08:22:14.1Z</time>
      </trkpt>
      <trkpt lat="44.40196" lon="4.47935">
        <ele>356</ele>
        <time>2018-05-16T08:22:17.1Z</time>
      </trkpt>
      <trkpt lat="44.40193" lon="4.47923">
        <ele>356</ele>
        <time>2018-05-16T08:22:19.1Z</time>
      </trkpt>
      <trkpt lat="44.4019" lon="4.47909">
        <ele>357</ele>
        <time>2018-05-16T08:22:21.1Z</time>
      </trkpt>
      <trkpt lat="44.40185" lon="4.47891">
        <ele>358</ele>
        <time>2018-05-16T08:22:24.1Z</time>
      </trkpt>
      <trkpt lat="44.4018" lon="4.47872">
        <ele>359</ele>
        <time>2018-05-16T08:22:27.1Z</time>
      </trkpt>
      <trkpt lat="44.40175" lon="4.47853">
        <ele>359</ele>
        <time>2018-05-16T08:22:30.1Z</time>
      </trkpt>
      <trkpt lat="44.40172" lon="4.4784">
        <ele>360</ele>
        <time>2018-05-16T08:22:32.1Z</time>
      </trkpt>
      <trkpt lat="44.40168" lon="4.47828">
        <ele>360</ele>
        <time>2018-05-16T08:22:34.1Z</time>
      </trkpt>
      <trkpt lat="44.40163" lon="4.47811">
        <ele>360</ele>
        <time>2018-05-16T08:22:37.1Z</time>
      </trkpt>
      <trkpt lat="44.40156" lon="4.47794">
        <ele>361</ele>
        <time>2018-05-16T08:22:40.1Z</time>
      </trkpt>
      <trkpt lat="44.40151" lon="4.47783">
        <ele>361</ele>
        <time>2018-05-16T08:22:42.1Z</time>
      </trkpt>
      <trkpt lat="44.40146" lon="4.47773">
        <ele>361</ele>
        <time>2018-05-16T08:22:44.1Z</time>
      </trkpt>
      <trkpt lat="44.40138" lon="4.47757">
        <ele>362</ele>
        <time>2018-05-16T08:22:47.1Z</time>
      </trkpt>
      <trkpt lat="44.40133" lon="4.47747">
        <ele>363</ele>
        <time>2018-05-16T08:22:49.1Z</time>
      </trkpt>
      <trkpt lat="44.40127" lon="4.47737">
        <ele>364</ele>
        <time>2018-05-16T08:22:51.1Z</time>
      </trkpt>
      <trkpt lat="44.40122" lon="4.47726">
        <ele>364</ele>
        <time>2018-05-16T08:22:53.1Z</time>
      </trkpt>
      <trkpt lat="44.40116" lon="4.4771">
        <ele>365</ele>
        <time>2018-05-16T08:22:56.1Z</time>
      </trkpt>
      <trkpt lat="44.40113" lon="4.47691">
        <ele>365</ele>
        <time>2018-05-16T08:22:59.1Z</time>
      </trkpt>
      <trkpt lat="44.40112" lon="4.47673">
        <ele>366</ele>
        <time>2018-05-16T08:23:02.1Z</time>
      </trkpt>
      <trkpt lat="44.4011" lon="4.47661">
        <ele>366</ele>
        <time>2018-05-16T08:23:04.1Z</time>
      </trkpt>
      <trkpt lat="44.40107" lon="4.4765">
        <ele>367</ele>
        <time>2018-05-16T08:23:06.1Z</time>
      </trkpt>
      <trkpt lat="44.401" lon="4.47635">
        <ele>368</ele>
        <time>2018-05-16T08:23:09.1Z</time>
      </trkpt>
      <trkpt lat="44.40091" lon="4.47621">
        <ele>368</ele>
        <time>2018-05-16T08:23:12.1Z</time>
      </trkpt>
      <trkpt lat="44.40084" lon="4.47613">
        <ele>369</ele>
        <time>2018-05-16T08:23:14.1Z</time>
      </trkpt>
      <trkpt lat="44.40077" lon="4.47604">
        <ele>370</ele>
        <time>2018-05-16T08:23:16.1Z</time>
      </trkpt>
      <trkpt lat="44.4007" lon="4.47596">
        <ele>370</ele>
        <time>2018-05-16T08:23:18.1Z</time>
      </trkpt>
      <trkpt lat="44.4006" lon="4.47585">
        <ele>371</ele>
        <time>2018-05-16T08:23:21.1Z</time>
      </trkpt>
      <trkpt lat="44.40053" lon="4.47579">
        <ele>372</ele>
        <time>2018-05-16T08:23:23.1Z</time>
      </trkpt>
      <trkpt lat="44.40045" lon="4.47575">
        <ele>372</ele>
        <time>2018-05-16T08:23:25.1Z</time>
      </trkpt>
      <trkpt lat="44.40037" lon="4.47572">
        <ele>373</ele>
        <time>2018-05-16T08:23:27.1Z</time>
      </trkpt>
      <trkpt lat="44.40024" lon="4.47569">
        <ele>374</ele>
        <time>2018-05-16T08:23:30.1Z</time>
      </trkpt>
      <trkpt lat="44.40012" lon="4.47566">
        <ele>374</ele>
        <time>2018-05-16T08:23:33.1Z</time>
      </trkpt>
      <trkpt lat="44.40004" lon="4.47565">
        <ele>375</ele>
        <time>2018-05-16T08:23:35.1Z</time>
      </trkpt>
      <trkpt lat="44.39996" lon="4.47563">
        <ele>375</ele>
        <time>2018-05-16T08:23:37.1Z</time>
      </trkpt>
      <trkpt lat="44.39984" lon="4.47559">
        <ele>376</ele>
        <time>2018-05-16T08:23:40.1Z</time>
      </trkpt>
      <trkpt lat="44.39974" lon="4.47552">
        <ele>377</ele>
        <time>2018-05-16T08:23:43.1Z</time>
      </trkpt>
      <trkpt lat="44.39968" lon="4.47546">
        <ele>378</ele>
        <time>2018-05-16T08:23:45.1Z</time>
      </trkpt>
      <trkpt lat="44.39962" lon="4.47538">
        <ele>379</ele>
        <time>2018-05-16T08:23:47.1Z</time>
      </trkpt>
      <trkpt lat="44.39958" lon="4.4753">
        <ele>380</ele>
        <time>2018-05-16T08:23:49.1Z</time>
      </trkpt>
      <trkpt lat="44.39955" lon="4.47521">
        <ele>380</ele>
        <time>2018-05-16T08:23:51.1Z</time>
      </trkpt>
      <trkpt lat="44.39952" lon="4.47512">
        <ele>381</ele>
        <time>2018-05-16T08:23:53.1Z</time>
      </trkpt>
      <trkpt lat="44.39948" lon="4.47502">
        <ele>380</ele>
        <time>2018-05-16T08:23:55.1Z</time>
      </trkpt>
      <trkpt lat="44.39943" lon="4.47489">
        <ele>381</ele>
        <time>2018-05-16T08:23:58.1Z</time>
      </trkpt>
      <trkpt lat="44.3994" lon="4.4748">
        <ele>381</ele>
        <time>2018-05-16T08:24:00.1Z</time>
      </trkpt>
      <trkpt lat="44.39935" lon="4.47466">
        <ele>382</ele>
        <time>2018-05-16T08:24:03.1Z</time>
      </trkpt>
      <trkpt lat="44.39933" lon="4.47457">
        <ele>382</ele>
        <time>2018-05-16T08:24:05.1Z</time>
      </trkpt>
      <trkpt lat="44.39929" lon="4.47443">
        <ele>383</ele>
        <time>2018-05-16T08:24:08.1Z</time>
      </trkpt>
      <trkpt lat="44.39926" lon="4.47428">
        <ele>383</ele>
        <time>2018-05-16T08:24:11.1Z</time>
      </trkpt>
      <trkpt lat="44.39925" lon="4.47418">
        <ele>383</ele>
        <time>2018-05-16T08:24:13.1Z</time>
      </trkpt>
      <trkpt lat="44.39924" lon="4.47408">
        <ele>383</ele>
        <time>2018-05-16T08:24:15.1Z</time>
      </trkpt>
      <trkpt lat="44.39924" lon="4.47393">
        <ele>384</ele>
        <time>2018-05-16T08:24:18.1Z</time>
      </trkpt>
      <trkpt lat="44.39924" lon="4.47383">
        <ele>385</ele>
        <time>2018-05-16T08:24:20.1Z</time>
      </trkpt>
      <trkpt lat="44.39924" lon="4.47368">
        <ele>387</ele>
        <time>2018-05-16T08:24:23.1Z</time>
      </trkpt>
      <trkpt lat="44.39925" lon="4.47355">
        <ele>388</ele>
        <time>2018-05-16T08:24:26.1Z</time>
      </trkpt>
      <trkpt lat="44.39926" lon="4.47346">
        <ele>388</ele>
        <time>2018-05-16T08:24:28.1Z</time>
      </trkpt>
      <trkpt lat="44.3993" lon="4.47333">
        <ele>389</ele>
        <time>2018-05-16T08:24:31.1Z</time>
      </trkpt>
      <trkpt lat="44.39932" lon="4.47324">
        <ele>389</ele>
        <time>2018-05-16T08:24:33.1Z</time>
      </trkpt>
      <trkpt lat="44.39935" lon="4.47315">
        <ele>389</ele>
        <time>2018-05-16T08:24:35.1Z</time>
      </trkpt>
      <trkpt lat="44.39939" lon="4.47306">
        <ele>389</ele>
        <time>2018-05-16T08:24:37.1Z</time>
      </trkpt>
      <trkpt lat="44.39943" lon="4.47298">
        <ele>389</ele>
        <time>2018-05-16T08:24:39.1Z</time>
      </trkpt>
      <trkpt lat="44.39948" lon="4.47291">
        <ele>389</ele>
        <time>2018-05-16T08:24:41.1Z</time>
      </trkpt>
      <trkpt lat="44.39953" lon="4.47285">
        <ele>388</ele>
        <time>2018-05-16T08:24:43.1Z</time>
      </trkpt>
      <trkpt lat="44.39962" lon="4.47275">
        <ele>388</ele>
        <time>2018-05-16T08:24:46.1Z</time>
      </trkpt>
      <trkpt lat="44.39968" lon="4.4727">
        <ele>389</ele>
        <time>2018-05-16T08:24:48.1Z</time>
      </trkpt>
      <trkpt lat="44.39974" lon="4.47264">
        <ele>389</ele>
        <time>2018-05-16T08:24:50.1Z</time>
      </trkpt>
      <trkpt lat="44.39984" lon="4.47256">
        <ele>390</ele>
        <time>2018-05-16T08:24:53.1Z</time>
      </trkpt>
      <trkpt lat="44.3999" lon="4.47251">
        <ele>390</ele>
        <time>2018-05-16T08:24:55.1Z</time>
      </trkpt>
      <trkpt lat="44.39996" lon="4.47245">
        <ele>391</ele>
        <time>2018-05-16T08:24:57.1Z</time>
      </trkpt>
      <trkpt lat="44.40002" lon="4.4724">
        <ele>391</ele>
        <time>2018-05-16T08:24:59.1Z</time>
      </trkpt>
      <trkpt lat="44.40012" lon="4.47233">
        <ele>391</ele>
        <time>2018-05-16T08:25:02.1Z</time>
      </trkpt>
      <trkpt lat="44.40018" lon="4.47228">
        <ele>391</ele>
        <time>2018-05-16T08:25:04.1Z</time>
      </trkpt>
      <trkpt lat="44.40028" lon="4.4722">
        <ele>391</ele>
        <time>2018-05-16T08:25:07.1Z</time>
      </trkpt>
      <trkpt lat="44.40034" lon="4.47215">
        <ele>392</ele>
        <time>2018-05-16T08:25:09.1Z</time>
      </trkpt>
      <trkpt lat="44.4004" lon="4.47209">
        <ele>393</ele>
        <time>2018-05-16T08:25:11.1Z</time>
      </trkpt>
      <trkpt lat="44.40048" lon="4.47199">
        <ele>394</ele>
        <time>2018-05-16T08:25:14.1Z</time>
      </trkpt>
      <trkpt lat="44.40056" lon="4.47188">
        <ele>394</ele>
        <time>2018-05-16T08:25:17.1Z</time>
      </trkpt>
      <trkpt lat="44.40062" lon="4.47175">
        <ele>394</ele>
        <time>2018-05-16T08:25:20.1Z</time>
      </trkpt>
      <trkpt lat="44.40066" lon="4.47165">
        <ele>394</ele>
        <time>2018-05-16T08:25:22.1Z</time>
      </trkpt>
      <trkpt lat="44.40069" lon="4.47155">
        <ele>394</ele>
        <time>2018-05-16T08:25:24.1Z</time>
      </trkpt>
      <trkpt lat="44.40073" lon="4.4714">
        <ele>394</ele>
        <time>2018-05-16T08:25:27.1Z</time>
      </trkpt>
      <trkpt lat="44.40078" lon="4.47124">
        <ele>394</ele>
        <time>2018-05-16T08:25:30.1Z</time>
      </trkpt>
      <trkpt lat="44.40081" lon="4.47114">
        <ele>395</ele>
        <time>2018-05-16T08:25:32.1Z</time>
      </trkpt>
      <trkpt lat="44.40085" lon="4.47099">
        <ele>395</ele>
        <time>2018-05-16T08:25:35.1Z</time>
      </trkpt>
      <trkpt lat="44.40089" lon="4.47089">
        <ele>395</ele>
        <time>2018-05-16T08:25:37.1Z</time>
      </trkpt>
      <trkpt lat="44.40093" lon="4.47079">
        <ele>396</ele>
        <time>2018-05-16T08:25:39.1Z</time>
      </trkpt>
      <trkpt lat="44.40097" lon="4.4707">
        <ele>396</ele>
        <time>2018-05-16T08:25:41.1Z</time>
      </trkpt>
      <trkpt lat="44.40104" lon="4.47056">
        <ele>396</ele>
        <time>2018-05-16T08:25:44.1Z</time>
      </trkpt>
      <trkpt lat="44.40109" lon="4.47047">
        <ele>396</ele>
        <time>2018-05-16T08:25:46.1Z</time>
      </trkpt>
      <trkpt lat="44.40118" lon="4.47036">
        <ele>396</ele>
        <time>2018-05-16T08:25:49.1Z</time>
      </trkpt>
      <trkpt lat="44.40127" lon="4.47025">
        <ele>396</ele>
        <time>2018-05-16T08:25:52.1Z</time>
      </trkpt>
      <trkpt lat="44.40137" lon="4.47015">
        <ele>397</ele>
        <time>2018-05-16T08:25:55.1Z</time>
      </trkpt>
      <trkpt lat="44.40147" lon="4.47006">
        <ele>398</ele>
        <time>2018-05-16T08:25:58.1Z</time>
      </trkpt>
      <trkpt lat="44.40155" lon="4.47001">
        <ele>399</ele>
        <time>2018-05-16T08:26:00.1Z</time>
      </trkpt>
      <trkpt lat="44.40166" lon="4.46994">
        <ele>399</ele>
        <time>2018-05-16T08:26:03.1Z</time>
      </trkpt>
      <trkpt lat="44.40178" lon="4.46988">
        <ele>400</ele>
        <time>2018-05-16T08:26:06.1Z</time>
      </trkpt>
      <trkpt lat="44.40189" lon="4.46982">
        <ele>400</ele>
        <time>2018-05-16T08:26:09.1Z</time>
      </trkpt>
      <trkpt lat="44.40197" lon="4.46979">
        <ele>401</ele>
        <time>2018-05-16T08:26:11.1Z</time>
      </trkpt>
      <trkpt lat="44.40206" lon="4.46975">
        <ele>401</ele>
        <time>2018-05-16T08:26:13.1Z</time>
      </trkpt>
      <trkpt lat="44.40214" lon="4.46971">
        <ele>402</ele>
        <time>2018-05-16T08:26:15.1Z</time>
      </trkpt>
      <trkpt lat="44.40226" lon="4.46966">
        <ele>401</ele>
        <time>2018-05-16T08:26:18.1Z</time>
      </trkpt>
      <trkpt lat="44.40235" lon="4.46961">
        <ele>402</ele>
        <time>2018-05-16T08:26:20.1Z</time>
      </trkpt>
      <trkpt lat="44.40248" lon="4.46955">
        <ele>402</ele>
        <time>2018-05-16T08:26:23.1Z</time>
      </trkpt>
      <trkpt lat="44.40258" lon="4.46951">
        <ele>402</ele>
        <time>2018-05-16T08:26:25.1Z</time>
      </trkpt>
      <trkpt lat="44.40267" lon="4.46947">
        <ele>402</ele>
        <time>2018-05-16T08:26:27.1Z</time>
      </trkpt>
      <trkpt lat="44.40282" lon="4.4694">
        <ele>403</ele>
        <time>2018-05-16T08:26:30.1Z</time>
      </trkpt>
      <trkpt lat="44.40291" lon="4.46936">
        <ele>402</ele>
        <time>2018-05-16T08:26:32.1Z</time>
      </trkpt>
      <trkpt lat="44.403" lon="4.4693">
        <ele>403</ele>
        <time>2018-05-16T08:26:34.1Z</time>
      </trkpt>
      <trkpt lat="44.40309" lon="4.46924">
        <ele>402</ele>
        <time>2018-05-16T08:26:36.1Z</time>
      </trkpt>
      <trkpt lat="44.40317" lon="4.46916">
        <ele>402</ele>
        <time>2018-05-16T08:26:38.1Z</time>
      </trkpt>
      <trkpt lat="44.4033" lon="4.46905">
        <ele>402</ele>
        <time>2018-05-16T08:26:41.1Z</time>
      </trkpt>
      <trkpt lat="44.40338" lon="4.46897">
        <ele>402</ele>
        <time>2018-05-16T08:26:43.1Z</time>
      </trkpt>
      <trkpt lat="44.40347" lon="4.46889">
        <ele>403</ele>
        <time>2018-05-16T08:26:45.1Z</time>
      </trkpt>
      <trkpt lat="44.40359" lon="4.46878">
        <ele>403</ele>
        <time>2018-05-16T08:26:48.1Z</time>
      </trkpt>
      <trkpt lat="44.40368" lon="4.46871">
        <ele>403</ele>
        <time>2018-05-16T08:26:50.1Z</time>
      </trkpt>
      <trkpt lat="44.40383" lon="4.46865">
        <ele>403</ele>
        <time>2018-05-16T08:26:53.1Z</time>
      </trkpt>
      <trkpt lat="44.40393" lon="4.46864">
        <ele>403</ele>
        <time>2018-05-16T08:26:55.1Z</time>
      </trkpt>
      <trkpt lat="44.40403" lon="4.46865">
        <ele>403</ele>
        <time>2018-05-16T08:26:57.1Z</time>
      </trkpt>
      <trkpt lat="44.40413" lon="4.46867">
        <ele>403</ele>
        <time>2018-05-16T08:26:59.1Z</time>
      </trkpt>
      <trkpt lat="44.40428" lon="4.46869">
        <ele>403</ele>
        <time>2018-05-16T08:27:02.1Z</time>
      </trkpt>
      <trkpt lat="44.40438" lon="4.46869">
        <ele>403</ele>
        <time>2018-05-16T08:27:04.1Z</time>
      </trkpt>
      <trkpt lat="44.40448" lon="4.46866">
        <ele>402</ele>
        <time>2018-05-16T08:27:06.1Z</time>
      </trkpt>
      <trkpt lat="44.40456" lon="4.4686">
        <ele>401</ele>
        <time>2018-05-16T08:27:08.1Z</time>
      </trkpt>
      <trkpt lat="44.40467" lon="4.46845">
        <ele>401</ele>
        <time>2018-05-16T08:27:11.1Z</time>
      </trkpt>
      <trkpt lat="44.40473" lon="4.46827">
        <ele>401</ele>
        <time>2018-05-16T08:27:14.1Z</time>
      </trkpt>
      <trkpt lat="44.40475" lon="4.46814">
        <ele>401</ele>
        <time>2018-05-16T08:27:16.1Z</time>
      </trkpt>
      <trkpt lat="44.40474" lon="4.468">
        <ele>401</ele>
        <time>2018-05-16T08:27:18.1Z</time>
      </trkpt>
      <trkpt lat="44.4047" lon="4.46782">
        <ele>402</ele>
        <time>2018-05-16T08:27:21.1Z</time>
      </trkpt>
      <trkpt lat="44.40462" lon="4.46768">
        <ele>402</ele>
        <time>2018-05-16T08:27:24.1Z</time>
      </trkpt>
      <trkpt lat="44.40452" lon="4.46758">
        <ele>404</ele>
        <time>2018-05-16T08:27:27.1Z</time>
      </trkpt>
      <trkpt lat="44.40445" lon="4.46753">
        <ele>404</ele>
        <time>2018-05-16T08:27:29.1Z</time>
      </trkpt>
      <trkpt lat="44.40438" lon="4.46748">
        <ele>404</ele>
        <time>2018-05-16T08:27:31.1Z</time>
      </trkpt>
      <trkpt lat="44.40427" lon="4.46742">
        <ele>405</ele>
        <time>2018-05-16T08:27:34.1Z</time>
      </trkpt>
      <trkpt lat="44.40417" lon="4.46736">
        <ele>405</ele>
        <time>2018-05-16T08:27:37.1Z</time>
      </trkpt>
      <trkpt lat="44.40407" lon="4.4673">
        <ele>406</ele>
        <time>2018-05-16T08:27:40.1Z</time>
      </trkpt>
      <trkpt lat="44.404" lon="4.46726">
        <ele>407</ele>
        <time>2018-05-16T08:27:42.1Z</time>
      </trkpt>
      <trkpt lat="44.4039" lon="4.4672">
        <ele>408</ele>
        <time>2018-05-16T08:27:45.1Z</time>
      </trkpt>
      <trkpt lat="44.40383" lon="4.46715">
        <ele>408</ele>
        <time>2018-05-16T08:27:47.1Z</time>
      </trkpt>
      <trkpt lat="44.40372" lon="4.46709">
        <ele>409</ele>
        <time>2018-05-16T08:27:50.1Z</time>
      </trkpt>
      <trkpt lat="44.40366" lon="4.46705">
        <ele>409</ele>
        <time>2018-05-16T08:27:52.1Z</time>
      </trkpt>
      <trkpt lat="44.40356" lon="4.46699">
        <ele>410</ele>
        <time>2018-05-16T08:27:55.1Z</time>
      </trkpt>
      <trkpt lat="44.40349" lon="4.46695">
        <ele>410</ele>
        <time>2018-05-16T08:27:57.1Z</time>
      </trkpt>
      <trkpt lat="44.4034" lon="4.46686">
        <ele>411</ele>
        <time>2018-05-16T08:28:00.1Z</time>
      </trkpt>
      <trkpt lat="44.40332" lon="4.46675">
        <ele>412</ele>
        <time>2018-05-16T08:28:03.1Z</time>
      </trkpt>
      <trkpt lat="44.40327" lon="4.46667">
        <ele>412</ele>
        <time>2018-05-16T08:28:05.1Z</time>
      </trkpt>
      <trkpt lat="44.40323" lon="4.46658">
        <ele>413</ele>
        <time>2018-05-16T08:28:07.1Z</time>
      </trkpt>
      <trkpt lat="44.4032" lon="4.46649">
        <ele>413</ele>
        <time>2018-05-16T08:28:09.1Z</time>
      </trkpt>
      <trkpt lat="44.40318" lon="4.46639">
        <ele>414</ele>
        <time>2018-05-16T08:28:11.1Z</time>
      </trkpt>
      <trkpt lat="44.40317" lon="4.46623">
        <ele>415</ele>
        <time>2018-05-16T08:28:14.1Z</time>
      </trkpt>
      <trkpt lat="44.40318" lon="4.46607">
        <ele>416</ele>
        <time>2018-05-16T08:28:17.1Z</time>
      </trkpt>
      <trkpt lat="44.40321" lon="4.46592">
        <ele>417</ele>
        <time>2018-05-16T08:28:20.1Z</time>
      </trkpt>
      <trkpt lat="44.40325" lon="4.46576">
        <ele>418</ele>
        <time>2018-05-16T08:28:23.1Z</time>
      </trkpt>
      <trkpt lat="44.40328" lon="4.46566">
        <ele>418</ele>
        <time>2018-05-16T08:28:25.1Z</time>
      </trkpt>
      <trkpt lat="44.40333" lon="4.46551">
        <ele>418</ele>
        <time>2018-05-16T08:28:28.1Z</time>
      </trkpt>
      <trkpt lat="44.40336" lon="4.46541">
        <ele>418</ele>
        <time>2018-05-16T08:28:30.1Z</time>
      </trkpt>
      <trkpt lat="44.40339" lon="4.46531">
        <ele>418</ele>
        <time>2018-05-16T08:28:32.1Z</time>
      </trkpt>
      <trkpt lat="44.40345" lon="4.46517">
        <ele>418</ele>
        <time>2018-05-16T08:28:35.1Z</time>
      </trkpt>
      <trkpt lat="44.4035" lon="4.465">
        <ele>418</ele>
        <time>2018-05-16T08:28:38.1Z</time>
      </trkpt>
      <trkpt lat="44.40354" lon="4.46489">
        <ele>418</ele>
        <time>2018-05-16T08:28:40.1Z</time>
      </trkpt>
      <trkpt lat="44.40358" lon="4.46477">
        <ele>417</ele>
        <time>2018-05-16T08:28:42.1Z</time>
      </trkpt>
      <trkpt lat="44.40365" lon="4.46458">
        <ele>417</ele>
        <time>2018-05-16T08:28:45.1Z</time>
      </trkpt>
      <trkpt lat="44.40369" lon="4.46445">
        <ele>418</ele>
        <time>2018-05-16T08:28:47.1Z</time>
      </trkpt>
      <trkpt lat="44.40374" lon="4.46431">
        <ele>418</ele>
        <time>2018-05-16T08:28:49.1Z</time>
      </trkpt>
      <trkpt lat="44.40382" lon="4.46411">
        <ele>418</ele>
        <time>2018-05-16T08:28:52.1Z</time>
      </trkpt>
      <trkpt lat="44.40387" lon="4.46397">
        <ele>417</ele>
        <time>2018-05-16T08:28:54.1Z</time>
      </trkpt>
      <trkpt lat="44.40391" lon="4.46383">
        <ele>416</ele>
        <time>2018-05-16T08:28:56.1Z</time>
      </trkpt>
      <trkpt lat="44.40393" lon="4.46367">
        <ele>416</ele>
        <time>2018-05-16T08:28:58.1Z</time>
      </trkpt>
      <trkpt lat="44.40393" lon="4.46343">
        <ele>416</ele>
        <time>2018-05-16T08:29:01.1Z</time>
      </trkpt>
      <trkpt lat="44.40391" lon="4.46327">
        <ele>416</ele>
        <time>2018-05-16T08:29:03.1Z</time>
      </trkpt>
      <trkpt lat="44.40387" lon="4.46303">
        <ele>416</ele>
        <time>2018-05-16T08:29:06.1Z</time>
      </trkpt>
      <trkpt lat="44.4038" lon="4.46279">
        <ele>416</ele>
        <time>2018-05-16T08:29:09.1Z</time>
      </trkpt>
      <trkpt lat="44.40372" lon="4.46254">
        <ele>415</ele>
        <time>2018-05-16T08:29:12.1Z</time>
      </trkpt>
      <trkpt lat="44.40368" lon="4.46237">
        <ele>415</ele>
        <time>2018-05-16T08:29:14.1Z</time>
      </trkpt>
      <trkpt lat="44.40361" lon="4.4621">
        <ele>414</ele>
        <time>2018-05-16T08:29:17.1Z</time>
      </trkpt>
      <trkpt lat="44.40356" lon="4.46192">
        <ele>414</ele>
        <time>2018-05-16T08:29:19.1Z</time>
      </trkpt>
      <trkpt lat="44.40348" lon="4.46165">
        <ele>414</ele>
        <time>2018-05-16T08:29:22.1Z</time>
      </trkpt>
      <trkpt lat="44.40343" lon="4.46146">
        <ele>413</ele>
        <time>2018-05-16T08:29:24.1Z</time>
      </trkpt>
      <trkpt lat="44.40338" lon="4.46128">
        <ele>413</ele>
        <time>2018-05-16T08:29:26.1Z</time>
      </trkpt>
      <trkpt lat="44.40329" lon="4.46102">
        <ele>412</ele>
        <time>2018-05-16T08:29:29.1Z</time>
      </trkpt>
      <trkpt lat="44.40319" lon="4.46076">
        <ele>411</ele>
        <time>2018-05-16T08:29:32.1Z</time>
      </trkpt>
      <trkpt lat="44.4031" lon="4.46051">
        <ele>410</ele>
        <time>2018-05-16T08:29:35.1Z</time>
      </trkpt>
      <trkpt lat="44.40304" lon="4.46033">
        <ele>410</ele>
        <time>2018-05-16T08:29:37.1Z</time>
      </trkpt>
      <trkpt lat="44.40298" lon="4.46016">
        <ele>409</ele>
        <time>2018-05-16T08:29:39.1Z</time>
      </trkpt>
      <trkpt lat="44.40293" lon="4.45997">
        <ele>409</ele>
        <time>2018-05-16T08:29:41.1Z</time>
      </trkpt>
      <trkpt lat="44.40284" lon="4.45969">
        <ele>408</ele>
        <time>2018-05-16T08:29:44.1Z</time>
      </trkpt>
      <trkpt lat="44.40279" lon="4.4595">
        <ele>408</ele>
        <time>2018-05-16T08:29:46.1Z</time>
      </trkpt>
      <trkpt lat="44.40273" lon="4.4593">
        <ele>408</ele>
        <time>2018-05-16T08:29:48.1Z</time>
      </trkpt>
      <trkpt lat="44.40267" lon="4.45911">
        <ele>407</ele>
        <time>2018-05-16T08:29:50.1Z</time>
      </trkpt>
      <trkpt lat="44.40259" lon="4.45881">
        <ele>407</ele>
        <time>2018-05-16T08:29:53.1Z</time>
      </trkpt>
      <trkpt lat="44.4025" lon="4.45852">
        <ele>406</ele>
        <time>2018-05-16T08:29:56.1Z</time>
      </trkpt>
      <trkpt lat="44.40245" lon="4.45832">
        <ele>405</ele>
        <time>2018-05-16T08:29:58.1Z</time>
      </trkpt>
      <trkpt lat="44.40237" lon="4.45802">
        <ele>405</ele>
        <time>2018-05-16T08:30:01.1Z</time>
      </trkpt>
      <trkpt lat="44.40229" lon="4.45774">
        <ele>405</ele>
        <time>2018-05-16T08:30:04.1Z</time>
      </trkpt>
      <trkpt lat="44.40224" lon="4.45755">
        <ele>405</ele>
        <time>2018-05-16T08:30:06.1Z</time>
      </trkpt>
      <trkpt lat="44.40219" lon="4.45738">
        <ele>405</ele>
        <time>2018-05-16T08:30:08.1Z</time>
      </trkpt>
      <trkpt lat="44.40211" lon="4.45714">
        <ele>404</ele>
        <time>2018-05-16T08:30:11.1Z</time>
      </trkpt>
      <trkpt lat="44.40206" lon="4.45692">
        <ele>404</ele>
        <time>2018-05-16T08:30:14.1Z</time>
      </trkpt>
      <trkpt lat="44.402" lon="4.45672">
        <ele>404</ele>
        <time>2018-05-16T08:30:17.1Z</time>
      </trkpt>
      <trkpt lat="44.40197" lon="4.45659">
        <ele>403</ele>
        <time>2018-05-16T08:30:19.1Z</time>
      </trkpt>
      <trkpt lat="44.40191" lon="4.45641">
        <ele>403</ele>
        <time>2018-05-16T08:30:22.1Z</time>
      </trkpt>
      <trkpt lat="44.40187" lon="4.45629">
        <ele>403</ele>
        <time>2018-05-16T08:30:24.1Z</time>
      </trkpt>
      <trkpt lat="44.40182" lon="4.45611">
        <ele>403</ele>
        <time>2018-05-16T08:30:27.1Z</time>
      </trkpt>
      <trkpt lat="44.40178" lon="4.45593">
        <ele>402</ele>
        <time>2018-05-16T08:30:30.1Z</time>
      </trkpt>
      <trkpt lat="44.40175" lon="4.45582">
        <ele>403</ele>
        <time>2018-05-16T08:30:32.1Z</time>
      </trkpt>
      <trkpt lat="44.40171" lon="4.45566">
        <ele>403</ele>
        <time>2018-05-16T08:30:35.1Z</time>
      </trkpt>
      <trkpt lat="44.4017" lon="4.45556">
        <ele>403</ele>
        <time>2018-05-16T08:30:37.1Z</time>
      </trkpt>
      <trkpt lat="44.40169" lon="4.45546">
        <ele>403</ele>
        <time>2018-05-16T08:30:39.1Z</time>
      </trkpt>
      <trkpt lat="44.40168" lon="4.45532">
        <ele>402</ele>
        <time>2018-05-16T08:30:42.1Z</time>
      </trkpt>
      <trkpt lat="44.40167" lon="4.45523">
        <ele>402</ele>
        <time>2018-05-16T08:30:44.1Z</time>
      </trkpt>
      <trkpt lat="44.40167" lon="4.45514">
        <ele>402</ele>
        <time>2018-05-16T08:30:46.1Z</time>
      </trkpt>
      <trkpt lat="44.40167" lon="4.45504">
        <ele>402</ele>
        <time>2018-05-16T08:30:48.1Z</time>
      </trkpt>
      <trkpt lat="44.40167" lon="4.45494">
        <ele>402</ele>
        <time>2018-05-16T08:30:50.1Z</time>
      </trkpt>
      <trkpt lat="44.40168" lon="4.45478">
        <ele>402</ele>
        <time>2018-05-16T08:30:53.1Z</time>
      </trkpt>
      <trkpt lat="44.40169" lon="4.45462">
        <ele>402</ele>
        <time>2018-05-16T08:30:56.1Z</time>
      </trkpt>
      <trkpt lat="44.4017" lon="4.45449">
        <ele>402</ele>
        <time>2018-05-16T08:30:58.1Z</time>
      </trkpt>
      <trkpt lat="44.40171" lon="4.45431">
        <ele>402</ele>
        <time>2018-05-16T08:31:01.1Z</time>
      </trkpt>
      <trkpt lat="44.40172" lon="4.45417">
        <ele>401</ele>
        <time>2018-05-16T08:31:03.1Z</time>
      </trkpt>
      <trkpt lat="44.40174" lon="4.45397">
        <ele>402</ele>
        <time>2018-05-16T08:31:06.1Z</time>
      </trkpt>
      <trkpt lat="44.40175" lon="4.45383">
        <ele>402</ele>
        <time>2018-05-16T08:31:08.1Z</time>
      </trkpt>
      <trkpt lat="44.40176" lon="4.45363">
        <ele>402</ele>
        <time>2018-05-16T08:31:11.1Z</time>
      </trkpt>
      <trkpt lat="44.40177" lon="4.45349">
        <ele>402</ele>
        <time>2018-05-16T08:31:13.1Z</time>
      </trkpt>
      <trkpt lat="44.40178" lon="4.45329">
        <ele>402</ele>
        <time>2018-05-16T08:31:16.1Z</time>
      </trkpt>
      <trkpt lat="44.40179" lon="4.45314">
        <ele>402</ele>
        <time>2018-05-16T08:31:18.1Z</time>
      </trkpt>
      <trkpt lat="44.40181" lon="4.45292">
        <ele>401</ele>
        <time>2018-05-16T08:31:21.1Z</time>
      </trkpt>
      <trkpt lat="44.40182" lon="4.45277">
        <ele>402</ele>
        <time>2018-05-16T08:31:23.1Z</time>
      </trkpt>
      <trkpt lat="44.40183" lon="4.45255">
        <ele>401</ele>
        <time>2018-05-16T08:31:26.1Z</time>
      </trkpt>
      <trkpt lat="44.40184" lon="4.4524">
        <ele>402</ele>
        <time>2018-05-16T08:31:28.1Z</time>
      </trkpt>
      <trkpt lat="44.40185" lon="4.45225">
        <ele>402</ele>
        <time>2018-05-16T08:31:30.1Z</time>
      </trkpt>
      <trkpt lat="44.40186" lon="4.45211">
        <ele>402</ele>
        <time>2018-05-16T08:31:32.1Z</time>
      </trkpt>
      <trkpt lat="44.40188" lon="4.45189">
        <ele>402</ele>
        <time>2018-05-16T08:31:35.1Z</time>
      </trkpt>
      <trkpt lat="44.40191" lon="4.45168">
        <ele>402</ele>
        <time>2018-05-16T08:31:38.1Z</time>
      </trkpt>
      <trkpt lat="44.40199" lon="4.4515">
        <ele>402</ele>
        <time>2018-05-16T08:31:41.1Z</time>
      </trkpt>
      <trkpt lat="44.40207" lon="4.45141">
        <ele>403</ele>
        <time>2018-05-16T08:31:43.1Z</time>
      </trkpt>
      <trkpt lat="44.40223" lon="4.45134">
        <ele>404</ele>
        <time>2018-05-16T08:31:46.1Z</time>
      </trkpt>
      <trkpt lat="44.40235" lon="4.45134">
        <ele>405</ele>
        <time>2018-05-16T08:31:48.1Z</time>
      </trkpt>
      <trkpt lat="44.40247" lon="4.45141">
        <ele>405</ele>
        <time>2018-05-16T08:31:50.1Z</time>
      </trkpt>
      <trkpt lat="44.40262" lon="4.4516">
        <ele>403</ele>
        <time>2018-05-16T08:31:53.1Z</time>
      </trkpt>
      <trkpt lat="44.40279" lon="4.45181">
        <ele>402</ele>
        <time>2018-05-16T08:31:56.1Z</time>
      </trkpt>
      <trkpt lat="44.40296" lon="4.45204">
        <ele>402</ele>
        <time>2018-05-16T08:31:59.1Z</time>
      </trkpt>
      <trkpt lat="44.40307" lon="4.4522">
        <ele>401</ele>
        <time>2018-05-16T08:32:01.1Z</time>
      </trkpt>
      <trkpt lat="44.40327" lon="4.45243">
        <ele>399</ele>
        <time>2018-05-16T08:32:04.1Z</time>
      </trkpt>
      <trkpt lat="44.4035" lon="4.45259">
        <ele>397</ele>
        <time>2018-05-16T08:32:07.1Z</time>
      </trkpt>
      <trkpt lat="44.40368" lon="4.45264">
        <ele>395</ele>
        <time>2018-05-16T08:32:09.1Z</time>
      </trkpt>
      <trkpt lat="44.40387" lon="4.45267">
        <ele>394</ele>
        <time>2018-05-16T08:32:11.1Z</time>
      </trkpt>
      <trkpt lat="44.40407" lon="4.45267">
        <ele>393</ele>
        <time>2018-05-16T08:32:13.1Z</time>
      </trkpt>
      <trkpt lat="44.40438" lon="4.45267">
        <ele>392</ele>
        <time>2018-05-16T08:32:16.1Z</time>
      </trkpt>
      <trkpt lat="44.4046" lon="4.45272">
        <ele>391</ele>
        <time>2018-05-16T08:32:18.1Z</time>
      </trkpt>
      <trkpt lat="44.4048" lon="4.45288">
        <ele>390</ele>
        <time>2018-05-16T08:32:20.1Z</time>
      </trkpt>
      <trkpt lat="44.40502" lon="4.45328">
        <ele>388</ele>
        <time>2018-05-16T08:32:23.1Z</time>
      </trkpt>
      <trkpt lat="44.40516" lon="4.45355">
        <ele>387</ele>
        <time>2018-05-16T08:32:25.1Z</time>
      </trkpt>
      <trkpt lat="44.4054" lon="4.45394">
        <ele>385</ele>
        <time>2018-05-16T08:32:28.1Z</time>
      </trkpt>
      <trkpt lat="44.40565" lon="4.45431">
        <ele>384</ele>
        <time>2018-05-16T08:32:31.1Z</time>
      </trkpt>
      <trkpt lat="44.40582" lon="4.45455">
        <ele>382</ele>
        <time>2018-05-16T08:32:33.1Z</time>
      </trkpt>
      <trkpt lat="44.40607" lon="4.45491">
        <ele>380</ele>
        <time>2018-05-16T08:32:36.1Z</time>
      </trkpt>
      <trkpt lat="44.40626" lon="4.45506">
        <ele>377</ele>
        <time>2018-05-16T08:32:38.1Z</time>
      </trkpt>
      <trkpt lat="44.40654" lon="4.45491">
        <ele>373</ele>
        <time>2018-05-16T08:32:41.1Z</time>
      </trkpt>
      <trkpt lat="44.40659" lon="4.45464">
        <ele>371</ele>
        <time>2018-05-16T08:32:43.1Z</time>
      </trkpt>
      <trkpt lat="44.40647" lon="4.45427">
        <ele>370</ele>
        <time>2018-05-16T08:32:46.1Z</time>
      </trkpt>
      <trkpt lat="44.40636" lon="4.45403">
        <ele>370</ele>
        <time>2018-05-16T08:32:48.1Z</time>
      </trkpt>
      <trkpt lat="44.40624" lon="4.4538">
        <ele>370</ele>
        <time>2018-05-16T08:32:50.1Z</time>
      </trkpt>
      <trkpt lat="44.40613" lon="4.45358">
        <ele>369</ele>
        <time>2018-05-16T08:32:52.1Z</time>
      </trkpt>
      <trkpt lat="44.40597" lon="4.45322">
        <ele>368</ele>
        <time>2018-05-16T08:32:55.1Z</time>
      </trkpt>
      <trkpt lat="44.4059" lon="4.45297">
        <ele>367</ele>
        <time>2018-05-16T08:32:57.1Z</time>
      </trkpt>
      <trkpt lat="44.40581" lon="4.45259">
        <ele>363</ele>
        <time>2018-05-16T08:33:00.1Z</time>
      </trkpt>
      <trkpt lat="44.40577" lon="4.45216">
        <ele>360</ele>
        <time>2018-05-16T08:33:03.1Z</time>
      </trkpt>
      <trkpt lat="44.40577" lon="4.45186">
        <ele>359</ele>
        <time>2018-05-16T08:33:05.1Z</time>
      </trkpt>
      <trkpt lat="44.40582" lon="4.45142">
        <ele>358</ele>
        <time>2018-05-16T08:33:08.1Z</time>
      </trkpt>
      <trkpt lat="44.4059" lon="4.45099">
        <ele>357</ele>
        <time>2018-05-16T08:33:11.1Z</time>
      </trkpt>
      <trkpt lat="44.40595" lon="4.45055">
        <ele>354</ele>
        <time>2018-05-16T08:33:14.1Z</time>
      </trkpt>
      <trkpt lat="44.40595" lon="4.45025">
        <ele>353</ele>
        <time>2018-05-16T08:33:16.1Z</time>
      </trkpt>
      <trkpt lat="44.40593" lon="4.44996">
        <ele>352</ele>
        <time>2018-05-16T08:33:18.1Z</time>
      </trkpt>
      <trkpt lat="44.40592" lon="4.44967">
        <ele>351</ele>
        <time>2018-05-16T08:33:20.1Z</time>
      </trkpt>
      <trkpt lat="44.4059" lon="4.44937">
        <ele>349</ele>
        <time>2018-05-16T08:33:22.1Z</time>
      </trkpt>
      <trkpt lat="44.40588" lon="4.44893">
        <ele>348</ele>
        <time>2018-05-16T08:33:25.1Z</time>
      </trkpt>
      <trkpt lat="44.40589" lon="4.44863">
        <ele>346</ele>
        <time>2018-05-16T08:33:27.1Z</time>
      </trkpt>
      <trkpt lat="44.40596" lon="4.44819">
        <ele>344</ele>
        <time>2018-05-16T08:33:30.1Z</time>
      </trkpt>
      <trkpt lat="44.40605" lon="4.44774">
        <ele>340</ele>
        <time>2018-05-16T08:33:33.1Z</time>
      </trkpt>
      <trkpt lat="44.40612" lon="4.44742">
        <ele>338</ele>
        <time>2018-05-16T08:33:35.1Z</time>
      </trkpt>
      <trkpt lat="44.40619" lon="4.44693">
        <ele>337</ele>
        <time>2018-05-16T08:33:38.1Z</time>
      </trkpt>
      <trkpt lat="44.40622" lon="4.4466">
        <ele>336</ele>
        <time>2018-05-16T08:33:40.1Z</time>
      </trkpt>
      <trkpt lat="44.40625" lon="4.44627">
        <ele>337</ele>
        <time>2018-05-16T08:33:42.1Z</time>
      </trkpt>
      <trkpt lat="44.40628" lon="4.44594">
        <ele>335</ele>
        <time>2018-05-16T08:33:44.1Z</time>
      </trkpt>
      <trkpt lat="44.40632" lon="4.44546">
        <ele>333</ele>
        <time>2018-05-16T08:33:47.1Z</time>
      </trkpt>
      <trkpt lat="44.40635" lon="4.44514">
        <ele>332</ele>
        <time>2018-05-16T08:33:49.1Z</time>
      </trkpt>
      <trkpt lat="44.40635" lon="4.44482">
        <ele>330</ele>
        <time>2018-05-16T08:33:51.1Z</time>
      </trkpt>
      <trkpt lat="44.40629" lon="4.44436">
        <ele>328</ele>
        <time>2018-05-16T08:33:54.1Z</time>
      </trkpt>
      <trkpt lat="44.40623" lon="4.44392">
        <ele>327</ele>
        <time>2018-05-16T08:33:57.1Z</time>
      </trkpt>
      <trkpt lat="44.40618" lon="4.44363">
        <ele>325</ele>
        <time>2018-05-16T08:33:59.1Z</time>
      </trkpt>
      <trkpt lat="44.40613" lon="4.4432">
        <ele>322</ele>
        <time>2018-05-16T08:34:02.1Z</time>
      </trkpt>
      <trkpt lat="44.40615" lon="4.44277">
        <ele>319</ele>
        <time>2018-05-16T08:34:05.1Z</time>
      </trkpt>
      <trkpt lat="44.40627" lon="4.44238">
        <ele>315</ele>
        <time>2018-05-16T08:34:08.1Z</time>
      </trkpt>
      <trkpt lat="44.40638" lon="4.44212">
        <ele>313</ele>
        <time>2018-05-16T08:34:10.1Z</time>
      </trkpt>
      <trkpt lat="44.40651" lon="4.44171">
        <ele>311</ele>
        <time>2018-05-16T08:34:13.1Z</time>
      </trkpt>
      <trkpt lat="44.40655" lon="4.44141">
        <ele>311</ele>
        <time>2018-05-16T08:34:15.1Z</time>
      </trkpt>
      <trkpt lat="44.40661" lon="4.44097">
        <ele>311</ele>
        <time>2018-05-16T08:34:18.1Z</time>
      </trkpt>
      <trkpt lat="44.40671" lon="4.44056">
        <ele>308</ele>
        <time>2018-05-16T08:34:21.1Z</time>
      </trkpt>
      <trkpt lat="44.4068" lon="4.4403">
        <ele>306</ele>
        <time>2018-05-16T08:34:23.1Z</time>
      </trkpt>
      <trkpt lat="44.40692" lon="4.43991">
        <ele>302</ele>
        <time>2018-05-16T08:34:26.1Z</time>
      </trkpt>
      <trkpt lat="44.40697" lon="4.43963">
        <ele>300</ele>
        <time>2018-05-16T08:34:28.1Z</time>
      </trkpt>
      <trkpt lat="44.40702" lon="4.43934">
        <ele>298</ele>
        <time>2018-05-16T08:34:30.1Z</time>
      </trkpt>
      <trkpt lat="44.40709" lon="4.4389">
        <ele>296</ele>
        <time>2018-05-16T08:34:33.1Z</time>
      </trkpt>
      <trkpt lat="44.40715" lon="4.43846">
        <ele>293</ele>
        <time>2018-05-16T08:34:36.1Z</time>
      </trkpt>
      <trkpt lat="44.40716" lon="4.43799">
        <ele>290</ele>
        <time>2018-05-16T08:34:39.1Z</time>
      </trkpt>
      <trkpt lat="44.40711" lon="4.43752">
        <ele>287</ele>
        <time>2018-05-16T08:34:42.1Z</time>
      </trkpt>
      <trkpt lat="44.40706" lon="4.43704">
        <ele>285</ele>
        <time>2018-05-16T08:34:45.1Z</time>
      </trkpt>
      <trkpt lat="44.40703" lon="4.43671">
        <ele>283</ele>
        <time>2018-05-16T08:34:47.1Z</time>
      </trkpt>
      <trkpt lat="44.40697" lon="4.4362">
        <ele>281</ele>
        <time>2018-05-16T08:34:50.1Z</time>
      </trkpt>
      <trkpt lat="44.40691" lon="4.43587">
        <ele>280</ele>
        <time>2018-05-16T08:34:52.1Z</time>
      </trkpt>
      <trkpt lat="44.4068" lon="4.43556">
        <ele>279</ele>
        <time>2018-05-16T08:34:54.1Z</time>
      </trkpt>
      <trkpt lat="44.40668" lon="4.43505">
        <ele>278</ele>
        <time>2018-05-16T08:34:57.1Z</time>
      </trkpt>
      <trkpt lat="44.40673" lon="4.4347">
        <ele>277</ele>
        <time>2018-05-16T08:34:59.1Z</time>
      </trkpt>
      <trkpt lat="44.40681" lon="4.43436">
        <ele>276</ele>
        <time>2018-05-16T08:35:01.1Z</time>
      </trkpt>
      <trkpt lat="44.40691" lon="4.43388">
        <ele>274</ele>
        <time>2018-05-16T08:35:04.1Z</time>
      </trkpt>
      <trkpt lat="44.4069" lon="4.43356">
        <ele>273</ele>
        <time>2018-05-16T08:35:06.1Z</time>
      </trkpt>
      <trkpt lat="44.4068" lon="4.43312">
        <ele>271</ele>
        <time>2018-05-16T08:35:09.1Z</time>
      </trkpt>
      <trkpt lat="44.40669" lon="4.43287">
        <ele>270</ele>
        <time>2018-05-16T08:35:11.1Z</time>
      </trkpt>
      <trkpt lat="44.40647" lon="4.43255">
        <ele>268</ele>
        <time>2018-05-16T08:35:14.1Z</time>
      </trkpt>
      <trkpt lat="44.4063" lon="4.43237">
        <ele>266</ele>
        <time>2018-05-16T08:35:16.1Z</time>
      </trkpt>
      <trkpt lat="44.40606" lon="4.43208">
        <ele>265</ele>
        <time>2018-05-16T08:35:19.1Z</time>
      </trkpt>
      <trkpt lat="44.40587" lon="4.43174">
        <ele>264</ele>
        <time>2018-05-16T08:35:22.1Z</time>
      </trkpt>
      <trkpt lat="44.40561" lon="4.43155">
        <ele>263</ele>
        <time>2018-05-16T08:35:25.1Z</time>
      </trkpt>
      <trkpt lat="44.40536" lon="4.43133">
        <ele>262</ele>
        <time>2018-05-16T08:35:28.1Z</time>
      </trkpt>
      <trkpt lat="44.40513" lon="4.43109">
        <ele>260</ele>
        <time>2018-05-16T08:35:31.1Z</time>
      </trkpt>
      <trkpt lat="44.40499" lon="4.43093">
        <ele>260</ele>
        <time>2018-05-16T08:35:33.1Z</time>
      </trkpt>
      <trkpt lat="44.40485" lon="4.43079">
        <ele>259</ele>
        <time>2018-05-16T08:35:35.1Z</time>
      </trkpt>
      <trkpt lat="44.40471" lon="4.43063">
        <ele>259</ele>
        <time>2018-05-16T08:35:37.1Z</time>
      </trkpt>
      <trkpt lat="44.40453" lon="4.43035">
        <ele>258</ele>
        <time>2018-05-16T08:35:40.1Z</time>
      </trkpt>
      <trkpt lat="44.40438" lon="4.43001">
        <ele>257</ele>
        <time>2018-05-16T08:35:43.1Z</time>
      </trkpt>
      <trkpt lat="44.40425" lon="4.42965">
        <ele>256</ele>
        <time>2018-05-16T08:35:46.1Z</time>
      </trkpt>
      <trkpt lat="44.40411" lon="4.42929">
        <ele>256</ele>
        <time>2018-05-16T08:35:49.1Z</time>
      </trkpt>
      <trkpt lat="44.40397" lon="4.42892">
        <ele>255</ele>
        <time>2018-05-16T08:35:52.1Z</time>
      </trkpt>
      <trkpt lat="44.40384" lon="4.42855">
        <ele>254</ele>
        <time>2018-05-16T08:35:55.1Z</time>
      </trkpt>
      <trkpt lat="44.40377" lon="4.42816">
        <ele>253</ele>
        <time>2018-05-16T08:35:58.1Z</time>
      </trkpt>
      <trkpt lat="44.40376" lon="4.4279">
        <ele>252</ele>
        <time>2018-05-16T08:36:00.1Z</time>
      </trkpt>
      <trkpt lat="44.40382" lon="4.42751">
        <ele>251</ele>
        <time>2018-05-16T08:36:03.1Z</time>
      </trkpt>
      <trkpt lat="44.40389" lon="4.42728">
        <ele>250</ele>
        <time>2018-05-16T08:36:05.1Z</time>
      </trkpt>
      <trkpt lat="44.40406" lon="4.42697">
        <ele>249</ele>
        <time>2018-05-16T08:36:08.1Z</time>
      </trkpt>
      <trkpt lat="44.4043" lon="4.42674">
        <ele>249</ele>
        <time>2018-05-16T08:36:11.1Z</time>
      </trkpt>
      <trkpt lat="44.40457" lon="4.42662">
        <ele>250</ele>
        <time>2018-05-16T08:36:14.1Z</time>
      </trkpt>
      <trkpt lat="44.40475" lon="4.42658">
        <ele>250</ele>
        <time>2018-05-16T08:36:16.1Z</time>
      </trkpt>
      <trkpt lat="44.40494" lon="4.42655">
        <ele>249</ele>
        <time>2018-05-16T08:36:18.1Z</time>
      </trkpt>
      <trkpt lat="44.4052" lon="4.42647">
        <ele>247</ele>
        <time>2018-05-16T08:36:21.1Z</time>
      </trkpt>
      <trkpt lat="44.40535" lon="4.42634">
        <ele>245</ele>
        <time>2018-05-16T08:36:23.1Z</time>
      </trkpt>
      <trkpt lat="44.40546" lon="4.42616">
        <ele>244</ele>
        <time>2018-05-16T08:36:25.1Z</time>
      </trkpt>
      <trkpt lat="44.40554" lon="4.42596">
        <ele>243</ele>
        <time>2018-05-16T08:36:27.1Z</time>
      </trkpt>
      <trkpt lat="44.4056" lon="4.42574">
        <ele>241</ele>
        <time>2018-05-16T08:36:29.1Z</time>
      </trkpt>
      <trkpt lat="44.40569" lon="4.4254">
        <ele>240</ele>
        <time>2018-05-16T08:36:32.1Z</time>
      </trkpt>
      <trkpt lat="44.40578" lon="4.42505">
        <ele>238</ele>
        <time>2018-05-16T08:36:35.1Z</time>
      </trkpt>
      <trkpt lat="44.40591" lon="4.42472">
        <ele>238</ele>
        <time>2018-05-16T08:36:38.1Z</time>
      </trkpt>
      <trkpt lat="44.40603" lon="4.4244">
        <ele>237</ele>
        <time>2018-05-16T08:36:41.1Z</time>
      </trkpt>
      <trkpt lat="44.40614" lon="4.42406">
        <ele>236</ele>
        <time>2018-05-16T08:36:44.1Z</time>
      </trkpt>
      <trkpt lat="44.40622" lon="4.42372">
        <ele>235</ele>
        <time>2018-05-16T08:36:47.1Z</time>
      </trkpt>
      <trkpt lat="44.40627" lon="4.42336">
        <ele>234</ele>
        <time>2018-05-16T08:36:50.1Z</time>
      </trkpt>
      <trkpt lat="44.4063" lon="4.423">
        <ele>232</ele>
        <time>2018-05-16T08:36:53.1Z</time>
      </trkpt>
      <trkpt lat="44.40632" lon="4.42276">
        <ele>232</ele>
        <time>2018-05-16T08:36:55.1Z</time>
      </trkpt>
      <trkpt lat="44.40636" lon="4.42252">
        <ele>231</ele>
        <time>2018-05-16T08:36:57.1Z</time>
      </trkpt>
      <trkpt lat="44.40651" lon="4.42226">
        <ele>231</ele>
        <time>2018-05-16T08:37:00.1Z</time>
      </trkpt>
      <trkpt lat="44.40667" lon="4.42225">
        <ele>233</ele>
        <time>2018-05-16T08:37:02.1Z</time>
      </trkpt>
      <trkpt lat="44.40688" lon="4.42235">
        <ele>233</ele>
        <time>2018-05-16T08:37:05.1Z</time>
      </trkpt>
      <trkpt lat="44.40707" lon="4.42245">
        <ele>231</ele>
        <time>2018-05-16T08:37:08.1Z</time>
      </trkpt>
      <trkpt lat="44.4072" lon="4.42251">
        <ele>230</ele>
        <time>2018-05-16T08:37:10.1Z</time>
      </trkpt>
      <trkpt lat="44.40733" lon="4.42255">
        <ele>229</ele>
        <time>2018-05-16T08:37:12.1Z</time>
      </trkpt>
      <trkpt lat="44.40754" lon="4.42259">
        <ele>229</ele>
        <time>2018-05-16T08:37:15.1Z</time>
      </trkpt>
      <trkpt lat="44.40775" lon="4.42263">
        <ele>228</ele>
        <time>2018-05-16T08:37:18.1Z</time>
      </trkpt>
      <trkpt lat="44.40789" lon="4.42265">
        <ele>227</ele>
        <time>2018-05-16T08:37:20.1Z</time>
      </trkpt>
      <trkpt lat="44.40804" lon="4.42267">
        <ele>226</ele>
        <time>2018-05-16T08:37:22.1Z</time>
      </trkpt>
      <trkpt lat="44.40827" lon="4.42271">
        <ele>225</ele>
        <time>2018-05-16T08:37:25.1Z</time>
      </trkpt>
      <trkpt lat="44.40843" lon="4.42273">
        <ele>225</ele>
        <time>2018-05-16T08:37:27.1Z</time>
      </trkpt>
      <trkpt lat="44.40865" lon="4.4226">
        <ele>223</ele>
        <time>2018-05-16T08:37:30.1Z</time>
      </trkpt>
      <trkpt lat="44.40865" lon="4.42225">
        <ele>222</ele>
        <time>2018-05-16T08:37:33.1Z</time>
      </trkpt>
      <trkpt lat="44.40854" lon="4.42204">
        <ele>221</ele>
        <time>2018-05-16T08:37:35.1Z</time>
      </trkpt>
      <trkpt lat="44.40829" lon="4.42178">
        <ele>220</ele>
        <time>2018-05-16T08:37:38.1Z</time>
      </trkpt>
      <trkpt lat="44.40805" lon="4.42149">
        <ele>219</ele>
        <time>2018-05-16T08:37:41.1Z</time>
      </trkpt>
      <trkpt lat="44.40779" lon="4.42121">
        <ele>218</ele>
        <time>2018-05-16T08:37:44.1Z</time>
      </trkpt>
      <trkpt lat="44.40767" lon="4.4208">
        <ele>216</ele>
        <time>2018-05-16T08:37:47.1Z</time>
      </trkpt>
      <trkpt lat="44.40778" lon="4.42055">
        <ele>215</ele>
        <time>2018-05-16T08:37:49.1Z</time>
      </trkpt>
      <trkpt lat="44.40807" lon="4.42031">
        <ele>213</ele>
        <time>2018-05-16T08:37:52.1Z</time>
      </trkpt>
      <trkpt lat="44.40826" lon="4.42014">
        <ele>212</ele>
        <time>2018-05-16T08:37:54.1Z</time>
      </trkpt>
      <trkpt lat="44.40845" lon="4.41997">
        <ele>210</ele>
        <time>2018-05-16T08:37:56.1Z</time>
      </trkpt>
      <trkpt lat="44.40872" lon="4.41967">
        <ele>209</ele>
        <time>2018-05-16T08:37:59.1Z</time>
      </trkpt>
      <trkpt lat="44.40889" lon="4.41945">
        <ele>208</ele>
        <time>2018-05-16T08:38:01.1Z</time>
      </trkpt>
      <trkpt lat="44.40914" lon="4.41912">
        <ele>206</ele>
        <time>2018-05-16T08:38:04.1Z</time>
      </trkpt>
      <trkpt lat="44.40933" lon="4.41894">
        <ele>206</ele>
        <time>2018-05-16T08:38:06.1Z</time>
      </trkpt>
      <trkpt lat="44.40965" lon="4.4188">
        <ele>203</ele>
        <time>2018-05-16T08:38:09.1Z</time>
      </trkpt>
      <trkpt lat="44.4099" lon="4.41873">
        <ele>199</ele>
        <time>2018-05-16T08:38:12.1Z</time>
      </trkpt>
      <trkpt lat="44.40992" lon="4.41845">
        <ele>195</ele>
        <time>2018-05-16T08:38:15.1Z</time>
      </trkpt>
      <trkpt lat="44.40977" lon="4.41839">
        <ele>192</ele>
        <time>2018-05-16T08:38:17.1Z</time>
      </trkpt>
      <trkpt lat="44.40952" lon="4.41841">
        <ele>190</ele>
        <time>2018-05-16T08:38:20.1Z</time>
      </trkpt>
      <trkpt lat="44.40925" lon="4.41849">
        <ele>189</ele>
        <time>2018-05-16T08:38:23.1Z</time>
      </trkpt>
      <trkpt lat="44.40896" lon="4.41863">
        <ele>187</ele>
        <time>2018-05-16T08:38:26.1Z</time>
      </trkpt>
      <trkpt lat="44.40866" lon="4.41879">
        <ele>186</ele>
        <time>2018-05-16T08:38:29.1Z</time>
      </trkpt>
      <trkpt lat="44.40846" lon="4.41891">
        <ele>186</ele>
        <time>2018-05-16T08:38:31.1Z</time>
      </trkpt>
      <trkpt lat="44.40814" lon="4.41902">
        <ele>184</ele>
        <time>2018-05-16T08:38:34.1Z</time>
      </trkpt>
      <trkpt lat="44.40791" lon="4.41899">
        <ele>184</ele>
        <time>2018-05-16T08:38:36.1Z</time>
      </trkpt>
      <trkpt lat="44.40757" lon="4.41892">
        <ele>182</ele>
        <time>2018-05-16T08:38:39.1Z</time>
      </trkpt>
      <trkpt lat="44.40734" lon="4.41896">
        <ele>181</ele>
        <time>2018-05-16T08:38:41.1Z</time>
      </trkpt>
      <trkpt lat="44.40712" lon="4.4191">
        <ele>180</ele>
        <time>2018-05-16T08:38:43.1Z</time>
      </trkpt>
      <trkpt lat="44.40677" lon="4.41909">
        <ele>179</ele>
        <time>2018-05-16T08:38:46.1Z</time>
      </trkpt>
      <trkpt lat="44.40652" lon="4.41872">
        <ele>177</ele>
        <time>2018-05-16T08:38:49.1Z</time>
      </trkpt>
      <trkpt lat="44.40628" lon="4.41834">
        <ele>173</ele>
        <time>2018-05-16T08:38:52.1Z</time>
      </trkpt>
      <trkpt lat="44.40618" lon="4.41806">
        <ele>171</ele>
        <time>2018-05-16T08:38:54.1Z</time>
      </trkpt>
      <trkpt lat="44.40607" lon="4.41759">
        <ele>170</ele>
        <time>2018-05-16T08:38:57.1Z</time>
      </trkpt>
      <trkpt lat="44.4058" lon="4.4173">
        <ele>168</ele>
        <time>2018-05-16T08:39:00.1Z</time>
      </trkpt>
      <trkpt lat="44.40545" lon="4.41722">
        <ele>166</ele>
        <time>2018-05-16T08:39:03.1Z</time>
      </trkpt>
      <trkpt lat="44.40522" lon="4.4172">
        <ele>164</ele>
        <time>2018-05-16T08:39:05.1Z</time>
      </trkpt>
      <trkpt lat="44.40498" lon="4.4172">
        <ele>163</ele>
        <time>2018-05-16T08:39:07.1Z</time>
      </trkpt>
      <trkpt lat="44.40473" lon="4.41722">
        <ele>161</ele>
        <time>2018-05-16T08:39:09.1Z</time>
      </trkpt>
      <trkpt lat="44.40449" lon="4.41727">
        <ele>161</ele>
        <time>2018-05-16T08:39:11.1Z</time>
      </trkpt>
      <trkpt lat="44.40416" lon="4.41744">
        <ele>160</ele>
        <time>2018-05-16T08:39:14.1Z</time>
      </trkpt>
      <trkpt lat="44.40395" lon="4.41762">
        <ele>157</ele>
        <time>2018-05-16T08:39:16.1Z</time>
      </trkpt>
      <trkpt lat="44.4036" lon="4.41775">
        <ele>154</ele>
        <time>2018-05-16T08:39:19.1Z</time>
      </trkpt>
      <trkpt lat="44.40329" lon="4.418">
        <ele>150</ele>
        <time>2018-05-16T08:39:22.1Z</time>
      </trkpt>
      <trkpt lat="44.40312" lon="4.41825">
        <ele>149</ele>
        <time>2018-05-16T08:39:24.1Z</time>
      </trkpt>
      <trkpt lat="44.40287" lon="4.41858">
        <ele>148</ele>
        <time>2018-05-16T08:39:27.1Z</time>
      </trkpt>
      <trkpt lat="44.40266" lon="4.41861">
        <ele>146</ele>
        <time>2018-05-16T08:39:29.1Z</time>
      </trkpt>
      <trkpt lat="44.40248" lon="4.41849">
        <ele>143</ele>
        <time>2018-05-16T08:39:31.1Z</time>
      </trkpt>
      <trkpt lat="44.40228" lon="4.4184">
        <ele>141</ele>
        <time>2018-05-16T08:39:33.1Z</time>
      </trkpt>
      <trkpt lat="44.40198" lon="4.41855">
        <ele>140</ele>
        <time>2018-05-16T08:39:36.1Z</time>
      </trkpt>
      <trkpt lat="44.40177" lon="4.41885">
        <ele>139</ele>
        <time>2018-05-16T08:39:39.1Z</time>
      </trkpt>
      <trkpt lat="44.40164" lon="4.41893">
        <ele>137</ele>
        <time>2018-05-16T08:39:41.1Z</time>
      </trkpt>
      <trkpt lat="44.40156" lon="4.41871">
        <ele>132</ele>
        <time>2018-05-16T08:39:44.1Z</time>
      </trkpt>
      <trkpt lat="44.40168" lon="4.41858">
        <ele>130</ele>
        <time>2018-05-16T08:39:46.1Z</time>
      </trkpt>
      <trkpt lat="44.40191" lon="4.41838">
        <ele>129</ele>
        <time>2018-05-16T08:39:49.1Z</time>
      </trkpt>
      <trkpt lat="44.40206" lon="4.41822">
        <ele>129</ele>
        <time>2018-05-16T08:39:51.1Z</time>
      </trkpt>
      <trkpt lat="44.40232" lon="4.41801">
        <ele>128</ele>
        <time>2018-05-16T08:39:54.1Z</time>
      </trkpt>
      <trkpt lat="44.40251" lon="4.41789">
        <ele>126</ele>
        <time>2018-05-16T08:39:56.1Z</time>
      </trkpt>
      <trkpt lat="44.40268" lon="4.41772">
        <ele>125</ele>
        <time>2018-05-16T08:39:58.1Z</time>
      </trkpt>
      <trkpt lat="44.40286" lon="4.41735">
        <ele>124</ele>
        <time>2018-05-16T08:40:01.1Z</time>
      </trkpt>
      <trkpt lat="44.40302" lon="4.41715">
        <ele>123</ele>
        <time>2018-05-16T08:40:03.1Z</time>
      </trkpt>
      <trkpt lat="44.40323" lon="4.41683">
        <ele>120</ele>
        <time>2018-05-16T08:40:06.1Z</time>
      </trkpt>
      <trkpt lat="44.40337" lon="4.41646">
        <ele>117</ele>
        <time>2018-05-16T08:40:08.1Z</time>
      </trkpt>
      <trkpt lat="44.40351" lon="4.41629">
        <ele>115</ele>
        <time>2018-05-16T08:40:10.1Z</time>
      </trkpt>
      <trkpt lat="44.40367" lon="4.41616">
        <ele>113</ele>
        <time>2018-05-16T08:40:13.1Z</time>
      </trkpt>
      <trkpt lat="44.40392" lon="4.41598">
        <ele>110</ele>
        <time>2018-05-16T08:40:16.1Z</time>
      </trkpt>
      <trkpt lat="44.40408" lon="4.41585">
        <ele>109</ele>
        <time>2018-05-16T08:40:18.1Z</time>
      </trkpt>
      <trkpt lat="44.40424" lon="4.4156">
        <ele>106</ele>
        <time>2018-05-16T08:40:21.1Z</time>
      </trkpt>
      <trkpt lat="44.4043" lon="4.4153">
        <ele>104</ele>
        <time>2018-05-16T08:40:24.1Z</time>
      </trkpt>
      <trkpt lat="44.40425" lon="4.41502">
        <ele>102</ele>
        <time>2018-05-16T08:40:27.1Z</time>
      </trkpt>
      <trkpt lat="44.4042" lon="4.41484">
        <ele>101</ele>
        <time>2018-05-16T08:40:29.1Z</time>
      </trkpt>
      <trkpt lat="44.40411" lon="4.41462">
        <ele>100</ele>
        <time>2018-05-16T08:40:32.1Z</time>
      </trkpt>
      <trkpt lat="44.40406" lon="4.41448">
        <ele>99</ele>
        <time>2018-05-16T08:40:34.1Z</time>
      </trkpt>
      <trkpt lat="44.404" lon="4.41434">
        <ele>99</ele>
        <time>2018-05-16T08:40:36.1Z</time>
      </trkpt>
      <trkpt lat="44.40392" lon="4.41413">
        <ele>99</ele>
        <time>2018-05-16T08:40:39.1Z</time>
      </trkpt>
      <trkpt lat="44.40384" lon="4.41392">
        <ele>99</ele>
        <time>2018-05-16T08:40:42.1Z</time>
      </trkpt>
      <trkpt lat="44.40379" lon="4.41378">
        <ele>99</ele>
        <time>2018-05-16T08:40:44.1Z</time>
      </trkpt>
      <trkpt lat="44.40379" lon="4.41357">
        <ele>99</ele>
        <time>2018-05-16T08:40:47.1Z</time>
      </trkpt>
      <trkpt lat="44.40384" lon="4.4134">
        <ele>99</ele>
        <time>2018-05-16T08:40:49.1Z</time>
      </trkpt>
      <trkpt lat="44.40389" lon="4.41332">
        <ele>98</ele>
        <time>2018-05-16T08:40:52.1Z</time>
      </trkpt>
      <trkpt lat="44.40396" lon="4.41323">
        <ele>97</ele>
        <time>2018-05-16T08:40:55.1Z</time>
      </trkpt>
      <trkpt lat="44.40398" lon="4.4132">
        <ele>97</ele>
        <time>2018-05-16T08:40:57.1Z</time>
      </trkpt>
      <trkpt lat="44.40398" lon="4.41319">
        <ele>97</ele>
        <time>2018-05-16T08:41:00.1Z</time>
      </trkpt>
      <trkpt lat="44.40397" lon="4.41318">
        <ele>97</ele>
        <time>2018-05-16T08:41:02.1Z</time>
      </trkpt>
      <trkpt lat="44.40395" lon="4.41319">
        <ele>97</ele>
        <time>2018-05-16T08:41:05.1Z</time>
      </trkpt>
      <trkpt lat="44.40394" lon="4.41321">
        <ele>97</ele>
        <time>2018-05-16T08:41:07.1Z</time>
      </trkpt>
      <trkpt lat="44.40393" lon="4.41324">
        <ele>98</ele>
        <time>2018-05-16T08:41:09.1Z</time>
      </trkpt>
      <trkpt lat="44.40393" lon="4.41324">
        <ele>98</ele>
        <time>2018-05-16T08:41:11.1Z</time>
      </trkpt>
      <trkpt lat="44.40394" lon="4.41324">
        <ele>98</ele>
        <time>2018-05-16T08:41:14.1Z</time>
      </trkpt>
      <trkpt lat="44.40395" lon="4.41324">
        <ele>98</ele>
        <time>2018-05-16T08:41:17.1Z</time>
      </trkpt>
      <trkpt lat="44.40396" lon="4.41324">
        <ele>97</ele>
        <time>2018-05-16T08:41:19.1Z</time>
      </trkpt>
      <trkpt lat="44.40396" lon="4.41323">
        <ele>97</ele>
        <time>2018-05-16T08:41:22.1Z</time>
      </trkpt>
      <trkpt lat="44.40397" lon="4.41324">
        <ele>96</ele>
        <time>2018-05-16T08:41:25.1Z</time>
      </trkpt>
      <trkpt lat="44.40397" lon="4.41324">
        <ele>96</ele>
        <time>2018-05-16T08:41:27.1Z</time>
      </trkpt>
      <trkpt lat="44.40397" lon="4.41324">
        <ele>97</ele>
        <time>2018-05-16T08:41:30.1Z</time>
      </trkpt>
      <trkpt lat="44.40398" lon="4.41324">
        <ele>97</ele>
        <time>2018-05-16T08:41:32.1Z</time>
      </trkpt>
      <trkpt lat="44.40398" lon="4.41324">
        <ele>97</ele>
        <time>2018-05-16T08:41:34.1Z</time>
      </trkpt>
      <trkpt lat="44.40398" lon="4.41325">
        <ele>98</ele>
        <time>2018-05-16T08:41:37.1Z</time>
      </trkpt>
      <trkpt lat="44.40398" lon="4.41325">
        <ele>98</ele>
        <time>2018-05-16T08:41:39.1Z</time>
      </trkpt>
      <trkpt lat="44.40398" lon="4.41326">
        <ele>98</ele>
        <time>2018-05-16T08:41:41.1Z</time>
      </trkpt>
      <trkpt lat="44.40397" lon="4.41327">
        <ele>97</ele>
        <time>2018-05-16T08:41:44.1Z</time>
      </trkpt>
      <trkpt lat="44.40396" lon="4.41327">
        <ele>97</ele>
        <time>2018-05-16T08:41:46.1Z</time>
      </trkpt>
      <trkpt lat="44.40396" lon="4.41327">
        <ele>98</ele>
        <time>2018-05-16T08:41:49.1Z</time>
      </trkpt>
      <trkpt lat="44.40395" lon="4.41327">
        <ele>98</ele>
        <time>2018-05-16T08:41:52.1Z</time>
      </trkpt>
      <trkpt lat="44.40395" lon="4.41327">
        <ele>98</ele>
        <time>2018-05-16T08:41:54.1Z</time>
      </trkpt>
      <trkpt lat="44.40395" lon="4.41327">
        <ele>98</ele>
        <time>2018-05-16T08:41:57.1Z</time>
      </trkpt>
      <trkpt lat="44.40395" lon="4.41327">
        <ele>98</ele>
        <time>2018-05-16T08:41:59.1Z</time>
      </trkpt>
      <trkpt lat="44.40395" lon="4.41327">
        <ele>98</ele>
        <time>2018-05-16T08:42:01.1Z</time>
      </trkpt>
      <trkpt lat="44.40395" lon="4.41328">
        <ele>98</ele>
        <time>2018-05-16T08:42:03.1Z</time>
      </trkpt>
      <trkpt lat="44.40395" lon="4.41328">
        <ele>97</ele>
        <time>2018-05-16T08:42:07.1Z</time>
      </trkpt>
      <trkpt lat="44.40395" lon="4.41328">
        <ele>97</ele>
        <time>2018-05-16T08:42:10.1Z</time>
      </trkpt>
      <trkpt lat="44.40396" lon="4.41327">
        <ele>97</ele>
        <time>2018-05-16T08:42:13.1Z</time>
      </trkpt>
      <trkpt lat="44.40397" lon="4.41327">
        <ele>97</ele>
        <time>2018-05-16T08:42:15.1Z</time>
      </trkpt>
      <trkpt lat="44.40398" lon="4.41327">
        <ele>97</ele>
        <time>2018-05-16T08:42:18.1Z</time>
      </trkpt>
      <trkpt lat="44.40398" lon="4.41327">
        <ele>97</ele>
        <time>2018-05-16T08:42:20.1Z</time>
      </trkpt>
      <trkpt lat="44.40398" lon="4.41327">
        <ele>97</ele>
        <time>2018-05-16T08:42:26.1Z</time>
      </trkpt>
      <trkpt lat="44.40398" lon="4.41327">
        <ele>97</ele>
        <time>2018-05-16T08:42:29.1Z</time>
      </trkpt>
      <trkpt lat="44.40398" lon="4.41327">
        <ele>97</ele>
        <time>2018-05-16T08:42:33.1Z</time>
      </trkpt>
      <trkpt lat="44.40398" lon="4.41327">
        <ele>98</ele>
        <time>2018-05-16T08:42:37.1Z</time>
      </trkpt>
      <trkpt lat="44.40398" lon="4.41327">
        <ele>98</ele>
        <time>2018-05-16T08:42:39.1Z</time>
      </trkpt>
      <trkpt lat="44.40397" lon="4.41327">
        <ele>98</ele>
        <time>2018-05-16T08:42:42.1Z</time>
      </trkpt>
      <trkpt lat="44.40397" lon="4.41327">
        <ele>98</ele>
        <time>2018-05-16T08:42:44.1Z</time>
      </trkpt>
      <trkpt lat="44.40396" lon="4.41327">
        <ele>98</ele>
        <time>2018-05-16T08:42:46.1Z</time>
      </trkpt>
      <trkpt lat="44.40396" lon="4.41327">
        <ele>99</ele>
        <time>2018-05-16T08:42:48.1Z</time>
      </trkpt>
      <trkpt lat="44.40396" lon="4.41328">
        <ele>98</ele>
        <time>2018-05-16T08:42:51.1Z</time>
      </trkpt>
      <trkpt lat="44.40396" lon="4.41328">
        <ele>98</ele>
        <time>2018-05-16T08:42:54.1Z</time>
      </trkpt>
      <trkpt lat="44.40395" lon="4.41328">
        <ele>98</ele>
        <time>2018-05-16T08:42:56.1Z</time>
      </trkpt>
      <trkpt lat="44.40395" lon="4.41328">
        <ele>97</ele>
        <time>2018-05-16T08:43:00.1Z</time>
      </trkpt>
      <trkpt lat="44.40395" lon="4.41328">
        <ele>97</ele>
        <time>2018-05-16T08:43:03.1Z</time>
      </trkpt>
      <trkpt lat="44.40395" lon="4.41328">
        <ele>97</ele>
        <time>2018-05-16T08:43:06.1Z</time>
      </trkpt>
      <trkpt lat="44.40394" lon="4.41328">
        <ele>97</ele>
        <time>2018-05-16T08:43:09.1Z</time>
      </trkpt>
      <trkpt lat="44.40394" lon="4.41328">
        <ele>98</ele>
        <time>2018-05-16T08:43:12.1Z</time>
      </trkpt>
      <trkpt lat="44.40394" lon="4.41329">
        <ele>98</ele>
        <time>2018-05-16T08:43:15.1Z</time>
      </trkpt>
      <trkpt lat="44.40393" lon="4.41329">
        <ele>99</ele>
        <time>2018-05-16T08:43:17.1Z</time>
      </trkpt>
      <trkpt lat="44.40393" lon="4.41329">
        <ele>99</ele>
        <time>2018-05-16T08:43:21.1Z</time>
      </trkpt>
      <trkpt lat="44.40393" lon="4.41329">
        <ele>99</ele>
        <time>2018-05-16T08:43:23.1Z</time>
      </trkpt>
      <trkpt lat="44.40393" lon="4.41328">
        <ele>99</ele>
        <time>2018-05-16T08:43:26.1Z</time>
      </trkpt>
      <trkpt lat="44.40393" lon="4.41328">
        <ele>99</ele>
        <time>2018-05-16T08:43:29.1Z</time>
      </trkpt>
      <trkpt lat="44.40393" lon="4.41328">
        <ele>99</ele>
        <time>2018-05-16T08:43:31.1Z</time>
      </trkpt>
      <trkpt lat="44.40393" lon="4.41327">
        <ele>99</ele>
        <time>2018-05-16T08:43:35.1Z</time>
      </trkpt>
      <trkpt lat="44.40393" lon="4.41327">
        <ele>98</ele>
        <time>2018-05-16T08:43:42.1Z</time>
      </trkpt>
      <trkpt lat="44.40393" lon="4.41327">
        <ele>98</ele>
        <time>2018-05-16T08:43:46.1Z</time>
      </trkpt>
      <trkpt lat="44.40393" lon="4.41327">
        <ele>99</ele>
        <time>2018-05-16T08:43:50.1Z</time>
      </trkpt>
      <trkpt lat="44.40393" lon="4.41327">
        <ele>99</ele>
        <time>2018-05-16T08:43:52.1Z</time>
      </trkpt>
      <trkpt lat="44.40393" lon="4.41327">
        <ele>99</ele>
        <time>2018-05-16T08:43:57.1Z</time>
      </trkpt>
      <trkpt lat="44.40393" lon="4.41327">
        <ele>99</ele>
        <time>2018-05-16T08:44:01.1Z</time>
      </trkpt>
      <trkpt lat="44.40393" lon="4.41327">
        <ele>99</ele>
        <time>2018-05-16T08:44:05.1Z</time>
      </trkpt>
      <trkpt lat="44.40393" lon="4.41327">
        <ele>99</ele>
        <time>2018-05-16T08:44:08.1Z</time>
      </trkpt>
      <trkpt lat="44.40393" lon="4.41327">
        <ele>99</ele>
        <time>2018-05-16T08:44:12.1Z</time>
      </trkpt>
      <trkpt lat="44.40393" lon="4.41327">
        <ele>99</ele>
        <time>2018-05-16T08:44:15.1Z</time>
      </trkpt>
      <trkpt lat="44.40393" lon="4.41327">
        <ele>99</ele>
        <time>2018-05-16T08:44:19.1Z</time>
      </trkpt>
      <trkpt lat="44.40393" lon="4.41327">
        <ele>99</ele>
        <time>2018-05-16T08:44:21.1Z</time>
      </trkpt>
      <trkpt lat="44.40394" lon="4.41327">
        <ele>99</ele>
        <time>2018-05-16T08:44:23.1Z</time>
      </trkpt>
      <trkpt lat="44.40394" lon="4.41327">
        <ele>99</ele>
        <time>2018-05-16T08:44:26.1Z</time>
      </trkpt>
      <trkpt lat="44.40394" lon="4.41327">
        <ele>98</ele>
        <time>2018-05-16T08:44:29.1Z</time>
      </trkpt>
      <trkpt lat="44.40394" lon="4.41327">
        <ele>98</ele>
        <time>2018-05-16T08:44:32.1Z</time>
      </trkpt>
      <trkpt lat="44.40395" lon="4.41328">
        <ele>98</ele>
        <time>2018-05-16T08:44:35.1Z</time>
      </trkpt>
      <trkpt lat="44.40395" lon="4.41328">
        <ele>99</ele>
        <time>2018-05-16T08:44:38.1Z</time>
      </trkpt>
      <trkpt lat="44.40395" lon="4.41328">
        <ele>99</ele>
        <time>2018-05-16T08:44:40.1Z</time>
      </trkpt>
      <trkpt lat="44.40395" lon="4.41329">
        <ele>99</ele>
        <time>2018-05-16T08:44:42.1Z</time>
      </trkpt>
      <trkpt lat="44.40395" lon="4.41329">
        <ele>100</ele>
        <time>2018-05-16T08:44:45.1Z</time>
      </trkpt>
      <trkpt lat="44.40395" lon="4.41329">
        <ele>100</ele>
        <time>2018-05-16T08:44:47.1Z</time>
      </trkpt>
      <trkpt lat="44.40395" lon="4.4133">
        <ele>99</ele>
        <time>2018-05-16T08:44:52.1Z</time>
      </trkpt>
      <trkpt lat="44.40395" lon="4.4133">
        <ele>99</ele>
        <time>2018-05-16T08:44:55.1Z</time>
      </trkpt>
      <trkpt lat="44.40396" lon="4.4133">
        <ele>99</ele>
        <time>2018-05-16T08:44:58.1Z</time>
      </trkpt>
      <trkpt lat="44.40396" lon="4.4133">
        <ele>99</ele>
        <time>2018-05-16T08:45:00.1Z</time>
      </trkpt>
      <trkpt lat="44.40396" lon="4.41331">
        <ele>99</ele>
        <time>2018-05-16T08:45:03.1Z</time>
      </trkpt>
      <trkpt lat="44.40396" lon="4.41331">
        <ele>99</ele>
        <time>2018-05-16T08:45:05.1Z</time>
      </trkpt>
      <trkpt lat="44.40396" lon="4.41331">
        <ele>100</ele>
        <time>2018-05-16T08:45:08.1Z</time>
      </trkpt>
      <trkpt lat="44.40397" lon="4.41332">
        <ele>99</ele>
        <time>2018-05-16T08:45:11.1Z</time>
      </trkpt>
      <trkpt lat="44.40397" lon="4.41332">
        <ele>99</ele>
        <time>2018-05-16T08:45:13.1Z</time>
      </trkpt>
      <trkpt lat="44.40397" lon="4.41332">
        <ele>99</ele>
        <time>2018-05-16T08:45:16.1Z</time>
      </trkpt>
      <trkpt lat="44.40397" lon="4.41333">
        <ele>99</ele>
        <time>2018-05-16T08:45:19.1Z</time>
      </trkpt>
      <trkpt lat="44.40397" lon="4.41333">
        <ele>100</ele>
        <time>2018-05-16T08:45:21.1Z</time>
      </trkpt>
      <trkpt lat="44.40398" lon="4.41333">
        <ele>99</ele>
        <time>2018-05-16T08:45:23.1Z</time>
      </trkpt>
      <trkpt lat="44.40398" lon="4.41333">
        <ele>100</ele>
        <time>2018-05-16T08:45:26.1Z</time>
      </trkpt>
      <trkpt lat="44.40398" lon="4.41334">
        <ele>100</ele>
        <time>2018-05-16T08:45:28.1Z</time>
      </trkpt>
      <trkpt lat="44.40398" lon="4.41334">
        <ele>100</ele>
        <time>2018-05-16T08:45:31.1Z</time>
      </trkpt>
      <trkpt lat="44.40398" lon="4.41334">
        <ele>100</ele>
        <time>2018-05-16T08:45:35.1Z</time>
      </trkpt>
      <trkpt lat="44.40398" lon="4.41334">
        <ele>99</ele>
        <time>2018-05-16T08:45:39.1Z</time>
      </trkpt>
      <trkpt lat="44.40398" lon="4.41334">
        <ele>99</ele>
        <time>2018-05-16T08:45:42.1Z</time>
      </trkpt>
      <trkpt lat="44.40399" lon="4.41335">
        <ele>99</ele>
        <time>2018-05-16T08:45:45.1Z</time>
      </trkpt>
      <trkpt lat="44.40399" lon="4.41335">
        <ele>100</ele>
        <time>2018-05-16T08:45:47.1Z</time>
      </trkpt>
      <trkpt lat="44.40398" lon="4.41335">
        <ele>100</ele>
        <time>2018-05-16T08:45:49.1Z</time>
      </trkpt>
      <trkpt lat="44.40398" lon="4.41335">
        <ele>100</ele>
        <time>2018-05-16T08:45:52.1Z</time>
      </trkpt>
      <trkpt lat="44.40398" lon="4.41335">
        <ele>100</ele>
        <time>2018-05-16T08:45:55.1Z</time>
      </trkpt>
      <trkpt lat="44.40398" lon="4.41336">
        <ele>100</ele>
        <time>2018-05-16T08:45:57.1Z</time>
      </trkpt>
      <trkpt lat="44.40398" lon="4.41336">
        <ele>100</ele>
        <time>2018-05-16T08:46:01.1Z</time>
      </trkpt>
      <trkpt lat="44.40398" lon="4.41336">
        <ele>100</ele>
        <time>2018-05-16T08:46:04.1Z</time>
      </trkpt>
      <trkpt lat="44.40398" lon="4.41336">
        <ele>100</ele>
        <time>2018-05-16T08:46:06.1Z</time>
      </trkpt>
      <trkpt lat="44.40398" lon="4.41337">
        <ele>100</ele>
        <time>2018-05-16T08:46:09.1Z</time>
      </trkpt>
      <trkpt lat="44.40398" lon="4.41336">
        <ele>100</ele>
        <time>2018-05-16T08:46:14.1Z</time>
      </trkpt>
      <trkpt lat="44.40398" lon="4.41336">
        <ele>99</ele>
        <time>2018-05-16T08:46:17.1Z</time>
      </trkpt>
      <trkpt lat="44.40397" lon="4.41336">
        <ele>99</ele>
        <time>2018-05-16T08:46:19.1Z</time>
      </trkpt>
      <trkpt lat="44.40397" lon="4.41335">
        <ele>99</ele>
        <time>2018-05-16T08:46:23.1Z</time>
      </trkpt>
      <trkpt lat="44.40397" lon="4.41335">
        <ele>99</ele>
        <time>2018-05-16T08:46:27.1Z</time>
      </trkpt>
      <trkpt lat="44.40396" lon="4.41334">
        <ele>99</ele>
        <time>2018-05-16T08:46:29.1Z</time>
      </trkpt>
      <trkpt lat="44.40396" lon="4.41334">
        <ele>99</ele>
        <time>2018-05-16T08:46:32.1Z</time>
      </trkpt>
      <trkpt lat="44.40396" lon="4.41333">
        <ele>99</ele>
        <time>2018-05-16T08:46:34.1Z</time>
      </trkpt>
      <trkpt lat="44.40396" lon="4.41333">
        <ele>99</ele>
        <time>2018-05-16T08:46:37.1Z</time>
      </trkpt>
      <trkpt lat="44.40396" lon="4.41332">
        <ele>99</ele>
        <time>2018-05-16T08:46:39.1Z</time>
      </trkpt>
      <trkpt lat="44.40396" lon="4.41332">
        <ele>99</ele>
        <time>2018-05-16T08:46:41.1Z</time>
      </trkpt>
      <trkpt lat="44.40397" lon="4.41332">
        <ele>99</ele>
        <time>2018-05-16T08:46:43.1Z</time>
      </trkpt>
      <trkpt lat="44.40397" lon="4.41332">
        <ele>100</ele>
        <time>2018-05-16T08:46:46.1Z</time>
      </trkpt>
      <trkpt lat="44.40397" lon="4.41332">
        <ele>99</ele>
        <time>2018-05-16T08:46:48.1Z</time>
      </trkpt>
      <trkpt lat="44.40397" lon="4.41331">
        <ele>99</ele>
        <time>2018-05-16T08:46:51.1Z</time>
      </trkpt>
      <trkpt lat="44.40397" lon="4.4133">
        <ele>98</ele>
        <time>2018-05-16T08:46:53.1Z</time>
      </trkpt>
      <trkpt lat="44.40397" lon="4.4133">
        <ele>97</ele>
        <time>2018-05-16T08:46:55.1Z</time>
      </trkpt>
      <trkpt lat="44.40397" lon="4.41329">
        <ele>97</ele>
        <time>2018-05-16T08:46:57.1Z</time>
      </trkpt>
      <trkpt lat="44.40398" lon="4.41326">
        <ele>97</ele>
        <time>2018-05-16T08:47:00.1Z</time>
      </trkpt>
      <trkpt lat="44.404" lon="4.41323">
        <ele>97</ele>
        <time>2018-05-16T08:47:02.1Z</time>
      </trkpt>
      <trkpt lat="44.40402" lon="4.41319">
        <ele>97</ele>
        <time>2018-05-16T08:47:05.1Z</time>
      </trkpt>
      <trkpt lat="44.40407" lon="4.41311">
        <ele>97</ele>
        <time>2018-05-16T08:47:08.1Z</time>
      </trkpt>
      <trkpt lat="44.40412" lon="4.41304">
        <ele>98</ele>
        <time>2018-05-16T08:47:10.1Z</time>
      </trkpt>
      <trkpt lat="44.40421" lon="4.41293">
        <ele>98</ele>
        <time>2018-05-16T08:47:12.1Z</time>
      </trkpt>
      <trkpt lat="44.40427" lon="4.41284">
        <ele>99</ele>
        <time>2018-05-16T08:47:14.1Z</time>
      </trkpt>
      <trkpt lat="44.40433" lon="4.41275">
        <ele>99</ele>
        <time>2018-05-16T08:47:17.1Z</time>
      </trkpt>
      <trkpt lat="44.40443" lon="4.41261">
        <ele>99</ele>
        <time>2018-05-16T08:47:19.1Z</time>
      </trkpt>
      <trkpt lat="44.40449" lon="4.4125">
        <ele>99</ele>
        <time>2018-05-16T08:47:22.1Z</time>
      </trkpt>
      <trkpt lat="44.40458" lon="4.41232">
        <ele>99</ele>
        <time>2018-05-16T08:47:24.1Z</time>
      </trkpt>
      <trkpt lat="44.40462" lon="4.41218">
        <ele>99</ele>
        <time>2018-05-16T08:47:27.1Z</time>
      </trkpt>
      <trkpt lat="44.40467" lon="4.41204">
        <ele>99</ele>
        <time>2018-05-16T08:47:29.1Z</time>
      </trkpt>
      <trkpt lat="44.40476" lon="4.41185">
        <ele>99</ele>
        <time>2018-05-16T08:47:31.1Z</time>
      </trkpt>
      <trkpt lat="44.40488" lon="4.41167">
        <ele>100</ele>
        <time>2018-05-16T08:47:34.1Z</time>
      </trkpt>
      <trkpt lat="44.40503" lon="4.41155">
        <ele>101</ele>
        <time>2018-05-16T08:47:38.1Z</time>
      </trkpt>
      <trkpt lat="44.4052" lon="4.41147">
        <ele>101</ele>
        <time>2018-05-16T08:47:40.1Z</time>
      </trkpt>
      <trkpt lat="44.40532" lon="4.41142">
        <ele>101</ele>
        <time>2018-05-16T08:47:42.1Z</time>
      </trkpt>
      <trkpt lat="44.40544" lon="4.41137">
        <ele>102</ele>
        <time>2018-05-16T08:47:44.1Z</time>
      </trkpt>
      <trkpt lat="44.40555" lon="4.41131">
        <ele>104</ele>
        <time>2018-05-16T08:47:47.1Z</time>
      </trkpt>
      <trkpt lat="44.40566" lon="4.41126">
        <ele>105</ele>
        <time>2018-05-16T08:47:49.1Z</time>
      </trkpt>
      <trkpt lat="44.40581" lon="4.41115">
        <ele>105</ele>
        <time>2018-05-16T08:47:52.1Z</time>
      </trkpt>
      <trkpt lat="44.40595" lon="4.41101">
        <ele>103</ele>
        <time>2018-05-16T08:47:55.1Z</time>
      </trkpt>
      <trkpt lat="44.40609" lon="4.41085">
        <ele>102</ele>
        <time>2018-05-16T08:47:58.1Z</time>
      </trkpt>
      <trkpt lat="44.40622" lon="4.41069">
        <ele>102</ele>
        <time>2018-05-16T08:48:01.1Z</time>
      </trkpt>
      <trkpt lat="44.40635" lon="4.41052">
        <ele>102</ele>
        <time>2018-05-16T08:48:04.1Z</time>
      </trkpt>
      <trkpt lat="44.40649" lon="4.41036">
        <ele>103</ele>
        <time>2018-05-16T08:48:07.1Z</time>
      </trkpt>
      <trkpt lat="44.40662" lon="4.41019">
        <ele>102</ele>
        <time>2018-05-16T08:48:10.1Z</time>
      </trkpt>
      <trkpt lat="44.40675" lon="4.41002">
        <ele>102</ele>
        <time>2018-05-16T08:48:13.1Z</time>
      </trkpt>
      <trkpt lat="44.40684" lon="4.40991">
        <ele>102</ele>
        <time>2018-05-16T08:48:15.1Z</time>
      </trkpt>
      <trkpt lat="44.40698" lon="4.40974">
        <ele>102</ele>
        <time>2018-05-16T08:48:17.1Z</time>
      </trkpt>
      <trkpt lat="44.40707" lon="4.40962">
        <ele>102</ele>
        <time>2018-05-16T08:48:19.1Z</time>
      </trkpt>
      <trkpt lat="44.40716" lon="4.4095">
        <ele>102</ele>
        <time>2018-05-16T08:48:21.1Z</time>
      </trkpt>
      <trkpt lat="44.40725" lon="4.40939">
        <ele>102</ele>
        <time>2018-05-16T08:48:23.1Z</time>
      </trkpt>
      <trkpt lat="44.40733" lon="4.40927">
        <ele>102</ele>
        <time>2018-05-16T08:48:25.1Z</time>
      </trkpt>
      <trkpt lat="44.40743" lon="4.40915">
        <ele>102</ele>
        <time>2018-05-16T08:48:27.1Z</time>
      </trkpt>
      <trkpt lat="44.40756" lon="4.40898">
        <ele>103</ele>
        <time>2018-05-16T08:48:30.1Z</time>
      </trkpt>
      <trkpt lat="44.40765" lon="4.40887">
        <ele>102</ele>
        <time>2018-05-16T08:48:33.1Z</time>
      </trkpt>
      <trkpt lat="44.40778" lon="4.40871">
        <ele>102</ele>
        <time>2018-05-16T08:48:35.1Z</time>
      </trkpt>
      <trkpt lat="44.4079" lon="4.40855">
        <ele>101</ele>
        <time>2018-05-16T08:48:39.1Z</time>
      </trkpt>
      <trkpt lat="44.40802" lon="4.40841">
        <ele>101</ele>
        <time>2018-05-16T08:48:42.1Z</time>
      </trkpt>
      <trkpt lat="44.40814" lon="4.40828">
        <ele>101</ele>
        <time>2018-05-16T08:48:44.1Z</time>
      </trkpt>
      <trkpt lat="44.40821" lon="4.40819">
        <ele>101</ele>
        <time>2018-05-16T08:48:47.1Z</time>
      </trkpt>
      <trkpt lat="44.40831" lon="4.40805">
        <ele>101</ele>
        <time>2018-05-16T08:48:49.1Z</time>
      </trkpt>
      <trkpt lat="44.40837" lon="4.40794">
        <ele>102</ele>
        <time>2018-05-16T08:48:51.1Z</time>
      </trkpt>
      <trkpt lat="44.40844" lon="4.40783">
        <ele>102</ele>
        <time>2018-05-16T08:48:54.1Z</time>
      </trkpt>
      <trkpt lat="44.40849" lon="4.40771">
        <ele>103</ele>
        <time>2018-05-16T08:48:56.1Z</time>
      </trkpt>
      <trkpt lat="44.40857" lon="4.40751">
        <ele>104</ele>
        <time>2018-05-16T08:48:58.1Z</time>
      </trkpt>
      <trkpt lat="44.4086" lon="4.40737">
        <ele>103</ele>
        <time>2018-05-16T08:49:01.1Z</time>
      </trkpt>
      <trkpt lat="44.40865" lon="4.40716">
        <ele>103</ele>
        <time>2018-05-16T08:49:03.1Z</time>
      </trkpt>
      <trkpt lat="44.40866" lon="4.40702">
        <ele>103</ele>
        <time>2018-05-16T08:49:06.1Z</time>
      </trkpt>
      <trkpt lat="44.40868" lon="4.4068">
        <ele>102</ele>
        <time>2018-05-16T08:49:08.1Z</time>
      </trkpt>
      <trkpt lat="44.40869" lon="4.40666">
        <ele>101</ele>
        <time>2018-05-16T08:49:10.1Z</time>
      </trkpt>
      <trkpt lat="44.4087" lon="4.40652">
        <ele>101</ele>
        <time>2018-05-16T08:49:12.1Z</time>
      </trkpt>
      <trkpt lat="44.40873" lon="4.40638">
        <ele>102</ele>
        <time>2018-05-16T08:49:15.1Z</time>
      </trkpt>
      <trkpt lat="44.4088" lon="4.4062">
        <ele>102</ele>
        <time>2018-05-16T08:49:17.1Z</time>
      </trkpt>
      <trkpt lat="44.40882" lon="4.40607">
        <ele>102</ele>
        <time>2018-05-16T08:49:19.1Z</time>
      </trkpt>
      <trkpt lat="44.40881" lon="4.40592">
        <ele>102</ele>
        <time>2018-05-16T08:49:21.1Z</time>
      </trkpt>
      <trkpt lat="44.40882" lon="4.40577">
        <ele>102</ele>
        <time>2018-05-16T08:49:23.1Z</time>
      </trkpt>
      <trkpt lat="44.40886" lon="4.40552">
        <ele>101</ele>
        <time>2018-05-16T08:49:27.1Z</time>
      </trkpt>
      <trkpt lat="44.40889" lon="4.40528">
        <ele>101</ele>
        <time>2018-05-16T08:49:29.1Z</time>
      </trkpt>
      <trkpt lat="44.40892" lon="4.40512">
        <ele>101</ele>
        <time>2018-05-16T08:49:31.1Z</time>
      </trkpt>
      <trkpt lat="44.40894" lon="4.40496">
        <ele>100</ele>
        <time>2018-05-16T08:49:34.1Z</time>
      </trkpt>
      <trkpt lat="44.40896" lon="4.4048">
        <ele>101</ele>
        <time>2018-05-16T08:49:36.1Z</time>
      </trkpt>
      <trkpt lat="44.40899" lon="4.40457">
        <ele>101</ele>
        <time>2018-05-16T08:49:38.1Z</time>
      </trkpt>
      <trkpt lat="44.40903" lon="4.40435">
        <ele>101</ele>
        <time>2018-05-16T08:49:41.1Z</time>
      </trkpt>
      <trkpt lat="44.40905" lon="4.40419">
        <ele>100</ele>
        <time>2018-05-16T08:49:43.1Z</time>
      </trkpt>
      <trkpt lat="44.40908" lon="4.40396">
        <ele>100</ele>
        <time>2018-05-16T08:49:46.1Z</time>
      </trkpt>
      <trkpt lat="44.40912" lon="4.40374">
        <ele>101</ele>
        <time>2018-05-16T08:49:49.1Z</time>
      </trkpt>
      <trkpt lat="44.40914" lon="4.40359">
        <ele>100</ele>
        <time>2018-05-16T08:49:51.1Z</time>
      </trkpt>
      <trkpt lat="44.40917" lon="4.40339">
        <ele>100</ele>
        <time>2018-05-16T08:49:54.1Z</time>
      </trkpt>
      <trkpt lat="44.40918" lon="4.40326">
        <ele>100</ele>
        <time>2018-05-16T08:49:57.1Z</time>
      </trkpt>
      <trkpt lat="44.40921" lon="4.40312">
        <ele>100</ele>
        <time>2018-05-16T08:49:59.1Z</time>
      </trkpt>
      <trkpt lat="44.40924" lon="4.4029">
        <ele>100</ele>
        <time>2018-05-16T08:50:01.1Z</time>
      </trkpt>
      <trkpt lat="44.40926" lon="4.40267">
        <ele>100</ele>
        <time>2018-05-16T08:50:04.1Z</time>
      </trkpt>
      <trkpt lat="44.40925" lon="4.40244">
        <ele>100</ele>
        <time>2018-05-16T08:50:07.1Z</time>
      </trkpt>
      <trkpt lat="44.40922" lon="4.40221">
        <ele>101</ele>
        <time>2018-05-16T08:50:10.1Z</time>
      </trkpt>
      <trkpt lat="44.4092" lon="4.40206">
        <ele>101</ele>
        <time>2018-05-16T08:50:12.1Z</time>
      </trkpt>
      <trkpt lat="44.40916" lon="4.40184">
        <ele>100</ele>
        <time>2018-05-16T08:50:15.1Z</time>
      </trkpt>
      <trkpt lat="44.40914" lon="4.40169">
        <ele>100</ele>
        <time>2018-05-16T08:50:17.1Z</time>
      </trkpt>
      <trkpt lat="44.4091" lon="4.40147">
        <ele>101</ele>
        <time>2018-05-16T08:50:20.1Z</time>
      </trkpt>
      <trkpt lat="44.40908" lon="4.40133">
        <ele>101</ele>
        <time>2018-05-16T08:50:23.1Z</time>
      </trkpt>
      <trkpt lat="44.40905" lon="4.40111">
        <ele>101</ele>
        <time>2018-05-16T08:50:25.1Z</time>
      </trkpt>
      <trkpt lat="44.40903" lon="4.40097">
        <ele>101</ele>
        <time>2018-05-16T08:50:27.1Z</time>
      </trkpt>
      <trkpt lat="44.409" lon="4.40077">
        <ele>101</ele>
        <time>2018-05-16T08:50:30.1Z</time>
      </trkpt>
      <trkpt lat="44.40898" lon="4.40065">
        <ele>101</ele>
        <time>2018-05-16T08:50:32.1Z</time>
      </trkpt>
      <trkpt lat="44.40895" lon="4.40049">
        <ele>101</ele>
        <time>2018-05-16T08:50:35.1Z</time>
      </trkpt>
      <trkpt lat="44.40894" lon="4.40038">
        <ele>101</ele>
        <time>2018-05-16T08:50:37.1Z</time>
      </trkpt>
      <trkpt lat="44.40891" lon="4.4002">
        <ele>102</ele>
        <time>2018-05-16T08:50:40.1Z</time>
      </trkpt>
      <trkpt lat="44.40888" lon="4.40003">
        <ele>102</ele>
        <time>2018-05-16T08:50:43.1Z</time>
      </trkpt>
      <trkpt lat="44.40886" lon="4.39992">
        <ele>103</ele>
        <time>2018-05-16T08:50:46.1Z</time>
      </trkpt>
      <trkpt lat="44.40883" lon="4.39976">
        <ele>103</ele>
        <time>2018-05-16T08:50:48.1Z</time>
      </trkpt>
      <trkpt lat="44.40881" lon="4.39964">
        <ele>103</ele>
        <time>2018-05-16T08:50:50.1Z</time>
      </trkpt>
      <trkpt lat="44.40879" lon="4.39953">
        <ele>104</ele>
        <time>2018-05-16T08:50:53.1Z</time>
      </trkpt>
      <trkpt lat="44.40876" lon="4.39935">
        <ele>104</ele>
        <time>2018-05-16T08:50:55.1Z</time>
      </trkpt>
      <trkpt lat="44.40874" lon="4.39924">
        <ele>103</ele>
        <time>2018-05-16T08:50:57.1Z</time>
      </trkpt>
      <trkpt lat="44.40872" lon="4.39913">
        <ele>103</ele>
        <time>2018-05-16T08:51:00.1Z</time>
      </trkpt>
      <trkpt lat="44.4087" lon="4.39896">
        <ele>103</ele>
        <time>2018-05-16T08:51:03.1Z</time>
      </trkpt>
      <trkpt lat="44.40867" lon="4.3988">
        <ele>103</ele>
        <time>2018-05-16T08:51:05.1Z</time>
      </trkpt>
      <trkpt lat="44.40864" lon="4.39864">
        <ele>103</ele>
        <time>2018-05-16T08:51:08.1Z</time>
      </trkpt>
      <trkpt lat="44.40863" lon="4.3985">
        <ele>104</ele>
        <time>2018-05-16T08:51:11.1Z</time>
      </trkpt>
      <trkpt lat="44.40864" lon="4.39834">
        <ele>104</ele>
        <time>2018-05-16T08:51:14.1Z</time>
      </trkpt>
      <trkpt lat="44.40864" lon="4.39823">
        <ele>104</ele>
        <time>2018-05-16T08:51:16.1Z</time>
      </trkpt>
      <trkpt lat="44.40863" lon="4.39813">
        <ele>105</ele>
        <time>2018-05-16T08:51:18.1Z</time>
      </trkpt>
      <trkpt lat="44.40863" lon="4.39802">
        <ele>105</ele>
        <time>2018-05-16T08:51:21.1Z</time>
      </trkpt>
      <trkpt lat="44.40862" lon="4.39787">
        <ele>105</ele>
        <time>2018-05-16T08:51:23.1Z</time>
      </trkpt>
      <trkpt lat="44.40862" lon="4.39778">
        <ele>106</ele>
        <time>2018-05-16T08:51:25.1Z</time>
      </trkpt>
      <trkpt lat="44.40862" lon="4.39763">
        <ele>107</ele>
        <time>2018-05-16T08:51:28.1Z</time>
      </trkpt>
      <trkpt lat="44.40861" lon="4.3975">
        <ele>107</ele>
        <time>2018-05-16T08:51:31.1Z</time>
      </trkpt>
      <trkpt lat="44.40861" lon="4.39743">
        <ele>107</ele>
        <time>2018-05-16T08:51:33.1Z</time>
      </trkpt>
      <trkpt lat="44.40866" lon="4.39736">
        <ele>108</ele>
        <time>2018-05-16T08:51:36.1Z</time>
      </trkpt>
      <trkpt lat="44.4087" lon="4.39739">
        <ele>108</ele>
        <time>2018-05-16T08:51:39.1Z</time>
      </trkpt>
      <trkpt lat="44.40881" lon="4.39747">
        <ele>109</ele>
        <time>2018-05-16T08:51:41.1Z</time>
      </trkpt>
      <trkpt lat="44.40888" lon="4.39754">
        <ele>109</ele>
        <time>2018-05-16T08:51:43.1Z</time>
      </trkpt>
      <trkpt lat="44.40895" lon="4.39758">
        <ele>110</ele>
        <time>2018-05-16T08:51:45.1Z</time>
      </trkpt>
      <trkpt lat="44.40903" lon="4.39762">
        <ele>110</ele>
        <time>2018-05-16T08:51:48.1Z</time>
      </trkpt>
      <trkpt lat="44.40913" lon="4.39769">
        <ele>110</ele>
        <time>2018-05-16T08:51:50.1Z</time>
      </trkpt>
      <trkpt lat="44.4092" lon="4.39773">
        <ele>109</ele>
        <time>2018-05-16T08:51:52.1Z</time>
      </trkpt>
      <trkpt lat="44.40932" lon="4.39778">
        <ele>110</ele>
        <time>2018-05-16T08:51:55.1Z</time>
      </trkpt>
      <trkpt lat="44.40939" lon="4.39781">
        <ele>110</ele>
        <time>2018-05-16T08:51:57.1Z</time>
      </trkpt>
      <trkpt lat="44.40952" lon="4.39785">
        <ele>111</ele>
        <time>2018-05-16T08:52:00.1Z</time>
      </trkpt>
      <trkpt lat="44.40963" lon="4.39786">
        <ele>111</ele>
        <time>2018-05-16T08:52:03.1Z</time>
      </trkpt>
      <trkpt lat="44.40976" lon="4.39788">
        <ele>111</ele>
        <time>2018-05-16T08:52:06.1Z</time>
      </trkpt>
      <trkpt lat="44.40984" lon="4.39789">
        <ele>111</ele>
        <time>2018-05-16T08:52:08.1Z</time>
      </trkpt>
      <trkpt lat="44.40992" lon="4.39789">
        <ele>112</ele>
        <time>2018-05-16T08:52:10.1Z</time>
      </trkpt>
      <trkpt lat="44.41005" lon="4.3979">
        <ele>112</ele>
        <time>2018-05-16T08:52:13.1Z</time>
      </trkpt>
      <trkpt lat="44.41013" lon="4.39791">
        <ele>113</ele>
        <time>2018-05-16T08:52:15.1Z</time>
      </trkpt>
      <trkpt lat="44.41021" lon="4.39792">
        <ele>113</ele>
        <time>2018-05-16T08:52:17.1Z</time>
      </trkpt>
      <trkpt lat="44.41029" lon="4.39793">
        <ele>112</ele>
        <time>2018-05-16T08:52:19.1Z</time>
      </trkpt>
      <trkpt lat="44.4104" lon="4.39795">
        <ele>112</ele>
        <time>2018-05-16T08:52:22.1Z</time>
      </trkpt>
      <trkpt lat="44.41047" lon="4.39796">
        <ele>112</ele>
        <time>2018-05-16T08:52:24.1Z</time>
      </trkpt>
      <trkpt lat="44.41058" lon="4.39795">
        <ele>113</ele>
        <time>2018-05-16T08:52:27.1Z</time>
      </trkpt>
      <trkpt lat="44.41062" lon="4.39787">
        <ele>113</ele>
        <time>2018-05-16T08:52:29.1Z</time>
      </trkpt>
      <trkpt lat="44.41064" lon="4.39775">
        <ele>112</ele>
        <time>2018-05-16T08:52:32.1Z</time>
      </trkpt>
      <trkpt lat="44.41065" lon="4.39766">
        <ele>112</ele>
        <time>2018-05-16T08:52:34.1Z</time>
      </trkpt>
      <trkpt lat="44.41067" lon="4.39752">
        <ele>112</ele>
        <time>2018-05-16T08:52:37.1Z</time>
      </trkpt>
      <trkpt lat="44.41068" lon="4.39744">
        <ele>112</ele>
        <time>2018-05-16T08:52:39.1Z</time>
      </trkpt>
      <trkpt lat="44.41067" lon="4.39731">
        <ele>112</ele>
        <time>2018-05-16T08:52:42.1Z</time>
      </trkpt>
      <trkpt lat="44.41066" lon="4.3972">
        <ele>112</ele>
        <time>2018-05-16T08:52:44.1Z</time>
      </trkpt>
      <trkpt lat="44.41063" lon="4.39709">
        <ele>112</ele>
        <time>2018-05-16T08:52:46.1Z</time>
      </trkpt>
      <trkpt lat="44.41061" lon="4.39698">
        <ele>112</ele>
        <time>2018-05-16T08:52:48.1Z</time>
      </trkpt>
      <trkpt lat="44.41058" lon="4.3968">
        <ele>113</ele>
        <time>2018-05-16T08:52:51.1Z</time>
      </trkpt>
      <trkpt lat="44.41055" lon="4.39656">
        <ele>112</ele>
        <time>2018-05-16T08:52:54.1Z</time>
      </trkpt>
      <trkpt lat="44.41053" lon="4.39641">
        <ele>112</ele>
        <time>2018-05-16T08:52:56.1Z</time>
      </trkpt>
      <trkpt lat="44.41052" lon="4.39628">
        <ele>111</ele>
        <time>2018-05-16T08:52:59.1Z</time>
      </trkpt>
      <trkpt lat="44.4105" lon="4.39608">
        <ele>111</ele>
        <time>2018-05-16T08:53:01.1Z</time>
      </trkpt>
      <trkpt lat="44.41048" lon="4.39594">
        <ele>110</ele>
        <time>2018-05-16T08:53:03.1Z</time>
      </trkpt>
      <trkpt lat="44.41047" lon="4.39574">
        <ele>110</ele>
        <time>2018-05-16T08:53:06.1Z</time>
      </trkpt>
      <trkpt lat="44.41047" lon="4.39561">
        <ele>110</ele>
        <time>2018-05-16T08:53:08.1Z</time>
      </trkpt>
      <trkpt lat="44.41048" lon="4.39542">
        <ele>109</ele>
        <time>2018-05-16T08:53:11.1Z</time>
      </trkpt>
      <trkpt lat="44.41048" lon="4.39532">
        <ele>110</ele>
        <time>2018-05-16T08:53:13.1Z</time>
      </trkpt>
      <trkpt lat="44.4105" lon="4.39516">
        <ele>110</ele>
        <time>2018-05-16T08:53:16.1Z</time>
      </trkpt>
      <trkpt lat="44.41052" lon="4.39505">
        <ele>110</ele>
        <time>2018-05-16T08:53:18.1Z</time>
      </trkpt>
      <trkpt lat="44.41055" lon="4.39495">
        <ele>111</ele>
        <time>2018-05-16T08:53:21.1Z</time>
      </trkpt>
      <trkpt lat="44.41058" lon="4.39489">
        <ele>110</ele>
        <time>2018-05-16T08:53:23.1Z</time>
      </trkpt>
      <trkpt lat="44.41059" lon="4.39485">
        <ele>110</ele>
        <time>2018-05-16T08:53:25.1Z</time>
      </trkpt>
      <trkpt lat="44.4106" lon="4.39485">
        <ele>110</ele>
        <time>2018-05-16T08:53:28.1Z</time>
      </trkpt>
      <trkpt lat="44.4106" lon="4.39484">
        <ele>110</ele>
        <time>2018-05-16T08:53:31.1Z</time>
      </trkpt>
      <trkpt lat="44.4106" lon="4.39484">
        <ele>110</ele>
        <time>2018-05-16T08:53:33.1Z</time>
      </trkpt>
      <trkpt lat="44.4106" lon="4.39484">
        <ele>110</ele>
        <time>2018-05-16T08:53:37.1Z</time>
      </trkpt>
      <trkpt lat="44.4106" lon="4.39483">
        <ele>110</ele>
        <time>2018-05-16T08:53:43.1Z</time>
      </trkpt>
      <trkpt lat="44.41061" lon="4.39483">
        <ele>110</ele>
        <time>2018-05-16T08:53:46.1Z</time>
      </trkpt>
      <trkpt lat="44.41061" lon="4.39483">
        <ele>110</ele>
        <time>2018-05-16T08:53:50.1Z</time>
      </trkpt>
      <trkpt lat="44.41061" lon="4.39483">
        <ele>110</ele>
        <time>2018-05-16T08:53:53.1Z</time>
      </trkpt>
      <trkpt lat="44.41062" lon="4.39482">
        <ele>110</ele>
        <time>2018-05-16T08:53:55.1Z</time>
      </trkpt>
      <trkpt lat="44.41062" lon="4.39482">
        <ele>110</ele>
        <time>2018-05-16T08:54:00.1Z</time>
      </trkpt>
      <trkpt lat="44.41063" lon="4.3948">
        <ele>110</ele>
        <time>2018-05-16T08:54:03.1Z</time>
      </trkpt>
      <trkpt lat="44.41064" lon="4.39477">
        <ele>109</ele>
        <time>2018-05-16T08:54:05.1Z</time>
      </trkpt>
      <trkpt lat="44.41066" lon="4.39473">
        <ele>110</ele>
        <time>2018-05-16T08:54:08.1Z</time>
      </trkpt>
      <trkpt lat="44.41069" lon="4.39466">
        <ele>110</ele>
        <time>2018-05-16T08:54:10.1Z</time>
      </trkpt>
      <trkpt lat="44.41072" lon="4.3946">
        <ele>110</ele>
        <time>2018-05-16T08:54:12.1Z</time>
      </trkpt>
      <trkpt lat="44.41076" lon="4.39448">
        <ele>111</ele>
        <time>2018-05-16T08:54:15.1Z</time>
      </trkpt>
      <trkpt lat="44.41079" lon="4.39435">
        <ele>110</ele>
        <time>2018-05-16T08:54:18.1Z</time>
      </trkpt>
      <trkpt lat="44.41082" lon="4.39426">
        <ele>110</ele>
        <time>2018-05-16T08:54:20.1Z</time>
      </trkpt>
      <trkpt lat="44.41087" lon="4.39411">
        <ele>110</ele>
        <time>2018-05-16T08:54:23.1Z</time>
      </trkpt>
      <trkpt lat="44.4109" lon="4.39401">
        <ele>110</ele>
        <time>2018-05-16T08:54:25.1Z</time>
      </trkpt>
      <trkpt lat="44.41095" lon="4.39385">
        <ele>110</ele>
        <time>2018-05-16T08:54:28.1Z</time>
      </trkpt>
      <trkpt lat="44.41097" lon="4.39373">
        <ele>110</ele>
        <time>2018-05-16T08:54:30.1Z</time>
      </trkpt>
      <trkpt lat="44.41099" lon="4.39359">
        <ele>110</ele>
        <time>2018-05-16T08:54:32.1Z</time>
      </trkpt>
      <trkpt lat="44.411" lon="4.39344">
        <ele>109</ele>
        <time>2018-05-16T08:54:34.1Z</time>
      </trkpt>
      <trkpt lat="44.41098" lon="4.39317">
        <ele>109</ele>
        <time>2018-05-16T08:54:37.1Z</time>
      </trkpt>
      <trkpt lat="44.41098" lon="4.39288">
        <ele>109</ele>
        <time>2018-05-16T08:54:40.1Z</time>
      </trkpt>
      <trkpt lat="44.411" lon="4.39268">
        <ele>109</ele>
        <time>2018-05-16T08:54:42.1Z</time>
      </trkpt>
      <trkpt lat="44.41105" lon="4.39235">
        <ele>108</ele>
        <time>2018-05-16T08:54:45.1Z</time>
      </trkpt>
      <trkpt lat="44.41107" lon="4.39201">
        <ele>108</ele>
        <time>2018-05-16T08:54:48.1Z</time>
      </trkpt>
      <trkpt lat="44.41105" lon="4.39167">
        <ele>107</ele>
        <time>2018-05-16T08:54:51.1Z</time>
      </trkpt>
      <trkpt lat="44.411" lon="4.39145">
        <ele>106</ele>
        <time>2018-05-16T08:54:53.1Z</time>
      </trkpt>
      <trkpt lat="44.41094" lon="4.39123">
        <ele>105</ele>
        <time>2018-05-16T08:54:56.1Z</time>
      </trkpt>
      <trkpt lat="44.41092" lon="4.39103">
        <ele>104</ele>
        <time>2018-05-16T08:54:58.1Z</time>
      </trkpt>
      <trkpt lat="44.41105" lon="4.39088">
        <ele>104</ele>
        <time>2018-05-16T08:55:00.1Z</time>
      </trkpt>
      <trkpt lat="44.41122" lon="4.39078">
        <ele>103</ele>
        <time>2018-05-16T08:55:03.1Z</time>
      </trkpt>
      <trkpt lat="44.41132" lon="4.39069">
        <ele>103</ele>
        <time>2018-05-16T08:55:05.1Z</time>
      </trkpt>
      <trkpt lat="44.41148" lon="4.39056">
        <ele>103</ele>
        <time>2018-05-16T08:55:08.1Z</time>
      </trkpt>
      <trkpt lat="44.41156" lon="4.39044">
        <ele>102</ele>
        <time>2018-05-16T08:55:10.1Z</time>
      </trkpt>
      <trkpt lat="44.41168" lon="4.39022">
        <ele>101</ele>
        <time>2018-05-16T08:55:13.1Z</time>
      </trkpt>
      <trkpt lat="44.41177" lon="4.38998">
        <ele>101</ele>
        <time>2018-05-16T08:55:16.1Z</time>
      </trkpt>
      <trkpt lat="44.41183" lon="4.38972">
        <ele>102</ele>
        <time>2018-05-16T08:55:19.1Z</time>
      </trkpt>
      <trkpt lat="44.41188" lon="4.38956">
        <ele>102</ele>
        <time>2018-05-16T08:55:21.1Z</time>
      </trkpt>
      <trkpt lat="44.41196" lon="4.3893">
        <ele>102</ele>
        <time>2018-05-16T08:55:24.1Z</time>
      </trkpt>
      <trkpt lat="44.41204" lon="4.38904">
        <ele>102</ele>
        <time>2018-05-16T08:55:27.1Z</time>
      </trkpt>
      <trkpt lat="44.4121" lon="4.38886">
        <ele>102</ele>
        <time>2018-05-16T08:55:29.1Z</time>
      </trkpt>
      <trkpt lat="44.41216" lon="4.38869">
        <ele>102</ele>
        <time>2018-05-16T08:55:32.1Z</time>
      </trkpt>
      <trkpt lat="44.41224" lon="4.38842">
        <ele>102</ele>
        <time>2018-05-16T08:55:34.1Z</time>
      </trkpt>
      <trkpt lat="44.41233" lon="4.38818">
        <ele>102</ele>
        <time>2018-05-16T08:55:37.1Z</time>
      </trkpt>
      <trkpt lat="44.41238" lon="4.38802">
        <ele>102</ele>
        <time>2018-05-16T08:55:39.1Z</time>
      </trkpt>
      <trkpt lat="44.41246" lon="4.3878">
        <ele>102</ele>
        <time>2018-05-16T08:55:42.1Z</time>
      </trkpt>
      <trkpt lat="44.41251" lon="4.38765">
        <ele>102</ele>
        <time>2018-05-16T08:55:44.1Z</time>
      </trkpt>
      <trkpt lat="44.41257" lon="4.38752">
        <ele>101</ele>
        <time>2018-05-16T08:55:46.1Z</time>
      </trkpt>
      <trkpt lat="44.4126" lon="4.38737">
        <ele>101</ele>
        <time>2018-05-16T08:55:48.1Z</time>
      </trkpt>
      <trkpt lat="44.4126" lon="4.38723">
        <ele>101</ele>
        <time>2018-05-16T08:55:50.1Z</time>
      </trkpt>
      <trkpt lat="44.41261" lon="4.38708">
        <ele>101</ele>
        <time>2018-05-16T08:55:53.1Z</time>
      </trkpt>
      <trkpt lat="44.41263" lon="4.38687">
        <ele>101</ele>
        <time>2018-05-16T08:55:55.1Z</time>
      </trkpt>
      <trkpt lat="44.41268" lon="4.38664">
        <ele>101</ele>
        <time>2018-05-16T08:55:58.1Z</time>
      </trkpt>
      <trkpt lat="44.41273" lon="4.38642">
        <ele>101</ele>
        <time>2018-05-16T08:56:01.1Z</time>
      </trkpt>
      <trkpt lat="44.41277" lon="4.38625">
        <ele>101</ele>
        <time>2018-05-16T08:56:03.1Z</time>
      </trkpt>
      <trkpt lat="44.41284" lon="4.38601">
        <ele>100</ele>
        <time>2018-05-16T08:56:06.1Z</time>
      </trkpt>
      <trkpt lat="44.41291" lon="4.38578">
        <ele>100</ele>
        <time>2018-05-16T08:56:09.1Z</time>
      </trkpt>
      <trkpt lat="44.41297" lon="4.38557">
        <ele>100</ele>
        <time>2018-05-16T08:56:12.1Z</time>
      </trkpt>
      <trkpt lat="44.41301" lon="4.38544">
        <ele>100</ele>
        <time>2018-05-16T08:56:15.1Z</time>
      </trkpt>
      <trkpt lat="44.41308" lon="4.38526">
        <ele>100</ele>
        <time>2018-05-16T08:56:17.1Z</time>
      </trkpt>
      <trkpt lat="44.41312" lon="4.38515">
        <ele>100</ele>
        <time>2018-05-16T08:56:19.1Z</time>
      </trkpt>
      <trkpt lat="44.41317" lon="4.38503">
        <ele>100</ele>
        <time>2018-05-16T08:56:21.1Z</time>
      </trkpt>
      <trkpt lat="44.41321" lon="4.38491">
        <ele>100</ele>
        <time>2018-05-16T08:56:23.1Z</time>
      </trkpt>
      <trkpt lat="44.41328" lon="4.38476">
        <ele>100</ele>
        <time>2018-05-16T08:56:26.1Z</time>
      </trkpt>
      <trkpt lat="44.41332" lon="4.38461">
        <ele>99</ele>
        <time>2018-05-16T08:56:29.1Z</time>
      </trkpt>
      <trkpt lat="44.41334" lon="4.38451">
        <ele>99</ele>
        <time>2018-05-16T08:56:31.1Z</time>
      </trkpt>
      <trkpt lat="44.41335" lon="4.38438">
        <ele>99</ele>
        <time>2018-05-16T08:56:34.1Z</time>
      </trkpt>
      <trkpt lat="44.41334" lon="4.38427">
        <ele>99</ele>
        <time>2018-05-16T08:56:37.1Z</time>
      </trkpt>
      <trkpt lat="44.41334" lon="4.38407">
        <ele>99</ele>
        <time>2018-05-16T08:56:39.1Z</time>
      </trkpt>
      <trkpt lat="44.41335" lon="4.38385">
        <ele>99</ele>
        <time>2018-05-16T08:56:42.1Z</time>
      </trkpt>
      <trkpt lat="44.41337" lon="4.38365">
        <ele>99</ele>
        <time>2018-05-16T08:56:45.1Z</time>
      </trkpt>
      <trkpt lat="44.41341" lon="4.38352">
        <ele>99</ele>
        <time>2018-05-16T08:56:47.1Z</time>
      </trkpt>
      <trkpt lat="44.41346" lon="4.3834">
        <ele>99</ele>
        <time>2018-05-16T08:56:49.1Z</time>
      </trkpt>
      <trkpt lat="44.41352" lon="4.38329">
        <ele>99</ele>
        <time>2018-05-16T08:56:51.1Z</time>
      </trkpt>
      <trkpt lat="44.41357" lon="4.38317">
        <ele>99</ele>
        <time>2018-05-16T08:56:53.1Z</time>
      </trkpt>
      <trkpt lat="44.41361" lon="4.38305">
        <ele>99</ele>
        <time>2018-05-16T08:56:55.1Z</time>
      </trkpt>
      <trkpt lat="44.41366" lon="4.38294">
        <ele>99</ele>
        <time>2018-05-16T08:56:58.1Z</time>
      </trkpt>
      <trkpt lat="44.41373" lon="4.38275">
        <ele>98</ele>
        <time>2018-05-16T08:57:00.1Z</time>
      </trkpt>
      <trkpt lat="44.41377" lon="4.38262">
        <ele>98</ele>
        <time>2018-05-16T08:57:02.1Z</time>
      </trkpt>
      <trkpt lat="44.41383" lon="4.38244">
        <ele>98</ele>
        <time>2018-05-16T08:57:05.1Z</time>
      </trkpt>
      <trkpt lat="44.41388" lon="4.38227">
        <ele>98</ele>
        <time>2018-05-16T08:57:08.1Z</time>
      </trkpt>
      <trkpt lat="44.41392" lon="4.38214">
        <ele>98</ele>
        <time>2018-05-16T08:57:10.1Z</time>
      </trkpt>
      <trkpt lat="44.41397" lon="4.38196">
        <ele>98</ele>
        <time>2018-05-16T08:57:14.1Z</time>
      </trkpt>
      <trkpt lat="44.41402" lon="4.38177">
        <ele>98</ele>
        <time>2018-05-16T08:57:16.1Z</time>
      </trkpt>
      <trkpt lat="44.41407" lon="4.38158">
        <ele>98</ele>
        <time>2018-05-16T08:57:19.1Z</time>
      </trkpt>
      <trkpt lat="44.4141" lon="4.38145">
        <ele>98</ele>
        <time>2018-05-16T08:57:21.1Z</time>
      </trkpt>
      <trkpt lat="44.41415" lon="4.38126">
        <ele>98</ele>
        <time>2018-05-16T08:57:24.1Z</time>
      </trkpt>
      <trkpt lat="44.41419" lon="4.38113">
        <ele>99</ele>
        <time>2018-05-16T08:57:26.1Z</time>
      </trkpt>
      <trkpt lat="44.41425" lon="4.38093">
        <ele>99</ele>
        <time>2018-05-16T08:57:29.1Z</time>
      </trkpt>
      <trkpt lat="44.41429" lon="4.3808">
        <ele>99</ele>
        <time>2018-05-16T08:57:31.1Z</time>
      </trkpt>
      <trkpt lat="44.41433" lon="4.38068">
        <ele>99</ele>
        <time>2018-05-16T08:57:33.1Z</time>
      </trkpt>
      <trkpt lat="44.41441" lon="4.38051">
        <ele>100</ele>
        <time>2018-05-16T08:57:36.1Z</time>
      </trkpt>
      <trkpt lat="44.41445" lon="4.38039">
        <ele>100</ele>
        <time>2018-05-16T08:57:38.1Z</time>
      </trkpt>
      <trkpt lat="44.41452" lon="4.38023">
        <ele>100</ele>
        <time>2018-05-16T08:57:41.1Z</time>
      </trkpt>
      <trkpt lat="44.41456" lon="4.38012">
        <ele>100</ele>
        <time>2018-05-16T08:57:43.1Z</time>
      </trkpt>
      <trkpt lat="44.41462" lon="4.37995">
        <ele>100</ele>
        <time>2018-05-16T08:57:46.1Z</time>
      </trkpt>
      <trkpt lat="44.41466" lon="4.37984">
        <ele>100</ele>
        <time>2018-05-16T08:57:48.1Z</time>
      </trkpt>
      <trkpt lat="44.41472" lon="4.37966">
        <ele>101</ele>
        <time>2018-05-16T08:57:51.1Z</time>
      </trkpt>
      <trkpt lat="44.41477" lon="4.37947">
        <ele>100</ele>
        <time>2018-05-16T08:57:54.1Z</time>
      </trkpt>
      <trkpt lat="44.41483" lon="4.37927">
        <ele>101</ele>
        <time>2018-05-16T08:57:57.1Z</time>
      </trkpt>
      <trkpt lat="44.41487" lon="4.37915">
        <ele>101</ele>
        <time>2018-05-16T08:57:59.1Z</time>
      </trkpt>
      <trkpt lat="44.41492" lon="4.37895">
        <ele>101</ele>
        <time>2018-05-16T08:58:02.1Z</time>
      </trkpt>
      <trkpt lat="44.41496" lon="4.37883">
        <ele>101</ele>
        <time>2018-05-16T08:58:04.1Z</time>
      </trkpt>
      <trkpt lat="44.41499" lon="4.37869">
        <ele>101</ele>
        <time>2018-05-16T08:58:06.1Z</time>
      </trkpt>
      <trkpt lat="44.41505" lon="4.37849">
        <ele>102</ele>
        <time>2018-05-16T08:58:09.1Z</time>
      </trkpt>
      <trkpt lat="44.4151" lon="4.37829">
        <ele>102</ele>
        <time>2018-05-16T08:58:12.1Z</time>
      </trkpt>
      <trkpt lat="44.41512" lon="4.37816">
        <ele>102</ele>
        <time>2018-05-16T08:58:14.1Z</time>
      </trkpt>
      <trkpt lat="44.41515" lon="4.37798">
        <ele>102</ele>
        <time>2018-05-16T08:58:17.1Z</time>
      </trkpt>
      <trkpt lat="44.41519" lon="4.37778">
        <ele>103</ele>
        <time>2018-05-16T08:58:20.1Z</time>
      </trkpt>
      <trkpt lat="44.41523" lon="4.37758">
        <ele>103</ele>
        <time>2018-05-16T08:58:23.1Z</time>
      </trkpt>
      <trkpt lat="44.41526" lon="4.37744">
        <ele>103</ele>
        <time>2018-05-16T08:58:25.1Z</time>
      </trkpt>
      <trkpt lat="44.4153" lon="4.37731">
        <ele>103</ele>
        <time>2018-05-16T08:58:27.1Z</time>
      </trkpt>
      <trkpt lat="44.41536" lon="4.37712">
        <ele>103</ele>
        <time>2018-05-16T08:58:30.1Z</time>
      </trkpt>
      <trkpt lat="44.41542" lon="4.37694">
        <ele>103</ele>
        <time>2018-05-16T08:58:33.1Z</time>
      </trkpt>
      <trkpt lat="44.41548" lon="4.37675">
        <ele>103</ele>
        <time>2018-05-16T08:58:36.1Z</time>
      </trkpt>
      <trkpt lat="44.41552" lon="4.37663">
        <ele>103</ele>
        <time>2018-05-16T08:58:39.1Z</time>
      </trkpt>
      <trkpt lat="44.41559" lon="4.37643">
        <ele>104</ele>
        <time>2018-05-16T08:58:41.1Z</time>
      </trkpt>
      <trkpt lat="44.41563" lon="4.3763">
        <ele>104</ele>
        <time>2018-05-16T08:58:43.1Z</time>
      </trkpt>
      <trkpt lat="44.41568" lon="4.37616">
        <ele>104</ele>
        <time>2018-05-16T08:58:45.1Z</time>
      </trkpt>
      <trkpt lat="44.41573" lon="4.37602">
        <ele>105</ele>
        <time>2018-05-16T08:58:47.1Z</time>
      </trkpt>
      <trkpt lat="44.41578" lon="4.37588">
        <ele>105</ele>
        <time>2018-05-16T08:58:49.1Z</time>
      </trkpt>
      <trkpt lat="44.41584" lon="4.37576">
        <ele>105</ele>
        <time>2018-05-16T08:58:51.1Z</time>
      </trkpt>
      <trkpt lat="44.41591" lon="4.37565">
        <ele>105</ele>
        <time>2018-05-16T08:58:53.1Z</time>
      </trkpt>
      <trkpt lat="44.41598" lon="4.37554">
        <ele>105</ele>
        <time>2018-05-16T08:58:55.1Z</time>
      </trkpt>
      <trkpt lat="44.41605" lon="4.37542">
        <ele>105</ele>
        <time>2018-05-16T08:58:58.1Z</time>
      </trkpt>
      <trkpt lat="44.41616" lon="4.37526">
        <ele>104</ele>
        <time>2018-05-16T08:59:00.1Z</time>
      </trkpt>
      <trkpt lat="44.41623" lon="4.37515">
        <ele>105</ele>
        <time>2018-05-16T08:59:02.1Z</time>
      </trkpt>
      <trkpt lat="44.4163" lon="4.37503">
        <ele>105</ele>
        <time>2018-05-16T08:59:04.1Z</time>
      </trkpt>
      <trkpt lat="44.41637" lon="4.37492">
        <ele>105</ele>
        <time>2018-05-16T08:59:06.1Z</time>
      </trkpt>
      <trkpt lat="44.41645" lon="4.37481">
        <ele>105</ele>
        <time>2018-05-16T08:59:08.1Z</time>
      </trkpt>
      <trkpt lat="44.41652" lon="4.37471">
        <ele>104</ele>
        <time>2018-05-16T08:59:10.1Z</time>
      </trkpt>
      <trkpt lat="44.4166" lon="4.3746">
        <ele>104</ele>
        <time>2018-05-16T08:59:12.1Z</time>
      </trkpt>
      <trkpt lat="44.41667" lon="4.3745">
        <ele>105</ele>
        <time>2018-05-16T08:59:15.1Z</time>
      </trkpt>
      <trkpt lat="44.41678" lon="4.37437">
        <ele>106</ele>
        <time>2018-05-16T08:59:17.1Z</time>
      </trkpt>
      <trkpt lat="44.41689" lon="4.37424">
        <ele>107</ele>
        <time>2018-05-16T08:59:20.1Z</time>
      </trkpt>
      <trkpt lat="44.417" lon="4.37412">
        <ele>107</ele>
        <time>2018-05-16T08:59:23.1Z</time>
      </trkpt>
      <trkpt lat="44.41706" lon="4.37404">
        <ele>107</ele>
        <time>2018-05-16T08:59:25.1Z</time>
      </trkpt>
      <trkpt lat="44.41713" lon="4.37396">
        <ele>108</ele>
        <time>2018-05-16T08:59:27.1Z</time>
      </trkpt>
      <trkpt lat="44.41719" lon="4.37387">
        <ele>108</ele>
        <time>2018-05-16T08:59:29.1Z</time>
      </trkpt>
      <trkpt lat="44.41725" lon="4.37379">
        <ele>108</ele>
        <time>2018-05-16T08:59:31.1Z</time>
      </trkpt>
      <trkpt lat="44.41734" lon="4.37366">
        <ele>108</ele>
        <time>2018-05-16T08:59:34.1Z</time>
      </trkpt>
      <trkpt lat="44.41743" lon="4.37355">
        <ele>108</ele>
        <time>2018-05-16T08:59:37.1Z</time>
      </trkpt>
      <trkpt lat="44.41749" lon="4.37347">
        <ele>108</ele>
        <time>2018-05-16T08:59:39.1Z</time>
      </trkpt>
      <trkpt lat="44.41754" lon="4.37339">
        <ele>109</ele>
        <time>2018-05-16T08:59:41.1Z</time>
      </trkpt>
      <trkpt lat="44.41759" lon="4.37331">
        <ele>109</ele>
        <time>2018-05-16T08:59:43.1Z</time>
      </trkpt>
      <trkpt lat="44.41764" lon="4.37324">
        <ele>109</ele>
        <time>2018-05-16T08:59:45.1Z</time>
      </trkpt>
      <trkpt lat="44.41768" lon="4.37317">
        <ele>110</ele>
        <time>2018-05-16T08:59:47.1Z</time>
      </trkpt>
      <trkpt lat="44.41776" lon="4.37305">
        <ele>111</ele>
        <time>2018-05-16T08:59:50.1Z</time>
      </trkpt>
      <trkpt lat="44.4178" lon="4.37297">
        <ele>111</ele>
        <time>2018-05-16T08:59:53.1Z</time>
      </trkpt>
      <trkpt lat="44.41788" lon="4.37283">
        <ele>111</ele>
        <time>2018-05-16T08:59:55.1Z</time>
      </trkpt>
      <trkpt lat="44.41793" lon="4.37274">
        <ele>112</ele>
        <time>2018-05-16T08:59:57.1Z</time>
      </trkpt>
      <trkpt lat="44.418" lon="4.37259">
        <ele>112</ele>
        <time>2018-05-16T09:00:00.1Z</time>
      </trkpt>
      <trkpt lat="44.41806" lon="4.37251">
        <ele>112</ele>
        <time>2018-05-16T09:00:02.1Z</time>
      </trkpt>
      <trkpt lat="44.41813" lon="4.37237">
        <ele>111</ele>
        <time>2018-05-16T09:00:05.1Z</time>
      </trkpt>
      <trkpt lat="44.41818" lon="4.37228">
        <ele>112</ele>
        <time>2018-05-16T09:00:07.1Z</time>
      </trkpt>
      <trkpt lat="44.41825" lon="4.37215">
        <ele>112</ele>
        <time>2018-05-16T09:00:10.1Z</time>
      </trkpt>
      <trkpt lat="44.4183" lon="4.37206">
        <ele>113</ele>
        <time>2018-05-16T09:00:12.1Z</time>
      </trkpt>
      <trkpt lat="44.41835" lon="4.37197">
        <ele>113</ele>
        <time>2018-05-16T09:00:14.1Z</time>
      </trkpt>
      <trkpt lat="44.41842" lon="4.37185">
        <ele>113</ele>
        <time>2018-05-16T09:00:17.1Z</time>
      </trkpt>
      <trkpt lat="44.41849" lon="4.37171">
        <ele>114</ele>
        <time>2018-05-16T09:00:20.1Z</time>
      </trkpt>
      <trkpt lat="44.41854" lon="4.37162">
        <ele>114</ele>
        <time>2018-05-16T09:00:22.1Z</time>
      </trkpt>
      <trkpt lat="44.41861" lon="4.37147">
        <ele>115</ele>
        <time>2018-05-16T09:00:25.1Z</time>
      </trkpt>
      <trkpt lat="44.41866" lon="4.37136">
        <ele>115</ele>
        <time>2018-05-16T09:00:27.1Z</time>
      </trkpt>
      <trkpt lat="44.41874" lon="4.37119">
        <ele>115</ele>
        <time>2018-05-16T09:00:30.1Z</time>
      </trkpt>
      <trkpt lat="44.41879" lon="4.37108">
        <ele>115</ele>
        <time>2018-05-16T09:00:32.1Z</time>
      </trkpt>
      <trkpt lat="44.41888" lon="4.37092">
        <ele>115</ele>
        <time>2018-05-16T09:00:35.1Z</time>
      </trkpt>
      <trkpt lat="44.41893" lon="4.37081">
        <ele>115</ele>
        <time>2018-05-16T09:00:37.1Z</time>
      </trkpt>
      <trkpt lat="44.41902" lon="4.37066">
        <ele>115</ele>
        <time>2018-05-16T09:00:40.1Z</time>
      </trkpt>
      <trkpt lat="44.41907" lon="4.37056">
        <ele>115</ele>
        <time>2018-05-16T09:00:42.1Z</time>
      </trkpt>
      <trkpt lat="44.41916" lon="4.37042">
        <ele>116</ele>
        <time>2018-05-16T09:00:45.1Z</time>
      </trkpt>
      <trkpt lat="44.41922" lon="4.37032">
        <ele>116</ele>
        <time>2018-05-16T09:00:47.1Z</time>
      </trkpt>
      <trkpt lat="44.41931" lon="4.37018">
        <ele>116</ele>
        <time>2018-05-16T09:00:50.1Z</time>
      </trkpt>
      <trkpt lat="44.41937" lon="4.37009">
        <ele>116</ele>
        <time>2018-05-16T09:00:52.1Z</time>
      </trkpt>
      <trkpt lat="44.41946" lon="4.36996">
        <ele>117</ele>
        <time>2018-05-16T09:00:55.1Z</time>
      </trkpt>
      <trkpt lat="44.41952" lon="4.36987">
        <ele>117</ele>
        <time>2018-05-16T09:00:57.1Z</time>
      </trkpt>
      <trkpt lat="44.41962" lon="4.36976">
        <ele>118</ele>
        <time>2018-05-16T09:01:00.1Z</time>
      </trkpt>
      <trkpt lat="44.41969" lon="4.36969">
        <ele>118</ele>
        <time>2018-05-16T09:01:02.1Z</time>
      </trkpt>
      <trkpt lat="44.41976" lon="4.36963">
        <ele>119</ele>
        <time>2018-05-16T09:01:04.1Z</time>
      </trkpt>
      <trkpt lat="44.41983" lon="4.36957">
        <ele>119</ele>
        <time>2018-05-16T09:01:06.1Z</time>
      </trkpt>
      <trkpt lat="44.41991" lon="4.36952">
        <ele>120</ele>
        <time>2018-05-16T09:01:08.1Z</time>
      </trkpt>
      <trkpt lat="44.42002" lon="4.36946">
        <ele>121</ele>
        <time>2018-05-16T09:01:11.1Z</time>
      </trkpt>
      <trkpt lat="44.42011" lon="4.36942">
        <ele>121</ele>
        <time>2018-05-16T09:01:13.1Z</time>
      </trkpt>
      <trkpt lat="44.42019" lon="4.36939">
        <ele>121</ele>
        <time>2018-05-16T09:01:15.1Z</time>
      </trkpt>
      <trkpt lat="44.42031" lon="4.36935">
        <ele>121</ele>
        <time>2018-05-16T09:01:18.1Z</time>
      </trkpt>
      <trkpt lat="44.42043" lon="4.36931">
        <ele>122</ele>
        <time>2018-05-16T09:01:21.1Z</time>
      </trkpt>
      <trkpt lat="44.42055" lon="4.36927">
        <ele>122</ele>
        <time>2018-05-16T09:01:24.1Z</time>
      </trkpt>
      <trkpt lat="44.42063" lon="4.36924">
        <ele>123</ele>
        <time>2018-05-16T09:01:26.1Z</time>
      </trkpt>
      <trkpt lat="44.42075" lon="4.3692">
        <ele>123</ele>
        <time>2018-05-16T09:01:29.1Z</time>
      </trkpt>
      <trkpt lat="44.42086" lon="4.36917">
        <ele>124</ele>
        <time>2018-05-16T09:01:32.1Z</time>
      </trkpt>
      <trkpt lat="44.42093" lon="4.36915">
        <ele>124</ele>
        <time>2018-05-16T09:01:34.1Z</time>
      </trkpt>
      <trkpt lat="44.42103" lon="4.36912">
        <ele>124</ele>
        <time>2018-05-16T09:01:37.1Z</time>
      </trkpt>
      <trkpt lat="44.42113" lon="4.3691">
        <ele>124</ele>
        <time>2018-05-16T09:01:40.1Z</time>
      </trkpt>
      <trkpt lat="44.42118" lon="4.36909">
        <ele>124</ele>
        <time>2018-05-16T09:01:42.1Z</time>
      </trkpt>
      <trkpt lat="44.42124" lon="4.36909">
        <ele>124</ele>
        <time>2018-05-16T09:01:44.1Z</time>
      </trkpt>
      <trkpt lat="44.4213" lon="4.36907">
        <ele>125</ele>
        <time>2018-05-16T09:01:46.1Z</time>
      </trkpt>
      <trkpt lat="44.42136" lon="4.36906">
        <ele>125</ele>
        <time>2018-05-16T09:01:48.1Z</time>
      </trkpt>
      <trkpt lat="44.42143" lon="4.36904">
        <ele>125</ele>
        <time>2018-05-16T09:01:50.1Z</time>
      </trkpt>
      <trkpt lat="44.4215" lon="4.36903">
        <ele>126</ele>
        <time>2018-05-16T09:01:52.1Z</time>
      </trkpt>
      <trkpt lat="44.4216" lon="4.369">
        <ele>126</ele>
        <time>2018-05-16T09:01:55.1Z</time>
      </trkpt>
      <trkpt lat="44.42168" lon="4.36899">
        <ele>126</ele>
        <time>2018-05-16T09:01:57.1Z</time>
      </trkpt>
      <trkpt lat="44.42175" lon="4.36897">
        <ele>127</ele>
        <time>2018-05-16T09:01:59.1Z</time>
      </trkpt>
      <trkpt lat="44.42187" lon="4.36896">
        <ele>127</ele>
        <time>2018-05-16T09:02:02.1Z</time>
      </trkpt>
      <trkpt lat="44.42194" lon="4.36894">
        <ele>128</ele>
        <time>2018-05-16T09:02:04.1Z</time>
      </trkpt>
      <trkpt lat="44.42202" lon="4.36893">
        <ele>128</ele>
        <time>2018-05-16T09:02:06.1Z</time>
      </trkpt>
      <trkpt lat="44.42209" lon="4.36892">
        <ele>129</ele>
        <time>2018-05-16T09:02:08.1Z</time>
      </trkpt>
      <trkpt lat="44.42219" lon="4.36891">
        <ele>130</ele>
        <time>2018-05-16T09:02:11.1Z</time>
      </trkpt>
      <trkpt lat="44.42226" lon="4.36889">
        <ele>130</ele>
        <time>2018-05-16T09:02:13.1Z</time>
      </trkpt>
      <trkpt lat="44.42233" lon="4.36887">
        <ele>131</ele>
        <time>2018-05-16T09:02:15.1Z</time>
      </trkpt>
      <trkpt lat="44.42241" lon="4.36886">
        <ele>131</ele>
        <time>2018-05-16T09:02:17.1Z</time>
      </trkpt>
      <trkpt lat="44.42252" lon="4.36883">
        <ele>131</ele>
        <time>2018-05-16T09:02:20.1Z</time>
      </trkpt>
      <trkpt lat="44.42259" lon="4.36881">
        <ele>132</ele>
        <time>2018-05-16T09:02:22.1Z</time>
      </trkpt>
      <trkpt lat="44.4227" lon="4.36879">
        <ele>133</ele>
        <time>2018-05-16T09:02:25.1Z</time>
      </trkpt>
      <trkpt lat="44.42282" lon="4.36877">
        <ele>133</ele>
        <time>2018-05-16T09:02:28.1Z</time>
      </trkpt>
      <trkpt lat="44.42291" lon="4.36877">
        <ele>133</ele>
        <time>2018-05-16T09:02:30.1Z</time>
      </trkpt>
      <trkpt lat="44.42299" lon="4.36876">
        <ele>133</ele>
        <time>2018-05-16T09:02:32.1Z</time>
      </trkpt>
      <trkpt lat="44.4231" lon="4.36875">
        <ele>133</ele>
        <time>2018-05-16T09:02:35.1Z</time>
      </trkpt>
      <trkpt lat="44.42321" lon="4.36872">
        <ele>134</ele>
        <time>2018-05-16T09:02:38.1Z</time>
      </trkpt>
      <trkpt lat="44.42331" lon="4.3687">
        <ele>134</ele>
        <time>2018-05-16T09:02:41.1Z</time>
      </trkpt>
      <trkpt lat="44.42341" lon="4.36868">
        <ele>134</ele>
        <time>2018-05-16T09:02:44.1Z</time>
      </trkpt>
      <trkpt lat="44.42348" lon="4.36867">
        <ele>134</ele>
        <time>2018-05-16T09:02:46.1Z</time>
      </trkpt>
      <trkpt lat="44.42359" lon="4.36864">
        <ele>135</ele>
        <time>2018-05-16T09:02:49.1Z</time>
      </trkpt>
      <trkpt lat="44.42366" lon="4.36862">
        <ele>135</ele>
        <time>2018-05-16T09:02:51.1Z</time>
      </trkpt>
      <trkpt lat="44.42374" lon="4.3686">
        <ele>136</ele>
        <time>2018-05-16T09:02:53.1Z</time>
      </trkpt>
      <trkpt lat="44.42381" lon="4.36858">
        <ele>136</ele>
        <time>2018-05-16T09:02:55.1Z</time>
      </trkpt>
      <trkpt lat="44.42393" lon="4.36855">
        <ele>137</ele>
        <time>2018-05-16T09:02:58.1Z</time>
      </trkpt>
      <trkpt lat="44.42405" lon="4.3685">
        <ele>138</ele>
        <time>2018-05-16T09:03:01.1Z</time>
      </trkpt>
      <trkpt lat="44.42416" lon="4.36846">
        <ele>139</ele>
        <time>2018-05-16T09:03:04.1Z</time>
      </trkpt>
      <trkpt lat="44.42424" lon="4.36843">
        <ele>140</ele>
        <time>2018-05-16T09:03:06.1Z</time>
      </trkpt>
      <trkpt lat="44.42435" lon="4.36839">
        <ele>141</ele>
        <time>2018-05-16T09:03:09.1Z</time>
      </trkpt>
      <trkpt lat="44.42446" lon="4.36834">
        <ele>141</ele>
        <time>2018-05-16T09:03:12.1Z</time>
      </trkpt>
      <trkpt lat="44.42457" lon="4.3683">
        <ele>141</ele>
        <time>2018-05-16T09:03:15.1Z</time>
      </trkpt>
      <trkpt lat="44.42465" lon="4.36827">
        <ele>141</ele>
        <time>2018-05-16T09:03:17.1Z</time>
      </trkpt>
      <trkpt lat="44.42473" lon="4.36827">
        <ele>141</ele>
        <time>2018-05-16T09:03:19.1Z</time>
      </trkpt>
      <trkpt lat="44.42481" lon="4.36826">
        <ele>142</ele>
        <time>2018-05-16T09:03:21.1Z</time>
      </trkpt>
      <trkpt lat="44.42493" lon="4.36825">
        <ele>142</ele>
        <time>2018-05-16T09:03:24.1Z</time>
      </trkpt>
      <trkpt lat="44.42501" lon="4.36824">
        <ele>142</ele>
        <time>2018-05-16T09:03:26.1Z</time>
      </trkpt>
      <trkpt lat="44.42509" lon="4.36823">
        <ele>142</ele>
        <time>2018-05-16T09:03:28.1Z</time>
      </trkpt>
      <trkpt lat="44.42522" lon="4.36823">
        <ele>142</ele>
        <time>2018-05-16T09:03:31.1Z</time>
      </trkpt>
      <trkpt lat="44.42535" lon="4.36822">
        <ele>143</ele>
        <time>2018-05-16T09:03:34.1Z</time>
      </trkpt>
      <trkpt lat="44.42544" lon="4.36821">
        <ele>143</ele>
        <time>2018-05-16T09:03:36.1Z</time>
      </trkpt>
      <trkpt lat="44.42553" lon="4.3682">
        <ele>143</ele>
        <time>2018-05-16T09:03:38.1Z</time>
      </trkpt>
      <trkpt lat="44.42561" lon="4.3682">
        <ele>144</ele>
        <time>2018-05-16T09:03:40.1Z</time>
      </trkpt>
      <trkpt lat="44.4257" lon="4.36819">
        <ele>145</ele>
        <time>2018-05-16T09:03:42.1Z</time>
      </trkpt>
      <trkpt lat="44.42579" lon="4.36817">
        <ele>145</ele>
        <time>2018-05-16T09:03:44.1Z</time>
      </trkpt>
      <trkpt lat="44.42587" lon="4.36816">
        <ele>146</ele>
        <time>2018-05-16T09:03:46.1Z</time>
      </trkpt>
      <trkpt lat="44.42599" lon="4.36816">
        <ele>146</ele>
        <time>2018-05-16T09:03:49.1Z</time>
      </trkpt>
      <trkpt lat="44.42606" lon="4.36815">
        <ele>146</ele>
        <time>2018-05-16T09:03:51.1Z</time>
      </trkpt>
      <trkpt lat="44.42614" lon="4.36815">
        <ele>146</ele>
        <time>2018-05-16T09:03:53.1Z</time>
      </trkpt>
      <trkpt lat="44.42627" lon="4.36815">
        <ele>146</ele>
        <time>2018-05-16T09:03:56.1Z</time>
      </trkpt>
      <trkpt lat="44.42636" lon="4.36814">
        <ele>146</ele>
        <time>2018-05-16T09:03:58.1Z</time>
      </trkpt>
      <trkpt lat="44.4265" lon="4.36813">
        <ele>145</ele>
        <time>2018-05-16T09:04:01.1Z</time>
      </trkpt>
      <trkpt lat="44.42659" lon="4.36816">
        <ele>145</ele>
        <time>2018-05-16T09:04:03.1Z</time>
      </trkpt>
      <trkpt lat="44.42673" lon="4.36818">
        <ele>145</ele>
        <time>2018-05-16T09:04:06.1Z</time>
      </trkpt>
      <trkpt lat="44.42682" lon="4.3682">
        <ele>145</ele>
        <time>2018-05-16T09:04:08.1Z</time>
      </trkpt>
      <trkpt lat="44.42691" lon="4.36822">
        <ele>145</ele>
        <time>2018-05-16T09:04:10.1Z</time>
      </trkpt>
      <trkpt lat="44.42701" lon="4.36824">
        <ele>145</ele>
        <time>2018-05-16T09:04:12.1Z</time>
      </trkpt>
      <trkpt lat="44.42712" lon="4.36825">
        <ele>145</ele>
        <time>2018-05-16T09:04:14.1Z</time>
      </trkpt>
      <trkpt lat="44.42723" lon="4.36827">
        <ele>145</ele>
        <time>2018-05-16T09:04:16.1Z</time>
      </trkpt>
      <trkpt lat="44.42735" lon="4.3683">
        <ele>145</ele>
        <time>2018-05-16T09:04:18.1Z</time>
      </trkpt>
      <trkpt lat="44.42748" lon="4.36834">
        <ele>144</ele>
        <time>2018-05-16T09:04:20.1Z</time>
      </trkpt>
      <trkpt lat="44.42761" lon="4.36839">
        <ele>143</ele>
        <time>2018-05-16T09:04:22.1Z</time>
      </trkpt>
      <trkpt lat="44.42782" lon="4.36841">
        <ele>143</ele>
        <time>2018-05-16T09:04:25.1Z</time>
      </trkpt>
      <trkpt lat="44.42802" lon="4.36837">
        <ele>142</ele>
        <time>2018-05-16T09:04:28.1Z</time>
      </trkpt>
      <trkpt lat="44.42814" lon="4.36839">
        <ele>141</ele>
        <time>2018-05-16T09:04:30.1Z</time>
      </trkpt>
      <trkpt lat="44.42831" lon="4.36844">
        <ele>140</ele>
        <time>2018-05-16T09:04:33.1Z</time>
      </trkpt>
      <trkpt lat="44.42841" lon="4.36847">
        <ele>139</ele>
        <time>2018-05-16T09:04:35.1Z</time>
      </trkpt>
      <trkpt lat="44.42852" lon="4.36851">
        <ele>140</ele>
        <time>2018-05-16T09:04:37.1Z</time>
      </trkpt>
      <trkpt lat="44.42861" lon="4.36854">
        <ele>140</ele>
        <time>2018-05-16T09:04:39.1Z</time>
      </trkpt>
      <trkpt lat="44.42876" lon="4.36856">
        <ele>140</ele>
        <time>2018-05-16T09:04:42.1Z</time>
      </trkpt>
      <trkpt lat="44.42891" lon="4.36857">
        <ele>141</ele>
        <time>2018-05-16T09:04:45.1Z</time>
      </trkpt>
      <trkpt lat="44.42901" lon="4.36857">
        <ele>140</ele>
        <time>2018-05-16T09:04:47.1Z</time>
      </trkpt>
      <trkpt lat="44.42915" lon="4.36855">
        <ele>140</ele>
        <time>2018-05-16T09:04:50.1Z</time>
      </trkpt>
      <trkpt lat="44.42925" lon="4.36854">
        <ele>139</ele>
        <time>2018-05-16T09:04:52.1Z</time>
      </trkpt>
      <trkpt lat="44.42935" lon="4.36853">
        <ele>138</ele>
        <time>2018-05-16T09:04:54.1Z</time>
      </trkpt>
      <trkpt lat="44.4295" lon="4.36846">
        <ele>138</ele>
        <time>2018-05-16T09:04:57.1Z</time>
      </trkpt>
      <trkpt lat="44.4296" lon="4.36838">
        <ele>138</ele>
        <time>2018-05-16T09:04:59.1Z</time>
      </trkpt>
      <trkpt lat="44.42972" lon="4.36829">
        <ele>138</ele>
        <time>2018-05-16T09:05:01.1Z</time>
      </trkpt>
      <trkpt lat="44.42991" lon="4.36813">
        <ele>138</ele>
        <time>2018-05-16T09:05:04.1Z</time>
      </trkpt>
      <trkpt lat="44.43005" lon="4.36802">
        <ele>137</ele>
        <time>2018-05-16T09:05:06.1Z</time>
      </trkpt>
      <trkpt lat="44.43028" lon="4.36783">
        <ele>136</ele>
        <time>2018-05-16T09:05:09.1Z</time>
      </trkpt>
      <trkpt lat="44.43052" lon="4.36762">
        <ele>134</ele>
        <time>2018-05-16T09:05:12.1Z</time>
      </trkpt>
      <trkpt lat="44.43069" lon="4.36748">
        <ele>134</ele>
        <time>2018-05-16T09:05:14.1Z</time>
      </trkpt>
      <trkpt lat="44.43096" lon="4.36724">
        <ele>133</ele>
        <time>2018-05-16T09:05:17.1Z</time>
      </trkpt>
      <trkpt lat="44.43126" lon="4.3671">
        <ele>131</ele>
        <time>2018-05-16T09:05:20.1Z</time>
      </trkpt>
      <trkpt lat="44.43148" lon="4.36707">
        <ele>130</ele>
        <time>2018-05-16T09:05:22.1Z</time>
      </trkpt>
      <trkpt lat="44.4317" lon="4.36705">
        <ele>127</ele>
        <time>2018-05-16T09:05:24.1Z</time>
      </trkpt>
      <trkpt lat="44.43188" lon="4.36702">
        <ele>124</ele>
        <time>2018-05-16T09:05:26.1Z</time>
      </trkpt>
      <trkpt lat="44.432" lon="4.36694">
        <ele>119</ele>
        <time>2018-05-16T09:05:28.1Z</time>
      </trkpt>
      <trkpt lat="44.43204" lon="4.36675">
        <ele>114</ele>
        <time>2018-05-16T09:05:30.1Z</time>
      </trkpt>
      <trkpt lat="44.43203" lon="4.36642">
        <ele>111</ele>
        <time>2018-05-16T09:05:33.1Z</time>
      </trkpt>
      <trkpt lat="44.43201" lon="4.36619">
        <ele>109</ele>
        <time>2018-05-16T09:05:35.1Z</time>
      </trkpt>
      <trkpt lat="44.43198" lon="4.36584">
        <ele>108</ele>
        <time>2018-05-16T09:05:38.1Z</time>
      </trkpt>
      <trkpt lat="44.43197" lon="4.36562">
        <ele>107</ele>
        <time>2018-05-16T09:05:40.1Z</time>
      </trkpt>
      <trkpt lat="44.43199" lon="4.36531">
        <ele>106</ele>
        <time>2018-05-16T09:05:43.1Z</time>
      </trkpt>
      <trkpt lat="44.43203" lon="4.36513">
        <ele>106</ele>
        <time>2018-05-16T09:05:45.1Z</time>
      </trkpt>
      <trkpt lat="44.43208" lon="4.36496">
        <ele>106</ele>
        <time>2018-05-16T09:05:47.1Z</time>
      </trkpt>
      <trkpt lat="44.43213" lon="4.36482">
        <ele>106</ele>
        <time>2018-05-16T09:05:49.1Z</time>
      </trkpt>
      <trkpt lat="44.43218" lon="4.36467">
        <ele>106</ele>
        <time>2018-05-16T09:05:51.1Z</time>
      </trkpt>
      <trkpt lat="44.43223" lon="4.36452">
        <ele>106</ele>
        <time>2018-05-16T09:05:53.1Z</time>
      </trkpt>
      <trkpt lat="44.43231" lon="4.36431">
        <ele>106</ele>
        <time>2018-05-16T09:05:56.1Z</time>
      </trkpt>
      <trkpt lat="44.43238" lon="4.36409">
        <ele>107</ele>
        <time>2018-05-16T09:05:59.1Z</time>
      </trkpt>
      <trkpt lat="44.43242" lon="4.36395">
        <ele>107</ele>
        <time>2018-05-16T09:06:01.1Z</time>
      </trkpt>
      <trkpt lat="44.43243" lon="4.36375">
        <ele>108</ele>
        <time>2018-05-16T09:06:04.1Z</time>
      </trkpt>
      <trkpt lat="44.43239" lon="4.36355">
        <ele>108</ele>
        <time>2018-05-16T09:06:07.1Z</time>
      </trkpt>
      <trkpt lat="44.43235" lon="4.36342">
        <ele>108</ele>
        <time>2018-05-16T09:06:09.1Z</time>
      </trkpt>
      <trkpt lat="44.43231" lon="4.36328">
        <ele>108</ele>
        <time>2018-05-16T09:06:11.1Z</time>
      </trkpt>
      <trkpt lat="44.43224" lon="4.36307">
        <ele>108</ele>
        <time>2018-05-16T09:06:14.1Z</time>
      </trkpt>
      <trkpt lat="44.43216" lon="4.36287">
        <ele>107</ele>
        <time>2018-05-16T09:06:17.1Z</time>
      </trkpt>
      <trkpt lat="44.43211" lon="4.36272">
        <ele>106</ele>
        <time>2018-05-16T09:06:19.1Z</time>
      </trkpt>
      <trkpt lat="44.43206" lon="4.36258">
        <ele>106</ele>
        <time>2018-05-16T09:06:21.1Z</time>
      </trkpt>
      <trkpt lat="44.432" lon="4.36244">
        <ele>106</ele>
        <time>2018-05-16T09:06:23.1Z</time>
      </trkpt>
      <trkpt lat="44.43194" lon="4.36229">
        <ele>106</ele>
        <time>2018-05-16T09:06:25.1Z</time>
      </trkpt>
      <trkpt lat="44.43189" lon="4.36212">
        <ele>106</ele>
        <time>2018-05-16T09:06:27.1Z</time>
      </trkpt>
      <trkpt lat="44.43183" lon="4.36196">
        <ele>105</ele>
        <time>2018-05-16T09:06:29.1Z</time>
      </trkpt>
      <trkpt lat="44.43177" lon="4.36178">
        <ele>105</ele>
        <time>2018-05-16T09:06:31.1Z</time>
      </trkpt>
      <trkpt lat="44.43168" lon="4.36152">
        <ele>104</ele>
        <time>2018-05-16T09:06:34.1Z</time>
      </trkpt>
      <trkpt lat="44.43161" lon="4.36133">
        <ele>104</ele>
        <time>2018-05-16T09:06:36.1Z</time>
      </trkpt>
      <trkpt lat="44.4315" lon="4.36105">
        <ele>104</ele>
        <time>2018-05-16T09:06:39.1Z</time>
      </trkpt>
      <trkpt lat="44.43138" lon="4.36078">
        <ele>104</ele>
        <time>2018-05-16T09:06:42.1Z</time>
      </trkpt>
      <trkpt lat="44.43128" lon="4.36062">
        <ele>104</ele>
        <time>2018-05-16T09:06:44.1Z</time>
      </trkpt>
      <trkpt lat="44.43111" lon="4.36042">
        <ele>104</ele>
        <time>2018-05-16T09:06:47.1Z</time>
      </trkpt>
      <trkpt lat="44.43099" lon="4.36029">
        <ele>104</ele>
        <time>2018-05-16T09:06:49.1Z</time>
      </trkpt>
      <trkpt lat="44.43082" lon="4.36009">
        <ele>103</ele>
        <time>2018-05-16T09:06:52.1Z</time>
      </trkpt>
      <trkpt lat="44.43064" lon="4.3599">
        <ele>103</ele>
        <time>2018-05-16T09:06:55.1Z</time>
      </trkpt>
      <trkpt lat="44.43053" lon="4.35979">
        <ele>103</ele>
        <time>2018-05-16T09:06:57.1Z</time>
      </trkpt>
      <trkpt lat="44.43037" lon="4.3596">
        <ele>102</ele>
        <time>2018-05-16T09:07:00.1Z</time>
      </trkpt>
      <trkpt lat="44.43021" lon="4.35943">
        <ele>102</ele>
        <time>2018-05-16T09:07:03.1Z</time>
      </trkpt>
      <trkpt lat="44.43013" lon="4.35928">
        <ele>101</ele>
        <time>2018-05-16T09:07:05.1Z</time>
      </trkpt>
      <trkpt lat="44.43002" lon="4.35907">
        <ele>100</ele>
        <time>2018-05-16T09:07:08.1Z</time>
      </trkpt>
      <trkpt lat="44.42996" lon="4.35892">
        <ele>100</ele>
        <time>2018-05-16T09:07:10.1Z</time>
      </trkpt>
      <trkpt lat="44.42987" lon="4.35871">
        <ele>99</ele>
        <time>2018-05-16T09:07:13.1Z</time>
      </trkpt>
      <trkpt lat="44.42979" lon="4.35849">
        <ele>99</ele>
        <time>2018-05-16T09:07:16.1Z</time>
      </trkpt>
      <trkpt lat="44.42973" lon="4.35827">
        <ele>99</ele>
        <time>2018-05-16T09:07:19.1Z</time>
      </trkpt>
      <trkpt lat="44.42974" lon="4.35808">
        <ele>98</ele>
        <time>2018-05-16T09:07:22.1Z</time>
      </trkpt>
      <trkpt lat="44.42977" lon="4.35797">
        <ele>97</ele>
        <time>2018-05-16T09:07:25.1Z</time>
      </trkpt>
      <trkpt lat="44.42977" lon="4.35795">
        <ele>97</ele>
        <time>2018-05-16T09:07:28.1Z</time>
      </trkpt>
      <trkpt lat="44.42976" lon="4.35794">
        <ele>97</ele>
        <time>2018-05-16T09:07:31.1Z</time>
      </trkpt>
      <trkpt lat="44.42976" lon="4.35794">
        <ele>97</ele>
        <time>2018-05-16T09:07:33.1Z</time>
      </trkpt>
      <trkpt lat="44.42976" lon="4.35793">
        <ele>97</ele>
        <time>2018-05-16T09:07:36.1Z</time>
      </trkpt>
      <trkpt lat="44.42976" lon="4.35793">
        <ele>98</ele>
        <time>2018-05-16T09:07:38.1Z</time>
      </trkpt>
      <trkpt lat="44.42976" lon="4.35793">
        <ele>98</ele>
        <time>2018-05-16T09:07:41.1Z</time>
      </trkpt>
      <trkpt lat="44.42976" lon="4.35793">
        <ele>99</ele>
        <time>2018-05-16T09:07:44.1Z</time>
      </trkpt>
      <trkpt lat="44.42976" lon="4.35793">
        <ele>98</ele>
        <time>2018-05-16T09:07:49.1Z</time>
      </trkpt>
      <trkpt lat="44.42976" lon="4.35792">
        <ele>97</ele>
        <time>2018-05-16T09:07:52.1Z</time>
      </trkpt>
      <trkpt lat="44.42976" lon="4.35792">
        <ele>97</ele>
        <time>2018-05-16T09:07:55.1Z</time>
      </trkpt>
      <trkpt lat="44.42976" lon="4.35791">
        <ele>97</ele>
        <time>2018-05-16T09:07:58.1Z</time>
      </trkpt>
      <trkpt lat="44.42975" lon="4.35791">
        <ele>97</ele>
        <time>2018-05-16T09:08:01.1Z</time>
      </trkpt>
      <trkpt lat="44.42975" lon="4.35791">
        <ele>98</ele>
        <time>2018-05-16T09:08:04.1Z</time>
      </trkpt>
      <trkpt lat="44.42975" lon="4.35791">
        <ele>98</ele>
        <time>2018-05-16T09:08:07.1Z</time>
      </trkpt>
      <trkpt lat="44.42975" lon="4.35791">
        <ele>97</ele>
        <time>2018-05-16T09:08:11.1Z</time>
      </trkpt>
      <trkpt lat="44.42975" lon="4.35791">
        <ele>96</ele>
        <time>2018-05-16T09:08:13.1Z</time>
      </trkpt>
      <trkpt lat="44.42975" lon="4.35791">
        <ele>96</ele>
        <time>2018-05-16T09:08:16.1Z</time>
      </trkpt>
      <trkpt lat="44.42975" lon="4.3579">
        <ele>97</ele>
        <time>2018-05-16T09:08:19.1Z</time>
      </trkpt>
      <trkpt lat="44.42975" lon="4.3579">
        <ele>97</ele>
        <time>2018-05-16T09:08:22.1Z</time>
      </trkpt>
      <trkpt lat="44.42975" lon="4.3579">
        <ele>97</ele>
        <time>2018-05-16T09:08:25.1Z</time>
      </trkpt>
      <trkpt lat="44.42975" lon="4.35789">
        <ele>98</ele>
        <time>2018-05-16T09:08:28.1Z</time>
      </trkpt>
      <trkpt lat="44.42977" lon="4.35784">
        <ele>97</ele>
        <time>2018-05-16T09:08:31.1Z</time>
      </trkpt>
      <trkpt lat="44.42979" lon="4.35782">
        <ele>97</ele>
        <time>2018-05-16T09:08:33.1Z</time>
      </trkpt>
      <trkpt lat="44.42982" lon="4.35781">
        <ele>97</ele>
        <time>2018-05-16T09:08:35.1Z</time>
      </trkpt>
      <trkpt lat="44.42989" lon="4.35776">
        <ele>97</ele>
        <time>2018-05-16T09:08:38.1Z</time>
      </trkpt>
      <trkpt lat="44.42994" lon="4.35772">
        <ele>97</ele>
        <time>2018-05-16T09:08:40.1Z</time>
      </trkpt>
      <trkpt lat="44.43002" lon="4.35768">
        <ele>97</ele>
        <time>2018-05-16T09:08:43.1Z</time>
      </trkpt>
      <trkpt lat="44.4301" lon="4.35763">
        <ele>98</ele>
        <time>2018-05-16T09:08:46.1Z</time>
      </trkpt>
      <trkpt lat="44.43016" lon="4.35759">
        <ele>98</ele>
        <time>2018-05-16T09:08:48.1Z</time>
      </trkpt>
      <trkpt lat="44.43026" lon="4.35752">
        <ele>98</ele>
        <time>2018-05-16T09:08:51.1Z</time>
      </trkpt>
      <trkpt lat="44.43038" lon="4.35744">
        <ele>98</ele>
        <time>2018-05-16T09:08:54.1Z</time>
      </trkpt>
      <trkpt lat="44.4305" lon="4.35736">
        <ele>98</ele>
        <time>2018-05-16T09:08:57.1Z</time>
      </trkpt>
      <trkpt lat="44.43059" lon="4.35731">
        <ele>99</ele>
        <time>2018-05-16T09:08:59.1Z</time>
      </trkpt>
      <trkpt lat="44.43068" lon="4.35725">
        <ele>99</ele>
        <time>2018-05-16T09:09:01.1Z</time>
      </trkpt>
      <trkpt lat="44.43081" lon="4.35715">
        <ele>100</ele>
        <time>2018-05-16T09:09:04.1Z</time>
      </trkpt>
      <trkpt lat="44.43089" lon="4.35708">
        <ele>100</ele>
        <time>2018-05-16T09:09:06.1Z</time>
      </trkpt>
      <trkpt lat="44.43101" lon="4.35698">
        <ele>100</ele>
        <time>2018-05-16T09:09:09.1Z</time>
      </trkpt>
      <trkpt lat="44.43113" lon="4.35688">
        <ele>99</ele>
        <time>2018-05-16T09:09:12.1Z</time>
      </trkpt>
      <trkpt lat="44.43121" lon="4.35681">
        <ele>98</ele>
        <time>2018-05-16T09:09:14.1Z</time>
      </trkpt>
      <trkpt lat="44.43132" lon="4.35669">
        <ele>98</ele>
        <time>2018-05-16T09:09:17.1Z</time>
      </trkpt>
      <trkpt lat="44.4314" lon="4.3566">
        <ele>98</ele>
        <time>2018-05-16T09:09:19.1Z</time>
      </trkpt>
      <trkpt lat="44.43147" lon="4.3565">
        <ele>98</ele>
        <time>2018-05-16T09:09:21.1Z</time>
      </trkpt>
      <trkpt lat="44.43154" lon="4.3564">
        <ele>98</ele>
        <time>2018-05-16T09:09:23.1Z</time>
      </trkpt>
      <trkpt lat="44.43165" lon="4.35625">
        <ele>98</ele>
        <time>2018-05-16T09:09:26.1Z</time>
      </trkpt>
      <trkpt lat="44.43172" lon="4.35614">
        <ele>98</ele>
        <time>2018-05-16T09:09:28.1Z</time>
      </trkpt>
      <trkpt lat="44.43183" lon="4.35598">
        <ele>99</ele>
        <time>2018-05-16T09:09:31.1Z</time>
      </trkpt>
      <trkpt lat="44.43191" lon="4.35588">
        <ele>99</ele>
        <time>2018-05-16T09:09:33.1Z</time>
      </trkpt>
      <trkpt lat="44.43201" lon="4.35573">
        <ele>100</ele>
        <time>2018-05-16T09:09:36.1Z</time>
      </trkpt>
      <trkpt lat="44.43211" lon="4.35556">
        <ele>100</ele>
        <time>2018-05-16T09:09:39.1Z</time>
      </trkpt>
      <trkpt lat="44.43222" lon="4.3554">
        <ele>101</ele>
        <time>2018-05-16T09:09:42.1Z</time>
      </trkpt>
      <trkpt lat="44.43232" lon="4.35523">
        <ele>101</ele>
        <time>2018-05-16T09:09:45.1Z</time>
      </trkpt>
      <trkpt lat="44.43238" lon="4.35512">
        <ele>101</ele>
        <time>2018-05-16T09:09:47.1Z</time>
      </trkpt>
      <trkpt lat="44.43248" lon="4.35494">
        <ele>101</ele>
        <time>2018-05-16T09:09:50.1Z</time>
      </trkpt>
      <trkpt lat="44.43254" lon="4.35482">
        <ele>102</ele>
        <time>2018-05-16T09:09:52.1Z</time>
      </trkpt>
      <trkpt lat="44.4326" lon="4.3547">
        <ele>102</ele>
        <time>2018-05-16T09:09:54.1Z</time>
      </trkpt>
      <trkpt lat="44.43269" lon="4.35451">
        <ele>101</ele>
        <time>2018-05-16T09:09:57.1Z</time>
      </trkpt>
      <trkpt lat="44.43274" lon="4.35439">
        <ele>101</ele>
        <time>2018-05-16T09:09:59.1Z</time>
      </trkpt>
      <trkpt lat="44.43282" lon="4.35421">
        <ele>100</ele>
        <time>2018-05-16T09:10:02.1Z</time>
      </trkpt>
      <trkpt lat="44.43286" lon="4.35409">
        <ele>100</ele>
        <time>2018-05-16T09:10:04.1Z</time>
      </trkpt>
      <trkpt lat="44.43291" lon="4.35397">
        <ele>100</ele>
        <time>2018-05-16T09:10:06.1Z</time>
      </trkpt>
      <trkpt lat="44.43296" lon="4.35387">
        <ele>100</ele>
        <time>2018-05-16T09:10:08.1Z</time>
      </trkpt>
      <trkpt lat="44.43303" lon="4.35368">
        <ele>100</ele>
        <time>2018-05-16T09:10:11.1Z</time>
      </trkpt>
      <trkpt lat="44.43308" lon="4.35356">
        <ele>101</ele>
        <time>2018-05-16T09:10:13.1Z</time>
      </trkpt>
      <trkpt lat="44.43315" lon="4.35338">
        <ele>101</ele>
        <time>2018-05-16T09:10:16.1Z</time>
      </trkpt>
      <trkpt lat="44.4332" lon="4.35326">
        <ele>102</ele>
        <time>2018-05-16T09:10:18.1Z</time>
      </trkpt>
      <trkpt lat="44.43325" lon="4.35314">
        <ele>102</ele>
        <time>2018-05-16T09:10:20.1Z</time>
      </trkpt>
      <trkpt lat="44.43329" lon="4.35303">
        <ele>103</ele>
        <time>2018-05-16T09:10:22.1Z</time>
      </trkpt>
      <trkpt lat="44.43334" lon="4.35291">
        <ele>103</ele>
        <time>2018-05-16T09:10:24.1Z</time>
      </trkpt>
      <trkpt lat="44.43339" lon="4.35279">
        <ele>104</ele>
        <time>2018-05-16T09:10:26.1Z</time>
      </trkpt>
      <trkpt lat="44.43346" lon="4.3526">
        <ele>104</ele>
        <time>2018-05-16T09:10:29.1Z</time>
      </trkpt>
      <trkpt lat="44.4335" lon="4.35247">
        <ele>104</ele>
        <time>2018-05-16T09:10:31.1Z</time>
      </trkpt>
      <trkpt lat="44.43357" lon="4.35228">
        <ele>105</ele>
        <time>2018-05-16T09:10:34.1Z</time>
      </trkpt>
      <trkpt lat="44.43363" lon="4.3521">
        <ele>105</ele>
        <time>2018-05-16T09:10:37.1Z</time>
      </trkpt>
      <trkpt lat="44.43367" lon="4.35198">
        <ele>105</ele>
        <time>2018-05-16T09:10:39.1Z</time>
      </trkpt>
      <trkpt lat="44.43374" lon="4.3518">
        <ele>104</ele>
        <time>2018-05-16T09:10:42.1Z</time>
      </trkpt>
      <trkpt lat="44.43378" lon="4.35168">
        <ele>105</ele>
        <time>2018-05-16T09:10:44.1Z</time>
      </trkpt>
      <trkpt lat="44.43385" lon="4.3515">
        <ele>105</ele>
        <time>2018-05-16T09:10:47.1Z</time>
      </trkpt>
      <trkpt lat="44.43389" lon="4.35138">
        <ele>105</ele>
        <time>2018-05-16T09:10:49.1Z</time>
      </trkpt>
      <trkpt lat="44.43396" lon="4.3512">
        <ele>106</ele>
        <time>2018-05-16T09:10:52.1Z</time>
      </trkpt>
      <trkpt lat="44.43401" lon="4.35108">
        <ele>106</ele>
        <time>2018-05-16T09:10:54.1Z</time>
      </trkpt>
      <trkpt lat="44.43406" lon="4.35096">
        <ele>107</ele>
        <time>2018-05-16T09:10:56.1Z</time>
      </trkpt>
      <trkpt lat="44.4341" lon="4.35084">
        <ele>108</ele>
        <time>2018-05-16T09:10:58.1Z</time>
      </trkpt>
      <trkpt lat="44.43415" lon="4.35072">
        <ele>109</ele>
        <time>2018-05-16T09:11:00.1Z</time>
      </trkpt>
      <trkpt lat="44.43422" lon="4.35054">
        <ele>109</ele>
        <time>2018-05-16T09:11:03.1Z</time>
      </trkpt>
      <trkpt lat="44.43426" lon="4.35042">
        <ele>109</ele>
        <time>2018-05-16T09:11:05.1Z</time>
      </trkpt>
      <trkpt lat="44.43433" lon="4.35024">
        <ele>108</ele>
        <time>2018-05-16T09:11:08.1Z</time>
      </trkpt>
      <trkpt lat="44.43438" lon="4.35012">
        <ele>108</ele>
        <time>2018-05-16T09:11:10.1Z</time>
      </trkpt>
      <trkpt lat="44.43445" lon="4.34994">
        <ele>108</ele>
        <time>2018-05-16T09:11:13.1Z</time>
      </trkpt>
      <trkpt lat="44.43452" lon="4.34976">
        <ele>109</ele>
        <time>2018-05-16T09:11:16.1Z</time>
      </trkpt>
      <trkpt lat="44.43457" lon="4.34965">
        <ele>109</ele>
        <time>2018-05-16T09:11:18.1Z</time>
      </trkpt>
      <trkpt lat="44.43464" lon="4.34946">
        <ele>109</ele>
        <time>2018-05-16T09:11:21.1Z</time>
      </trkpt>
      <trkpt lat="44.43472" lon="4.34928">
        <ele>109</ele>
        <time>2018-05-16T09:11:24.1Z</time>
      </trkpt>
      <trkpt lat="44.43477" lon="4.34915">
        <ele>109</ele>
        <time>2018-05-16T09:11:26.1Z</time>
      </trkpt>
      <trkpt lat="44.43481" lon="4.34902">
        <ele>109</ele>
        <time>2018-05-16T09:11:28.1Z</time>
      </trkpt>
      <trkpt lat="44.43487" lon="4.34882">
        <ele>110</ele>
        <time>2018-05-16T09:11:31.1Z</time>
      </trkpt>
      <trkpt lat="44.43491" lon="4.34861">
        <ele>110</ele>
        <time>2018-05-16T09:11:34.1Z</time>
      </trkpt>
      <trkpt lat="44.43493" lon="4.34847">
        <ele>111</ele>
        <time>2018-05-16T09:11:36.1Z</time>
      </trkpt>
      <trkpt lat="44.43495" lon="4.34833">
        <ele>111</ele>
        <time>2018-05-16T09:11:38.1Z</time>
      </trkpt>
      <trkpt lat="44.43496" lon="4.3482">
        <ele>111</ele>
        <time>2018-05-16T09:11:40.1Z</time>
      </trkpt>
      <trkpt lat="44.43496" lon="4.34806">
        <ele>111</ele>
        <time>2018-05-16T09:11:42.1Z</time>
      </trkpt>
      <trkpt lat="44.43496" lon="4.34792">
        <ele>111</ele>
        <time>2018-05-16T09:11:44.1Z</time>
      </trkpt>
      <trkpt lat="44.43496" lon="4.34779">
        <ele>111</ele>
        <time>2018-05-16T09:11:46.1Z</time>
      </trkpt>
      <trkpt lat="44.43495" lon="4.34758">
        <ele>112</ele>
        <time>2018-05-16T09:11:49.1Z</time>
      </trkpt>
      <trkpt lat="44.43495" lon="4.34744">
        <ele>113</ele>
        <time>2018-05-16T09:11:51.1Z</time>
      </trkpt>
      <trkpt lat="44.43494" lon="4.34723">
        <ele>115</ele>
        <time>2018-05-16T09:11:54.1Z</time>
      </trkpt>
      <trkpt lat="44.43494" lon="4.34709">
        <ele>115</ele>
        <time>2018-05-16T09:11:56.1Z</time>
      </trkpt>
      <trkpt lat="44.43493" lon="4.34695">
        <ele>116</ele>
        <time>2018-05-16T09:11:58.1Z</time>
      </trkpt>
      <trkpt lat="44.43493" lon="4.34674">
        <ele>116</ele>
        <time>2018-05-16T09:12:01.1Z</time>
      </trkpt>
      <trkpt lat="44.43491" lon="4.34654">
        <ele>115</ele>
        <time>2018-05-16T09:12:04.1Z</time>
      </trkpt>
      <trkpt lat="44.4349" lon="4.3464">
        <ele>116</ele>
        <time>2018-05-16T09:12:06.1Z</time>
      </trkpt>
      <trkpt lat="44.43488" lon="4.3462">
        <ele>116</ele>
        <time>2018-05-16T09:12:09.1Z</time>
      </trkpt>
      <trkpt lat="44.43487" lon="4.34606">
        <ele>116</ele>
        <time>2018-05-16T09:12:11.1Z</time>
      </trkpt>
      <trkpt lat="44.43484" lon="4.34585">
        <ele>117</ele>
        <time>2018-05-16T09:12:14.1Z</time>
      </trkpt>
      <trkpt lat="44.43481" lon="4.34571">
        <ele>117</ele>
        <time>2018-05-16T09:12:16.1Z</time>
      </trkpt>
      <trkpt lat="44.43479" lon="4.34558">
        <ele>118</ele>
        <time>2018-05-16T09:12:18.1Z</time>
      </trkpt>
      <trkpt lat="44.43476" lon="4.34537">
        <ele>118</ele>
        <time>2018-05-16T09:12:21.1Z</time>
      </trkpt>
      <trkpt lat="44.43473" lon="4.34516">
        <ele>118</ele>
        <time>2018-05-16T09:12:24.1Z</time>
      </trkpt>
      <trkpt lat="44.4347" lon="4.34502">
        <ele>118</ele>
        <time>2018-05-16T09:12:26.1Z</time>
      </trkpt>
      <trkpt lat="44.43467" lon="4.34481">
        <ele>118</ele>
        <time>2018-05-16T09:12:29.1Z</time>
      </trkpt>
      <trkpt lat="44.43464" lon="4.3446">
        <ele>118</ele>
        <time>2018-05-16T09:12:32.1Z</time>
      </trkpt>
      <trkpt lat="44.4346" lon="4.34439">
        <ele>119</ele>
        <time>2018-05-16T09:12:35.1Z</time>
      </trkpt>
      <trkpt lat="44.43457" lon="4.34417">
        <ele>119</ele>
        <time>2018-05-16T09:12:38.1Z</time>
      </trkpt>
      <trkpt lat="44.43454" lon="4.34396">
        <ele>118</ele>
        <time>2018-05-16T09:12:41.1Z</time>
      </trkpt>
      <trkpt lat="44.43453" lon="4.3438">
        <ele>117</ele>
        <time>2018-05-16T09:12:43.1Z</time>
      </trkpt>
      <trkpt lat="44.43453" lon="4.34364">
        <ele>117</ele>
        <time>2018-05-16T09:12:45.1Z</time>
      </trkpt>
      <trkpt lat="44.43454" lon="4.34348">
        <ele>116</ele>
        <time>2018-05-16T09:12:47.1Z</time>
      </trkpt>
      <trkpt lat="44.43458" lon="4.34323">
        <ele>115</ele>
        <time>2018-05-16T09:12:50.1Z</time>
      </trkpt>
      <trkpt lat="44.43463" lon="4.34296">
        <ele>115</ele>
        <time>2018-05-16T09:12:53.1Z</time>
      </trkpt>
      <trkpt lat="44.43468" lon="4.34268">
        <ele>115</ele>
        <time>2018-05-16T09:12:56.1Z</time>
      </trkpt>
      <trkpt lat="44.43471" lon="4.34249">
        <ele>115</ele>
        <time>2018-05-16T09:12:58.1Z</time>
      </trkpt>
      <trkpt lat="44.43477" lon="4.34222">
        <ele>114</ele>
        <time>2018-05-16T09:13:01.1Z</time>
      </trkpt>
      <trkpt lat="44.43488" lon="4.34201">
        <ele>114</ele>
        <time>2018-05-16T09:13:04.1Z</time>
      </trkpt>
      <trkpt lat="44.43496" lon="4.34188">
        <ele>114</ele>
        <time>2018-05-16T09:13:06.1Z</time>
      </trkpt>
      <trkpt lat="44.43502" lon="4.34175">
        <ele>114</ele>
        <time>2018-05-16T09:13:08.1Z</time>
      </trkpt>
      <trkpt lat="44.43518" lon="4.34164">
        <ele>114</ele>
        <time>2018-05-16T09:13:11.1Z</time>
      </trkpt>
      <trkpt lat="44.43531" lon="4.34158">
        <ele>114</ele>
        <time>2018-05-16T09:13:14.1Z</time>
      </trkpt>
      <trkpt lat="44.43541" lon="4.3415">
        <ele>114</ele>
        <time>2018-05-16T09:13:17.1Z</time>
      </trkpt>
      <trkpt lat="44.43547" lon="4.34146">
        <ele>114</ele>
        <time>2018-05-16T09:13:19.1Z</time>
      </trkpt>
      <trkpt lat="44.43557" lon="4.34141">
        <ele>115</ele>
        <time>2018-05-16T09:13:22.1Z</time>
      </trkpt>
      <trkpt lat="44.43564" lon="4.34137">
        <ele>115</ele>
        <time>2018-05-16T09:13:24.1Z</time>
      </trkpt>
      <trkpt lat="44.43575" lon="4.34131">
        <ele>116</ele>
        <time>2018-05-16T09:13:27.1Z</time>
      </trkpt>
      <trkpt lat="44.43587" lon="4.34127">
        <ele>117</ele>
        <time>2018-05-16T09:13:30.1Z</time>
      </trkpt>
      <trkpt lat="44.43595" lon="4.34125">
        <ele>118</ele>
        <time>2018-05-16T09:13:32.1Z</time>
      </trkpt>
      <trkpt lat="44.43607" lon="4.34125">
        <ele>118</ele>
        <time>2018-05-16T09:13:35.1Z</time>
      </trkpt>
      <trkpt lat="44.43615" lon="4.34126">
        <ele>118</ele>
        <time>2018-05-16T09:13:37.1Z</time>
      </trkpt>
      <trkpt lat="44.43628" lon="4.3413">
        <ele>119</ele>
        <time>2018-05-16T09:13:40.1Z</time>
      </trkpt>
      <trkpt lat="44.43635" lon="4.34134">
        <ele>119</ele>
        <time>2018-05-16T09:13:42.1Z</time>
      </trkpt>
      <trkpt lat="44.43647" lon="4.34142">
        <ele>120</ele>
        <time>2018-05-16T09:13:45.1Z</time>
      </trkpt>
      <trkpt lat="44.43658" lon="4.34151">
        <ele>120</ele>
        <time>2018-05-16T09:13:48.1Z</time>
      </trkpt>
      <trkpt lat="44.4367" lon="4.3416">
        <ele>120</ele>
        <time>2018-05-16T09:13:51.1Z</time>
      </trkpt>
      <trkpt lat="44.43678" lon="4.34166">
        <ele>120</ele>
        <time>2018-05-16T09:13:53.1Z</time>
      </trkpt>
      <trkpt lat="44.43689" lon="4.34175">
        <ele>119</ele>
        <time>2018-05-16T09:13:56.1Z</time>
      </trkpt>
      <trkpt lat="44.43701" lon="4.34187">
        <ele>119</ele>
        <time>2018-05-16T09:13:59.1Z</time>
      </trkpt>
      <trkpt lat="44.4371" lon="4.34194">
        <ele>119</ele>
        <time>2018-05-16T09:14:01.1Z</time>
      </trkpt>
      <trkpt lat="44.43723" lon="4.34205">
        <ele>119</ele>
        <time>2018-05-16T09:14:04.1Z</time>
      </trkpt>
      <trkpt lat="44.43737" lon="4.34217">
        <ele>120</ele>
        <time>2018-05-16T09:14:07.1Z</time>
      </trkpt>
      <trkpt lat="44.43747" lon="4.34225">
        <ele>119</ele>
        <time>2018-05-16T09:14:09.1Z</time>
      </trkpt>
      <trkpt lat="44.43762" lon="4.34238">
        <ele>119</ele>
        <time>2018-05-16T09:14:12.1Z</time>
      </trkpt>
      <trkpt lat="44.43773" lon="4.34246">
        <ele>119</ele>
        <time>2018-05-16T09:14:14.1Z</time>
      </trkpt>
      <trkpt lat="44.43782" lon="4.34254">
        <ele>119</ele>
        <time>2018-05-16T09:14:16.1Z</time>
      </trkpt>
      <trkpt lat="44.43798" lon="4.34268">
        <ele>119</ele>
        <time>2018-05-16T09:14:19.1Z</time>
      </trkpt>
      <trkpt lat="44.43813" lon="4.3428">
        <ele>119</ele>
        <time>2018-05-16T09:14:22.1Z</time>
      </trkpt>
      <trkpt lat="44.43829" lon="4.34293">
        <ele>120</ele>
        <time>2018-05-16T09:14:25.1Z</time>
      </trkpt>
      <trkpt lat="44.4384" lon="4.34302">
        <ele>119</ele>
        <time>2018-05-16T09:14:27.1Z</time>
      </trkpt>
      <trkpt lat="44.43851" lon="4.34311">
        <ele>119</ele>
        <time>2018-05-16T09:14:29.1Z</time>
      </trkpt>
      <trkpt lat="44.43867" lon="4.34324">
        <ele>119</ele>
        <time>2018-05-16T09:14:32.1Z</time>
      </trkpt>
      <trkpt lat="44.43879" lon="4.34332">
        <ele>120</ele>
        <time>2018-05-16T09:14:34.1Z</time>
      </trkpt>
      <trkpt lat="44.43895" lon="4.34343">
        <ele>120</ele>
        <time>2018-05-16T09:14:37.1Z</time>
      </trkpt>
      <trkpt lat="44.43912" lon="4.34352">
        <ele>120</ele>
        <time>2018-05-16T09:14:40.1Z</time>
      </trkpt>
      <trkpt lat="44.43923" lon="4.34357">
        <ele>120</ele>
        <time>2018-05-16T09:14:42.1Z</time>
      </trkpt>
      <trkpt lat="44.43934" lon="4.34362">
        <ele>119</ele>
        <time>2018-05-16T09:14:44.1Z</time>
      </trkpt>
      <trkpt lat="44.43951" lon="4.34369">
        <ele>119</ele>
        <time>2018-05-16T09:14:47.1Z</time>
      </trkpt>
      <trkpt lat="44.43962" lon="4.34374">
        <ele>119</ele>
        <time>2018-05-16T09:14:49.1Z</time>
      </trkpt>
      <trkpt lat="44.43973" lon="4.3438">
        <ele>118</ele>
        <time>2018-05-16T09:14:51.1Z</time>
      </trkpt>
      <trkpt lat="44.43983" lon="4.34386">
        <ele>118</ele>
        <time>2018-05-16T09:14:53.1Z</time>
      </trkpt>
      <trkpt lat="44.43993" lon="4.34393">
        <ele>118</ele>
        <time>2018-05-16T09:14:55.1Z</time>
      </trkpt>
      <trkpt lat="44.44007" lon="4.34403">
        <ele>117</ele>
        <time>2018-05-16T09:14:58.1Z</time>
      </trkpt>
      <trkpt lat="44.44018" lon="4.34412">
        <ele>116</ele>
        <time>2018-05-16T09:15:01.1Z</time>
      </trkpt>
      <trkpt lat="44.44024" lon="4.34418">
        <ele>116</ele>
        <time>2018-05-16T09:15:03.1Z</time>
      </trkpt>
      <trkpt lat="44.4403" lon="4.34427">
        <ele>115</ele>
        <time>2018-05-16T09:15:06.1Z</time>
      </trkpt>
      <trkpt lat="44.44036" lon="4.34432">
        <ele>114</ele>
        <time>2018-05-16T09:15:09.1Z</time>
      </trkpt>
      <trkpt lat="44.44037" lon="4.34433">
        <ele>113</ele>
        <time>2018-05-16T09:15:11.1Z</time>
      </trkpt>
      <trkpt lat="44.44037" lon="4.34434">
        <ele>113</ele>
        <time>2018-05-16T09:15:14.1Z</time>
      </trkpt>
      <trkpt lat="44.44038" lon="4.34434">
        <ele>113</ele>
        <time>2018-05-16T09:15:17.1Z</time>
      </trkpt>
      <trkpt lat="44.44038" lon="4.34434">
        <ele>113</ele>
        <time>2018-05-16T09:15:21.1Z</time>
      </trkpt>
      <trkpt lat="44.44039" lon="4.34434">
        <ele>113</ele>
        <time>2018-05-16T09:15:25.1Z</time>
      </trkpt>
      <trkpt lat="44.44039" lon="4.34434">
        <ele>113</ele>
        <time>2018-05-16T09:15:28.1Z</time>
      </trkpt>
      <trkpt lat="44.4404" lon="4.34434">
        <ele>113</ele>
        <time>2018-05-16T09:15:31.1Z</time>
      </trkpt>
      <trkpt lat="44.4404" lon="4.34434">
        <ele>113</ele>
        <time>2018-05-16T09:15:33.1Z</time>
      </trkpt>
      <trkpt lat="44.44041" lon="4.34433">
        <ele>113</ele>
        <time>2018-05-16T09:15:36.1Z</time>
      </trkpt>
      <trkpt lat="44.44041" lon="4.34433">
        <ele>113</ele>
        <time>2018-05-16T09:15:39.1Z</time>
      </trkpt>
      <trkpt lat="44.44043" lon="4.34433">
        <ele>113</ele>
        <time>2018-05-16T09:15:42.1Z</time>
      </trkpt>
      <trkpt lat="44.44047" lon="4.34437">
        <ele>113</ele>
        <time>2018-05-16T09:15:45.1Z</time>
      </trkpt>
      <trkpt lat="44.4405" lon="4.3444">
        <ele>114</ele>
        <time>2018-05-16T09:15:47.1Z</time>
      </trkpt>
      <trkpt lat="44.44057" lon="4.34448">
        <ele>115</ele>
        <time>2018-05-16T09:15:50.1Z</time>
      </trkpt>
      <trkpt lat="44.44065" lon="4.34458">
        <ele>116</ele>
        <time>2018-05-16T09:15:53.1Z</time>
      </trkpt>
      <trkpt lat="44.44071" lon="4.34465">
        <ele>116</ele>
        <time>2018-05-16T09:15:55.1Z</time>
      </trkpt>
      <trkpt lat="44.44077" lon="4.34472">
        <ele>116</ele>
        <time>2018-05-16T09:15:57.1Z</time>
      </trkpt>
      <trkpt lat="44.44086" lon="4.34484">
        <ele>117</ele>
        <time>2018-05-16T09:16:00.1Z</time>
      </trkpt>
      <trkpt lat="44.44096" lon="4.34497">
        <ele>116</ele>
        <time>2018-05-16T09:16:03.1Z</time>
      </trkpt>
      <trkpt lat="44.44106" lon="4.34509">
        <ele>117</ele>
        <time>2018-05-16T09:16:06.1Z</time>
      </trkpt>
      <trkpt lat="44.44112" lon="4.34518">
        <ele>117</ele>
        <time>2018-05-16T09:16:08.1Z</time>
      </trkpt>
      <trkpt lat="44.44123" lon="4.34531">
        <ele>118</ele>
        <time>2018-05-16T09:16:11.1Z</time>
      </trkpt>
      <trkpt lat="44.4413" lon="4.3454">
        <ele>118</ele>
        <time>2018-05-16T09:16:13.1Z</time>
      </trkpt>
      <trkpt lat="44.44137" lon="4.34548">
        <ele>118</ele>
        <time>2018-05-16T09:16:15.1Z</time>
      </trkpt>
      <trkpt lat="44.44144" lon="4.34557">
        <ele>118</ele>
        <time>2018-05-16T09:16:17.1Z</time>
      </trkpt>
      <trkpt lat="44.44154" lon="4.3457">
        <ele>118</ele>
        <time>2018-05-16T09:16:20.1Z</time>
      </trkpt>
      <trkpt lat="44.44165" lon="4.34583">
        <ele>118</ele>
        <time>2018-05-16T09:16:23.1Z</time>
      </trkpt>
      <trkpt lat="44.44175" lon="4.34595">
        <ele>118</ele>
        <time>2018-05-16T09:16:26.1Z</time>
      </trkpt>
      <trkpt lat="44.44186" lon="4.34608">
        <ele>117</ele>
        <time>2018-05-16T09:16:29.1Z</time>
      </trkpt>
      <trkpt lat="44.44196" lon="4.3462">
        <ele>118</ele>
        <time>2018-05-16T09:16:32.1Z</time>
      </trkpt>
      <trkpt lat="44.44207" lon="4.34633">
        <ele>118</ele>
        <time>2018-05-16T09:16:35.1Z</time>
      </trkpt>
      <trkpt lat="44.44214" lon="4.34642">
        <ele>119</ele>
        <time>2018-05-16T09:16:37.1Z</time>
      </trkpt>
      <trkpt lat="44.44225" lon="4.34656">
        <ele>119</ele>
        <time>2018-05-16T09:16:40.1Z</time>
      </trkpt>
      <trkpt lat="44.44236" lon="4.34669">
        <ele>120</ele>
        <time>2018-05-16T09:16:43.1Z</time>
      </trkpt>
      <trkpt lat="44.44243" lon="4.34678">
        <ele>121</ele>
        <time>2018-05-16T09:16:45.1Z</time>
      </trkpt>
      <trkpt lat="44.44253" lon="4.3469">
        <ele>121</ele>
        <time>2018-05-16T09:16:48.1Z</time>
      </trkpt>
      <trkpt lat="44.44264" lon="4.34704">
        <ele>122</ele>
        <time>2018-05-16T09:16:51.1Z</time>
      </trkpt>
      <trkpt lat="44.44274" lon="4.34718">
        <ele>121</ele>
        <time>2018-05-16T09:16:54.1Z</time>
      </trkpt>
      <trkpt lat="44.44281" lon="4.34727">
        <ele>121</ele>
        <time>2018-05-16T09:16:56.1Z</time>
      </trkpt>
      <trkpt lat="44.4429" lon="4.34743">
        <ele>121</ele>
        <time>2018-05-16T09:16:59.1Z</time>
      </trkpt>
      <trkpt lat="44.44293" lon="4.34756">
        <ele>121</ele>
        <time>2018-05-16T09:17:01.1Z</time>
      </trkpt>
      <trkpt lat="44.44301" lon="4.34773">
        <ele>121</ele>
        <time>2018-05-16T09:17:04.1Z</time>
      </trkpt>
      <trkpt lat="44.4431" lon="4.34777">
        <ele>121</ele>
        <time>2018-05-16T09:17:06.1Z</time>
      </trkpt>
      <trkpt lat="44.44321" lon="4.34772">
        <ele>121</ele>
        <time>2018-05-16T09:17:09.1Z</time>
      </trkpt>
      <trkpt lat="44.44327" lon="4.34757">
        <ele>119</ele>
        <time>2018-05-16T09:17:12.1Z</time>
      </trkpt>
      <trkpt lat="44.4433" lon="4.34749">
        <ele>118</ele>
        <time>2018-05-16T09:17:14.1Z</time>
      </trkpt>
      <trkpt lat="44.44334" lon="4.34749">
        <ele>119</ele>
        <time>2018-05-16T09:17:16.1Z</time>
      </trkpt>
      <trkpt lat="44.44338" lon="4.34756">
        <ele>119</ele>
        <time>2018-05-16T09:17:19.1Z</time>
      </trkpt>
      <trkpt lat="44.44339" lon="4.34756">
        <ele>119</ele>
        <time>2018-05-16T09:17:21.1Z</time>
      </trkpt>
      <trkpt lat="44.44339" lon="4.34757">
        <ele>119</ele>
        <time>2018-05-16T09:17:24.1Z</time>
      </trkpt>
      <trkpt lat="44.44339" lon="4.34757">
        <ele>119</ele>
        <time>2018-05-16T09:17:26.1Z</time>
      </trkpt>
      <trkpt lat="44.44343" lon="4.34759">
        <ele>119</ele>
        <time>2018-05-16T09:17:29.1Z</time>
      </trkpt>
      <trkpt lat="44.44348" lon="4.34764">
        <ele>120</ele>
        <time>2018-05-16T09:17:32.1Z</time>
      </trkpt>
      <trkpt lat="44.44353" lon="4.34768">
        <ele>121</ele>
        <time>2018-05-16T09:17:34.1Z</time>
      </trkpt>
      <trkpt lat="44.44359" lon="4.34771">
        <ele>121</ele>
        <time>2018-05-16T09:17:36.1Z</time>
      </trkpt>
      <trkpt lat="44.44368" lon="4.34778">
        <ele>122</ele>
        <time>2018-05-16T09:17:39.1Z</time>
      </trkpt>
      <trkpt lat="44.44375" lon="4.34783">
        <ele>122</ele>
        <time>2018-05-16T09:17:41.1Z</time>
      </trkpt>
      <trkpt lat="44.44381" lon="4.34788">
        <ele>122</ele>
        <time>2018-05-16T09:17:43.1Z</time>
      </trkpt>
      <trkpt lat="44.44392" lon="4.34796">
        <ele>122</ele>
        <time>2018-05-16T09:17:46.1Z</time>
      </trkpt>
      <trkpt lat="44.44404" lon="4.34802">
        <ele>123</ele>
        <time>2018-05-16T09:17:49.1Z</time>
      </trkpt>
      <trkpt lat="44.44412" lon="4.34806">
        <ele>124</ele>
        <time>2018-05-16T09:17:51.1Z</time>
      </trkpt>
      <trkpt lat="44.4442" lon="4.34809">
        <ele>124</ele>
        <time>2018-05-16T09:17:53.1Z</time>
      </trkpt>
      <trkpt lat="44.44429" lon="4.34813">
        <ele>124</ele>
        <time>2018-05-16T09:17:55.1Z</time>
      </trkpt>
      <trkpt lat="44.44437" lon="4.34817">
        <ele>124</ele>
        <time>2018-05-16T09:17:57.1Z</time>
      </trkpt>
      <trkpt lat="44.44451" lon="4.34822">
        <ele>123</ele>
        <time>2018-05-16T09:18:00.1Z</time>
      </trkpt>
      <trkpt lat="44.44463" lon="4.34828">
        <ele>123</ele>
        <time>2018-05-16T09:18:03.1Z</time>
      </trkpt>
      <trkpt lat="44.44472" lon="4.34831">
        <ele>123</ele>
        <time>2018-05-16T09:18:05.1Z</time>
      </trkpt>
      <trkpt lat="44.44481" lon="4.34835">
        <ele>122</ele>
        <time>2018-05-16T09:18:07.1Z</time>
      </trkpt>
      <trkpt lat="44.4449" lon="4.34838">
        <ele>122</ele>
        <time>2018-05-16T09:18:09.1Z</time>
      </trkpt>
      <trkpt lat="44.44498" lon="4.3484">
        <ele>122</ele>
        <time>2018-05-16T09:18:11.1Z</time>
      </trkpt>
      <trkpt lat="44.44511" lon="4.34842">
        <ele>122</ele>
        <time>2018-05-16T09:18:14.1Z</time>
      </trkpt>
      <trkpt lat="44.4452" lon="4.34842">
        <ele>122</ele>
        <time>2018-05-16T09:18:16.1Z</time>
      </trkpt>
      <trkpt lat="44.44527" lon="4.34843">
        <ele>122</ele>
        <time>2018-05-16T09:18:18.1Z</time>
      </trkpt>
      <trkpt lat="44.4454" lon="4.34848">
        <ele>121</ele>
        <time>2018-05-16T09:18:21.1Z</time>
      </trkpt>
      <trkpt lat="44.4455" lon="4.34853">
        <ele>121</ele>
        <time>2018-05-16T09:18:23.1Z</time>
      </trkpt>
      <trkpt lat="44.44562" lon="4.34862">
        <ele>120</ele>
        <time>2018-05-16T09:18:26.1Z</time>
      </trkpt>
      <trkpt lat="44.44573" lon="4.34868">
        <ele>119</ele>
        <time>2018-05-16T09:18:29.1Z</time>
      </trkpt>
      <trkpt lat="44.44583" lon="4.3487">
        <ele>119</ele>
        <time>2018-05-16T09:18:31.1Z</time>
      </trkpt>
      <trkpt lat="44.44592" lon="4.34872">
        <ele>119</ele>
        <time>2018-05-16T09:18:33.1Z</time>
      </trkpt>
      <trkpt lat="44.44601" lon="4.34874">
        <ele>119</ele>
        <time>2018-05-16T09:18:35.1Z</time>
      </trkpt>
      <trkpt lat="44.4461" lon="4.34875">
        <ele>119</ele>
        <time>2018-05-16T09:18:37.1Z</time>
      </trkpt>
      <trkpt lat="44.44624" lon="4.34877">
        <ele>119</ele>
        <time>2018-05-16T09:18:40.1Z</time>
      </trkpt>
      <trkpt lat="44.44635" lon="4.34878">
        <ele>119</ele>
        <time>2018-05-16T09:18:42.1Z</time>
      </trkpt>
      <trkpt lat="44.44644" lon="4.34879">
        <ele>119</ele>
        <time>2018-05-16T09:18:44.1Z</time>
      </trkpt>
      <trkpt lat="44.44661" lon="4.34882">
        <ele>119</ele>
        <time>2018-05-16T09:18:47.1Z</time>
      </trkpt>
      <trkpt lat="44.44672" lon="4.34882">
        <ele>120</ele>
        <time>2018-05-16T09:18:49.1Z</time>
      </trkpt>
      <trkpt lat="44.44682" lon="4.34883">
        <ele>121</ele>
        <time>2018-05-16T09:18:51.1Z</time>
      </trkpt>
      <trkpt lat="44.44693" lon="4.34882">
        <ele>120</ele>
        <time>2018-05-16T09:18:53.1Z</time>
      </trkpt>
      <trkpt lat="44.44703" lon="4.34882">
        <ele>121</ele>
        <time>2018-05-16T09:18:55.1Z</time>
      </trkpt>
      <trkpt lat="44.44714" lon="4.34882">
        <ele>120</ele>
        <time>2018-05-16T09:18:57.1Z</time>
      </trkpt>
      <trkpt lat="44.4473" lon="4.34882">
        <ele>120</ele>
        <time>2018-05-16T09:19:00.1Z</time>
      </trkpt>
      <trkpt lat="44.44746" lon="4.34881">
        <ele>120</ele>
        <time>2018-05-16T09:19:03.1Z</time>
      </trkpt>
      <trkpt lat="44.44756" lon="4.3488">
        <ele>120</ele>
        <time>2018-05-16T09:19:05.1Z</time>
      </trkpt>
      <trkpt lat="44.44767" lon="4.34879">
        <ele>120</ele>
        <time>2018-05-16T09:19:07.1Z</time>
      </trkpt>
      <trkpt lat="44.44783" lon="4.34876">
        <ele>121</ele>
        <time>2018-05-16T09:19:10.1Z</time>
      </trkpt>
      <trkpt lat="44.44794" lon="4.34874">
        <ele>121</ele>
        <time>2018-05-16T09:19:12.1Z</time>
      </trkpt>
      <trkpt lat="44.44805" lon="4.34872">
        <ele>121</ele>
        <time>2018-05-16T09:19:14.1Z</time>
      </trkpt>
      <trkpt lat="44.44822" lon="4.34869">
        <ele>121</ele>
        <time>2018-05-16T09:19:17.1Z</time>
      </trkpt>
      <trkpt lat="44.44832" lon="4.34866">
        <ele>121</ele>
        <time>2018-05-16T09:19:19.1Z</time>
      </trkpt>
      <trkpt lat="44.44842" lon="4.34863">
        <ele>121</ele>
        <time>2018-05-16T09:19:21.1Z</time>
      </trkpt>
      <trkpt lat="44.44851" lon="4.3486">
        <ele>121</ele>
        <time>2018-05-16T09:19:23.1Z</time>
      </trkpt>
      <trkpt lat="44.4486" lon="4.34858">
        <ele>121</ele>
        <time>2018-05-16T09:19:25.1Z</time>
      </trkpt>
      <trkpt lat="44.44869" lon="4.34857">
        <ele>122</ele>
        <time>2018-05-16T09:19:27.1Z</time>
      </trkpt>
      <trkpt lat="44.44882" lon="4.34852">
        <ele>121</ele>
        <time>2018-05-16T09:19:30.1Z</time>
      </trkpt>
      <trkpt lat="44.44892" lon="4.34849">
        <ele>121</ele>
        <time>2018-05-16T09:19:32.1Z</time>
      </trkpt>
      <trkpt lat="44.44906" lon="4.34844">
        <ele>121</ele>
        <time>2018-05-16T09:19:35.1Z</time>
      </trkpt>
      <trkpt lat="44.44915" lon="4.3484">
        <ele>121</ele>
        <time>2018-05-16T09:19:37.1Z</time>
      </trkpt>
      <trkpt lat="44.44929" lon="4.34834">
        <ele>120</ele>
        <time>2018-05-16T09:19:40.1Z</time>
      </trkpt>
      <trkpt lat="44.44941" lon="4.34828">
        <ele>120</ele>
        <time>2018-05-16T09:19:43.1Z</time>
      </trkpt>
      <trkpt lat="44.44954" lon="4.3482">
        <ele>120</ele>
        <time>2018-05-16T09:19:46.1Z</time>
      </trkpt>
      <trkpt lat="44.44961" lon="4.34815">
        <ele>120</ele>
        <time>2018-05-16T09:19:48.1Z</time>
      </trkpt>
      <trkpt lat="44.4497" lon="4.34812">
        <ele>120</ele>
        <time>2018-05-16T09:19:50.1Z</time>
      </trkpt>
      <trkpt lat="44.44977" lon="4.34806">
        <ele>120</ele>
        <time>2018-05-16T09:19:52.1Z</time>
      </trkpt>
      <trkpt lat="44.44986" lon="4.34794">
        <ele>119</ele>
        <time>2018-05-16T09:19:55.1Z</time>
      </trkpt>
      <trkpt lat="44.4499" lon="4.34785">
        <ele>119</ele>
        <time>2018-05-16T09:19:57.1Z</time>
      </trkpt>
      <trkpt lat="44.44996" lon="4.34772">
        <ele>119</ele>
        <time>2018-05-16T09:20:00.1Z</time>
      </trkpt>
      <trkpt lat="44.45003" lon="4.34767">
        <ele>119</ele>
        <time>2018-05-16T09:20:02.1Z</time>
      </trkpt>
      <trkpt lat="44.45015" lon="4.34764">
        <ele>120</ele>
        <time>2018-05-16T09:20:05.1Z</time>
      </trkpt>
      <trkpt lat="44.45026" lon="4.34762">
        <ele>120</ele>
        <time>2018-05-16T09:20:08.1Z</time>
      </trkpt>
      <trkpt lat="44.45031" lon="4.34754">
        <ele>119</ele>
        <time>2018-05-16T09:20:11.1Z</time>
      </trkpt>
      <trkpt lat="44.45035" lon="4.34752">
        <ele>119</ele>
        <time>2018-05-16T09:20:13.1Z</time>
      </trkpt>
      <trkpt lat="44.4504" lon="4.34755">
        <ele>119</ele>
        <time>2018-05-16T09:20:15.1Z</time>
      </trkpt>
      <trkpt lat="44.45047" lon="4.34758">
        <ele>119</ele>
        <time>2018-05-16T09:20:18.1Z</time>
      </trkpt>
      <trkpt lat="44.45055" lon="4.34754">
        <ele>119</ele>
        <time>2018-05-16T09:20:21.1Z</time>
      </trkpt>
      <trkpt lat="44.45065" lon="4.34748">
        <ele>120</ele>
        <time>2018-05-16T09:20:24.1Z</time>
      </trkpt>
      <trkpt lat="44.45074" lon="4.3474">
        <ele>120</ele>
        <time>2018-05-16T09:20:27.1Z</time>
      </trkpt>
      <trkpt lat="44.45085" lon="4.34732">
        <ele>120</ele>
        <time>2018-05-16T09:20:30.1Z</time>
      </trkpt>
      <trkpt lat="44.45092" lon="4.34726">
        <ele>120</ele>
        <time>2018-05-16T09:20:32.1Z</time>
      </trkpt>
      <trkpt lat="44.45099" lon="4.34721">
        <ele>120</ele>
        <time>2018-05-16T09:20:34.1Z</time>
      </trkpt>
      <trkpt lat="44.45106" lon="4.34715">
        <ele>120</ele>
        <time>2018-05-16T09:20:36.1Z</time>
      </trkpt>
      <trkpt lat="44.45112" lon="4.3471">
        <ele>120</ele>
        <time>2018-05-16T09:20:38.1Z</time>
      </trkpt>
      <trkpt lat="44.4512" lon="4.34702">
        <ele>120</ele>
        <time>2018-05-16T09:20:41.1Z</time>
      </trkpt>
      <trkpt lat="44.45122" lon="4.34702">
        <ele>120</ele>
        <time>2018-05-16T09:20:43.1Z</time>
      </trkpt>
      <trkpt lat="44.45123" lon="4.34702">
        <ele>119</ele>
        <time>2018-05-16T09:20:46.1Z</time>
      </trkpt>
      <trkpt lat="44.45125" lon="4.34704">
        <ele>119</ele>
        <time>2018-05-16T09:20:48.1Z</time>
      </trkpt>
      <trkpt lat="44.45127" lon="4.34708">
        <ele>119</ele>
        <time>2018-05-16T09:20:50.1Z</time>
      </trkpt>
      <trkpt lat="44.4513" lon="4.34711">
        <ele>119</ele>
        <time>2018-05-16T09:20:52.1Z</time>
      </trkpt>
      <trkpt lat="44.45134" lon="4.34707">
        <ele>119</ele>
        <time>2018-05-16T09:20:54.1Z</time>
      </trkpt>
      <trkpt lat="44.45139" lon="4.34703">
        <ele>119</ele>
        <time>2018-05-16T09:20:56.1Z</time>
      </trkpt>
      <trkpt lat="44.45145" lon="4.34699">
        <ele>119</ele>
        <time>2018-05-16T09:20:58.1Z</time>
      </trkpt>
      <trkpt lat="44.4515" lon="4.34694">
        <ele>120</ele>
        <time>2018-05-16T09:21:00.1Z</time>
      </trkpt>
      <trkpt lat="44.45161" lon="4.34687">
        <ele>120</ele>
        <time>2018-05-16T09:21:03.1Z</time>
      </trkpt>
      <trkpt lat="44.45168" lon="4.34681">
        <ele>120</ele>
        <time>2018-05-16T09:21:05.1Z</time>
      </trkpt>
      <trkpt lat="44.45178" lon="4.34672">
        <ele>120</ele>
        <time>2018-05-16T09:21:08.1Z</time>
      </trkpt>
      <trkpt lat="44.45185" lon="4.34666">
        <ele>120</ele>
        <time>2018-05-16T09:21:10.1Z</time>
      </trkpt>
      <trkpt lat="44.45195" lon="4.34658">
        <ele>120</ele>
        <time>2018-05-16T09:21:13.1Z</time>
      </trkpt>
      <trkpt lat="44.45206" lon="4.3465">
        <ele>121</ele>
        <time>2018-05-16T09:21:16.1Z</time>
      </trkpt>
      <trkpt lat="44.45216" lon="4.34641">
        <ele>120</ele>
        <time>2018-05-16T09:21:19.1Z</time>
      </trkpt>
      <trkpt lat="44.45226" lon="4.34632">
        <ele>120</ele>
        <time>2018-05-16T09:21:22.1Z</time>
      </trkpt>
      <trkpt lat="44.45232" lon="4.34625">
        <ele>120</ele>
        <time>2018-05-16T09:21:24.1Z</time>
      </trkpt>
      <trkpt lat="44.45242" lon="4.34613">
        <ele>120</ele>
        <time>2018-05-16T09:21:27.1Z</time>
      </trkpt>
      <trkpt lat="44.4525" lon="4.34606">
        <ele>120</ele>
        <time>2018-05-16T09:21:29.1Z</time>
      </trkpt>
      <trkpt lat="44.45262" lon="4.34597">
        <ele>120</ele>
        <time>2018-05-16T09:21:32.1Z</time>
      </trkpt>
      <trkpt lat="44.4527" lon="4.3459">
        <ele>121</ele>
        <time>2018-05-16T09:21:34.1Z</time>
      </trkpt>
      <trkpt lat="44.45278" lon="4.34584">
        <ele>121</ele>
        <time>2018-05-16T09:21:36.1Z</time>
      </trkpt>
      <trkpt lat="44.45286" lon="4.34577">
        <ele>121</ele>
        <time>2018-05-16T09:21:38.1Z</time>
      </trkpt>
      <trkpt lat="44.45294" lon="4.34571">
        <ele>122</ele>
        <time>2018-05-16T09:21:40.1Z</time>
      </trkpt>
      <trkpt lat="44.45303" lon="4.34564">
        <ele>121</ele>
        <time>2018-05-16T09:21:42.1Z</time>
      </trkpt>
      <trkpt lat="44.45311" lon="4.34557">
        <ele>121</ele>
        <time>2018-05-16T09:21:44.1Z</time>
      </trkpt>
      <trkpt lat="44.45319" lon="4.3455">
        <ele>121</ele>
        <time>2018-05-16T09:21:46.1Z</time>
      </trkpt>
      <trkpt lat="44.45332" lon="4.3454">
        <ele>121</ele>
        <time>2018-05-16T09:21:49.1Z</time>
      </trkpt>
      <trkpt lat="44.45344" lon="4.34528">
        <ele>121</ele>
        <time>2018-05-16T09:21:52.1Z</time>
      </trkpt>
      <trkpt lat="44.45356" lon="4.34517">
        <ele>120</ele>
        <time>2018-05-16T09:21:55.1Z</time>
      </trkpt>
      <trkpt lat="44.45369" lon="4.34506">
        <ele>120</ele>
        <time>2018-05-16T09:21:58.1Z</time>
      </trkpt>
      <trkpt lat="44.4538" lon="4.34497">
        <ele>120</ele>
        <time>2018-05-16T09:22:01.1Z</time>
      </trkpt>
      <trkpt lat="44.4539" lon="4.34487">
        <ele>120</ele>
        <time>2018-05-16T09:22:04.1Z</time>
      </trkpt>
      <trkpt lat="44.45398" lon="4.34482">
        <ele>120</ele>
        <time>2018-05-16T09:22:06.1Z</time>
      </trkpt>
      <trkpt lat="44.45408" lon="4.34474">
        <ele>120</ele>
        <time>2018-05-16T09:22:09.1Z</time>
      </trkpt>
      <trkpt lat="44.45415" lon="4.34468">
        <ele>120</ele>
        <time>2018-05-16T09:22:11.1Z</time>
      </trkpt>
      <trkpt lat="44.45421" lon="4.34462">
        <ele>120</ele>
        <time>2018-05-16T09:22:13.1Z</time>
      </trkpt>
      <trkpt lat="44.45428" lon="4.34457">
        <ele>120</ele>
        <time>2018-05-16T09:22:15.1Z</time>
      </trkpt>
      <trkpt lat="44.45435" lon="4.3445">
        <ele>120</ele>
        <time>2018-05-16T09:22:17.1Z</time>
      </trkpt>
      <trkpt lat="44.45441" lon="4.34444">
        <ele>121</ele>
        <time>2018-05-16T09:22:19.1Z</time>
      </trkpt>
      <trkpt lat="44.45448" lon="4.34439">
        <ele>121</ele>
        <time>2018-05-16T09:22:21.1Z</time>
      </trkpt>
      <trkpt lat="44.45455" lon="4.34433">
        <ele>122</ele>
        <time>2018-05-16T09:22:23.1Z</time>
      </trkpt>
      <trkpt lat="44.45464" lon="4.34424">
        <ele>122</ele>
        <time>2018-05-16T09:22:26.1Z</time>
      </trkpt>
      <trkpt lat="44.45473" lon="4.34416">
        <ele>123</ele>
        <time>2018-05-16T09:22:29.1Z</time>
      </trkpt>
      <trkpt lat="44.45484" lon="4.34408">
        <ele>123</ele>
        <time>2018-05-16T09:22:32.1Z</time>
      </trkpt>
      <trkpt lat="44.45494" lon="4.34398">
        <ele>123</ele>
        <time>2018-05-16T09:22:35.1Z</time>
      </trkpt>
      <trkpt lat="44.45505" lon="4.34389">
        <ele>123</ele>
        <time>2018-05-16T09:22:38.1Z</time>
      </trkpt>
      <trkpt lat="44.45512" lon="4.34383">
        <ele>123</ele>
        <time>2018-05-16T09:22:40.1Z</time>
      </trkpt>
      <trkpt lat="44.45522" lon="4.34374">
        <ele>123</ele>
        <time>2018-05-16T09:22:43.1Z</time>
      </trkpt>
      <trkpt lat="44.45528" lon="4.34369">
        <ele>122</ele>
        <time>2018-05-16T09:22:45.1Z</time>
      </trkpt>
      <trkpt lat="44.45536" lon="4.34363">
        <ele>123</ele>
        <time>2018-05-16T09:22:48.1Z</time>
      </trkpt>
      <trkpt lat="44.45539" lon="4.34359">
        <ele>122</ele>
        <time>2018-05-16T09:22:50.1Z</time>
      </trkpt>
      <trkpt lat="44.45541" lon="4.34352">
        <ele>122</ele>
        <time>2018-05-16T09:22:53.1Z</time>
      </trkpt>
      <trkpt lat="44.4554" lon="4.34344">
        <ele>122</ele>
        <time>2018-05-16T09:22:56.1Z</time>
      </trkpt>
      <trkpt lat="44.45537" lon="4.3434">
        <ele>122</ele>
        <time>2018-05-16T09:22:58.1Z</time>
      </trkpt>
      <trkpt lat="44.45533" lon="4.34336">
        <ele>122</ele>
        <time>2018-05-16T09:23:00.1Z</time>
      </trkpt>
      <trkpt lat="44.45523" lon="4.34328">
        <ele>122</ele>
        <time>2018-05-16T09:23:03.1Z</time>
      </trkpt>
      <trkpt lat="44.45514" lon="4.34322">
        <ele>121</ele>
        <time>2018-05-16T09:23:05.1Z</time>
      </trkpt>
      <trkpt lat="44.45501" lon="4.3431">
        <ele>121</ele>
        <time>2018-05-16T09:23:08.1Z</time>
      </trkpt>
      <trkpt lat="44.45485" lon="4.34297">
        <ele>121</ele>
        <time>2018-05-16T09:23:11.1Z</time>
      </trkpt>
      <trkpt lat="44.4547" lon="4.34281">
        <ele>121</ele>
        <time>2018-05-16T09:23:14.1Z</time>
      </trkpt>
      <trkpt lat="44.45459" lon="4.34271">
        <ele>121</ele>
        <time>2018-05-16T09:23:16.1Z</time>
      </trkpt>
      <trkpt lat="44.45449" lon="4.34259">
        <ele>120</ele>
        <time>2018-05-16T09:23:18.1Z</time>
      </trkpt>
      <trkpt lat="44.45438" lon="4.34247">
        <ele>120</ele>
        <time>2018-05-16T09:23:20.1Z</time>
      </trkpt>
      <trkpt lat="44.45425" lon="4.34231">
        <ele>120</ele>
        <time>2018-05-16T09:23:23.1Z</time>
      </trkpt>
      <trkpt lat="44.45414" lon="4.3422">
        <ele>119</ele>
        <time>2018-05-16T09:23:26.1Z</time>
      </trkpt>
      <trkpt lat="44.45406" lon="4.34214">
        <ele>118</ele>
        <time>2018-05-16T09:23:28.1Z</time>
      </trkpt>
      <trkpt lat="44.45394" lon="4.34208">
        <ele>118</ele>
        <time>2018-05-16T09:23:31.1Z</time>
      </trkpt>
      <trkpt lat="44.45386" lon="4.34202">
        <ele>118</ele>
        <time>2018-05-16T09:23:33.1Z</time>
      </trkpt>
      <trkpt lat="44.45375" lon="4.34193">
        <ele>118</ele>
        <time>2018-05-16T09:23:36.1Z</time>
      </trkpt>
      <trkpt lat="44.45364" lon="4.34184">
        <ele>118</ele>
        <time>2018-05-16T09:23:39.1Z</time>
      </trkpt>
      <trkpt lat="44.45359" lon="4.34178">
        <ele>117</ele>
        <time>2018-05-16T09:23:42.1Z</time>
      </trkpt>
      <trkpt lat="44.45356" lon="4.34174">
        <ele>116</ele>
        <time>2018-05-16T09:23:45.1Z</time>
      </trkpt>
      <trkpt lat="44.45355" lon="4.34173">
        <ele>115</ele>
        <time>2018-05-16T09:23:47.1Z</time>
      </trkpt>
      <trkpt lat="44.45354" lon="4.34172">
        <ele>115</ele>
        <time>2018-05-16T09:23:50.1Z</time>
      </trkpt>
      <trkpt lat="44.45354" lon="4.3417">
        <ele>115</ele>
        <time>2018-05-16T09:23:52.1Z</time>
      </trkpt>
      <trkpt lat="44.45351" lon="4.34168">
        <ele>116</ele>
        <time>2018-05-16T09:23:55.1Z</time>
      </trkpt>
      <trkpt lat="44.45346" lon="4.34169">
        <ele>117</ele>
        <time>2018-05-16T09:23:58.1Z</time>
      </trkpt>
      <trkpt lat="44.45343" lon="4.3417">
        <ele>117</ele>
        <time>2018-05-16T09:24:00.1Z</time>
      </trkpt>
      <trkpt lat="44.45343" lon="4.34169">
        <ele>117</ele>
        <time>2018-05-16T09:24:02.1Z</time>
      </trkpt>
      <trkpt lat="44.4534" lon="4.34171">
        <ele>117</ele>
        <time>2018-05-16T09:24:05.1Z</time>
      </trkpt>
      <trkpt lat="44.45336" lon="4.34175">
        <ele>117</ele>
        <time>2018-05-16T09:24:08.1Z</time>
      </trkpt>
      <trkpt lat="44.45333" lon="4.34177">
        <ele>117</ele>
        <time>2018-05-16T09:24:10.1Z</time>
      </trkpt>
      <trkpt lat="44.4533" lon="4.34178">
        <ele>117</ele>
        <time>2018-05-16T09:24:12.1Z</time>
      </trkpt>
      <trkpt lat="44.45326" lon="4.3418">
        <ele>117</ele>
        <time>2018-05-16T09:24:15.1Z</time>
      </trkpt>
      <trkpt lat="44.45323" lon="4.34183">
        <ele>117</ele>
        <time>2018-05-16T09:24:17.1Z</time>
      </trkpt>
      <trkpt lat="44.45317" lon="4.34185">
        <ele>117</ele>
        <time>2018-05-16T09:24:20.1Z</time>
      </trkpt>
      <trkpt lat="44.45313" lon="4.34187">
        <ele>116</ele>
        <time>2018-05-16T09:24:23.1Z</time>
      </trkpt>
      <trkpt lat="44.45307" lon="4.34191">
        <ele>117</ele>
        <time>2018-05-16T09:24:26.1Z</time>
      </trkpt>
      <trkpt lat="44.45305" lon="4.34192">
        <ele>116</ele>
        <time>2018-05-16T09:24:29.1Z</time>
      </trkpt>
      <trkpt lat="44.45306" lon="4.34191">
        <ele>116</ele>
        <time>2018-05-16T09:24:31.1Z</time>
      </trkpt>
      <trkpt lat="44.45308" lon="4.34191">
        <ele>116</ele>
        <time>2018-05-16T09:24:33.1Z</time>
      </trkpt>
      <trkpt lat="44.45309" lon="4.3419">
        <ele>115</ele>
        <time>2018-05-16T09:24:35.1Z</time>
      </trkpt>
      <trkpt lat="44.45309" lon="4.34191">
        <ele>115</ele>
        <time>2018-05-16T09:24:38.1Z</time>
      </trkpt>
      <trkpt lat="44.4531" lon="4.3419">
        <ele>115</ele>
        <time>2018-05-16T09:24:41.1Z</time>
      </trkpt>
      <trkpt lat="44.45309" lon="4.34188">
        <ele>115</ele>
        <time>2018-05-16T09:24:43.1Z</time>
      </trkpt>
      <trkpt lat="44.45306" lon="4.34179">
        <ele>115</ele>
        <time>2018-05-16T09:24:46.1Z</time>
      </trkpt>
      <trkpt lat="44.45305" lon="4.3417">
        <ele>114</ele>
        <time>2018-05-16T09:24:48.1Z</time>
      </trkpt>
      <trkpt lat="44.45304" lon="4.34161">
        <ele>114</ele>
        <time>2018-05-16T09:24:51.1Z</time>
      </trkpt>
      <trkpt lat="44.453" lon="4.34158">
        <ele>114</ele>
        <time>2018-05-16T09:24:53.1Z</time>
      </trkpt>
      <trkpt lat="44.45296" lon="4.34155">
        <ele>113</ele>
        <time>2018-05-16T09:24:55.1Z</time>
      </trkpt>
      <trkpt lat="44.45288" lon="4.34146">
        <ele>113</ele>
        <time>2018-05-16T09:24:58.1Z</time>
      </trkpt>
      <trkpt lat="44.45282" lon="4.3414">
        <ele>113</ele>
        <time>2018-05-16T09:25:00.1Z</time>
      </trkpt>
      <trkpt lat="44.45275" lon="4.34134">
        <ele>113</ele>
        <time>2018-05-16T09:25:02.1Z</time>
      </trkpt>
      <trkpt lat="44.45269" lon="4.34127">
        <ele>113</ele>
        <time>2018-05-16T09:25:04.1Z</time>
      </trkpt>
      <trkpt lat="44.45263" lon="4.3412">
        <ele>113</ele>
        <time>2018-05-16T09:25:06.1Z</time>
      </trkpt>
      <trkpt lat="44.45256" lon="4.34113">
        <ele>113</ele>
        <time>2018-05-16T09:25:08.1Z</time>
      </trkpt>
      <trkpt lat="44.45247" lon="4.34103">
        <ele>113</ele>
        <time>2018-05-16T09:25:11.1Z</time>
      </trkpt>
      <trkpt lat="44.45236" lon="4.34093">
        <ele>113</ele>
        <time>2018-05-16T09:25:14.1Z</time>
      </trkpt>
      <trkpt lat="44.45229" lon="4.34083">
        <ele>113</ele>
        <time>2018-05-16T09:25:16.1Z</time>
      </trkpt>
      <trkpt lat="44.45218" lon="4.34066">
        <ele>113</ele>
        <time>2018-05-16T09:25:19.1Z</time>
      </trkpt>
      <trkpt lat="44.45208" lon="4.34049">
        <ele>112</ele>
        <time>2018-05-16T09:25:22.1Z</time>
      </trkpt>
      <trkpt lat="44.45201" lon="4.34038">
        <ele>112</ele>
        <time>2018-05-16T09:25:24.1Z</time>
      </trkpt>
      <trkpt lat="44.45189" lon="4.34022">
        <ele>112</ele>
        <time>2018-05-16T09:25:27.1Z</time>
      </trkpt>
      <trkpt lat="44.45177" lon="4.34005">
        <ele>113</ele>
        <time>2018-05-16T09:25:30.1Z</time>
      </trkpt>
      <trkpt lat="44.45168" lon="4.33993">
        <ele>112</ele>
        <time>2018-05-16T09:25:32.1Z</time>
      </trkpt>
      <trkpt lat="44.45155" lon="4.33977">
        <ele>112</ele>
        <time>2018-05-16T09:25:35.1Z</time>
      </trkpt>
      <trkpt lat="44.45142" lon="4.33959">
        <ele>112</ele>
        <time>2018-05-16T09:25:38.1Z</time>
      </trkpt>
      <trkpt lat="44.45133" lon="4.33949">
        <ele>111</ele>
        <time>2018-05-16T09:25:40.1Z</time>
      </trkpt>
      <trkpt lat="44.45124" lon="4.33938">
        <ele>111</ele>
        <time>2018-05-16T09:25:42.1Z</time>
      </trkpt>
      <trkpt lat="44.45111" lon="4.33922">
        <ele>110</ele>
        <time>2018-05-16T09:25:45.1Z</time>
      </trkpt>
      <trkpt lat="44.45099" lon="4.33906">
        <ele>110</ele>
        <time>2018-05-16T09:25:48.1Z</time>
      </trkpt>
      <trkpt lat="44.45091" lon="4.33894">
        <ele>110</ele>
        <time>2018-05-16T09:25:50.1Z</time>
      </trkpt>
      <trkpt lat="44.45079" lon="4.33878">
        <ele>111</ele>
        <time>2018-05-16T09:25:53.1Z</time>
      </trkpt>
      <trkpt lat="44.45068" lon="4.33862">
        <ele>111</ele>
        <time>2018-05-16T09:25:56.1Z</time>
      </trkpt>
      <trkpt lat="44.45067" lon="4.33844">
        <ele>109</ele>
        <time>2018-05-16T09:25:59.1Z</time>
      </trkpt>
      <trkpt lat="44.45077" lon="4.33826">
        <ele>109</ele>
        <time>2018-05-16T09:26:02.1Z</time>
      </trkpt>
      <trkpt lat="44.45083" lon="4.33815">
        <ele>109</ele>
        <time>2018-05-16T09:26:04.1Z</time>
      </trkpt>
      <trkpt lat="44.45093" lon="4.33796">
        <ele>110</ele>
        <time>2018-05-16T09:26:07.1Z</time>
      </trkpt>
      <trkpt lat="44.45102" lon="4.33784">
        <ele>110</ele>
        <time>2018-05-16T09:26:09.1Z</time>
      </trkpt>
      <trkpt lat="44.45116" lon="4.33764">
        <ele>109</ele>
        <time>2018-05-16T09:26:12.1Z</time>
      </trkpt>
      <trkpt lat="44.45124" lon="4.33751">
        <ele>109</ele>
        <time>2018-05-16T09:26:14.1Z</time>
      </trkpt>
      <trkpt lat="44.45133" lon="4.3374">
        <ele>109</ele>
        <time>2018-05-16T09:26:16.1Z</time>
      </trkpt>
      <trkpt lat="44.45142" lon="4.3373">
        <ele>109</ele>
        <time>2018-05-16T09:26:18.1Z</time>
      </trkpt>
      <trkpt lat="44.45152" lon="4.33722">
        <ele>109</ele>
        <time>2018-05-16T09:26:20.1Z</time>
      </trkpt>
      <trkpt lat="44.45162" lon="4.33714">
        <ele>110</ele>
        <time>2018-05-16T09:26:22.1Z</time>
      </trkpt>
      <trkpt lat="44.45177" lon="4.33704">
        <ele>110</ele>
        <time>2018-05-16T09:26:25.1Z</time>
      </trkpt>
      <trkpt lat="44.45193" lon="4.33694">
        <ele>110</ele>
        <time>2018-05-16T09:26:28.1Z</time>
      </trkpt>
      <trkpt lat="44.45208" lon="4.33684">
        <ele>110</ele>
        <time>2018-05-16T09:26:31.1Z</time>
      </trkpt>
      <trkpt lat="44.45218" lon="4.33678">
        <ele>110</ele>
        <time>2018-05-16T09:26:33.1Z</time>
      </trkpt>
      <trkpt lat="44.45233" lon="4.3367">
        <ele>109</ele>
        <time>2018-05-16T09:26:36.1Z</time>
      </trkpt>
      <trkpt lat="44.45243" lon="4.33664">
        <ele>110</ele>
        <time>2018-05-16T09:26:38.1Z</time>
      </trkpt>
      <trkpt lat="44.45253" lon="4.33657">
        <ele>110</ele>
        <time>2018-05-16T09:26:40.1Z</time>
      </trkpt>
      <trkpt lat="44.45263" lon="4.33649">
        <ele>110</ele>
        <time>2018-05-16T09:26:42.1Z</time>
      </trkpt>
      <trkpt lat="44.45278" lon="4.3364">
        <ele>110</ele>
        <time>2018-05-16T09:26:45.1Z</time>
      </trkpt>
      <trkpt lat="44.45293" lon="4.33631">
        <ele>110</ele>
        <time>2018-05-16T09:26:48.1Z</time>
      </trkpt>
      <trkpt lat="44.45303" lon="4.33625">
        <ele>110</ele>
        <time>2018-05-16T09:26:50.1Z</time>
      </trkpt>
      <trkpt lat="44.45316" lon="4.33618">
        <ele>109</ele>
        <time>2018-05-16T09:26:53.1Z</time>
      </trkpt>
      <trkpt lat="44.45323" lon="4.33614">
        <ele>108</ele>
        <time>2018-05-16T09:26:55.1Z</time>
      </trkpt>
      <trkpt lat="44.45331" lon="4.33619">
        <ele>108</ele>
        <time>2018-05-16T09:26:58.1Z</time>
      </trkpt>
      <trkpt lat="44.4534" lon="4.33631">
        <ele>108</ele>
        <time>2018-05-16T09:27:01.1Z</time>
      </trkpt>
      <trkpt lat="44.45345" lon="4.33639">
        <ele>108</ele>
        <time>2018-05-16T09:27:03.1Z</time>
      </trkpt>
      <trkpt lat="44.45349" lon="4.33647">
        <ele>108</ele>
        <time>2018-05-16T09:27:05.1Z</time>
      </trkpt>
      <trkpt lat="44.45357" lon="4.33659">
        <ele>108</ele>
        <time>2018-05-16T09:27:08.1Z</time>
      </trkpt>
      <trkpt lat="44.45362" lon="4.33667">
        <ele>108</ele>
        <time>2018-05-16T09:27:10.1Z</time>
      </trkpt>
      <trkpt lat="44.45367" lon="4.33674">
        <ele>109</ele>
        <time>2018-05-16T09:27:12.1Z</time>
      </trkpt>
      <trkpt lat="44.45374" lon="4.3368">
        <ele>109</ele>
        <time>2018-05-16T09:27:14.1Z</time>
      </trkpt>
      <trkpt lat="44.45382" lon="4.33689">
        <ele>109</ele>
        <time>2018-05-16T09:27:17.1Z</time>
      </trkpt>
      <trkpt lat="44.45387" lon="4.33694">
        <ele>110</ele>
        <time>2018-05-16T09:27:19.1Z</time>
      </trkpt>
      <trkpt lat="44.45392" lon="4.337">
        <ele>110</ele>
        <time>2018-05-16T09:27:22.1Z</time>
      </trkpt>
      <trkpt lat="44.45398" lon="4.33707">
        <ele>110</ele>
        <time>2018-05-16T09:27:25.1Z</time>
      </trkpt>
      <trkpt lat="44.45405" lon="4.33716">
        <ele>110</ele>
        <time>2018-05-16T09:27:28.1Z</time>
      </trkpt>
      <trkpt lat="44.4541" lon="4.33721">
        <ele>111</ele>
        <time>2018-05-16T09:27:30.1Z</time>
      </trkpt>
      <trkpt lat="44.45414" lon="4.33726">
        <ele>111</ele>
        <time>2018-05-16T09:27:32.1Z</time>
      </trkpt>
      <trkpt lat="44.45418" lon="4.3373">
        <ele>111</ele>
        <time>2018-05-16T09:27:34.1Z</time>
      </trkpt>
      <trkpt lat="44.45422" lon="4.33734">
        <ele>112</ele>
        <time>2018-05-16T09:27:36.1Z</time>
      </trkpt>
      <trkpt lat="44.45427" lon="4.33739">
        <ele>112</ele>
        <time>2018-05-16T09:27:39.1Z</time>
      </trkpt>
      <trkpt lat="44.4543" lon="4.33742">
        <ele>113</ele>
        <time>2018-05-16T09:27:41.1Z</time>
      </trkpt>
      <trkpt lat="44.45435" lon="4.33746">
        <ele>113</ele>
        <time>2018-05-16T09:27:44.1Z</time>
      </trkpt>
      <trkpt lat="44.4544" lon="4.33749">
        <ele>114</ele>
        <time>2018-05-16T09:27:47.1Z</time>
      </trkpt>
      <trkpt lat="44.45445" lon="4.33754">
        <ele>114</ele>
        <time>2018-05-16T09:27:50.1Z</time>
      </trkpt>
      <trkpt lat="44.4545" lon="4.33762">
        <ele>114</ele>
        <time>2018-05-16T09:27:53.1Z</time>
      </trkpt>
      <trkpt lat="44.45454" lon="4.33771">
        <ele>115</ele>
        <time>2018-05-16T09:27:56.1Z</time>
      </trkpt>
      <trkpt lat="44.45455" lon="4.33783">
        <ele>115</ele>
        <time>2018-05-16T09:27:59.1Z</time>
      </trkpt>
      <trkpt lat="44.45455" lon="4.33797">
        <ele>116</ele>
        <time>2018-05-16T09:28:02.1Z</time>
      </trkpt>
      <trkpt lat="44.45457" lon="4.33812">
        <ele>116</ele>
        <time>2018-05-16T09:28:05.1Z</time>
      </trkpt>
      <trkpt lat="44.45461" lon="4.33827">
        <ele>116</ele>
        <time>2018-05-16T09:28:08.1Z</time>
      </trkpt>
      <trkpt lat="44.45463" lon="4.33837">
        <ele>116</ele>
        <time>2018-05-16T09:28:10.1Z</time>
      </trkpt>
      <trkpt lat="44.45466" lon="4.33845">
        <ele>115</ele>
        <time>2018-05-16T09:28:12.1Z</time>
      </trkpt>
      <trkpt lat="44.45468" lon="4.33853">
        <ele>115</ele>
        <time>2018-05-16T09:28:14.1Z</time>
      </trkpt>
      <trkpt lat="44.45468" lon="4.33862">
        <ele>115</ele>
        <time>2018-05-16T09:28:16.1Z</time>
      </trkpt>
      <trkpt lat="44.45463" lon="4.33874">
        <ele>116</ele>
        <time>2018-05-16T09:28:19.1Z</time>
      </trkpt>
      <trkpt lat="44.45459" lon="4.33883">
        <ele>116</ele>
        <time>2018-05-16T09:28:22.1Z</time>
      </trkpt>
      <trkpt lat="44.45456" lon="4.3389">
        <ele>116</ele>
        <time>2018-05-16T09:28:25.1Z</time>
      </trkpt>
      <trkpt lat="44.45454" lon="4.33894">
        <ele>116</ele>
        <time>2018-05-16T09:28:27.1Z</time>
      </trkpt>
      <trkpt lat="44.45457" lon="4.339">
        <ele>117</ele>
        <time>2018-05-16T09:28:30.1Z</time>
      </trkpt>
      <trkpt lat="44.45462" lon="4.33907">
        <ele>116</ele>
        <time>2018-05-16T09:28:33.1Z</time>
      </trkpt>
      <trkpt lat="44.45467" lon="4.33915">
        <ele>116</ele>
        <time>2018-05-16T09:28:36.1Z</time>
      </trkpt>
      <trkpt lat="44.4547" lon="4.33918">
        <ele>116</ele>
        <time>2018-05-16T09:28:38.1Z</time>
      </trkpt>
      <trkpt lat="44.45471" lon="4.33919">
        <ele>116</ele>
        <time>2018-05-16T09:28:41.1Z</time>
      </trkpt>
      <trkpt lat="44.45471" lon="4.33919">
        <ele>115</ele>
        <time>2018-05-16T09:28:43.1Z</time>
      </trkpt>
      <trkpt lat="44.45472" lon="4.3392">
        <ele>115</ele>
        <time>2018-05-16T09:28:45.1Z</time>
      </trkpt>
      <trkpt lat="44.45474" lon="4.33922">
        <ele>115</ele>
        <time>2018-05-16T09:28:48.1Z</time>
      </trkpt>
      <trkpt lat="44.45478" lon="4.33918">
        <ele>115</ele>
        <time>2018-05-16T09:28:51.1Z</time>
      </trkpt>
      <trkpt lat="44.45483" lon="4.33907">
        <ele>115</ele>
        <time>2018-05-16T09:28:54.1Z</time>
      </trkpt>
      <trkpt lat="44.45489" lon="4.33891">
        <ele>116</ele>
        <time>2018-05-16T09:28:57.1Z</time>
      </trkpt>
      <trkpt lat="44.45497" lon="4.33874">
        <ele>116</ele>
        <time>2018-05-16T09:29:00.1Z</time>
      </trkpt>
      <trkpt lat="44.45504" lon="4.33855">
        <ele>116</ele>
        <time>2018-05-16T09:29:03.1Z</time>
      </trkpt>
      <trkpt lat="44.45512" lon="4.33836">
        <ele>115</ele>
        <time>2018-05-16T09:29:06.1Z</time>
      </trkpt>
      <trkpt lat="44.45517" lon="4.33824">
        <ele>115</ele>
        <time>2018-05-16T09:29:08.1Z</time>
      </trkpt>
      <trkpt lat="44.45525" lon="4.33806">
        <ele>115</ele>
        <time>2018-05-16T09:29:11.1Z</time>
      </trkpt>
      <trkpt lat="44.4553" lon="4.33793">
        <ele>115</ele>
        <time>2018-05-16T09:29:13.1Z</time>
      </trkpt>
      <trkpt lat="44.45538" lon="4.33774">
        <ele>115</ele>
        <time>2018-05-16T09:29:16.1Z</time>
      </trkpt>
      <trkpt lat="44.45543" lon="4.33761">
        <ele>115</ele>
        <time>2018-05-16T09:29:18.1Z</time>
      </trkpt>
      <trkpt lat="44.45548" lon="4.33749">
        <ele>115</ele>
        <time>2018-05-16T09:29:20.1Z</time>
      </trkpt>
      <trkpt lat="44.45553" lon="4.33737">
        <ele>115</ele>
        <time>2018-05-16T09:29:22.1Z</time>
      </trkpt>
      <trkpt lat="44.45556" lon="4.33717">
        <ele>115</ele>
        <time>2018-05-16T09:29:25.1Z</time>
      </trkpt>
      <trkpt lat="44.45555" lon="4.33697">
        <ele>116</ele>
        <time>2018-05-16T09:29:28.1Z</time>
      </trkpt>
      <trkpt lat="44.45553" lon="4.33685">
        <ele>116</ele>
        <time>2018-05-16T09:29:30.1Z</time>
      </trkpt>
      <trkpt lat="44.45551" lon="4.33666">
        <ele>116</ele>
        <time>2018-05-16T09:29:33.1Z</time>
      </trkpt>
      <trkpt lat="44.45549" lon="4.33646">
        <ele>115</ele>
        <time>2018-05-16T09:29:36.1Z</time>
      </trkpt>
      <trkpt lat="44.45549" lon="4.33633">
        <ele>115</ele>
        <time>2018-05-16T09:29:38.1Z</time>
      </trkpt>
      <trkpt lat="44.45552" lon="4.33615">
        <ele>116</ele>
        <time>2018-05-16T09:29:41.1Z</time>
      </trkpt>
      <trkpt lat="44.45556" lon="4.33599">
        <ele>116</ele>
        <time>2018-05-16T09:29:44.1Z</time>
      </trkpt>
      <trkpt lat="44.45561" lon="4.33589">
        <ele>116</ele>
        <time>2018-05-16T09:29:46.1Z</time>
      </trkpt>
      <trkpt lat="44.4557" lon="4.33576">
        <ele>116</ele>
        <time>2018-05-16T09:29:49.1Z</time>
      </trkpt>
      <trkpt lat="44.45577" lon="4.33568">
        <ele>116</ele>
        <time>2018-05-16T09:29:51.1Z</time>
      </trkpt>
      <trkpt lat="44.45588" lon="4.33559">
        <ele>116</ele>
        <time>2018-05-16T09:29:54.1Z</time>
      </trkpt>
      <trkpt lat="44.45595" lon="4.33553">
        <ele>116</ele>
        <time>2018-05-16T09:29:56.1Z</time>
      </trkpt>
      <trkpt lat="44.45602" lon="4.33547">
        <ele>116</ele>
        <time>2018-05-16T09:29:58.1Z</time>
      </trkpt>
      <trkpt lat="44.4561" lon="4.33541">
        <ele>116</ele>
        <time>2018-05-16T09:30:00.1Z</time>
      </trkpt>
      <trkpt lat="44.45622" lon="4.33532">
        <ele>116</ele>
        <time>2018-05-16T09:30:03.1Z</time>
      </trkpt>
      <trkpt lat="44.4563" lon="4.33526">
        <ele>116</ele>
        <time>2018-05-16T09:30:05.1Z</time>
      </trkpt>
      <trkpt lat="44.45638" lon="4.3352">
        <ele>116</ele>
        <time>2018-05-16T09:30:07.1Z</time>
      </trkpt>
      <trkpt lat="44.4565" lon="4.3351">
        <ele>116</ele>
        <time>2018-05-16T09:30:10.1Z</time>
      </trkpt>
      <trkpt lat="44.45658" lon="4.33504">
        <ele>117</ele>
        <time>2018-05-16T09:30:12.1Z</time>
      </trkpt>
      <trkpt lat="44.4567" lon="4.33494">
        <ele>117</ele>
        <time>2018-05-16T09:30:15.1Z</time>
      </trkpt>
      <trkpt lat="44.45678" lon="4.33481">
        <ele>118</ele>
        <time>2018-05-16T09:30:18.1Z</time>
      </trkpt>
      <trkpt lat="44.4568" lon="4.3347">
        <ele>118</ele>
        <time>2018-05-16T09:30:20.1Z</time>
      </trkpt>
      <trkpt lat="44.4568" lon="4.33459">
        <ele>118</ele>
        <time>2018-05-16T09:30:22.1Z</time>
      </trkpt>
      <trkpt lat="44.45681" lon="4.33448">
        <ele>118</ele>
        <time>2018-05-16T09:30:24.1Z</time>
      </trkpt>
      <trkpt lat="44.45681" lon="4.33435">
        <ele>118</ele>
        <time>2018-05-16T09:30:26.1Z</time>
      </trkpt>
      <trkpt lat="44.45681" lon="4.33424">
        <ele>118</ele>
        <time>2018-05-16T09:30:28.1Z</time>
      </trkpt>
      <trkpt lat="44.45682" lon="4.33406">
        <ele>118</ele>
        <time>2018-05-16T09:30:31.1Z</time>
      </trkpt>
      <trkpt lat="44.45683" lon="4.33389">
        <ele>118</ele>
        <time>2018-05-16T09:30:34.1Z</time>
      </trkpt>
      <trkpt lat="44.45683" lon="4.33377">
        <ele>118</ele>
        <time>2018-05-16T09:30:36.1Z</time>
      </trkpt>
      <trkpt lat="44.45683" lon="4.33366">
        <ele>119</ele>
        <time>2018-05-16T09:30:38.1Z</time>
      </trkpt>
      <trkpt lat="44.45684" lon="4.33356">
        <ele>118</ele>
        <time>2018-05-16T09:30:40.1Z</time>
      </trkpt>
      <trkpt lat="44.45685" lon="4.33342">
        <ele>118</ele>
        <time>2018-05-16T09:30:43.1Z</time>
      </trkpt>
      <trkpt lat="44.45689" lon="4.33333">
        <ele>117</ele>
        <time>2018-05-16T09:30:45.1Z</time>
      </trkpt>
      <trkpt lat="44.45699" lon="4.33328">
        <ele>117</ele>
        <time>2018-05-16T09:30:48.1Z</time>
      </trkpt>
      <trkpt lat="44.45714" lon="4.33328">
        <ele>118</ele>
        <time>2018-05-16T09:30:51.1Z</time>
      </trkpt>
      <trkpt lat="44.45723" lon="4.33328">
        <ele>118</ele>
        <time>2018-05-16T09:30:53.1Z</time>
      </trkpt>
      <trkpt lat="44.45731" lon="4.33329">
        <ele>119</ele>
        <time>2018-05-16T09:30:55.1Z</time>
      </trkpt>
      <trkpt lat="44.4574" lon="4.33328">
        <ele>119</ele>
        <time>2018-05-16T09:30:57.1Z</time>
      </trkpt>
      <trkpt lat="44.45753" lon="4.33329">
        <ele>119</ele>
        <time>2018-05-16T09:31:00.1Z</time>
      </trkpt>
      <trkpt lat="44.45761" lon="4.33331">
        <ele>119</ele>
        <time>2018-05-16T09:31:02.1Z</time>
      </trkpt>
      <trkpt lat="44.4577" lon="4.33331">
        <ele>119</ele>
        <time>2018-05-16T09:31:04.1Z</time>
      </trkpt>
      <trkpt lat="44.45782" lon="4.3333">
        <ele>120</ele>
        <time>2018-05-16T09:31:07.1Z</time>
      </trkpt>
      <trkpt lat="44.4579" lon="4.3333">
        <ele>120</ele>
        <time>2018-05-16T09:31:09.1Z</time>
      </trkpt>
      <trkpt lat="44.458" lon="4.33329">
        <ele>120</ele>
        <time>2018-05-16T09:31:11.1Z</time>
      </trkpt>
      <trkpt lat="44.45814" lon="4.33328">
        <ele>120</ele>
        <time>2018-05-16T09:31:14.1Z</time>
      </trkpt>
      <trkpt lat="44.45828" lon="4.33327">
        <ele>120</ele>
        <time>2018-05-16T09:31:17.1Z</time>
      </trkpt>
      <trkpt lat="44.45842" lon="4.33326">
        <ele>121</ele>
        <time>2018-05-16T09:31:20.1Z</time>
      </trkpt>
      <trkpt lat="44.45851" lon="4.33325">
        <ele>121</ele>
        <time>2018-05-16T09:31:22.1Z</time>
      </trkpt>
      <trkpt lat="44.45864" lon="4.33323">
        <ele>120</ele>
        <time>2018-05-16T09:31:25.1Z</time>
      </trkpt>
      <trkpt lat="44.45879" lon="4.33323">
        <ele>120</ele>
        <time>2018-05-16T09:31:28.1Z</time>
      </trkpt>
      <trkpt lat="44.45888" lon="4.33322">
        <ele>119</ele>
        <time>2018-05-16T09:31:30.1Z</time>
      </trkpt>
      <trkpt lat="44.45903" lon="4.33321">
        <ele>120</ele>
        <time>2018-05-16T09:31:33.1Z</time>
      </trkpt>
      <trkpt lat="44.45912" lon="4.3332">
        <ele>120</ele>
        <time>2018-05-16T09:31:35.1Z</time>
      </trkpt>
      <trkpt lat="44.45926" lon="4.33319">
        <ele>120</ele>
        <time>2018-05-16T09:31:38.1Z</time>
      </trkpt>
      <trkpt lat="44.45935" lon="4.33318">
        <ele>120</ele>
        <time>2018-05-16T09:31:40.1Z</time>
      </trkpt>
      <trkpt lat="44.45945" lon="4.33318">
        <ele>121</ele>
        <time>2018-05-16T09:31:42.1Z</time>
      </trkpt>
      <trkpt lat="44.45954" lon="4.33318">
        <ele>121</ele>
        <time>2018-05-16T09:31:44.1Z</time>
      </trkpt>
      <trkpt lat="44.45964" lon="4.33317">
        <ele>121</ele>
        <time>2018-05-16T09:31:46.1Z</time>
      </trkpt>
      <trkpt lat="44.45974" lon="4.33316">
        <ele>120</ele>
        <time>2018-05-16T09:31:48.1Z</time>
      </trkpt>
      <trkpt lat="44.45984" lon="4.33315">
        <ele>120</ele>
        <time>2018-05-16T09:31:50.1Z</time>
      </trkpt>
      <trkpt lat="44.45999" lon="4.33314">
        <ele>120</ele>
        <time>2018-05-16T09:31:53.1Z</time>
      </trkpt>
      <trkpt lat="44.46015" lon="4.33313">
        <ele>121</ele>
        <time>2018-05-16T09:31:56.1Z</time>
      </trkpt>
      <trkpt lat="44.4603" lon="4.33312">
        <ele>121</ele>
        <time>2018-05-16T09:31:59.1Z</time>
      </trkpt>
      <trkpt lat="44.4604" lon="4.33311">
        <ele>121</ele>
        <time>2018-05-16T09:32:01.1Z</time>
      </trkpt>
      <trkpt lat="44.46054" lon="4.3331">
        <ele>120</ele>
        <time>2018-05-16T09:32:04.1Z</time>
      </trkpt>
      <trkpt lat="44.46064" lon="4.33309">
        <ele>121</ele>
        <time>2018-05-16T09:32:06.1Z</time>
      </trkpt>
      <trkpt lat="44.46073" lon="4.33308">
        <ele>121</ele>
        <time>2018-05-16T09:32:08.1Z</time>
      </trkpt>
      <trkpt lat="44.46083" lon="4.33307">
        <ele>122</ele>
        <time>2018-05-16T09:32:10.1Z</time>
      </trkpt>
      <trkpt lat="44.46098" lon="4.33306">
        <ele>123</ele>
        <time>2018-05-16T09:32:13.1Z</time>
      </trkpt>
      <trkpt lat="44.46108" lon="4.33305">
        <ele>123</ele>
        <time>2018-05-16T09:32:15.1Z</time>
      </trkpt>
      <trkpt lat="44.46122" lon="4.33303">
        <ele>123</ele>
        <time>2018-05-16T09:32:18.1Z</time>
      </trkpt>
      <trkpt lat="44.46132" lon="4.33302">
        <ele>123</ele>
        <time>2018-05-16T09:32:20.1Z</time>
      </trkpt>
      <trkpt lat="44.46142" lon="4.33301">
        <ele>124</ele>
        <time>2018-05-16T09:32:22.1Z</time>
      </trkpt>
      <trkpt lat="44.46152" lon="4.33298">
        <ele>124</ele>
        <time>2018-05-16T09:32:24.1Z</time>
      </trkpt>
      <trkpt lat="44.46161" lon="4.33294">
        <ele>124</ele>
        <time>2018-05-16T09:32:26.1Z</time>
      </trkpt>
      <trkpt lat="44.4617" lon="4.33291">
        <ele>124</ele>
        <time>2018-05-16T09:32:28.1Z</time>
      </trkpt>
      <trkpt lat="44.46184" lon="4.33289">
        <ele>123</ele>
        <time>2018-05-16T09:32:31.1Z</time>
      </trkpt>
      <trkpt lat="44.46194" lon="4.33288">
        <ele>123</ele>
        <time>2018-05-16T09:32:33.1Z</time>
      </trkpt>
      <trkpt lat="44.46203" lon="4.33288">
        <ele>124</ele>
        <time>2018-05-16T09:32:35.1Z</time>
      </trkpt>
      <trkpt lat="44.46212" lon="4.33287">
        <ele>124</ele>
        <time>2018-05-16T09:32:37.1Z</time>
      </trkpt>
      <trkpt lat="44.4622" lon="4.33286">
        <ele>125</ele>
        <time>2018-05-16T09:32:39.1Z</time>
      </trkpt>
      <trkpt lat="44.46229" lon="4.33285">
        <ele>125</ele>
        <time>2018-05-16T09:32:41.1Z</time>
      </trkpt>
      <trkpt lat="44.46237" lon="4.33284">
        <ele>125</ele>
        <time>2018-05-16T09:32:43.1Z</time>
      </trkpt>
      <trkpt lat="44.46247" lon="4.33283">
        <ele>125</ele>
        <time>2018-05-16T09:32:46.1Z</time>
      </trkpt>
      <trkpt lat="44.46256" lon="4.33282">
        <ele>124</ele>
        <time>2018-05-16T09:32:49.1Z</time>
      </trkpt>
      <trkpt lat="44.46261" lon="4.33281">
        <ele>125</ele>
        <time>2018-05-16T09:32:51.1Z</time>
      </trkpt>
      <trkpt lat="44.46268" lon="4.33281">
        <ele>124</ele>
        <time>2018-05-16T09:32:54.1Z</time>
      </trkpt>
      <trkpt lat="44.46275" lon="4.33279">
        <ele>123</ele>
        <time>2018-05-16T09:32:57.1Z</time>
      </trkpt>
      <trkpt lat="44.46278" lon="4.33279">
        <ele>123</ele>
        <time>2018-05-16T09:32:59.1Z</time>
      </trkpt>
      <trkpt lat="44.4628" lon="4.33278">
        <ele>123</ele>
        <time>2018-05-16T09:33:01.1Z</time>
      </trkpt>
      <trkpt lat="44.46283" lon="4.33277">
        <ele>123</ele>
        <time>2018-05-16T09:33:04.1Z</time>
      </trkpt>
      <trkpt lat="44.46284" lon="4.33276">
        <ele>123</ele>
        <time>2018-05-16T09:33:06.1Z</time>
      </trkpt>
      <trkpt lat="44.46284" lon="4.33276">
        <ele>123</ele>
        <time>2018-05-16T09:33:08.1Z</time>
      </trkpt>
      <trkpt lat="44.46285" lon="4.33275">
        <ele>124</ele>
        <time>2018-05-16T09:33:11.1Z</time>
      </trkpt>
      <trkpt lat="44.46285" lon="4.33275">
        <ele>124</ele>
        <time>2018-05-16T09:33:13.1Z</time>
      </trkpt>
      <trkpt lat="44.46285" lon="4.33276">
        <ele>124</ele>
        <time>2018-05-16T09:33:17.1Z</time>
      </trkpt>
      <trkpt lat="44.46285" lon="4.33277">
        <ele>124</ele>
        <time>2018-05-16T09:33:20.1Z</time>
      </trkpt>
      <trkpt lat="44.46285" lon="4.33278">
        <ele>123</ele>
        <time>2018-05-16T09:33:22.1Z</time>
      </trkpt>
      <trkpt lat="44.46284" lon="4.33279">
        <ele>123</ele>
        <time>2018-05-16T09:33:24.1Z</time>
      </trkpt>
      <trkpt lat="44.46284" lon="4.3328">
        <ele>123</ele>
        <time>2018-05-16T09:33:26.1Z</time>
      </trkpt>
      <trkpt lat="44.46283" lon="4.3328">
        <ele>124</ele>
        <time>2018-05-16T09:33:30.1Z</time>
      </trkpt>
      <trkpt lat="44.46284" lon="4.33279">
        <ele>124</ele>
        <time>2018-05-16T09:33:32.1Z</time>
      </trkpt>
      <trkpt lat="44.46284" lon="4.33278">
        <ele>124</ele>
        <time>2018-05-16T09:33:35.1Z</time>
      </trkpt>
      <trkpt lat="44.46285" lon="4.33277">
        <ele>124</ele>
        <time>2018-05-16T09:33:37.1Z</time>
      </trkpt>
      <trkpt lat="44.46285" lon="4.33277">
        <ele>124</ele>
        <time>2018-05-16T09:33:39.1Z</time>
      </trkpt>
      <trkpt lat="44.46286" lon="4.33276">
        <ele>124</ele>
        <time>2018-05-16T09:33:43.1Z</time>
      </trkpt>
      <trkpt lat="44.46286" lon="4.33275">
        <ele>123</ele>
        <time>2018-05-16T09:33:45.1Z</time>
      </trkpt>
      <trkpt lat="44.4629" lon="4.33274">
        <ele>124</ele>
        <time>2018-05-16T09:33:48.1Z</time>
      </trkpt>
      <trkpt lat="44.46293" lon="4.33274">
        <ele>124</ele>
        <time>2018-05-16T09:33:50.1Z</time>
      </trkpt>
      <trkpt lat="44.46299" lon="4.33276">
        <ele>125</ele>
        <time>2018-05-16T09:33:53.1Z</time>
      </trkpt>
      <trkpt lat="44.46306" lon="4.33277">
        <ele>125</ele>
        <time>2018-05-16T09:33:55.1Z</time>
      </trkpt>
      <trkpt lat="44.46314" lon="4.33278">
        <ele>126</ele>
        <time>2018-05-16T09:33:57.1Z</time>
      </trkpt>
      <trkpt lat="44.46321" lon="4.33279">
        <ele>126</ele>
        <time>2018-05-16T09:33:59.1Z</time>
      </trkpt>
      <trkpt lat="44.46333" lon="4.33278">
        <ele>126</ele>
        <time>2018-05-16T09:34:02.1Z</time>
      </trkpt>
      <trkpt lat="44.46341" lon="4.33277">
        <ele>126</ele>
        <time>2018-05-16T09:34:04.1Z</time>
      </trkpt>
      <trkpt lat="44.46349" lon="4.33276">
        <ele>126</ele>
        <time>2018-05-16T09:34:06.1Z</time>
      </trkpt>
      <trkpt lat="44.46358" lon="4.33274">
        <ele>126</ele>
        <time>2018-05-16T09:34:08.1Z</time>
      </trkpt>
      <trkpt lat="44.46371" lon="4.33273">
        <ele>127</ele>
        <time>2018-05-16T09:34:11.1Z</time>
      </trkpt>
      <trkpt lat="44.46385" lon="4.33273">
        <ele>127</ele>
        <time>2018-05-16T09:34:14.1Z</time>
      </trkpt>
      <trkpt lat="44.46395" lon="4.33273">
        <ele>127</ele>
        <time>2018-05-16T09:34:16.1Z</time>
      </trkpt>
      <trkpt lat="44.46404" lon="4.33273">
        <ele>127</ele>
        <time>2018-05-16T09:34:18.1Z</time>
      </trkpt>
      <trkpt lat="44.46413" lon="4.33273">
        <ele>126</ele>
        <time>2018-05-16T09:34:20.1Z</time>
      </trkpt>
      <trkpt lat="44.4642" lon="4.3327">
        <ele>126</ele>
        <time>2018-05-16T09:34:22.1Z</time>
      </trkpt>
      <trkpt lat="44.46476" lon="4.33267">
        <ele>126</ele>
        <time>2018-05-16T09:34:36.1Z</time>
      </trkpt>
      <trkpt lat="44.46486" lon="4.33266">
        <ele>127</ele>
        <time>2018-05-16T09:34:38.1Z</time>
      </trkpt>
      <trkpt lat="44.46496" lon="4.33267">
        <ele>127</ele>
        <time>2018-05-16T09:34:40.1Z</time>
      </trkpt>
      <trkpt lat="44.46512" lon="4.33267">
        <ele>127</ele>
        <time>2018-05-16T09:34:43.1Z</time>
      </trkpt>
      <trkpt lat="44.46523" lon="4.33268">
        <ele>127</ele>
        <time>2018-05-16T09:34:45.1Z</time>
      </trkpt>
      <trkpt lat="44.46537" lon="4.33271">
        <ele>127</ele>
        <time>2018-05-16T09:34:48.1Z</time>
      </trkpt>
      <trkpt lat="44.46547" lon="4.33273">
        <ele>127</ele>
        <time>2018-05-16T09:34:50.1Z</time>
      </trkpt>
      <trkpt lat="44.46558" lon="4.33274">
        <ele>128</ele>
        <time>2018-05-16T09:34:52.1Z</time>
      </trkpt>
      <trkpt lat="44.46571" lon="4.33271">
        <ele>127</ele>
        <time>2018-05-16T09:34:55.1Z</time>
      </trkpt>
      <trkpt lat="44.46604" lon="4.33268">
        <ele>128</ele>
        <time>2018-05-16T09:35:04.1Z</time>
      </trkpt>
      <trkpt lat="44.46622" lon="4.33276">
        <ele>129</ele>
        <time>2018-05-16T09:35:07.1Z</time>
      </trkpt>
      <trkpt lat="44.4664" lon="4.33284">
        <ele>129</ele>
        <time>2018-05-16T09:35:10.1Z</time>
      </trkpt>
      <trkpt lat="44.46655" lon="4.33291">
        <ele>129</ele>
        <time>2018-05-16T09:35:13.1Z</time>
      </trkpt>
      <trkpt lat="44.46669" lon="4.33296">
        <ele>129</ele>
        <time>2018-05-16T09:35:16.1Z</time>
      </trkpt>
      <trkpt lat="44.46678" lon="4.333">
        <ele>129</ele>
        <time>2018-05-16T09:35:18.1Z</time>
      </trkpt>
      <trkpt lat="44.46691" lon="4.33305">
        <ele>129</ele>
        <time>2018-05-16T09:35:21.1Z</time>
      </trkpt>
      <trkpt lat="44.46699" lon="4.33308">
        <ele>129</ele>
        <time>2018-05-16T09:35:23.1Z</time>
      </trkpt>
      <trkpt lat="44.46707" lon="4.33311">
        <ele>129</ele>
        <time>2018-05-16T09:35:25.1Z</time>
      </trkpt>
      <trkpt lat="44.46715" lon="4.33313">
        <ele>130</ele>
        <time>2018-05-16T09:35:27.1Z</time>
      </trkpt>
      <trkpt lat="44.46723" lon="4.33315">
        <ele>130</ele>
        <time>2018-05-16T09:35:29.1Z</time>
      </trkpt>
      <trkpt lat="44.46737" lon="4.33319">
        <ele>131</ele>
        <time>2018-05-16T09:35:32.1Z</time>
      </trkpt>
      <trkpt lat="44.46746" lon="4.33322">
        <ele>131</ele>
        <time>2018-05-16T09:35:34.1Z</time>
      </trkpt>
      <trkpt lat="44.4676" lon="4.33325">
        <ele>131</ele>
        <time>2018-05-16T09:35:37.1Z</time>
      </trkpt>
      <trkpt lat="44.46768" lon="4.33326">
        <ele>131</ele>
        <time>2018-05-16T09:35:39.1Z</time>
      </trkpt>
      <trkpt lat="44.46775" lon="4.33328">
        <ele>131</ele>
        <time>2018-05-16T09:35:41.1Z</time>
      </trkpt>
      <trkpt lat="44.46783" lon="4.3333">
        <ele>130</ele>
        <time>2018-05-16T09:35:43.1Z</time>
      </trkpt>
      <trkpt lat="44.4679" lon="4.33331">
        <ele>131</ele>
        <time>2018-05-16T09:35:45.1Z</time>
      </trkpt>
      <trkpt lat="44.46797" lon="4.33333">
        <ele>131</ele>
        <time>2018-05-16T09:35:47.1Z</time>
      </trkpt>
      <trkpt lat="44.46805" lon="4.33335">
        <ele>131</ele>
        <time>2018-05-16T09:35:49.1Z</time>
      </trkpt>
      <trkpt lat="44.46817" lon="4.33338">
        <ele>132</ele>
        <time>2018-05-16T09:35:52.1Z</time>
      </trkpt>
      <trkpt lat="44.46825" lon="4.3334">
        <ele>132</ele>
        <time>2018-05-16T09:35:54.1Z</time>
      </trkpt>
      <trkpt lat="44.46833" lon="4.33342">
        <ele>132</ele>
        <time>2018-05-16T09:35:56.1Z</time>
      </trkpt>
      <trkpt lat="44.46841" lon="4.33344">
        <ele>132</ele>
        <time>2018-05-16T09:35:58.1Z</time>
      </trkpt>
      <trkpt lat="44.46855" lon="4.33348">
        <ele>132</ele>
        <time>2018-05-16T09:36:01.1Z</time>
      </trkpt>
      <trkpt lat="44.46869" lon="4.33352">
        <ele>133</ele>
        <time>2018-05-16T09:36:04.1Z</time>
      </trkpt>
      <trkpt lat="44.46879" lon="4.33355">
        <ele>134</ele>
        <time>2018-05-16T09:36:06.1Z</time>
      </trkpt>
      <trkpt lat="44.46894" lon="4.33359">
        <ele>135</ele>
        <time>2018-05-16T09:36:09.1Z</time>
      </trkpt>
      <trkpt lat="44.46909" lon="4.33363">
        <ele>135</ele>
        <time>2018-05-16T09:36:12.1Z</time>
      </trkpt>
      <trkpt lat="44.46918" lon="4.33366">
        <ele>135</ele>
        <time>2018-05-16T09:36:14.1Z</time>
      </trkpt>
      <trkpt lat="44.46933" lon="4.33371">
        <ele>135</ele>
        <time>2018-05-16T09:36:17.1Z</time>
      </trkpt>
      <trkpt lat="44.46947" lon="4.33375">
        <ele>135</ele>
        <time>2018-05-16T09:36:20.1Z</time>
      </trkpt>
      <trkpt lat="44.46957" lon="4.33378">
        <ele>134</ele>
        <time>2018-05-16T09:36:22.1Z</time>
      </trkpt>
      <trkpt lat="44.46971" lon="4.33383">
        <ele>134</ele>
        <time>2018-05-16T09:36:25.1Z</time>
      </trkpt>
      <trkpt lat="44.46985" lon="4.33387">
        <ele>134</ele>
        <time>2018-05-16T09:36:28.1Z</time>
      </trkpt>
      <trkpt lat="44.46993" lon="4.33391">
        <ele>135</ele>
        <time>2018-05-16T09:36:30.1Z</time>
      </trkpt>
      <trkpt lat="44.47002" lon="4.33394">
        <ele>135</ele>
        <time>2018-05-16T09:36:32.1Z</time>
      </trkpt>
      <trkpt lat="44.4701" lon="4.33397">
        <ele>135</ele>
        <time>2018-05-16T09:36:34.1Z</time>
      </trkpt>
      <trkpt lat="44.47018" lon="4.33401">
        <ele>135</ele>
        <time>2018-05-16T09:36:36.1Z</time>
      </trkpt>
      <trkpt lat="44.47032" lon="4.33405">
        <ele>135</ele>
        <time>2018-05-16T09:36:39.1Z</time>
      </trkpt>
      <trkpt lat="44.47044" lon="4.3341">
        <ele>134</ele>
        <time>2018-05-16T09:36:42.1Z</time>
      </trkpt>
      <trkpt lat="44.47053" lon="4.33412">
        <ele>135</ele>
        <time>2018-05-16T09:36:44.1Z</time>
      </trkpt>
      <trkpt lat="44.47062" lon="4.33414">
        <ele>135</ele>
        <time>2018-05-16T09:36:46.1Z</time>
      </trkpt>
      <trkpt lat="44.47074" lon="4.33418">
        <ele>136</ele>
        <time>2018-05-16T09:36:49.1Z</time>
      </trkpt>
      <trkpt lat="44.47083" lon="4.33421">
        <ele>136</ele>
        <time>2018-05-16T09:36:51.1Z</time>
      </trkpt>
      <trkpt lat="44.47095" lon="4.33426">
        <ele>136</ele>
        <time>2018-05-16T09:36:54.1Z</time>
      </trkpt>
      <trkpt lat="44.4711" lon="4.3343">
        <ele>136</ele>
        <time>2018-05-16T09:36:57.1Z</time>
      </trkpt>
      <trkpt lat="44.47123" lon="4.33434">
        <ele>136</ele>
        <time>2018-05-16T09:37:00.1Z</time>
      </trkpt>
      <trkpt lat="44.47131" lon="4.33438">
        <ele>137</ele>
        <time>2018-05-16T09:37:02.1Z</time>
      </trkpt>
      <trkpt lat="44.47144" lon="4.33442">
        <ele>137</ele>
        <time>2018-05-16T09:37:05.1Z</time>
      </trkpt>
      <trkpt lat="44.47153" lon="4.33444">
        <ele>137</ele>
        <time>2018-05-16T09:37:07.1Z</time>
      </trkpt>
      <trkpt lat="44.47162" lon="4.33447">
        <ele>138</ele>
        <time>2018-05-16T09:37:09.1Z</time>
      </trkpt>
      <trkpt lat="44.47176" lon="4.3345">
        <ele>137</ele>
        <time>2018-05-16T09:37:12.1Z</time>
      </trkpt>
      <trkpt lat="44.47184" lon="4.33453">
        <ele>137</ele>
        <time>2018-05-16T09:37:14.1Z</time>
      </trkpt>
      <trkpt lat="44.47199" lon="4.33456">
        <ele>137</ele>
        <time>2018-05-16T09:37:17.1Z</time>
      </trkpt>
      <trkpt lat="44.47208" lon="4.33459">
        <ele>137</ele>
        <time>2018-05-16T09:37:19.1Z</time>
      </trkpt>
      <trkpt lat="44.47217" lon="4.33462">
        <ele>137</ele>
        <time>2018-05-16T09:37:21.1Z</time>
      </trkpt>
      <trkpt lat="44.47231" lon="4.33467">
        <ele>137</ele>
        <time>2018-05-16T09:37:24.1Z</time>
      </trkpt>
      <trkpt lat="44.47245" lon="4.33472">
        <ele>137</ele>
        <time>2018-05-16T09:37:27.1Z</time>
      </trkpt>
      <trkpt lat="44.47259" lon="4.33477">
        <ele>137</ele>
        <time>2018-05-16T09:37:30.1Z</time>
      </trkpt>
      <trkpt lat="44.47269" lon="4.33481">
        <ele>138</ele>
        <time>2018-05-16T09:37:32.1Z</time>
      </trkpt>
      <trkpt lat="44.47282" lon="4.33488">
        <ele>138</ele>
        <time>2018-05-16T09:37:35.1Z</time>
      </trkpt>
      <trkpt lat="44.47292" lon="4.33491">
        <ele>138</ele>
        <time>2018-05-16T09:37:37.1Z</time>
      </trkpt>
      <trkpt lat="44.47306" lon="4.33497">
        <ele>138</ele>
        <time>2018-05-16T09:37:40.1Z</time>
      </trkpt>
      <trkpt lat="44.4732" lon="4.33504">
        <ele>138</ele>
        <time>2018-05-16T09:37:43.1Z</time>
      </trkpt>
      <trkpt lat="44.47329" lon="4.3351">
        <ele>138</ele>
        <time>2018-05-16T09:37:45.1Z</time>
      </trkpt>
      <trkpt lat="44.47338" lon="4.33516">
        <ele>138</ele>
        <time>2018-05-16T09:37:47.1Z</time>
      </trkpt>
      <trkpt lat="44.47351" lon="4.33525">
        <ele>138</ele>
        <time>2018-05-16T09:37:50.1Z</time>
      </trkpt>
      <trkpt lat="44.4736" lon="4.33531">
        <ele>139</ele>
        <time>2018-05-16T09:37:52.1Z</time>
      </trkpt>
      <trkpt lat="44.47373" lon="4.33539">
        <ele>139</ele>
        <time>2018-05-16T09:37:55.1Z</time>
      </trkpt>
      <trkpt lat="44.47386" lon="4.33547">
        <ele>139</ele>
        <time>2018-05-16T09:37:58.1Z</time>
      </trkpt>
      <trkpt lat="44.47395" lon="4.33551">
        <ele>138</ele>
        <time>2018-05-16T09:38:00.1Z</time>
      </trkpt>
      <trkpt lat="44.47408" lon="4.33555">
        <ele>138</ele>
        <time>2018-05-16T09:38:03.1Z</time>
      </trkpt>
      <trkpt lat="44.47417" lon="4.33558">
        <ele>139</ele>
        <time>2018-05-16T09:38:05.1Z</time>
      </trkpt>
      <trkpt lat="44.47431" lon="4.33563">
        <ele>139</ele>
        <time>2018-05-16T09:38:08.1Z</time>
      </trkpt>
      <trkpt lat="44.4744" lon="4.33566">
        <ele>139</ele>
        <time>2018-05-16T09:38:10.1Z</time>
      </trkpt>
      <trkpt lat="44.47449" lon="4.33568">
        <ele>140</ele>
        <time>2018-05-16T09:38:12.1Z</time>
      </trkpt>
      <trkpt lat="44.47464" lon="4.33572">
        <ele>140</ele>
        <time>2018-05-16T09:38:15.1Z</time>
      </trkpt>
      <trkpt lat="44.47473" lon="4.33576">
        <ele>140</ele>
        <time>2018-05-16T09:38:17.1Z</time>
      </trkpt>
      <trkpt lat="44.47483" lon="4.33579">
        <ele>140</ele>
        <time>2018-05-16T09:38:19.1Z</time>
      </trkpt>
      <trkpt lat="44.47497" lon="4.33584">
        <ele>141</ele>
        <time>2018-05-16T09:38:22.1Z</time>
      </trkpt>
      <trkpt lat="44.47506" lon="4.33587">
        <ele>142</ele>
        <time>2018-05-16T09:38:24.1Z</time>
      </trkpt>
      <trkpt lat="44.47518" lon="4.33589">
        <ele>142</ele>
        <time>2018-05-16T09:38:27.1Z</time>
      </trkpt>
      <trkpt lat="44.47527" lon="4.33586">
        <ele>143</ele>
        <time>2018-05-16T09:38:29.1Z</time>
      </trkpt>
      <trkpt lat="44.47535" lon="4.33582">
        <ele>143</ele>
        <time>2018-05-16T09:38:31.1Z</time>
      </trkpt>
      <trkpt lat="44.47545" lon="4.33572">
        <ele>143</ele>
        <time>2018-05-16T09:38:34.1Z</time>
      </trkpt>
      <trkpt lat="44.47552" lon="4.33566">
        <ele>143</ele>
        <time>2018-05-16T09:38:36.1Z</time>
      </trkpt>
      <trkpt lat="44.47559" lon="4.33558">
        <ele>144</ele>
        <time>2018-05-16T09:38:38.1Z</time>
      </trkpt>
      <trkpt lat="44.47567" lon="4.33551">
        <ele>144</ele>
        <time>2018-05-16T09:38:40.1Z</time>
      </trkpt>
      <trkpt lat="44.47574" lon="4.33544">
        <ele>144</ele>
        <time>2018-05-16T09:38:42.1Z</time>
      </trkpt>
      <trkpt lat="44.47581" lon="4.33537">
        <ele>144</ele>
        <time>2018-05-16T09:38:44.1Z</time>
      </trkpt>
      <trkpt lat="44.47592" lon="4.33526">
        <ele>143</ele>
        <time>2018-05-16T09:38:47.1Z</time>
      </trkpt>
      <trkpt lat="44.47599" lon="4.33519">
        <ele>143</ele>
        <time>2018-05-16T09:38:49.1Z</time>
      </trkpt>
      <trkpt lat="44.47606" lon="4.33512">
        <ele>143</ele>
        <time>2018-05-16T09:38:51.1Z</time>
      </trkpt>
      <trkpt lat="44.47617" lon="4.33501">
        <ele>143</ele>
        <time>2018-05-16T09:38:54.1Z</time>
      </trkpt>
      <trkpt lat="44.47628" lon="4.3349">
        <ele>143</ele>
        <time>2018-05-16T09:38:57.1Z</time>
      </trkpt>
      <trkpt lat="44.47639" lon="4.33478">
        <ele>143</ele>
        <time>2018-05-16T09:39:00.1Z</time>
      </trkpt>
      <trkpt lat="44.47646" lon="4.33471">
        <ele>143</ele>
        <time>2018-05-16T09:39:02.1Z</time>
      </trkpt>
      <trkpt lat="44.47658" lon="4.33459">
        <ele>143</ele>
        <time>2018-05-16T09:39:05.1Z</time>
      </trkpt>
      <trkpt lat="44.47665" lon="4.33451">
        <ele>143</ele>
        <time>2018-05-16T09:39:07.1Z</time>
      </trkpt>
      <trkpt lat="44.47672" lon="4.33442">
        <ele>143</ele>
        <time>2018-05-16T09:39:09.1Z</time>
      </trkpt>
      <trkpt lat="44.47682" lon="4.33427">
        <ele>143</ele>
        <time>2018-05-16T09:39:12.1Z</time>
      </trkpt>
      <trkpt lat="44.47689" lon="4.33417">
        <ele>143</ele>
        <time>2018-05-16T09:39:14.1Z</time>
      </trkpt>
      <trkpt lat="44.47695" lon="4.33407">
        <ele>143</ele>
        <time>2018-05-16T09:39:16.1Z</time>
      </trkpt>
      <trkpt lat="44.47703" lon="4.33391">
        <ele>143</ele>
        <time>2018-05-16T09:39:19.1Z</time>
      </trkpt>
      <trkpt lat="44.47709" lon="4.33381">
        <ele>143</ele>
        <time>2018-05-16T09:39:21.1Z</time>
      </trkpt>
      <trkpt lat="44.47715" lon="4.33371">
        <ele>144</ele>
        <time>2018-05-16T09:39:23.1Z</time>
      </trkpt>
      <trkpt lat="44.47721" lon="4.33361">
        <ele>145</ele>
        <time>2018-05-16T09:39:25.1Z</time>
      </trkpt>
      <trkpt lat="44.47728" lon="4.33352">
        <ele>146</ele>
        <time>2018-05-16T09:39:27.1Z</time>
      </trkpt>
      <trkpt lat="44.47738" lon="4.33339">
        <ele>147</ele>
        <time>2018-05-16T09:39:30.1Z</time>
      </trkpt>
      <trkpt lat="44.47745" lon="4.33331">
        <ele>148</ele>
        <time>2018-05-16T09:39:32.1Z</time>
      </trkpt>
      <trkpt lat="44.47752" lon="4.33323">
        <ele>150</ele>
        <time>2018-05-16T09:39:34.1Z</time>
      </trkpt>
      <trkpt lat="44.47758" lon="4.33315">
        <ele>150</ele>
        <time>2018-05-16T09:39:36.1Z</time>
      </trkpt>
      <trkpt lat="44.47764" lon="4.33306">
        <ele>150</ele>
        <time>2018-05-16T09:39:38.1Z</time>
      </trkpt>
      <trkpt lat="44.47773" lon="4.33292">
        <ele>149</ele>
        <time>2018-05-16T09:39:41.1Z</time>
      </trkpt>
      <trkpt lat="44.47782" lon="4.33278">
        <ele>149</ele>
        <time>2018-05-16T09:39:44.1Z</time>
      </trkpt>
      <trkpt lat="44.4779" lon="4.33264">
        <ele>148</ele>
        <time>2018-05-16T09:39:47.1Z</time>
      </trkpt>
      <trkpt lat="44.47799" lon="4.3325">
        <ele>148</ele>
        <time>2018-05-16T09:39:50.1Z</time>
      </trkpt>
      <trkpt lat="44.47807" lon="4.33236">
        <ele>148</ele>
        <time>2018-05-16T09:39:53.1Z</time>
      </trkpt>
      <trkpt lat="44.47811" lon="4.33227">
        <ele>149</ele>
        <time>2018-05-16T09:39:55.1Z</time>
      </trkpt>
      <trkpt lat="44.47817" lon="4.33213">
        <ele>148</ele>
        <time>2018-05-16T09:39:58.1Z</time>
      </trkpt>
      <trkpt lat="44.47823" lon="4.33198">
        <ele>148</ele>
        <time>2018-05-16T09:40:01.1Z</time>
      </trkpt>
      <trkpt lat="44.47829" lon="4.33184">
        <ele>149</ele>
        <time>2018-05-16T09:40:04.1Z</time>
      </trkpt>
      <trkpt lat="44.47836" lon="4.33169">
        <ele>149</ele>
        <time>2018-05-16T09:40:07.1Z</time>
      </trkpt>
      <trkpt lat="44.4784" lon="4.33159">
        <ele>148</ele>
        <time>2018-05-16T09:40:09.1Z</time>
      </trkpt>
      <trkpt lat="44.47848" lon="4.33145">
        <ele>148</ele>
        <time>2018-05-16T09:40:12.1Z</time>
      </trkpt>
      <trkpt lat="44.47858" lon="4.33131">
        <ele>148</ele>
        <time>2018-05-16T09:40:15.1Z</time>
      </trkpt>
      <trkpt lat="44.47868" lon="4.33118">
        <ele>147</ele>
        <time>2018-05-16T09:40:18.1Z</time>
      </trkpt>
      <trkpt lat="44.47879" lon="4.33107">
        <ele>148</ele>
        <time>2018-05-16T09:40:21.1Z</time>
      </trkpt>
      <trkpt lat="44.4789" lon="4.33095">
        <ele>149</ele>
        <time>2018-05-16T09:40:24.1Z</time>
      </trkpt>
      <trkpt lat="44.47898" lon="4.33087">
        <ele>149</ele>
        <time>2018-05-16T09:40:26.1Z</time>
      </trkpt>
      <trkpt lat="44.4791" lon="4.33076">
        <ele>149</ele>
        <time>2018-05-16T09:40:29.1Z</time>
      </trkpt>
      <trkpt lat="44.47918" lon="4.33068">
        <ele>149</ele>
        <time>2018-05-16T09:40:31.1Z</time>
      </trkpt>
      <trkpt lat="44.47929" lon="4.33056">
        <ele>149</ele>
        <time>2018-05-16T09:40:34.1Z</time>
      </trkpt>
      <trkpt lat="44.47937" lon="4.33049">
        <ele>149</ele>
        <time>2018-05-16T09:40:36.1Z</time>
      </trkpt>
      <trkpt lat="44.47949" lon="4.33038">
        <ele>150</ele>
        <time>2018-05-16T09:40:39.1Z</time>
      </trkpt>
      <trkpt lat="44.47957" lon="4.33031">
        <ele>150</ele>
        <time>2018-05-16T09:40:41.1Z</time>
      </trkpt>
      <trkpt lat="44.47964" lon="4.33024">
        <ele>150</ele>
        <time>2018-05-16T09:40:43.1Z</time>
      </trkpt>
      <trkpt lat="44.47977" lon="4.33014">
        <ele>150</ele>
        <time>2018-05-16T09:40:46.1Z</time>
      </trkpt>
      <trkpt lat="44.47989" lon="4.33005">
        <ele>150</ele>
        <time>2018-05-16T09:40:49.1Z</time>
      </trkpt>
      <trkpt lat="44.47997" lon="4.32998">
        <ele>151</ele>
        <time>2018-05-16T09:40:51.1Z</time>
      </trkpt>
      <trkpt lat="44.48004" lon="4.32991">
        <ele>150</ele>
        <time>2018-05-16T09:40:53.1Z</time>
      </trkpt>
      <trkpt lat="44.48015" lon="4.32979">
        <ele>150</ele>
        <time>2018-05-16T09:40:56.1Z</time>
      </trkpt>
      <trkpt lat="44.48025" lon="4.32966">
        <ele>149</ele>
        <time>2018-05-16T09:40:59.1Z</time>
      </trkpt>
      <trkpt lat="44.48035" lon="4.32951">
        <ele>149</ele>
        <time>2018-05-16T09:41:02.1Z</time>
      </trkpt>
      <trkpt lat="44.4804" lon="4.32941">
        <ele>150</ele>
        <time>2018-05-16T09:41:04.1Z</time>
      </trkpt>
      <trkpt lat="44.48048" lon="4.32926">
        <ele>150</ele>
        <time>2018-05-16T09:41:07.1Z</time>
      </trkpt>
      <trkpt lat="44.48053" lon="4.32915">
        <ele>150</ele>
        <time>2018-05-16T09:41:09.1Z</time>
      </trkpt>
      <trkpt lat="44.48059" lon="4.32898">
        <ele>150</ele>
        <time>2018-05-16T09:41:12.1Z</time>
      </trkpt>
      <trkpt lat="44.48066" lon="4.3288">
        <ele>150</ele>
        <time>2018-05-16T09:41:15.1Z</time>
      </trkpt>
      <trkpt lat="44.48071" lon="4.32862">
        <ele>151</ele>
        <time>2018-05-16T09:41:18.1Z</time>
      </trkpt>
      <trkpt lat="44.48074" lon="4.32849">
        <ele>151</ele>
        <time>2018-05-16T09:41:20.1Z</time>
      </trkpt>
      <trkpt lat="44.48075" lon="4.32837">
        <ele>152</ele>
        <time>2018-05-16T09:41:22.1Z</time>
      </trkpt>
      <trkpt lat="44.48076" lon="4.32824">
        <ele>153</ele>
        <time>2018-05-16T09:41:24.1Z</time>
      </trkpt>
      <trkpt lat="44.48075" lon="4.32804">
        <ele>154</ele>
        <time>2018-05-16T09:41:27.1Z</time>
      </trkpt>
      <trkpt lat="44.48073" lon="4.32791">
        <ele>154</ele>
        <time>2018-05-16T09:41:29.1Z</time>
      </trkpt>
      <trkpt lat="44.48072" lon="4.32769">
        <ele>154</ele>
        <time>2018-05-16T09:41:32.1Z</time>
      </trkpt>
      <trkpt lat="44.48074" lon="4.32755">
        <ele>153</ele>
        <time>2018-05-16T09:41:34.1Z</time>
      </trkpt>
      <trkpt lat="44.48084" lon="4.32739">
        <ele>153</ele>
        <time>2018-05-16T09:41:37.1Z</time>
      </trkpt>
      <trkpt lat="44.481" lon="4.32736">
        <ele>153</ele>
        <time>2018-05-16T09:41:40.1Z</time>
      </trkpt>
      <trkpt lat="44.48115" lon="4.32741">
        <ele>154</ele>
        <time>2018-05-16T09:41:43.1Z</time>
      </trkpt>
      <trkpt lat="44.4813" lon="4.32747">
        <ele>155</ele>
        <time>2018-05-16T09:41:46.1Z</time>
      </trkpt>
      <trkpt lat="44.48145" lon="4.32747">
        <ele>156</ele>
        <time>2018-05-16T09:41:49.1Z</time>
      </trkpt>
      <trkpt lat="44.48154" lon="4.32742">
        <ele>157</ele>
        <time>2018-05-16T09:41:51.1Z</time>
      </trkpt>
      <trkpt lat="44.48167" lon="4.32731">
        <ele>157</ele>
        <time>2018-05-16T09:41:54.1Z</time>
      </trkpt>
      <trkpt lat="44.48175" lon="4.32723">
        <ele>156</ele>
        <time>2018-05-16T09:41:56.1Z</time>
      </trkpt>
      <trkpt lat="44.48188" lon="4.32711">
        <ele>157</ele>
        <time>2018-05-16T09:41:59.1Z</time>
      </trkpt>
      <trkpt lat="44.48201" lon="4.32699">
        <ele>157</ele>
        <time>2018-05-16T09:42:02.1Z</time>
      </trkpt>
      <trkpt lat="44.4821" lon="4.32691">
        <ele>157</ele>
        <time>2018-05-16T09:42:04.1Z</time>
      </trkpt>
      <trkpt lat="44.4822" lon="4.32683">
        <ele>156</ele>
        <time>2018-05-16T09:42:06.1Z</time>
      </trkpt>
      <trkpt lat="44.48234" lon="4.32671">
        <ele>157</ele>
        <time>2018-05-16T09:42:09.1Z</time>
      </trkpt>
      <trkpt lat="44.48243" lon="4.32664">
        <ele>157</ele>
        <time>2018-05-16T09:42:11.1Z</time>
      </trkpt>
      <trkpt lat="44.48256" lon="4.32654">
        <ele>158</ele>
        <time>2018-05-16T09:42:14.1Z</time>
      </trkpt>
      <trkpt lat="44.48268" lon="4.32644">
        <ele>158</ele>
        <time>2018-05-16T09:42:17.1Z</time>
      </trkpt>
      <trkpt lat="44.48281" lon="4.32633">
        <ele>157</ele>
        <time>2018-05-16T09:42:20.1Z</time>
      </trkpt>
      <trkpt lat="44.48291" lon="4.32626">
        <ele>157</ele>
        <time>2018-05-16T09:42:22.1Z</time>
      </trkpt>
      <trkpt lat="44.48301" lon="4.32621">
        <ele>158</ele>
        <time>2018-05-16T09:42:24.1Z</time>
      </trkpt>
      <trkpt lat="44.48316" lon="4.32616">
        <ele>158</ele>
        <time>2018-05-16T09:42:27.1Z</time>
      </trkpt>
      <trkpt lat="44.48326" lon="4.32614">
        <ele>158</ele>
        <time>2018-05-16T09:42:29.1Z</time>
      </trkpt>
      <trkpt lat="44.48342" lon="4.32615">
        <ele>159</ele>
        <time>2018-05-16T09:42:32.1Z</time>
      </trkpt>
      <trkpt lat="44.48352" lon="4.32615">
        <ele>159</ele>
        <time>2018-05-16T09:42:34.1Z</time>
      </trkpt>
      <trkpt lat="44.48363" lon="4.32614">
        <ele>159</ele>
        <time>2018-05-16T09:42:36.1Z</time>
      </trkpt>
      <trkpt lat="44.48379" lon="4.3261">
        <ele>159</ele>
        <time>2018-05-16T09:42:39.1Z</time>
      </trkpt>
      <trkpt lat="44.48394" lon="4.32605">
        <ele>160</ele>
        <time>2018-05-16T09:42:42.1Z</time>
      </trkpt>
      <trkpt lat="44.4841" lon="4.32602">
        <ele>160</ele>
        <time>2018-05-16T09:42:45.1Z</time>
      </trkpt>
      <trkpt lat="44.48425" lon="4.32609">
        <ele>161</ele>
        <time>2018-05-16T09:42:48.1Z</time>
      </trkpt>
      <trkpt lat="44.48436" lon="4.32625">
        <ele>161</ele>
        <time>2018-05-16T09:42:51.1Z</time>
      </trkpt>
      <trkpt lat="44.48443" lon="4.32638">
        <ele>162</ele>
        <time>2018-05-16T09:42:53.1Z</time>
      </trkpt>
      <trkpt lat="44.48452" lon="4.32657">
        <ele>162</ele>
        <time>2018-05-16T09:42:56.1Z</time>
      </trkpt>
      <trkpt lat="44.48458" lon="4.3267">
        <ele>162</ele>
        <time>2018-05-16T09:42:58.1Z</time>
      </trkpt>
      <trkpt lat="44.48464" lon="4.32684">
        <ele>162</ele>
        <time>2018-05-16T09:43:00.1Z</time>
      </trkpt>
      <trkpt lat="44.48472" lon="4.32702">
        <ele>162</ele>
        <time>2018-05-16T09:43:03.1Z</time>
      </trkpt>
      <trkpt lat="44.48478" lon="4.32715">
        <ele>162</ele>
        <time>2018-05-16T09:43:05.1Z</time>
      </trkpt>
      <trkpt lat="44.48484" lon="4.32726">
        <ele>163</ele>
        <time>2018-05-16T09:43:07.1Z</time>
      </trkpt>
      <trkpt lat="44.48495" lon="4.32741">
        <ele>163</ele>
        <time>2018-05-16T09:43:10.1Z</time>
      </trkpt>
      <trkpt lat="44.48504" lon="4.32747">
        <ele>163</ele>
        <time>2018-05-16T09:43:12.1Z</time>
      </trkpt>
      <trkpt lat="44.48519" lon="4.32751">
        <ele>164</ele>
        <time>2018-05-16T09:43:15.1Z</time>
      </trkpt>
      <trkpt lat="44.48534" lon="4.32748">
        <ele>165</ele>
        <time>2018-05-16T09:43:18.1Z</time>
      </trkpt>
      <trkpt lat="44.48547" lon="4.3274">
        <ele>166</ele>
        <time>2018-05-16T09:43:21.1Z</time>
      </trkpt>
      <trkpt lat="44.4856" lon="4.32731">
        <ele>166</ele>
        <time>2018-05-16T09:43:24.1Z</time>
      </trkpt>
      <trkpt lat="44.48573" lon="4.32721">
        <ele>166</ele>
        <time>2018-05-16T09:43:27.1Z</time>
      </trkpt>
      <trkpt lat="44.48586" lon="4.32711">
        <ele>165</ele>
        <time>2018-05-16T09:43:30.1Z</time>
      </trkpt>
      <trkpt lat="44.48599" lon="4.32702">
        <ele>165</ele>
        <time>2018-05-16T09:43:33.1Z</time>
      </trkpt>
      <trkpt lat="44.48612" lon="4.32693">
        <ele>165</ele>
        <time>2018-05-16T09:43:36.1Z</time>
      </trkpt>
      <trkpt lat="44.48627" lon="4.32685">
        <ele>165</ele>
        <time>2018-05-16T09:43:39.1Z</time>
      </trkpt>
      <trkpt lat="44.48642" lon="4.32679">
        <ele>165</ele>
        <time>2018-05-16T09:43:42.1Z</time>
      </trkpt>
      <trkpt lat="44.48657" lon="4.32676">
        <ele>166</ele>
        <time>2018-05-16T09:43:45.1Z</time>
      </trkpt>
      <trkpt lat="44.48667" lon="4.32675">
        <ele>166</ele>
        <time>2018-05-16T09:43:47.1Z</time>
      </trkpt>
      <trkpt lat="44.48683" lon="4.32673">
        <ele>167</ele>
        <time>2018-05-16T09:43:50.1Z</time>
      </trkpt>
      <trkpt lat="44.48693" lon="4.32672">
        <ele>168</ele>
        <time>2018-05-16T09:43:52.1Z</time>
      </trkpt>
      <trkpt lat="44.48702" lon="4.32671">
        <ele>169</ele>
        <time>2018-05-16T09:43:54.1Z</time>
      </trkpt>
      <trkpt lat="44.48716" lon="4.32664">
        <ele>169</ele>
        <time>2018-05-16T09:43:57.1Z</time>
      </trkpt>
      <trkpt lat="44.48725" lon="4.32658">
        <ele>169</ele>
        <time>2018-05-16T09:43:59.1Z</time>
      </trkpt>
      <trkpt lat="44.48738" lon="4.32649">
        <ele>169</ele>
        <time>2018-05-16T09:44:02.1Z</time>
      </trkpt>
      <trkpt lat="44.48751" lon="4.3264">
        <ele>169</ele>
        <time>2018-05-16T09:44:05.1Z</time>
      </trkpt>
      <trkpt lat="44.4876" lon="4.32634">
        <ele>169</ele>
        <time>2018-05-16T09:44:07.1Z</time>
      </trkpt>
      <trkpt lat="44.48772" lon="4.32625">
        <ele>169</ele>
        <time>2018-05-16T09:44:10.1Z</time>
      </trkpt>
      <trkpt lat="44.4878" lon="4.32618">
        <ele>168</ele>
        <time>2018-05-16T09:44:12.1Z</time>
      </trkpt>
      <trkpt lat="44.48788" lon="4.3261">
        <ele>168</ele>
        <time>2018-05-16T09:44:14.1Z</time>
      </trkpt>
      <trkpt lat="44.48795" lon="4.326">
        <ele>167</ele>
        <time>2018-05-16T09:44:16.1Z</time>
      </trkpt>
      <trkpt lat="44.48801" lon="4.32589">
        <ele>167</ele>
        <time>2018-05-16T09:44:18.1Z</time>
      </trkpt>
      <trkpt lat="44.48806" lon="4.32578">
        <ele>166</ele>
        <time>2018-05-16T09:44:20.1Z</time>
      </trkpt>
      <trkpt lat="44.48814" lon="4.32561">
        <ele>166</ele>
        <time>2018-05-16T09:44:23.1Z</time>
      </trkpt>
      <trkpt lat="44.48821" lon="4.32551">
        <ele>166</ele>
        <time>2018-05-16T09:44:25.1Z</time>
      </trkpt>
      <trkpt lat="44.48835" lon="4.32544">
        <ele>166</ele>
        <time>2018-05-16T09:44:28.1Z</time>
      </trkpt>
      <trkpt lat="44.48849" lon="4.32544">
        <ele>167</ele>
        <time>2018-05-16T09:44:31.1Z</time>
      </trkpt>
      <trkpt lat="44.48859" lon="4.32545">
        <ele>167</ele>
        <time>2018-05-16T09:44:33.1Z</time>
      </trkpt>
      <trkpt lat="44.48875" lon="4.32538">
        <ele>168</ele>
        <time>2018-05-16T09:44:36.1Z</time>
      </trkpt>
      <trkpt lat="44.48883" lon="4.32531">
        <ele>168</ele>
        <time>2018-05-16T09:44:38.1Z</time>
      </trkpt>
      <trkpt lat="44.48891" lon="4.32521">
        <ele>168</ele>
        <time>2018-05-16T09:44:40.1Z</time>
      </trkpt>
      <trkpt lat="44.489" lon="4.32504">
        <ele>168</ele>
        <time>2018-05-16T09:44:43.1Z</time>
      </trkpt>
      <trkpt lat="44.48905" lon="4.32492">
        <ele>168</ele>
        <time>2018-05-16T09:44:45.1Z</time>
      </trkpt>
      <trkpt lat="44.48914" lon="4.32474">
        <ele>168</ele>
        <time>2018-05-16T09:44:48.1Z</time>
      </trkpt>
      <trkpt lat="44.48923" lon="4.32467">
        <ele>169</ele>
        <time>2018-05-16T09:44:50.1Z</time>
      </trkpt>
      <trkpt lat="44.48938" lon="4.32464">
        <ele>171</ele>
        <time>2018-05-16T09:44:53.1Z</time>
      </trkpt>
      <trkpt lat="44.48954" lon="4.32466">
        <ele>173</ele>
        <time>2018-05-16T09:44:56.1Z</time>
      </trkpt>
      <trkpt lat="44.48963" lon="4.32473">
        <ele>175</ele>
        <time>2018-05-16T09:44:59.1Z</time>
      </trkpt>
      <trkpt lat="44.48972" lon="4.32478">
        <ele>175</ele>
        <time>2018-05-16T09:45:02.1Z</time>
      </trkpt>
      <trkpt lat="44.48984" lon="4.32477">
        <ele>174</ele>
        <time>2018-05-16T09:45:05.1Z</time>
      </trkpt>
      <trkpt lat="44.48993" lon="4.3247">
        <ele>174</ele>
        <time>2018-05-16T09:45:07.1Z</time>
      </trkpt>
      <trkpt lat="44.49001" lon="4.32459">
        <ele>173</ele>
        <time>2018-05-16T09:45:09.1Z</time>
      </trkpt>
      <trkpt lat="44.49007" lon="4.32438">
        <ele>172</ele>
        <time>2018-05-16T09:45:12.1Z</time>
      </trkpt>
      <trkpt lat="44.49011" lon="4.32414">
        <ele>172</ele>
        <time>2018-05-16T09:45:15.1Z</time>
      </trkpt>
      <trkpt lat="44.49012" lon="4.32389">
        <ele>171</ele>
        <time>2018-05-16T09:45:18.1Z</time>
      </trkpt>
      <trkpt lat="44.49015" lon="4.32364">
        <ele>171</ele>
        <time>2018-05-16T09:45:21.1Z</time>
      </trkpt>
      <trkpt lat="44.49017" lon="4.32339">
        <ele>171</ele>
        <time>2018-05-16T09:45:24.1Z</time>
      </trkpt>
      <trkpt lat="44.49018" lon="4.32313">
        <ele>170</ele>
        <time>2018-05-16T09:45:27.1Z</time>
      </trkpt>
      <trkpt lat="44.49019" lon="4.32296">
        <ele>170</ele>
        <time>2018-05-16T09:45:29.1Z</time>
      </trkpt>
      <trkpt lat="44.4902" lon="4.32279">
        <ele>169</ele>
        <time>2018-05-16T09:45:31.1Z</time>
      </trkpt>
      <trkpt lat="44.49021" lon="4.32254">
        <ele>169</ele>
        <time>2018-05-16T09:45:34.1Z</time>
      </trkpt>
      <trkpt lat="44.49022" lon="4.32228">
        <ele>168</ele>
        <time>2018-05-16T09:45:37.1Z</time>
      </trkpt>
      <trkpt lat="44.49023" lon="4.32202">
        <ele>168</ele>
        <time>2018-05-16T09:45:40.1Z</time>
      </trkpt>
      <trkpt lat="44.49023" lon="4.32175">
        <ele>168</ele>
        <time>2018-05-16T09:45:43.1Z</time>
      </trkpt>
      <trkpt lat="44.4902" lon="4.32157">
        <ele>168</ele>
        <time>2018-05-16T09:45:45.1Z</time>
      </trkpt>
      <trkpt lat="44.49014" lon="4.32139">
        <ele>167</ele>
        <time>2018-05-16T09:45:47.1Z</time>
      </trkpt>
      <trkpt lat="44.49009" lon="4.32121">
        <ele>167</ele>
        <time>2018-05-16T09:45:49.1Z</time>
      </trkpt>
      <trkpt lat="44.49005" lon="4.32101">
        <ele>168</ele>
        <time>2018-05-16T09:45:51.1Z</time>
      </trkpt>
      <trkpt lat="44.49011" lon="4.32073">
        <ele>168</ele>
        <time>2018-05-16T09:45:54.1Z</time>
      </trkpt>
      <trkpt lat="44.49028" lon="4.32058">
        <ele>169</ele>
        <time>2018-05-16T09:45:57.1Z</time>
      </trkpt>
      <trkpt lat="44.49041" lon="4.32055">
        <ele>169</ele>
        <time>2018-05-16T09:45:59.1Z</time>
      </trkpt>
      <trkpt lat="44.49061" lon="4.32053">
        <ele>169</ele>
        <time>2018-05-16T09:46:02.1Z</time>
      </trkpt>
      <trkpt lat="44.49081" lon="4.3205">
        <ele>169</ele>
        <time>2018-05-16T09:46:05.1Z</time>
      </trkpt>
      <trkpt lat="44.49101" lon="4.32047">
        <ele>168</ele>
        <time>2018-05-16T09:46:08.1Z</time>
      </trkpt>
      <trkpt lat="44.4912" lon="4.32045">
        <ele>168</ele>
        <time>2018-05-16T09:46:11.1Z</time>
      </trkpt>
      <trkpt lat="44.4914" lon="4.32045">
        <ele>168</ele>
        <time>2018-05-16T09:46:14.1Z</time>
      </trkpt>
      <trkpt lat="44.49153" lon="4.32048">
        <ele>167</ele>
        <time>2018-05-16T09:46:16.1Z</time>
      </trkpt>
      <trkpt lat="44.49172" lon="4.32055">
        <ele>167</ele>
        <time>2018-05-16T09:46:19.1Z</time>
      </trkpt>
      <trkpt lat="44.4919" lon="4.32064">
        <ele>167</ele>
        <time>2018-05-16T09:46:22.1Z</time>
      </trkpt>
      <trkpt lat="44.49202" lon="4.32067">
        <ele>167</ele>
        <time>2018-05-16T09:46:24.1Z</time>
      </trkpt>
      <trkpt lat="44.49213" lon="4.32066">
        <ele>167</ele>
        <time>2018-05-16T09:46:26.1Z</time>
      </trkpt>
      <trkpt lat="44.49224" lon="4.3206">
        <ele>169</ele>
        <time>2018-05-16T09:46:28.1Z</time>
      </trkpt>
      <trkpt lat="44.49233" lon="4.32051">
        <ele>170</ele>
        <time>2018-05-16T09:46:30.1Z</time>
      </trkpt>
      <trkpt lat="44.4924" lon="4.3203">
        <ele>170</ele>
        <time>2018-05-16T09:46:33.1Z</time>
      </trkpt>
      <trkpt lat="44.49242" lon="4.32007">
        <ele>169</ele>
        <time>2018-05-16T09:46:36.1Z</time>
      </trkpt>
      <trkpt lat="44.49242" lon="4.31982">
        <ele>164</ele>
        <time>2018-05-16T09:46:39.1Z</time>
      </trkpt>
      <trkpt lat="44.49242" lon="4.31955">
        <ele>161</ele>
        <time>2018-05-16T09:46:42.1Z</time>
      </trkpt>
      <trkpt lat="44.49244" lon="4.31927">
        <ele>159</ele>
        <time>2018-05-16T09:46:45.1Z</time>
      </trkpt>
      <trkpt lat="44.49245" lon="4.31909">
        <ele>160</ele>
        <time>2018-05-16T09:46:47.1Z</time>
      </trkpt>
      <trkpt lat="44.49247" lon="4.31879">
        <ele>160</ele>
        <time>2018-05-16T09:46:50.1Z</time>
      </trkpt>
      <trkpt lat="44.49247" lon="4.31858">
        <ele>160</ele>
        <time>2018-05-16T09:46:52.1Z</time>
      </trkpt>
      <trkpt lat="44.49252" lon="4.31827">
        <ele>160</ele>
        <time>2018-05-16T09:46:55.1Z</time>
      </trkpt>
      <trkpt lat="44.49258" lon="4.3181">
        <ele>161</ele>
        <time>2018-05-16T09:46:57.1Z</time>
      </trkpt>
      <trkpt lat="44.49271" lon="4.31786">
        <ele>164</ele>
        <time>2018-05-16T09:47:00.1Z</time>
      </trkpt>
      <trkpt lat="44.49281" lon="4.31774">
        <ele>166</ele>
        <time>2018-05-16T09:47:02.1Z</time>
      </trkpt>
      <trkpt lat="44.49295" lon="4.31756">
        <ele>166</ele>
        <time>2018-05-16T09:47:05.1Z</time>
      </trkpt>
      <trkpt lat="44.49305" lon="4.31744">
        <ele>165</ele>
        <time>2018-05-16T09:47:07.1Z</time>
      </trkpt>
      <trkpt lat="44.49321" lon="4.31727">
        <ele>162</ele>
        <time>2018-05-16T09:47:10.1Z</time>
      </trkpt>
      <trkpt lat="44.49331" lon="4.31715">
        <ele>160</ele>
        <time>2018-05-16T09:47:12.1Z</time>
      </trkpt>
      <trkpt lat="44.49342" lon="4.31704">
        <ele>159</ele>
        <time>2018-05-16T09:47:14.1Z</time>
      </trkpt>
      <trkpt lat="44.49358" lon="4.31688">
        <ele>160</ele>
        <time>2018-05-16T09:47:17.1Z</time>
      </trkpt>
      <trkpt lat="44.49375" lon="4.31671">
        <ele>160</ele>
        <time>2018-05-16T09:47:20.1Z</time>
      </trkpt>
      <trkpt lat="44.49391" lon="4.31651">
        <ele>161</ele>
        <time>2018-05-16T09:47:23.1Z</time>
      </trkpt>
      <trkpt lat="44.49401" lon="4.31638">
        <ele>161</ele>
        <time>2018-05-16T09:47:25.1Z</time>
      </trkpt>
      <trkpt lat="44.49413" lon="4.31626">
        <ele>160</ele>
        <time>2018-05-16T09:47:27.1Z</time>
      </trkpt>
      <trkpt lat="44.49424" lon="4.31614">
        <ele>161</ele>
        <time>2018-05-16T09:47:29.1Z</time>
      </trkpt>
      <trkpt lat="44.49441" lon="4.31603">
        <ele>162</ele>
        <time>2018-05-16T09:47:32.1Z</time>
      </trkpt>
      <trkpt lat="44.49459" lon="4.31595">
        <ele>162</ele>
        <time>2018-05-16T09:47:35.1Z</time>
      </trkpt>
      <trkpt lat="44.49478" lon="4.31587">
        <ele>162</ele>
        <time>2018-05-16T09:47:38.1Z</time>
      </trkpt>
      <trkpt lat="44.49497" lon="4.3158">
        <ele>160</ele>
        <time>2018-05-16T09:47:41.1Z</time>
      </trkpt>
      <trkpt lat="44.49516" lon="4.31574">
        <ele>161</ele>
        <time>2018-05-16T09:47:44.1Z</time>
      </trkpt>
      <trkpt lat="44.49535" lon="4.31573">
        <ele>160</ele>
        <time>2018-05-16T09:47:47.1Z</time>
      </trkpt>
      <trkpt lat="44.49554" lon="4.31574">
        <ele>161</ele>
        <time>2018-05-16T09:47:50.1Z</time>
      </trkpt>
      <trkpt lat="44.49568" lon="4.31576">
        <ele>161</ele>
        <time>2018-05-16T09:47:52.1Z</time>
      </trkpt>
      <trkpt lat="44.49588" lon="4.3158">
        <ele>160</ele>
        <time>2018-05-16T09:47:55.1Z</time>
      </trkpt>
      <trkpt lat="44.49601" lon="4.31583">
        <ele>160</ele>
        <time>2018-05-16T09:47:57.1Z</time>
      </trkpt>
      <trkpt lat="44.49614" lon="4.31586">
        <ele>160</ele>
        <time>2018-05-16T09:47:59.1Z</time>
      </trkpt>
      <trkpt lat="44.49627" lon="4.31589">
        <ele>159</ele>
        <time>2018-05-16T09:48:01.1Z</time>
      </trkpt>
      <trkpt lat="44.49641" lon="4.31591">
        <ele>160</ele>
        <time>2018-05-16T09:48:03.1Z</time>
      </trkpt>
      <trkpt lat="44.4966" lon="4.31597">
        <ele>159</ele>
        <time>2018-05-16T09:48:06.1Z</time>
      </trkpt>
      <trkpt lat="44.49673" lon="4.316">
        <ele>160</ele>
        <time>2018-05-16T09:48:08.1Z</time>
      </trkpt>
      <trkpt lat="44.49693" lon="4.31604">
        <ele>160</ele>
        <time>2018-05-16T09:48:11.1Z</time>
      </trkpt>
      <trkpt lat="44.49713" lon="4.31607">
        <ele>161</ele>
        <time>2018-05-16T09:48:14.1Z</time>
      </trkpt>
      <trkpt lat="44.49733" lon="4.3161">
        <ele>161</ele>
        <time>2018-05-16T09:48:17.1Z</time>
      </trkpt>
      <trkpt lat="44.49746" lon="4.31612">
        <ele>162</ele>
        <time>2018-05-16T09:48:19.1Z</time>
      </trkpt>
      <trkpt lat="44.49765" lon="4.31612">
        <ele>161</ele>
        <time>2018-05-16T09:48:22.1Z</time>
      </trkpt>
      <trkpt lat="44.49786" lon="4.31608">
        <ele>160</ele>
        <time>2018-05-16T09:48:25.1Z</time>
      </trkpt>
      <trkpt lat="44.49799" lon="4.31603">
        <ele>160</ele>
        <time>2018-05-16T09:48:27.1Z</time>
      </trkpt>
      <trkpt lat="44.49812" lon="4.31597">
        <ele>160</ele>
        <time>2018-05-16T09:48:29.1Z</time>
      </trkpt>
      <trkpt lat="44.49831" lon="4.31586">
        <ele>159</ele>
        <time>2018-05-16T09:48:32.1Z</time>
      </trkpt>
      <trkpt lat="44.49845" lon="4.31584">
        <ele>159</ele>
        <time>2018-05-16T09:48:34.1Z</time>
      </trkpt>
      <trkpt lat="44.49865" lon="4.31586">
        <ele>159</ele>
        <time>2018-05-16T09:48:37.1Z</time>
      </trkpt>
      <trkpt lat="44.49883" lon="4.31595">
        <ele>158</ele>
        <time>2018-05-16T09:48:40.1Z</time>
      </trkpt>
      <trkpt lat="44.49895" lon="4.31604">
        <ele>158</ele>
        <time>2018-05-16T09:48:42.1Z</time>
      </trkpt>
      <trkpt lat="44.49911" lon="4.31621">
        <ele>159</ele>
        <time>2018-05-16T09:48:45.1Z</time>
      </trkpt>
      <trkpt lat="44.49921" lon="4.31632">
        <ele>159</ele>
        <time>2018-05-16T09:48:47.1Z</time>
      </trkpt>
      <trkpt lat="44.49931" lon="4.31642">
        <ele>159</ele>
        <time>2018-05-16T09:48:49.1Z</time>
      </trkpt>
      <trkpt lat="44.49948" lon="4.31656">
        <ele>158</ele>
        <time>2018-05-16T09:48:52.1Z</time>
      </trkpt>
      <trkpt lat="44.49959" lon="4.31665">
        <ele>158</ele>
        <time>2018-05-16T09:48:54.1Z</time>
      </trkpt>
      <trkpt lat="44.49976" lon="4.31677">
        <ele>157</ele>
        <time>2018-05-16T09:48:57.1Z</time>
      </trkpt>
      <trkpt lat="44.49988" lon="4.31685">
        <ele>157</ele>
        <time>2018-05-16T09:48:59.1Z</time>
      </trkpt>
      <trkpt lat="44.50005" lon="4.31696">
        <ele>157</ele>
        <time>2018-05-16T09:49:02.1Z</time>
      </trkpt>
      <trkpt lat="44.50017" lon="4.31703">
        <ele>156</ele>
        <time>2018-05-16T09:49:04.1Z</time>
      </trkpt>
      <trkpt lat="44.50029" lon="4.31709">
        <ele>156</ele>
        <time>2018-05-16T09:49:06.1Z</time>
      </trkpt>
      <trkpt lat="44.50047" lon="4.31716">
        <ele>155</ele>
        <time>2018-05-16T09:49:09.1Z</time>
      </trkpt>
      <trkpt lat="44.50066" lon="4.31719">
        <ele>154</ele>
        <time>2018-05-16T09:49:12.1Z</time>
      </trkpt>
      <trkpt lat="44.50079" lon="4.31719">
        <ele>154</ele>
        <time>2018-05-16T09:49:14.1Z</time>
      </trkpt>
      <trkpt lat="44.50097" lon="4.31716">
        <ele>154</ele>
        <time>2018-05-16T09:49:17.1Z</time>
      </trkpt>
      <trkpt lat="44.50108" lon="4.31711">
        <ele>154</ele>
        <time>2018-05-16T09:49:19.1Z</time>
      </trkpt>
      <trkpt lat="44.50125" lon="4.317">
        <ele>154</ele>
        <time>2018-05-16T09:49:22.1Z</time>
      </trkpt>
      <trkpt lat="44.50135" lon="4.31691">
        <ele>154</ele>
        <time>2018-05-16T09:49:24.1Z</time>
      </trkpt>
      <trkpt lat="44.50148" lon="4.31673">
        <ele>154</ele>
        <time>2018-05-16T09:49:27.1Z</time>
      </trkpt>
      <trkpt lat="44.50156" lon="4.31658">
        <ele>153</ele>
        <time>2018-05-16T09:49:29.1Z</time>
      </trkpt>
      <trkpt lat="44.50162" lon="4.31643">
        <ele>153</ele>
        <time>2018-05-16T09:49:31.1Z</time>
      </trkpt>
      <trkpt lat="44.50167" lon="4.31626">
        <ele>153</ele>
        <time>2018-05-16T09:49:33.1Z</time>
      </trkpt>
      <trkpt lat="44.5017" lon="4.31608">
        <ele>154</ele>
        <time>2018-05-16T09:49:35.1Z</time>
      </trkpt>
      <trkpt lat="44.50172" lon="4.3159">
        <ele>154</ele>
        <time>2018-05-16T09:49:37.1Z</time>
      </trkpt>
      <trkpt lat="44.50174" lon="4.31565">
        <ele>154</ele>
        <time>2018-05-16T09:49:40.1Z</time>
      </trkpt>
      <trkpt lat="44.50175" lon="4.3154">
        <ele>154</ele>
        <time>2018-05-16T09:49:43.1Z</time>
      </trkpt>
      <trkpt lat="44.50176" lon="4.31515">
        <ele>153</ele>
        <time>2018-05-16T09:49:46.1Z</time>
      </trkpt>
      <trkpt lat="44.50177" lon="4.31498">
        <ele>153</ele>
        <time>2018-05-16T09:49:48.1Z</time>
      </trkpt>
      <trkpt lat="44.50178" lon="4.31472">
        <ele>153</ele>
        <time>2018-05-16T09:49:51.1Z</time>
      </trkpt>
      <trkpt lat="44.50178" lon="4.31445">
        <ele>152</ele>
        <time>2018-05-16T09:49:54.1Z</time>
      </trkpt>
      <trkpt lat="44.50179" lon="4.31417">
        <ele>152</ele>
        <time>2018-05-16T09:49:57.1Z</time>
      </trkpt>
      <trkpt lat="44.5018" lon="4.31398">
        <ele>151</ele>
        <time>2018-05-16T09:49:59.1Z</time>
      </trkpt>
      <trkpt lat="44.50183" lon="4.31372">
        <ele>151</ele>
        <time>2018-05-16T09:50:02.1Z</time>
      </trkpt>
      <trkpt lat="44.50189" lon="4.31356">
        <ele>150</ele>
        <time>2018-05-16T09:50:04.1Z</time>
      </trkpt>
      <trkpt lat="44.50203" lon="4.31334">
        <ele>150</ele>
        <time>2018-05-16T09:50:07.1Z</time>
      </trkpt>
      <trkpt lat="44.50213" lon="4.31323">
        <ele>150</ele>
        <time>2018-05-16T09:50:09.1Z</time>
      </trkpt>
      <trkpt lat="44.50231" lon="4.3131">
        <ele>151</ele>
        <time>2018-05-16T09:50:12.1Z</time>
      </trkpt>
      <trkpt lat="44.50243" lon="4.31302">
        <ele>152</ele>
        <time>2018-05-16T09:50:14.1Z</time>
      </trkpt>
      <trkpt lat="44.50261" lon="4.31289">
        <ele>152</ele>
        <time>2018-05-16T09:50:17.1Z</time>
      </trkpt>
      <trkpt lat="44.50273" lon="4.31282">
        <ele>152</ele>
        <time>2018-05-16T09:50:19.1Z</time>
      </trkpt>
      <trkpt lat="44.50284" lon="4.31274">
        <ele>152</ele>
        <time>2018-05-16T09:50:21.1Z</time>
      </trkpt>
      <trkpt lat="44.503" lon="4.31263">
        <ele>153</ele>
        <time>2018-05-16T09:50:24.1Z</time>
      </trkpt>
      <trkpt lat="44.50311" lon="4.31255">
        <ele>153</ele>
        <time>2018-05-16T09:50:26.1Z</time>
      </trkpt>
      <trkpt lat="44.50327" lon="4.31245">
        <ele>153</ele>
        <time>2018-05-16T09:50:29.1Z</time>
      </trkpt>
      <trkpt lat="44.50336" lon="4.31238">
        <ele>154</ele>
        <time>2018-05-16T09:50:31.1Z</time>
      </trkpt>
      <trkpt lat="44.50351" lon="4.31226">
        <ele>157</ele>
        <time>2018-05-16T09:50:34.1Z</time>
      </trkpt>
      <trkpt lat="44.5036" lon="4.31218">
        <ele>157</ele>
        <time>2018-05-16T09:50:36.1Z</time>
      </trkpt>
      <trkpt lat="44.50374" lon="4.31207">
        <ele>158</ele>
        <time>2018-05-16T09:50:39.1Z</time>
      </trkpt>
      <trkpt lat="44.50383" lon="4.31199">
        <ele>156</ele>
        <time>2018-05-16T09:50:41.1Z</time>
      </trkpt>
      <trkpt lat="44.50394" lon="4.31189">
        <ele>155</ele>
        <time>2018-05-16T09:50:44.1Z</time>
      </trkpt>
      <trkpt lat="44.504" lon="4.31183">
        <ele>154</ele>
        <time>2018-05-16T09:50:46.1Z</time>
      </trkpt>
      <trkpt lat="44.50404" lon="4.31177">
        <ele>154</ele>
        <time>2018-05-16T09:50:48.1Z</time>
      </trkpt>
      <trkpt lat="44.50412" lon="4.31167">
        <ele>154</ele>
        <time>2018-05-16T09:50:51.1Z</time>
      </trkpt>
      <trkpt lat="44.50415" lon="4.31161">
        <ele>153</ele>
        <time>2018-05-16T09:50:53.1Z</time>
      </trkpt>
      <trkpt lat="44.50418" lon="4.31156">
        <ele>154</ele>
        <time>2018-05-16T09:50:55.1Z</time>
      </trkpt>
      <trkpt lat="44.50423" lon="4.3115">
        <ele>154</ele>
        <time>2018-05-16T09:50:58.1Z</time>
      </trkpt>
      <trkpt lat="44.50428" lon="4.31148">
        <ele>154</ele>
        <time>2018-05-16T09:51:00.1Z</time>
      </trkpt>
      <trkpt lat="44.50434" lon="4.31146">
        <ele>154</ele>
        <time>2018-05-16T09:51:03.1Z</time>
      </trkpt>
      <trkpt lat="44.5044" lon="4.31144">
        <ele>154</ele>
        <time>2018-05-16T09:51:06.1Z</time>
      </trkpt>
      <trkpt lat="44.50444" lon="4.3114">
        <ele>154</ele>
        <time>2018-05-16T09:51:09.1Z</time>
      </trkpt>
      <trkpt lat="44.50447" lon="4.3114">
        <ele>155</ele>
        <time>2018-05-16T09:51:11.1Z</time>
      </trkpt>
      <trkpt lat="44.50448" lon="4.3114">
        <ele>154</ele>
        <time>2018-05-16T09:51:15.1Z</time>
      </trkpt>
      <trkpt lat="44.50448" lon="4.3114">
        <ele>154</ele>
        <time>2018-05-16T09:51:18.1Z</time>
      </trkpt>
      <trkpt lat="44.50448" lon="4.31139">
        <ele>154</ele>
        <time>2018-05-16T09:51:21.1Z</time>
      </trkpt>
      <trkpt lat="44.50449" lon="4.31139">
        <ele>155</ele>
        <time>2018-05-16T09:51:23.1Z</time>
      </trkpt>
      <trkpt lat="44.50449" lon="4.31139">
        <ele>157</ele>
        <time>2018-05-16T09:51:26.1Z</time>
      </trkpt>
      <trkpt lat="44.50449" lon="4.31139">
        <ele>157</ele>
        <time>2018-05-16T09:51:29.1Z</time>
      </trkpt>
      <trkpt lat="44.50449" lon="4.31139">
        <ele>157</ele>
        <time>2018-05-16T09:51:31.1Z</time>
      </trkpt>
      <trkpt lat="44.5045" lon="4.31139">
        <ele>157</ele>
        <time>2018-05-16T09:51:33.1Z</time>
      </trkpt>
      <trkpt lat="44.5045" lon="4.31139">
        <ele>157</ele>
        <time>2018-05-16T09:51:36.1Z</time>
      </trkpt>
      <trkpt lat="44.5045" lon="4.3114">
        <ele>157</ele>
        <time>2018-05-16T09:51:39.1Z</time>
      </trkpt>
      <trkpt lat="44.5045" lon="4.3114">
        <ele>157</ele>
        <time>2018-05-16T09:51:42.1Z</time>
      </trkpt>
      <trkpt lat="44.5045" lon="4.3114">
        <ele>157</ele>
        <time>2018-05-16T09:51:46.1Z</time>
      </trkpt>
      <trkpt lat="44.5045" lon="4.3114">
        <ele>157</ele>
        <time>2018-05-16T09:51:49.1Z</time>
      </trkpt>
      <trkpt lat="44.5045" lon="4.31141">
        <ele>157</ele>
        <time>2018-05-16T09:51:51.1Z</time>
      </trkpt>
      <trkpt lat="44.5045" lon="4.31141">
        <ele>157</ele>
        <time>2018-05-16T09:51:54.1Z</time>
      </trkpt>
      <trkpt lat="44.50449" lon="4.31141">
        <ele>157</ele>
        <time>2018-05-16T09:51:58.1Z</time>
      </trkpt>
      <trkpt lat="44.50449" lon="4.31142">
        <ele>157</ele>
        <time>2018-05-16T09:52:00.1Z</time>
      </trkpt>
      <trkpt lat="44.50449" lon="4.31142">
        <ele>158</ele>
        <time>2018-05-16T09:52:02.1Z</time>
      </trkpt>
      <trkpt lat="44.50449" lon="4.31142">
        <ele>158</ele>
        <time>2018-05-16T09:52:05.1Z</time>
      </trkpt>
      <trkpt lat="44.50449" lon="4.31142">
        <ele>158</ele>
        <time>2018-05-16T09:52:08.1Z</time>
      </trkpt>
      <trkpt lat="44.50449" lon="4.31142">
        <ele>156</ele>
        <time>2018-05-16T09:52:11.1Z</time>
      </trkpt>
      <trkpt lat="44.50449" lon="4.31142">
        <ele>153</ele>
        <time>2018-05-16T09:52:19.1Z</time>
      </trkpt>
      <trkpt lat="44.50449" lon="4.31142">
        <ele>154</ele>
        <time>2018-05-16T09:52:22.1Z</time>
      </trkpt>
      <trkpt lat="44.50449" lon="4.31142">
        <ele>155</ele>
        <time>2018-05-16T09:52:24.1Z</time>
      </trkpt>
      <trkpt lat="44.50449" lon="4.31142">
        <ele>156</ele>
        <time>2018-05-16T09:52:27.1Z</time>
      </trkpt>
      <trkpt lat="44.50449" lon="4.31142">
        <ele>157</ele>
        <time>2018-05-16T09:52:30.1Z</time>
      </trkpt>
      <trkpt lat="44.50449" lon="4.31143">
        <ele>157</ele>
        <time>2018-05-16T09:52:32.1Z</time>
      </trkpt>
      <trkpt lat="44.50449" lon="4.31142">
        <ele>156</ele>
        <time>2018-05-16T09:52:34.1Z</time>
      </trkpt>
      <trkpt lat="44.50449" lon="4.31142">
        <ele>154</ele>
        <time>2018-05-16T09:52:37.1Z</time>
      </trkpt>
      <trkpt lat="44.50449" lon="4.31141">
        <ele>154</ele>
        <time>2018-05-16T09:52:39.1Z</time>
      </trkpt>
      <trkpt lat="44.50449" lon="4.31139">
        <ele>154</ele>
        <time>2018-05-16T09:52:42.1Z</time>
      </trkpt>
      <trkpt lat="44.50449" lon="4.31139">
        <ele>155</ele>
        <time>2018-05-16T09:52:45.1Z</time>
      </trkpt>
      <trkpt lat="44.50449" lon="4.31138">
        <ele>155</ele>
        <time>2018-05-16T09:52:47.1Z</time>
      </trkpt>
      <trkpt lat="44.50449" lon="4.31138">
        <ele>155</ele>
        <time>2018-05-16T09:52:50.1Z</time>
      </trkpt>
      <trkpt lat="44.50449" lon="4.31138">
        <ele>155</ele>
        <time>2018-05-16T09:52:53.1Z</time>
      </trkpt>
      <trkpt lat="44.50449" lon="4.31138">
        <ele>155</ele>
        <time>2018-05-16T09:52:56.1Z</time>
      </trkpt>
      <trkpt lat="44.50449" lon="4.31138">
        <ele>155</ele>
        <time>2018-05-16T09:52:59.1Z</time>
      </trkpt>
      <trkpt lat="44.50448" lon="4.31138">
        <ele>155</ele>
        <time>2018-05-16T09:53:02.1Z</time>
      </trkpt>
      <trkpt lat="44.50448" lon="4.31138">
        <ele>156</ele>
        <time>2018-05-16T09:53:05.1Z</time>
      </trkpt>
      <trkpt lat="44.50448" lon="4.31137">
        <ele>156</ele>
        <time>2018-05-16T09:53:08.1Z</time>
      </trkpt>
      <trkpt lat="44.50448" lon="4.31137">
        <ele>156</ele>
        <time>2018-05-16T09:53:11.1Z</time>
      </trkpt>
      <trkpt lat="44.50447" lon="4.31137">
        <ele>155</ele>
        <time>2018-05-16T09:53:14.1Z</time>
      </trkpt>
      <trkpt lat="44.50448" lon="4.31136">
        <ele>155</ele>
        <time>2018-05-16T09:53:18.1Z</time>
      </trkpt>
      <trkpt lat="44.50448" lon="4.31136">
        <ele>155</ele>
        <time>2018-05-16T09:53:21.1Z</time>
      </trkpt>
      <trkpt lat="44.50448" lon="4.31135">
        <ele>155</ele>
        <time>2018-05-16T09:53:24.1Z</time>
      </trkpt>
      <trkpt lat="44.50448" lon="4.31135">
        <ele>155</ele>
        <time>2018-05-16T09:53:28.1Z</time>
      </trkpt>
      <trkpt lat="44.50448" lon="4.31135">
        <ele>156</ele>
        <time>2018-05-16T09:53:30.1Z</time>
      </trkpt>
      <trkpt lat="44.50448" lon="4.31134">
        <ele>156</ele>
        <time>2018-05-16T09:53:34.1Z</time>
      </trkpt>
      <trkpt lat="44.50448" lon="4.31134">
        <ele>156</ele>
        <time>2018-05-16T09:53:38.1Z</time>
      </trkpt>
      <trkpt lat="44.50448" lon="4.31134">
        <ele>156</ele>
        <time>2018-05-16T09:53:42.1Z</time>
      </trkpt>
      <trkpt lat="44.50448" lon="4.31134">
        <ele>155</ele>
        <time>2018-05-16T09:53:45.1Z</time>
      </trkpt>
      <trkpt lat="44.50449" lon="4.31134">
        <ele>155</ele>
        <time>2018-05-16T09:53:48.1Z</time>
      </trkpt>
      <trkpt lat="44.50449" lon="4.31133">
        <ele>155</ele>
        <time>2018-05-16T09:53:50.1Z</time>
      </trkpt>
      <trkpt lat="44.50449" lon="4.31133">
        <ele>156</ele>
        <time>2018-05-16T09:53:53.1Z</time>
      </trkpt>
      <trkpt lat="44.50449" lon="4.31133">
        <ele>155</ele>
        <time>2018-05-16T09:53:55.1Z</time>
      </trkpt>
      <trkpt lat="44.5045" lon="4.31134">
        <ele>156</ele>
        <time>2018-05-16T09:53:57.1Z</time>
      </trkpt>
      <trkpt lat="44.50451" lon="4.31135">
        <ele>156</ele>
        <time>2018-05-16T09:54:00.1Z</time>
      </trkpt>
      <trkpt lat="44.50452" lon="4.31134">
        <ele>156</ele>
        <time>2018-05-16T09:54:03.1Z</time>
      </trkpt>
      <trkpt lat="44.50454" lon="4.31133">
        <ele>155</ele>
        <time>2018-05-16T09:54:06.1Z</time>
      </trkpt>
      <trkpt lat="44.50454" lon="4.31132">
        <ele>155</ele>
        <time>2018-05-16T09:54:08.1Z</time>
      </trkpt>
      <trkpt lat="44.50454" lon="4.31132">
        <ele>155</ele>
        <time>2018-05-16T09:54:10.1Z</time>
      </trkpt>
      <trkpt lat="44.50454" lon="4.31132">
        <ele>156</ele>
        <time>2018-05-16T09:54:15.1Z</time>
      </trkpt>
      <trkpt lat="44.50455" lon="4.31132">
        <ele>156</ele>
        <time>2018-05-16T09:54:17.1Z</time>
      </trkpt>
      <trkpt lat="44.50455" lon="4.31133">
        <ele>155</ele>
        <time>2018-05-16T09:54:19.1Z</time>
      </trkpt>
      <trkpt lat="44.50455" lon="4.31132">
        <ele>155</ele>
        <time>2018-05-16T09:54:22.1Z</time>
      </trkpt>
      <trkpt lat="44.50458" lon="4.3113">
        <ele>154</ele>
        <time>2018-05-16T09:54:25.1Z</time>
      </trkpt>
      <trkpt lat="44.50461" lon="4.31126">
        <ele>154</ele>
        <time>2018-05-16T09:54:28.1Z</time>
      </trkpt>
      <trkpt lat="44.50464" lon="4.31124">
        <ele>154</ele>
        <time>2018-05-16T09:54:30.1Z</time>
      </trkpt>
      <trkpt lat="44.50468" lon="4.3112">
        <ele>155</ele>
        <time>2018-05-16T09:54:33.1Z</time>
      </trkpt>
      <trkpt lat="44.50475" lon="4.31114">
        <ele>156</ele>
        <time>2018-05-16T09:54:36.1Z</time>
      </trkpt>
      <trkpt lat="44.5048" lon="4.31111">
        <ele>156</ele>
        <time>2018-05-16T09:54:38.1Z</time>
      </trkpt>
      <trkpt lat="44.50488" lon="4.31103">
        <ele>156</ele>
        <time>2018-05-16T09:54:41.1Z</time>
      </trkpt>
      <trkpt lat="44.50494" lon="4.31098">
        <ele>157</ele>
        <time>2018-05-16T09:54:43.1Z</time>
      </trkpt>
      <trkpt lat="44.505" lon="4.31093">
        <ele>157</ele>
        <time>2018-05-16T09:54:45.1Z</time>
      </trkpt>
      <trkpt lat="44.50509" lon="4.31086">
        <ele>157</ele>
        <time>2018-05-16T09:54:48.1Z</time>
      </trkpt>
      <trkpt lat="44.50514" lon="4.31082">
        <ele>156</ele>
        <time>2018-05-16T09:54:50.1Z</time>
      </trkpt>
      <trkpt lat="44.50518" lon="4.3108">
        <ele>156</ele>
        <time>2018-05-16T09:54:52.1Z</time>
      </trkpt>
      <trkpt lat="44.50525" lon="4.31075">
        <ele>155</ele>
        <time>2018-05-16T09:54:55.1Z</time>
      </trkpt>
      <trkpt lat="44.50528" lon="4.31072">
        <ele>155</ele>
        <time>2018-05-16T09:54:57.1Z</time>
      </trkpt>
      <trkpt lat="44.5053" lon="4.31071">
        <ele>155</ele>
        <time>2018-05-16T09:55:00.1Z</time>
      </trkpt>
      <trkpt lat="44.50531" lon="4.3107">
        <ele>156</ele>
        <time>2018-05-16T09:55:03.1Z</time>
      </trkpt>
      <trkpt lat="44.50532" lon="4.3107">
        <ele>156</ele>
        <time>2018-05-16T09:55:05.1Z</time>
      </trkpt>
      <trkpt lat="44.50534" lon="4.31071">
        <ele>156</ele>
        <time>2018-05-16T09:55:07.1Z</time>
      </trkpt>
      <trkpt lat="44.50535" lon="4.31072">
        <ele>157</ele>
        <time>2018-05-16T09:55:10.1Z</time>
      </trkpt>
      <trkpt lat="44.50536" lon="4.31072">
        <ele>157</ele>
        <time>2018-05-16T09:55:12.1Z</time>
      </trkpt>
      <trkpt lat="44.50537" lon="4.31072">
        <ele>158</ele>
        <time>2018-05-16T09:55:15.1Z</time>
      </trkpt>
      <trkpt lat="44.5054" lon="4.31074">
        <ele>158</ele>
        <time>2018-05-16T09:55:17.1Z</time>
      </trkpt>
      <trkpt lat="44.50544" lon="4.31081">
        <ele>157</ele>
        <time>2018-05-16T09:55:20.1Z</time>
      </trkpt>
      <trkpt lat="44.50547" lon="4.31088">
        <ele>157</ele>
        <time>2018-05-16T09:55:22.1Z</time>
      </trkpt>
      <trkpt lat="44.50551" lon="4.31095">
        <ele>157</ele>
        <time>2018-05-16T09:55:24.1Z</time>
      </trkpt>
      <trkpt lat="44.50557" lon="4.31108">
        <ele>158</ele>
        <time>2018-05-16T09:55:27.1Z</time>
      </trkpt>
      <trkpt lat="44.50563" lon="4.31117">
        <ele>158</ele>
        <time>2018-05-16T09:55:29.1Z</time>
      </trkpt>
      <trkpt lat="44.50571" lon="4.31134">
        <ele>157</ele>
        <time>2018-05-16T09:55:32.1Z</time>
      </trkpt>
      <trkpt lat="44.50578" lon="4.31146">
        <ele>157</ele>
        <time>2018-05-16T09:55:34.1Z</time>
      </trkpt>
      <trkpt lat="44.50587" lon="4.31164">
        <ele>157</ele>
        <time>2018-05-16T09:55:37.1Z</time>
      </trkpt>
      <trkpt lat="44.50594" lon="4.31176">
        <ele>158</ele>
        <time>2018-05-16T09:55:39.1Z</time>
      </trkpt>
      <trkpt lat="44.50604" lon="4.31195">
        <ele>158</ele>
        <time>2018-05-16T09:55:42.1Z</time>
      </trkpt>
      <trkpt lat="44.5061" lon="4.31207">
        <ele>157</ele>
        <time>2018-05-16T09:55:44.1Z</time>
      </trkpt>
      <trkpt lat="44.50621" lon="4.31226">
        <ele>156</ele>
        <time>2018-05-16T09:55:47.1Z</time>
      </trkpt>
      <trkpt lat="44.50628" lon="4.31239">
        <ele>156</ele>
        <time>2018-05-16T09:55:49.1Z</time>
      </trkpt>
      <trkpt lat="44.50638" lon="4.31259">
        <ele>157</ele>
        <time>2018-05-16T09:55:52.1Z</time>
      </trkpt>
      <trkpt lat="44.50645" lon="4.31273">
        <ele>157</ele>
        <time>2018-05-16T09:55:54.1Z</time>
      </trkpt>
      <trkpt lat="44.50652" lon="4.31287">
        <ele>157</ele>
        <time>2018-05-16T09:55:56.1Z</time>
      </trkpt>
      <trkpt lat="44.5066" lon="4.31301">
        <ele>155</ele>
        <time>2018-05-16T09:55:58.1Z</time>
      </trkpt>
      <trkpt lat="44.50672" lon="4.31323">
        <ele>154</ele>
        <time>2018-05-16T09:56:01.1Z</time>
      </trkpt>
      <trkpt lat="44.5068" lon="4.31338">
        <ele>154</ele>
        <time>2018-05-16T09:56:03.1Z</time>
      </trkpt>
      <trkpt lat="44.50692" lon="4.3136">
        <ele>154</ele>
        <time>2018-05-16T09:56:06.1Z</time>
      </trkpt>
      <trkpt lat="44.50703" lon="4.31383">
        <ele>153</ele>
        <time>2018-05-16T09:56:09.1Z</time>
      </trkpt>
      <trkpt lat="44.50711" lon="4.31397">
        <ele>153</ele>
        <time>2018-05-16T09:56:11.1Z</time>
      </trkpt>
      <trkpt lat="44.50723" lon="4.31421">
        <ele>153</ele>
        <time>2018-05-16T09:56:14.1Z</time>
      </trkpt>
      <trkpt lat="44.50732" lon="4.31445">
        <ele>153</ele>
        <time>2018-05-16T09:56:17.1Z</time>
      </trkpt>
      <trkpt lat="44.50738" lon="4.31462">
        <ele>153</ele>
        <time>2018-05-16T09:56:19.1Z</time>
      </trkpt>
      <trkpt lat="44.50745" lon="4.31486">
        <ele>153</ele>
        <time>2018-05-16T09:56:22.1Z</time>
      </trkpt>
      <trkpt lat="44.5075" lon="4.315">
        <ele>153</ele>
        <time>2018-05-16T09:56:24.1Z</time>
      </trkpt>
      <trkpt lat="44.50755" lon="4.3152">
        <ele>152</ele>
        <time>2018-05-16T09:56:27.1Z</time>
      </trkpt>
      <trkpt lat="44.5076" lon="4.31537">
        <ele>152</ele>
        <time>2018-05-16T09:56:30.1Z</time>
      </trkpt>
      <trkpt lat="44.50766" lon="4.31556">
        <ele>152</ele>
        <time>2018-05-16T09:56:33.1Z</time>
      </trkpt>
      <trkpt lat="44.50775" lon="4.31574">
        <ele>152</ele>
        <time>2018-05-16T09:56:36.1Z</time>
      </trkpt>
      <trkpt lat="44.50781" lon="4.31585">
        <ele>152</ele>
        <time>2018-05-16T09:56:38.1Z</time>
      </trkpt>
      <trkpt lat="44.50791" lon="4.31597">
        <ele>152</ele>
        <time>2018-05-16T09:56:41.1Z</time>
      </trkpt>
      <trkpt lat="44.50798" lon="4.31604">
        <ele>152</ele>
        <time>2018-05-16T09:56:43.1Z</time>
      </trkpt>
      <trkpt lat="44.5081" lon="4.31613">
        <ele>152</ele>
        <time>2018-05-16T09:56:46.1Z</time>
      </trkpt>
      <trkpt lat="44.50818" lon="4.31618">
        <ele>153</ele>
        <time>2018-05-16T09:56:48.1Z</time>
      </trkpt>
      <trkpt lat="44.5083" lon="4.31626">
        <ele>153</ele>
        <time>2018-05-16T09:56:51.1Z</time>
      </trkpt>
      <trkpt lat="44.50841" lon="4.31633">
        <ele>154</ele>
        <time>2018-05-16T09:56:54.1Z</time>
      </trkpt>
      <trkpt lat="44.50848" lon="4.31637">
        <ele>154</ele>
        <time>2018-05-16T09:56:56.1Z</time>
      </trkpt>
      <trkpt lat="44.50854" lon="4.3164">
        <ele>154</ele>
        <time>2018-05-16T09:56:58.1Z</time>
      </trkpt>
      <trkpt lat="44.50864" lon="4.31646">
        <ele>154</ele>
        <time>2018-05-16T09:57:01.1Z</time>
      </trkpt>
      <trkpt lat="44.50872" lon="4.31651">
        <ele>155</ele>
        <time>2018-05-16T09:57:04.1Z</time>
      </trkpt>
      <trkpt lat="44.5088" lon="4.31656">
        <ele>156</ele>
        <time>2018-05-16T09:57:07.1Z</time>
      </trkpt>
      <trkpt lat="44.50888" lon="4.31661">
        <ele>156</ele>
        <time>2018-05-16T09:57:10.1Z</time>
      </trkpt>
      <trkpt lat="44.50894" lon="4.31663">
        <ele>157</ele>
        <time>2018-05-16T09:57:12.1Z</time>
      </trkpt>
      <trkpt lat="44.50902" lon="4.31668">
        <ele>157</ele>
        <time>2018-05-16T09:57:15.1Z</time>
      </trkpt>
      <trkpt lat="44.50907" lon="4.3167">
        <ele>157</ele>
        <time>2018-05-16T09:57:17.1Z</time>
      </trkpt>
      <trkpt lat="44.50916" lon="4.31674">
        <ele>157</ele>
        <time>2018-05-16T09:57:20.1Z</time>
      </trkpt>
      <trkpt lat="44.50924" lon="4.31679">
        <ele>157</ele>
        <time>2018-05-16T09:57:22.1Z</time>
      </trkpt>
      <trkpt lat="44.50939" lon="4.31687">
        <ele>160</ele>
        <time>2018-05-16T09:57:25.1Z</time>
      </trkpt>
      <trkpt lat="44.50955" lon="4.31694">
        <ele>162</ele>
        <time>2018-05-16T09:57:28.1Z</time>
      </trkpt>
      <trkpt lat="44.50964" lon="4.31696">
        <ele>163</ele>
        <time>2018-05-16T09:57:30.1Z</time>
      </trkpt>
      <trkpt lat="44.50973" lon="4.31697">
        <ele>163</ele>
        <time>2018-05-16T09:57:32.1Z</time>
      </trkpt>
      <trkpt lat="44.50986" lon="4.31697">
        <ele>163</ele>
        <time>2018-05-16T09:57:35.1Z</time>
      </trkpt>
      <trkpt lat="44.50999" lon="4.31698">
        <ele>164</ele>
        <time>2018-05-16T09:57:38.1Z</time>
      </trkpt>
      <trkpt lat="44.51012" lon="4.31698">
        <ele>165</ele>
        <time>2018-05-16T09:57:41.1Z</time>
      </trkpt>
      <trkpt lat="44.51021" lon="4.31698">
        <ele>165</ele>
        <time>2018-05-16T09:57:43.1Z</time>
      </trkpt>
      <trkpt lat="44.51034" lon="4.31698">
        <ele>165</ele>
        <time>2018-05-16T09:57:46.1Z</time>
      </trkpt>
      <trkpt lat="44.51046" lon="4.31699">
        <ele>166</ele>
        <time>2018-05-16T09:57:49.1Z</time>
      </trkpt>
      <trkpt lat="44.51054" lon="4.31699">
        <ele>167</ele>
        <time>2018-05-16T09:57:51.1Z</time>
      </trkpt>
      <trkpt lat="44.51065" lon="4.317">
        <ele>167</ele>
        <time>2018-05-16T09:57:54.1Z</time>
      </trkpt>
      <trkpt lat="44.51073" lon="4.31701">
        <ele>167</ele>
        <time>2018-05-16T09:57:56.1Z</time>
      </trkpt>
      <trkpt lat="44.5108" lon="4.31702">
        <ele>167</ele>
        <time>2018-05-16T09:57:58.1Z</time>
      </trkpt>
      <trkpt lat="44.51088" lon="4.31702">
        <ele>167</ele>
        <time>2018-05-16T09:58:00.1Z</time>
      </trkpt>
      <trkpt lat="44.51096" lon="4.31701">
        <ele>167</ele>
        <time>2018-05-16T09:58:02.1Z</time>
      </trkpt>
      <trkpt lat="44.51104" lon="4.317">
        <ele>168</ele>
        <time>2018-05-16T09:58:04.1Z</time>
      </trkpt>
      <trkpt lat="44.51116" lon="4.31699">
        <ele>168</ele>
        <time>2018-05-16T09:58:07.1Z</time>
      </trkpt>
      <trkpt lat="44.51124" lon="4.31698">
        <ele>168</ele>
        <time>2018-05-16T09:58:09.1Z</time>
      </trkpt>
      <trkpt lat="44.51136" lon="4.31696">
        <ele>168</ele>
        <time>2018-05-16T09:58:12.1Z</time>
      </trkpt>
      <trkpt lat="44.51146" lon="4.31694">
        <ele>169</ele>
        <time>2018-05-16T09:58:15.1Z</time>
      </trkpt>
      <trkpt lat="44.51154" lon="4.31694">
        <ele>169</ele>
        <time>2018-05-16T09:58:17.1Z</time>
      </trkpt>
      <trkpt lat="44.51161" lon="4.31693">
        <ele>170</ele>
        <time>2018-05-16T09:58:19.1Z</time>
      </trkpt>
      <trkpt lat="44.51168" lon="4.31694">
        <ele>170</ele>
        <time>2018-05-16T09:58:21.1Z</time>
      </trkpt>
      <trkpt lat="44.51178" lon="4.31696">
        <ele>171</ele>
        <time>2018-05-16T09:58:24.1Z</time>
      </trkpt>
      <trkpt lat="44.51186" lon="4.317">
        <ele>172</ele>
        <time>2018-05-16T09:58:27.1Z</time>
      </trkpt>
      <trkpt lat="44.51197" lon="4.31702">
        <ele>171</ele>
        <time>2018-05-16T09:58:30.1Z</time>
      </trkpt>
      <trkpt lat="44.51203" lon="4.3169">
        <ele>171</ele>
        <time>2018-05-16T09:58:33.1Z</time>
      </trkpt>
      <trkpt lat="44.51205" lon="4.31674">
        <ele>171</ele>
        <time>2018-05-16T09:58:36.1Z</time>
      </trkpt>
      <trkpt lat="44.51208" lon="4.31664">
        <ele>171</ele>
        <time>2018-05-16T09:58:38.1Z</time>
      </trkpt>
      <trkpt lat="44.51216" lon="4.31653">
        <ele>171</ele>
        <time>2018-05-16T09:58:41.1Z</time>
      </trkpt>
      <trkpt lat="44.51223" lon="4.31646">
        <ele>171</ele>
        <time>2018-05-16T09:58:43.1Z</time>
      </trkpt>
      <trkpt lat="44.51231" lon="4.31639">
        <ele>171</ele>
        <time>2018-05-16T09:58:45.1Z</time>
      </trkpt>
      <trkpt lat="44.51238" lon="4.31633">
        <ele>171</ele>
        <time>2018-05-16T09:58:47.1Z</time>
      </trkpt>
      <trkpt lat="44.51253" lon="4.31625">
        <ele>171</ele>
        <time>2018-05-16T09:58:50.1Z</time>
      </trkpt>
      <trkpt lat="44.51263" lon="4.31621">
        <ele>171</ele>
        <time>2018-05-16T09:58:52.1Z</time>
      </trkpt>
      <trkpt lat="44.51275" lon="4.31615">
        <ele>171</ele>
        <time>2018-05-16T09:58:54.1Z</time>
      </trkpt>
      <trkpt lat="44.51287" lon="4.3161">
        <ele>170</ele>
        <time>2018-05-16T09:58:56.1Z</time>
      </trkpt>
      <trkpt lat="44.51306" lon="4.31601">
        <ele>171</ele>
        <time>2018-05-16T09:58:59.1Z</time>
      </trkpt>
      <trkpt lat="44.51319" lon="4.31594">
        <ele>171</ele>
        <time>2018-05-16T09:59:01.1Z</time>
      </trkpt>
      <trkpt lat="44.51337" lon="4.3158">
        <ele>171</ele>
        <time>2018-05-16T09:59:04.1Z</time>
      </trkpt>
      <trkpt lat="44.51355" lon="4.31562">
        <ele>170</ele>
        <time>2018-05-16T09:59:07.1Z</time>
      </trkpt>
      <trkpt lat="44.51367" lon="4.3155">
        <ele>170</ele>
        <time>2018-05-16T09:59:09.1Z</time>
      </trkpt>
      <trkpt lat="44.51385" lon="4.3153">
        <ele>168</ele>
        <time>2018-05-16T09:59:12.1Z</time>
      </trkpt>
      <trkpt lat="44.51402" lon="4.3151">
        <ele>167</ele>
        <time>2018-05-16T09:59:15.1Z</time>
      </trkpt>
      <trkpt lat="44.51419" lon="4.3149">
        <ele>166</ele>
        <time>2018-05-16T09:59:18.1Z</time>
      </trkpt>
      <trkpt lat="44.51437" lon="4.3147">
        <ele>165</ele>
        <time>2018-05-16T09:59:21.1Z</time>
      </trkpt>
      <trkpt lat="44.51448" lon="4.31456">
        <ele>165</ele>
        <time>2018-05-16T09:59:23.1Z</time>
      </trkpt>
      <trkpt lat="44.5146" lon="4.31443">
        <ele>165</ele>
        <time>2018-05-16T09:59:25.1Z</time>
      </trkpt>
      <trkpt lat="44.51472" lon="4.3143">
        <ele>165</ele>
        <time>2018-05-16T09:59:27.1Z</time>
      </trkpt>
      <trkpt lat="44.51489" lon="4.3141">
        <ele>164</ele>
        <time>2018-05-16T09:59:30.1Z</time>
      </trkpt>
      <trkpt lat="44.515" lon="4.31397">
        <ele>163</ele>
        <time>2018-05-16T09:59:32.1Z</time>
      </trkpt>
      <trkpt lat="44.51511" lon="4.31385">
        <ele>162</ele>
        <time>2018-05-16T09:59:34.1Z</time>
      </trkpt>
      <trkpt lat="44.51527" lon="4.31368">
        <ele>162</ele>
        <time>2018-05-16T09:59:37.1Z</time>
      </trkpt>
      <trkpt lat="44.51537" lon="4.31357">
        <ele>161</ele>
        <time>2018-05-16T09:59:39.1Z</time>
      </trkpt>
      <trkpt lat="44.51551" lon="4.31344">
        <ele>161</ele>
        <time>2018-05-16T09:59:42.1Z</time>
      </trkpt>
      <trkpt lat="44.5156" lon="4.31335">
        <ele>161</ele>
        <time>2018-05-16T09:59:44.1Z</time>
      </trkpt>
      <trkpt lat="44.51573" lon="4.31323">
        <ele>161</ele>
        <time>2018-05-16T09:59:47.1Z</time>
      </trkpt>
      <trkpt lat="44.51585" lon="4.3131">
        <ele>162</ele>
        <time>2018-05-16T09:59:50.1Z</time>
      </trkpt>
      <trkpt lat="44.51593" lon="4.31302">
        <ele>162</ele>
        <time>2018-05-16T09:59:52.1Z</time>
      </trkpt>
      <trkpt lat="44.51605" lon="4.3129">
        <ele>162</ele>
        <time>2018-05-16T09:59:55.1Z</time>
      </trkpt>
      <trkpt lat="44.51617" lon="4.31278">
        <ele>161</ele>
        <time>2018-05-16T09:59:58.1Z</time>
      </trkpt>
      <trkpt lat="44.51629" lon="4.31266">
        <ele>162</ele>
        <time>2018-05-16T10:00:01.1Z</time>
      </trkpt>
      <trkpt lat="44.51637" lon="4.31258">
        <ele>163</ele>
        <time>2018-05-16T10:00:03.1Z</time>
      </trkpt>
      <trkpt lat="44.51648" lon="4.31247">
        <ele>163</ele>
        <time>2018-05-16T10:00:06.1Z</time>
      </trkpt>
      <trkpt lat="44.51655" lon="4.31239">
        <ele>163</ele>
        <time>2018-05-16T10:00:08.1Z</time>
      </trkpt>
      <trkpt lat="44.51666" lon="4.31228">
        <ele>164</ele>
        <time>2018-05-16T10:00:11.1Z</time>
      </trkpt>
      <trkpt lat="44.51677" lon="4.31218">
        <ele>164</ele>
        <time>2018-05-16T10:00:14.1Z</time>
      </trkpt>
      <trkpt lat="44.51689" lon="4.31207">
        <ele>164</ele>
        <time>2018-05-16T10:00:17.1Z</time>
      </trkpt>
      <trkpt lat="44.51696" lon="4.312">
        <ele>165</ele>
        <time>2018-05-16T10:00:19.1Z</time>
      </trkpt>
      <trkpt lat="44.51704" lon="4.31194">
        <ele>165</ele>
        <time>2018-05-16T10:00:21.1Z</time>
      </trkpt>
      <trkpt lat="44.51717" lon="4.31185">
        <ele>167</ele>
        <time>2018-05-16T10:00:24.1Z</time>
      </trkpt>
      <trkpt lat="44.51724" lon="4.31179">
        <ele>168</ele>
        <time>2018-05-16T10:00:26.1Z</time>
      </trkpt>
      <trkpt lat="44.51736" lon="4.31169">
        <ele>169</ele>
        <time>2018-05-16T10:00:29.1Z</time>
      </trkpt>
      <trkpt lat="44.51747" lon="4.31158">
        <ele>169</ele>
        <time>2018-05-16T10:00:32.1Z</time>
      </trkpt>
      <trkpt lat="44.51757" lon="4.31145">
        <ele>168</ele>
        <time>2018-05-16T10:00:35.1Z</time>
      </trkpt>
      <trkpt lat="44.51767" lon="4.3113">
        <ele>168</ele>
        <time>2018-05-16T10:00:38.1Z</time>
      </trkpt>
      <trkpt lat="44.51773" lon="4.31119">
        <ele>168</ele>
        <time>2018-05-16T10:00:40.1Z</time>
      </trkpt>
      <trkpt lat="44.51781" lon="4.31103">
        <ele>168</ele>
        <time>2018-05-16T10:00:43.1Z</time>
      </trkpt>
      <trkpt lat="44.51788" lon="4.31085">
        <ele>169</ele>
        <time>2018-05-16T10:00:46.1Z</time>
      </trkpt>
      <trkpt lat="44.51793" lon="4.31074">
        <ele>169</ele>
        <time>2018-05-16T10:00:48.1Z</time>
      </trkpt>
      <trkpt lat="44.51798" lon="4.31062">
        <ele>170</ele>
        <time>2018-05-16T10:00:50.1Z</time>
      </trkpt>
      <trkpt lat="44.51804" lon="4.31044">
        <ele>170</ele>
        <time>2018-05-16T10:00:53.1Z</time>
      </trkpt>
      <trkpt lat="44.51811" lon="4.31027">
        <ele>171</ele>
        <time>2018-05-16T10:00:56.1Z</time>
      </trkpt>
      <trkpt lat="44.51818" lon="4.31009">
        <ele>170</ele>
        <time>2018-05-16T10:00:59.1Z</time>
      </trkpt>
      <trkpt lat="44.51825" lon="4.30991">
        <ele>169</ele>
        <time>2018-05-16T10:01:02.1Z</time>
      </trkpt>
      <trkpt lat="44.5183" lon="4.30978">
        <ele>169</ele>
        <time>2018-05-16T10:01:04.1Z</time>
      </trkpt>
      <trkpt lat="44.51837" lon="4.30959">
        <ele>170</ele>
        <time>2018-05-16T10:01:07.1Z</time>
      </trkpt>
      <trkpt lat="44.51844" lon="4.30941">
        <ele>171</ele>
        <time>2018-05-16T10:01:10.1Z</time>
      </trkpt>
      <trkpt lat="44.51849" lon="4.30929">
        <ele>171</ele>
        <time>2018-05-16T10:01:12.1Z</time>
      </trkpt>
      <trkpt lat="44.51855" lon="4.30911">
        <ele>171</ele>
        <time>2018-05-16T10:01:15.1Z</time>
      </trkpt>
      <trkpt lat="44.51862" lon="4.30893">
        <ele>171</ele>
        <time>2018-05-16T10:01:18.1Z</time>
      </trkpt>
      <trkpt lat="44.51867" lon="4.3088">
        <ele>171</ele>
        <time>2018-05-16T10:01:20.1Z</time>
      </trkpt>
      <trkpt lat="44.51872" lon="4.30867">
        <ele>171</ele>
        <time>2018-05-16T10:01:22.1Z</time>
      </trkpt>
      <trkpt lat="44.51877" lon="4.30855">
        <ele>170</ele>
        <time>2018-05-16T10:01:24.1Z</time>
      </trkpt>
      <trkpt lat="44.51881" lon="4.30842">
        <ele>170</ele>
        <time>2018-05-16T10:01:26.1Z</time>
      </trkpt>
      <trkpt lat="44.51888" lon="4.30826">
        <ele>170</ele>
        <time>2018-05-16T10:01:29.1Z</time>
      </trkpt>
      <trkpt lat="44.51892" lon="4.30816">
        <ele>170</ele>
        <time>2018-05-16T10:01:31.1Z</time>
      </trkpt>
      <trkpt lat="44.51896" lon="4.30805">
        <ele>170</ele>
        <time>2018-05-16T10:01:33.1Z</time>
      </trkpt>
      <trkpt lat="44.51899" lon="4.30793">
        <ele>170</ele>
        <time>2018-05-16T10:01:35.1Z</time>
      </trkpt>
      <trkpt lat="44.51905" lon="4.30781">
        <ele>171</ele>
        <time>2018-05-16T10:01:37.1Z</time>
      </trkpt>
      <trkpt lat="44.51913" lon="4.30763">
        <ele>172</ele>
        <time>2018-05-16T10:01:40.1Z</time>
      </trkpt>
      <trkpt lat="44.5192" lon="4.30746">
        <ele>172</ele>
        <time>2018-05-16T10:01:43.1Z</time>
      </trkpt>
      <trkpt lat="44.51925" lon="4.30735">
        <ele>172</ele>
        <time>2018-05-16T10:01:45.1Z</time>
      </trkpt>
      <trkpt lat="44.51931" lon="4.30718">
        <ele>172</ele>
        <time>2018-05-16T10:01:48.1Z</time>
      </trkpt>
      <trkpt lat="44.51936" lon="4.30707">
        <ele>172</ele>
        <time>2018-05-16T10:01:50.1Z</time>
      </trkpt>
      <trkpt lat="44.51942" lon="4.30688">
        <ele>172</ele>
        <time>2018-05-16T10:01:53.1Z</time>
      </trkpt>
      <trkpt lat="44.51949" lon="4.30669">
        <ele>172</ele>
        <time>2018-05-16T10:01:56.1Z</time>
      </trkpt>
      <trkpt lat="44.51955" lon="4.30651">
        <ele>173</ele>
        <time>2018-05-16T10:01:59.1Z</time>
      </trkpt>
      <trkpt lat="44.51959" lon="4.30639">
        <ele>173</ele>
        <time>2018-05-16T10:02:01.1Z</time>
      </trkpt>
      <trkpt lat="44.51966" lon="4.30621">
        <ele>172</ele>
        <time>2018-05-16T10:02:04.1Z</time>
      </trkpt>
      <trkpt lat="44.5197" lon="4.30609">
        <ele>172</ele>
        <time>2018-05-16T10:02:06.1Z</time>
      </trkpt>
      <trkpt lat="44.51975" lon="4.30596">
        <ele>172</ele>
        <time>2018-05-16T10:02:08.1Z</time>
      </trkpt>
      <trkpt lat="44.51982" lon="4.30579">
        <ele>173</ele>
        <time>2018-05-16T10:02:11.1Z</time>
      </trkpt>
      <trkpt lat="44.51987" lon="4.30567">
        <ele>173</ele>
        <time>2018-05-16T10:02:13.1Z</time>
      </trkpt>
      <trkpt lat="44.51993" lon="4.30556">
        <ele>173</ele>
        <time>2018-05-16T10:02:15.1Z</time>
      </trkpt>
      <trkpt lat="44.52003" lon="4.30541">
        <ele>173</ele>
        <time>2018-05-16T10:02:18.1Z</time>
      </trkpt>
      <trkpt lat="44.52011" lon="4.30531">
        <ele>173</ele>
        <time>2018-05-16T10:02:20.1Z</time>
      </trkpt>
      <trkpt lat="44.52019" lon="4.30521">
        <ele>173</ele>
        <time>2018-05-16T10:02:22.1Z</time>
      </trkpt>
      <trkpt lat="44.52027" lon="4.30513">
        <ele>173</ele>
        <time>2018-05-16T10:02:24.1Z</time>
      </trkpt>
      <trkpt lat="44.52036" lon="4.30504">
        <ele>174</ele>
        <time>2018-05-16T10:02:26.1Z</time>
      </trkpt>
      <trkpt lat="44.52049" lon="4.30491">
        <ele>174</ele>
        <time>2018-05-16T10:02:29.1Z</time>
      </trkpt>
      <trkpt lat="44.52062" lon="4.30479">
        <ele>176</ele>
        <time>2018-05-16T10:02:32.1Z</time>
      </trkpt>
      <trkpt lat="44.52076" lon="4.30466">
        <ele>176</ele>
        <time>2018-05-16T10:02:35.1Z</time>
      </trkpt>
      <trkpt lat="44.52084" lon="4.30458">
        <ele>176</ele>
        <time>2018-05-16T10:02:37.1Z</time>
      </trkpt>
      <trkpt lat="44.52093" lon="4.30449">
        <ele>175</ele>
        <time>2018-05-16T10:02:39.1Z</time>
      </trkpt>
      <trkpt lat="44.52106" lon="4.30435">
        <ele>174</ele>
        <time>2018-05-16T10:02:42.1Z</time>
      </trkpt>
      <trkpt lat="44.52121" lon="4.30422">
        <ele>173</ele>
        <time>2018-05-16T10:02:45.1Z</time>
      </trkpt>
      <trkpt lat="44.5213" lon="4.30412">
        <ele>173</ele>
        <time>2018-05-16T10:02:47.1Z</time>
      </trkpt>
      <trkpt lat="44.52144" lon="4.30399">
        <ele>173</ele>
        <time>2018-05-16T10:02:50.1Z</time>
      </trkpt>
      <trkpt lat="44.52158" lon="4.30385">
        <ele>174</ele>
        <time>2018-05-16T10:02:53.1Z</time>
      </trkpt>
      <trkpt lat="44.52168" lon="4.30376">
        <ele>174</ele>
        <time>2018-05-16T10:02:55.1Z</time>
      </trkpt>
      <trkpt lat="44.52182" lon="4.30363">
        <ele>174</ele>
        <time>2018-05-16T10:02:58.1Z</time>
      </trkpt>
      <trkpt lat="44.52196" lon="4.3035">
        <ele>175</ele>
        <time>2018-05-16T10:03:01.1Z</time>
      </trkpt>
      <trkpt lat="44.52205" lon="4.30342">
        <ele>175</ele>
        <time>2018-05-16T10:03:03.1Z</time>
      </trkpt>
      <trkpt lat="44.52215" lon="4.30333">
        <ele>175</ele>
        <time>2018-05-16T10:03:05.1Z</time>
      </trkpt>
      <trkpt lat="44.52224" lon="4.30324">
        <ele>175</ele>
        <time>2018-05-16T10:03:07.1Z</time>
      </trkpt>
      <trkpt lat="44.52237" lon="4.30311">
        <ele>175</ele>
        <time>2018-05-16T10:03:10.1Z</time>
      </trkpt>
      <trkpt lat="44.52247" lon="4.30303">
        <ele>175</ele>
        <time>2018-05-16T10:03:12.1Z</time>
      </trkpt>
      <trkpt lat="44.52261" lon="4.30291">
        <ele>176</ele>
        <time>2018-05-16T10:03:15.1Z</time>
      </trkpt>
      <trkpt lat="44.52276" lon="4.30278">
        <ele>176</ele>
        <time>2018-05-16T10:03:18.1Z</time>
      </trkpt>
      <trkpt lat="44.52285" lon="4.3027">
        <ele>176</ele>
        <time>2018-05-16T10:03:20.1Z</time>
      </trkpt>
      <trkpt lat="44.523" lon="4.30258">
        <ele>175</ele>
        <time>2018-05-16T10:03:23.1Z</time>
      </trkpt>
      <trkpt lat="44.5231" lon="4.30249">
        <ele>174</ele>
        <time>2018-05-16T10:03:25.1Z</time>
      </trkpt>
      <trkpt lat="44.52319" lon="4.3024">
        <ele>174</ele>
        <time>2018-05-16T10:03:27.1Z</time>
      </trkpt>
      <trkpt lat="44.52332" lon="4.30225">
        <ele>174</ele>
        <time>2018-05-16T10:03:30.1Z</time>
      </trkpt>
      <trkpt lat="44.52346" lon="4.30209">
        <ele>174</ele>
        <time>2018-05-16T10:03:33.1Z</time>
      </trkpt>
      <trkpt lat="44.52354" lon="4.30199">
        <ele>174</ele>
        <time>2018-05-16T10:03:35.1Z</time>
      </trkpt>
      <trkpt lat="44.52363" lon="4.30189">
        <ele>175</ele>
        <time>2018-05-16T10:03:37.1Z</time>
      </trkpt>
      <trkpt lat="44.52371" lon="4.30178">
        <ele>175</ele>
        <time>2018-05-16T10:03:39.1Z</time>
      </trkpt>
      <trkpt lat="44.5238" lon="4.30169">
        <ele>176</ele>
        <time>2018-05-16T10:03:41.1Z</time>
      </trkpt>
      <trkpt lat="44.52393" lon="4.30156">
        <ele>177</ele>
        <time>2018-05-16T10:03:44.1Z</time>
      </trkpt>
      <trkpt lat="44.52402" lon="4.30148">
        <ele>177</ele>
        <time>2018-05-16T10:03:46.1Z</time>
      </trkpt>
      <trkpt lat="44.52415" lon="4.30139">
        <ele>177</ele>
        <time>2018-05-16T10:03:49.1Z</time>
      </trkpt>
      <trkpt lat="44.52425" lon="4.30133">
        <ele>177</ele>
        <time>2018-05-16T10:03:51.1Z</time>
      </trkpt>
      <trkpt lat="44.52435" lon="4.30127">
        <ele>177</ele>
        <time>2018-05-16T10:03:53.1Z</time>
      </trkpt>
      <trkpt lat="44.52449" lon="4.3012">
        <ele>178</ele>
        <time>2018-05-16T10:03:56.1Z</time>
      </trkpt>
      <trkpt lat="44.52459" lon="4.30114">
        <ele>179</ele>
        <time>2018-05-16T10:03:58.1Z</time>
      </trkpt>
      <trkpt lat="44.52473" lon="4.30107">
        <ele>179</ele>
        <time>2018-05-16T10:04:01.1Z</time>
      </trkpt>
      <trkpt lat="44.52488" lon="4.301">
        <ele>180</ele>
        <time>2018-05-16T10:04:04.1Z</time>
      </trkpt>
      <trkpt lat="44.52497" lon="4.30096">
        <ele>179</ele>
        <time>2018-05-16T10:04:06.1Z</time>
      </trkpt>
      <trkpt lat="44.52507" lon="4.30091">
        <ele>179</ele>
        <time>2018-05-16T10:04:08.1Z</time>
      </trkpt>
      <trkpt lat="44.52521" lon="4.30085">
        <ele>180</ele>
        <time>2018-05-16T10:04:11.1Z</time>
      </trkpt>
      <trkpt lat="44.52535" lon="4.30077">
        <ele>180</ele>
        <time>2018-05-16T10:04:14.1Z</time>
      </trkpt>
      <trkpt lat="44.52548" lon="4.30068">
        <ele>181</ele>
        <time>2018-05-16T10:04:17.1Z</time>
      </trkpt>
      <trkpt lat="44.52557" lon="4.3006">
        <ele>181</ele>
        <time>2018-05-16T10:04:19.1Z</time>
      </trkpt>
      <trkpt lat="44.52569" lon="4.30049">
        <ele>180</ele>
        <time>2018-05-16T10:04:22.1Z</time>
      </trkpt>
      <trkpt lat="44.52577" lon="4.30041">
        <ele>180</ele>
        <time>2018-05-16T10:04:24.1Z</time>
      </trkpt>
      <trkpt lat="44.52585" lon="4.30032">
        <ele>180</ele>
        <time>2018-05-16T10:04:26.1Z</time>
      </trkpt>
      <trkpt lat="44.52593" lon="4.30022">
        <ele>180</ele>
        <time>2018-05-16T10:04:28.1Z</time>
      </trkpt>
      <trkpt lat="44.52603" lon="4.30007">
        <ele>180</ele>
        <time>2018-05-16T10:04:31.1Z</time>
      </trkpt>
      <trkpt lat="44.52609" lon="4.29996">
        <ele>180</ele>
        <time>2018-05-16T10:04:33.1Z</time>
      </trkpt>
      <trkpt lat="44.52618" lon="4.29979">
        <ele>180</ele>
        <time>2018-05-16T10:04:36.1Z</time>
      </trkpt>
      <trkpt lat="44.52627" lon="4.29961">
        <ele>180</ele>
        <time>2018-05-16T10:04:39.1Z</time>
      </trkpt>
      <trkpt lat="44.52636" lon="4.29944">
        <ele>180</ele>
        <time>2018-05-16T10:04:42.1Z</time>
      </trkpt>
      <trkpt lat="44.52645" lon="4.29926">
        <ele>181</ele>
        <time>2018-05-16T10:04:45.1Z</time>
      </trkpt>
      <trkpt lat="44.52651" lon="4.29915">
        <ele>180</ele>
        <time>2018-05-16T10:04:47.1Z</time>
      </trkpt>
      <trkpt lat="44.52656" lon="4.29904">
        <ele>180</ele>
        <time>2018-05-16T10:04:49.1Z</time>
      </trkpt>
      <trkpt lat="44.52664" lon="4.29886">
        <ele>180</ele>
        <time>2018-05-16T10:04:52.1Z</time>
      </trkpt>
      <trkpt lat="44.52669" lon="4.29875">
        <ele>180</ele>
        <time>2018-05-16T10:04:54.1Z</time>
      </trkpt>
      <trkpt lat="44.52675" lon="4.29864">
        <ele>180</ele>
        <time>2018-05-16T10:04:56.1Z</time>
      </trkpt>
      <trkpt lat="44.52684" lon="4.29846">
        <ele>180</ele>
        <time>2018-05-16T10:04:59.1Z</time>
      </trkpt>
      <trkpt lat="44.5269" lon="4.29835">
        <ele>180</ele>
        <time>2018-05-16T10:05:01.1Z</time>
      </trkpt>
      <trkpt lat="44.52697" lon="4.29825">
        <ele>180</ele>
        <time>2018-05-16T10:05:03.1Z</time>
      </trkpt>
      <trkpt lat="44.52705" lon="4.29816">
        <ele>180</ele>
        <time>2018-05-16T10:05:05.1Z</time>
      </trkpt>
      <trkpt lat="44.52713" lon="4.29809">
        <ele>181</ele>
        <time>2018-05-16T10:05:07.1Z</time>
      </trkpt>
      <trkpt lat="44.52721" lon="4.29803">
        <ele>182</ele>
        <time>2018-05-16T10:05:09.1Z</time>
      </trkpt>
      <trkpt lat="44.52734" lon="4.29796">
        <ele>183</ele>
        <time>2018-05-16T10:05:12.1Z</time>
      </trkpt>
      <trkpt lat="44.52746" lon="4.29789">
        <ele>183</ele>
        <time>2018-05-16T10:05:15.1Z</time>
      </trkpt>
      <trkpt lat="44.52755" lon="4.29784">
        <ele>183</ele>
        <time>2018-05-16T10:05:17.1Z</time>
      </trkpt>
      <trkpt lat="44.52764" lon="4.2978">
        <ele>183</ele>
        <time>2018-05-16T10:05:19.1Z</time>
      </trkpt>
      <trkpt lat="44.52777" lon="4.29774">
        <ele>183</ele>
        <time>2018-05-16T10:05:22.1Z</time>
      </trkpt>
      <trkpt lat="44.52787" lon="4.2977">
        <ele>183</ele>
        <time>2018-05-16T10:05:24.1Z</time>
      </trkpt>
      <trkpt lat="44.52795" lon="4.29766">
        <ele>183</ele>
        <time>2018-05-16T10:05:26.1Z</time>
      </trkpt>
      <trkpt lat="44.52809" lon="4.29758">
        <ele>183</ele>
        <time>2018-05-16T10:05:29.1Z</time>
      </trkpt>
      <trkpt lat="44.52823" lon="4.29749">
        <ele>184</ele>
        <time>2018-05-16T10:05:32.1Z</time>
      </trkpt>
      <trkpt lat="44.52832" lon="4.29743">
        <ele>185</ele>
        <time>2018-05-16T10:05:34.1Z</time>
      </trkpt>
      <trkpt lat="44.52842" lon="4.29737">
        <ele>184</ele>
        <time>2018-05-16T10:05:36.1Z</time>
      </trkpt>
      <trkpt lat="44.52851" lon="4.29729">
        <ele>184</ele>
        <time>2018-05-16T10:05:38.1Z</time>
      </trkpt>
      <trkpt lat="44.52865" lon="4.29718">
        <ele>183</ele>
        <time>2018-05-16T10:05:41.1Z</time>
      </trkpt>
      <trkpt lat="44.52874" lon="4.29712">
        <ele>184</ele>
        <time>2018-05-16T10:05:43.1Z</time>
      </trkpt>
      <trkpt lat="44.52882" lon="4.29706">
        <ele>184</ele>
        <time>2018-05-16T10:05:45.1Z</time>
      </trkpt>
      <trkpt lat="44.52889" lon="4.297">
        <ele>184</ele>
        <time>2018-05-16T10:05:47.1Z</time>
      </trkpt>
      <trkpt lat="44.52901" lon="4.29691">
        <ele>184</ele>
        <time>2018-05-16T10:05:50.1Z</time>
      </trkpt>
      <trkpt lat="44.52909" lon="4.29685">
        <ele>185</ele>
        <time>2018-05-16T10:05:52.1Z</time>
      </trkpt>
      <trkpt lat="44.52917" lon="4.29678">
        <ele>186</ele>
        <time>2018-05-16T10:05:54.1Z</time>
      </trkpt>
      <trkpt lat="44.52931" lon="4.2967">
        <ele>187</ele>
        <time>2018-05-16T10:05:57.1Z</time>
      </trkpt>
      <trkpt lat="44.52942" lon="4.29663">
        <ele>187</ele>
        <time>2018-05-16T10:06:00.1Z</time>
      </trkpt>
      <trkpt lat="44.5295" lon="4.29658">
        <ele>187</ele>
        <time>2018-05-16T10:06:02.1Z</time>
      </trkpt>
      <trkpt lat="44.52963" lon="4.29651">
        <ele>187</ele>
        <time>2018-05-16T10:06:05.1Z</time>
      </trkpt>
      <trkpt lat="44.52971" lon="4.29645">
        <ele>189</ele>
        <time>2018-05-16T10:06:07.1Z</time>
      </trkpt>
      <trkpt lat="44.52985" lon="4.29639">
        <ele>190</ele>
        <time>2018-05-16T10:06:10.1Z</time>
      </trkpt>
      <trkpt lat="44.52999" lon="4.29634">
        <ele>192</ele>
        <time>2018-05-16T10:06:13.1Z</time>
      </trkpt>
      <trkpt lat="44.53014" lon="4.29634">
        <ele>193</ele>
        <time>2018-05-16T10:06:16.1Z</time>
      </trkpt>
      <trkpt lat="44.53023" lon="4.29636">
        <ele>193</ele>
        <time>2018-05-16T10:06:18.1Z</time>
      </trkpt>
      <trkpt lat="44.53032" lon="4.29642">
        <ele>193</ele>
        <time>2018-05-16T10:06:20.1Z</time>
      </trkpt>
      <trkpt lat="44.5304" lon="4.29648">
        <ele>193</ele>
        <time>2018-05-16T10:06:22.1Z</time>
      </trkpt>
      <trkpt lat="44.53048" lon="4.29656">
        <ele>193</ele>
        <time>2018-05-16T10:06:24.1Z</time>
      </trkpt>
      <trkpt lat="44.53056" lon="4.29663">
        <ele>192</ele>
        <time>2018-05-16T10:06:26.1Z</time>
      </trkpt>
      <trkpt lat="44.53064" lon="4.29671">
        <ele>192</ele>
        <time>2018-05-16T10:06:28.1Z</time>
      </trkpt>
      <trkpt lat="44.53075" lon="4.29682">
        <ele>191</ele>
        <time>2018-05-16T10:06:31.1Z</time>
      </trkpt>
      <trkpt lat="44.53085" lon="4.29693">
        <ele>191</ele>
        <time>2018-05-16T10:06:34.1Z</time>
      </trkpt>
      <trkpt lat="44.53092" lon="4.297">
        <ele>191</ele>
        <time>2018-05-16T10:06:36.1Z</time>
      </trkpt>
      <trkpt lat="44.53103" lon="4.29711">
        <ele>192</ele>
        <time>2018-05-16T10:06:39.1Z</time>
      </trkpt>
      <trkpt lat="44.53112" lon="4.29718">
        <ele>192</ele>
        <time>2018-05-16T10:06:41.1Z</time>
      </trkpt>
      <trkpt lat="44.53125" lon="4.29728">
        <ele>193</ele>
        <time>2018-05-16T10:06:44.1Z</time>
      </trkpt>
      <trkpt lat="44.53134" lon="4.29734">
        <ele>193</ele>
        <time>2018-05-16T10:06:46.1Z</time>
      </trkpt>
      <trkpt lat="44.53148" lon="4.29741">
        <ele>193</ele>
        <time>2018-05-16T10:06:49.1Z</time>
      </trkpt>
      <trkpt lat="44.53157" lon="4.29744">
        <ele>194</ele>
        <time>2018-05-16T10:06:51.1Z</time>
      </trkpt>
      <trkpt lat="44.53167" lon="4.29747">
        <ele>194</ele>
        <time>2018-05-16T10:06:53.1Z</time>
      </trkpt>
      <trkpt lat="44.5318" lon="4.29749">
        <ele>194</ele>
        <time>2018-05-16T10:06:56.1Z</time>
      </trkpt>
      <trkpt lat="44.53195" lon="4.29752">
        <ele>194</ele>
        <time>2018-05-16T10:06:59.1Z</time>
      </trkpt>
      <trkpt lat="44.53211" lon="4.29753">
        <ele>195</ele>
        <time>2018-05-16T10:07:02.1Z</time>
      </trkpt>
      <trkpt lat="44.53226" lon="4.29753">
        <ele>196</ele>
        <time>2018-05-16T10:07:05.1Z</time>
      </trkpt>
      <trkpt lat="44.53235" lon="4.29753">
        <ele>198</ele>
        <time>2018-05-16T10:07:07.1Z</time>
      </trkpt>
      <trkpt lat="44.53248" lon="4.29749">
        <ele>198</ele>
        <time>2018-05-16T10:07:10.1Z</time>
      </trkpt>
      <trkpt lat="44.53257" lon="4.29746">
        <ele>198</ele>
        <time>2018-05-16T10:07:12.1Z</time>
      </trkpt>
      <trkpt lat="44.53271" lon="4.29741">
        <ele>198</ele>
        <time>2018-05-16T10:07:15.1Z</time>
      </trkpt>
      <trkpt lat="44.53285" lon="4.29735">
        <ele>199</ele>
        <time>2018-05-16T10:07:18.1Z</time>
      </trkpt>
      <trkpt lat="44.53299" lon="4.29727">
        <ele>199</ele>
        <time>2018-05-16T10:07:21.1Z</time>
      </trkpt>
      <trkpt lat="44.53307" lon="4.29721">
        <ele>199</ele>
        <time>2018-05-16T10:07:23.1Z</time>
      </trkpt>
      <trkpt lat="44.53319" lon="4.29712">
        <ele>200</ele>
        <time>2018-05-16T10:07:26.1Z</time>
      </trkpt>
      <trkpt lat="44.53327" lon="4.29707">
        <ele>200</ele>
        <time>2018-05-16T10:07:28.1Z</time>
      </trkpt>
      <trkpt lat="44.53336" lon="4.29703">
        <ele>201</ele>
        <time>2018-05-16T10:07:30.1Z</time>
      </trkpt>
      <trkpt lat="44.53349" lon="4.29696">
        <ele>201</ele>
        <time>2018-05-16T10:07:33.1Z</time>
      </trkpt>
      <trkpt lat="44.53357" lon="4.29692">
        <ele>201</ele>
        <time>2018-05-16T10:07:35.1Z</time>
      </trkpt>
      <trkpt lat="44.5337" lon="4.29686">
        <ele>201</ele>
        <time>2018-05-16T10:07:38.1Z</time>
      </trkpt>
      <trkpt lat="44.53383" lon="4.29682">
        <ele>200</ele>
        <time>2018-05-16T10:07:41.1Z</time>
      </trkpt>
      <trkpt lat="44.53396" lon="4.2968">
        <ele>199</ele>
        <time>2018-05-16T10:07:44.1Z</time>
      </trkpt>
      <trkpt lat="44.53408" lon="4.29679">
        <ele>200</ele>
        <time>2018-05-16T10:07:47.1Z</time>
      </trkpt>
      <trkpt lat="44.53417" lon="4.29678">
        <ele>201</ele>
        <time>2018-05-16T10:07:49.1Z</time>
      </trkpt>
      <trkpt lat="44.53429" lon="4.29678">
        <ele>201</ele>
        <time>2018-05-16T10:07:52.1Z</time>
      </trkpt>
      <trkpt lat="44.53442" lon="4.29679">
        <ele>200</ele>
        <time>2018-05-16T10:07:55.1Z</time>
      </trkpt>
      <trkpt lat="44.53456" lon="4.2968">
        <ele>200</ele>
        <time>2018-05-16T10:07:58.1Z</time>
      </trkpt>
      <trkpt lat="44.53465" lon="4.29681">
        <ele>200</ele>
        <time>2018-05-16T10:08:00.1Z</time>
      </trkpt>
      <trkpt lat="44.53479" lon="4.29683">
        <ele>200</ele>
        <time>2018-05-16T10:08:03.1Z</time>
      </trkpt>
      <trkpt lat="44.53493" lon="4.29682">
        <ele>199</ele>
        <time>2018-05-16T10:08:06.1Z</time>
      </trkpt>
      <trkpt lat="44.53503" lon="4.29682">
        <ele>199</ele>
        <time>2018-05-16T10:08:08.1Z</time>
      </trkpt>
      <trkpt lat="44.53513" lon="4.2968">
        <ele>199</ele>
        <time>2018-05-16T10:08:10.1Z</time>
      </trkpt>
      <trkpt lat="44.53528" lon="4.29676">
        <ele>199</ele>
        <time>2018-05-16T10:08:13.1Z</time>
      </trkpt>
      <trkpt lat="44.53538" lon="4.29674">
        <ele>199</ele>
        <time>2018-05-16T10:08:15.1Z</time>
      </trkpt>
      <trkpt lat="44.53552" lon="4.29668">
        <ele>200</ele>
        <time>2018-05-16T10:08:18.1Z</time>
      </trkpt>
      <trkpt lat="44.53566" lon="4.2966">
        <ele>200</ele>
        <time>2018-05-16T10:08:21.1Z</time>
      </trkpt>
      <trkpt lat="44.53576" lon="4.29652">
        <ele>201</ele>
        <time>2018-05-16T10:08:23.1Z</time>
      </trkpt>
      <trkpt lat="44.53589" lon="4.29638">
        <ele>201</ele>
        <time>2018-05-16T10:08:26.1Z</time>
      </trkpt>
      <trkpt lat="44.53598" lon="4.29628">
        <ele>201</ele>
        <time>2018-05-16T10:08:28.1Z</time>
      </trkpt>
      <trkpt lat="44.53608" lon="4.29616">
        <ele>201</ele>
        <time>2018-05-16T10:08:30.1Z</time>
      </trkpt>
      <trkpt lat="44.53622" lon="4.29598">
        <ele>201</ele>
        <time>2018-05-16T10:08:33.1Z</time>
      </trkpt>
      <trkpt lat="44.53637" lon="4.29575">
        <ele>201</ele>
        <time>2018-05-16T10:08:36.1Z</time>
      </trkpt>
      <trkpt lat="44.53651" lon="4.29552">
        <ele>200</ele>
        <time>2018-05-16T10:08:39.1Z</time>
      </trkpt>
      <trkpt lat="44.53667" lon="4.2953">
        <ele>200</ele>
        <time>2018-05-16T10:08:42.1Z</time>
      </trkpt>
      <trkpt lat="44.53685" lon="4.29511">
        <ele>199</ele>
        <time>2018-05-16T10:08:45.1Z</time>
      </trkpt>
      <trkpt lat="44.53696" lon="4.29497">
        <ele>198</ele>
        <time>2018-05-16T10:08:47.1Z</time>
      </trkpt>
      <trkpt lat="44.5371" lon="4.29474">
        <ele>198</ele>
        <time>2018-05-16T10:08:50.1Z</time>
      </trkpt>
      <trkpt lat="44.53722" lon="4.29452">
        <ele>198</ele>
        <time>2018-05-16T10:08:53.1Z</time>
      </trkpt>
      <trkpt lat="44.5373" lon="4.29438">
        <ele>197</ele>
        <time>2018-05-16T10:08:55.1Z</time>
      </trkpt>
      <trkpt lat="44.53737" lon="4.29424">
        <ele>197</ele>
        <time>2018-05-16T10:08:57.1Z</time>
      </trkpt>
      <trkpt lat="44.53746" lon="4.29405">
        <ele>197</ele>
        <time>2018-05-16T10:09:00.1Z</time>
      </trkpt>
      <trkpt lat="44.53752" lon="4.29394">
        <ele>197</ele>
        <time>2018-05-16T10:09:02.1Z</time>
      </trkpt>
      <trkpt lat="44.53761" lon="4.29378">
        <ele>196</ele>
        <time>2018-05-16T10:09:05.1Z</time>
      </trkpt>
      <trkpt lat="44.53766" lon="4.29367">
        <ele>196</ele>
        <time>2018-05-16T10:09:07.1Z</time>
      </trkpt>
      <trkpt lat="44.53774" lon="4.29349">
        <ele>195</ele>
        <time>2018-05-16T10:09:10.1Z</time>
      </trkpt>
      <trkpt lat="44.53783" lon="4.29332">
        <ele>195</ele>
        <time>2018-05-16T10:09:13.1Z</time>
      </trkpt>
      <trkpt lat="44.53789" lon="4.29323">
        <ele>195</ele>
        <time>2018-05-16T10:09:15.1Z</time>
      </trkpt>
      <trkpt lat="44.53793" lon="4.29316">
        <ele>195</ele>
        <time>2018-05-16T10:09:17.1Z</time>
      </trkpt>
      <trkpt lat="44.53799" lon="4.29306">
        <ele>194</ele>
        <time>2018-05-16T10:09:20.1Z</time>
      </trkpt>
      <trkpt lat="44.53806" lon="4.29295">
        <ele>194</ele>
        <time>2018-05-16T10:09:23.1Z</time>
      </trkpt>
      <trkpt lat="44.53812" lon="4.29285">
        <ele>195</ele>
        <time>2018-05-16T10:09:26.1Z</time>
      </trkpt>
      <trkpt lat="44.5382" lon="4.29274">
        <ele>195</ele>
        <time>2018-05-16T10:09:29.1Z</time>
      </trkpt>
      <trkpt lat="44.53825" lon="4.29268">
        <ele>195</ele>
        <time>2018-05-16T10:09:31.1Z</time>
      </trkpt>
      <trkpt lat="44.53832" lon="4.29257">
        <ele>196</ele>
        <time>2018-05-16T10:09:34.1Z</time>
      </trkpt>
      <trkpt lat="44.53839" lon="4.29246">
        <ele>197</ele>
        <time>2018-05-16T10:09:37.1Z</time>
      </trkpt>
      <trkpt lat="44.53844" lon="4.29239">
        <ele>197</ele>
        <time>2018-05-16T10:09:39.1Z</time>
      </trkpt>
      <trkpt lat="44.53852" lon="4.29229">
        <ele>198</ele>
        <time>2018-05-16T10:09:42.1Z</time>
      </trkpt>
      <trkpt lat="44.53857" lon="4.29223">
        <ele>198</ele>
        <time>2018-05-16T10:09:44.1Z</time>
      </trkpt>
      <trkpt lat="44.53863" lon="4.29217">
        <ele>198</ele>
        <time>2018-05-16T10:09:46.1Z</time>
      </trkpt>
      <trkpt lat="44.53871" lon="4.29208">
        <ele>198</ele>
        <time>2018-05-16T10:09:49.1Z</time>
      </trkpt>
      <trkpt lat="44.5388" lon="4.29197">
        <ele>198</ele>
        <time>2018-05-16T10:09:52.1Z</time>
      </trkpt>
      <trkpt lat="44.53886" lon="4.29191">
        <ele>199</ele>
        <time>2018-05-16T10:09:54.1Z</time>
      </trkpt>
      <trkpt lat="44.53893" lon="4.29187">
        <ele>199</ele>
        <time>2018-05-16T10:09:56.1Z</time>
      </trkpt>
      <trkpt lat="44.539" lon="4.29183">
        <ele>200</ele>
        <time>2018-05-16T10:09:58.1Z</time>
      </trkpt>
      <trkpt lat="44.53913" lon="4.29179">
        <ele>200</ele>
        <time>2018-05-16T10:10:01.1Z</time>
      </trkpt>
      <trkpt lat="44.53927" lon="4.29176">
        <ele>201</ele>
        <time>2018-05-16T10:10:04.1Z</time>
      </trkpt>
      <trkpt lat="44.53936" lon="4.29175">
        <ele>201</ele>
        <time>2018-05-16T10:10:06.1Z</time>
      </trkpt>
      <trkpt lat="44.53946" lon="4.29177">
        <ele>200</ele>
        <time>2018-05-16T10:10:08.1Z</time>
      </trkpt>
      <trkpt lat="44.53958" lon="4.29179">
        <ele>200</ele>
        <time>2018-05-16T10:10:11.1Z</time>
      </trkpt>
      <trkpt lat="44.53968" lon="4.2918">
        <ele>200</ele>
        <time>2018-05-16T10:10:14.1Z</time>
      </trkpt>
      <trkpt lat="44.53981" lon="4.29183">
        <ele>200</ele>
        <time>2018-05-16T10:10:17.1Z</time>
      </trkpt>
      <trkpt lat="44.5399" lon="4.29186">
        <ele>200</ele>
        <time>2018-05-16T10:10:19.1Z</time>
      </trkpt>
      <trkpt lat="44.54003" lon="4.29188">
        <ele>200</ele>
        <time>2018-05-16T10:10:22.1Z</time>
      </trkpt>
      <trkpt lat="44.54017" lon="4.29192">
        <ele>200</ele>
        <time>2018-05-16T10:10:25.1Z</time>
      </trkpt>
      <trkpt lat="44.54025" lon="4.29196">
        <ele>199</ele>
        <time>2018-05-16T10:10:27.1Z</time>
      </trkpt>
      <trkpt lat="44.54034" lon="4.29202">
        <ele>199</ele>
        <time>2018-05-16T10:10:30.1Z</time>
      </trkpt>
      <trkpt lat="44.54042" lon="4.29206">
        <ele>198</ele>
        <time>2018-05-16T10:10:32.1Z</time>
      </trkpt>
      <trkpt lat="44.54052" lon="4.29211">
        <ele>197</ele>
        <time>2018-05-16T10:10:35.1Z</time>
      </trkpt>
      <trkpt lat="44.5406" lon="4.29214">
        <ele>197</ele>
        <time>2018-05-16T10:10:38.1Z</time>
      </trkpt>
      <trkpt lat="44.54066" lon="4.29218">
        <ele>198</ele>
        <time>2018-05-16T10:10:40.1Z</time>
      </trkpt>
      <trkpt lat="44.54076" lon="4.29226">
        <ele>199</ele>
        <time>2018-05-16T10:10:43.1Z</time>
      </trkpt>
      <trkpt lat="44.54083" lon="4.29233">
        <ele>200</ele>
        <time>2018-05-16T10:10:45.1Z</time>
      </trkpt>
      <trkpt lat="44.54088" lon="4.2924">
        <ele>200</ele>
        <time>2018-05-16T10:10:47.1Z</time>
      </trkpt>
      <trkpt lat="44.54094" lon="4.29247">
        <ele>200</ele>
        <time>2018-05-16T10:10:49.1Z</time>
      </trkpt>
      <trkpt lat="44.541" lon="4.29255">
        <ele>200</ele>
        <time>2018-05-16T10:10:51.1Z</time>
      </trkpt>
      <trkpt lat="44.54107" lon="4.29265">
        <ele>199</ele>
        <time>2018-05-16T10:10:54.1Z</time>
      </trkpt>
      <trkpt lat="44.54111" lon="4.29272">
        <ele>199</ele>
        <time>2018-05-16T10:10:56.1Z</time>
      </trkpt>
      <trkpt lat="44.54115" lon="4.2928">
        <ele>200</ele>
        <time>2018-05-16T10:10:58.1Z</time>
      </trkpt>
      <trkpt lat="44.54121" lon="4.29295">
        <ele>200</ele>
        <time>2018-05-16T10:11:01.1Z</time>
      </trkpt>
      <trkpt lat="44.54126" lon="4.29311">
        <ele>200</ele>
        <time>2018-05-16T10:11:04.1Z</time>
      </trkpt>
      <trkpt lat="44.5413" lon="4.29328">
        <ele>200</ele>
        <time>2018-05-16T10:11:07.1Z</time>
      </trkpt>
      <trkpt lat="44.54132" lon="4.29339">
        <ele>200</ele>
        <time>2018-05-16T10:11:09.1Z</time>
      </trkpt>
      <trkpt lat="44.54134" lon="4.2935">
        <ele>200</ele>
        <time>2018-05-16T10:11:11.1Z</time>
      </trkpt>
      <trkpt lat="44.54136" lon="4.2936">
        <ele>200</ele>
        <time>2018-05-16T10:11:13.1Z</time>
      </trkpt>
      <trkpt lat="44.54138" lon="4.29371">
        <ele>201</ele>
        <time>2018-05-16T10:11:15.1Z</time>
      </trkpt>
      <trkpt lat="44.5414" lon="4.29382">
        <ele>201</ele>
        <time>2018-05-16T10:11:17.1Z</time>
      </trkpt>
      <trkpt lat="44.54142" lon="4.29393">
        <ele>201</ele>
        <time>2018-05-16T10:11:19.1Z</time>
      </trkpt>
      <trkpt lat="44.54145" lon="4.29405">
        <ele>201</ele>
        <time>2018-05-16T10:11:22.1Z</time>
      </trkpt>
      <trkpt lat="44.54148" lon="4.29414">
        <ele>201</ele>
        <time>2018-05-16T10:11:24.1Z</time>
      </trkpt>
      <trkpt lat="44.54155" lon="4.2943">
        <ele>201</ele>
        <time>2018-05-16T10:11:27.1Z</time>
      </trkpt>
      <trkpt lat="44.54159" lon="4.2944">
        <ele>202</ele>
        <time>2018-05-16T10:11:29.1Z</time>
      </trkpt>
      <trkpt lat="44.54165" lon="4.2945">
        <ele>202</ele>
        <time>2018-05-16T10:11:31.1Z</time>
      </trkpt>
      <trkpt lat="44.54171" lon="4.29458">
        <ele>203</ele>
        <time>2018-05-16T10:11:33.1Z</time>
      </trkpt>
      <trkpt lat="44.54178" lon="4.29466">
        <ele>203</ele>
        <time>2018-05-16T10:11:35.1Z</time>
      </trkpt>
      <trkpt lat="44.54186" lon="4.29473">
        <ele>204</ele>
        <time>2018-05-16T10:11:37.1Z</time>
      </trkpt>
      <trkpt lat="44.54198" lon="4.29481">
        <ele>204</ele>
        <time>2018-05-16T10:11:40.1Z</time>
      </trkpt>
      <trkpt lat="44.54207" lon="4.29486">
        <ele>204</ele>
        <time>2018-05-16T10:11:42.1Z</time>
      </trkpt>
      <trkpt lat="44.54216" lon="4.29489">
        <ele>204</ele>
        <time>2018-05-16T10:11:44.1Z</time>
      </trkpt>
      <trkpt lat="44.54228" lon="4.29494">
        <ele>205</ele>
        <time>2018-05-16T10:11:47.1Z</time>
      </trkpt>
      <trkpt lat="44.54236" lon="4.29495">
        <ele>206</ele>
        <time>2018-05-16T10:11:49.1Z</time>
      </trkpt>
      <trkpt lat="44.54244" lon="4.29496">
        <ele>206</ele>
        <time>2018-05-16T10:11:51.1Z</time>
      </trkpt>
      <trkpt lat="44.54255" lon="4.29497">
        <ele>206</ele>
        <time>2018-05-16T10:11:54.1Z</time>
      </trkpt>
      <trkpt lat="44.54263" lon="4.29495">
        <ele>206</ele>
        <time>2018-05-16T10:11:56.1Z</time>
      </trkpt>
      <trkpt lat="44.54275" lon="4.29491">
        <ele>208</ele>
        <time>2018-05-16T10:11:59.1Z</time>
      </trkpt>
      <trkpt lat="44.54286" lon="4.29486">
        <ele>209</ele>
        <time>2018-05-16T10:12:02.1Z</time>
      </trkpt>
      <trkpt lat="44.54293" lon="4.2948">
        <ele>209</ele>
        <time>2018-05-16T10:12:04.1Z</time>
      </trkpt>
      <trkpt lat="44.54302" lon="4.2947">
        <ele>210</ele>
        <time>2018-05-16T10:12:07.1Z</time>
      </trkpt>
      <trkpt lat="44.54308" lon="4.29463">
        <ele>210</ele>
        <time>2018-05-16T10:12:09.1Z</time>
      </trkpt>
      <trkpt lat="44.54314" lon="4.29456">
        <ele>210</ele>
        <time>2018-05-16T10:12:11.1Z</time>
      </trkpt>
      <trkpt lat="44.54319" lon="4.29449">
        <ele>210</ele>
        <time>2018-05-16T10:12:13.1Z</time>
      </trkpt>
      <trkpt lat="44.54325" lon="4.29441">
        <ele>210</ele>
        <time>2018-05-16T10:12:15.1Z</time>
      </trkpt>
      <trkpt lat="44.54332" lon="4.2943">
        <ele>211</ele>
        <time>2018-05-16T10:12:18.1Z</time>
      </trkpt>
      <trkpt lat="44.54337" lon="4.29422">
        <ele>211</ele>
        <time>2018-05-16T10:12:20.1Z</time>
      </trkpt>
      <trkpt lat="44.54342" lon="4.29414">
        <ele>211</ele>
        <time>2018-05-16T10:12:22.1Z</time>
      </trkpt>
      <trkpt lat="44.54347" lon="4.29405">
        <ele>211</ele>
        <time>2018-05-16T10:12:24.1Z</time>
      </trkpt>
      <trkpt lat="44.54352" lon="4.29398">
        <ele>211</ele>
        <time>2018-05-16T10:12:26.1Z</time>
      </trkpt>
      <trkpt lat="44.54355" lon="4.29391">
        <ele>211</ele>
        <time>2018-05-16T10:12:28.1Z</time>
      </trkpt>
      <trkpt lat="44.54355" lon="4.29382">
        <ele>211</ele>
        <time>2018-05-16T10:12:31.1Z</time>
      </trkpt>
      <trkpt lat="44.54355" lon="4.2938">
        <ele>211</ele>
        <time>2018-05-16T10:12:33.1Z</time>
      </trkpt>
      <trkpt lat="44.54355" lon="4.2938">
        <ele>212</ele>
        <time>2018-05-16T10:12:36.1Z</time>
      </trkpt>
      <trkpt lat="44.54355" lon="4.29379">
        <ele>212</ele>
        <time>2018-05-16T10:12:38.1Z</time>
      </trkpt>
      <trkpt lat="44.54355" lon="4.29378">
        <ele>212</ele>
        <time>2018-05-16T10:12:40.1Z</time>
      </trkpt>
      <trkpt lat="44.54354" lon="4.29377">
        <ele>212</ele>
        <time>2018-05-16T10:12:43.1Z</time>
      </trkpt>
      <trkpt lat="44.54354" lon="4.29376">
        <ele>211</ele>
        <time>2018-05-16T10:12:45.1Z</time>
      </trkpt>
      <trkpt lat="44.54354" lon="4.29375">
        <ele>211</ele>
        <time>2018-05-16T10:12:47.1Z</time>
      </trkpt>
      <trkpt lat="44.54354" lon="4.29374">
        <ele>211</ele>
        <time>2018-05-16T10:12:50.1Z</time>
      </trkpt>
      <trkpt lat="44.54353" lon="4.29374">
        <ele>211</ele>
        <time>2018-05-16T10:12:53.1Z</time>
      </trkpt>
      <trkpt lat="44.54353" lon="4.29373">
        <ele>211</ele>
        <time>2018-05-16T10:12:55.1Z</time>
      </trkpt>
      <trkpt lat="44.54353" lon="4.29373">
        <ele>211</ele>
        <time>2018-05-16T10:12:57.1Z</time>
      </trkpt>
      <trkpt lat="44.54353" lon="4.29372">
        <ele>212</ele>
        <time>2018-05-16T10:13:00.1Z</time>
      </trkpt>
      <trkpt lat="44.54353" lon="4.29372">
        <ele>212</ele>
        <time>2018-05-16T10:13:02.1Z</time>
      </trkpt>
      <trkpt lat="44.54353" lon="4.29372">
        <ele>212</ele>
        <time>2018-05-16T10:13:05.1Z</time>
      </trkpt>
      <trkpt lat="44.54353" lon="4.29372">
        <ele>212</ele>
        <time>2018-05-16T10:13:07.1Z</time>
      </trkpt>
      <trkpt lat="44.54353" lon="4.29372">
        <ele>212</ele>
        <time>2018-05-16T10:13:09.1Z</time>
      </trkpt>
      <trkpt lat="44.54352" lon="4.2937">
        <ele>211</ele>
        <time>2018-05-16T10:13:12.1Z</time>
      </trkpt>
      <trkpt lat="44.54352" lon="4.29368">
        <ele>211</ele>
        <time>2018-05-16T10:13:15.1Z</time>
      </trkpt>
      <trkpt lat="44.54353" lon="4.29368">
        <ele>211</ele>
        <time>2018-05-16T10:13:18.1Z</time>
      </trkpt>
      <trkpt lat="44.54353" lon="4.29368">
        <ele>211</ele>
        <time>2018-05-16T10:13:20.1Z</time>
      </trkpt>
      <trkpt lat="44.54353" lon="4.29368">
        <ele>210</ele>
        <time>2018-05-16T10:13:24.1Z</time>
      </trkpt>
      <trkpt lat="44.54353" lon="4.29368">
        <ele>210</ele>
        <time>2018-05-16T10:13:27.1Z</time>
      </trkpt>
      <trkpt lat="44.54353" lon="4.29368">
        <ele>210</ele>
        <time>2018-05-16T10:13:29.1Z</time>
      </trkpt>
      <trkpt lat="44.54353" lon="4.29368">
        <ele>210</ele>
        <time>2018-05-16T10:13:33.1Z</time>
      </trkpt>
      <trkpt lat="44.54354" lon="4.29368">
        <ele>210</ele>
        <time>2018-05-16T10:13:35.1Z</time>
      </trkpt>
      <trkpt lat="44.54354" lon="4.29368">
        <ele>211</ele>
        <time>2018-05-16T10:13:37.1Z</time>
      </trkpt>
      <trkpt lat="44.54354" lon="4.29368">
        <ele>211</ele>
        <time>2018-05-16T10:13:40.1Z</time>
      </trkpt>
      <trkpt lat="44.54354" lon="4.29369">
        <ele>211</ele>
        <time>2018-05-16T10:13:43.1Z</time>
      </trkpt>
      <trkpt lat="44.54354" lon="4.29369">
        <ele>211</ele>
        <time>2018-05-16T10:13:45.1Z</time>
      </trkpt>
      <trkpt lat="44.54355" lon="4.29369">
        <ele>211</ele>
        <time>2018-05-16T10:13:49.1Z</time>
      </trkpt>
      <trkpt lat="44.54357" lon="4.29369">
        <ele>211</ele>
        <time>2018-05-16T10:13:52.1Z</time>
      </trkpt>
      <trkpt lat="44.54357" lon="4.2937">
        <ele>211</ele>
        <time>2018-05-16T10:13:54.1Z</time>
      </trkpt>
      <trkpt lat="44.54359" lon="4.2937">
        <ele>211</ele>
        <time>2018-05-16T10:13:57.1Z</time>
      </trkpt>
      <trkpt lat="44.54362" lon="4.29365">
        <ele>211</ele>
        <time>2018-05-16T10:14:00.1Z</time>
      </trkpt>
      <trkpt lat="44.54365" lon="4.29359">
        <ele>211</ele>
        <time>2018-05-16T10:14:02.1Z</time>
      </trkpt>
      <trkpt lat="44.54369" lon="4.29353">
        <ele>211</ele>
        <time>2018-05-16T10:14:04.1Z</time>
      </trkpt>
      <trkpt lat="44.54375" lon="4.29344">
        <ele>212</ele>
        <time>2018-05-16T10:14:07.1Z</time>
      </trkpt>
      <trkpt lat="44.54381" lon="4.29334">
        <ele>213</ele>
        <time>2018-05-16T10:14:10.1Z</time>
      </trkpt>
      <trkpt lat="44.54387" lon="4.29324">
        <ele>213</ele>
        <time>2018-05-16T10:14:13.1Z</time>
      </trkpt>
      <trkpt lat="44.54391" lon="4.29316">
        <ele>214</ele>
        <time>2018-05-16T10:14:16.1Z</time>
      </trkpt>
      <trkpt lat="44.54394" lon="4.29312">
        <ele>215</ele>
        <time>2018-05-16T10:14:18.1Z</time>
      </trkpt>
      <trkpt lat="44.54398" lon="4.29307">
        <ele>215</ele>
        <time>2018-05-16T10:14:21.1Z</time>
      </trkpt>
      <trkpt lat="44.54404" lon="4.29302">
        <ele>215</ele>
        <time>2018-05-16T10:14:24.1Z</time>
      </trkpt>
      <trkpt lat="44.5441" lon="4.29296">
        <ele>216</ele>
        <time>2018-05-16T10:14:27.1Z</time>
      </trkpt>
      <trkpt lat="44.54416" lon="4.29289">
        <ele>217</ele>
        <time>2018-05-16T10:14:30.1Z</time>
      </trkpt>
      <trkpt lat="44.54422" lon="4.29283">
        <ele>216</ele>
        <time>2018-05-16T10:14:33.1Z</time>
      </trkpt>
      <trkpt lat="44.54426" lon="4.29278">
        <ele>215</ele>
        <time>2018-05-16T10:14:36.1Z</time>
      </trkpt>
      <trkpt lat="44.54428" lon="4.29275">
        <ele>216</ele>
        <time>2018-05-16T10:14:38.1Z</time>
      </trkpt>
      <trkpt lat="44.54428" lon="4.29267">
        <ele>216</ele>
        <time>2018-05-16T10:14:41.1Z</time>
      </trkpt>
      <trkpt lat="44.5443" lon="4.29263">
        <ele>217</ele>
        <time>2018-05-16T10:14:43.1Z</time>
      </trkpt>
      <trkpt lat="44.54432" lon="4.2926">
        <ele>217</ele>
        <time>2018-05-16T10:14:45.1Z</time>
      </trkpt>
      <trkpt lat="44.54434" lon="4.29256">
        <ele>217</ele>
        <time>2018-05-16T10:14:48.1Z</time>
      </trkpt>
      <trkpt lat="44.54435" lon="4.29255">
        <ele>216</ele>
        <time>2018-05-16T10:14:51.1Z</time>
      </trkpt>
      <trkpt lat="44.54435" lon="4.29254">
        <ele>217</ele>
        <time>2018-05-16T10:14:53.1Z</time>
      </trkpt>
      <trkpt lat="44.54435" lon="4.29254">
        <ele>217</ele>
        <time>2018-05-16T10:14:56.1Z</time>
      </trkpt>
      <trkpt lat="44.54435" lon="4.29253">
        <ele>216</ele>
        <time>2018-05-16T10:14:59.1Z</time>
      </trkpt>
      <trkpt lat="44.54435" lon="4.29252">
        <ele>216</ele>
        <time>2018-05-16T10:15:01.1Z</time>
      </trkpt>
      <trkpt lat="44.54435" lon="4.29251">
        <ele>216</ele>
        <time>2018-05-16T10:15:03.1Z</time>
      </trkpt>
      <trkpt lat="44.54435" lon="4.29251">
        <ele>216</ele>
        <time>2018-05-16T10:15:06.1Z</time>
      </trkpt>
      <trkpt lat="44.54435" lon="4.29251">
        <ele>217</ele>
        <time>2018-05-16T10:15:10.1Z</time>
      </trkpt>
      <trkpt lat="44.54436" lon="4.2925">
        <ele>217</ele>
        <time>2018-05-16T10:15:13.1Z</time>
      </trkpt>
      <trkpt lat="44.54439" lon="4.29248">
        <ele>217</ele>
        <time>2018-05-16T10:15:16.1Z</time>
      </trkpt>
      <trkpt lat="44.54442" lon="4.29245">
        <ele>217</ele>
        <time>2018-05-16T10:15:18.1Z</time>
      </trkpt>
      <trkpt lat="44.54445" lon="4.29242">
        <ele>218</ele>
        <time>2018-05-16T10:15:20.1Z</time>
      </trkpt>
      <trkpt lat="44.54453" lon="4.29236">
        <ele>218</ele>
        <time>2018-05-16T10:15:23.1Z</time>
      </trkpt>
      <trkpt lat="44.54458" lon="4.29232">
        <ele>219</ele>
        <time>2018-05-16T10:15:25.1Z</time>
      </trkpt>
      <trkpt lat="44.54467" lon="4.29226">
        <ele>219</ele>
        <time>2018-05-16T10:15:28.1Z</time>
      </trkpt>
      <trkpt lat="44.54477" lon="4.29221">
        <ele>220</ele>
        <time>2018-05-16T10:15:31.1Z</time>
      </trkpt>
      <trkpt lat="44.54485" lon="4.29217">
        <ele>220</ele>
        <time>2018-05-16T10:15:34.1Z</time>
      </trkpt>
      <trkpt lat="44.54492" lon="4.29214">
        <ele>220</ele>
        <time>2018-05-16T10:15:36.1Z</time>
      </trkpt>
      <trkpt lat="44.54501" lon="4.29211">
        <ele>220</ele>
        <time>2018-05-16T10:15:39.1Z</time>
      </trkpt>
      <trkpt lat="44.5451" lon="4.29209">
        <ele>221</ele>
        <time>2018-05-16T10:15:42.1Z</time>
      </trkpt>
      <trkpt lat="44.54517" lon="4.29207">
        <ele>221</ele>
        <time>2018-05-16T10:15:44.1Z</time>
      </trkpt>
      <trkpt lat="44.54528" lon="4.29206">
        <ele>222</ele>
        <time>2018-05-16T10:15:47.1Z</time>
      </trkpt>
      <trkpt lat="44.54535" lon="4.29206">
        <ele>222</ele>
        <time>2018-05-16T10:15:49.1Z</time>
      </trkpt>
      <trkpt lat="44.54543" lon="4.29207">
        <ele>223</ele>
        <time>2018-05-16T10:15:51.1Z</time>
      </trkpt>
      <trkpt lat="44.54551" lon="4.29209">
        <ele>223</ele>
        <time>2018-05-16T10:15:53.1Z</time>
      </trkpt>
      <trkpt lat="44.54559" lon="4.29212">
        <ele>224</ele>
        <time>2018-05-16T10:15:55.1Z</time>
      </trkpt>
      <trkpt lat="44.5457" lon="4.29216">
        <ele>224</ele>
        <time>2018-05-16T10:15:58.1Z</time>
      </trkpt>
      <trkpt lat="44.54583" lon="4.29223">
        <ele>224</ele>
        <time>2018-05-16T10:16:01.1Z</time>
      </trkpt>
      <trkpt lat="44.54596" lon="4.29229">
        <ele>223</ele>
        <time>2018-05-16T10:16:04.1Z</time>
      </trkpt>
      <trkpt lat="44.54609" lon="4.29233">
        <ele>224</ele>
        <time>2018-05-16T10:16:07.1Z</time>
      </trkpt>
      <trkpt lat="44.5462" lon="4.29237">
        <ele>224</ele>
        <time>2018-05-16T10:16:10.1Z</time>
      </trkpt>
      <trkpt lat="44.54628" lon="4.2924">
        <ele>226</ele>
        <time>2018-05-16T10:16:12.1Z</time>
      </trkpt>
      <trkpt lat="44.5464" lon="4.29244">
        <ele>227</ele>
        <time>2018-05-16T10:16:15.1Z</time>
      </trkpt>
      <trkpt lat="44.54651" lon="4.29248">
        <ele>227</ele>
        <time>2018-05-16T10:16:18.1Z</time>
      </trkpt>
      <trkpt lat="44.54663" lon="4.29252">
        <ele>227</ele>
        <time>2018-05-16T10:16:21.1Z</time>
      </trkpt>
      <trkpt lat="44.5467" lon="4.29255">
        <ele>227</ele>
        <time>2018-05-16T10:16:23.1Z</time>
      </trkpt>
      <trkpt lat="44.54678" lon="4.29258">
        <ele>226</ele>
        <time>2018-05-16T10:16:25.1Z</time>
      </trkpt>
      <trkpt lat="44.54686" lon="4.2926">
        <ele>226</ele>
        <time>2018-05-16T10:16:27.1Z</time>
      </trkpt>
      <trkpt lat="44.54697" lon="4.2926">
        <ele>227</ele>
        <time>2018-05-16T10:16:30.1Z</time>
      </trkpt>
      <trkpt lat="44.54707" lon="4.29259">
        <ele>228</ele>
        <time>2018-05-16T10:16:33.1Z</time>
      </trkpt>
      <trkpt lat="44.54713" lon="4.29258">
        <ele>228</ele>
        <time>2018-05-16T10:16:35.1Z</time>
      </trkpt>
      <trkpt lat="44.54722" lon="4.29254">
        <ele>228</ele>
        <time>2018-05-16T10:16:38.1Z</time>
      </trkpt>
      <trkpt lat="44.54728" lon="4.29252">
        <ele>228</ele>
        <time>2018-05-16T10:16:40.1Z</time>
      </trkpt>
      <trkpt lat="44.54739" lon="4.29248">
        <ele>228</ele>
        <time>2018-05-16T10:16:43.1Z</time>
      </trkpt>
      <trkpt lat="44.54746" lon="4.29245">
        <ele>228</ele>
        <time>2018-05-16T10:16:45.1Z</time>
      </trkpt>
      <trkpt lat="44.54753" lon="4.29241">
        <ele>227</ele>
        <time>2018-05-16T10:16:47.1Z</time>
      </trkpt>
      <trkpt lat="44.54764" lon="4.29237">
        <ele>228</ele>
        <time>2018-05-16T10:16:50.1Z</time>
      </trkpt>
      <trkpt lat="44.54775" lon="4.29232">
        <ele>229</ele>
        <time>2018-05-16T10:16:53.1Z</time>
      </trkpt>
      <trkpt lat="44.54782" lon="4.29229">
        <ele>230</ele>
        <time>2018-05-16T10:16:55.1Z</time>
      </trkpt>
      <trkpt lat="44.5479" lon="4.29226">
        <ele>230</ele>
        <time>2018-05-16T10:16:57.1Z</time>
      </trkpt>
      <trkpt lat="44.548" lon="4.29221">
        <ele>229</ele>
        <time>2018-05-16T10:17:00.1Z</time>
      </trkpt>
      <trkpt lat="44.54807" lon="4.29218">
        <ele>229</ele>
        <time>2018-05-16T10:17:02.1Z</time>
      </trkpt>
      <trkpt lat="44.54818" lon="4.29213">
        <ele>230</ele>
        <time>2018-05-16T10:17:05.1Z</time>
      </trkpt>
      <trkpt lat="44.54826" lon="4.2921">
        <ele>231</ele>
        <time>2018-05-16T10:17:07.1Z</time>
      </trkpt>
      <trkpt lat="44.54837" lon="4.29206">
        <ele>232</ele>
        <time>2018-05-16T10:17:10.1Z</time>
      </trkpt>
      <trkpt lat="44.54844" lon="4.29203">
        <ele>232</ele>
        <time>2018-05-16T10:17:12.1Z</time>
      </trkpt>
      <trkpt lat="44.54853" lon="4.29199">
        <ele>232</ele>
        <time>2018-05-16T10:17:15.1Z</time>
      </trkpt>
      <trkpt lat="44.54858" lon="4.29195">
        <ele>231</ele>
        <time>2018-05-16T10:17:17.1Z</time>
      </trkpt>
      <trkpt lat="44.54868" lon="4.29187">
        <ele>231</ele>
        <time>2018-05-16T10:17:20.1Z</time>
      </trkpt>
      <trkpt lat="44.54877" lon="4.29179">
        <ele>232</ele>
        <time>2018-05-16T10:17:23.1Z</time>
      </trkpt>
      <trkpt lat="44.54882" lon="4.29172">
        <ele>232</ele>
        <time>2018-05-16T10:17:25.1Z</time>
      </trkpt>
      <trkpt lat="44.54887" lon="4.29166">
        <ele>232</ele>
        <time>2018-05-16T10:17:27.1Z</time>
      </trkpt>
      <trkpt lat="44.54893" lon="4.29158">
        <ele>232</ele>
        <time>2018-05-16T10:17:29.1Z</time>
      </trkpt>
      <trkpt lat="44.549" lon="4.29147">
        <ele>233</ele>
        <time>2018-05-16T10:17:32.1Z</time>
      </trkpt>
      <trkpt lat="44.54904" lon="4.2914">
        <ele>233</ele>
        <time>2018-05-16T10:17:34.1Z</time>
      </trkpt>
      <trkpt lat="44.5491" lon="4.2913">
        <ele>233</ele>
        <time>2018-05-16T10:17:37.1Z</time>
      </trkpt>
      <trkpt lat="44.54917" lon="4.29119">
        <ele>234</ele>
        <time>2018-05-16T10:17:40.1Z</time>
      </trkpt>
      <trkpt lat="44.54921" lon="4.29113">
        <ele>234</ele>
        <time>2018-05-16T10:17:42.1Z</time>
      </trkpt>
      <trkpt lat="44.54927" lon="4.29106">
        <ele>234</ele>
        <time>2018-05-16T10:17:45.1Z</time>
      </trkpt>
      <trkpt lat="44.5493" lon="4.29103">
        <ele>234</ele>
        <time>2018-05-16T10:17:47.1Z</time>
      </trkpt>
      <trkpt lat="44.54935" lon="4.29099">
        <ele>234</ele>
        <time>2018-05-16T10:17:50.1Z</time>
      </trkpt>
      <trkpt lat="44.54937" lon="4.29097">
        <ele>234</ele>
        <time>2018-05-16T10:17:53.1Z</time>
      </trkpt>
      <trkpt lat="44.54938" lon="4.29096">
        <ele>234</ele>
        <time>2018-05-16T10:17:56.1Z</time>
      </trkpt>
      <trkpt lat="44.54939" lon="4.29095">
        <ele>234</ele>
        <time>2018-05-16T10:17:59.1Z</time>
      </trkpt>
      <trkpt lat="44.5494" lon="4.29095">
        <ele>235</ele>
        <time>2018-05-16T10:18:02.1Z</time>
      </trkpt>
      <trkpt lat="44.5494" lon="4.29094">
        <ele>236</ele>
        <time>2018-05-16T10:18:04.1Z</time>
      </trkpt>
      <trkpt lat="44.5494" lon="4.29094">
        <ele>236</ele>
        <time>2018-05-16T10:18:07.1Z</time>
      </trkpt>
      <trkpt lat="44.54941" lon="4.29094">
        <ele>236</ele>
        <time>2018-05-16T10:18:10.1Z</time>
      </trkpt>
      <trkpt lat="44.54942" lon="4.29093">
        <ele>236</ele>
        <time>2018-05-16T10:18:13.1Z</time>
      </trkpt>
      <trkpt lat="44.54943" lon="4.29093">
        <ele>236</ele>
        <time>2018-05-16T10:18:15.1Z</time>
      </trkpt>
      <trkpt lat="44.54943" lon="4.29093">
        <ele>236</ele>
        <time>2018-05-16T10:18:17.1Z</time>
      </trkpt>
      <trkpt lat="44.54944" lon="4.29092">
        <ele>236</ele>
        <time>2018-05-16T10:18:19.1Z</time>
      </trkpt>
      <trkpt lat="44.54945" lon="4.2909">
        <ele>235</ele>
        <time>2018-05-16T10:18:21.1Z</time>
      </trkpt>
      <trkpt lat="44.54949" lon="4.29086">
        <ele>234</ele>
        <time>2018-05-16T10:18:24.1Z</time>
      </trkpt>
      <trkpt lat="44.54953" lon="4.29083">
        <ele>234</ele>
        <time>2018-05-16T10:18:26.1Z</time>
      </trkpt>
      <trkpt lat="44.54961" lon="4.29078">
        <ele>235</ele>
        <time>2018-05-16T10:18:29.1Z</time>
      </trkpt>
      <trkpt lat="44.54967" lon="4.29073">
        <ele>236</ele>
        <time>2018-05-16T10:18:31.1Z</time>
      </trkpt>
      <trkpt lat="44.54977" lon="4.29066">
        <ele>237</ele>
        <time>2018-05-16T10:18:34.1Z</time>
      </trkpt>
      <trkpt lat="44.54988" lon="4.29062">
        <ele>237</ele>
        <time>2018-05-16T10:18:37.1Z</time>
      </trkpt>
      <trkpt lat="44.54998" lon="4.29061">
        <ele>239</ele>
        <time>2018-05-16T10:18:40.1Z</time>
      </trkpt>
      <trkpt lat="44.55005" lon="4.29058">
        <ele>240</ele>
        <time>2018-05-16T10:18:42.1Z</time>
      </trkpt>
      <trkpt lat="44.55014" lon="4.29056">
        <ele>240</ele>
        <time>2018-05-16T10:18:45.1Z</time>
      </trkpt>
      <trkpt lat="44.55025" lon="4.29053">
        <ele>239</ele>
        <time>2018-05-16T10:18:48.1Z</time>
      </trkpt>
      <trkpt lat="44.55033" lon="4.29051">
        <ele>240</ele>
        <time>2018-05-16T10:18:50.1Z</time>
      </trkpt>
      <trkpt lat="44.55043" lon="4.29048">
        <ele>240</ele>
        <time>2018-05-16T10:18:53.1Z</time>
      </trkpt>
      <trkpt lat="44.55054" lon="4.29043">
        <ele>240</ele>
        <time>2018-05-16T10:18:56.1Z</time>
      </trkpt>
      <trkpt lat="44.55061" lon="4.29039">
        <ele>239</ele>
        <time>2018-05-16T10:18:58.1Z</time>
      </trkpt>
      <trkpt lat="44.55069" lon="4.29035">
        <ele>240</ele>
        <time>2018-05-16T10:19:00.1Z</time>
      </trkpt>
      <trkpt lat="44.55078" lon="4.29028">
        <ele>240</ele>
        <time>2018-05-16T10:19:03.1Z</time>
      </trkpt>
      <trkpt lat="44.55088" lon="4.29022">
        <ele>240</ele>
        <time>2018-05-16T10:19:06.1Z</time>
      </trkpt>
      <trkpt lat="44.55095" lon="4.29017">
        <ele>241</ele>
        <time>2018-05-16T10:19:08.1Z</time>
      </trkpt>
      <trkpt lat="44.55105" lon="4.29011">
        <ele>242</ele>
        <time>2018-05-16T10:19:11.1Z</time>
      </trkpt>
      <trkpt lat="44.55112" lon="4.29008">
        <ele>242</ele>
        <time>2018-05-16T10:19:13.1Z</time>
      </trkpt>
      <trkpt lat="44.55118" lon="4.29004">
        <ele>242</ele>
        <time>2018-05-16T10:19:15.1Z</time>
      </trkpt>
      <trkpt lat="44.55129" lon="4.29001">
        <ele>243</ele>
        <time>2018-05-16T10:19:18.1Z</time>
      </trkpt>
      <trkpt lat="44.55136" lon="4.28999">
        <ele>244</ele>
        <time>2018-05-16T10:19:20.1Z</time>
      </trkpt>
      <trkpt lat="44.55147" lon="4.28995">
        <ele>244</ele>
        <time>2018-05-16T10:19:23.1Z</time>
      </trkpt>
      <trkpt lat="44.55154" lon="4.28993">
        <ele>244</ele>
        <time>2018-05-16T10:19:25.1Z</time>
      </trkpt>
      <trkpt lat="44.55165" lon="4.28989">
        <ele>244</ele>
        <time>2018-05-16T10:19:28.1Z</time>
      </trkpt>
      <trkpt lat="44.55175" lon="4.28985">
        <ele>244</ele>
        <time>2018-05-16T10:19:31.1Z</time>
      </trkpt>
      <trkpt lat="44.55184" lon="4.28979">
        <ele>244</ele>
        <time>2018-05-16T10:19:34.1Z</time>
      </trkpt>
      <trkpt lat="44.55192" lon="4.28969">
        <ele>244</ele>
        <time>2018-05-16T10:19:37.1Z</time>
      </trkpt>
      <trkpt lat="44.55196" lon="4.2896">
        <ele>245</ele>
        <time>2018-05-16T10:19:39.1Z</time>
      </trkpt>
      <trkpt lat="44.55202" lon="4.28946">
        <ele>246</ele>
        <time>2018-05-16T10:19:42.1Z</time>
      </trkpt>
      <trkpt lat="44.55208" lon="4.28939">
        <ele>246</ele>
        <time>2018-05-16T10:19:44.1Z</time>
      </trkpt>
      <trkpt lat="44.55218" lon="4.28932">
        <ele>246</ele>
        <time>2018-05-16T10:19:47.1Z</time>
      </trkpt>
      <trkpt lat="44.55224" lon="4.28928">
        <ele>247</ele>
        <time>2018-05-16T10:19:49.1Z</time>
      </trkpt>
      <trkpt lat="44.55231" lon="4.28923">
        <ele>247</ele>
        <time>2018-05-16T10:19:51.1Z</time>
      </trkpt>
      <trkpt lat="44.5524" lon="4.28915">
        <ele>247</ele>
        <time>2018-05-16T10:19:54.1Z</time>
      </trkpt>
      <trkpt lat="44.55249" lon="4.28906">
        <ele>247</ele>
        <time>2018-05-16T10:19:57.1Z</time>
      </trkpt>
      <trkpt lat="44.55255" lon="4.28899">
        <ele>247</ele>
        <time>2018-05-16T10:19:59.1Z</time>
      </trkpt>
      <trkpt lat="44.55263" lon="4.28888">
        <ele>248</ele>
        <time>2018-05-16T10:20:02.1Z</time>
      </trkpt>
      <trkpt lat="44.55269" lon="4.2888">
        <ele>249</ele>
        <time>2018-05-16T10:20:04.1Z</time>
      </trkpt>
      <trkpt lat="44.55276" lon="4.28868">
        <ele>251</ele>
        <time>2018-05-16T10:20:07.1Z</time>
      </trkpt>
      <trkpt lat="44.5528" lon="4.28859">
        <ele>251</ele>
        <time>2018-05-16T10:20:09.1Z</time>
      </trkpt>
      <trkpt lat="44.55285" lon="4.28845">
        <ele>252</ele>
        <time>2018-05-16T10:20:12.1Z</time>
      </trkpt>
      <trkpt lat="44.55287" lon="4.28834">
        <ele>253</ele>
        <time>2018-05-16T10:20:14.1Z</time>
      </trkpt>
      <trkpt lat="44.55291" lon="4.2882">
        <ele>254</ele>
        <time>2018-05-16T10:20:17.1Z</time>
      </trkpt>
      <trkpt lat="44.55296" lon="4.28806">
        <ele>256</ele>
        <time>2018-05-16T10:20:20.1Z</time>
      </trkpt>
      <trkpt lat="44.55303" lon="4.28795">
        <ele>255</ele>
        <time>2018-05-16T10:20:23.1Z</time>
      </trkpt>
      <trkpt lat="44.5531" lon="4.28785">
        <ele>253</ele>
        <time>2018-05-16T10:20:26.1Z</time>
      </trkpt>
      <trkpt lat="44.55318" lon="4.28776">
        <ele>254</ele>
        <time>2018-05-16T10:20:29.1Z</time>
      </trkpt>
      <trkpt lat="44.55324" lon="4.2877">
        <ele>254</ele>
        <time>2018-05-16T10:20:31.1Z</time>
      </trkpt>
      <trkpt lat="44.55332" lon="4.28761">
        <ele>255</ele>
        <time>2018-05-16T10:20:34.1Z</time>
      </trkpt>
      <trkpt lat="44.55341" lon="4.28752">
        <ele>255</ele>
        <time>2018-05-16T10:20:37.1Z</time>
      </trkpt>
      <trkpt lat="44.55347" lon="4.28746">
        <ele>255</ele>
        <time>2018-05-16T10:20:39.1Z</time>
      </trkpt>
      <trkpt lat="44.55355" lon="4.28737">
        <ele>256</ele>
        <time>2018-05-16T10:20:42.1Z</time>
      </trkpt>
      <trkpt lat="44.55364" lon="4.28728">
        <ele>257</ele>
        <time>2018-05-16T10:20:45.1Z</time>
      </trkpt>
      <trkpt lat="44.5537" lon="4.28723">
        <ele>258</ele>
        <time>2018-05-16T10:20:47.1Z</time>
      </trkpt>
      <trkpt lat="44.5538" lon="4.28718">
        <ele>259</ele>
        <time>2018-05-16T10:20:50.1Z</time>
      </trkpt>
      <trkpt lat="44.55387" lon="4.28715">
        <ele>259</ele>
        <time>2018-05-16T10:20:52.1Z</time>
      </trkpt>
      <trkpt lat="44.55397" lon="4.28714">
        <ele>260</ele>
        <time>2018-05-16T10:20:55.1Z</time>
      </trkpt>
      <trkpt lat="44.55406" lon="4.28716">
        <ele>261</ele>
        <time>2018-05-16T10:20:58.1Z</time>
      </trkpt>
      <trkpt lat="44.55415" lon="4.28717">
        <ele>261</ele>
        <time>2018-05-16T10:21:01.1Z</time>
      </trkpt>
      <trkpt lat="44.55424" lon="4.28718">
        <ele>261</ele>
        <time>2018-05-16T10:21:04.1Z</time>
      </trkpt>
      <trkpt lat="44.55434" lon="4.28718">
        <ele>261</ele>
        <time>2018-05-16T10:21:07.1Z</time>
      </trkpt>
      <trkpt lat="44.55444" lon="4.28719">
        <ele>261</ele>
        <time>2018-05-16T10:21:10.1Z</time>
      </trkpt>
      <trkpt lat="44.55452" lon="4.28719">
        <ele>261</ele>
        <time>2018-05-16T10:21:12.1Z</time>
      </trkpt>
      <trkpt lat="44.5546" lon="4.2872">
        <ele>262</ele>
        <time>2018-05-16T10:21:14.1Z</time>
      </trkpt>
      <trkpt lat="44.55471" lon="4.28722">
        <ele>263</ele>
        <time>2018-05-16T10:21:17.1Z</time>
      </trkpt>
      <trkpt lat="44.55478" lon="4.28723">
        <ele>264</ele>
        <time>2018-05-16T10:21:19.1Z</time>
      </trkpt>
      <trkpt lat="44.55489" lon="4.28725">
        <ele>265</ele>
        <time>2018-05-16T10:21:22.1Z</time>
      </trkpt>
      <trkpt lat="44.55501" lon="4.28729">
        <ele>264</ele>
        <time>2018-05-16T10:21:25.1Z</time>
      </trkpt>
      <trkpt lat="44.55508" lon="4.28732">
        <ele>262</ele>
        <time>2018-05-16T10:21:27.1Z</time>
      </trkpt>
      <trkpt lat="44.55519" lon="4.28739">
        <ele>261</ele>
        <time>2018-05-16T10:21:30.1Z</time>
      </trkpt>
      <trkpt lat="44.55527" lon="4.28745">
        <ele>262</ele>
        <time>2018-05-16T10:21:32.1Z</time>
      </trkpt>
      <trkpt lat="44.55538" lon="4.28754">
        <ele>264</ele>
        <time>2018-05-16T10:21:35.1Z</time>
      </trkpt>
      <trkpt lat="44.5555" lon="4.28764">
        <ele>265</ele>
        <time>2018-05-16T10:21:38.1Z</time>
      </trkpt>
      <trkpt lat="44.55563" lon="4.28773">
        <ele>265</ele>
        <time>2018-05-16T10:21:41.1Z</time>
      </trkpt>
      <trkpt lat="44.55577" lon="4.28781">
        <ele>265</ele>
        <time>2018-05-16T10:21:44.1Z</time>
      </trkpt>
      <trkpt lat="44.55593" lon="4.28787">
        <ele>265</ele>
        <time>2018-05-16T10:21:47.1Z</time>
      </trkpt>
      <trkpt lat="44.55608" lon="4.28791">
        <ele>266</ele>
        <time>2018-05-16T10:21:50.1Z</time>
      </trkpt>
      <trkpt lat="44.55618" lon="4.28792">
        <ele>266</ele>
        <time>2018-05-16T10:21:52.1Z</time>
      </trkpt>
      <trkpt lat="44.55628" lon="4.28793">
        <ele>267</ele>
        <time>2018-05-16T10:21:54.1Z</time>
      </trkpt>
      <trkpt lat="44.55638" lon="4.28793">
        <ele>267</ele>
        <time>2018-05-16T10:21:56.1Z</time>
      </trkpt>
      <trkpt lat="44.55648" lon="4.28793">
        <ele>267</ele>
        <time>2018-05-16T10:21:58.1Z</time>
      </trkpt>
      <trkpt lat="44.55662" lon="4.2879">
        <ele>267</ele>
        <time>2018-05-16T10:22:01.1Z</time>
      </trkpt>
      <trkpt lat="44.55677" lon="4.28786">
        <ele>269</ele>
        <time>2018-05-16T10:22:04.1Z</time>
      </trkpt>
      <trkpt lat="44.55687" lon="4.28782">
        <ele>269</ele>
        <time>2018-05-16T10:22:06.1Z</time>
      </trkpt>
      <trkpt lat="44.55701" lon="4.28774">
        <ele>269</ele>
        <time>2018-05-16T10:22:09.1Z</time>
      </trkpt>
      <trkpt lat="44.5571" lon="4.28768">
        <ele>269</ele>
        <time>2018-05-16T10:22:11.1Z</time>
      </trkpt>
      <trkpt lat="44.55723" lon="4.2876">
        <ele>269</ele>
        <time>2018-05-16T10:22:14.1Z</time>
      </trkpt>
      <trkpt lat="44.55737" lon="4.28752">
        <ele>270</ele>
        <time>2018-05-16T10:22:17.1Z</time>
      </trkpt>
      <trkpt lat="44.55745" lon="4.28746">
        <ele>270</ele>
        <time>2018-05-16T10:22:19.1Z</time>
      </trkpt>
      <trkpt lat="44.55757" lon="4.28738">
        <ele>271</ele>
        <time>2018-05-16T10:22:22.1Z</time>
      </trkpt>
      <trkpt lat="44.5577" lon="4.2873">
        <ele>272</ele>
        <time>2018-05-16T10:22:25.1Z</time>
      </trkpt>
      <trkpt lat="44.55782" lon="4.28722">
        <ele>273</ele>
        <time>2018-05-16T10:22:28.1Z</time>
      </trkpt>
      <trkpt lat="44.55795" lon="4.28713">
        <ele>273</ele>
        <time>2018-05-16T10:22:31.1Z</time>
      </trkpt>
      <trkpt lat="44.55809" lon="4.28705">
        <ele>273</ele>
        <time>2018-05-16T10:22:34.1Z</time>
      </trkpt>
      <trkpt lat="44.55818" lon="4.28699">
        <ele>273</ele>
        <time>2018-05-16T10:22:36.1Z</time>
      </trkpt>
      <trkpt lat="44.55833" lon="4.2869">
        <ele>272</ele>
        <time>2018-05-16T10:22:39.1Z</time>
      </trkpt>
      <trkpt lat="44.55842" lon="4.28685">
        <ele>272</ele>
        <time>2018-05-16T10:22:41.1Z</time>
      </trkpt>
      <trkpt lat="44.55856" lon="4.28677">
        <ele>272</ele>
        <time>2018-05-16T10:22:44.1Z</time>
      </trkpt>
      <trkpt lat="44.5587" lon="4.28669">
        <ele>273</ele>
        <time>2018-05-16T10:22:47.1Z</time>
      </trkpt>
      <trkpt lat="44.55879" lon="4.28664">
        <ele>274</ele>
        <time>2018-05-16T10:22:49.1Z</time>
      </trkpt>
      <trkpt lat="44.55888" lon="4.28659">
        <ele>274</ele>
        <time>2018-05-16T10:22:51.1Z</time>
      </trkpt>
      <trkpt lat="44.55897" lon="4.28654">
        <ele>274</ele>
        <time>2018-05-16T10:22:53.1Z</time>
      </trkpt>
      <trkpt lat="44.55912" lon="4.28649">
        <ele>276</ele>
        <time>2018-05-16T10:22:56.1Z</time>
      </trkpt>
      <trkpt lat="44.55927" lon="4.28645">
        <ele>276</ele>
        <time>2018-05-16T10:22:59.1Z</time>
      </trkpt>
      <trkpt lat="44.55941" lon="4.28642">
        <ele>276</ele>
        <time>2018-05-16T10:23:02.1Z</time>
      </trkpt>
      <trkpt lat="44.55957" lon="4.28638">
        <ele>276</ele>
        <time>2018-05-16T10:23:05.1Z</time>
      </trkpt>
      <trkpt lat="44.55973" lon="4.28636">
        <ele>276</ele>
        <time>2018-05-16T10:23:08.1Z</time>
      </trkpt>
      <trkpt lat="44.55988" lon="4.28633">
        <ele>276</ele>
        <time>2018-05-16T10:23:11.1Z</time>
      </trkpt>
      <trkpt lat="44.55999" lon="4.28632">
        <ele>277</ele>
        <time>2018-05-16T10:23:13.1Z</time>
      </trkpt>
      <trkpt lat="44.5601" lon="4.2863">
        <ele>277</ele>
        <time>2018-05-16T10:23:15.1Z</time>
      </trkpt>
      <trkpt lat="44.56025" lon="4.28629">
        <ele>278</ele>
        <time>2018-05-16T10:23:18.1Z</time>
      </trkpt>
      <trkpt lat="44.56041" lon="4.28629">
        <ele>279</ele>
        <time>2018-05-16T10:23:21.1Z</time>
      </trkpt>
      <trkpt lat="44.56057" lon="4.28631">
        <ele>279</ele>
        <time>2018-05-16T10:23:24.1Z</time>
      </trkpt>
      <trkpt lat="44.56072" lon="4.28636">
        <ele>280</ele>
        <time>2018-05-16T10:23:27.1Z</time>
      </trkpt>
      <trkpt lat="44.56087" lon="4.2864">
        <ele>280</ele>
        <time>2018-05-16T10:23:30.1Z</time>
      </trkpt>
      <trkpt lat="44.56097" lon="4.28643">
        <ele>281</ele>
        <time>2018-05-16T10:23:32.1Z</time>
      </trkpt>
      <trkpt lat="44.56112" lon="4.28647">
        <ele>282</ele>
        <time>2018-05-16T10:23:35.1Z</time>
      </trkpt>
      <trkpt lat="44.56122" lon="4.28651">
        <ele>283</ele>
        <time>2018-05-16T10:23:37.1Z</time>
      </trkpt>
      <trkpt lat="44.56132" lon="4.28654">
        <ele>283</ele>
        <time>2018-05-16T10:23:39.1Z</time>
      </trkpt>
      <trkpt lat="44.56146" lon="4.28659">
        <ele>284</ele>
        <time>2018-05-16T10:23:42.1Z</time>
      </trkpt>
      <trkpt lat="44.5616" lon="4.28664">
        <ele>284</ele>
        <time>2018-05-16T10:23:45.1Z</time>
      </trkpt>
      <trkpt lat="44.5617" lon="4.28666">
        <ele>285</ele>
        <time>2018-05-16T10:23:47.1Z</time>
      </trkpt>
      <trkpt lat="44.56184" lon="4.28671">
        <ele>284</ele>
        <time>2018-05-16T10:23:50.1Z</time>
      </trkpt>
      <trkpt lat="44.56194" lon="4.28674">
        <ele>283</ele>
        <time>2018-05-16T10:23:52.1Z</time>
      </trkpt>
      <trkpt lat="44.56209" lon="4.28678">
        <ele>283</ele>
        <time>2018-05-16T10:23:55.1Z</time>
      </trkpt>
      <trkpt lat="44.56225" lon="4.28681">
        <ele>285</ele>
        <time>2018-05-16T10:23:58.1Z</time>
      </trkpt>
      <trkpt lat="44.56239" lon="4.28685">
        <ele>286</ele>
        <time>2018-05-16T10:24:01.1Z</time>
      </trkpt>
      <trkpt lat="44.56254" lon="4.28689">
        <ele>288</ele>
        <time>2018-05-16T10:24:04.1Z</time>
      </trkpt>
      <trkpt lat="44.56263" lon="4.28692">
        <ele>287</ele>
        <time>2018-05-16T10:24:06.1Z</time>
      </trkpt>
      <trkpt lat="44.56273" lon="4.28695">
        <ele>287</ele>
        <time>2018-05-16T10:24:08.1Z</time>
      </trkpt>
      <trkpt lat="44.56287" lon="4.28701">
        <ele>286</ele>
        <time>2018-05-16T10:24:11.1Z</time>
      </trkpt>
      <trkpt lat="44.56302" lon="4.28705">
        <ele>285</ele>
        <time>2018-05-16T10:24:14.1Z</time>
      </trkpt>
      <trkpt lat="44.56316" lon="4.28709">
        <ele>285</ele>
        <time>2018-05-16T10:24:17.1Z</time>
      </trkpt>
      <trkpt lat="44.56326" lon="4.28712">
        <ele>286</ele>
        <time>2018-05-16T10:24:19.1Z</time>
      </trkpt>
      <trkpt lat="44.5634" lon="4.28717">
        <ele>286</ele>
        <time>2018-05-16T10:24:22.1Z</time>
      </trkpt>
      <trkpt lat="44.56349" lon="4.2872">
        <ele>287</ele>
        <time>2018-05-16T10:24:24.1Z</time>
      </trkpt>
      <trkpt lat="44.56364" lon="4.28725">
        <ele>287</ele>
        <time>2018-05-16T10:24:27.1Z</time>
      </trkpt>
      <trkpt lat="44.56377" lon="4.2873">
        <ele>288</ele>
        <time>2018-05-16T10:24:30.1Z</time>
      </trkpt>
      <trkpt lat="44.56386" lon="4.28733">
        <ele>289</ele>
        <time>2018-05-16T10:24:32.1Z</time>
      </trkpt>
      <trkpt lat="44.564" lon="4.28738">
        <ele>288</ele>
        <time>2018-05-16T10:24:35.1Z</time>
      </trkpt>
      <trkpt lat="44.56415" lon="4.28743">
        <ele>288</ele>
        <time>2018-05-16T10:24:38.1Z</time>
      </trkpt>
      <trkpt lat="44.56432" lon="4.28749">
        <ele>288</ele>
        <time>2018-05-16T10:24:41.1Z</time>
      </trkpt>
      <trkpt lat="44.56443" lon="4.28753">
        <ele>288</ele>
        <time>2018-05-16T10:24:43.1Z</time>
      </trkpt>
      <trkpt lat="44.56459" lon="4.28759">
        <ele>287</ele>
        <time>2018-05-16T10:24:46.1Z</time>
      </trkpt>
      <trkpt lat="44.56476" lon="4.28766">
        <ele>287</ele>
        <time>2018-05-16T10:24:49.1Z</time>
      </trkpt>
      <trkpt lat="44.56487" lon="4.2877">
        <ele>287</ele>
        <time>2018-05-16T10:24:51.1Z</time>
      </trkpt>
      <trkpt lat="44.56497" lon="4.28773">
        <ele>287</ele>
        <time>2018-05-16T10:24:53.1Z</time>
      </trkpt>
      <trkpt lat="44.56509" lon="4.28778">
        <ele>287</ele>
        <time>2018-05-16T10:24:55.1Z</time>
      </trkpt>
      <trkpt lat="44.56525" lon="4.28785">
        <ele>288</ele>
        <time>2018-05-16T10:24:58.1Z</time>
      </trkpt>
      <trkpt lat="44.56535" lon="4.28789">
        <ele>287</ele>
        <time>2018-05-16T10:25:00.1Z</time>
      </trkpt>
      <trkpt lat="44.56546" lon="4.28792">
        <ele>288</ele>
        <time>2018-05-16T10:25:02.1Z</time>
      </trkpt>
      <trkpt lat="44.56556" lon="4.28794">
        <ele>288</ele>
        <time>2018-05-16T10:25:04.1Z</time>
      </trkpt>
      <trkpt lat="44.56571" lon="4.28795">
        <ele>288</ele>
        <time>2018-05-16T10:25:07.1Z</time>
      </trkpt>
      <trkpt lat="44.56586" lon="4.28793">
        <ele>288</ele>
        <time>2018-05-16T10:25:10.1Z</time>
      </trkpt>
      <trkpt lat="44.56601" lon="4.28792">
        <ele>288</ele>
        <time>2018-05-16T10:25:13.1Z</time>
      </trkpt>
      <trkpt lat="44.56614" lon="4.28791">
        <ele>290</ele>
        <time>2018-05-16T10:25:16.1Z</time>
      </trkpt>
      <trkpt lat="44.56623" lon="4.2879">
        <ele>290</ele>
        <time>2018-05-16T10:25:18.1Z</time>
      </trkpt>
      <trkpt lat="44.56636" lon="4.28789">
        <ele>292</ele>
        <time>2018-05-16T10:25:21.1Z</time>
      </trkpt>
      <trkpt lat="44.56645" lon="4.28788">
        <ele>292</ele>
        <time>2018-05-16T10:25:23.1Z</time>
      </trkpt>
      <trkpt lat="44.56654" lon="4.28788">
        <ele>292</ele>
        <time>2018-05-16T10:25:25.1Z</time>
      </trkpt>
      <trkpt lat="44.56663" lon="4.28787">
        <ele>292</ele>
        <time>2018-05-16T10:25:27.1Z</time>
      </trkpt>
      <trkpt lat="44.56677" lon="4.28785">
        <ele>292</ele>
        <time>2018-05-16T10:25:30.1Z</time>
      </trkpt>
      <trkpt lat="44.5669" lon="4.28782">
        <ele>293</ele>
        <time>2018-05-16T10:25:33.1Z</time>
      </trkpt>
      <trkpt lat="44.56699" lon="4.28781">
        <ele>294</ele>
        <time>2018-05-16T10:25:35.1Z</time>
      </trkpt>
      <trkpt lat="44.56708" lon="4.2878">
        <ele>294</ele>
        <time>2018-05-16T10:25:37.1Z</time>
      </trkpt>
      <trkpt lat="44.56721" lon="4.28777">
        <ele>295</ele>
        <time>2018-05-16T10:25:40.1Z</time>
      </trkpt>
      <trkpt lat="44.56735" lon="4.28772">
        <ele>296</ele>
        <time>2018-05-16T10:25:43.1Z</time>
      </trkpt>
      <trkpt lat="44.56743" lon="4.28767">
        <ele>295</ele>
        <time>2018-05-16T10:25:45.1Z</time>
      </trkpt>
      <trkpt lat="44.56752" lon="4.28761">
        <ele>295</ele>
        <time>2018-05-16T10:25:47.1Z</time>
      </trkpt>
      <trkpt lat="44.56765" lon="4.28751">
        <ele>294</ele>
        <time>2018-05-16T10:25:50.1Z</time>
      </trkpt>
      <trkpt lat="44.56779" lon="4.2874">
        <ele>293</ele>
        <time>2018-05-16T10:25:53.1Z</time>
      </trkpt>
      <trkpt lat="44.56793" lon="4.28729">
        <ele>293</ele>
        <time>2018-05-16T10:25:56.1Z</time>
      </trkpt>
      <trkpt lat="44.56807" lon="4.28717">
        <ele>293</ele>
        <time>2018-05-16T10:25:59.1Z</time>
      </trkpt>
      <trkpt lat="44.56818" lon="4.28703">
        <ele>293</ele>
        <time>2018-05-16T10:26:02.1Z</time>
      </trkpt>
      <trkpt lat="44.56821" lon="4.28691">
        <ele>293</ele>
        <time>2018-05-16T10:26:04.1Z</time>
      </trkpt>
      <trkpt lat="44.56817" lon="4.28675">
        <ele>293</ele>
        <time>2018-05-16T10:26:07.1Z</time>
      </trkpt>
      <trkpt lat="44.56814" lon="4.28665">
        <ele>293</ele>
        <time>2018-05-16T10:26:09.1Z</time>
      </trkpt>
      <trkpt lat="44.56811" lon="4.28655">
        <ele>293</ele>
        <time>2018-05-16T10:26:11.1Z</time>
      </trkpt>
      <trkpt lat="44.56807" lon="4.28643">
        <ele>293</ele>
        <time>2018-05-16T10:26:14.1Z</time>
      </trkpt>
      <trkpt lat="44.56807" lon="4.28629">
        <ele>293</ele>
        <time>2018-05-16T10:26:17.1Z</time>
      </trkpt>
      <trkpt lat="44.5681" lon="4.28618">
        <ele>294</ele>
        <time>2018-05-16T10:26:20.1Z</time>
      </trkpt>
      <trkpt lat="44.56815" lon="4.2861">
        <ele>294</ele>
        <time>2018-05-16T10:26:23.1Z</time>
      </trkpt>
      <trkpt lat="44.56818" lon="4.28604">
        <ele>294</ele>
        <time>2018-05-16T10:26:26.1Z</time>
      </trkpt>
      <trkpt lat="44.5682" lon="4.286">
        <ele>294</ele>
        <time>2018-05-16T10:26:29.1Z</time>
      </trkpt>
      <trkpt lat="44.56821" lon="4.28596">
        <ele>295</ele>
        <time>2018-05-16T10:26:31.1Z</time>
      </trkpt>
      <trkpt lat="44.56823" lon="4.286">
        <ele>296</ele>
        <time>2018-05-16T10:26:34.1Z</time>
      </trkpt>
      <trkpt lat="44.56816" lon="4.28606">
        <ele>296</ele>
        <time>2018-05-16T10:26:37.1Z</time>
      </trkpt>
      <trkpt lat="44.5681" lon="4.28613">
        <ele>296</ele>
        <time>2018-05-16T10:26:39.1Z</time>
      </trkpt>
      <trkpt lat="44.56807" lon="4.28634">
        <ele>296</ele>
        <time>2018-05-16T10:26:42.1Z</time>
      </trkpt>
      <trkpt lat="44.56813" lon="4.28657">
        <ele>297</ele>
        <time>2018-05-16T10:26:45.1Z</time>
      </trkpt>
      <trkpt lat="44.56818" lon="4.28673">
        <ele>297</ele>
        <time>2018-05-16T10:26:47.1Z</time>
      </trkpt>
      <trkpt lat="44.56824" lon="4.28693">
        <ele>296</ele>
        <time>2018-05-16T10:26:50.1Z</time>
      </trkpt>
      <trkpt lat="44.56827" lon="4.28704">
        <ele>294</ele>
        <time>2018-05-16T10:26:53.1Z</time>
      </trkpt>
      <trkpt lat="44.56833" lon="4.28707">
        <ele>294</ele>
        <time>2018-05-16T10:26:55.1Z</time>
      </trkpt>
      <trkpt lat="44.56843" lon="4.28703">
        <ele>293</ele>
        <time>2018-05-16T10:26:58.1Z</time>
      </trkpt>
      <trkpt lat="44.5685" lon="4.28702">
        <ele>294</ele>
        <time>2018-05-16T10:27:00.1Z</time>
      </trkpt>
      <trkpt lat="44.56862" lon="4.287">
        <ele>294</ele>
        <time>2018-05-16T10:27:03.1Z</time>
      </trkpt>
      <trkpt lat="44.56871" lon="4.28701">
        <ele>295</ele>
        <time>2018-05-16T10:27:05.1Z</time>
      </trkpt>
      <trkpt lat="44.56884" lon="4.287">
        <ele>296</ele>
        <time>2018-05-16T10:27:08.1Z</time>
      </trkpt>
      <trkpt lat="44.56892" lon="4.28699">
        <ele>297</ele>
        <time>2018-05-16T10:27:10.1Z</time>
      </trkpt>
      <trkpt lat="44.56904" lon="4.28695">
        <ele>298</ele>
        <time>2018-05-16T10:27:13.1Z</time>
      </trkpt>
      <trkpt lat="44.56912" lon="4.28693">
        <ele>299</ele>
        <time>2018-05-16T10:27:15.1Z</time>
      </trkpt>
      <trkpt lat="44.5692" lon="4.28693">
        <ele>299</ele>
        <time>2018-05-16T10:27:17.1Z</time>
      </trkpt>
      <trkpt lat="44.5693" lon="4.28692">
        <ele>299</ele>
        <time>2018-05-16T10:27:20.1Z</time>
      </trkpt>
      <trkpt lat="44.56942" lon="4.28693">
        <ele>300</ele>
        <time>2018-05-16T10:27:23.1Z</time>
      </trkpt>
      <trkpt lat="44.56953" lon="4.28696">
        <ele>300</ele>
        <time>2018-05-16T10:27:26.1Z</time>
      </trkpt>
      <trkpt lat="44.56961" lon="4.28699">
        <ele>301</ele>
        <time>2018-05-16T10:27:28.1Z</time>
      </trkpt>
      <trkpt lat="44.56974" lon="4.28707">
        <ele>301</ele>
        <time>2018-05-16T10:27:31.1Z</time>
      </trkpt>
      <trkpt lat="44.56981" lon="4.28712">
        <ele>301</ele>
        <time>2018-05-16T10:27:33.1Z</time>
      </trkpt>
      <trkpt lat="44.56989" lon="4.28717">
        <ele>300</ele>
        <time>2018-05-16T10:27:35.1Z</time>
      </trkpt>
      <trkpt lat="44.57" lon="4.28723">
        <ele>300</ele>
        <time>2018-05-16T10:27:38.1Z</time>
      </trkpt>
      <trkpt lat="44.57007" lon="4.28725">
        <ele>300</ele>
        <time>2018-05-16T10:27:40.1Z</time>
      </trkpt>
      <trkpt lat="44.57018" lon="4.28727">
        <ele>300</ele>
        <time>2018-05-16T10:27:43.1Z</time>
      </trkpt>
      <trkpt lat="44.57029" lon="4.28727">
        <ele>301</ele>
        <time>2018-05-16T10:27:46.1Z</time>
      </trkpt>
      <trkpt lat="44.57041" lon="4.28726">
        <ele>301</ele>
        <time>2018-05-16T10:27:49.1Z</time>
      </trkpt>
      <trkpt lat="44.57053" lon="4.28724">
        <ele>301</ele>
        <time>2018-05-16T10:27:52.1Z</time>
      </trkpt>
      <trkpt lat="44.57064" lon="4.28721">
        <ele>302</ele>
        <time>2018-05-16T10:27:55.1Z</time>
      </trkpt>
      <trkpt lat="44.5707" lon="4.28719">
        <ele>303</ele>
        <time>2018-05-16T10:27:57.1Z</time>
      </trkpt>
      <trkpt lat="44.57076" lon="4.28716">
        <ele>303</ele>
        <time>2018-05-16T10:27:59.1Z</time>
      </trkpt>
      <trkpt lat="44.57085" lon="4.28712">
        <ele>304</ele>
        <time>2018-05-16T10:28:02.1Z</time>
      </trkpt>
      <trkpt lat="44.57094" lon="4.2871">
        <ele>304</ele>
        <time>2018-05-16T10:28:05.1Z</time>
      </trkpt>
      <trkpt lat="44.57103" lon="4.28708">
        <ele>305</ele>
        <time>2018-05-16T10:28:08.1Z</time>
      </trkpt>
      <trkpt lat="44.57114" lon="4.28707">
        <ele>306</ele>
        <time>2018-05-16T10:28:11.1Z</time>
      </trkpt>
      <trkpt lat="44.57124" lon="4.28707">
        <ele>307</ele>
        <time>2018-05-16T10:28:14.1Z</time>
      </trkpt>
      <trkpt lat="44.5713" lon="4.28707">
        <ele>307</ele>
        <time>2018-05-16T10:28:16.1Z</time>
      </trkpt>
      <trkpt lat="44.5714" lon="4.28709">
        <ele>307</ele>
        <time>2018-05-16T10:28:19.1Z</time>
      </trkpt>
      <trkpt lat="44.57148" lon="4.2871">
        <ele>307</ele>
        <time>2018-05-16T10:28:21.1Z</time>
      </trkpt>
      <trkpt lat="44.57156" lon="4.28713">
        <ele>309</ele>
        <time>2018-05-16T10:28:23.1Z</time>
      </trkpt>
      <trkpt lat="44.57167" lon="4.28717">
        <ele>309</ele>
        <time>2018-05-16T10:28:26.1Z</time>
      </trkpt>
      <trkpt lat="44.57174" lon="4.2872">
        <ele>310</ele>
        <time>2018-05-16T10:28:28.1Z</time>
      </trkpt>
      <trkpt lat="44.57181" lon="4.28724">
        <ele>310</ele>
        <time>2018-05-16T10:28:30.1Z</time>
      </trkpt>
      <trkpt lat="44.57192" lon="4.28732">
        <ele>311</ele>
        <time>2018-05-16T10:28:33.1Z</time>
      </trkpt>
      <trkpt lat="44.57202" lon="4.2874">
        <ele>311</ele>
        <time>2018-05-16T10:28:36.1Z</time>
      </trkpt>
      <trkpt lat="44.57212" lon="4.28748">
        <ele>312</ele>
        <time>2018-05-16T10:28:39.1Z</time>
      </trkpt>
      <trkpt lat="44.57219" lon="4.28752">
        <ele>312</ele>
        <time>2018-05-16T10:28:41.1Z</time>
      </trkpt>
      <trkpt lat="44.5723" lon="4.28755">
        <ele>312</ele>
        <time>2018-05-16T10:28:44.1Z</time>
      </trkpt>
      <trkpt lat="44.57238" lon="4.28755">
        <ele>313</ele>
        <time>2018-05-16T10:28:46.1Z</time>
      </trkpt>
      <trkpt lat="44.57248" lon="4.28754">
        <ele>314</ele>
        <time>2018-05-16T10:28:49.1Z</time>
      </trkpt>
      <trkpt lat="44.57259" lon="4.28752">
        <ele>315</ele>
        <time>2018-05-16T10:28:52.1Z</time>
      </trkpt>
      <trkpt lat="44.57266" lon="4.2875">
        <ele>315</ele>
        <time>2018-05-16T10:28:54.1Z</time>
      </trkpt>
      <trkpt lat="44.57273" lon="4.28749">
        <ele>315</ele>
        <time>2018-05-16T10:28:56.1Z</time>
      </trkpt>
      <trkpt lat="44.57281" lon="4.28749">
        <ele>315</ele>
        <time>2018-05-16T10:28:58.1Z</time>
      </trkpt>
      <trkpt lat="44.57288" lon="4.2875">
        <ele>315</ele>
        <time>2018-05-16T10:29:00.1Z</time>
      </trkpt>
      <trkpt lat="44.57299" lon="4.28752">
        <ele>316</ele>
        <time>2018-05-16T10:29:03.1Z</time>
      </trkpt>
      <trkpt lat="44.57306" lon="4.28753">
        <ele>317</ele>
        <time>2018-05-16T10:29:05.1Z</time>
      </trkpt>
      <trkpt lat="44.57314" lon="4.28754">
        <ele>318</ele>
        <time>2018-05-16T10:29:07.1Z</time>
      </trkpt>
      <trkpt lat="44.57324" lon="4.28758">
        <ele>319</ele>
        <time>2018-05-16T10:29:10.1Z</time>
      </trkpt>
      <trkpt lat="44.57334" lon="4.28764">
        <ele>319</ele>
        <time>2018-05-16T10:29:13.1Z</time>
      </trkpt>
      <trkpt lat="44.57344" lon="4.2877">
        <ele>320</ele>
        <time>2018-05-16T10:29:16.1Z</time>
      </trkpt>
      <trkpt lat="44.57353" lon="4.28777">
        <ele>320</ele>
        <time>2018-05-16T10:29:19.1Z</time>
      </trkpt>
      <trkpt lat="44.57361" lon="4.28785">
        <ele>321</ele>
        <time>2018-05-16T10:29:22.1Z</time>
      </trkpt>
      <trkpt lat="44.5737" lon="4.28792">
        <ele>321</ele>
        <time>2018-05-16T10:29:25.1Z</time>
      </trkpt>
      <trkpt lat="44.5738" lon="4.28795">
        <ele>321</ele>
        <time>2018-05-16T10:29:28.1Z</time>
      </trkpt>
      <trkpt lat="44.57387" lon="4.28794">
        <ele>322</ele>
        <time>2018-05-16T10:29:30.1Z</time>
      </trkpt>
      <trkpt lat="44.57392" lon="4.2879">
        <ele>322</ele>
        <time>2018-05-16T10:29:32.1Z</time>
      </trkpt>
      <trkpt lat="44.57399" lon="4.28779">
        <ele>322</ele>
        <time>2018-05-16T10:29:35.1Z</time>
      </trkpt>
      <trkpt lat="44.57402" lon="4.28766">
        <ele>323</ele>
        <time>2018-05-16T10:29:38.1Z</time>
      </trkpt>
      <trkpt lat="44.574" lon="4.28753">
        <ele>325</ele>
        <time>2018-05-16T10:29:41.1Z</time>
      </trkpt>
      <trkpt lat="44.57396" lon="4.2874">
        <ele>326</ele>
        <time>2018-05-16T10:29:44.1Z</time>
      </trkpt>
      <trkpt lat="44.57391" lon="4.28727">
        <ele>326</ele>
        <time>2018-05-16T10:29:47.1Z</time>
      </trkpt>
      <trkpt lat="44.5739" lon="4.28712">
        <ele>326</ele>
        <time>2018-05-16T10:29:50.1Z</time>
      </trkpt>
      <trkpt lat="44.57395" lon="4.28699">
        <ele>326</ele>
        <time>2018-05-16T10:29:53.1Z</time>
      </trkpt>
      <trkpt lat="44.57402" lon="4.28689">
        <ele>326</ele>
        <time>2018-05-16T10:29:56.1Z</time>
      </trkpt>
      <trkpt lat="44.57409" lon="4.28688">
        <ele>327</ele>
        <time>2018-05-16T10:29:58.1Z</time>
      </trkpt>
      <trkpt lat="44.57418" lon="4.2869">
        <ele>328</ele>
        <time>2018-05-16T10:30:01.1Z</time>
      </trkpt>
      <trkpt lat="44.57428" lon="4.28694">
        <ele>330</ele>
        <time>2018-05-16T10:30:04.1Z</time>
      </trkpt>
      <trkpt lat="44.57437" lon="4.28699">
        <ele>331</ele>
        <time>2018-05-16T10:30:07.1Z</time>
      </trkpt>
      <trkpt lat="44.57446" lon="4.28702">
        <ele>331</ele>
        <time>2018-05-16T10:30:10.1Z</time>
      </trkpt>
      <trkpt lat="44.57455" lon="4.28702">
        <ele>332</ele>
        <time>2018-05-16T10:30:13.1Z</time>
      </trkpt>
      <trkpt lat="44.57464" lon="4.28697">
        <ele>332</ele>
        <time>2018-05-16T10:30:16.1Z</time>
      </trkpt>
      <trkpt lat="44.57468" lon="4.2869">
        <ele>332</ele>
        <time>2018-05-16T10:30:18.1Z</time>
      </trkpt>
      <trkpt lat="44.57473" lon="4.28678">
        <ele>332</ele>
        <time>2018-05-16T10:30:21.1Z</time>
      </trkpt>
      <trkpt lat="44.57473" lon="4.28664">
        <ele>333</ele>
        <time>2018-05-16T10:30:24.1Z</time>
      </trkpt>
      <trkpt lat="44.5747" lon="4.28651">
        <ele>335</ele>
        <time>2018-05-16T10:30:27.1Z</time>
      </trkpt>
      <trkpt lat="44.57467" lon="4.28644">
        <ele>336</ele>
        <time>2018-05-16T10:30:29.1Z</time>
      </trkpt>
      <trkpt lat="44.57462" lon="4.28637">
        <ele>336</ele>
        <time>2018-05-16T10:30:31.1Z</time>
      </trkpt>
      <trkpt lat="44.57455" lon="4.28628">
        <ele>337</ele>
        <time>2018-05-16T10:30:34.1Z</time>
      </trkpt>
      <trkpt lat="44.57449" lon="4.28624">
        <ele>337</ele>
        <time>2018-05-16T10:30:36.1Z</time>
      </trkpt>
      <trkpt lat="44.5744" lon="4.28617">
        <ele>338</ele>
        <time>2018-05-16T10:30:39.1Z</time>
      </trkpt>
      <trkpt lat="44.57435" lon="4.28612">
        <ele>338</ele>
        <time>2018-05-16T10:30:41.1Z</time>
      </trkpt>
      <trkpt lat="44.57429" lon="4.28601">
        <ele>339</ele>
        <time>2018-05-16T10:30:44.1Z</time>
      </trkpt>
      <trkpt lat="44.57426" lon="4.28592">
        <ele>339</ele>
        <time>2018-05-16T10:30:46.1Z</time>
      </trkpt>
      <trkpt lat="44.57426" lon="4.28584">
        <ele>340</ele>
        <time>2018-05-16T10:30:48.1Z</time>
      </trkpt>
      <trkpt lat="44.57425" lon="4.28573">
        <ele>341</ele>
        <time>2018-05-16T10:30:51.1Z</time>
      </trkpt>
      <trkpt lat="44.57424" lon="4.2856">
        <ele>342</ele>
        <time>2018-05-16T10:30:54.1Z</time>
      </trkpt>
      <trkpt lat="44.57425" lon="4.28546">
        <ele>343</ele>
        <time>2018-05-16T10:30:57.1Z</time>
      </trkpt>
      <trkpt lat="44.57426" lon="4.28537">
        <ele>342</ele>
        <time>2018-05-16T10:30:59.1Z</time>
      </trkpt>
      <trkpt lat="44.57429" lon="4.28521">
        <ele>343</ele>
        <time>2018-05-16T10:31:02.1Z</time>
      </trkpt>
      <trkpt lat="44.57433" lon="4.28511">
        <ele>342</ele>
        <time>2018-05-16T10:31:04.1Z</time>
      </trkpt>
      <trkpt lat="44.57441" lon="4.28497">
        <ele>342</ele>
        <time>2018-05-16T10:31:07.1Z</time>
      </trkpt>
      <trkpt lat="44.57447" lon="4.28488">
        <ele>342</ele>
        <time>2018-05-16T10:31:09.1Z</time>
      </trkpt>
      <trkpt lat="44.57454" lon="4.2848">
        <ele>341</ele>
        <time>2018-05-16T10:31:11.1Z</time>
      </trkpt>
      <trkpt lat="44.57462" lon="4.28472">
        <ele>341</ele>
        <time>2018-05-16T10:31:13.1Z</time>
      </trkpt>
      <trkpt lat="44.57469" lon="4.28465">
        <ele>340</ele>
        <time>2018-05-16T10:31:15.1Z</time>
      </trkpt>
      <trkpt lat="44.57475" lon="4.28457">
        <ele>340</ele>
        <time>2018-05-16T10:31:17.1Z</time>
      </trkpt>
      <trkpt lat="44.57486" lon="4.28447">
        <ele>340</ele>
        <time>2018-05-16T10:31:20.1Z</time>
      </trkpt>
      <trkpt lat="44.57492" lon="4.2844">
        <ele>340</ele>
        <time>2018-05-16T10:31:22.1Z</time>
      </trkpt>
      <trkpt lat="44.57499" lon="4.28433">
        <ele>340</ele>
        <time>2018-05-16T10:31:24.1Z</time>
      </trkpt>
      <trkpt lat="44.5751" lon="4.28421">
        <ele>339</ele>
        <time>2018-05-16T10:31:27.1Z</time>
      </trkpt>
      <trkpt lat="44.57518" lon="4.28413">
        <ele>339</ele>
        <time>2018-05-16T10:31:29.1Z</time>
      </trkpt>
      <trkpt lat="44.57525" lon="4.28406">
        <ele>338</ele>
        <time>2018-05-16T10:31:31.1Z</time>
      </trkpt>
      <trkpt lat="44.57533" lon="4.28397">
        <ele>338</ele>
        <time>2018-05-16T10:31:33.1Z</time>
      </trkpt>
      <trkpt lat="44.57545" lon="4.28386">
        <ele>338</ele>
        <time>2018-05-16T10:31:36.1Z</time>
      </trkpt>
      <trkpt lat="44.57554" lon="4.2838">
        <ele>338</ele>
        <time>2018-05-16T10:31:38.1Z</time>
      </trkpt>
      <trkpt lat="44.57563" lon="4.28376">
        <ele>338</ele>
        <time>2018-05-16T10:31:40.1Z</time>
      </trkpt>
      <trkpt lat="44.57578" lon="4.28378">
        <ele>339</ele>
        <time>2018-05-16T10:31:43.1Z</time>
      </trkpt>
      <trkpt lat="44.57587" lon="4.28382">
        <ele>339</ele>
        <time>2018-05-16T10:31:45.1Z</time>
      </trkpt>
      <trkpt lat="44.57599" lon="4.28391">
        <ele>341</ele>
        <time>2018-05-16T10:31:48.1Z</time>
      </trkpt>
      <trkpt lat="44.57612" lon="4.28397">
        <ele>342</ele>
        <time>2018-05-16T10:31:51.1Z</time>
      </trkpt>
      <trkpt lat="44.57623" lon="4.28398">
        <ele>342</ele>
        <time>2018-05-16T10:31:54.1Z</time>
      </trkpt>
      <trkpt lat="44.57634" lon="4.28397">
        <ele>342</ele>
        <time>2018-05-16T10:31:57.1Z</time>
      </trkpt>
      <trkpt lat="44.5764" lon="4.28395">
        <ele>340</ele>
        <time>2018-05-16T10:31:59.1Z</time>
      </trkpt>
      <trkpt lat="44.57645" lon="4.28392">
        <ele>339</ele>
        <time>2018-05-16T10:32:01.1Z</time>
      </trkpt>
      <trkpt lat="44.57652" lon="4.28389">
        <ele>338</ele>
        <time>2018-05-16T10:32:04.1Z</time>
      </trkpt>
      <trkpt lat="44.57657" lon="4.28383">
        <ele>339</ele>
        <time>2018-05-16T10:32:07.1Z</time>
      </trkpt>
      <trkpt lat="44.57661" lon="4.28379">
        <ele>339</ele>
        <time>2018-05-16T10:32:09.1Z</time>
      </trkpt>
      <trkpt lat="44.57666" lon="4.2837">
        <ele>340</ele>
        <time>2018-05-16T10:32:12.1Z</time>
      </trkpt>
      <trkpt lat="44.5767" lon="4.28365">
        <ele>341</ele>
        <time>2018-05-16T10:32:14.1Z</time>
      </trkpt>
      <trkpt lat="44.57675" lon="4.28361">
        <ele>341</ele>
        <time>2018-05-16T10:32:16.1Z</time>
      </trkpt>
      <trkpt lat="44.57681" lon="4.28358">
        <ele>341</ele>
        <time>2018-05-16T10:32:18.1Z</time>
      </trkpt>
      <trkpt lat="44.57686" lon="4.28357">
        <ele>341</ele>
        <time>2018-05-16T10:32:20.1Z</time>
      </trkpt>
      <trkpt lat="44.57695" lon="4.28356">
        <ele>342</ele>
        <time>2018-05-16T10:32:23.1Z</time>
      </trkpt>
      <trkpt lat="44.57702" lon="4.28356">
        <ele>345</ele>
        <time>2018-05-16T10:32:26.1Z</time>
      </trkpt>
      <trkpt lat="44.57708" lon="4.28355">
        <ele>345</ele>
        <time>2018-05-16T10:32:29.1Z</time>
      </trkpt>
      <trkpt lat="44.57711" lon="4.28354">
        <ele>345</ele>
        <time>2018-05-16T10:32:31.1Z</time>
      </trkpt>
      <trkpt lat="44.57714" lon="4.28352">
        <ele>344</ele>
        <time>2018-05-16T10:32:33.1Z</time>
      </trkpt>
      <trkpt lat="44.57718" lon="4.2835">
        <ele>344</ele>
        <time>2018-05-16T10:32:36.1Z</time>
      </trkpt>
      <trkpt lat="44.57721" lon="4.2835">
        <ele>344</ele>
        <time>2018-05-16T10:32:38.1Z</time>
      </trkpt>
      <trkpt lat="44.57724" lon="4.2835">
        <ele>345</ele>
        <time>2018-05-16T10:32:41.1Z</time>
      </trkpt>
      <trkpt lat="44.57727" lon="4.28349">
        <ele>345</ele>
        <time>2018-05-16T10:32:43.1Z</time>
      </trkpt>
      <trkpt lat="44.57731" lon="4.28348">
        <ele>346</ele>
        <time>2018-05-16T10:32:46.1Z</time>
      </trkpt>
      <trkpt lat="44.57735" lon="4.28346">
        <ele>346</ele>
        <time>2018-05-16T10:32:49.1Z</time>
      </trkpt>
      <trkpt lat="44.57739" lon="4.28347">
        <ele>346</ele>
        <time>2018-05-16T10:32:51.1Z</time>
      </trkpt>
      <trkpt lat="44.57746" lon="4.28345">
        <ele>347</ele>
        <time>2018-05-16T10:32:54.1Z</time>
      </trkpt>
      <trkpt lat="44.57751" lon="4.28343">
        <ele>347</ele>
        <time>2018-05-16T10:32:56.1Z</time>
      </trkpt>
      <trkpt lat="44.57756" lon="4.28342">
        <ele>347</ele>
        <time>2018-05-16T10:32:58.1Z</time>
      </trkpt>
      <trkpt lat="44.5776" lon="4.2834">
        <ele>348</ele>
        <time>2018-05-16T10:33:00.1Z</time>
      </trkpt>
      <trkpt lat="44.57767" lon="4.28337">
        <ele>347</ele>
        <time>2018-05-16T10:33:03.1Z</time>
      </trkpt>
      <trkpt lat="44.57771" lon="4.28334">
        <ele>347</ele>
        <time>2018-05-16T10:33:05.1Z</time>
      </trkpt>
      <trkpt lat="44.57776" lon="4.28329">
        <ele>347</ele>
        <time>2018-05-16T10:33:08.1Z</time>
      </trkpt>
      <trkpt lat="44.5778" lon="4.28322">
        <ele>348</ele>
        <time>2018-05-16T10:33:11.1Z</time>
      </trkpt>
      <trkpt lat="44.57784" lon="4.28317">
        <ele>348</ele>
        <time>2018-05-16T10:33:13.1Z</time>
      </trkpt>
      <trkpt lat="44.57789" lon="4.28312">
        <ele>349</ele>
        <time>2018-05-16T10:33:16.1Z</time>
      </trkpt>
      <trkpt lat="44.57794" lon="4.28306">
        <ele>349</ele>
        <time>2018-05-16T10:33:19.1Z</time>
      </trkpt>
      <trkpt lat="44.57796" lon="4.283">
        <ele>350</ele>
        <time>2018-05-16T10:33:22.1Z</time>
      </trkpt>
      <trkpt lat="44.57799" lon="4.28297">
        <ele>350</ele>
        <time>2018-05-16T10:33:24.1Z</time>
      </trkpt>
      <trkpt lat="44.57801" lon="4.28294">
        <ele>351</ele>
        <time>2018-05-16T10:33:26.1Z</time>
      </trkpt>
      <trkpt lat="44.57805" lon="4.28288">
        <ele>351</ele>
        <time>2018-05-16T10:33:29.1Z</time>
      </trkpt>
      <trkpt lat="44.57808" lon="4.28285">
        <ele>350</ele>
        <time>2018-05-16T10:33:31.1Z</time>
      </trkpt>
      <trkpt lat="44.57813" lon="4.28279">
        <ele>351</ele>
        <time>2018-05-16T10:33:34.1Z</time>
      </trkpt>
      <trkpt lat="44.57818" lon="4.28273">
        <ele>351</ele>
        <time>2018-05-16T10:33:37.1Z</time>
      </trkpt>
      <trkpt lat="44.57825" lon="4.28267">
        <ele>352</ele>
        <time>2018-05-16T10:33:40.1Z</time>
      </trkpt>
      <trkpt lat="44.5783" lon="4.28262">
        <ele>353</ele>
        <time>2018-05-16T10:33:43.1Z</time>
      </trkpt>
      <trkpt lat="44.57837" lon="4.28257">
        <ele>354</ele>
        <time>2018-05-16T10:33:46.1Z</time>
      </trkpt>
      <trkpt lat="44.57841" lon="4.28254">
        <ele>354</ele>
        <time>2018-05-16T10:33:48.1Z</time>
      </trkpt>
      <trkpt lat="44.57846" lon="4.28253">
        <ele>355</ele>
        <time>2018-05-16T10:33:50.1Z</time>
      </trkpt>
      <trkpt lat="44.57853" lon="4.28251">
        <ele>356</ele>
        <time>2018-05-16T10:33:53.1Z</time>
      </trkpt>
      <trkpt lat="44.57858" lon="4.28251">
        <ele>356</ele>
        <time>2018-05-16T10:33:55.1Z</time>
      </trkpt>
      <trkpt lat="44.57866" lon="4.28251">
        <ele>357</ele>
        <time>2018-05-16T10:33:58.1Z</time>
      </trkpt>
      <trkpt lat="44.57871" lon="4.28252">
        <ele>358</ele>
        <time>2018-05-16T10:34:00.1Z</time>
      </trkpt>
      <trkpt lat="44.57878" lon="4.28254">
        <ele>358</ele>
        <time>2018-05-16T10:34:03.1Z</time>
      </trkpt>
      <trkpt lat="44.57886" lon="4.28255">
        <ele>359</ele>
        <time>2018-05-16T10:34:06.1Z</time>
      </trkpt>
      <trkpt lat="44.57891" lon="4.28254">
        <ele>359</ele>
        <time>2018-05-16T10:34:08.1Z</time>
      </trkpt>
      <trkpt lat="44.57896" lon="4.28251">
        <ele>359</ele>
        <time>2018-05-16T10:34:10.1Z</time>
      </trkpt>
      <trkpt lat="44.579" lon="4.28246">
        <ele>359</ele>
        <time>2018-05-16T10:34:12.1Z</time>
      </trkpt>
      <trkpt lat="44.57903" lon="4.2824">
        <ele>360</ele>
        <time>2018-05-16T10:34:14.1Z</time>
      </trkpt>
      <trkpt lat="44.57906" lon="4.2823">
        <ele>360</ele>
        <time>2018-05-16T10:34:17.1Z</time>
      </trkpt>
      <trkpt lat="44.57904" lon="4.28219">
        <ele>361</ele>
        <time>2018-05-16T10:34:20.1Z</time>
      </trkpt>
      <trkpt lat="44.579" lon="4.28209">
        <ele>361</ele>
        <time>2018-05-16T10:34:23.1Z</time>
      </trkpt>
      <trkpt lat="44.57897" lon="4.28204">
        <ele>362</ele>
        <time>2018-05-16T10:34:25.1Z</time>
      </trkpt>
      <trkpt lat="44.57892" lon="4.28195">
        <ele>362</ele>
        <time>2018-05-16T10:34:28.1Z</time>
      </trkpt>
      <trkpt lat="44.5789" lon="4.28185">
        <ele>363</ele>
        <time>2018-05-16T10:34:31.1Z</time>
      </trkpt>
      <trkpt lat="44.5789" lon="4.28174">
        <ele>363</ele>
        <time>2018-05-16T10:34:34.1Z</time>
      </trkpt>
      <trkpt lat="44.5789" lon="4.28167">
        <ele>364</ele>
        <time>2018-05-16T10:34:36.1Z</time>
      </trkpt>
      <trkpt lat="44.5789" lon="4.2816">
        <ele>364</ele>
        <time>2018-05-16T10:34:38.1Z</time>
      </trkpt>
      <trkpt lat="44.57892" lon="4.28149">
        <ele>364</ele>
        <time>2018-05-16T10:34:41.1Z</time>
      </trkpt>
      <trkpt lat="44.57894" lon="4.28142">
        <ele>365</ele>
        <time>2018-05-16T10:34:43.1Z</time>
      </trkpt>
      <trkpt lat="44.57896" lon="4.28136">
        <ele>365</ele>
        <time>2018-05-16T10:34:45.1Z</time>
      </trkpt>
      <trkpt lat="44.57899" lon="4.2813">
        <ele>365</ele>
        <time>2018-05-16T10:34:47.1Z</time>
      </trkpt>
      <trkpt lat="44.57901" lon="4.28124">
        <ele>366</ele>
        <time>2018-05-16T10:34:49.1Z</time>
      </trkpt>
      <trkpt lat="44.57904" lon="4.28118">
        <ele>366</ele>
        <time>2018-05-16T10:34:51.1Z</time>
      </trkpt>
      <trkpt lat="44.57906" lon="4.28111">
        <ele>366</ele>
        <time>2018-05-16T10:34:53.1Z</time>
      </trkpt>
      <trkpt lat="44.57909" lon="4.28104">
        <ele>367</ele>
        <time>2018-05-16T10:34:55.1Z</time>
      </trkpt>
      <trkpt lat="44.57911" lon="4.28093">
        <ele>366</ele>
        <time>2018-05-16T10:34:58.1Z</time>
      </trkpt>
      <trkpt lat="44.57913" lon="4.28081">
        <ele>367</ele>
        <time>2018-05-16T10:35:01.1Z</time>
      </trkpt>
      <trkpt lat="44.57914" lon="4.28073">
        <ele>368</ele>
        <time>2018-05-16T10:35:03.1Z</time>
      </trkpt>
      <trkpt lat="44.57914" lon="4.28064">
        <ele>369</ele>
        <time>2018-05-16T10:35:05.1Z</time>
      </trkpt>
      <trkpt lat="44.57914" lon="4.28056">
        <ele>370</ele>
        <time>2018-05-16T10:35:07.1Z</time>
      </trkpt>
      <trkpt lat="44.57913" lon="4.28048">
        <ele>370</ele>
        <time>2018-05-16T10:35:09.1Z</time>
      </trkpt>
      <trkpt lat="44.57913" lon="4.2804">
        <ele>370</ele>
        <time>2018-05-16T10:35:11.1Z</time>
      </trkpt>
      <trkpt lat="44.57913" lon="4.28033">
        <ele>370</ele>
        <time>2018-05-16T10:35:13.1Z</time>
      </trkpt>
      <trkpt lat="44.57913" lon="4.28021">
        <ele>370</ele>
        <time>2018-05-16T10:35:16.1Z</time>
      </trkpt>
      <trkpt lat="44.57915" lon="4.2801">
        <ele>371</ele>
        <time>2018-05-16T10:35:19.1Z</time>
      </trkpt>
      <trkpt lat="44.57922" lon="4.28001">
        <ele>370</ele>
        <time>2018-05-16T10:35:22.1Z</time>
      </trkpt>
      <trkpt lat="44.57928" lon="4.27997">
        <ele>370</ele>
        <time>2018-05-16T10:35:25.1Z</time>
      </trkpt>
      <trkpt lat="44.57935" lon="4.27997">
        <ele>371</ele>
        <time>2018-05-16T10:35:28.1Z</time>
      </trkpt>
      <trkpt lat="44.57941" lon="4.27998">
        <ele>372</ele>
        <time>2018-05-16T10:35:30.1Z</time>
      </trkpt>
      <trkpt lat="44.57946" lon="4.27998">
        <ele>373</ele>
        <time>2018-05-16T10:35:32.1Z</time>
      </trkpt>
      <trkpt lat="44.57952" lon="4.27997">
        <ele>373</ele>
        <time>2018-05-16T10:35:34.1Z</time>
      </trkpt>
      <trkpt lat="44.57959" lon="4.27992">
        <ele>373</ele>
        <time>2018-05-16T10:35:37.1Z</time>
      </trkpt>
      <trkpt lat="44.57962" lon="4.27986">
        <ele>373</ele>
        <time>2018-05-16T10:35:39.1Z</time>
      </trkpt>
      <trkpt lat="44.57964" lon="4.2798">
        <ele>373</ele>
        <time>2018-05-16T10:35:41.1Z</time>
      </trkpt>
      <trkpt lat="44.57965" lon="4.27972">
        <ele>374</ele>
        <time>2018-05-16T10:35:43.1Z</time>
      </trkpt>
      <trkpt lat="44.57964" lon="4.27961">
        <ele>376</ele>
        <time>2018-05-16T10:35:46.1Z</time>
      </trkpt>
      <trkpt lat="44.57961" lon="4.27954">
        <ele>378</ele>
        <time>2018-05-16T10:35:48.1Z</time>
      </trkpt>
      <trkpt lat="44.57958" lon="4.27947">
        <ele>379</ele>
        <time>2018-05-16T10:35:50.1Z</time>
      </trkpt>
      <trkpt lat="44.57955" lon="4.2794">
        <ele>379</ele>
        <time>2018-05-16T10:35:52.1Z</time>
      </trkpt>
      <trkpt lat="44.57952" lon="4.27928">
        <ele>380</ele>
        <time>2018-05-16T10:35:55.1Z</time>
      </trkpt>
      <trkpt lat="44.57951" lon="4.27916">
        <ele>380</ele>
        <time>2018-05-16T10:35:58.1Z</time>
      </trkpt>
      <trkpt lat="44.57953" lon="4.27908">
        <ele>380</ele>
        <time>2018-05-16T10:36:00.1Z</time>
      </trkpt>
      <trkpt lat="44.57956" lon="4.27902">
        <ele>380</ele>
        <time>2018-05-16T10:36:02.1Z</time>
      </trkpt>
      <trkpt lat="44.57964" lon="4.27894">
        <ele>379</ele>
        <time>2018-05-16T10:36:05.1Z</time>
      </trkpt>
      <trkpt lat="44.57969" lon="4.27892">
        <ele>379</ele>
        <time>2018-05-16T10:36:07.1Z</time>
      </trkpt>
      <trkpt lat="44.57973" lon="4.27891">
        <ele>379</ele>
        <time>2018-05-16T10:36:09.1Z</time>
      </trkpt>
      <trkpt lat="44.57979" lon="4.27893">
        <ele>380</ele>
        <time>2018-05-16T10:36:12.1Z</time>
      </trkpt>
      <trkpt lat="44.57983" lon="4.27896">
        <ele>381</ele>
        <time>2018-05-16T10:36:14.1Z</time>
      </trkpt>
      <trkpt lat="44.57988" lon="4.27901">
        <ele>382</ele>
        <time>2018-05-16T10:36:17.1Z</time>
      </trkpt>
      <trkpt lat="44.57992" lon="4.27905">
        <ele>382</ele>
        <time>2018-05-16T10:36:19.1Z</time>
      </trkpt>
      <trkpt lat="44.57995" lon="4.27909">
        <ele>382</ele>
        <time>2018-05-16T10:36:21.1Z</time>
      </trkpt>
      <trkpt lat="44.58001" lon="4.27916">
        <ele>383</ele>
        <time>2018-05-16T10:36:24.1Z</time>
      </trkpt>
      <trkpt lat="44.58005" lon="4.27919">
        <ele>383</ele>
        <time>2018-05-16T10:36:26.1Z</time>
      </trkpt>
      <trkpt lat="44.58012" lon="4.27923">
        <ele>384</ele>
        <time>2018-05-16T10:36:29.1Z</time>
      </trkpt>
      <trkpt lat="44.58017" lon="4.27924">
        <ele>384</ele>
        <time>2018-05-16T10:36:31.1Z</time>
      </trkpt>
      <trkpt lat="44.58024" lon="4.27925">
        <ele>385</ele>
        <time>2018-05-16T10:36:34.1Z</time>
      </trkpt>
      <trkpt lat="44.58029" lon="4.27925">
        <ele>385</ele>
        <time>2018-05-16T10:36:36.1Z</time>
      </trkpt>
      <trkpt lat="44.58037" lon="4.27926">
        <ele>386</ele>
        <time>2018-05-16T10:36:39.1Z</time>
      </trkpt>
      <trkpt lat="44.58044" lon="4.27926">
        <ele>386</ele>
        <time>2018-05-16T10:36:42.1Z</time>
      </trkpt>
      <trkpt lat="44.58052" lon="4.27927">
        <ele>386</ele>
        <time>2018-05-16T10:36:45.1Z</time>
      </trkpt>
      <trkpt lat="44.5806" lon="4.27927">
        <ele>387</ele>
        <time>2018-05-16T10:36:48.1Z</time>
      </trkpt>
      <trkpt lat="44.58068" lon="4.27925">
        <ele>387</ele>
        <time>2018-05-16T10:36:51.1Z</time>
      </trkpt>
      <trkpt lat="44.58076" lon="4.27923">
        <ele>387</ele>
        <time>2018-05-16T10:36:54.1Z</time>
      </trkpt>
      <trkpt lat="44.58083" lon="4.27919">
        <ele>387</ele>
        <time>2018-05-16T10:36:57.1Z</time>
      </trkpt>
      <trkpt lat="44.58088" lon="4.27917">
        <ele>388</ele>
        <time>2018-05-16T10:36:59.1Z</time>
      </trkpt>
      <trkpt lat="44.58093" lon="4.27915">
        <ele>389</ele>
        <time>2018-05-16T10:37:01.1Z</time>
      </trkpt>
      <trkpt lat="44.58101" lon="4.27913">
        <ele>390</ele>
        <time>2018-05-16T10:37:04.1Z</time>
      </trkpt>
      <trkpt lat="44.58108" lon="4.2791">
        <ele>390</ele>
        <time>2018-05-16T10:37:07.1Z</time>
      </trkpt>
      <trkpt lat="44.58113" lon="4.27909">
        <ele>391</ele>
        <time>2018-05-16T10:37:09.1Z</time>
      </trkpt>
      <trkpt lat="44.58121" lon="4.27908">
        <ele>391</ele>
        <time>2018-05-16T10:37:12.1Z</time>
      </trkpt>
      <trkpt lat="44.5813" lon="4.27907">
        <ele>392</ele>
        <time>2018-05-16T10:37:15.1Z</time>
      </trkpt>
      <trkpt lat="44.58138" lon="4.27905">
        <ele>392</ele>
        <time>2018-05-16T10:37:18.1Z</time>
      </trkpt>
      <trkpt lat="44.58144" lon="4.27904">
        <ele>393</ele>
        <time>2018-05-16T10:37:20.1Z</time>
      </trkpt>
      <trkpt lat="44.58149" lon="4.27903">
        <ele>394</ele>
        <time>2018-05-16T10:37:22.1Z</time>
      </trkpt>
      <trkpt lat="44.58157" lon="4.27902">
        <ele>393</ele>
        <time>2018-05-16T10:37:25.1Z</time>
      </trkpt>
      <trkpt lat="44.58166" lon="4.27902">
        <ele>393</ele>
        <time>2018-05-16T10:37:28.1Z</time>
      </trkpt>
      <trkpt lat="44.58171" lon="4.27903">
        <ele>393</ele>
        <time>2018-05-16T10:37:30.1Z</time>
      </trkpt>
      <trkpt lat="44.5818" lon="4.27904">
        <ele>394</ele>
        <time>2018-05-16T10:37:33.1Z</time>
      </trkpt>
      <trkpt lat="44.58189" lon="4.27907">
        <ele>394</ele>
        <time>2018-05-16T10:37:36.1Z</time>
      </trkpt>
      <trkpt lat="44.58197" lon="4.27911">
        <ele>394</ele>
        <time>2018-05-16T10:37:39.1Z</time>
      </trkpt>
      <trkpt lat="44.58205" lon="4.27914">
        <ele>395</ele>
        <time>2018-05-16T10:37:42.1Z</time>
      </trkpt>
      <trkpt lat="44.58211" lon="4.27915">
        <ele>395</ele>
        <time>2018-05-16T10:37:44.1Z</time>
      </trkpt>
      <trkpt lat="44.58217" lon="4.27915">
        <ele>395</ele>
        <time>2018-05-16T10:37:46.1Z</time>
      </trkpt>
      <trkpt lat="44.58226" lon="4.2791">
        <ele>395</ele>
        <time>2018-05-16T10:37:49.1Z</time>
      </trkpt>
      <trkpt lat="44.58232" lon="4.27901">
        <ele>395</ele>
        <time>2018-05-16T10:37:52.1Z</time>
      </trkpt>
      <trkpt lat="44.58238" lon="4.27892">
        <ele>394</ele>
        <time>2018-05-16T10:37:55.1Z</time>
      </trkpt>
      <trkpt lat="44.58244" lon="4.27884">
        <ele>394</ele>
        <time>2018-05-16T10:37:58.1Z</time>
      </trkpt>
      <trkpt lat="44.5825" lon="4.27876">
        <ele>396</ele>
        <time>2018-05-16T10:38:01.1Z</time>
      </trkpt>
      <trkpt lat="44.58253" lon="4.27871">
        <ele>397</ele>
        <time>2018-05-16T10:38:03.1Z</time>
      </trkpt>
      <trkpt lat="44.58259" lon="4.27863">
        <ele>398</ele>
        <time>2018-05-16T10:38:06.1Z</time>
      </trkpt>
      <trkpt lat="44.58265" lon="4.27856">
        <ele>398</ele>
        <time>2018-05-16T10:38:09.1Z</time>
      </trkpt>
      <trkpt lat="44.58268" lon="4.27852">
        <ele>398</ele>
        <time>2018-05-16T10:38:11.1Z</time>
      </trkpt>
      <trkpt lat="44.58274" lon="4.27846">
        <ele>399</ele>
        <time>2018-05-16T10:38:14.1Z</time>
      </trkpt>
      <trkpt lat="44.58278" lon="4.27842">
        <ele>399</ele>
        <time>2018-05-16T10:38:16.1Z</time>
      </trkpt>
      <trkpt lat="44.58284" lon="4.27836">
        <ele>401</ele>
        <time>2018-05-16T10:38:19.1Z</time>
      </trkpt>
      <trkpt lat="44.58287" lon="4.27832">
        <ele>402</ele>
        <time>2018-05-16T10:38:21.1Z</time>
      </trkpt>
      <trkpt lat="44.58293" lon="4.27825">
        <ele>402</ele>
        <time>2018-05-16T10:38:24.1Z</time>
      </trkpt>
      <trkpt lat="44.58297" lon="4.27821">
        <ele>402</ele>
        <time>2018-05-16T10:38:26.1Z</time>
      </trkpt>
      <trkpt lat="44.58303" lon="4.27814">
        <ele>402</ele>
        <time>2018-05-16T10:38:29.1Z</time>
      </trkpt>
      <trkpt lat="44.58307" lon="4.27811">
        <ele>402</ele>
        <time>2018-05-16T10:38:31.1Z</time>
      </trkpt>
      <trkpt lat="44.58314" lon="4.27805">
        <ele>402</ele>
        <time>2018-05-16T10:38:34.1Z</time>
      </trkpt>
      <trkpt lat="44.58321" lon="4.27801">
        <ele>402</ele>
        <time>2018-05-16T10:38:37.1Z</time>
      </trkpt>
      <trkpt lat="44.58326" lon="4.27798">
        <ele>402</ele>
        <time>2018-05-16T10:38:39.1Z</time>
      </trkpt>
      <trkpt lat="44.58331" lon="4.27796">
        <ele>404</ele>
        <time>2018-05-16T10:38:41.1Z</time>
      </trkpt>
      <trkpt lat="44.58338" lon="4.27793">
        <ele>404</ele>
        <time>2018-05-16T10:38:44.1Z</time>
      </trkpt>
      <trkpt lat="44.58343" lon="4.27791">
        <ele>405</ele>
        <time>2018-05-16T10:38:46.1Z</time>
      </trkpt>
      <trkpt lat="44.58347" lon="4.27789">
        <ele>406</ele>
        <time>2018-05-16T10:38:48.1Z</time>
      </trkpt>
      <trkpt lat="44.58355" lon="4.27786">
        <ele>405</ele>
        <time>2018-05-16T10:38:51.1Z</time>
      </trkpt>
      <trkpt lat="44.58361" lon="4.27783">
        <ele>407</ele>
        <time>2018-05-16T10:38:54.1Z</time>
      </trkpt>
      <trkpt lat="44.58366" lon="4.27781">
        <ele>406</ele>
        <time>2018-05-16T10:38:56.1Z</time>
      </trkpt>
      <trkpt lat="44.58374" lon="4.27779">
        <ele>407</ele>
        <time>2018-05-16T10:38:59.1Z</time>
      </trkpt>
      <trkpt lat="44.58381" lon="4.27777">
        <ele>407</ele>
        <time>2018-05-16T10:39:02.1Z</time>
      </trkpt>
      <trkpt lat="44.58388" lon="4.27776">
        <ele>408</ele>
        <time>2018-05-16T10:39:05.1Z</time>
      </trkpt>
      <trkpt lat="44.58393" lon="4.27775">
        <ele>408</ele>
        <time>2018-05-16T10:39:07.1Z</time>
      </trkpt>
      <trkpt lat="44.58398" lon="4.27774">
        <ele>409</ele>
        <time>2018-05-16T10:39:09.1Z</time>
      </trkpt>
      <trkpt lat="44.58406" lon="4.2777">
        <ele>409</ele>
        <time>2018-05-16T10:39:12.1Z</time>
      </trkpt>
      <trkpt lat="44.58412" lon="4.27762">
        <ele>408</ele>
        <time>2018-05-16T10:39:15.1Z</time>
      </trkpt>
      <trkpt lat="44.58414" lon="4.27754">
        <ele>409</ele>
        <time>2018-05-16T10:39:17.1Z</time>
      </trkpt>
      <trkpt lat="44.58414" lon="4.27743">
        <ele>411</ele>
        <time>2018-05-16T10:39:20.1Z</time>
      </trkpt>
      <trkpt lat="44.58414" lon="4.27731">
        <ele>412</ele>
        <time>2018-05-16T10:39:23.1Z</time>
      </trkpt>
      <trkpt lat="44.58416" lon="4.27719">
        <ele>413</ele>
        <time>2018-05-16T10:39:26.1Z</time>
      </trkpt>
      <trkpt lat="44.58421" lon="4.27709">
        <ele>413</ele>
        <time>2018-05-16T10:39:29.1Z</time>
      </trkpt>
      <trkpt lat="44.58426" lon="4.277">
        <ele>413</ele>
        <time>2018-05-16T10:39:32.1Z</time>
      </trkpt>
      <trkpt lat="44.58432" lon="4.27692">
        <ele>413</ele>
        <time>2018-05-16T10:39:35.1Z</time>
      </trkpt>
      <trkpt lat="44.58436" lon="4.27687">
        <ele>414</ele>
        <time>2018-05-16T10:39:37.1Z</time>
      </trkpt>
      <trkpt lat="44.58442" lon="4.27679">
        <ele>415</ele>
        <time>2018-05-16T10:39:40.1Z</time>
      </trkpt>
      <trkpt lat="44.58448" lon="4.27671">
        <ele>415</ele>
        <time>2018-05-16T10:39:43.1Z</time>
      </trkpt>
      <trkpt lat="44.58454" lon="4.27663">
        <ele>416</ele>
        <time>2018-05-16T10:39:46.1Z</time>
      </trkpt>
      <trkpt lat="44.58458" lon="4.27657">
        <ele>416</ele>
        <time>2018-05-16T10:39:48.1Z</time>
      </trkpt>
      <trkpt lat="44.58464" lon="4.27648">
        <ele>417</ele>
        <time>2018-05-16T10:39:51.1Z</time>
      </trkpt>
      <trkpt lat="44.58467" lon="4.27642">
        <ele>418</ele>
        <time>2018-05-16T10:39:53.1Z</time>
      </trkpt>
      <trkpt lat="44.58473" lon="4.27633">
        <ele>418</ele>
        <time>2018-05-16T10:39:56.1Z</time>
      </trkpt>
      <trkpt lat="44.58477" lon="4.27626">
        <ele>419</ele>
        <time>2018-05-16T10:39:58.1Z</time>
      </trkpt>
      <trkpt lat="44.58481" lon="4.2762">
        <ele>419</ele>
        <time>2018-05-16T10:40:00.1Z</time>
      </trkpt>
      <trkpt lat="44.58487" lon="4.27612">
        <ele>419</ele>
        <time>2018-05-16T10:40:03.1Z</time>
      </trkpt>
      <trkpt lat="44.58491" lon="4.27606">
        <ele>420</ele>
        <time>2018-05-16T10:40:05.1Z</time>
      </trkpt>
      <trkpt lat="44.58495" lon="4.27601">
        <ele>420</ele>
        <time>2018-05-16T10:40:07.1Z</time>
      </trkpt>
      <trkpt lat="44.58498" lon="4.27595">
        <ele>421</ele>
        <time>2018-05-16T10:40:09.1Z</time>
      </trkpt>
      <trkpt lat="44.58502" lon="4.2759">
        <ele>422</ele>
        <time>2018-05-16T10:40:11.1Z</time>
      </trkpt>
      <trkpt lat="44.58506" lon="4.27584">
        <ele>422</ele>
        <time>2018-05-16T10:40:13.1Z</time>
      </trkpt>
      <trkpt lat="44.58511" lon="4.27579">
        <ele>422</ele>
        <time>2018-05-16T10:40:15.1Z</time>
      </trkpt>
      <trkpt lat="44.58514" lon="4.27573">
        <ele>421</ele>
        <time>2018-05-16T10:40:17.1Z</time>
      </trkpt>
      <trkpt lat="44.5852" lon="4.27564">
        <ele>421</ele>
        <time>2018-05-16T10:40:20.1Z</time>
      </trkpt>
      <trkpt lat="44.58524" lon="4.27559">
        <ele>422</ele>
        <time>2018-05-16T10:40:22.1Z</time>
      </trkpt>
      <trkpt lat="44.5853" lon="4.27551">
        <ele>423</ele>
        <time>2018-05-16T10:40:25.1Z</time>
      </trkpt>
      <trkpt lat="44.58534" lon="4.27541">
        <ele>424</ele>
        <time>2018-05-16T10:40:28.1Z</time>
      </trkpt>
      <trkpt lat="44.58539" lon="4.27533">
        <ele>426</ele>
        <time>2018-05-16T10:40:31.1Z</time>
      </trkpt>
      <trkpt lat="44.58544" lon="4.27523">
        <ele>428</ele>
        <time>2018-05-16T10:40:34.1Z</time>
      </trkpt>
      <trkpt lat="44.58548" lon="4.27515">
        <ele>429</ele>
        <time>2018-05-16T10:40:37.1Z</time>
      </trkpt>
      <trkpt lat="44.58552" lon="4.27509">
        <ele>429</ele>
        <time>2018-05-16T10:40:39.1Z</time>
      </trkpt>
      <trkpt lat="44.58558" lon="4.27504">
        <ele>429</ele>
        <time>2018-05-16T10:40:42.1Z</time>
      </trkpt>
      <trkpt lat="44.58563" lon="4.27502">
        <ele>429</ele>
        <time>2018-05-16T10:40:44.1Z</time>
      </trkpt>
      <trkpt lat="44.5857" lon="4.27502">
        <ele>430</ele>
        <time>2018-05-16T10:40:47.1Z</time>
      </trkpt>
      <trkpt lat="44.58574" lon="4.27503">
        <ele>430</ele>
        <time>2018-05-16T10:40:49.1Z</time>
      </trkpt>
      <trkpt lat="44.5858" lon="4.27506">
        <ele>431</ele>
        <time>2018-05-16T10:40:52.1Z</time>
      </trkpt>
      <trkpt lat="44.58586" lon="4.27508">
        <ele>433</ele>
        <time>2018-05-16T10:40:55.1Z</time>
      </trkpt>
      <trkpt lat="44.58592" lon="4.27512">
        <ele>434</ele>
        <time>2018-05-16T10:40:58.1Z</time>
      </trkpt>
      <trkpt lat="44.58598" lon="4.27516">
        <ele>435</ele>
        <time>2018-05-16T10:41:01.1Z</time>
      </trkpt>
      <trkpt lat="44.58604" lon="4.27519">
        <ele>436</ele>
        <time>2018-05-16T10:41:04.1Z</time>
      </trkpt>
      <trkpt lat="44.58608" lon="4.27522">
        <ele>436</ele>
        <time>2018-05-16T10:41:06.1Z</time>
      </trkpt>
      <trkpt lat="44.58615" lon="4.27525">
        <ele>436</ele>
        <time>2018-05-16T10:41:09.1Z</time>
      </trkpt>
      <trkpt lat="44.58622" lon="4.27528">
        <ele>437</ele>
        <time>2018-05-16T10:41:12.1Z</time>
      </trkpt>
      <trkpt lat="44.58627" lon="4.2753">
        <ele>437</ele>
        <time>2018-05-16T10:41:14.1Z</time>
      </trkpt>
      <trkpt lat="44.58635" lon="4.27533">
        <ele>436</ele>
        <time>2018-05-16T10:41:17.1Z</time>
      </trkpt>
      <trkpt lat="44.58643" lon="4.27536">
        <ele>436</ele>
        <time>2018-05-16T10:41:20.1Z</time>
      </trkpt>
      <trkpt lat="44.58651" lon="4.27541">
        <ele>436</ele>
        <time>2018-05-16T10:41:23.1Z</time>
      </trkpt>
      <trkpt lat="44.5866" lon="4.27546">
        <ele>437</ele>
        <time>2018-05-16T10:41:26.1Z</time>
      </trkpt>
      <trkpt lat="44.58666" lon="4.27549">
        <ele>437</ele>
        <time>2018-05-16T10:41:28.1Z</time>
      </trkpt>
      <trkpt lat="44.58676" lon="4.27557">
        <ele>439</ele>
        <time>2018-05-16T10:41:31.1Z</time>
      </trkpt>
      <trkpt lat="44.58682" lon="4.27562">
        <ele>440</ele>
        <time>2018-05-16T10:41:33.1Z</time>
      </trkpt>
      <trkpt lat="44.58691" lon="4.2757">
        <ele>440</ele>
        <time>2018-05-16T10:41:36.1Z</time>
      </trkpt>
      <trkpt lat="44.58698" lon="4.27573">
        <ele>440</ele>
        <time>2018-05-16T10:41:38.1Z</time>
      </trkpt>
      <trkpt lat="44.58704" lon="4.27573">
        <ele>439</ele>
        <time>2018-05-16T10:41:40.1Z</time>
      </trkpt>
      <trkpt lat="44.58713" lon="4.27564">
        <ele>439</ele>
        <time>2018-05-16T10:41:43.1Z</time>
      </trkpt>
      <trkpt lat="44.58714" lon="4.27555">
        <ele>440</ele>
        <time>2018-05-16T10:41:45.1Z</time>
      </trkpt>
      <trkpt lat="44.58712" lon="4.27547">
        <ele>440</ele>
        <time>2018-05-16T10:41:47.1Z</time>
      </trkpt>
      <trkpt lat="44.58709" lon="4.27538">
        <ele>441</ele>
        <time>2018-05-16T10:41:49.1Z</time>
      </trkpt>
      <trkpt lat="44.58703" lon="4.27526">
        <ele>441</ele>
        <time>2018-05-16T10:41:52.1Z</time>
      </trkpt>
      <trkpt lat="44.58699" lon="4.27518">
        <ele>441</ele>
        <time>2018-05-16T10:41:54.1Z</time>
      </trkpt>
      <trkpt lat="44.58695" lon="4.27509">
        <ele>442</ele>
        <time>2018-05-16T10:41:56.1Z</time>
      </trkpt>
      <trkpt lat="44.58689" lon="4.27496">
        <ele>442</ele>
        <time>2018-05-16T10:41:59.1Z</time>
      </trkpt>
      <trkpt lat="44.58684" lon="4.27483">
        <ele>443</ele>
        <time>2018-05-16T10:42:02.1Z</time>
      </trkpt>
      <trkpt lat="44.58679" lon="4.27469">
        <ele>444</ele>
        <time>2018-05-16T10:42:05.1Z</time>
      </trkpt>
      <trkpt lat="44.58677" lon="4.2746">
        <ele>444</ele>
        <time>2018-05-16T10:42:07.1Z</time>
      </trkpt>
      <trkpt lat="44.58674" lon="4.27446">
        <ele>445</ele>
        <time>2018-05-16T10:42:10.1Z</time>
      </trkpt>
      <trkpt lat="44.58672" lon="4.27437">
        <ele>446</ele>
        <time>2018-05-16T10:42:12.1Z</time>
      </trkpt>
      <trkpt lat="44.5867" lon="4.27423">
        <ele>446</ele>
        <time>2018-05-16T10:42:15.1Z</time>
      </trkpt>
      <trkpt lat="44.58668" lon="4.2741">
        <ele>447</ele>
        <time>2018-05-16T10:42:18.1Z</time>
      </trkpt>
      <trkpt lat="44.58666" lon="4.27397">
        <ele>447</ele>
        <time>2018-05-16T10:42:21.1Z</time>
      </trkpt>
      <trkpt lat="44.58667" lon="4.27384">
        <ele>449</ele>
        <time>2018-05-16T10:42:24.1Z</time>
      </trkpt>
      <trkpt lat="44.58667" lon="4.2737">
        <ele>449</ele>
        <time>2018-05-16T10:42:27.1Z</time>
      </trkpt>
      <trkpt lat="44.58667" lon="4.27361">
        <ele>450</ele>
        <time>2018-05-16T10:42:29.1Z</time>
      </trkpt>
      <trkpt lat="44.58665" lon="4.27348">
        <ele>450</ele>
        <time>2018-05-16T10:42:32.1Z</time>
      </trkpt>
      <trkpt lat="44.58663" lon="4.27335">
        <ele>451</ele>
        <time>2018-05-16T10:42:35.1Z</time>
      </trkpt>
      <trkpt lat="44.5866" lon="4.27322">
        <ele>452</ele>
        <time>2018-05-16T10:42:38.1Z</time>
      </trkpt>
      <trkpt lat="44.58656" lon="4.2731">
        <ele>453</ele>
        <time>2018-05-16T10:42:41.1Z</time>
      </trkpt>
      <trkpt lat="44.58653" lon="4.27298">
        <ele>454</ele>
        <time>2018-05-16T10:42:44.1Z</time>
      </trkpt>
      <trkpt lat="44.5865" lon="4.27285">
        <ele>454</ele>
        <time>2018-05-16T10:42:47.1Z</time>
      </trkpt>
      <trkpt lat="44.58649" lon="4.27272">
        <ele>454</ele>
        <time>2018-05-16T10:42:50.1Z</time>
      </trkpt>
      <trkpt lat="44.58647" lon="4.27257">
        <ele>454</ele>
        <time>2018-05-16T10:42:53.1Z</time>
      </trkpt>
      <trkpt lat="44.58646" lon="4.27248">
        <ele>455</ele>
        <time>2018-05-16T10:42:55.1Z</time>
      </trkpt>
      <trkpt lat="44.58645" lon="4.27234">
        <ele>455</ele>
        <time>2018-05-16T10:42:58.1Z</time>
      </trkpt>
      <trkpt lat="44.58645" lon="4.2722">
        <ele>457</ele>
        <time>2018-05-16T10:43:01.1Z</time>
      </trkpt>
      <trkpt lat="44.58644" lon="4.27211">
        <ele>458</ele>
        <time>2018-05-16T10:43:03.1Z</time>
      </trkpt>
      <trkpt lat="44.58646" lon="4.27197">
        <ele>458</ele>
        <time>2018-05-16T10:43:06.1Z</time>
      </trkpt>
      <trkpt lat="44.58649" lon="4.27183">
        <ele>458</ele>
        <time>2018-05-16T10:43:09.1Z</time>
      </trkpt>
      <trkpt lat="44.58654" lon="4.2717">
        <ele>459</ele>
        <time>2018-05-16T10:43:12.1Z</time>
      </trkpt>
      <trkpt lat="44.5866" lon="4.27159">
        <ele>459</ele>
        <time>2018-05-16T10:43:15.1Z</time>
      </trkpt>
      <trkpt lat="44.58666" lon="4.27148">
        <ele>458</ele>
        <time>2018-05-16T10:43:18.1Z</time>
      </trkpt>
      <trkpt lat="44.58671" lon="4.27142">
        <ele>458</ele>
        <time>2018-05-16T10:43:20.1Z</time>
      </trkpt>
      <trkpt lat="44.58679" lon="4.27134">
        <ele>458</ele>
        <time>2018-05-16T10:43:23.1Z</time>
      </trkpt>
      <trkpt lat="44.58687" lon="4.27127">
        <ele>458</ele>
        <time>2018-05-16T10:43:26.1Z</time>
      </trkpt>
      <trkpt lat="44.58693" lon="4.27123">
        <ele>458</ele>
        <time>2018-05-16T10:43:28.1Z</time>
      </trkpt>
      <trkpt lat="44.58698" lon="4.2712">
        <ele>458</ele>
        <time>2018-05-16T10:43:30.1Z</time>
      </trkpt>
      <trkpt lat="44.58706" lon="4.27116">
        <ele>459</ele>
        <time>2018-05-16T10:43:33.1Z</time>
      </trkpt>
      <trkpt lat="44.58715" lon="4.27115">
        <ele>460</ele>
        <time>2018-05-16T10:43:36.1Z</time>
      </trkpt>
      <trkpt lat="44.58722" lon="4.27116">
        <ele>462</ele>
        <time>2018-05-16T10:43:39.1Z</time>
      </trkpt>
      <trkpt lat="44.5873" lon="4.27119">
        <ele>463</ele>
        <time>2018-05-16T10:43:42.1Z</time>
      </trkpt>
      <trkpt lat="44.58734" lon="4.27122">
        <ele>464</ele>
        <time>2018-05-16T10:43:44.1Z</time>
      </trkpt>
      <trkpt lat="44.5874" lon="4.27126">
        <ele>465</ele>
        <time>2018-05-16T10:43:47.1Z</time>
      </trkpt>
      <trkpt lat="44.58744" lon="4.27129">
        <ele>466</ele>
        <time>2018-05-16T10:43:49.1Z</time>
      </trkpt>
      <trkpt lat="44.5875" lon="4.27131">
        <ele>466</ele>
        <time>2018-05-16T10:43:52.1Z</time>
      </trkpt>
      <trkpt lat="44.58754" lon="4.27134">
        <ele>467</ele>
        <time>2018-05-16T10:43:54.1Z</time>
      </trkpt>
      <trkpt lat="44.58758" lon="4.27136">
        <ele>467</ele>
        <time>2018-05-16T10:43:56.1Z</time>
      </trkpt>
      <trkpt lat="44.58765" lon="4.27138">
        <ele>467</ele>
        <time>2018-05-16T10:43:59.1Z</time>
      </trkpt>
      <trkpt lat="44.58772" lon="4.27139">
        <ele>467</ele>
        <time>2018-05-16T10:44:02.1Z</time>
      </trkpt>
      <trkpt lat="44.58777" lon="4.27138">
        <ele>467</ele>
        <time>2018-05-16T10:44:04.1Z</time>
      </trkpt>
      <trkpt lat="44.58784" lon="4.27136">
        <ele>468</ele>
        <time>2018-05-16T10:44:07.1Z</time>
      </trkpt>
      <trkpt lat="44.58792" lon="4.27134">
        <ele>468</ele>
        <time>2018-05-16T10:44:10.1Z</time>
      </trkpt>
      <trkpt lat="44.58797" lon="4.27131">
        <ele>468</ele>
        <time>2018-05-16T10:44:12.1Z</time>
      </trkpt>
      <trkpt lat="44.58804" lon="4.27126">
        <ele>468</ele>
        <time>2018-05-16T10:44:15.1Z</time>
      </trkpt>
      <trkpt lat="44.58808" lon="4.27122">
        <ele>469</ele>
        <time>2018-05-16T10:44:17.1Z</time>
      </trkpt>
      <trkpt lat="44.58812" lon="4.27117">
        <ele>469</ele>
        <time>2018-05-16T10:44:19.1Z</time>
      </trkpt>
      <trkpt lat="44.58818" lon="4.27109">
        <ele>470</ele>
        <time>2018-05-16T10:44:22.1Z</time>
      </trkpt>
      <trkpt lat="44.58823" lon="4.271">
        <ele>471</ele>
        <time>2018-05-16T10:44:25.1Z</time>
      </trkpt>
      <trkpt lat="44.58826" lon="4.27089">
        <ele>472</ele>
        <time>2018-05-16T10:44:28.1Z</time>
      </trkpt>
      <trkpt lat="44.58829" lon="4.27079">
        <ele>473</ele>
        <time>2018-05-16T10:44:31.1Z</time>
      </trkpt>
      <trkpt lat="44.58831" lon="4.27068">
        <ele>475</ele>
        <time>2018-05-16T10:44:34.1Z</time>
      </trkpt>
      <trkpt lat="44.58832" lon="4.27061">
        <ele>475</ele>
        <time>2018-05-16T10:44:36.1Z</time>
      </trkpt>
      <trkpt lat="44.58833" lon="4.27053">
        <ele>476</ele>
        <time>2018-05-16T10:44:38.1Z</time>
      </trkpt>
      <trkpt lat="44.58836" lon="4.27043">
        <ele>476</ele>
        <time>2018-05-16T10:44:41.1Z</time>
      </trkpt>
      <trkpt lat="44.5884" lon="4.27032">
        <ele>476</ele>
        <time>2018-05-16T10:44:44.1Z</time>
      </trkpt>
      <trkpt lat="44.58844" lon="4.27022">
        <ele>477</ele>
        <time>2018-05-16T10:44:47.1Z</time>
      </trkpt>
      <trkpt lat="44.58849" lon="4.27013">
        <ele>477</ele>
        <time>2018-05-16T10:44:50.1Z</time>
      </trkpt>
      <trkpt lat="44.58856" lon="4.27006">
        <ele>478</ele>
        <time>2018-05-16T10:44:53.1Z</time>
      </trkpt>
      <trkpt lat="44.58863" lon="4.27001">
        <ele>479</ele>
        <time>2018-05-16T10:44:56.1Z</time>
      </trkpt>
      <trkpt lat="44.58868" lon="4.26999">
        <ele>480</ele>
        <time>2018-05-16T10:44:58.1Z</time>
      </trkpt>
      <trkpt lat="44.58873" lon="4.26998">
        <ele>480</ele>
        <time>2018-05-16T10:45:00.1Z</time>
      </trkpt>
      <trkpt lat="44.58881" lon="4.26998">
        <ele>480</ele>
        <time>2018-05-16T10:45:03.1Z</time>
      </trkpt>
      <trkpt lat="44.58889" lon="4.27">
        <ele>479</ele>
        <time>2018-05-16T10:45:06.1Z</time>
      </trkpt>
      <trkpt lat="44.58898" lon="4.27003">
        <ele>480</ele>
        <time>2018-05-16T10:45:09.1Z</time>
      </trkpt>
      <trkpt lat="44.58907" lon="4.27005">
        <ele>481</ele>
        <time>2018-05-16T10:45:12.1Z</time>
      </trkpt>
      <trkpt lat="44.58916" lon="4.27009">
        <ele>481</ele>
        <time>2018-05-16T10:45:15.1Z</time>
      </trkpt>
      <trkpt lat="44.58924" lon="4.27016">
        <ele>481</ele>
        <time>2018-05-16T10:45:18.1Z</time>
      </trkpt>
      <trkpt lat="44.58931" lon="4.27025">
        <ele>482</ele>
        <time>2018-05-16T10:45:21.1Z</time>
      </trkpt>
      <trkpt lat="44.58936" lon="4.27031">
        <ele>483</ele>
        <time>2018-05-16T10:45:23.1Z</time>
      </trkpt>
      <trkpt lat="44.58942" lon="4.2704">
        <ele>483</ele>
        <time>2018-05-16T10:45:26.1Z</time>
      </trkpt>
      <trkpt lat="44.58946" lon="4.27045">
        <ele>483</ele>
        <time>2018-05-16T10:45:28.1Z</time>
      </trkpt>
      <trkpt lat="44.5895" lon="4.2705">
        <ele>482</ele>
        <time>2018-05-16T10:45:30.1Z</time>
      </trkpt>
      <trkpt lat="44.58955" lon="4.27059">
        <ele>483</ele>
        <time>2018-05-16T10:45:33.1Z</time>
      </trkpt>
      <trkpt lat="44.58962" lon="4.27067">
        <ele>484</ele>
        <time>2018-05-16T10:45:36.1Z</time>
      </trkpt>
      <trkpt lat="44.58968" lon="4.27072">
        <ele>484</ele>
        <time>2018-05-16T10:45:38.1Z</time>
      </trkpt>
      <trkpt lat="44.58977" lon="4.27079">
        <ele>485</ele>
        <time>2018-05-16T10:45:41.1Z</time>
      </trkpt>
      <trkpt lat="44.58983" lon="4.27082">
        <ele>485</ele>
        <time>2018-05-16T10:45:43.1Z</time>
      </trkpt>
      <trkpt lat="44.58989" lon="4.27086">
        <ele>485</ele>
        <time>2018-05-16T10:45:45.1Z</time>
      </trkpt>
      <trkpt lat="44.58998" lon="4.27093">
        <ele>486</ele>
        <time>2018-05-16T10:45:48.1Z</time>
      </trkpt>
      <trkpt lat="44.59006" lon="4.27102">
        <ele>486</ele>
        <time>2018-05-16T10:45:51.1Z</time>
      </trkpt>
      <trkpt lat="44.59011" lon="4.27109">
        <ele>487</ele>
        <time>2018-05-16T10:45:53.1Z</time>
      </trkpt>
      <trkpt lat="44.59019" lon="4.27118">
        <ele>487</ele>
        <time>2018-05-16T10:45:56.1Z</time>
      </trkpt>
      <trkpt lat="44.59024" lon="4.27123">
        <ele>487</ele>
        <time>2018-05-16T10:45:58.1Z</time>
      </trkpt>
      <trkpt lat="44.59032" lon="4.27129">
        <ele>487</ele>
        <time>2018-05-16T10:46:01.1Z</time>
      </trkpt>
      <trkpt lat="44.59041" lon="4.27132">
        <ele>488</ele>
        <time>2018-05-16T10:46:04.1Z</time>
      </trkpt>
      <trkpt lat="44.5905" lon="4.27134">
        <ele>489</ele>
        <time>2018-05-16T10:46:07.1Z</time>
      </trkpt>
      <trkpt lat="44.59056" lon="4.27136">
        <ele>490</ele>
        <time>2018-05-16T10:46:09.1Z</time>
      </trkpt>
      <trkpt lat="44.59065" lon="4.27138">
        <ele>490</ele>
        <time>2018-05-16T10:46:12.1Z</time>
      </trkpt>
      <trkpt lat="44.59074" lon="4.2714">
        <ele>490</ele>
        <time>2018-05-16T10:46:15.1Z</time>
      </trkpt>
      <trkpt lat="44.59083" lon="4.27142">
        <ele>491</ele>
        <time>2018-05-16T10:46:18.1Z</time>
      </trkpt>
      <trkpt lat="44.59092" lon="4.27142">
        <ele>492</ele>
        <time>2018-05-16T10:46:21.1Z</time>
      </trkpt>
      <trkpt lat="44.59098" lon="4.27143">
        <ele>493</ele>
        <time>2018-05-16T10:46:23.1Z</time>
      </trkpt>
      <trkpt lat="44.59106" lon="4.27143">
        <ele>493</ele>
        <time>2018-05-16T10:46:26.1Z</time>
      </trkpt>
      <trkpt lat="44.59115" lon="4.27139">
        <ele>492</ele>
        <time>2018-05-16T10:46:29.1Z</time>
      </trkpt>
      <trkpt lat="44.59119" lon="4.27133">
        <ele>493</ele>
        <time>2018-05-16T10:46:31.1Z</time>
      </trkpt>
      <trkpt lat="44.5912" lon="4.27125">
        <ele>493</ele>
        <time>2018-05-16T10:46:33.1Z</time>
      </trkpt>
      <trkpt lat="44.59119" lon="4.27114">
        <ele>494</ele>
        <time>2018-05-16T10:46:36.1Z</time>
      </trkpt>
      <trkpt lat="44.59112" lon="4.27106">
        <ele>495</ele>
        <time>2018-05-16T10:46:39.1Z</time>
      </trkpt>
      <trkpt lat="44.59104" lon="4.27097">
        <ele>495</ele>
        <time>2018-05-16T10:46:42.1Z</time>
      </trkpt>
      <trkpt lat="44.59097" lon="4.27088">
        <ele>495</ele>
        <time>2018-05-16T10:46:45.1Z</time>
      </trkpt>
      <trkpt lat="44.5909" lon="4.27077">
        <ele>496</ele>
        <time>2018-05-16T10:46:48.1Z</time>
      </trkpt>
      <trkpt lat="44.59085" lon="4.27066">
        <ele>497</ele>
        <time>2018-05-16T10:46:51.1Z</time>
      </trkpt>
      <trkpt lat="44.59082" lon="4.27053">
        <ele>497</ele>
        <time>2018-05-16T10:46:54.1Z</time>
      </trkpt>
      <trkpt lat="44.59082" lon="4.27044">
        <ele>498</ele>
        <time>2018-05-16T10:46:56.1Z</time>
      </trkpt>
      <trkpt lat="44.59084" lon="4.27032">
        <ele>498</ele>
        <time>2018-05-16T10:46:59.1Z</time>
      </trkpt>
      <trkpt lat="44.59088" lon="4.2702">
        <ele>499</ele>
        <time>2018-05-16T10:47:02.1Z</time>
      </trkpt>
      <trkpt lat="44.59092" lon="4.27008">
        <ele>499</ele>
        <time>2018-05-16T10:47:05.1Z</time>
      </trkpt>
      <trkpt lat="44.59095" lon="4.27">
        <ele>500</ele>
        <time>2018-05-16T10:47:07.1Z</time>
      </trkpt>
      <trkpt lat="44.59099" lon="4.26988">
        <ele>500</ele>
        <time>2018-05-16T10:47:10.1Z</time>
      </trkpt>
      <trkpt lat="44.59102" lon="4.26975">
        <ele>501</ele>
        <time>2018-05-16T10:47:13.1Z</time>
      </trkpt>
      <trkpt lat="44.59104" lon="4.26967">
        <ele>500</ele>
        <time>2018-05-16T10:47:15.1Z</time>
      </trkpt>
      <trkpt lat="44.59106" lon="4.26959">
        <ele>501</ele>
        <time>2018-05-16T10:47:17.1Z</time>
      </trkpt>
      <trkpt lat="44.5911" lon="4.26947">
        <ele>501</ele>
        <time>2018-05-16T10:47:20.1Z</time>
      </trkpt>
      <trkpt lat="44.59112" lon="4.26939">
        <ele>501</ele>
        <time>2018-05-16T10:47:22.1Z</time>
      </trkpt>
      <trkpt lat="44.59115" lon="4.26931">
        <ele>501</ele>
        <time>2018-05-16T10:47:24.1Z</time>
      </trkpt>
      <trkpt lat="44.59117" lon="4.26922">
        <ele>501</ele>
        <time>2018-05-16T10:47:26.1Z</time>
      </trkpt>
      <trkpt lat="44.59121" lon="4.26909">
        <ele>501</ele>
        <time>2018-05-16T10:47:29.1Z</time>
      </trkpt>
      <trkpt lat="44.59124" lon="4.269">
        <ele>502</ele>
        <time>2018-05-16T10:47:31.1Z</time>
      </trkpt>
      <trkpt lat="44.59129" lon="4.26888">
        <ele>502</ele>
        <time>2018-05-16T10:47:34.1Z</time>
      </trkpt>
      <trkpt lat="44.59137" lon="4.26878">
        <ele>502</ele>
        <time>2018-05-16T10:47:37.1Z</time>
      </trkpt>
      <trkpt lat="44.59142" lon="4.26872">
        <ele>501</ele>
        <time>2018-05-16T10:47:39.1Z</time>
      </trkpt>
      <trkpt lat="44.5915" lon="4.26862">
        <ele>501</ele>
        <time>2018-05-16T10:47:42.1Z</time>
      </trkpt>
      <trkpt lat="44.59158" lon="4.26853">
        <ele>502</ele>
        <time>2018-05-16T10:47:45.1Z</time>
      </trkpt>
      <trkpt lat="44.59165" lon="4.26845">
        <ele>502</ele>
        <time>2018-05-16T10:47:48.1Z</time>
      </trkpt>
      <trkpt lat="44.5917" lon="4.26838">
        <ele>503</ele>
        <time>2018-05-16T10:47:50.1Z</time>
      </trkpt>
      <trkpt lat="44.59174" lon="4.26833">
        <ele>503</ele>
        <time>2018-05-16T10:47:52.1Z</time>
      </trkpt>
      <trkpt lat="44.59179" lon="4.26829">
        <ele>504</ele>
        <time>2018-05-16T10:47:54.1Z</time>
      </trkpt>
      <trkpt lat="44.59182" lon="4.26822">
        <ele>505</ele>
        <time>2018-05-16T10:47:56.1Z</time>
      </trkpt>
      <trkpt lat="44.59185" lon="4.26809">
        <ele>506</ele>
        <time>2018-05-16T10:47:59.1Z</time>
      </trkpt>
      <trkpt lat="44.59185" lon="4.268">
        <ele>508</ele>
        <time>2018-05-16T10:48:01.1Z</time>
      </trkpt>
      <trkpt lat="44.59183" lon="4.26788">
        <ele>508</ele>
        <time>2018-05-16T10:48:04.1Z</time>
      </trkpt>
      <trkpt lat="44.59182" lon="4.2678">
        <ele>508</ele>
        <time>2018-05-16T10:48:06.1Z</time>
      </trkpt>
      <trkpt lat="44.59179" lon="4.26766">
        <ele>509</ele>
        <time>2018-05-16T10:48:09.1Z</time>
      </trkpt>
      <trkpt lat="44.59178" lon="4.26753">
        <ele>509</ele>
        <time>2018-05-16T10:48:12.1Z</time>
      </trkpt>
      <trkpt lat="44.5918" lon="4.26739">
        <ele>510</ele>
        <time>2018-05-16T10:48:15.1Z</time>
      </trkpt>
      <trkpt lat="44.5918" lon="4.2673">
        <ele>510</ele>
        <time>2018-05-16T10:48:17.1Z</time>
      </trkpt>
      <trkpt lat="44.59179" lon="4.26721">
        <ele>511</ele>
        <time>2018-05-16T10:48:19.1Z</time>
      </trkpt>
      <trkpt lat="44.59178" lon="4.26712">
        <ele>511</ele>
        <time>2018-05-16T10:48:21.1Z</time>
      </trkpt>
      <trkpt lat="44.59177" lon="4.26702">
        <ele>511</ele>
        <time>2018-05-16T10:48:23.1Z</time>
      </trkpt>
      <trkpt lat="44.59176" lon="4.26689">
        <ele>512</ele>
        <time>2018-05-16T10:48:26.1Z</time>
      </trkpt>
      <trkpt lat="44.59174" lon="4.26678">
        <ele>511</ele>
        <time>2018-05-16T10:48:29.1Z</time>
      </trkpt>
      <trkpt lat="44.59172" lon="4.26671">
        <ele>511</ele>
        <time>2018-05-16T10:48:31.1Z</time>
      </trkpt>
      <trkpt lat="44.59171" lon="4.2666">
        <ele>511</ele>
        <time>2018-05-16T10:48:34.1Z</time>
      </trkpt>
      <trkpt lat="44.59173" lon="4.26649">
        <ele>512</ele>
        <time>2018-05-16T10:48:37.1Z</time>
      </trkpt>
      <trkpt lat="44.59174" lon="4.26638">
        <ele>512</ele>
        <time>2018-05-16T10:48:40.1Z</time>
      </trkpt>
      <trkpt lat="44.59176" lon="4.26624">
        <ele>513</ele>
        <time>2018-05-16T10:48:43.1Z</time>
      </trkpt>
      <trkpt lat="44.59179" lon="4.26613">
        <ele>514</ele>
        <time>2018-05-16T10:48:46.1Z</time>
      </trkpt>
      <trkpt lat="44.59182" lon="4.26601">
        <ele>515</ele>
        <time>2018-05-16T10:48:49.1Z</time>
      </trkpt>
      <trkpt lat="44.59184" lon="4.26592">
        <ele>515</ele>
        <time>2018-05-16T10:48:51.1Z</time>
      </trkpt>
      <trkpt lat="44.59186" lon="4.26585">
        <ele>515</ele>
        <time>2018-05-16T10:48:53.1Z</time>
      </trkpt>
      <trkpt lat="44.59188" lon="4.26577">
        <ele>516</ele>
        <time>2018-05-16T10:48:55.1Z</time>
      </trkpt>
      <trkpt lat="44.59191" lon="4.26565">
        <ele>518</ele>
        <time>2018-05-16T10:48:58.1Z</time>
      </trkpt>
      <trkpt lat="44.59193" lon="4.26552">
        <ele>518</ele>
        <time>2018-05-16T10:49:01.1Z</time>
      </trkpt>
      <trkpt lat="44.59195" lon="4.2654">
        <ele>518</ele>
        <time>2018-05-16T10:49:04.1Z</time>
      </trkpt>
      <trkpt lat="44.59197" lon="4.26531">
        <ele>518</ele>
        <time>2018-05-16T10:49:06.1Z</time>
      </trkpt>
      <trkpt lat="44.59199" lon="4.26518">
        <ele>518</ele>
        <time>2018-05-16T10:49:09.1Z</time>
      </trkpt>
      <trkpt lat="44.592" lon="4.2651">
        <ele>519</ele>
        <time>2018-05-16T10:49:11.1Z</time>
      </trkpt>
      <trkpt lat="44.59202" lon="4.26501">
        <ele>520</ele>
        <time>2018-05-16T10:49:13.1Z</time>
      </trkpt>
      <trkpt lat="44.59204" lon="4.26493">
        <ele>522</ele>
        <time>2018-05-16T10:49:15.1Z</time>
      </trkpt>
      <trkpt lat="44.59205" lon="4.26485">
        <ele>523</ele>
        <time>2018-05-16T10:49:17.1Z</time>
      </trkpt>
      <trkpt lat="44.59208" lon="4.26474">
        <ele>524</ele>
        <time>2018-05-16T10:49:20.1Z</time>
      </trkpt>
      <trkpt lat="44.59211" lon="4.26462">
        <ele>524</ele>
        <time>2018-05-16T10:49:23.1Z</time>
      </trkpt>
      <trkpt lat="44.59214" lon="4.26455">
        <ele>524</ele>
        <time>2018-05-16T10:49:25.1Z</time>
      </trkpt>
      <trkpt lat="44.59216" lon="4.26448">
        <ele>523</ele>
        <time>2018-05-16T10:49:27.1Z</time>
      </trkpt>
      <trkpt lat="44.5922" lon="4.26437">
        <ele>524</ele>
        <time>2018-05-16T10:49:30.1Z</time>
      </trkpt>
      <trkpt lat="44.59225" lon="4.26427">
        <ele>524</ele>
        <time>2018-05-16T10:49:33.1Z</time>
      </trkpt>
      <trkpt lat="44.5923" lon="4.26419">
        <ele>525</ele>
        <time>2018-05-16T10:49:36.1Z</time>
      </trkpt>
      <trkpt lat="44.59235" lon="4.26415">
        <ele>525</ele>
        <time>2018-05-16T10:49:38.1Z</time>
      </trkpt>
      <trkpt lat="44.59243" lon="4.2641">
        <ele>526</ele>
        <time>2018-05-16T10:49:41.1Z</time>
      </trkpt>
      <trkpt lat="44.59251" lon="4.26407">
        <ele>526</ele>
        <time>2018-05-16T10:49:44.1Z</time>
      </trkpt>
      <trkpt lat="44.59257" lon="4.26406">
        <ele>526</ele>
        <time>2018-05-16T10:49:46.1Z</time>
      </trkpt>
      <trkpt lat="44.59262" lon="4.26406">
        <ele>526</ele>
        <time>2018-05-16T10:49:48.1Z</time>
      </trkpt>
      <trkpt lat="44.59269" lon="4.26406">
        <ele>527</ele>
        <time>2018-05-16T10:49:51.1Z</time>
      </trkpt>
      <trkpt lat="44.59274" lon="4.26407">
        <ele>527</ele>
        <time>2018-05-16T10:49:53.1Z</time>
      </trkpt>
      <trkpt lat="44.59278" lon="4.26407">
        <ele>527</ele>
        <time>2018-05-16T10:49:55.1Z</time>
      </trkpt>
      <trkpt lat="44.59283" lon="4.26407">
        <ele>528</ele>
        <time>2018-05-16T10:49:57.1Z</time>
      </trkpt>
      <trkpt lat="44.5929" lon="4.26406">
        <ele>529</ele>
        <time>2018-05-16T10:50:00.1Z</time>
      </trkpt>
      <trkpt lat="44.59295" lon="4.26405">
        <ele>530</ele>
        <time>2018-05-16T10:50:02.1Z</time>
      </trkpt>
      <trkpt lat="44.59303" lon="4.26401">
        <ele>530</ele>
        <time>2018-05-16T10:50:05.1Z</time>
      </trkpt>
      <trkpt lat="44.5931" lon="4.26395">
        <ele>531</ele>
        <time>2018-05-16T10:50:08.1Z</time>
      </trkpt>
      <trkpt lat="44.59314" lon="4.26391">
        <ele>530</ele>
        <time>2018-05-16T10:50:10.1Z</time>
      </trkpt>
      <trkpt lat="44.59319" lon="4.26387">
        <ele>530</ele>
        <time>2018-05-16T10:50:12.1Z</time>
      </trkpt>
      <trkpt lat="44.59324" lon="4.26382">
        <ele>531</ele>
        <time>2018-05-16T10:50:14.1Z</time>
      </trkpt>
      <trkpt lat="44.5933" lon="4.26375">
        <ele>532</ele>
        <time>2018-05-16T10:50:17.1Z</time>
      </trkpt>
      <trkpt lat="44.59334" lon="4.2637">
        <ele>533</ele>
        <time>2018-05-16T10:50:19.1Z</time>
      </trkpt>
      <trkpt lat="44.59341" lon="4.26363">
        <ele>534</ele>
        <time>2018-05-16T10:50:22.1Z</time>
      </trkpt>
      <trkpt lat="44.59346" lon="4.26359">
        <ele>535</ele>
        <time>2018-05-16T10:50:24.1Z</time>
      </trkpt>
      <trkpt lat="44.59351" lon="4.26354">
        <ele>535</ele>
        <time>2018-05-16T10:50:26.1Z</time>
      </trkpt>
      <trkpt lat="44.59358" lon="4.26346">
        <ele>535</ele>
        <time>2018-05-16T10:50:29.1Z</time>
      </trkpt>
      <trkpt lat="44.59363" lon="4.26342">
        <ele>535</ele>
        <time>2018-05-16T10:50:31.1Z</time>
      </trkpt>
      <trkpt lat="44.59367" lon="4.26338">
        <ele>536</ele>
        <time>2018-05-16T10:50:33.1Z</time>
      </trkpt>
      <trkpt lat="44.59375" lon="4.26333">
        <ele>536</ele>
        <time>2018-05-16T10:50:36.1Z</time>
      </trkpt>
      <trkpt lat="44.5938" lon="4.26329">
        <ele>536</ele>
        <time>2018-05-16T10:50:38.1Z</time>
      </trkpt>
      <trkpt lat="44.59386" lon="4.26327">
        <ele>537</ele>
        <time>2018-05-16T10:50:40.1Z</time>
      </trkpt>
      <trkpt lat="44.59394" lon="4.26327">
        <ele>538</ele>
        <time>2018-05-16T10:50:43.1Z</time>
      </trkpt>
      <trkpt lat="44.59402" lon="4.26328">
        <ele>541</ele>
        <time>2018-05-16T10:50:46.1Z</time>
      </trkpt>
      <trkpt lat="44.59408" lon="4.2633">
        <ele>542</ele>
        <time>2018-05-16T10:50:48.1Z</time>
      </trkpt>
      <trkpt lat="44.59416" lon="4.26333">
        <ele>542</ele>
        <time>2018-05-16T10:50:51.1Z</time>
      </trkpt>
      <trkpt lat="44.59423" lon="4.26337">
        <ele>541</ele>
        <time>2018-05-16T10:50:54.1Z</time>
      </trkpt>
      <trkpt lat="44.59431" lon="4.26342">
        <ele>541</ele>
        <time>2018-05-16T10:50:57.1Z</time>
      </trkpt>
      <trkpt lat="44.59439" lon="4.26346">
        <ele>542</ele>
        <time>2018-05-16T10:51:00.1Z</time>
      </trkpt>
      <trkpt lat="44.59446" lon="4.26351">
        <ele>543</ele>
        <time>2018-05-16T10:51:03.1Z</time>
      </trkpt>
      <trkpt lat="44.59454" lon="4.26357">
        <ele>542</ele>
        <time>2018-05-16T10:51:06.1Z</time>
      </trkpt>
      <trkpt lat="44.5946" lon="4.26361">
        <ele>542</ele>
        <time>2018-05-16T10:51:08.1Z</time>
      </trkpt>
      <trkpt lat="44.59466" lon="4.26365">
        <ele>543</ele>
        <time>2018-05-16T10:51:10.1Z</time>
      </trkpt>
      <trkpt lat="44.59472" lon="4.26369">
        <ele>543</ele>
        <time>2018-05-16T10:51:12.1Z</time>
      </trkpt>
      <trkpt lat="44.5948" lon="4.26373">
        <ele>543</ele>
        <time>2018-05-16T10:51:15.1Z</time>
      </trkpt>
      <trkpt lat="44.59485" lon="4.26376">
        <ele>543</ele>
        <time>2018-05-16T10:51:17.1Z</time>
      </trkpt>
      <trkpt lat="44.59493" lon="4.2638">
        <ele>543</ele>
        <time>2018-05-16T10:51:20.1Z</time>
      </trkpt>
      <trkpt lat="44.59501" lon="4.26383">
        <ele>545</ele>
        <time>2018-05-16T10:51:23.1Z</time>
      </trkpt>
      <trkpt lat="44.59506" lon="4.26385">
        <ele>545</ele>
        <time>2018-05-16T10:51:25.1Z</time>
      </trkpt>
      <trkpt lat="44.59512" lon="4.26389">
        <ele>544</ele>
        <time>2018-05-16T10:51:28.1Z</time>
      </trkpt>
      <trkpt lat="44.59518" lon="4.26391">
        <ele>544</ele>
        <time>2018-05-16T10:51:31.1Z</time>
      </trkpt>
      <trkpt lat="44.59525" lon="4.26393">
        <ele>545</ele>
        <time>2018-05-16T10:51:33.1Z</time>
      </trkpt>
      <trkpt lat="44.59531" lon="4.26394">
        <ele>545</ele>
        <time>2018-05-16T10:51:35.1Z</time>
      </trkpt>
      <trkpt lat="44.59539" lon="4.26396">
        <ele>546</ele>
        <time>2018-05-16T10:51:38.1Z</time>
      </trkpt>
      <trkpt lat="44.59548" lon="4.26397">
        <ele>547</ele>
        <time>2018-05-16T10:51:41.1Z</time>
      </trkpt>
      <trkpt lat="44.59557" lon="4.26402">
        <ele>547</ele>
        <time>2018-05-16T10:51:44.1Z</time>
      </trkpt>
      <trkpt lat="44.59563" lon="4.26406">
        <ele>548</ele>
        <time>2018-05-16T10:51:46.1Z</time>
      </trkpt>
      <trkpt lat="44.59571" lon="4.26412">
        <ele>548</ele>
        <time>2018-05-16T10:51:49.1Z</time>
      </trkpt>
      <trkpt lat="44.59577" lon="4.26416">
        <ele>549</ele>
        <time>2018-05-16T10:51:51.1Z</time>
      </trkpt>
      <trkpt lat="44.59583" lon="4.2642">
        <ele>550</ele>
        <time>2018-05-16T10:51:53.1Z</time>
      </trkpt>
      <trkpt lat="44.59592" lon="4.26426">
        <ele>550</ele>
        <time>2018-05-16T10:51:56.1Z</time>
      </trkpt>
      <trkpt lat="44.59599" lon="4.26429">
        <ele>551</ele>
        <time>2018-05-16T10:51:58.1Z</time>
      </trkpt>
      <trkpt lat="44.59609" lon="4.26433">
        <ele>551</ele>
        <time>2018-05-16T10:52:01.1Z</time>
      </trkpt>
      <trkpt lat="44.59617" lon="4.2643">
        <ele>552</ele>
        <time>2018-05-16T10:52:03.1Z</time>
      </trkpt>
      <trkpt lat="44.59625" lon="4.26419">
        <ele>552</ele>
        <time>2018-05-16T10:52:06.1Z</time>
      </trkpt>
      <trkpt lat="44.59627" lon="4.26406">
        <ele>552</ele>
        <time>2018-05-16T10:52:09.1Z</time>
      </trkpt>
      <trkpt lat="44.59627" lon="4.26397">
        <ele>553</ele>
        <time>2018-05-16T10:52:11.1Z</time>
      </trkpt>
      <trkpt lat="44.59626" lon="4.26382">
        <ele>554</ele>
        <time>2018-05-16T10:52:14.1Z</time>
      </trkpt>
      <trkpt lat="44.59627" lon="4.26373">
        <ele>554</ele>
        <time>2018-05-16T10:52:16.1Z</time>
      </trkpt>
      <trkpt lat="44.59629" lon="4.26359">
        <ele>555</ele>
        <time>2018-05-16T10:52:19.1Z</time>
      </trkpt>
      <trkpt lat="44.5963" lon="4.2635">
        <ele>556</ele>
        <time>2018-05-16T10:52:21.1Z</time>
      </trkpt>
      <trkpt lat="44.59634" lon="4.26337">
        <ele>556</ele>
        <time>2018-05-16T10:52:24.1Z</time>
      </trkpt>
      <trkpt lat="44.59637" lon="4.2633">
        <ele>556</ele>
        <time>2018-05-16T10:52:26.1Z</time>
      </trkpt>
      <trkpt lat="44.59644" lon="4.26321">
        <ele>556</ele>
        <time>2018-05-16T10:52:29.1Z</time>
      </trkpt>
      <trkpt lat="44.5965" lon="4.26315">
        <ele>556</ele>
        <time>2018-05-16T10:52:32.1Z</time>
      </trkpt>
      <trkpt lat="44.59657" lon="4.26309">
        <ele>557</ele>
        <time>2018-05-16T10:52:35.1Z</time>
      </trkpt>
      <trkpt lat="44.59661" lon="4.26306">
        <ele>558</ele>
        <time>2018-05-16T10:52:37.1Z</time>
      </trkpt>
      <trkpt lat="44.59665" lon="4.26302">
        <ele>558</ele>
        <time>2018-05-16T10:52:39.1Z</time>
      </trkpt>
      <trkpt lat="44.5967" lon="4.26298">
        <ele>558</ele>
        <time>2018-05-16T10:52:41.1Z</time>
      </trkpt>
      <trkpt lat="44.59677" lon="4.26292">
        <ele>559</ele>
        <time>2018-05-16T10:52:44.1Z</time>
      </trkpt>
      <trkpt lat="44.59681" lon="4.26288">
        <ele>559</ele>
        <time>2018-05-16T10:52:46.1Z</time>
      </trkpt>
      <trkpt lat="44.59686" lon="4.26285">
        <ele>560</ele>
        <time>2018-05-16T10:52:48.1Z</time>
      </trkpt>
      <trkpt lat="44.5969" lon="4.2628">
        <ele>561</ele>
        <time>2018-05-16T10:52:50.1Z</time>
      </trkpt>
      <trkpt lat="44.59697" lon="4.26273">
        <ele>561</ele>
        <time>2018-05-16T10:52:53.1Z</time>
      </trkpt>
      <trkpt lat="44.597" lon="4.26266">
        <ele>561</ele>
        <time>2018-05-16T10:52:55.1Z</time>
      </trkpt>
      <trkpt lat="44.59702" lon="4.26255">
        <ele>561</ele>
        <time>2018-05-16T10:52:58.1Z</time>
      </trkpt>
      <trkpt lat="44.597" lon="4.26243">
        <ele>563</ele>
        <time>2018-05-16T10:53:01.1Z</time>
      </trkpt>
      <trkpt lat="44.59698" lon="4.26235">
        <ele>563</ele>
        <time>2018-05-16T10:53:03.1Z</time>
      </trkpt>
      <trkpt lat="44.59697" lon="4.26224">
        <ele>564</ele>
        <time>2018-05-16T10:53:06.1Z</time>
      </trkpt>
      <trkpt lat="44.59697" lon="4.26213">
        <ele>565</ele>
        <time>2018-05-16T10:53:09.1Z</time>
      </trkpt>
      <trkpt lat="44.59697" lon="4.26202">
        <ele>566</ele>
        <time>2018-05-16T10:53:12.1Z</time>
      </trkpt>
      <trkpt lat="44.59697" lon="4.26194">
        <ele>566</ele>
        <time>2018-05-16T10:53:14.1Z</time>
      </trkpt>
      <trkpt lat="44.59697" lon="4.26184">
        <ele>566</ele>
        <time>2018-05-16T10:53:17.1Z</time>
      </trkpt>
      <trkpt lat="44.59698" lon="4.26177">
        <ele>567</ele>
        <time>2018-05-16T10:53:19.1Z</time>
      </trkpt>
      <trkpt lat="44.59698" lon="4.26171">
        <ele>567</ele>
        <time>2018-05-16T10:53:21.1Z</time>
      </trkpt>
      <trkpt lat="44.59697" lon="4.26161">
        <ele>567</ele>
        <time>2018-05-16T10:53:24.1Z</time>
      </trkpt>
      <trkpt lat="44.59695" lon="4.26152">
        <ele>569</ele>
        <time>2018-05-16T10:53:27.1Z</time>
      </trkpt>
      <trkpt lat="44.59694" lon="4.26146">
        <ele>569</ele>
        <time>2018-05-16T10:53:29.1Z</time>
      </trkpt>
      <trkpt lat="44.59691" lon="4.26137">
        <ele>570</ele>
        <time>2018-05-16T10:53:32.1Z</time>
      </trkpt>
      <trkpt lat="44.59689" lon="4.26128">
        <ele>570</ele>
        <time>2018-05-16T10:53:35.1Z</time>
      </trkpt>
      <trkpt lat="44.59688" lon="4.26122">
        <ele>571</ele>
        <time>2018-05-16T10:53:37.1Z</time>
      </trkpt>
      <trkpt lat="44.59688" lon="4.26112">
        <ele>573</ele>
        <time>2018-05-16T10:53:40.1Z</time>
      </trkpt>
      <trkpt lat="44.5969" lon="4.26102">
        <ele>573</ele>
        <time>2018-05-16T10:53:43.1Z</time>
      </trkpt>
      <trkpt lat="44.59692" lon="4.26092">
        <ele>573</ele>
        <time>2018-05-16T10:53:46.1Z</time>
      </trkpt>
      <trkpt lat="44.59694" lon="4.26082">
        <ele>574</ele>
        <time>2018-05-16T10:53:49.1Z</time>
      </trkpt>
      <trkpt lat="44.59695" lon="4.2607">
        <ele>574</ele>
        <time>2018-05-16T10:53:52.1Z</time>
      </trkpt>
      <trkpt lat="44.59697" lon="4.26057">
        <ele>575</ele>
        <time>2018-05-16T10:53:55.1Z</time>
      </trkpt>
      <trkpt lat="44.59696" lon="4.26045">
        <ele>575</ele>
        <time>2018-05-16T10:53:58.1Z</time>
      </trkpt>
      <trkpt lat="44.59695" lon="4.26037">
        <ele>575</ele>
        <time>2018-05-16T10:54:00.1Z</time>
      </trkpt>
      <trkpt lat="44.59694" lon="4.26023">
        <ele>575</ele>
        <time>2018-05-16T10:54:03.1Z</time>
      </trkpt>
      <trkpt lat="44.59692" lon="4.26008">
        <ele>576</ele>
        <time>2018-05-16T10:54:06.1Z</time>
      </trkpt>
      <trkpt lat="44.59692" lon="4.25996">
        <ele>576</ele>
        <time>2018-05-16T10:54:08.1Z</time>
      </trkpt>
      <trkpt lat="44.59692" lon="4.25985">
        <ele>576</ele>
        <time>2018-05-16T10:54:10.1Z</time>
      </trkpt>
      <trkpt lat="44.5969" lon="4.25974">
        <ele>576</ele>
        <time>2018-05-16T10:54:12.1Z</time>
      </trkpt>
      <trkpt lat="44.59689" lon="4.25959">
        <ele>576</ele>
        <time>2018-05-16T10:54:15.1Z</time>
      </trkpt>
      <trkpt lat="44.59686" lon="4.2595">
        <ele>576</ele>
        <time>2018-05-16T10:54:17.1Z</time>
      </trkpt>
      <trkpt lat="44.59681" lon="4.25937">
        <ele>577</ele>
        <time>2018-05-16T10:54:20.1Z</time>
      </trkpt>
      <trkpt lat="44.59677" lon="4.25929">
        <ele>577</ele>
        <time>2018-05-16T10:54:22.1Z</time>
      </trkpt>
      <trkpt lat="44.59672" lon="4.25917">
        <ele>578</ele>
        <time>2018-05-16T10:54:25.1Z</time>
      </trkpt>
      <trkpt lat="44.5967" lon="4.25909">
        <ele>578</ele>
        <time>2018-05-16T10:54:27.1Z</time>
      </trkpt>
      <trkpt lat="44.59669" lon="4.25896">
        <ele>579</ele>
        <time>2018-05-16T10:54:30.1Z</time>
      </trkpt>
      <trkpt lat="44.59668" lon="4.25883">
        <ele>579</ele>
        <time>2018-05-16T10:54:33.1Z</time>
      </trkpt>
      <trkpt lat="44.59669" lon="4.25871">
        <ele>580</ele>
        <time>2018-05-16T10:54:36.1Z</time>
      </trkpt>
      <trkpt lat="44.59669" lon="4.25863">
        <ele>581</ele>
        <time>2018-05-16T10:54:38.1Z</time>
      </trkpt>
      <trkpt lat="44.5967" lon="4.25851">
        <ele>581</ele>
        <time>2018-05-16T10:54:41.1Z</time>
      </trkpt>
      <trkpt lat="44.5967" lon="4.25843">
        <ele>582</ele>
        <time>2018-05-16T10:54:43.1Z</time>
      </trkpt>
      <trkpt lat="44.59669" lon="4.25835">
        <ele>582</ele>
        <time>2018-05-16T10:54:45.1Z</time>
      </trkpt>
      <trkpt lat="44.59668" lon="4.25823">
        <ele>583</ele>
        <time>2018-05-16T10:54:48.1Z</time>
      </trkpt>
      <trkpt lat="44.59666" lon="4.25812">
        <ele>583</ele>
        <time>2018-05-16T10:54:51.1Z</time>
      </trkpt>
      <trkpt lat="44.59664" lon="4.258">
        <ele>584</ele>
        <time>2018-05-16T10:54:54.1Z</time>
      </trkpt>
      <trkpt lat="44.59663" lon="4.25788">
        <ele>584</ele>
        <time>2018-05-16T10:54:57.1Z</time>
      </trkpt>
      <trkpt lat="44.59662" lon="4.25775">
        <ele>585</ele>
        <time>2018-05-16T10:55:00.1Z</time>
      </trkpt>
      <trkpt lat="44.59662" lon="4.25767">
        <ele>586</ele>
        <time>2018-05-16T10:55:02.1Z</time>
      </trkpt>
      <trkpt lat="44.59661" lon="4.25755">
        <ele>587</ele>
        <time>2018-05-16T10:55:05.1Z</time>
      </trkpt>
      <trkpt lat="44.59662" lon="4.25746">
        <ele>587</ele>
        <time>2018-05-16T10:55:07.1Z</time>
      </trkpt>
      <trkpt lat="44.59662" lon="4.25737">
        <ele>588</ele>
        <time>2018-05-16T10:55:09.1Z</time>
      </trkpt>
      <trkpt lat="44.59664" lon="4.25724">
        <ele>588</ele>
        <time>2018-05-16T10:55:12.1Z</time>
      </trkpt>
      <trkpt lat="44.59666" lon="4.25715">
        <ele>588</ele>
        <time>2018-05-16T10:55:14.1Z</time>
      </trkpt>
      <trkpt lat="44.59672" lon="4.25704">
        <ele>588</ele>
        <time>2018-05-16T10:55:17.1Z</time>
      </trkpt>
      <trkpt lat="44.59676" lon="4.25698">
        <ele>588</ele>
        <time>2018-05-16T10:55:19.1Z</time>
      </trkpt>
      <trkpt lat="44.59681" lon="4.25693">
        <ele>588</ele>
        <time>2018-05-16T10:55:21.1Z</time>
      </trkpt>
      <trkpt lat="44.59689" lon="4.25687">
        <ele>589</ele>
        <time>2018-05-16T10:55:24.1Z</time>
      </trkpt>
      <trkpt lat="44.59694" lon="4.25683">
        <ele>590</ele>
        <time>2018-05-16T10:55:26.1Z</time>
      </trkpt>
      <trkpt lat="44.59702" lon="4.25678">
        <ele>590</ele>
        <time>2018-05-16T10:55:29.1Z</time>
      </trkpt>
      <trkpt lat="44.59708" lon="4.25675">
        <ele>590</ele>
        <time>2018-05-16T10:55:31.1Z</time>
      </trkpt>
      <trkpt lat="44.59717" lon="4.25673">
        <ele>590</ele>
        <time>2018-05-16T10:55:34.1Z</time>
      </trkpt>
      <trkpt lat="44.59723" lon="4.25671">
        <ele>590</ele>
        <time>2018-05-16T10:55:36.1Z</time>
      </trkpt>
      <trkpt lat="44.59731" lon="4.25668">
        <ele>591</ele>
        <time>2018-05-16T10:55:39.1Z</time>
      </trkpt>
      <trkpt lat="44.59737" lon="4.25667">
        <ele>591</ele>
        <time>2018-05-16T10:55:41.1Z</time>
      </trkpt>
      <trkpt lat="44.59746" lon="4.25663">
        <ele>591</ele>
        <time>2018-05-16T10:55:44.1Z</time>
      </trkpt>
      <trkpt lat="44.59753" lon="4.25659">
        <ele>592</ele>
        <time>2018-05-16T10:55:47.1Z</time>
      </trkpt>
      <trkpt lat="44.59758" lon="4.25656">
        <ele>592</ele>
        <time>2018-05-16T10:55:49.1Z</time>
      </trkpt>
      <trkpt lat="44.59766" lon="4.25651">
        <ele>593</ele>
        <time>2018-05-16T10:55:52.1Z</time>
      </trkpt>
      <trkpt lat="44.59771" lon="4.25648">
        <ele>594</ele>
        <time>2018-05-16T10:55:54.1Z</time>
      </trkpt>
      <trkpt lat="44.59779" lon="4.25644">
        <ele>594</ele>
        <time>2018-05-16T10:55:57.1Z</time>
      </trkpt>
      <trkpt lat="44.59784" lon="4.25643">
        <ele>595</ele>
        <time>2018-05-16T10:55:59.1Z</time>
      </trkpt>
      <trkpt lat="44.59792" lon="4.25642">
        <ele>596</ele>
        <time>2018-05-16T10:56:02.1Z</time>
      </trkpt>
      <trkpt lat="44.59799" lon="4.25643">
        <ele>597</ele>
        <time>2018-05-16T10:56:05.1Z</time>
      </trkpt>
      <trkpt lat="44.59806" lon="4.25645">
        <ele>598</ele>
        <time>2018-05-16T10:56:08.1Z</time>
      </trkpt>
      <trkpt lat="44.59812" lon="4.25648">
        <ele>598</ele>
        <time>2018-05-16T10:56:10.1Z</time>
      </trkpt>
      <trkpt lat="44.59819" lon="4.25652">
        <ele>598</ele>
        <time>2018-05-16T10:56:13.1Z</time>
      </trkpt>
      <trkpt lat="44.59827" lon="4.25658">
        <ele>598</ele>
        <time>2018-05-16T10:56:16.1Z</time>
      </trkpt>
      <trkpt lat="44.59832" lon="4.25663">
        <ele>598</ele>
        <time>2018-05-16T10:56:18.1Z</time>
      </trkpt>
      <trkpt lat="44.59838" lon="4.2567">
        <ele>598</ele>
        <time>2018-05-16T10:56:21.1Z</time>
      </trkpt>
      <trkpt lat="44.59841" lon="4.25677">
        <ele>599</ele>
        <time>2018-05-16T10:56:23.1Z</time>
      </trkpt>
      <trkpt lat="44.59845" lon="4.25688">
        <ele>599</ele>
        <time>2018-05-16T10:56:26.1Z</time>
      </trkpt>
      <trkpt lat="44.59848" lon="4.25694">
        <ele>599</ele>
        <time>2018-05-16T10:56:28.1Z</time>
      </trkpt>
      <trkpt lat="44.5985" lon="4.25701">
        <ele>600</ele>
        <time>2018-05-16T10:56:30.1Z</time>
      </trkpt>
      <trkpt lat="44.59851" lon="4.25712">
        <ele>600</ele>
        <time>2018-05-16T10:56:33.1Z</time>
      </trkpt>
      <trkpt lat="44.59851" lon="4.2572">
        <ele>601</ele>
        <time>2018-05-16T10:56:35.1Z</time>
      </trkpt>
      <trkpt lat="44.59851" lon="4.25728">
        <ele>601</ele>
        <time>2018-05-16T10:56:37.1Z</time>
      </trkpt>
      <trkpt lat="44.59855" lon="4.25739">
        <ele>602</ele>
        <time>2018-05-16T10:56:40.1Z</time>
      </trkpt>
      <trkpt lat="44.59859" lon="4.25745">
        <ele>602</ele>
        <time>2018-05-16T10:56:42.1Z</time>
      </trkpt>
      <trkpt lat="44.59867" lon="4.25749">
        <ele>602</ele>
        <time>2018-05-16T10:56:45.1Z</time>
      </trkpt>
      <trkpt lat="44.59875" lon="4.25754">
        <ele>604</ele>
        <time>2018-05-16T10:56:48.1Z</time>
      </trkpt>
      <trkpt lat="44.5988" lon="4.25758">
        <ele>604</ele>
        <time>2018-05-16T10:56:50.1Z</time>
      </trkpt>
      <trkpt lat="44.59885" lon="4.25761">
        <ele>605</ele>
        <time>2018-05-16T10:56:52.1Z</time>
      </trkpt>
      <trkpt lat="44.59892" lon="4.25767">
        <ele>605</ele>
        <time>2018-05-16T10:56:55.1Z</time>
      </trkpt>
      <trkpt lat="44.599" lon="4.25773">
        <ele>605</ele>
        <time>2018-05-16T10:56:58.1Z</time>
      </trkpt>
      <trkpt lat="44.59906" lon="4.2578">
        <ele>605</ele>
        <time>2018-05-16T10:57:01.1Z</time>
      </trkpt>
      <trkpt lat="44.59911" lon="4.25784">
        <ele>605</ele>
        <time>2018-05-16T10:57:03.1Z</time>
      </trkpt>
      <trkpt lat="44.59915" lon="4.25787">
        <ele>605</ele>
        <time>2018-05-16T10:57:05.1Z</time>
      </trkpt>
      <trkpt lat="44.59921" lon="4.25786">
        <ele>605</ele>
        <time>2018-05-16T10:57:07.1Z</time>
      </trkpt>
      <trkpt lat="44.59929" lon="4.25778">
        <ele>605</ele>
        <time>2018-05-16T10:57:10.1Z</time>
      </trkpt>
      <trkpt lat="44.59931" lon="4.25766">
        <ele>607</ele>
        <time>2018-05-16T10:57:13.1Z</time>
      </trkpt>
      <trkpt lat="44.59932" lon="4.25757">
        <ele>608</ele>
        <time>2018-05-16T10:57:15.1Z</time>
      </trkpt>
      <trkpt lat="44.59932" lon="4.25743">
        <ele>609</ele>
        <time>2018-05-16T10:57:18.1Z</time>
      </trkpt>
      <trkpt lat="44.59933" lon="4.2573">
        <ele>609</ele>
        <time>2018-05-16T10:57:21.1Z</time>
      </trkpt>
      <trkpt lat="44.59935" lon="4.25717">
        <ele>610</ele>
        <time>2018-05-16T10:57:24.1Z</time>
      </trkpt>
      <trkpt lat="44.59939" lon="4.25705">
        <ele>610</ele>
        <time>2018-05-16T10:57:27.1Z</time>
      </trkpt>
      <trkpt lat="44.59943" lon="4.25694">
        <ele>610</ele>
        <time>2018-05-16T10:57:30.1Z</time>
      </trkpt>
      <trkpt lat="44.59948" lon="4.25682">
        <ele>611</ele>
        <time>2018-05-16T10:57:33.1Z</time>
      </trkpt>
      <trkpt lat="44.59951" lon="4.25675">
        <ele>612</ele>
        <time>2018-05-16T10:57:35.1Z</time>
      </trkpt>
      <trkpt lat="44.59954" lon="4.25668">
        <ele>613</ele>
        <time>2018-05-16T10:57:37.1Z</time>
      </trkpt>
      <trkpt lat="44.59957" lon="4.25657">
        <ele>614</ele>
        <time>2018-05-16T10:57:40.1Z</time>
      </trkpt>
      <trkpt lat="44.5996" lon="4.2565">
        <ele>614</ele>
        <time>2018-05-16T10:57:42.1Z</time>
      </trkpt>
      <trkpt lat="44.59963" lon="4.25644">
        <ele>615</ele>
        <time>2018-05-16T10:57:44.1Z</time>
      </trkpt>
      <trkpt lat="44.59967" lon="4.25634">
        <ele>615</ele>
        <time>2018-05-16T10:57:47.1Z</time>
      </trkpt>
      <trkpt lat="44.59972" lon="4.25628">
        <ele>615</ele>
        <time>2018-05-16T10:57:49.1Z</time>
      </trkpt>
      <trkpt lat="44.59976" lon="4.25624">
        <ele>616</ele>
        <time>2018-05-16T10:57:51.1Z</time>
      </trkpt>
      <trkpt lat="44.59981" lon="4.25619">
        <ele>617</ele>
        <time>2018-05-16T10:57:53.1Z</time>
      </trkpt>
      <trkpt lat="44.59986" lon="4.25616">
        <ele>617</ele>
        <time>2018-05-16T10:57:55.1Z</time>
      </trkpt>
      <trkpt lat="44.59993" lon="4.25612">
        <ele>618</ele>
        <time>2018-05-16T10:57:58.1Z</time>
      </trkpt>
      <trkpt lat="44.59997" lon="4.2561">
        <ele>618</ele>
        <time>2018-05-16T10:58:00.1Z</time>
      </trkpt>
      <trkpt lat="44.60003" lon="4.25611">
        <ele>618</ele>
        <time>2018-05-16T10:58:03.1Z</time>
      </trkpt>
      <trkpt lat="44.60009" lon="4.25611">
        <ele>619</ele>
        <time>2018-05-16T10:58:06.1Z</time>
      </trkpt>
      <trkpt lat="44.60014" lon="4.25611">
        <ele>620</ele>
        <time>2018-05-16T10:58:09.1Z</time>
      </trkpt>
      <trkpt lat="44.60018" lon="4.25612">
        <ele>620</ele>
        <time>2018-05-16T10:58:11.1Z</time>
      </trkpt>
      <trkpt lat="44.60023" lon="4.25612">
        <ele>619</ele>
        <time>2018-05-16T10:58:14.1Z</time>
      </trkpt>
      <trkpt lat="44.60028" lon="4.25613">
        <ele>619</ele>
        <time>2018-05-16T10:58:16.1Z</time>
      </trkpt>
      <trkpt lat="44.60032" lon="4.25611">
        <ele>619</ele>
        <time>2018-05-16T10:58:18.1Z</time>
      </trkpt>
      <trkpt lat="44.60037" lon="4.25609">
        <ele>620</ele>
        <time>2018-05-16T10:58:21.1Z</time>
      </trkpt>
      <trkpt lat="44.60041" lon="4.25607">
        <ele>621</ele>
        <time>2018-05-16T10:58:23.1Z</time>
      </trkpt>
      <trkpt lat="44.60047" lon="4.25605">
        <ele>621</ele>
        <time>2018-05-16T10:58:26.1Z</time>
      </trkpt>
      <trkpt lat="44.60053" lon="4.25602">
        <ele>622</ele>
        <time>2018-05-16T10:58:29.1Z</time>
      </trkpt>
      <trkpt lat="44.6006" lon="4.25599">
        <ele>623</ele>
        <time>2018-05-16T10:58:32.1Z</time>
      </trkpt>
      <trkpt lat="44.60068" lon="4.25596">
        <ele>624</ele>
        <time>2018-05-16T10:58:35.1Z</time>
      </trkpt>
      <trkpt lat="44.60072" lon="4.25594">
        <ele>624</ele>
        <time>2018-05-16T10:58:37.1Z</time>
      </trkpt>
      <trkpt lat="44.6008" lon="4.25589">
        <ele>625</ele>
        <time>2018-05-16T10:58:40.1Z</time>
      </trkpt>
      <trkpt lat="44.6009" lon="4.25585">
        <ele>625</ele>
        <time>2018-05-16T10:58:43.1Z</time>
      </trkpt>
      <trkpt lat="44.60099" lon="4.25584">
        <ele>625</ele>
        <time>2018-05-16T10:58:46.1Z</time>
      </trkpt>
      <trkpt lat="44.60107" lon="4.25584">
        <ele>625</ele>
        <time>2018-05-16T10:58:49.1Z</time>
      </trkpt>
      <trkpt lat="44.60116" lon="4.25586">
        <ele>626</ele>
        <time>2018-05-16T10:58:52.1Z</time>
      </trkpt>
      <trkpt lat="44.60123" lon="4.25589">
        <ele>626</ele>
        <time>2018-05-16T10:58:55.1Z</time>
      </trkpt>
      <trkpt lat="44.60128" lon="4.25593">
        <ele>627</ele>
        <time>2018-05-16T10:58:57.1Z</time>
      </trkpt>
      <trkpt lat="44.60135" lon="4.25599">
        <ele>627</ele>
        <time>2018-05-16T10:59:00.1Z</time>
      </trkpt>
      <trkpt lat="44.60142" lon="4.25605">
        <ele>628</ele>
        <time>2018-05-16T10:59:03.1Z</time>
      </trkpt>
      <trkpt lat="44.60147" lon="4.2561">
        <ele>629</ele>
        <time>2018-05-16T10:59:05.1Z</time>
      </trkpt>
      <trkpt lat="44.60154" lon="4.25616">
        <ele>629</ele>
        <time>2018-05-16T10:59:08.1Z</time>
      </trkpt>
      <trkpt lat="44.60158" lon="4.25617">
        <ele>630</ele>
        <time>2018-05-16T10:59:10.1Z</time>
      </trkpt>
      <trkpt lat="44.60162" lon="4.25618">
        <ele>630</ele>
        <time>2018-05-16T10:59:12.1Z</time>
      </trkpt>
      <trkpt lat="44.6017" lon="4.2562">
        <ele>630</ele>
        <time>2018-05-16T10:59:15.1Z</time>
      </trkpt>
      <trkpt lat="44.60179" lon="4.25621">
        <ele>631</ele>
        <time>2018-05-16T10:59:18.1Z</time>
      </trkpt>
      <trkpt lat="44.60188" lon="4.25622">
        <ele>632</ele>
        <time>2018-05-16T10:59:21.1Z</time>
      </trkpt>
      <trkpt lat="44.60193" lon="4.25623">
        <ele>633</ele>
        <time>2018-05-16T10:59:23.1Z</time>
      </trkpt>
      <trkpt lat="44.60201" lon="4.25623">
        <ele>633</ele>
        <time>2018-05-16T10:59:26.1Z</time>
      </trkpt>
      <trkpt lat="44.60208" lon="4.25621">
        <ele>634</ele>
        <time>2018-05-16T10:59:29.1Z</time>
      </trkpt>
      <trkpt lat="44.60212" lon="4.2562">
        <ele>635</ele>
        <time>2018-05-16T10:59:31.1Z</time>
      </trkpt>
      <trkpt lat="44.60216" lon="4.25617">
        <ele>636</ele>
        <time>2018-05-16T10:59:34.1Z</time>
      </trkpt>
      <trkpt lat="44.60221" lon="4.25612">
        <ele>636</ele>
        <time>2018-05-16T10:59:37.1Z</time>
      </trkpt>
      <trkpt lat="44.60223" lon="4.25609">
        <ele>636</ele>
        <time>2018-05-16T10:59:39.1Z</time>
      </trkpt>
      <trkpt lat="44.60226" lon="4.25604">
        <ele>637</ele>
        <time>2018-05-16T10:59:41.1Z</time>
      </trkpt>
      <trkpt lat="44.60231" lon="4.25596">
        <ele>638</ele>
        <time>2018-05-16T10:59:44.1Z</time>
      </trkpt>
      <trkpt lat="44.60234" lon="4.25591">
        <ele>639</ele>
        <time>2018-05-16T10:59:46.1Z</time>
      </trkpt>
      <trkpt lat="44.60236" lon="4.25586">
        <ele>640</ele>
        <time>2018-05-16T10:59:48.1Z</time>
      </trkpt>
      <trkpt lat="44.60234" lon="4.2558">
        <ele>641</ele>
        <time>2018-05-16T10:59:50.1Z</time>
      </trkpt>
      <trkpt lat="44.60232" lon="4.25573">
        <ele>641</ele>
        <time>2018-05-16T10:59:52.1Z</time>
      </trkpt>
      <trkpt lat="44.60229" lon="4.25566">
        <ele>642</ele>
        <time>2018-05-16T10:59:55.1Z</time>
      </trkpt>
      <trkpt lat="44.60226" lon="4.25557">
        <ele>642</ele>
        <time>2018-05-16T10:59:58.1Z</time>
      </trkpt>
      <trkpt lat="44.60226" lon="4.25551">
        <ele>643</ele>
        <time>2018-05-16T11:00:00.1Z</time>
      </trkpt>
      <trkpt lat="44.60225" lon="4.25546">
        <ele>644</ele>
        <time>2018-05-16T11:00:02.1Z</time>
      </trkpt>
      <trkpt lat="44.60225" lon="4.25539">
        <ele>645</ele>
        <time>2018-05-16T11:00:05.1Z</time>
      </trkpt>
      <trkpt lat="44.60227" lon="4.2553">
        <ele>645</ele>
        <time>2018-05-16T11:00:08.1Z</time>
      </trkpt>
      <trkpt lat="44.6023" lon="4.25521">
        <ele>645</ele>
        <time>2018-05-16T11:00:11.1Z</time>
      </trkpt>
      <trkpt lat="44.60234" lon="4.25512">
        <ele>645</ele>
        <time>2018-05-16T11:00:14.1Z</time>
      </trkpt>
      <trkpt lat="44.60238" lon="4.25503">
        <ele>645</ele>
        <time>2018-05-16T11:00:17.1Z</time>
      </trkpt>
      <trkpt lat="44.60241" lon="4.25493">
        <ele>647</ele>
        <time>2018-05-16T11:00:20.1Z</time>
      </trkpt>
      <trkpt lat="44.60244" lon="4.25488">
        <ele>648</ele>
        <time>2018-05-16T11:00:22.1Z</time>
      </trkpt>
      <trkpt lat="44.60245" lon="4.25483">
        <ele>648</ele>
        <time>2018-05-16T11:00:24.1Z</time>
      </trkpt>
      <trkpt lat="44.60246" lon="4.25475">
        <ele>647</ele>
        <time>2018-05-16T11:00:27.1Z</time>
      </trkpt>
      <trkpt lat="44.60246" lon="4.25466">
        <ele>647</ele>
        <time>2018-05-16T11:00:30.1Z</time>
      </trkpt>
      <trkpt lat="44.60244" lon="4.25456">
        <ele>649</ele>
        <time>2018-05-16T11:00:33.1Z</time>
      </trkpt>
      <trkpt lat="44.60241" lon="4.25446">
        <ele>650</ele>
        <time>2018-05-16T11:00:36.1Z</time>
      </trkpt>
      <trkpt lat="44.60239" lon="4.25439">
        <ele>651</ele>
        <time>2018-05-16T11:00:38.1Z</time>
      </trkpt>
      <trkpt lat="44.60236" lon="4.25428">
        <ele>651</ele>
        <time>2018-05-16T11:00:41.1Z</time>
      </trkpt>
      <trkpt lat="44.60233" lon="4.25418">
        <ele>651</ele>
        <time>2018-05-16T11:00:44.1Z</time>
      </trkpt>
      <trkpt lat="44.60231" lon="4.25407">
        <ele>652</ele>
        <time>2018-05-16T11:00:47.1Z</time>
      </trkpt>
      <trkpt lat="44.60231" lon="4.254">
        <ele>653</ele>
        <time>2018-05-16T11:00:49.1Z</time>
      </trkpt>
      <trkpt lat="44.60231" lon="4.25394">
        <ele>654</ele>
        <time>2018-05-16T11:00:51.1Z</time>
      </trkpt>
      <trkpt lat="44.60231" lon="4.25385">
        <ele>655</ele>
        <time>2018-05-16T11:00:54.1Z</time>
      </trkpt>
      <trkpt lat="44.60231" lon="4.25377">
        <ele>655</ele>
        <time>2018-05-16T11:00:56.1Z</time>
      </trkpt>
      <trkpt lat="44.60231" lon="4.25366">
        <ele>656</ele>
        <time>2018-05-16T11:00:59.1Z</time>
      </trkpt>
      <trkpt lat="44.60231" lon="4.25354">
        <ele>656</ele>
        <time>2018-05-16T11:01:02.1Z</time>
      </trkpt>
      <trkpt lat="44.6023" lon="4.25342">
        <ele>657</ele>
        <time>2018-05-16T11:01:05.1Z</time>
      </trkpt>
      <trkpt lat="44.6023" lon="4.2533">
        <ele>657</ele>
        <time>2018-05-16T11:01:08.1Z</time>
      </trkpt>
      <trkpt lat="44.6023" lon="4.25317">
        <ele>658</ele>
        <time>2018-05-16T11:01:11.1Z</time>
      </trkpt>
      <trkpt lat="44.6023" lon="4.25309">
        <ele>658</ele>
        <time>2018-05-16T11:01:13.1Z</time>
      </trkpt>
      <trkpt lat="44.60231" lon="4.25296">
        <ele>658</ele>
        <time>2018-05-16T11:01:16.1Z</time>
      </trkpt>
      <trkpt lat="44.60234" lon="4.25284">
        <ele>658</ele>
        <time>2018-05-16T11:01:19.1Z</time>
      </trkpt>
      <trkpt lat="44.60237" lon="4.25274">
        <ele>660</ele>
        <time>2018-05-16T11:01:22.1Z</time>
      </trkpt>
      <trkpt lat="44.60243" lon="4.25266">
        <ele>660</ele>
        <time>2018-05-16T11:01:25.1Z</time>
      </trkpt>
      <trkpt lat="44.60247" lon="4.25262">
        <ele>660</ele>
        <time>2018-05-16T11:01:27.1Z</time>
      </trkpt>
      <trkpt lat="44.60253" lon="4.25258">
        <ele>659</ele>
        <time>2018-05-16T11:01:30.1Z</time>
      </trkpt>
      <trkpt lat="44.6026" lon="4.25255">
        <ele>660</ele>
        <time>2018-05-16T11:01:33.1Z</time>
      </trkpt>
      <trkpt lat="44.60266" lon="4.25252">
        <ele>662</ele>
        <time>2018-05-16T11:01:36.1Z</time>
      </trkpt>
      <trkpt lat="44.60273" lon="4.2525">
        <ele>662</ele>
        <time>2018-05-16T11:01:39.1Z</time>
      </trkpt>
      <trkpt lat="44.60279" lon="4.25249">
        <ele>661</ele>
        <time>2018-05-16T11:01:41.1Z</time>
      </trkpt>
      <trkpt lat="44.60286" lon="4.25249">
        <ele>661</ele>
        <time>2018-05-16T11:01:44.1Z</time>
      </trkpt>
      <trkpt lat="44.60294" lon="4.2525">
        <ele>663</ele>
        <time>2018-05-16T11:01:47.1Z</time>
      </trkpt>
      <trkpt lat="44.603" lon="4.25251">
        <ele>664</ele>
        <time>2018-05-16T11:01:49.1Z</time>
      </trkpt>
      <trkpt lat="44.60309" lon="4.25252">
        <ele>665</ele>
        <time>2018-05-16T11:01:52.1Z</time>
      </trkpt>
      <trkpt lat="44.60315" lon="4.25255">
        <ele>665</ele>
        <time>2018-05-16T11:01:55.1Z</time>
      </trkpt>
      <trkpt lat="44.60323" lon="4.25257">
        <ele>664</ele>
        <time>2018-05-16T11:01:58.1Z</time>
      </trkpt>
      <trkpt lat="44.6033" lon="4.2526">
        <ele>665</ele>
        <time>2018-05-16T11:02:01.1Z</time>
      </trkpt>
      <trkpt lat="44.60335" lon="4.25263">
        <ele>666</ele>
        <time>2018-05-16T11:02:03.1Z</time>
      </trkpt>
      <trkpt lat="44.60338" lon="4.25266">
        <ele>667</ele>
        <time>2018-05-16T11:02:05.1Z</time>
      </trkpt>
      <trkpt lat="44.60346" lon="4.25271">
        <ele>668</ele>
        <time>2018-05-16T11:02:08.1Z</time>
      </trkpt>
      <trkpt lat="44.60352" lon="4.25276">
        <ele>668</ele>
        <time>2018-05-16T11:02:11.1Z</time>
      </trkpt>
      <trkpt lat="44.60358" lon="4.25281">
        <ele>667</ele>
        <time>2018-05-16T11:02:14.1Z</time>
      </trkpt>
      <trkpt lat="44.60363" lon="4.25285">
        <ele>668</ele>
        <time>2018-05-16T11:02:16.1Z</time>
      </trkpt>
      <trkpt lat="44.60369" lon="4.2529">
        <ele>669</ele>
        <time>2018-05-16T11:02:19.1Z</time>
      </trkpt>
      <trkpt lat="44.60377" lon="4.25296">
        <ele>670</ele>
        <time>2018-05-16T11:02:22.1Z</time>
      </trkpt>
      <trkpt lat="44.60382" lon="4.253">
        <ele>670</ele>
        <time>2018-05-16T11:02:24.1Z</time>
      </trkpt>
      <trkpt lat="44.60388" lon="4.25304">
        <ele>670</ele>
        <time>2018-05-16T11:02:26.1Z</time>
      </trkpt>
      <trkpt lat="44.60396" lon="4.25309">
        <ele>670</ele>
        <time>2018-05-16T11:02:29.1Z</time>
      </trkpt>
      <trkpt lat="44.604" lon="4.25312">
        <ele>670</ele>
        <time>2018-05-16T11:02:31.1Z</time>
      </trkpt>
      <trkpt lat="44.60408" lon="4.25316">
        <ele>670</ele>
        <time>2018-05-16T11:02:34.1Z</time>
      </trkpt>
      <trkpt lat="44.60413" lon="4.2532">
        <ele>670</ele>
        <time>2018-05-16T11:02:36.1Z</time>
      </trkpt>
      <trkpt lat="44.60421" lon="4.25324">
        <ele>671</ele>
        <time>2018-05-16T11:02:39.1Z</time>
      </trkpt>
      <trkpt lat="44.60426" lon="4.25326">
        <ele>671</ele>
        <time>2018-05-16T11:02:42.1Z</time>
      </trkpt>
      <trkpt lat="44.60432" lon="4.25324">
        <ele>673</ele>
        <time>2018-05-16T11:02:45.1Z</time>
      </trkpt>
      <trkpt lat="44.60436" lon="4.2532">
        <ele>674</ele>
        <time>2018-05-16T11:02:47.1Z</time>
      </trkpt>
      <trkpt lat="44.6044" lon="4.2531">
        <ele>674</ele>
        <time>2018-05-16T11:02:50.1Z</time>
      </trkpt>
      <trkpt lat="44.60442" lon="4.253">
        <ele>674</ele>
        <time>2018-05-16T11:02:53.1Z</time>
      </trkpt>
      <trkpt lat="44.60447" lon="4.2529">
        <ele>674</ele>
        <time>2018-05-16T11:02:56.1Z</time>
      </trkpt>
      <trkpt lat="44.60453" lon="4.25282">
        <ele>674</ele>
        <time>2018-05-16T11:02:59.1Z</time>
      </trkpt>
      <trkpt lat="44.60458" lon="4.25279">
        <ele>675</ele>
        <time>2018-05-16T11:03:01.1Z</time>
      </trkpt>
      <trkpt lat="44.60461" lon="4.25274">
        <ele>676</ele>
        <time>2018-05-16T11:03:03.1Z</time>
      </trkpt>
      <trkpt lat="44.60466" lon="4.2527">
        <ele>677</ele>
        <time>2018-05-16T11:03:05.1Z</time>
      </trkpt>
      <trkpt lat="44.60472" lon="4.25265">
        <ele>678</ele>
        <time>2018-05-16T11:03:08.1Z</time>
      </trkpt>
      <trkpt lat="44.60476" lon="4.25262">
        <ele>679</ele>
        <time>2018-05-16T11:03:10.1Z</time>
      </trkpt>
      <trkpt lat="44.60483" lon="4.25259">
        <ele>680</ele>
        <time>2018-05-16T11:03:13.1Z</time>
      </trkpt>
      <trkpt lat="44.60489" lon="4.25258">
        <ele>681</ele>
        <time>2018-05-16T11:03:16.1Z</time>
      </trkpt>
      <trkpt lat="44.60495" lon="4.25257">
        <ele>681</ele>
        <time>2018-05-16T11:03:18.1Z</time>
      </trkpt>
      <trkpt lat="44.60501" lon="4.25255">
        <ele>681</ele>
        <time>2018-05-16T11:03:21.1Z</time>
      </trkpt>
      <trkpt lat="44.60506" lon="4.25255">
        <ele>682</ele>
        <time>2018-05-16T11:03:23.1Z</time>
      </trkpt>
      <trkpt lat="44.60511" lon="4.25255">
        <ele>682</ele>
        <time>2018-05-16T11:03:25.1Z</time>
      </trkpt>
      <trkpt lat="44.60518" lon="4.25255">
        <ele>683</ele>
        <time>2018-05-16T11:03:28.1Z</time>
      </trkpt>
      <trkpt lat="44.60521" lon="4.25254">
        <ele>684</ele>
        <time>2018-05-16T11:03:30.1Z</time>
      </trkpt>
      <trkpt lat="44.60526" lon="4.25257">
        <ele>685</ele>
        <time>2018-05-16T11:03:33.1Z</time>
      </trkpt>
      <trkpt lat="44.60529" lon="4.25257">
        <ele>685</ele>
        <time>2018-05-16T11:03:36.1Z</time>
      </trkpt>
      <trkpt lat="44.60532" lon="4.25258">
        <ele>686</ele>
        <time>2018-05-16T11:03:38.1Z</time>
      </trkpt>
      <trkpt lat="44.60536" lon="4.25255">
        <ele>686</ele>
        <time>2018-05-16T11:03:41.1Z</time>
      </trkpt>
      <trkpt lat="44.60541" lon="4.25249">
        <ele>687</ele>
        <time>2018-05-16T11:03:44.1Z</time>
      </trkpt>
      <trkpt lat="44.60542" lon="4.25243">
        <ele>688</ele>
        <time>2018-05-16T11:03:46.1Z</time>
      </trkpt>
      <trkpt lat="44.60543" lon="4.25233">
        <ele>689</ele>
        <time>2018-05-16T11:03:48.1Z</time>
      </trkpt>
      <trkpt lat="44.60543" lon="4.25227">
        <ele>690</ele>
        <time>2018-05-16T11:03:51.1Z</time>
      </trkpt>
      <trkpt lat="44.60542" lon="4.25218">
        <ele>690</ele>
        <time>2018-05-16T11:03:54.1Z</time>
      </trkpt>
      <trkpt lat="44.60542" lon="4.25208">
        <ele>692</ele>
        <time>2018-05-16T11:03:57.1Z</time>
      </trkpt>
      <trkpt lat="44.60541" lon="4.25199">
        <ele>693</ele>
        <time>2018-05-16T11:04:00.1Z</time>
      </trkpt>
      <trkpt lat="44.6054" lon="4.25194">
        <ele>693</ele>
        <time>2018-05-16T11:04:02.1Z</time>
      </trkpt>
      <trkpt lat="44.6054" lon="4.25185">
        <ele>694</ele>
        <time>2018-05-16T11:04:05.1Z</time>
      </trkpt>
      <trkpt lat="44.60538" lon="4.25178">
        <ele>694</ele>
        <time>2018-05-16T11:04:08.1Z</time>
      </trkpt>
      <trkpt lat="44.60536" lon="4.2517">
        <ele>694</ele>
        <time>2018-05-16T11:04:11.1Z</time>
      </trkpt>
      <trkpt lat="44.60534" lon="4.25166">
        <ele>695</ele>
        <time>2018-05-16T11:04:13.1Z</time>
      </trkpt>
      <trkpt lat="44.60532" lon="4.25161">
        <ele>696</ele>
        <time>2018-05-16T11:04:15.1Z</time>
      </trkpt>
      <trkpt lat="44.60528" lon="4.25155">
        <ele>696</ele>
        <time>2018-05-16T11:04:18.1Z</time>
      </trkpt>
      <trkpt lat="44.60524" lon="4.25148">
        <ele>696</ele>
        <time>2018-05-16T11:04:20.1Z</time>
      </trkpt>
      <trkpt lat="44.60519" lon="4.25142">
        <ele>696</ele>
        <time>2018-05-16T11:04:24.1Z</time>
      </trkpt>
      <trkpt lat="44.60515" lon="4.25138">
        <ele>697</ele>
        <time>2018-05-16T11:04:26.1Z</time>
      </trkpt>
      <trkpt lat="44.60511" lon="4.25131">
        <ele>697</ele>
        <time>2018-05-16T11:04:29.1Z</time>
      </trkpt>
      <trkpt lat="44.60504" lon="4.25125">
        <ele>699</ele>
        <time>2018-05-16T11:04:32.1Z</time>
      </trkpt>
      <trkpt lat="44.60498" lon="4.25118">
        <ele>700</ele>
        <time>2018-05-16T11:04:35.1Z</time>
      </trkpt>
      <trkpt lat="44.60495" lon="4.25113">
        <ele>700</ele>
        <time>2018-05-16T11:04:37.1Z</time>
      </trkpt>
      <trkpt lat="44.60493" lon="4.25107">
        <ele>701</ele>
        <time>2018-05-16T11:04:39.1Z</time>
      </trkpt>
      <trkpt lat="44.60493" lon="4.25097">
        <ele>700</ele>
        <time>2018-05-16T11:04:42.1Z</time>
      </trkpt>
      <trkpt lat="44.60494" lon="4.25087">
        <ele>700</ele>
        <time>2018-05-16T11:04:45.1Z</time>
      </trkpt>
      <trkpt lat="44.60496" lon="4.25078">
        <ele>700</ele>
        <time>2018-05-16T11:04:48.1Z</time>
      </trkpt>
      <trkpt lat="44.60499" lon="4.25069">
        <ele>699</ele>
        <time>2018-05-16T11:04:51.1Z</time>
      </trkpt>
      <trkpt lat="44.60503" lon="4.25061">
        <ele>700</ele>
        <time>2018-05-16T11:04:53.1Z</time>
      </trkpt>
      <trkpt lat="44.60505" lon="4.25057">
        <ele>700</ele>
        <time>2018-05-16T11:04:56.1Z</time>
      </trkpt>
      <trkpt lat="44.60509" lon="4.2505">
        <ele>700</ele>
        <time>2018-05-16T11:04:59.1Z</time>
      </trkpt>
      <trkpt lat="44.6051" lon="4.25045">
        <ele>701</ele>
        <time>2018-05-16T11:05:01.1Z</time>
      </trkpt>
      <trkpt lat="44.60513" lon="4.25038">
        <ele>701</ele>
        <time>2018-05-16T11:05:04.1Z</time>
      </trkpt>
      <trkpt lat="44.60515" lon="4.2503">
        <ele>702</ele>
        <time>2018-05-16T11:05:07.1Z</time>
      </trkpt>
      <trkpt lat="44.60518" lon="4.25022">
        <ele>702</ele>
        <time>2018-05-16T11:05:09.1Z</time>
      </trkpt>
      <trkpt lat="44.60519" lon="4.25016">
        <ele>702</ele>
        <time>2018-05-16T11:05:12.1Z</time>
      </trkpt>
      <trkpt lat="44.60523" lon="4.25005">
        <ele>703</ele>
        <time>2018-05-16T11:05:14.1Z</time>
      </trkpt>
      <trkpt lat="44.60525" lon="4.25">
        <ele>704</ele>
        <time>2018-05-16T11:05:16.1Z</time>
      </trkpt>
      <trkpt lat="44.60527" lon="4.24994">
        <ele>705</ele>
        <time>2018-05-16T11:05:18.1Z</time>
      </trkpt>
      <trkpt lat="44.6053" lon="4.24987">
        <ele>705</ele>
        <time>2018-05-16T11:05:21.1Z</time>
      </trkpt>
      <trkpt lat="44.60533" lon="4.24978">
        <ele>706</ele>
        <time>2018-05-16T11:05:24.1Z</time>
      </trkpt>
      <trkpt lat="44.60535" lon="4.24966">
        <ele>707</ele>
        <time>2018-05-16T11:05:26.1Z</time>
      </trkpt>
      <trkpt lat="44.60536" lon="4.24959">
        <ele>708</ele>
        <time>2018-05-16T11:05:29.1Z</time>
      </trkpt>
      <trkpt lat="44.60537" lon="4.24948">
        <ele>709</ele>
        <time>2018-05-16T11:05:32.1Z</time>
      </trkpt>
      <trkpt lat="44.60538" lon="4.24941">
        <ele>709</ele>
        <time>2018-05-16T11:05:34.1Z</time>
      </trkpt>
      <trkpt lat="44.60539" lon="4.24929">
        <ele>709</ele>
        <time>2018-05-16T11:05:37.1Z</time>
      </trkpt>
      <trkpt lat="44.6054" lon="4.24922">
        <ele>709</ele>
        <time>2018-05-16T11:05:39.1Z</time>
      </trkpt>
      <trkpt lat="44.6054" lon="4.2491">
        <ele>710</ele>
        <time>2018-05-16T11:05:41.1Z</time>
      </trkpt>
      <trkpt lat="44.6054" lon="4.24902">
        <ele>711</ele>
        <time>2018-05-16T11:05:43.1Z</time>
      </trkpt>
      <trkpt lat="44.6054" lon="4.24895">
        <ele>711</ele>
        <time>2018-05-16T11:05:45.1Z</time>
      </trkpt>
      <trkpt lat="44.60539" lon="4.24889">
        <ele>712</ele>
        <time>2018-05-16T11:05:47.1Z</time>
      </trkpt>
      <trkpt lat="44.60538" lon="4.24882">
        <ele>712</ele>
        <time>2018-05-16T11:05:49.1Z</time>
      </trkpt>
      <trkpt lat="44.60537" lon="4.24875">
        <ele>713</ele>
        <time>2018-05-16T11:05:51.1Z</time>
      </trkpt>
      <trkpt lat="44.60537" lon="4.24868">
        <ele>713</ele>
        <time>2018-05-16T11:05:54.1Z</time>
      </trkpt>
      <trkpt lat="44.60536" lon="4.24858">
        <ele>713</ele>
        <time>2018-05-16T11:05:57.1Z</time>
      </trkpt>
      <trkpt lat="44.60536" lon="4.24852">
        <ele>713</ele>
        <time>2018-05-16T11:05:59.1Z</time>
      </trkpt>
      <trkpt lat="44.60535" lon="4.24842">
        <ele>713</ele>
        <time>2018-05-16T11:06:02.1Z</time>
      </trkpt>
      <trkpt lat="44.60535" lon="4.24836">
        <ele>714</ele>
        <time>2018-05-16T11:06:04.1Z</time>
      </trkpt>
      <trkpt lat="44.60537" lon="4.24827">
        <ele>714</ele>
        <time>2018-05-16T11:06:07.1Z</time>
      </trkpt>
      <trkpt lat="44.60537" lon="4.24818">
        <ele>715</ele>
        <time>2018-05-16T11:06:10.1Z</time>
      </trkpt>
      <trkpt lat="44.60539" lon="4.24809">
        <ele>716</ele>
        <time>2018-05-16T11:06:13.1Z</time>
      </trkpt>
      <trkpt lat="44.60542" lon="4.248">
        <ele>717</ele>
        <time>2018-05-16T11:06:16.1Z</time>
      </trkpt>
      <trkpt lat="44.60545" lon="4.24792">
        <ele>719</ele>
        <time>2018-05-16T11:06:19.1Z</time>
      </trkpt>
      <trkpt lat="44.60549" lon="4.24785">
        <ele>719</ele>
        <time>2018-05-16T11:06:22.1Z</time>
      </trkpt>
      <trkpt lat="44.60554" lon="4.24778">
        <ele>719</ele>
        <time>2018-05-16T11:06:25.1Z</time>
      </trkpt>
      <trkpt lat="44.60558" lon="4.24774">
        <ele>719</ele>
        <time>2018-05-16T11:06:27.1Z</time>
      </trkpt>
      <trkpt lat="44.60563" lon="4.2477">
        <ele>720</ele>
        <time>2018-05-16T11:06:29.1Z</time>
      </trkpt>
      <trkpt lat="44.60567" lon="4.24767">
        <ele>721</ele>
        <time>2018-05-16T11:06:31.1Z</time>
      </trkpt>
      <trkpt lat="44.60571" lon="4.24765">
        <ele>722</ele>
        <time>2018-05-16T11:06:34.1Z</time>
      </trkpt>
      <trkpt lat="44.60577" lon="4.24763">
        <ele>723</ele>
        <time>2018-05-16T11:06:37.1Z</time>
      </trkpt>
      <trkpt lat="44.60582" lon="4.24762">
        <ele>723</ele>
        <time>2018-05-16T11:06:39.1Z</time>
      </trkpt>
      <trkpt lat="44.60588" lon="4.24761">
        <ele>724</ele>
        <time>2018-05-16T11:06:42.1Z</time>
      </trkpt>
      <trkpt lat="44.60594" lon="4.24762">
        <ele>725</ele>
        <time>2018-05-16T11:06:45.1Z</time>
      </trkpt>
      <trkpt lat="44.606" lon="4.24762">
        <ele>726</ele>
        <time>2018-05-16T11:06:48.1Z</time>
      </trkpt>
      <trkpt lat="44.60604" lon="4.24762">
        <ele>726</ele>
        <time>2018-05-16T11:06:50.1Z</time>
      </trkpt>
      <trkpt lat="44.6061" lon="4.24764">
        <ele>726</ele>
        <time>2018-05-16T11:06:53.1Z</time>
      </trkpt>
      <trkpt lat="44.60616" lon="4.24764">
        <ele>726</ele>
        <time>2018-05-16T11:06:56.1Z</time>
      </trkpt>
      <trkpt lat="44.60622" lon="4.24766">
        <ele>726</ele>
        <time>2018-05-16T11:06:59.1Z</time>
      </trkpt>
      <trkpt lat="44.60628" lon="4.24768">
        <ele>727</ele>
        <time>2018-05-16T11:07:02.1Z</time>
      </trkpt>
      <trkpt lat="44.60633" lon="4.24771">
        <ele>727</ele>
        <time>2018-05-16T11:07:05.1Z</time>
      </trkpt>
      <trkpt lat="44.6064" lon="4.24775">
        <ele>727</ele>
        <time>2018-05-16T11:07:08.1Z</time>
      </trkpt>
      <trkpt lat="44.60646" lon="4.24778">
        <ele>729</ele>
        <time>2018-05-16T11:07:11.1Z</time>
      </trkpt>
      <trkpt lat="44.60651" lon="4.24782">
        <ele>730</ele>
        <time>2018-05-16T11:07:14.1Z</time>
      </trkpt>
      <trkpt lat="44.60656" lon="4.24785">
        <ele>731</ele>
        <time>2018-05-16T11:07:16.1Z</time>
      </trkpt>
      <trkpt lat="44.6066" lon="4.24788">
        <ele>730</ele>
        <time>2018-05-16T11:07:19.1Z</time>
      </trkpt>
      <trkpt lat="44.60664" lon="4.2479">
        <ele>731</ele>
        <time>2018-05-16T11:07:21.1Z</time>
      </trkpt>
      <trkpt lat="44.6067" lon="4.24794">
        <ele>732</ele>
        <time>2018-05-16T11:07:24.1Z</time>
      </trkpt>
      <trkpt lat="44.60676" lon="4.24794">
        <ele>732</ele>
        <time>2018-05-16T11:07:27.1Z</time>
      </trkpt>
      <trkpt lat="44.60679" lon="4.24791">
        <ele>731</ele>
        <time>2018-05-16T11:07:29.1Z</time>
      </trkpt>
      <trkpt lat="44.60683" lon="4.24783">
        <ele>732</ele>
        <time>2018-05-16T11:07:32.1Z</time>
      </trkpt>
      <trkpt lat="44.60684" lon="4.24773">
        <ele>733</ele>
        <time>2018-05-16T11:07:35.1Z</time>
      </trkpt>
      <trkpt lat="44.60684" lon="4.24767">
        <ele>733</ele>
        <time>2018-05-16T11:07:37.1Z</time>
      </trkpt>
      <trkpt lat="44.60683" lon="4.24758">
        <ele>733</ele>
        <time>2018-05-16T11:07:39.1Z</time>
      </trkpt>
      <trkpt lat="44.60683" lon="4.24752">
        <ele>733</ele>
        <time>2018-05-16T11:07:42.1Z</time>
      </trkpt>
      <trkpt lat="44.60683" lon="4.24743">
        <ele>734</ele>
        <time>2018-05-16T11:07:44.1Z</time>
      </trkpt>
      <trkpt lat="44.60683" lon="4.24736">
        <ele>735</ele>
        <time>2018-05-16T11:07:47.1Z</time>
      </trkpt>
      <trkpt lat="44.60683" lon="4.24726">
        <ele>735</ele>
        <time>2018-05-16T11:07:50.1Z</time>
      </trkpt>
      <trkpt lat="44.60684" lon="4.24716">
        <ele>736</ele>
        <time>2018-05-16T11:07:53.1Z</time>
      </trkpt>
      <trkpt lat="44.60685" lon="4.24707">
        <ele>737</ele>
        <time>2018-05-16T11:07:56.1Z</time>
      </trkpt>
      <trkpt lat="44.60686" lon="4.24698">
        <ele>738</ele>
        <time>2018-05-16T11:07:59.1Z</time>
      </trkpt>
      <trkpt lat="44.60688" lon="4.24692">
        <ele>738</ele>
        <time>2018-05-16T11:08:01.1Z</time>
      </trkpt>
      <trkpt lat="44.60691" lon="4.24686">
        <ele>739</ele>
        <time>2018-05-16T11:08:03.1Z</time>
      </trkpt>
      <trkpt lat="44.60693" lon="4.24677">
        <ele>739</ele>
        <time>2018-05-16T11:08:06.1Z</time>
      </trkpt>
      <trkpt lat="44.60697" lon="4.24669">
        <ele>739</ele>
        <time>2018-05-16T11:08:09.1Z</time>
      </trkpt>
      <trkpt lat="44.60702" lon="4.24662">
        <ele>740</ele>
        <time>2018-05-16T11:08:12.1Z</time>
      </trkpt>
      <trkpt lat="44.60704" lon="4.24657">
        <ele>740</ele>
        <time>2018-05-16T11:08:14.1Z</time>
      </trkpt>
      <trkpt lat="44.60709" lon="4.2465">
        <ele>741</ele>
        <time>2018-05-16T11:08:17.1Z</time>
      </trkpt>
      <trkpt lat="44.60712" lon="4.24646">
        <ele>741</ele>
        <time>2018-05-16T11:08:19.1Z</time>
      </trkpt>
      <trkpt lat="44.60715" lon="4.24642">
        <ele>741</ele>
        <time>2018-05-16T11:08:21.1Z</time>
      </trkpt>
      <trkpt lat="44.6072" lon="4.24636">
        <ele>742</ele>
        <time>2018-05-16T11:08:24.1Z</time>
      </trkpt>
      <trkpt lat="44.60726" lon="4.2463">
        <ele>743</ele>
        <time>2018-05-16T11:08:26.1Z</time>
      </trkpt>
      <trkpt lat="44.60729" lon="4.24622">
        <ele>744</ele>
        <time>2018-05-16T11:08:30.1Z</time>
      </trkpt>
      <trkpt lat="44.60731" lon="4.24616">
        <ele>745</ele>
        <time>2018-05-16T11:08:32.1Z</time>
      </trkpt>
      <trkpt lat="44.60732" lon="4.24605">
        <ele>745</ele>
        <time>2018-05-16T11:08:35.1Z</time>
      </trkpt>
      <trkpt lat="44.60728" lon="4.24597">
        <ele>747</ele>
        <time>2018-05-16T11:08:38.1Z</time>
      </trkpt>
      <trkpt lat="44.60724" lon="4.24588">
        <ele>747</ele>
        <time>2018-05-16T11:08:40.1Z</time>
      </trkpt>
      <trkpt lat="44.60722" lon="4.24582">
        <ele>747</ele>
        <time>2018-05-16T11:08:43.1Z</time>
      </trkpt>
      <trkpt lat="44.6072" lon="4.24572">
        <ele>748</ele>
        <time>2018-05-16T11:08:46.1Z</time>
      </trkpt>
      <trkpt lat="44.60719" lon="4.24563">
        <ele>748</ele>
        <time>2018-05-16T11:08:49.1Z</time>
      </trkpt>
      <trkpt lat="44.60719" lon="4.24552">
        <ele>749</ele>
        <time>2018-05-16T11:08:52.1Z</time>
      </trkpt>
      <trkpt lat="44.6072" lon="4.24542">
        <ele>750</ele>
        <time>2018-05-16T11:08:55.1Z</time>
      </trkpt>
      <trkpt lat="44.6072" lon="4.24531">
        <ele>750</ele>
        <time>2018-05-16T11:08:57.1Z</time>
      </trkpt>
      <trkpt lat="44.6072" lon="4.24523">
        <ele>750</ele>
        <time>2018-05-16T11:09:00.1Z</time>
      </trkpt>
      <trkpt lat="44.6072" lon="4.24512">
        <ele>750</ele>
        <time>2018-05-16T11:09:02.1Z</time>
      </trkpt>
      <trkpt lat="44.6072" lon="4.24505">
        <ele>750</ele>
        <time>2018-05-16T11:09:05.1Z</time>
      </trkpt>
      <trkpt lat="44.60719" lon="4.24495">
        <ele>750</ele>
        <time>2018-05-16T11:09:08.1Z</time>
      </trkpt>
      <trkpt lat="44.60715" lon="4.24484">
        <ele>751</ele>
        <time>2018-05-16T11:09:11.1Z</time>
      </trkpt>
      <trkpt lat="44.60709" lon="4.24476">
        <ele>752</ele>
        <time>2018-05-16T11:09:13.1Z</time>
      </trkpt>
      <trkpt lat="44.60704" lon="4.24472">
        <ele>753</ele>
        <time>2018-05-16T11:09:16.1Z</time>
      </trkpt>
      <trkpt lat="44.60696" lon="4.24467">
        <ele>753</ele>
        <time>2018-05-16T11:09:18.1Z</time>
      </trkpt>
      <trkpt lat="44.60691" lon="4.24464">
        <ele>754</ele>
        <time>2018-05-16T11:09:20.1Z</time>
      </trkpt>
      <trkpt lat="44.60686" lon="4.2446">
        <ele>754</ele>
        <time>2018-05-16T11:09:23.1Z</time>
      </trkpt>
      <trkpt lat="44.60681" lon="4.24458">
        <ele>754</ele>
        <time>2018-05-16T11:09:25.1Z</time>
      </trkpt>
      <trkpt lat="44.60674" lon="4.24453">
        <ele>754</ele>
        <time>2018-05-16T11:09:28.1Z</time>
      </trkpt>
      <trkpt lat="44.60667" lon="4.24448">
        <ele>755</ele>
        <time>2018-05-16T11:09:30.1Z</time>
      </trkpt>
      <trkpt lat="44.60663" lon="4.24444">
        <ele>755</ele>
        <time>2018-05-16T11:09:33.1Z</time>
      </trkpt>
      <trkpt lat="44.60659" lon="4.24439">
        <ele>755</ele>
        <time>2018-05-16T11:09:35.1Z</time>
      </trkpt>
      <trkpt lat="44.60657" lon="4.24429">
        <ele>755</ele>
        <time>2018-05-16T11:09:37.1Z</time>
      </trkpt>
      <trkpt lat="44.60656" lon="4.24421">
        <ele>756</ele>
        <time>2018-05-16T11:09:39.1Z</time>
      </trkpt>
      <trkpt lat="44.60656" lon="4.24413">
        <ele>756</ele>
        <time>2018-05-16T11:09:42.1Z</time>
      </trkpt>
      <trkpt lat="44.60656" lon="4.24405">
        <ele>757</ele>
        <time>2018-05-16T11:09:44.1Z</time>
      </trkpt>
      <trkpt lat="44.60657" lon="4.24394">
        <ele>758</ele>
        <time>2018-05-16T11:09:46.1Z</time>
      </trkpt>
      <trkpt lat="44.60659" lon="4.24387">
        <ele>758</ele>
        <time>2018-05-16T11:09:48.1Z</time>
      </trkpt>
      <trkpt lat="44.6066" lon="4.24379">
        <ele>759</ele>
        <time>2018-05-16T11:09:50.1Z</time>
      </trkpt>
      <trkpt lat="44.60661" lon="4.24371">
        <ele>758</ele>
        <time>2018-05-16T11:09:52.1Z</time>
      </trkpt>
      <trkpt lat="44.60663" lon="4.2436">
        <ele>758</ele>
        <time>2018-05-16T11:09:55.1Z</time>
      </trkpt>
      <trkpt lat="44.60665" lon="4.24348">
        <ele>759</ele>
        <time>2018-05-16T11:09:59.1Z</time>
      </trkpt>
      <trkpt lat="44.60667" lon="4.24337">
        <ele>761</ele>
        <time>2018-05-16T11:10:02.1Z</time>
      </trkpt>
      <trkpt lat="44.60668" lon="4.24329">
        <ele>762</ele>
        <time>2018-05-16T11:10:04.1Z</time>
      </trkpt>
      <trkpt lat="44.6067" lon="4.24318">
        <ele>763</ele>
        <time>2018-05-16T11:10:06.1Z</time>
      </trkpt>
      <trkpt lat="44.60672" lon="4.24307">
        <ele>764</ele>
        <time>2018-05-16T11:10:10.1Z</time>
      </trkpt>
      <trkpt lat="44.60674" lon="4.24297">
        <ele>765</ele>
        <time>2018-05-16T11:10:13.1Z</time>
      </trkpt>
      <trkpt lat="44.60676" lon="4.24286">
        <ele>766</ele>
        <time>2018-05-16T11:10:16.1Z</time>
      </trkpt>
      <trkpt lat="44.60679" lon="4.24276">
        <ele>765</ele>
        <time>2018-05-16T11:10:19.1Z</time>
      </trkpt>
      <trkpt lat="44.60681" lon="4.24267">
        <ele>764</ele>
        <time>2018-05-16T11:10:21.1Z</time>
      </trkpt>
      <trkpt lat="44.60683" lon="4.24261">
        <ele>764</ele>
        <time>2018-05-16T11:10:23.1Z</time>
      </trkpt>
      <trkpt lat="44.60685" lon="4.24255">
        <ele>765</ele>
        <time>2018-05-16T11:10:26.1Z</time>
      </trkpt>
      <trkpt lat="44.60689" lon="4.24246">
        <ele>766</ele>
        <time>2018-05-16T11:10:30.1Z</time>
      </trkpt>
      <trkpt lat="44.60692" lon="4.24241">
        <ele>766</ele>
        <time>2018-05-16T11:10:33.1Z</time>
      </trkpt>
      <trkpt lat="44.60694" lon="4.24237">
        <ele>766</ele>
        <time>2018-05-16T11:10:36.1Z</time>
      </trkpt>
      <trkpt lat="44.60693" lon="4.24233">
        <ele>766</ele>
        <time>2018-05-16T11:10:39.1Z</time>
      </trkpt>
      <trkpt lat="44.6069" lon="4.24234">
        <ele>765</ele>
        <time>2018-05-16T11:10:41.1Z</time>
      </trkpt>
      <trkpt lat="44.60688" lon="4.24241">
        <ele>765</ele>
        <time>2018-05-16T11:10:44.1Z</time>
      </trkpt>
      <trkpt lat="44.60685" lon="4.24246">
        <ele>764</ele>
        <time>2018-05-16T11:10:46.1Z</time>
      </trkpt>
      <trkpt lat="44.60683" lon="4.24251">
        <ele>764</ele>
        <time>2018-05-16T11:10:48.1Z</time>
      </trkpt>
      <trkpt lat="44.60679" lon="4.24261">
        <ele>764</ele>
        <time>2018-05-16T11:10:51.1Z</time>
      </trkpt>
      <trkpt lat="44.60676" lon="4.24271">
        <ele>763</ele>
        <time>2018-05-16T11:10:53.1Z</time>
      </trkpt>
      <trkpt lat="44.60674" lon="4.24278">
        <ele>763</ele>
        <time>2018-05-16T11:10:55.1Z</time>
      </trkpt>
      <trkpt lat="44.60673" lon="4.24284">
        <ele>763</ele>
        <time>2018-05-16T11:10:57.1Z</time>
      </trkpt>
      <trkpt lat="44.60672" lon="4.2429">
        <ele>763</ele>
        <time>2018-05-16T11:10:59.1Z</time>
      </trkpt>
      <trkpt lat="44.6067" lon="4.24298">
        <ele>763</ele>
        <time>2018-05-16T11:11:02.1Z</time>
      </trkpt>
      <trkpt lat="44.60667" lon="4.24309">
        <ele>763</ele>
        <time>2018-05-16T11:11:04.1Z</time>
      </trkpt>
      <trkpt lat="44.60665" lon="4.24318">
        <ele>763</ele>
        <time>2018-05-16T11:11:07.1Z</time>
      </trkpt>
      <trkpt lat="44.60664" lon="4.24327">
        <ele>763</ele>
        <time>2018-05-16T11:11:09.1Z</time>
      </trkpt>
      <trkpt lat="44.60662" lon="4.24338">
        <ele>762</ele>
        <time>2018-05-16T11:11:11.1Z</time>
      </trkpt>
      <trkpt lat="44.60661" lon="4.24347">
        <ele>762</ele>
        <time>2018-05-16T11:11:14.1Z</time>
      </trkpt>
      <trkpt lat="44.60659" lon="4.24361">
        <ele>762</ele>
        <time>2018-05-16T11:11:16.1Z</time>
      </trkpt>
      <trkpt lat="44.60658" lon="4.2437">
        <ele>762</ele>
        <time>2018-05-16T11:11:18.1Z</time>
      </trkpt>
      <trkpt lat="44.60656" lon="4.2438">
        <ele>762</ele>
        <time>2018-05-16T11:11:20.1Z</time>
      </trkpt>
      <trkpt lat="44.60655" lon="4.24391">
        <ele>762</ele>
        <time>2018-05-16T11:11:22.1Z</time>
      </trkpt>
      <trkpt lat="44.60653" lon="4.24403">
        <ele>761</ele>
        <time>2018-05-16T11:11:24.1Z</time>
      </trkpt>
      <trkpt lat="44.60652" lon="4.24414">
        <ele>760</ele>
        <time>2018-05-16T11:11:27.1Z</time>
      </trkpt>
      <trkpt lat="44.60653" lon="4.24429">
        <ele>760</ele>
        <time>2018-05-16T11:11:29.1Z</time>
      </trkpt>
      <trkpt lat="44.60655" lon="4.24437">
        <ele>759</ele>
        <time>2018-05-16T11:11:31.1Z</time>
      </trkpt>
      <trkpt lat="44.60657" lon="4.24442">
        <ele>759</ele>
        <time>2018-05-16T11:11:33.1Z</time>
      </trkpt>
      <trkpt lat="44.60662" lon="4.24448">
        <ele>759</ele>
        <time>2018-05-16T11:11:37.1Z</time>
      </trkpt>
      <trkpt lat="44.60671" lon="4.24455">
        <ele>758</ele>
        <time>2018-05-16T11:11:40.1Z</time>
      </trkpt>
      <trkpt lat="44.60682" lon="4.24462">
        <ele>756</ele>
        <time>2018-05-16T11:11:42.1Z</time>
      </trkpt>
      <trkpt lat="44.60691" lon="4.24467">
        <ele>755</ele>
        <time>2018-05-16T11:11:44.1Z</time>
      </trkpt>
      <trkpt lat="44.607" lon="4.24473">
        <ele>754</ele>
        <time>2018-05-16T11:11:47.1Z</time>
      </trkpt>
      <trkpt lat="44.60709" lon="4.24483">
        <ele>753</ele>
        <time>2018-05-16T11:11:49.1Z</time>
      </trkpt>
      <trkpt lat="44.60714" lon="4.24503">
        <ele>753</ele>
        <time>2018-05-16T11:11:51.1Z</time>
      </trkpt>
      <trkpt lat="44.60714" lon="4.24518">
        <ele>753</ele>
        <time>2018-05-16T11:11:53.1Z</time>
      </trkpt>
      <trkpt lat="44.60713" lon="4.24533">
        <ele>754</ele>
        <time>2018-05-16T11:11:56.1Z</time>
      </trkpt>
      <trkpt lat="44.60712" lon="4.24552">
        <ele>753</ele>
        <time>2018-05-16T11:11:58.1Z</time>
      </trkpt>
      <trkpt lat="44.60714" lon="4.2457">
        <ele>752</ele>
        <time>2018-05-16T11:12:01.1Z</time>
      </trkpt>
      <trkpt lat="44.60717" lon="4.2458">
        <ele>751</ele>
        <time>2018-05-16T11:12:03.1Z</time>
      </trkpt>
      <trkpt lat="44.60725" lon="4.24596">
        <ele>749</ele>
        <time>2018-05-16T11:12:07.1Z</time>
      </trkpt>
      <trkpt lat="44.60729" lon="4.24607">
        <ele>749</ele>
        <time>2018-05-16T11:12:09.1Z</time>
      </trkpt>
      <trkpt lat="44.60725" lon="4.2462">
        <ele>748</ele>
        <time>2018-05-16T11:12:11.1Z</time>
      </trkpt>
      <trkpt lat="44.60717" lon="4.24632">
        <ele>748</ele>
        <time>2018-05-16T11:12:14.1Z</time>
      </trkpt>
      <trkpt lat="44.60708" lon="4.2464">
        <ele>746</ele>
        <time>2018-05-16T11:12:17.1Z</time>
      </trkpt>
      <trkpt lat="44.60704" lon="4.24645">
        <ele>746</ele>
        <time>2018-05-16T11:12:19.1Z</time>
      </trkpt>
      <trkpt lat="44.60701" lon="4.2465">
        <ele>744</ele>
        <time>2018-05-16T11:12:22.1Z</time>
      </trkpt>
      <trkpt lat="44.607" lon="4.24657">
        <ele>743</ele>
        <time>2018-05-16T11:12:24.1Z</time>
      </trkpt>
      <trkpt lat="44.60699" lon="4.2466">
        <ele>743</ele>
        <time>2018-05-16T11:12:27.1Z</time>
      </trkpt>
      <trkpt lat="44.60697" lon="4.24658">
        <ele>742</ele>
        <time>2018-05-16T11:12:29.1Z</time>
      </trkpt>
      <trkpt lat="44.607" lon="4.24654">
        <ele>741</ele>
        <time>2018-05-16T11:12:32.1Z</time>
      </trkpt>
      <trkpt lat="44.60706" lon="4.2465">
        <ele>741</ele>
        <time>2018-05-16T11:12:34.1Z</time>
      </trkpt>
      <trkpt lat="44.60709" lon="4.24646">
        <ele>741</ele>
        <time>2018-05-16T11:12:37.1Z</time>
      </trkpt>
      <trkpt lat="44.60713" lon="4.2464">
        <ele>743</ele>
        <time>2018-05-16T11:12:39.1Z</time>
      </trkpt>
      <trkpt lat="44.60718" lon="4.24634">
        <ele>743</ele>
        <time>2018-05-16T11:12:42.1Z</time>
      </trkpt>
      <trkpt lat="44.60721" lon="4.2463">
        <ele>744</ele>
        <time>2018-05-16T11:12:44.1Z</time>
      </trkpt>
      <trkpt lat="44.60726" lon="4.24622">
        <ele>744</ele>
        <time>2018-05-16T11:12:47.1Z</time>
      </trkpt>
      <trkpt lat="44.60728" lon="4.24615">
        <ele>745</ele>
        <time>2018-05-16T11:12:49.1Z</time>
      </trkpt>
      <trkpt lat="44.60728" lon="4.24604">
        <ele>747</ele>
        <time>2018-05-16T11:12:53.1Z</time>
      </trkpt>
      <trkpt lat="44.60723" lon="4.24595">
        <ele>747</ele>
        <time>2018-05-16T11:12:56.1Z</time>
      </trkpt>
      <trkpt lat="44.6072" lon="4.24589">
        <ele>747</ele>
        <time>2018-05-16T11:12:58.1Z</time>
      </trkpt>
      <trkpt lat="44.60717" lon="4.24579">
        <ele>748</ele>
        <time>2018-05-16T11:13:01.1Z</time>
      </trkpt>
      <trkpt lat="44.60715" lon="4.24569">
        <ele>749</ele>
        <time>2018-05-16T11:13:04.1Z</time>
      </trkpt>
      <trkpt lat="44.60715" lon="4.24558">
        <ele>750</ele>
        <time>2018-05-16T11:13:06.1Z</time>
      </trkpt>
      <trkpt lat="44.60715" lon="4.2455">
        <ele>750</ele>
        <time>2018-05-16T11:13:08.1Z</time>
      </trkpt>
      <trkpt lat="44.60715" lon="4.24542">
        <ele>751</ele>
        <time>2018-05-16T11:13:10.1Z</time>
      </trkpt>
      <trkpt lat="44.60715" lon="4.24534">
        <ele>751</ele>
        <time>2018-05-16T11:13:12.1Z</time>
      </trkpt>
      <trkpt lat="44.60716" lon="4.24527">
        <ele>752</ele>
        <time>2018-05-16T11:13:14.1Z</time>
      </trkpt>
      <trkpt lat="44.60717" lon="4.2452">
        <ele>752</ele>
        <time>2018-05-16T11:13:17.1Z</time>
      </trkpt>
      <trkpt lat="44.60717" lon="4.24514">
        <ele>753</ele>
        <time>2018-05-16T11:13:19.1Z</time>
      </trkpt>
      <trkpt lat="44.60717" lon="4.24505">
        <ele>752</ele>
        <time>2018-05-16T11:13:22.1Z</time>
      </trkpt>
      <trkpt lat="44.60717" lon="4.24499">
        <ele>752</ele>
        <time>2018-05-16T11:13:24.1Z</time>
      </trkpt>
      <trkpt lat="44.60715" lon="4.24491">
        <ele>752</ele>
        <time>2018-05-16T11:13:26.1Z</time>
      </trkpt>
      <trkpt lat="44.60713" lon="4.24486">
        <ele>752</ele>
        <time>2018-05-16T11:13:28.1Z</time>
      </trkpt>
      <trkpt lat="44.6071" lon="4.24481">
        <ele>752</ele>
        <time>2018-05-16T11:13:31.1Z</time>
      </trkpt>
      <trkpt lat="44.60704" lon="4.24475">
        <ele>753</ele>
        <time>2018-05-16T11:13:33.1Z</time>
      </trkpt>
      <trkpt lat="44.607" lon="4.24472">
        <ele>754</ele>
        <time>2018-05-16T11:13:35.1Z</time>
      </trkpt>
      <trkpt lat="44.60696" lon="4.24468">
        <ele>755</ele>
        <time>2018-05-16T11:13:38.1Z</time>
      </trkpt>
      <trkpt lat="44.60691" lon="4.24465">
        <ele>755</ele>
        <time>2018-05-16T11:13:40.1Z</time>
      </trkpt>
      <trkpt lat="44.60685" lon="4.24461">
        <ele>755</ele>
        <time>2018-05-16T11:13:42.1Z</time>
      </trkpt>
      <trkpt lat="44.6068" lon="4.24458">
        <ele>755</ele>
        <time>2018-05-16T11:13:44.1Z</time>
      </trkpt>
      <trkpt lat="44.60676" lon="4.24455">
        <ele>756</ele>
        <time>2018-05-16T11:13:47.1Z</time>
      </trkpt>
      <trkpt lat="44.60669" lon="4.24451">
        <ele>757</ele>
        <time>2018-05-16T11:13:49.1Z</time>
      </trkpt>
      <trkpt lat="44.60665" lon="4.24447">
        <ele>758</ele>
        <time>2018-05-16T11:13:52.1Z</time>
      </trkpt>
      <trkpt lat="44.6066" lon="4.24439">
        <ele>758</ele>
        <time>2018-05-16T11:13:54.1Z</time>
      </trkpt>
      <trkpt lat="44.60658" lon="4.24433">
        <ele>758</ele>
        <time>2018-05-16T11:13:56.1Z</time>
      </trkpt>
      <trkpt lat="44.60656" lon="4.24426">
        <ele>758</ele>
        <time>2018-05-16T11:13:59.1Z</time>
      </trkpt>
      <trkpt lat="44.60656" lon="4.24418">
        <ele>758</ele>
        <time>2018-05-16T11:14:01.1Z</time>
      </trkpt>
      <trkpt lat="44.60655" lon="4.24407">
        <ele>758</ele>
        <time>2018-05-16T11:14:03.1Z</time>
      </trkpt>
      <trkpt lat="44.60655" lon="4.244">
        <ele>759</ele>
        <time>2018-05-16T11:14:05.1Z</time>
      </trkpt>
      <trkpt lat="44.60656" lon="4.24393">
        <ele>759</ele>
        <time>2018-05-16T11:14:07.1Z</time>
      </trkpt>
      <trkpt lat="44.60656" lon="4.24385">
        <ele>760</ele>
        <time>2018-05-16T11:14:09.1Z</time>
      </trkpt>
      <trkpt lat="44.60657" lon="4.24378">
        <ele>760</ele>
        <time>2018-05-16T11:14:11.1Z</time>
      </trkpt>
      <trkpt lat="44.60658" lon="4.24371">
        <ele>761</ele>
        <time>2018-05-16T11:14:13.1Z</time>
      </trkpt>
      <trkpt lat="44.60659" lon="4.24365">
        <ele>761</ele>
        <time>2018-05-16T11:14:15.1Z</time>
      </trkpt>
      <trkpt lat="44.6066" lon="4.24358">
        <ele>762</ele>
        <time>2018-05-16T11:14:18.1Z</time>
      </trkpt>
      <trkpt lat="44.60661" lon="4.24352">
        <ele>763</ele>
        <time>2018-05-16T11:14:20.1Z</time>
      </trkpt>
      <trkpt lat="44.60663" lon="4.24343">
        <ele>764</ele>
        <time>2018-05-16T11:14:22.1Z</time>
      </trkpt>
      <trkpt lat="44.60664" lon="4.24336">
        <ele>765</ele>
        <time>2018-05-16T11:14:25.1Z</time>
      </trkpt>
      <trkpt lat="44.60666" lon="4.24327">
        <ele>766</ele>
        <time>2018-05-16T11:14:27.1Z</time>
      </trkpt>
      <trkpt lat="44.60667" lon="4.24321">
        <ele>768</ele>
        <time>2018-05-16T11:14:29.1Z</time>
      </trkpt>
      <trkpt lat="44.60668" lon="4.24316">
        <ele>768</ele>
        <time>2018-05-16T11:14:31.1Z</time>
      </trkpt>
      <trkpt lat="44.60669" lon="4.2431">
        <ele>768</ele>
        <time>2018-05-16T11:14:33.1Z</time>
      </trkpt>
      <trkpt lat="44.6067" lon="4.24304">
        <ele>768</ele>
        <time>2018-05-16T11:14:36.1Z</time>
      </trkpt>
      <trkpt lat="44.60671" lon="4.24295">
        <ele>767</ele>
        <time>2018-05-16T11:14:39.1Z</time>
      </trkpt>
      <trkpt lat="44.60672" lon="4.2429">
        <ele>766</ele>
        <time>2018-05-16T11:14:41.1Z</time>
      </trkpt>
      <trkpt lat="44.60673" lon="4.24281">
        <ele>765</ele>
        <time>2018-05-16T11:14:44.1Z</time>
      </trkpt>
      <trkpt lat="44.60675" lon="4.24273">
        <ele>764</ele>
        <time>2018-05-16T11:14:46.1Z</time>
      </trkpt>
      <trkpt lat="44.60677" lon="4.24269">
        <ele>764</ele>
        <time>2018-05-16T11:14:48.1Z</time>
      </trkpt>
      <trkpt lat="44.60678" lon="4.24265">
        <ele>764</ele>
        <time>2018-05-16T11:14:51.1Z</time>
      </trkpt>
      <trkpt lat="44.60681" lon="4.24259">
        <ele>764</ele>
        <time>2018-05-16T11:14:54.1Z</time>
      </trkpt>
      <trkpt lat="44.60683" lon="4.24253">
        <ele>763</ele>
        <time>2018-05-16T11:14:56.1Z</time>
      </trkpt>
      <trkpt lat="44.60685" lon="4.2425">
        <ele>763</ele>
        <time>2018-05-16T11:14:59.1Z</time>
      </trkpt>
      <trkpt lat="44.60688" lon="4.24247">
        <ele>763</ele>
        <time>2018-05-16T11:15:01.1Z</time>
      </trkpt>
      <trkpt lat="44.60691" lon="4.24247">
        <ele>762</ele>
        <time>2018-05-16T11:15:04.1Z</time>
      </trkpt>
      <trkpt lat="44.60691" lon="4.24247">
        <ele>762</ele>
        <time>2018-05-16T11:15:06.1Z</time>
      </trkpt>
      <trkpt lat="44.60691" lon="4.24247">
        <ele>762</ele>
        <time>2018-05-16T11:15:08.1Z</time>
      </trkpt>
      <trkpt lat="44.60691" lon="4.24247">
        <ele>762</ele>
        <time>2018-05-16T11:15:11.1Z</time>
      </trkpt>
      <trkpt lat="44.60691" lon="4.24247">
        <ele>761</ele>
        <time>2018-05-16T11:15:13.1Z</time>
      </trkpt>
      <trkpt lat="44.60691" lon="4.24247">
        <ele>761</ele>
        <time>2018-05-16T11:15:27.1Z</time>
      </trkpt>
      <trkpt lat="44.60692" lon="4.24247">
        <ele>761</ele>
        <time>2018-05-16T11:15:30.1Z</time>
      </trkpt>
      <trkpt lat="44.60692" lon="4.24247">
        <ele>761</ele>
        <time>2018-05-16T11:15:32.1Z</time>
      </trkpt>
      <trkpt lat="44.60694" lon="4.24249">
        <ele>761</ele>
        <time>2018-05-16T11:15:34.1Z</time>
      </trkpt>
      <trkpt lat="44.60695" lon="4.24251">
        <ele>762</ele>
        <time>2018-05-16T11:15:37.1Z</time>
      </trkpt>
      <trkpt lat="44.60696" lon="4.24253">
        <ele>762</ele>
        <time>2018-05-16T11:15:39.1Z</time>
      </trkpt>
      <trkpt lat="44.60696" lon="4.24256">
        <ele>764</ele>
        <time>2018-05-16T11:15:41.1Z</time>
      </trkpt>
      <trkpt lat="44.60696" lon="4.24258">
        <ele>764</ele>
        <time>2018-05-16T11:15:44.1Z</time>
      </trkpt>
      <trkpt lat="44.60694" lon="4.24261">
        <ele>764</ele>
        <time>2018-05-16T11:15:47.1Z</time>
      </trkpt>
      <trkpt lat="44.60693" lon="4.24262">
        <ele>764</ele>
        <time>2018-05-16T11:15:49.1Z</time>
      </trkpt>
      <trkpt lat="44.60692" lon="4.24264">
        <ele>764</ele>
        <time>2018-05-16T11:15:51.1Z</time>
      </trkpt>
      <trkpt lat="44.60691" lon="4.24268">
        <ele>764</ele>
        <time>2018-05-16T11:15:54.1Z</time>
      </trkpt>
      <trkpt lat="44.6069" lon="4.24271">
        <ele>765</ele>
        <time>2018-05-16T11:15:57.1Z</time>
      </trkpt>
      <trkpt lat="44.60689" lon="4.24274">
        <ele>765</ele>
        <time>2018-05-16T11:15:59.1Z</time>
      </trkpt>
      <trkpt lat="44.60688" lon="4.24277">
        <ele>764</ele>
        <time>2018-05-16T11:16:02.1Z</time>
      </trkpt>
      <trkpt lat="44.60687" lon="4.24278">
        <ele>764</ele>
        <time>2018-05-16T11:16:04.1Z</time>
      </trkpt>
      <trkpt lat="44.60687" lon="4.24278">
        <ele>764</ele>
        <time>2018-05-16T11:16:07.1Z</time>
      </trkpt>
      <trkpt lat="44.60687" lon="4.24279">
        <ele>764</ele>
        <time>2018-05-16T11:16:09.1Z</time>
      </trkpt>
      <trkpt lat="44.60687" lon="4.24281">
        <ele>764</ele>
        <time>2018-05-16T11:16:12.1Z</time>
      </trkpt>
      <trkpt lat="44.60688" lon="4.24283">
        <ele>763</ele>
        <time>2018-05-16T11:16:14.1Z</time>
      </trkpt>
      <trkpt lat="44.60688" lon="4.24284">
        <ele>763</ele>
        <time>2018-05-16T11:16:16.1Z</time>
      </trkpt>
      <trkpt lat="44.60688" lon="4.24284">
        <ele>763</ele>
        <time>2018-05-16T11:16:19.1Z</time>
      </trkpt>
      <trkpt lat="44.60688" lon="4.24285">
        <ele>763</ele>
        <time>2018-05-16T11:16:21.1Z</time>
      </trkpt>
      <trkpt lat="44.60688" lon="4.24285">
        <ele>763</ele>
        <time>2018-05-16T11:16:23.1Z</time>
      </trkpt>
      <trkpt lat="44.60688" lon="4.24285">
        <ele>762</ele>
        <time>2018-05-16T11:16:26.1Z</time>
      </trkpt>
      <trkpt lat="44.60688" lon="4.24286">
        <ele>762</ele>
        <time>2018-05-16T11:16:28.1Z</time>
      </trkpt>
      <trkpt lat="44.60688" lon="4.24286">
        <ele>762</ele>
        <time>2018-05-16T11:16:30.1Z</time>
      </trkpt>
      <trkpt lat="44.60688" lon="4.24286">
        <ele>762</ele>
        <time>2018-05-16T11:16:34.1Z</time>
      </trkpt>
      <trkpt lat="44.60688" lon="4.24287">
        <ele>762</ele>
        <time>2018-05-16T11:16:37.1Z</time>
      </trkpt>
      <trkpt lat="44.60688" lon="4.24287">
        <ele>762</ele>
        <time>2018-05-16T11:16:39.1Z</time>
      </trkpt>
      <trkpt lat="44.60688" lon="4.24288">
        <ele>762</ele>
        <time>2018-05-16T11:16:41.1Z</time>
      </trkpt>
      <trkpt lat="44.60688" lon="4.24288">
        <ele>762</ele>
        <time>2018-05-16T11:16:43.1Z</time>
      </trkpt>
      <trkpt lat="44.60688" lon="4.24288">
        <ele>763</ele>
        <time>2018-05-16T11:16:46.1Z</time>
      </trkpt>
      <trkpt lat="44.60688" lon="4.24288">
        <ele>764</ele>
        <time>2018-05-16T11:16:49.1Z</time>
      </trkpt>
      <trkpt lat="44.60694" lon="4.24231">
        <ele>763</ele>
        <time>2018-05-16T11:16:52.1Z</time>
      </trkpt>
      <trkpt lat="44.60696" lon="4.24226">
        <ele>764</ele>
        <time>2018-05-16T11:16:55.1Z</time>
      </trkpt>
      <trkpt lat="44.60698" lon="4.2422">
        <ele>764</ele>
        <time>2018-05-16T11:16:57.1Z</time>
      </trkpt>
      <trkpt lat="44.60699" lon="4.24212">
        <ele>765</ele>
        <time>2018-05-16T11:16:59.1Z</time>
      </trkpt>
      <trkpt lat="44.60703" lon="4.24197">
        <ele>765</ele>
        <time>2018-05-16T11:17:02.1Z</time>
      </trkpt>
      <trkpt lat="44.60707" lon="4.2418">
        <ele>765</ele>
        <time>2018-05-16T11:17:05.1Z</time>
      </trkpt>
      <trkpt lat="44.60712" lon="4.24162">
        <ele>765</ele>
        <time>2018-05-16T11:17:08.1Z</time>
      </trkpt>
      <trkpt lat="44.60712" lon="4.24148">
        <ele>764</ele>
        <time>2018-05-16T11:17:10.1Z</time>
      </trkpt>
      <trkpt lat="44.60709" lon="4.24125">
        <ele>765</ele>
        <time>2018-05-16T11:17:13.1Z</time>
      </trkpt>
      <trkpt lat="44.60703" lon="4.24101">
        <ele>764</ele>
        <time>2018-05-16T11:17:16.1Z</time>
      </trkpt>
      <trkpt lat="44.607" lon="4.24084">
        <ele>764</ele>
        <time>2018-05-16T11:17:18.1Z</time>
      </trkpt>
      <trkpt lat="44.60697" lon="4.24056">
        <ele>763</ele>
        <time>2018-05-16T11:17:21.1Z</time>
      </trkpt>
      <trkpt lat="44.60696" lon="4.24038">
        <ele>763</ele>
        <time>2018-05-16T11:17:23.1Z</time>
      </trkpt>
      <trkpt lat="44.60697" lon="4.24008">
        <ele>761</ele>
        <time>2018-05-16T11:17:26.1Z</time>
      </trkpt>
      <trkpt lat="44.607" lon="4.23978">
        <ele>761</ele>
        <time>2018-05-16T11:17:29.1Z</time>
      </trkpt>
      <trkpt lat="44.60704" lon="4.23946">
        <ele>761</ele>
        <time>2018-05-16T11:17:32.1Z</time>
      </trkpt>
      <trkpt lat="44.60706" lon="4.23924">
        <ele>760</ele>
        <time>2018-05-16T11:17:34.1Z</time>
      </trkpt>
      <trkpt lat="44.60706" lon="4.23889">
        <ele>758</ele>
        <time>2018-05-16T11:17:37.1Z</time>
      </trkpt>
      <trkpt lat="44.60698" lon="4.23856">
        <ele>756</ele>
        <time>2018-05-16T11:17:40.1Z</time>
      </trkpt>
      <trkpt lat="44.60684" lon="4.23825">
        <ele>755</ele>
        <time>2018-05-16T11:17:43.1Z</time>
      </trkpt>
      <trkpt lat="44.60671" lon="4.23808">
        <ele>754</ele>
        <time>2018-05-16T11:17:45.1Z</time>
      </trkpt>
      <trkpt lat="44.60659" lon="4.23793">
        <ele>753</ele>
        <time>2018-05-16T11:17:47.1Z</time>
      </trkpt>
      <trkpt lat="44.60649" lon="4.23768">
        <ele>751</ele>
        <time>2018-05-16T11:17:50.1Z</time>
      </trkpt>
      <trkpt lat="44.60649" lon="4.23752">
        <ele>750</ele>
        <time>2018-05-16T11:17:52.1Z</time>
      </trkpt>
      <trkpt lat="44.60649" lon="4.23723">
        <ele>748</ele>
        <time>2018-05-16T11:17:55.1Z</time>
      </trkpt>
      <trkpt lat="44.60647" lon="4.23694">
        <ele>748</ele>
        <time>2018-05-16T11:17:58.1Z</time>
      </trkpt>
      <trkpt lat="44.60639" lon="4.23662">
        <ele>745</ele>
        <time>2018-05-16T11:18:01.1Z</time>
      </trkpt>
      <trkpt lat="44.60631" lon="4.23643">
        <ele>743</ele>
        <time>2018-05-16T11:18:03.1Z</time>
      </trkpt>
      <trkpt lat="44.60615" lon="4.23623">
        <ele>740</ele>
        <time>2018-05-16T11:18:06.1Z</time>
      </trkpt>
      <trkpt lat="44.60604" lon="4.23607">
        <ele>739</ele>
        <time>2018-05-16T11:18:09.1Z</time>
      </trkpt>
      <trkpt lat="44.606" lon="4.2358">
        <ele>737</ele>
        <time>2018-05-16T11:18:12.1Z</time>
      </trkpt>
      <trkpt lat="44.60603" lon="4.23552">
        <ele>735</ele>
        <time>2018-05-16T11:18:15.1Z</time>
      </trkpt>
      <trkpt lat="44.60608" lon="4.23534">
        <ele>733</ele>
        <time>2018-05-16T11:18:17.1Z</time>
      </trkpt>
      <trkpt lat="44.60615" lon="4.23516">
        <ele>731</ele>
        <time>2018-05-16T11:18:19.1Z</time>
      </trkpt>
      <trkpt lat="44.60622" lon="4.2349">
        <ele>730</ele>
        <time>2018-05-16T11:18:22.1Z</time>
      </trkpt>
      <trkpt lat="44.60633" lon="4.23468">
        <ele>729</ele>
        <time>2018-05-16T11:18:25.1Z</time>
      </trkpt>
      <trkpt lat="44.6065" lon="4.23472">
        <ele>727</ele>
        <time>2018-05-16T11:18:28.1Z</time>
      </trkpt>
      <trkpt lat="44.6065" lon="4.23484">
        <ele>727</ele>
        <time>2018-05-16T11:18:30.1Z</time>
      </trkpt>
      <trkpt lat="44.60643" lon="4.23492">
        <ele>726</ele>
        <time>2018-05-16T11:18:32.1Z</time>
      </trkpt>
      <trkpt lat="44.60638" lon="4.23501">
        <ele>725</ele>
        <time>2018-05-16T11:18:34.1Z</time>
      </trkpt>
      <trkpt lat="44.60634" lon="4.23511">
        <ele>724</ele>
        <time>2018-05-16T11:18:36.1Z</time>
      </trkpt>
      <trkpt lat="44.6063" lon="4.23525">
        <ele>723</ele>
        <time>2018-05-16T11:18:38.1Z</time>
      </trkpt>
      <trkpt lat="44.60621" lon="4.23546">
        <ele>722</ele>
        <time>2018-05-16T11:18:41.1Z</time>
      </trkpt>
      <trkpt lat="44.60623" lon="4.23568">
        <ele>721</ele>
        <time>2018-05-16T11:18:44.1Z</time>
      </trkpt>
      <trkpt lat="44.6064" lon="4.23582">
        <ele>721</ele>
        <time>2018-05-16T11:18:47.1Z</time>
      </trkpt>
      <trkpt lat="44.60656" lon="4.23603">
        <ele>721</ele>
        <time>2018-05-16T11:18:50.1Z</time>
      </trkpt>
      <trkpt lat="44.6067" lon="4.23625">
        <ele>721</ele>
        <time>2018-05-16T11:18:53.1Z</time>
      </trkpt>
      <trkpt lat="44.60677" lon="4.23638">
        <ele>719</ele>
        <time>2018-05-16T11:18:55.1Z</time>
      </trkpt>
      <trkpt lat="44.60682" lon="4.23654">
        <ele>718</ele>
        <time>2018-05-16T11:18:57.1Z</time>
      </trkpt>
      <trkpt lat="44.60683" lon="4.23673">
        <ele>717</ele>
        <time>2018-05-16T11:18:59.1Z</time>
      </trkpt>
      <trkpt lat="44.60684" lon="4.23702">
        <ele>716</ele>
        <time>2018-05-16T11:19:02.1Z</time>
      </trkpt>
      <trkpt lat="44.60689" lon="4.23724">
        <ele>715</ele>
        <time>2018-05-16T11:19:05.1Z</time>
      </trkpt>
      <trkpt lat="44.60703" lon="4.23736">
        <ele>714</ele>
        <time>2018-05-16T11:19:08.1Z</time>
      </trkpt>
      <trkpt lat="44.60717" lon="4.23736">
        <ele>712</ele>
        <time>2018-05-16T11:19:10.1Z</time>
      </trkpt>
      <trkpt lat="44.60739" lon="4.23741">
        <ele>711</ele>
        <time>2018-05-16T11:19:13.1Z</time>
      </trkpt>
      <trkpt lat="44.60755" lon="4.23751">
        <ele>710</ele>
        <time>2018-05-16T11:19:15.1Z</time>
      </trkpt>
      <trkpt lat="44.60774" lon="4.23772">
        <ele>709</ele>
        <time>2018-05-16T11:19:18.1Z</time>
      </trkpt>
      <trkpt lat="44.60782" lon="4.23786">
        <ele>709</ele>
        <time>2018-05-16T11:19:20.1Z</time>
      </trkpt>
      <trkpt lat="44.60794" lon="4.23814">
        <ele>708</ele>
        <time>2018-05-16T11:19:23.1Z</time>
      </trkpt>
      <trkpt lat="44.608" lon="4.23845">
        <ele>705</ele>
        <time>2018-05-16T11:19:26.1Z</time>
      </trkpt>
      <trkpt lat="44.60805" lon="4.23873">
        <ele>704</ele>
        <time>2018-05-16T11:19:29.1Z</time>
      </trkpt>
      <trkpt lat="44.60806" lon="4.23893">
        <ele>703</ele>
        <time>2018-05-16T11:19:31.1Z</time>
      </trkpt>
      <trkpt lat="44.60806" lon="4.23914">
        <ele>702</ele>
        <time>2018-05-16T11:19:33.1Z</time>
      </trkpt>
      <trkpt lat="44.60806" lon="4.23936">
        <ele>701</ele>
        <time>2018-05-16T11:19:35.1Z</time>
      </trkpt>
      <trkpt lat="44.60805" lon="4.23959">
        <ele>700</ele>
        <time>2018-05-16T11:19:37.1Z</time>
      </trkpt>
      <trkpt lat="44.60814" lon="4.23992">
        <ele>698</ele>
        <time>2018-05-16T11:19:40.1Z</time>
      </trkpt>
      <trkpt lat="44.60825" lon="4.24007">
        <ele>697</ele>
        <time>2018-05-16T11:19:42.1Z</time>
      </trkpt>
      <trkpt lat="44.60846" lon="4.24015">
        <ele>696</ele>
        <time>2018-05-16T11:19:45.1Z</time>
      </trkpt>
      <trkpt lat="44.60862" lon="4.24009">
        <ele>695</ele>
        <time>2018-05-16T11:19:48.1Z</time>
      </trkpt>
      <trkpt lat="44.60879" lon="4.24003">
        <ele>694</ele>
        <time>2018-05-16T11:19:51.1Z</time>
      </trkpt>
      <trkpt lat="44.60893" lon="4.23991">
        <ele>694</ele>
        <time>2018-05-16T11:19:53.1Z</time>
      </trkpt>
      <trkpt lat="44.60917" lon="4.23976">
        <ele>692</ele>
        <time>2018-05-16T11:19:56.1Z</time>
      </trkpt>
      <trkpt lat="44.60942" lon="4.23961">
        <ele>691</ele>
        <time>2018-05-16T11:19:59.1Z</time>
      </trkpt>
      <trkpt lat="44.60959" lon="4.23951">
        <ele>690</ele>
        <time>2018-05-16T11:20:01.1Z</time>
      </trkpt>
      <trkpt lat="44.60976" lon="4.23942">
        <ele>690</ele>
        <time>2018-05-16T11:20:03.1Z</time>
      </trkpt>
      <trkpt lat="44.60993" lon="4.23935">
        <ele>689</ele>
        <time>2018-05-16T11:20:05.1Z</time>
      </trkpt>
      <trkpt lat="44.61017" lon="4.23938">
        <ele>686</ele>
        <time>2018-05-16T11:20:08.1Z</time>
      </trkpt>
      <trkpt lat="44.61032" lon="4.23947">
        <ele>685</ele>
        <time>2018-05-16T11:20:10.1Z</time>
      </trkpt>
      <trkpt lat="44.61052" lon="4.23958">
        <ele>681</ele>
        <time>2018-05-16T11:20:13.1Z</time>
      </trkpt>
      <trkpt lat="44.61066" lon="4.23956">
        <ele>679</ele>
        <time>2018-05-16T11:20:15.1Z</time>
      </trkpt>
      <trkpt lat="44.61077" lon="4.23943">
        <ele>678</ele>
        <time>2018-05-16T11:20:17.1Z</time>
      </trkpt>
      <trkpt lat="44.61083" lon="4.23926">
        <ele>676</ele>
        <time>2018-05-16T11:20:19.1Z</time>
      </trkpt>
      <trkpt lat="44.61096" lon="4.23903">
        <ele>675</ele>
        <time>2018-05-16T11:20:22.1Z</time>
      </trkpt>
      <trkpt lat="44.61117" lon="4.23888">
        <ele>675</ele>
        <time>2018-05-16T11:20:25.1Z</time>
      </trkpt>
      <trkpt lat="44.6113" lon="4.23881">
        <ele>674</ele>
        <time>2018-05-16T11:20:27.1Z</time>
      </trkpt>
      <trkpt lat="44.61141" lon="4.23876">
        <ele>674</ele>
        <time>2018-05-16T11:20:29.1Z</time>
      </trkpt>
      <trkpt lat="44.61156" lon="4.23879">
        <ele>672</ele>
        <time>2018-05-16T11:20:32.1Z</time>
      </trkpt>
      <trkpt lat="44.61167" lon="4.23896">
        <ele>671</ele>
        <time>2018-05-16T11:20:35.1Z</time>
      </trkpt>
      <trkpt lat="44.61184" lon="4.23907">
        <ele>669</ele>
        <time>2018-05-16T11:20:38.1Z</time>
      </trkpt>
      <trkpt lat="44.61197" lon="4.23904">
        <ele>668</ele>
        <time>2018-05-16T11:20:40.1Z</time>
      </trkpt>
      <trkpt lat="44.6121" lon="4.23896">
        <ele>666</ele>
        <time>2018-05-16T11:20:42.1Z</time>
      </trkpt>
      <trkpt lat="44.61232" lon="4.23885">
        <ele>665</ele>
        <time>2018-05-16T11:20:45.1Z</time>
      </trkpt>
      <trkpt lat="44.61246" lon="4.23877">
        <ele>664</ele>
        <time>2018-05-16T11:20:47.1Z</time>
      </trkpt>
      <trkpt lat="44.61262" lon="4.2387">
        <ele>664</ele>
        <time>2018-05-16T11:20:49.1Z</time>
      </trkpt>
      <trkpt lat="44.61275" lon="4.23863">
        <ele>662</ele>
        <time>2018-05-16T11:20:51.1Z</time>
      </trkpt>
      <trkpt lat="44.61295" lon="4.23856">
        <ele>661</ele>
        <time>2018-05-16T11:20:54.1Z</time>
      </trkpt>
      <trkpt lat="44.61314" lon="4.23856">
        <ele>659</ele>
        <time>2018-05-16T11:20:57.1Z</time>
      </trkpt>
      <trkpt lat="44.61324" lon="4.23863">
        <ele>658</ele>
        <time>2018-05-16T11:20:59.1Z</time>
      </trkpt>
      <trkpt lat="44.61334" lon="4.23882">
        <ele>656</ele>
        <time>2018-05-16T11:21:02.1Z</time>
      </trkpt>
      <trkpt lat="44.61344" lon="4.23907">
        <ele>653</ele>
        <time>2018-05-16T11:21:05.1Z</time>
      </trkpt>
      <trkpt lat="44.61357" lon="4.23929">
        <ele>651</ele>
        <time>2018-05-16T11:21:08.1Z</time>
      </trkpt>
      <trkpt lat="44.61368" lon="4.23948">
        <ele>650</ele>
        <time>2018-05-16T11:21:11.1Z</time>
      </trkpt>
      <trkpt lat="44.61376" lon="4.2396">
        <ele>649</ele>
        <time>2018-05-16T11:21:13.1Z</time>
      </trkpt>
      <trkpt lat="44.61384" lon="4.2398">
        <ele>647</ele>
        <time>2018-05-16T11:21:16.1Z</time>
      </trkpt>
      <trkpt lat="44.61387" lon="4.23996">
        <ele>646</ele>
        <time>2018-05-16T11:21:18.1Z</time>
      </trkpt>
      <trkpt lat="44.61389" lon="4.24015">
        <ele>644</ele>
        <time>2018-05-16T11:21:20.1Z</time>
      </trkpt>
      <trkpt lat="44.61395" lon="4.24045">
        <ele>644</ele>
        <time>2018-05-16T11:21:23.1Z</time>
      </trkpt>
      <trkpt lat="44.61396" lon="4.24066">
        <ele>644</ele>
        <time>2018-05-16T11:21:25.1Z</time>
      </trkpt>
      <trkpt lat="44.61396" lon="4.24094">
        <ele>643</ele>
        <time>2018-05-16T11:21:28.1Z</time>
      </trkpt>
      <trkpt lat="44.61387" lon="4.24124">
        <ele>643</ele>
        <time>2018-05-16T11:21:31.1Z</time>
      </trkpt>
      <trkpt lat="44.61364" lon="4.24146">
        <ele>642</ele>
        <time>2018-05-16T11:21:34.1Z</time>
      </trkpt>
      <trkpt lat="44.61343" lon="4.24175">
        <ele>642</ele>
        <time>2018-05-16T11:21:37.1Z</time>
      </trkpt>
      <trkpt lat="44.61329" lon="4.24192">
        <ele>641</ele>
        <time>2018-05-16T11:21:39.1Z</time>
      </trkpt>
      <trkpt lat="44.61319" lon="4.24228">
        <ele>640</ele>
        <time>2018-05-16T11:21:42.1Z</time>
      </trkpt>
      <trkpt lat="44.6131" lon="4.24265">
        <ele>639</ele>
        <time>2018-05-16T11:21:45.1Z</time>
      </trkpt>
      <trkpt lat="44.61304" lon="4.24285">
        <ele>637</ele>
        <time>2018-05-16T11:21:47.1Z</time>
      </trkpt>
      <trkpt lat="44.6131" lon="4.24311">
        <ele>635</ele>
        <time>2018-05-16T11:21:50.1Z</time>
      </trkpt>
      <trkpt lat="44.61329" lon="4.24319">
        <ele>632</ele>
        <time>2018-05-16T11:21:53.1Z</time>
      </trkpt>
      <trkpt lat="44.61351" lon="4.24313">
        <ele>630</ele>
        <time>2018-05-16T11:21:56.1Z</time>
      </trkpt>
      <trkpt lat="44.61367" lon="4.24312">
        <ele>629</ele>
        <time>2018-05-16T11:21:58.1Z</time>
      </trkpt>
      <trkpt lat="44.61383" lon="4.2432">
        <ele>627</ele>
        <time>2018-05-16T11:22:00.1Z</time>
      </trkpt>
      <trkpt lat="44.61394" lon="4.24336">
        <ele>626</ele>
        <time>2018-05-16T11:22:02.1Z</time>
      </trkpt>
      <trkpt lat="44.61397" lon="4.24358">
        <ele>625</ele>
        <time>2018-05-16T11:22:04.1Z</time>
      </trkpt>
      <trkpt lat="44.61395" lon="4.2439">
        <ele>622</ele>
        <time>2018-05-16T11:22:07.1Z</time>
      </trkpt>
      <trkpt lat="44.61399" lon="4.24407">
        <ele>621</ele>
        <time>2018-05-16T11:22:09.1Z</time>
      </trkpt>
      <trkpt lat="44.61417" lon="4.24412">
        <ele>620</ele>
        <time>2018-05-16T11:22:12.1Z</time>
      </trkpt>
      <trkpt lat="44.6143" lon="4.24406">
        <ele>619</ele>
        <time>2018-05-16T11:22:14.1Z</time>
      </trkpt>
      <trkpt lat="44.61454" lon="4.24394">
        <ele>620</ele>
        <time>2018-05-16T11:22:17.1Z</time>
      </trkpt>
      <trkpt lat="44.61473" lon="4.24385">
        <ele>620</ele>
        <time>2018-05-16T11:22:19.1Z</time>
      </trkpt>
      <trkpt lat="44.61489" lon="4.24374">
        <ele>619</ele>
        <time>2018-05-16T11:22:21.1Z</time>
      </trkpt>
      <trkpt lat="44.61516" lon="4.24357">
        <ele>619</ele>
        <time>2018-05-16T11:22:24.1Z</time>
      </trkpt>
      <trkpt lat="44.61533" lon="4.24344">
        <ele>619</ele>
        <time>2018-05-16T11:22:26.1Z</time>
      </trkpt>
      <trkpt lat="44.61548" lon="4.24325">
        <ele>618</ele>
        <time>2018-05-16T11:22:28.1Z</time>
      </trkpt>
      <trkpt lat="44.61574" lon="4.24307">
        <ele>614</ele>
        <time>2018-05-16T11:22:31.1Z</time>
      </trkpt>
      <trkpt lat="44.61591" lon="4.243">
        <ele>612</ele>
        <time>2018-05-16T11:22:33.1Z</time>
      </trkpt>
      <trkpt lat="44.61615" lon="4.24286">
        <ele>607</ele>
        <time>2018-05-16T11:22:36.1Z</time>
      </trkpt>
      <trkpt lat="44.61629" lon="4.24272">
        <ele>606</ele>
        <time>2018-05-16T11:22:38.1Z</time>
      </trkpt>
      <trkpt lat="44.6164" lon="4.24254">
        <ele>605</ele>
        <time>2018-05-16T11:22:40.1Z</time>
      </trkpt>
      <trkpt lat="44.61651" lon="4.24223">
        <ele>604</ele>
        <time>2018-05-16T11:22:43.1Z</time>
      </trkpt>
      <trkpt lat="44.61673" lon="4.24221">
        <ele>602</ele>
        <time>2018-05-16T11:22:46.1Z</time>
      </trkpt>
      <trkpt lat="44.61679" lon="4.24248">
        <ele>599</ele>
        <time>2018-05-16T11:22:49.1Z</time>
      </trkpt>
      <trkpt lat="44.61674" lon="4.24268">
        <ele>597</ele>
        <time>2018-05-16T11:22:51.1Z</time>
      </trkpt>
      <trkpt lat="44.61665" lon="4.24287">
        <ele>596</ele>
        <time>2018-05-16T11:22:53.1Z</time>
      </trkpt>
      <trkpt lat="44.61656" lon="4.24306">
        <ele>596</ele>
        <time>2018-05-16T11:22:55.1Z</time>
      </trkpt>
      <trkpt lat="44.61658" lon="4.24336">
        <ele>594</ele>
        <time>2018-05-16T11:22:58.1Z</time>
      </trkpt>
      <trkpt lat="44.61669" lon="4.24346">
        <ele>593</ele>
        <time>2018-05-16T11:23:00.1Z</time>
      </trkpt>
      <trkpt lat="44.61691" lon="4.24346">
        <ele>591</ele>
        <time>2018-05-16T11:23:03.1Z</time>
      </trkpt>
      <trkpt lat="44.61706" lon="4.24343">
        <ele>590</ele>
        <time>2018-05-16T11:23:05.1Z</time>
      </trkpt>
      <trkpt lat="44.61723" lon="4.24338">
        <ele>589</ele>
        <time>2018-05-16T11:23:07.1Z</time>
      </trkpt>
      <trkpt lat="44.61749" lon="4.24324">
        <ele>589</ele>
        <time>2018-05-16T11:23:10.1Z</time>
      </trkpt>
      <trkpt lat="44.61765" lon="4.24314">
        <ele>588</ele>
        <time>2018-05-16T11:23:12.1Z</time>
      </trkpt>
      <trkpt lat="44.61785" lon="4.24309">
        <ele>586</ele>
        <time>2018-05-16T11:23:15.1Z</time>
      </trkpt>
      <trkpt lat="44.61793" lon="4.24325">
        <ele>584</ele>
        <time>2018-05-16T11:23:17.1Z</time>
      </trkpt>
      <trkpt lat="44.61789" lon="4.24353">
        <ele>583</ele>
        <time>2018-05-16T11:23:20.1Z</time>
      </trkpt>
      <trkpt lat="44.61786" lon="4.24373">
        <ele>582</ele>
        <time>2018-05-16T11:23:22.1Z</time>
      </trkpt>
      <trkpt lat="44.6178" lon="4.24401">
        <ele>581</ele>
        <time>2018-05-16T11:23:25.1Z</time>
      </trkpt>
      <trkpt lat="44.61787" lon="4.24418">
        <ele>579</ele>
        <time>2018-05-16T11:23:27.1Z</time>
      </trkpt>
      <trkpt lat="44.61808" lon="4.24431">
        <ele>577</ele>
        <time>2018-05-16T11:23:30.1Z</time>
      </trkpt>
      <trkpt lat="44.61831" lon="4.24425">
        <ele>577</ele>
        <time>2018-05-16T11:23:33.1Z</time>
      </trkpt>
      <trkpt lat="44.61847" lon="4.24422">
        <ele>576</ele>
        <time>2018-05-16T11:23:35.1Z</time>
      </trkpt>
      <trkpt lat="44.61863" lon="4.24417">
        <ele>575</ele>
        <time>2018-05-16T11:23:37.1Z</time>
      </trkpt>
      <trkpt lat="44.6189" lon="4.24415">
        <ele>573</ele>
        <time>2018-05-16T11:23:40.1Z</time>
      </trkpt>
      <trkpt lat="44.61915" lon="4.24418">
        <ele>572</ele>
        <time>2018-05-16T11:23:43.1Z</time>
      </trkpt>
      <trkpt lat="44.61932" lon="4.24417">
        <ele>570</ele>
        <time>2018-05-16T11:23:45.1Z</time>
      </trkpt>
      <trkpt lat="44.61956" lon="4.24401">
        <ele>568</ele>
        <time>2018-05-16T11:23:48.1Z</time>
      </trkpt>
      <trkpt lat="44.61976" lon="4.24388">
        <ele>566</ele>
        <time>2018-05-16T11:23:51.1Z</time>
      </trkpt>
      <trkpt lat="44.6199" lon="4.2439">
        <ele>565</ele>
        <time>2018-05-16T11:23:53.1Z</time>
      </trkpt>
      <trkpt lat="44.62004" lon="4.24401">
        <ele>564</ele>
        <time>2018-05-16T11:23:55.1Z</time>
      </trkpt>
      <trkpt lat="44.62029" lon="4.24409">
        <ele>563</ele>
        <time>2018-05-16T11:23:58.1Z</time>
      </trkpt>
      <trkpt lat="44.62055" lon="4.24405">
        <ele>562</ele>
        <time>2018-05-16T11:24:01.1Z</time>
      </trkpt>
      <trkpt lat="44.62073" lon="4.24402">
        <ele>560</ele>
        <time>2018-05-16T11:24:03.1Z</time>
      </trkpt>
      <trkpt lat="44.62091" lon="4.24415">
        <ele>558</ele>
        <time>2018-05-16T11:24:06.1Z</time>
      </trkpt>
      <trkpt lat="44.62092" lon="4.24433">
        <ele>557</ele>
        <time>2018-05-16T11:24:08.1Z</time>
      </trkpt>
      <trkpt lat="44.62084" lon="4.24447">
        <ele>556</ele>
        <time>2018-05-16T11:24:10.1Z</time>
      </trkpt>
      <trkpt lat="44.62075" lon="4.2446">
        <ele>554</ele>
        <time>2018-05-16T11:24:12.1Z</time>
      </trkpt>
      <trkpt lat="44.62059" lon="4.2448">
        <ele>553</ele>
        <time>2018-05-16T11:24:15.1Z</time>
      </trkpt>
      <trkpt lat="44.62048" lon="4.24497">
        <ele>551</ele>
        <time>2018-05-16T11:24:17.1Z</time>
      </trkpt>
      <trkpt lat="44.62042" lon="4.24525">
        <ele>550</ele>
        <time>2018-05-16T11:24:20.1Z</time>
      </trkpt>
      <trkpt lat="44.62056" lon="4.24547">
        <ele>551</ele>
        <time>2018-05-16T11:24:23.1Z</time>
      </trkpt>
      <trkpt lat="44.62068" lon="4.24556">
        <ele>551</ele>
        <time>2018-05-16T11:24:25.1Z</time>
      </trkpt>
      <trkpt lat="44.62082" lon="4.24565">
        <ele>550</ele>
        <time>2018-05-16T11:24:27.1Z</time>
      </trkpt>
      <trkpt lat="44.62106" lon="4.24579">
        <ele>548</ele>
        <time>2018-05-16T11:24:30.1Z</time>
      </trkpt>
      <trkpt lat="44.62122" lon="4.24592">
        <ele>547</ele>
        <time>2018-05-16T11:24:32.1Z</time>
      </trkpt>
      <trkpt lat="44.62137" lon="4.24607">
        <ele>547</ele>
        <time>2018-05-16T11:24:34.1Z</time>
      </trkpt>
      <trkpt lat="44.62151" lon="4.24623">
        <ele>547</ele>
        <time>2018-05-16T11:24:36.1Z</time>
      </trkpt>
      <trkpt lat="44.6216" lon="4.24643">
        <ele>545</ele>
        <time>2018-05-16T11:24:38.1Z</time>
      </trkpt>
      <trkpt lat="44.62166" lon="4.24668">
        <ele>543</ele>
        <time>2018-05-16T11:24:40.1Z</time>
      </trkpt>
      <trkpt lat="44.62169" lon="4.24708">
        <ele>541</ele>
        <time>2018-05-16T11:24:43.1Z</time>
      </trkpt>
      <trkpt lat="44.62166" lon="4.24735">
        <ele>539</ele>
        <time>2018-05-16T11:24:45.1Z</time>
      </trkpt>
      <trkpt lat="44.62161" lon="4.24775">
        <ele>539</ele>
        <time>2018-05-16T11:24:48.1Z</time>
      </trkpt>
      <trkpt lat="44.6216" lon="4.24817">
        <ele>540</ele>
        <time>2018-05-16T11:24:51.1Z</time>
      </trkpt>
      <trkpt lat="44.62154" lon="4.24858">
        <ele>538</ele>
        <time>2018-05-16T11:24:54.1Z</time>
      </trkpt>
      <trkpt lat="44.62135" lon="4.24885">
        <ele>535</ele>
        <time>2018-05-16T11:24:57.1Z</time>
      </trkpt>
      <trkpt lat="44.62117" lon="4.24892">
        <ele>533</ele>
        <time>2018-05-16T11:24:59.1Z</time>
      </trkpt>
      <trkpt lat="44.62088" lon="4.24896">
        <ele>533</ele>
        <time>2018-05-16T11:25:02.1Z</time>
      </trkpt>
      <trkpt lat="44.62067" lon="4.24897">
        <ele>533</ele>
        <time>2018-05-16T11:25:04.1Z</time>
      </trkpt>
      <trkpt lat="44.62048" lon="4.24899">
        <ele>532</ele>
        <time>2018-05-16T11:25:06.1Z</time>
      </trkpt>
      <trkpt lat="44.62027" lon="4.24911">
        <ele>530</ele>
        <time>2018-05-16T11:25:09.1Z</time>
      </trkpt>
      <trkpt lat="44.62022" lon="4.24931">
        <ele>528</ele>
        <time>2018-05-16T11:25:11.1Z</time>
      </trkpt>
      <trkpt lat="44.62029" lon="4.24951">
        <ele>526</ele>
        <time>2018-05-16T11:25:13.1Z</time>
      </trkpt>
      <trkpt lat="44.62035" lon="4.24969">
        <ele>525</ele>
        <time>2018-05-16T11:25:15.1Z</time>
      </trkpt>
      <trkpt lat="44.62033" lon="4.2499">
        <ele>524</ele>
        <time>2018-05-16T11:25:17.1Z</time>
      </trkpt>
      <trkpt lat="44.62037" lon="4.25019">
        <ele>524</ele>
        <time>2018-05-16T11:25:20.1Z</time>
      </trkpt>
      <trkpt lat="44.62048" lon="4.25029">
        <ele>523</ele>
        <time>2018-05-16T11:25:22.1Z</time>
      </trkpt>
      <trkpt lat="44.6206" lon="4.25035">
        <ele>523</ele>
        <time>2018-05-16T11:25:24.1Z</time>
      </trkpt>
      <trkpt lat="44.62083" lon="4.25047">
        <ele>523</ele>
        <time>2018-05-16T11:25:27.1Z</time>
      </trkpt>
      <trkpt lat="44.62106" lon="4.25063">
        <ele>521</ele>
        <time>2018-05-16T11:25:30.1Z</time>
      </trkpt>
      <trkpt lat="44.62123" lon="4.25073">
        <ele>519</ele>
        <time>2018-05-16T11:25:32.1Z</time>
      </trkpt>
      <trkpt lat="44.6214" lon="4.25083">
        <ele>519</ele>
        <time>2018-05-16T11:25:34.1Z</time>
      </trkpt>
      <trkpt lat="44.62164" lon="4.25099">
        <ele>519</ele>
        <time>2018-05-16T11:25:37.1Z</time>
      </trkpt>
      <trkpt lat="44.6218" lon="4.25109">
        <ele>519</ele>
        <time>2018-05-16T11:25:39.1Z</time>
      </trkpt>
      <trkpt lat="44.62196" lon="4.25118">
        <ele>518</ele>
        <time>2018-05-16T11:25:41.1Z</time>
      </trkpt>
      <trkpt lat="44.6222" lon="4.25133">
        <ele>517</ele>
        <time>2018-05-16T11:25:44.1Z</time>
      </trkpt>
      <trkpt lat="44.62243" lon="4.2515">
        <ele>515</ele>
        <time>2018-05-16T11:25:47.1Z</time>
      </trkpt>
      <trkpt lat="44.62259" lon="4.25163">
        <ele>512</ele>
        <time>2018-05-16T11:25:49.1Z</time>
      </trkpt>
      <trkpt lat="44.62283" lon="4.25183">
        <ele>510</ele>
        <time>2018-05-16T11:25:52.1Z</time>
      </trkpt>
      <trkpt lat="44.62299" lon="4.25197">
        <ele>509</ele>
        <time>2018-05-16T11:25:54.1Z</time>
      </trkpt>
      <trkpt lat="44.62313" lon="4.25211">
        <ele>507</ele>
        <time>2018-05-16T11:25:56.1Z</time>
      </trkpt>
      <trkpt lat="44.62323" lon="4.25227">
        <ele>506</ele>
        <time>2018-05-16T11:25:58.1Z</time>
      </trkpt>
      <trkpt lat="44.62325" lon="4.25248">
        <ele>504</ele>
        <time>2018-05-16T11:26:00.1Z</time>
      </trkpt>
      <trkpt lat="44.6232" lon="4.25269">
        <ele>502</ele>
        <time>2018-05-16T11:26:02.1Z</time>
      </trkpt>
      <trkpt lat="44.62309" lon="4.253">
        <ele>500</ele>
        <time>2018-05-16T11:26:05.1Z</time>
      </trkpt>
      <trkpt lat="44.62297" lon="4.25332">
        <ele>497</ele>
        <time>2018-05-16T11:26:08.1Z</time>
      </trkpt>
      <trkpt lat="44.62288" lon="4.25354">
        <ele>497</ele>
        <time>2018-05-16T11:26:10.1Z</time>
      </trkpt>
      <trkpt lat="44.62278" lon="4.25378">
        <ele>496</ele>
        <time>2018-05-16T11:26:12.1Z</time>
      </trkpt>
      <trkpt lat="44.62269" lon="4.25402">
        <ele>496</ele>
        <time>2018-05-16T11:26:14.1Z</time>
      </trkpt>
      <trkpt lat="44.62252" lon="4.25439">
        <ele>495</ele>
        <time>2018-05-16T11:26:17.1Z</time>
      </trkpt>
      <trkpt lat="44.62228" lon="4.25468">
        <ele>494</ele>
        <time>2018-05-16T11:26:20.1Z</time>
      </trkpt>
      <trkpt lat="44.622" lon="4.25492">
        <ele>492</ele>
        <time>2018-05-16T11:26:23.1Z</time>
      </trkpt>
      <trkpt lat="44.6218" lon="4.25504">
        <ele>490</ele>
        <time>2018-05-16T11:26:25.1Z</time>
      </trkpt>
      <trkpt lat="44.62162" lon="4.25513">
        <ele>488</ele>
        <time>2018-05-16T11:26:27.1Z</time>
      </trkpt>
      <trkpt lat="44.62143" lon="4.25533">
        <ele>486</ele>
        <time>2018-05-16T11:26:30.1Z</time>
      </trkpt>
      <trkpt lat="44.62143" lon="4.25554">
        <ele>485</ele>
        <time>2018-05-16T11:26:32.1Z</time>
      </trkpt>
      <trkpt lat="44.62152" lon="4.25568">
        <ele>485</ele>
        <time>2018-05-16T11:26:34.1Z</time>
      </trkpt>
      <trkpt lat="44.6216" lon="4.25583">
        <ele>485</ele>
        <time>2018-05-16T11:26:36.1Z</time>
      </trkpt>
      <trkpt lat="44.62167" lon="4.25604">
        <ele>483</ele>
        <time>2018-05-16T11:26:38.1Z</time>
      </trkpt>
      <trkpt lat="44.62187" lon="4.25629">
        <ele>484</ele>
        <time>2018-05-16T11:26:41.1Z</time>
      </trkpt>
      <trkpt lat="44.62214" lon="4.25635">
        <ele>482</ele>
        <time>2018-05-16T11:26:44.1Z</time>
      </trkpt>
      <trkpt lat="44.62238" lon="4.25657">
        <ele>481</ele>
        <time>2018-05-16T11:26:47.1Z</time>
      </trkpt>
      <trkpt lat="44.62264" lon="4.25673">
        <ele>480</ele>
        <time>2018-05-16T11:26:50.1Z</time>
      </trkpt>
      <trkpt lat="44.62284" lon="4.25669">
        <ele>479</ele>
        <time>2018-05-16T11:26:52.1Z</time>
      </trkpt>
      <trkpt lat="44.62305" lon="4.25663">
        <ele>478</ele>
        <time>2018-05-16T11:26:54.1Z</time>
      </trkpt>
      <trkpt lat="44.62325" lon="4.25658">
        <ele>478</ele>
        <time>2018-05-16T11:26:56.1Z</time>
      </trkpt>
      <trkpt lat="44.62345" lon="4.25653">
        <ele>477</ele>
        <time>2018-05-16T11:26:58.1Z</time>
      </trkpt>
      <trkpt lat="44.62374" lon="4.25646">
        <ele>476</ele>
        <time>2018-05-16T11:27:01.1Z</time>
      </trkpt>
      <trkpt lat="44.62402" lon="4.25639">
        <ele>474</ele>
        <time>2018-05-16T11:27:04.1Z</time>
      </trkpt>
      <trkpt lat="44.62421" lon="4.25636">
        <ele>474</ele>
        <time>2018-05-16T11:27:06.1Z</time>
      </trkpt>
      <trkpt lat="44.62452" lon="4.25637">
        <ele>472</ele>
        <time>2018-05-16T11:27:09.1Z</time>
      </trkpt>
      <trkpt lat="44.62472" lon="4.25647">
        <ele>470</ele>
        <time>2018-05-16T11:27:11.1Z</time>
      </trkpt>
      <trkpt lat="44.62487" lon="4.25665">
        <ele>469</ele>
        <time>2018-05-16T11:27:13.1Z</time>
      </trkpt>
      <trkpt lat="44.62499" lon="4.25684">
        <ele>466</ele>
        <time>2018-05-16T11:27:15.1Z</time>
      </trkpt>
      <trkpt lat="44.62505" lon="4.257">
        <ele>463</ele>
        <time>2018-05-16T11:27:17.1Z</time>
      </trkpt>
      <trkpt lat="44.62524" lon="4.25709">
        <ele>460</ele>
        <time>2018-05-16T11:27:20.1Z</time>
      </trkpt>
      <trkpt lat="44.62544" lon="4.25693">
        <ele>459</ele>
        <time>2018-05-16T11:27:23.1Z</time>
      </trkpt>
      <trkpt lat="44.62555" lon="4.25675">
        <ele>459</ele>
        <time>2018-05-16T11:27:25.1Z</time>
      </trkpt>
      <trkpt lat="44.62566" lon="4.25656">
        <ele>459</ele>
        <time>2018-05-16T11:27:27.1Z</time>
      </trkpt>
      <trkpt lat="44.6258" lon="4.25639">
        <ele>458</ele>
        <time>2018-05-16T11:27:29.1Z</time>
      </trkpt>
      <trkpt lat="44.62595" lon="4.25623">
        <ele>458</ele>
        <time>2018-05-16T11:27:31.1Z</time>
      </trkpt>
      <trkpt lat="44.62613" lon="4.25611">
        <ele>457</ele>
        <time>2018-05-16T11:27:33.1Z</time>
      </trkpt>
      <trkpt lat="44.62632" lon="4.25609">
        <ele>457</ele>
        <time>2018-05-16T11:27:35.1Z</time>
      </trkpt>
      <trkpt lat="44.6266" lon="4.2562">
        <ele>455</ele>
        <time>2018-05-16T11:27:38.1Z</time>
      </trkpt>
      <trkpt lat="44.62686" lon="4.25623">
        <ele>453</ele>
        <time>2018-05-16T11:27:41.1Z</time>
      </trkpt>
      <trkpt lat="44.62712" lon="4.2562">
        <ele>453</ele>
        <time>2018-05-16T11:27:44.1Z</time>
      </trkpt>
      <trkpt lat="44.62731" lon="4.25618">
        <ele>451</ele>
        <time>2018-05-16T11:27:46.1Z</time>
      </trkpt>
      <trkpt lat="44.62751" lon="4.25616">
        <ele>451</ele>
        <time>2018-05-16T11:27:48.1Z</time>
      </trkpt>
      <trkpt lat="44.62777" lon="4.25627">
        <ele>447</ele>
        <time>2018-05-16T11:27:51.1Z</time>
      </trkpt>
      <trkpt lat="44.62798" lon="4.25651">
        <ele>444</ele>
        <time>2018-05-16T11:27:54.1Z</time>
      </trkpt>
      <trkpt lat="44.62815" lon="4.2567">
        <ele>441</ele>
        <time>2018-05-16T11:27:57.1Z</time>
      </trkpt>
      <trkpt lat="44.62828" lon="4.25673">
        <ele>439</ele>
        <time>2018-05-16T11:27:59.1Z</time>
      </trkpt>
      <trkpt lat="44.6284" lon="4.25664">
        <ele>438</ele>
        <time>2018-05-16T11:28:01.1Z</time>
      </trkpt>
      <trkpt lat="44.62851" lon="4.25639">
        <ele>436</ele>
        <time>2018-05-16T11:28:04.1Z</time>
      </trkpt>
      <trkpt lat="44.62857" lon="4.25608">
        <ele>436</ele>
        <time>2018-05-16T11:28:07.1Z</time>
      </trkpt>
      <trkpt lat="44.62862" lon="4.25587">
        <ele>435</ele>
        <time>2018-05-16T11:28:09.1Z</time>
      </trkpt>
      <trkpt lat="44.62866" lon="4.25563">
        <ele>435</ele>
        <time>2018-05-16T11:28:11.1Z</time>
      </trkpt>
      <trkpt lat="44.62873" lon="4.2554">
        <ele>435</ele>
        <time>2018-05-16T11:28:13.1Z</time>
      </trkpt>
      <trkpt lat="44.62884" lon="4.25518">
        <ele>434</ele>
        <time>2018-05-16T11:28:15.1Z</time>
      </trkpt>
      <trkpt lat="44.62906" lon="4.25491">
        <ele>433</ele>
        <time>2018-05-16T11:28:18.1Z</time>
      </trkpt>
      <trkpt lat="44.62929" lon="4.25466">
        <ele>431</ele>
        <time>2018-05-16T11:28:21.1Z</time>
      </trkpt>
      <trkpt lat="44.62949" lon="4.25446">
        <ele>429</ele>
        <time>2018-05-16T11:28:24.1Z</time>
      </trkpt>
      <trkpt lat="44.62971" lon="4.25431">
        <ele>429</ele>
        <time>2018-05-16T11:28:27.1Z</time>
      </trkpt>
      <trkpt lat="44.62987" lon="4.25427">
        <ele>427</ele>
        <time>2018-05-16T11:28:29.1Z</time>
      </trkpt>
      <trkpt lat="44.63012" lon="4.25427">
        <ele>425</ele>
        <time>2018-05-16T11:28:32.1Z</time>
      </trkpt>
      <trkpt lat="44.63031" lon="4.25429">
        <ele>425</ele>
        <time>2018-05-16T11:28:34.1Z</time>
      </trkpt>
      <trkpt lat="44.63049" lon="4.2543">
        <ele>425</ele>
        <time>2018-05-16T11:28:36.1Z</time>
      </trkpt>
      <trkpt lat="44.63078" lon="4.25433">
        <ele>426</ele>
        <time>2018-05-16T11:28:39.1Z</time>
      </trkpt>
      <trkpt lat="44.63103" lon="4.25437">
        <ele>424</ele>
        <time>2018-05-16T11:28:42.1Z</time>
      </trkpt>
      <trkpt lat="44.63121" lon="4.25444">
        <ele>422</ele>
        <time>2018-05-16T11:28:44.1Z</time>
      </trkpt>
      <trkpt lat="44.63137" lon="4.25456">
        <ele>420</ele>
        <time>2018-05-16T11:28:46.1Z</time>
      </trkpt>
      <trkpt lat="44.63163" lon="4.25476">
        <ele>419</ele>
        <time>2018-05-16T11:28:49.1Z</time>
      </trkpt>
      <trkpt lat="44.63179" lon="4.2549">
        <ele>419</ele>
        <time>2018-05-16T11:28:51.1Z</time>
      </trkpt>
      <trkpt lat="44.63201" lon="4.25509">
        <ele>417</ele>
        <time>2018-05-16T11:28:54.1Z</time>
      </trkpt>
      <trkpt lat="44.63222" lon="4.25529">
        <ele>414</ele>
        <time>2018-05-16T11:28:57.1Z</time>
      </trkpt>
      <trkpt lat="44.63237" lon="4.25557">
        <ele>412</ele>
        <time>2018-05-16T11:29:00.1Z</time>
      </trkpt>
      <trkpt lat="44.63243" lon="4.25577">
        <ele>410</ele>
        <time>2018-05-16T11:29:02.1Z</time>
      </trkpt>
      <trkpt lat="44.63248" lon="4.25597">
        <ele>410</ele>
        <time>2018-05-16T11:29:04.1Z</time>
      </trkpt>
      <trkpt lat="44.63259" lon="4.25613">
        <ele>409</ele>
        <time>2018-05-16T11:29:06.1Z</time>
      </trkpt>
      <trkpt lat="44.63274" lon="4.25619">
        <ele>408</ele>
        <time>2018-05-16T11:29:08.1Z</time>
      </trkpt>
      <trkpt lat="44.63297" lon="4.25614">
        <ele>408</ele>
        <time>2018-05-16T11:29:11.1Z</time>
      </trkpt>
      <trkpt lat="44.63319" lon="4.25604">
        <ele>408</ele>
        <time>2018-05-16T11:29:14.1Z</time>
      </trkpt>
      <trkpt lat="44.63334" lon="4.25599">
        <ele>407</ele>
        <time>2018-05-16T11:29:16.1Z</time>
      </trkpt>
      <trkpt lat="44.63349" lon="4.25596">
        <ele>406</ele>
        <time>2018-05-16T11:29:18.1Z</time>
      </trkpt>
      <trkpt lat="44.63365" lon="4.25594">
        <ele>405</ele>
        <time>2018-05-16T11:29:20.1Z</time>
      </trkpt>
      <trkpt lat="44.63387" lon="4.25591">
        <ele>405</ele>
        <time>2018-05-16T11:29:23.1Z</time>
      </trkpt>
      <trkpt lat="44.634" lon="4.25588">
        <ele>404</ele>
        <time>2018-05-16T11:29:25.1Z</time>
      </trkpt>
      <trkpt lat="44.63414" lon="4.25586">
        <ele>403</ele>
        <time>2018-05-16T11:29:27.1Z</time>
      </trkpt>
      <trkpt lat="44.63431" lon="4.25583">
        <ele>402</ele>
        <time>2018-05-16T11:29:30.1Z</time>
      </trkpt>
      <trkpt lat="44.63447" lon="4.25581">
        <ele>400</ele>
        <time>2018-05-16T11:29:33.1Z</time>
      </trkpt>
      <trkpt lat="44.63455" lon="4.25579">
        <ele>398</ele>
        <time>2018-05-16T11:29:35.1Z</time>
      </trkpt>
      <trkpt lat="44.63467" lon="4.25575">
        <ele>397</ele>
        <time>2018-05-16T11:29:38.1Z</time>
      </trkpt>
      <trkpt lat="44.63473" lon="4.25574">
        <ele>397</ele>
        <time>2018-05-16T11:29:40.1Z</time>
      </trkpt>
      <trkpt lat="44.63481" lon="4.25575">
        <ele>396</ele>
        <time>2018-05-16T11:29:43.1Z</time>
      </trkpt>
      <trkpt lat="44.63485" lon="4.25575">
        <ele>397</ele>
        <time>2018-05-16T11:29:45.1Z</time>
      </trkpt>
      <trkpt lat="44.63489" lon="4.25575">
        <ele>397</ele>
        <time>2018-05-16T11:29:47.1Z</time>
      </trkpt>
      <trkpt lat="44.63493" lon="4.25575">
        <ele>397</ele>
        <time>2018-05-16T11:29:49.1Z</time>
      </trkpt>
      <trkpt lat="44.63499" lon="4.25573">
        <ele>397</ele>
        <time>2018-05-16T11:29:52.1Z</time>
      </trkpt>
      <trkpt lat="44.63505" lon="4.2557">
        <ele>398</ele>
        <time>2018-05-16T11:29:55.1Z</time>
      </trkpt>
      <trkpt lat="44.63512" lon="4.25567">
        <ele>399</ele>
        <time>2018-05-16T11:29:58.1Z</time>
      </trkpt>
      <trkpt lat="44.63519" lon="4.25565">
        <ele>400</ele>
        <time>2018-05-16T11:30:01.1Z</time>
      </trkpt>
      <trkpt lat="44.63524" lon="4.25563">
        <ele>400</ele>
        <time>2018-05-16T11:30:03.1Z</time>
      </trkpt>
      <trkpt lat="44.63533" lon="4.25558">
        <ele>400</ele>
        <time>2018-05-16T11:30:06.1Z</time>
      </trkpt>
      <trkpt lat="44.63543" lon="4.2555">
        <ele>400</ele>
        <time>2018-05-16T11:30:09.1Z</time>
      </trkpt>
      <trkpt lat="44.63554" lon="4.25541">
        <ele>400</ele>
        <time>2018-05-16T11:30:12.1Z</time>
      </trkpt>
      <trkpt lat="44.63565" lon="4.25548">
        <ele>402</ele>
        <time>2018-05-16T11:30:15.1Z</time>
      </trkpt>
      <trkpt lat="44.63572" lon="4.25553">
        <ele>403</ele>
        <time>2018-05-16T11:30:18.1Z</time>
      </trkpt>
      <trkpt lat="44.63576" lon="4.25551">
        <ele>403</ele>
        <time>2018-05-16T11:30:20.1Z</time>
      </trkpt>
      <trkpt lat="44.63579" lon="4.25551">
        <ele>403</ele>
        <time>2018-05-16T11:30:22.1Z</time>
      </trkpt>
      <trkpt lat="44.63583" lon="4.25552">
        <ele>404</ele>
        <time>2018-05-16T11:30:25.1Z</time>
      </trkpt>
      <trkpt lat="44.63586" lon="4.25554">
        <ele>404</ele>
        <time>2018-05-16T11:30:27.1Z</time>
      </trkpt>
      <trkpt lat="44.63589" lon="4.25555">
        <ele>404</ele>
        <time>2018-05-16T11:30:29.1Z</time>
      </trkpt>
      <trkpt lat="44.63592" lon="4.25557">
        <ele>404</ele>
        <time>2018-05-16T11:30:32.1Z</time>
      </trkpt>
      <trkpt lat="44.63594" lon="4.25561">
        <ele>404</ele>
        <time>2018-05-16T11:30:35.1Z</time>
      </trkpt>
      <trkpt lat="44.63594" lon="4.25562">
        <ele>403</ele>
        <time>2018-05-16T11:30:37.1Z</time>
      </trkpt>
      <trkpt lat="44.63593" lon="4.25562">
        <ele>403</ele>
        <time>2018-05-16T11:30:39.1Z</time>
      </trkpt>
      <trkpt lat="44.63593" lon="4.25562">
        <ele>403</ele>
        <time>2018-05-16T11:30:42.1Z</time>
      </trkpt>
      <trkpt lat="44.63593" lon="4.25562">
        <ele>403</ele>
        <time>2018-05-16T11:30:44.1Z</time>
      </trkpt>
      <trkpt lat="44.63593" lon="4.25562">
        <ele>403</ele>
        <time>2018-05-16T11:30:46.1Z</time>
      </trkpt>
      <trkpt lat="44.63594" lon="4.25561">
        <ele>403</ele>
        <time>2018-05-16T11:30:48.1Z</time>
      </trkpt>
      <trkpt lat="44.63594" lon="4.25561">
        <ele>403</ele>
        <time>2018-05-16T11:30:51.1Z</time>
      </trkpt>
      <trkpt lat="44.63594" lon="4.25561">
        <ele>404</ele>
        <time>2018-05-16T11:30:53.1Z</time>
      </trkpt>
      <trkpt lat="44.63594" lon="4.25561">
        <ele>403</ele>
        <time>2018-05-16T11:30:55.1Z</time>
      </trkpt>
      <trkpt lat="44.63594" lon="4.25561">
        <ele>403</ele>
        <time>2018-05-16T11:30:58.1Z</time>
      </trkpt>
      <trkpt lat="44.63593" lon="4.2556">
        <ele>403</ele>
        <time>2018-05-16T11:31:00.1Z</time>
      </trkpt>
      <trkpt lat="44.63592" lon="4.2556">
        <ele>403</ele>
        <time>2018-05-16T11:31:03.1Z</time>
      </trkpt>
      <trkpt lat="44.63591" lon="4.25559">
        <ele>403</ele>
        <time>2018-05-16T11:31:05.1Z</time>
      </trkpt>
      <trkpt lat="44.63591" lon="4.25559">
        <ele>404</ele>
        <time>2018-05-16T11:31:08.1Z</time>
      </trkpt>
      <trkpt lat="44.63591" lon="4.25559">
        <ele>404</ele>
        <time>2018-05-16T11:31:11.1Z</time>
      </trkpt>
      <trkpt lat="44.63591" lon="4.25559">
        <ele>405</ele>
        <time>2018-05-16T11:31:14.1Z</time>
      </trkpt>
      <trkpt lat="44.63592" lon="4.25559">
        <ele>405</ele>
        <time>2018-05-16T11:31:16.1Z</time>
      </trkpt>
      <trkpt lat="44.63592" lon="4.25559">
        <ele>405</ele>
        <time>2018-05-16T11:31:18.1Z</time>
      </trkpt>
      <trkpt lat="44.63592" lon="4.25559">
        <ele>405</ele>
        <time>2018-05-16T11:31:23.1Z</time>
      </trkpt>
      <trkpt lat="44.63592" lon="4.25559">
        <ele>405</ele>
        <time>2018-05-16T11:31:26.1Z</time>
      </trkpt>
      <trkpt lat="44.63593" lon="4.25558">
        <ele>406</ele>
        <time>2018-05-16T11:31:29.1Z</time>
      </trkpt>
      <trkpt lat="44.63593" lon="4.25558">
        <ele>406</ele>
        <time>2018-05-16T11:31:31.1Z</time>
      </trkpt>
      <trkpt lat="44.63594" lon="4.25557">
        <ele>406</ele>
        <time>2018-05-16T11:31:34.1Z</time>
      </trkpt>
      <trkpt lat="44.63593" lon="4.25556">
        <ele>406</ele>
        <time>2018-05-16T11:31:36.1Z</time>
      </trkpt>
      <trkpt lat="44.63593" lon="4.25554">
        <ele>406</ele>
        <time>2018-05-16T11:31:39.1Z</time>
      </trkpt>
      <trkpt lat="44.63591" lon="4.25553">
        <ele>405</ele>
        <time>2018-05-16T11:31:42.1Z</time>
      </trkpt>
      <trkpt lat="44.63591" lon="4.25553">
        <ele>405</ele>
        <time>2018-05-16T11:31:44.1Z</time>
      </trkpt>
      <trkpt lat="44.63591" lon="4.25552">
        <ele>405</ele>
        <time>2018-05-16T11:31:48.1Z</time>
      </trkpt>
      <trkpt lat="44.63591" lon="4.25552">
        <ele>405</ele>
        <time>2018-05-16T11:31:51.1Z</time>
      </trkpt>
      <trkpt lat="44.63665" lon="4.25529">
        <ele>409</ele>
        <time>2018-05-16T11:31:55.1Z</time>
      </trkpt>
      <trkpt lat="44.63664" lon="4.2553">
        <ele>409</ele>
        <time>2018-05-16T11:31:58.1Z</time>
      </trkpt>
      <trkpt lat="44.63663" lon="4.25532">
        <ele>409</ele>
        <time>2018-05-16T11:32:01.1Z</time>
      </trkpt>
      <trkpt lat="44.63663" lon="4.25533">
        <ele>410</ele>
        <time>2018-05-16T11:32:04.1Z</time>
      </trkpt>
      <trkpt lat="44.63662" lon="4.25533">
        <ele>409</ele>
        <time>2018-05-16T11:32:06.1Z</time>
      </trkpt>
      <trkpt lat="44.63662" lon="4.25534">
        <ele>409</ele>
        <time>2018-05-16T11:32:09.1Z</time>
      </trkpt>
      <trkpt lat="44.63661" lon="4.25535">
        <ele>409</ele>
        <time>2018-05-16T11:32:11.1Z</time>
      </trkpt>
      <trkpt lat="44.6366" lon="4.25536">
        <ele>409</ele>
        <time>2018-05-16T11:32:13.1Z</time>
      </trkpt>
      <trkpt lat="44.6366" lon="4.25536">
        <ele>409</ele>
        <time>2018-05-16T11:32:15.1Z</time>
      </trkpt>
      <trkpt lat="44.63659" lon="4.25537">
        <ele>409</ele>
        <time>2018-05-16T11:32:17.1Z</time>
      </trkpt>
      <trkpt lat="44.63658" lon="4.2554">
        <ele>410</ele>
        <time>2018-05-16T11:32:20.1Z</time>
      </trkpt>
      <trkpt lat="44.63656" lon="4.25543">
        <ele>411</ele>
        <time>2018-05-16T11:32:22.1Z</time>
      </trkpt>
      <trkpt lat="44.63655" lon="4.25546">
        <ele>411</ele>
        <time>2018-05-16T11:32:24.1Z</time>
      </trkpt>
      <trkpt lat="44.63655" lon="4.25551">
        <ele>411</ele>
        <time>2018-05-16T11:32:27.1Z</time>
      </trkpt>
      <trkpt lat="44.63655" lon="4.25555">
        <ele>411</ele>
        <time>2018-05-16T11:32:29.1Z</time>
      </trkpt>
      <trkpt lat="44.63657" lon="4.25557">
        <ele>409</ele>
        <time>2018-05-16T11:32:31.1Z</time>
      </trkpt>
      <trkpt lat="44.63658" lon="4.25563">
        <ele>408</ele>
        <time>2018-05-16T11:32:34.1Z</time>
      </trkpt>
      <trkpt lat="44.63657" lon="4.25566">
        <ele>408</ele>
        <time>2018-05-16T11:32:36.1Z</time>
      </trkpt>
      <trkpt lat="44.63656" lon="4.2557">
        <ele>408</ele>
        <time>2018-05-16T11:32:39.1Z</time>
      </trkpt>
      <trkpt lat="44.63655" lon="4.25574">
        <ele>409</ele>
        <time>2018-05-16T11:32:41.1Z</time>
      </trkpt>
      <trkpt lat="44.63654" lon="4.25582">
        <ele>409</ele>
        <time>2018-05-16T11:32:44.1Z</time>
      </trkpt>
      <trkpt lat="44.63654" lon="4.25587">
        <ele>409</ele>
        <time>2018-05-16T11:32:46.1Z</time>
      </trkpt>
      <trkpt lat="44.63654" lon="4.25593">
        <ele>410</ele>
        <time>2018-05-16T11:32:49.1Z</time>
      </trkpt>
      <trkpt lat="44.63654" lon="4.25598">
        <ele>411</ele>
        <time>2018-05-16T11:32:51.1Z</time>
      </trkpt>
      <trkpt lat="44.63658" lon="4.25602">
        <ele>411</ele>
        <time>2018-05-16T11:32:53.1Z</time>
      </trkpt>
      <trkpt lat="44.63664" lon="4.25606">
        <ele>411</ele>
        <time>2018-05-16T11:32:56.1Z</time>
      </trkpt>
      <trkpt lat="44.63667" lon="4.2561">
        <ele>411</ele>
        <time>2018-05-16T11:32:58.1Z</time>
      </trkpt>
      <trkpt lat="44.63672" lon="4.25617">
        <ele>412</ele>
        <time>2018-05-16T11:33:01.1Z</time>
      </trkpt>
      <trkpt lat="44.63679" lon="4.25626">
        <ele>413</ele>
        <time>2018-05-16T11:33:05.1Z</time>
      </trkpt>
      <trkpt lat="44.63684" lon="4.25632">
        <ele>412</ele>
        <time>2018-05-16T11:33:08.1Z</time>
      </trkpt>
      <trkpt lat="44.63689" lon="4.25639">
        <ele>413</ele>
        <time>2018-05-16T11:33:10.1Z</time>
      </trkpt>
      <trkpt lat="44.63691" lon="4.25644">
        <ele>412</ele>
        <time>2018-05-16T11:33:13.1Z</time>
      </trkpt>
      <trkpt lat="44.63695" lon="4.25649">
        <ele>412</ele>
        <time>2018-05-16T11:33:15.1Z</time>
      </trkpt>
      <trkpt lat="44.63699" lon="4.25655">
        <ele>412</ele>
        <time>2018-05-16T11:33:17.1Z</time>
      </trkpt>
      <trkpt lat="44.63704" lon="4.25662">
        <ele>412</ele>
        <time>2018-05-16T11:33:19.1Z</time>
      </trkpt>
      <trkpt lat="44.63712" lon="4.25673">
        <ele>412</ele>
        <time>2018-05-16T11:33:22.1Z</time>
      </trkpt>
      <trkpt lat="44.63719" lon="4.25683">
        <ele>412</ele>
        <time>2018-05-16T11:33:25.1Z</time>
      </trkpt>
      <trkpt lat="44.63726" lon="4.25695">
        <ele>412</ele>
        <time>2018-05-16T11:33:28.1Z</time>
      </trkpt>
      <trkpt lat="44.63731" lon="4.25701">
        <ele>412</ele>
        <time>2018-05-16T11:33:30.1Z</time>
      </trkpt>
      <trkpt lat="44.63737" lon="4.25709">
        <ele>413</ele>
        <time>2018-05-16T11:33:33.1Z</time>
      </trkpt>
      <trkpt lat="44.63743" lon="4.25718">
        <ele>414</ele>
        <time>2018-05-16T11:33:36.1Z</time>
      </trkpt>
      <trkpt lat="44.63749" lon="4.25728">
        <ele>414</ele>
        <time>2018-05-16T11:33:39.1Z</time>
      </trkpt>
      <trkpt lat="44.63752" lon="4.25735">
        <ele>414</ele>
        <time>2018-05-16T11:33:41.1Z</time>
      </trkpt>
      <trkpt lat="44.63757" lon="4.25745">
        <ele>413</ele>
        <time>2018-05-16T11:33:44.1Z</time>
      </trkpt>
      <trkpt lat="44.63762" lon="4.25756">
        <ele>414</ele>
        <time>2018-05-16T11:33:47.1Z</time>
      </trkpt>
      <trkpt lat="44.63766" lon="4.25767">
        <ele>414</ele>
        <time>2018-05-16T11:33:50.1Z</time>
      </trkpt>
      <trkpt lat="44.6377" lon="4.25778">
        <ele>416</ele>
        <time>2018-05-16T11:33:53.1Z</time>
      </trkpt>
      <trkpt lat="44.63773" lon="4.25788">
        <ele>416</ele>
        <time>2018-05-16T11:33:56.1Z</time>
      </trkpt>
      <trkpt lat="44.63776" lon="4.25799">
        <ele>416</ele>
        <time>2018-05-16T11:33:59.1Z</time>
      </trkpt>
      <trkpt lat="44.63778" lon="4.25805">
        <ele>416</ele>
        <time>2018-05-16T11:34:01.1Z</time>
      </trkpt>
      <trkpt lat="44.63779" lon="4.25812">
        <ele>416</ele>
        <time>2018-05-16T11:34:03.1Z</time>
      </trkpt>
      <trkpt lat="44.63781" lon="4.25819">
        <ele>417</ele>
        <time>2018-05-16T11:34:05.1Z</time>
      </trkpt>
      <trkpt lat="44.63784" lon="4.2583">
        <ele>417</ele>
        <time>2018-05-16T11:34:08.1Z</time>
      </trkpt>
      <trkpt lat="44.63786" lon="4.25837">
        <ele>416</ele>
        <time>2018-05-16T11:34:10.1Z</time>
      </trkpt>
      <trkpt lat="44.63787" lon="4.25844">
        <ele>415</ele>
        <time>2018-05-16T11:34:12.1Z</time>
      </trkpt>
      <trkpt lat="44.63788" lon="4.25855">
        <ele>415</ele>
        <time>2018-05-16T11:34:14.1Z</time>
      </trkpt>
      <trkpt lat="44.6379" lon="4.25863">
        <ele>414</ele>
        <time>2018-05-16T11:34:17.1Z</time>
      </trkpt>
      <trkpt lat="44.6379" lon="4.25871">
        <ele>414</ele>
        <time>2018-05-16T11:34:19.1Z</time>
      </trkpt>
      <trkpt lat="44.63791" lon="4.25878">
        <ele>414</ele>
        <time>2018-05-16T11:34:21.1Z</time>
      </trkpt>
      <trkpt lat="44.63792" lon="4.25888">
        <ele>415</ele>
        <time>2018-05-16T11:34:24.1Z</time>
      </trkpt>
      <trkpt lat="44.63793" lon="4.25894">
        <ele>415</ele>
        <time>2018-05-16T11:34:26.1Z</time>
      </trkpt>
      <trkpt lat="44.63798" lon="4.259">
        <ele>415</ele>
        <time>2018-05-16T11:34:29.1Z</time>
      </trkpt>
      <trkpt lat="44.63803" lon="4.25898">
        <ele>415</ele>
        <time>2018-05-16T11:34:32.1Z</time>
      </trkpt>
      <trkpt lat="44.63806" lon="4.25894">
        <ele>415</ele>
        <time>2018-05-16T11:34:34.1Z</time>
      </trkpt>
      <trkpt lat="44.63809" lon="4.25892">
        <ele>415</ele>
        <time>2018-05-16T11:34:36.1Z</time>
      </trkpt>
      <trkpt lat="44.63811" lon="4.25891">
        <ele>415</ele>
        <time>2018-05-16T11:34:38.1Z</time>
      </trkpt>
      <trkpt lat="44.63813" lon="4.2589">
        <ele>415</ele>
        <time>2018-05-16T11:34:40.1Z</time>
      </trkpt>
      <trkpt lat="44.63813" lon="4.25889">
        <ele>414</ele>
        <time>2018-05-16T11:34:43.1Z</time>
      </trkpt>
      <trkpt lat="44.63813" lon="4.25889">
        <ele>414</ele>
        <time>2018-05-16T11:34:46.1Z</time>
      </trkpt>
      <trkpt lat="44.63813" lon="4.25888">
        <ele>414</ele>
        <time>2018-05-16T11:34:48.1Z</time>
      </trkpt>
      <trkpt lat="44.63813" lon="4.25887">
        <ele>414</ele>
        <time>2018-05-16T11:34:50.1Z</time>
      </trkpt>
      <trkpt lat="44.63813" lon="4.25886">
        <ele>414</ele>
        <time>2018-05-16T11:34:53.1Z</time>
      </trkpt>
      <trkpt lat="44.63813" lon="4.25886">
        <ele>414</ele>
        <time>2018-05-16T11:34:55.1Z</time>
      </trkpt>
      <trkpt lat="44.63813" lon="4.25885">
        <ele>414</ele>
        <time>2018-05-16T11:34:57.1Z</time>
      </trkpt>
      <trkpt lat="44.63813" lon="4.25884">
        <ele>414</ele>
        <time>2018-05-16T11:34:59.1Z</time>
      </trkpt>
      <trkpt lat="44.63813" lon="4.25884">
        <ele>414</ele>
        <time>2018-05-16T11:35:02.1Z</time>
      </trkpt>
      <trkpt lat="44.63813" lon="4.25884">
        <ele>414</ele>
        <time>2018-05-16T11:35:04.1Z</time>
      </trkpt>
      <trkpt lat="44.63813" lon="4.25883">
        <ele>414</ele>
        <time>2018-05-16T11:35:07.1Z</time>
      </trkpt>
      <trkpt lat="44.63813" lon="4.25882">
        <ele>414</ele>
        <time>2018-05-16T11:35:10.1Z</time>
      </trkpt>
      <trkpt lat="44.63813" lon="4.25881">
        <ele>414</ele>
        <time>2018-05-16T11:35:13.1Z</time>
      </trkpt>
      <trkpt lat="44.63813" lon="4.25881">
        <ele>414</ele>
        <time>2018-05-16T11:35:15.1Z</time>
      </trkpt>
      <trkpt lat="44.63813" lon="4.25881">
        <ele>414</ele>
        <time>2018-05-16T11:35:18.1Z</time>
      </trkpt>
      <trkpt lat="44.63813" lon="4.2588">
        <ele>414</ele>
        <time>2018-05-16T11:35:21.1Z</time>
      </trkpt>
      <trkpt lat="44.63812" lon="4.25879">
        <ele>414</ele>
        <time>2018-05-16T11:35:24.1Z</time>
      </trkpt>
      <trkpt lat="44.63812" lon="4.25878">
        <ele>414</ele>
        <time>2018-05-16T11:35:26.1Z</time>
      </trkpt>
      <trkpt lat="44.63812" lon="4.25877">
        <ele>414</ele>
        <time>2018-05-16T11:35:28.1Z</time>
      </trkpt>
      <trkpt lat="44.63811" lon="4.25876">
        <ele>414</ele>
        <time>2018-05-16T11:35:31.1Z</time>
      </trkpt>
      <trkpt lat="44.63811" lon="4.25876">
        <ele>414</ele>
        <time>2018-05-16T11:35:33.1Z</time>
      </trkpt>
      <trkpt lat="44.63811" lon="4.25875">
        <ele>414</ele>
        <time>2018-05-16T11:35:35.1Z</time>
      </trkpt>
      <trkpt lat="44.63811" lon="4.25874">
        <ele>415</ele>
        <time>2018-05-16T11:35:38.1Z</time>
      </trkpt>
      <trkpt lat="44.63812" lon="4.25872">
        <ele>414</ele>
        <time>2018-05-16T11:35:41.1Z</time>
      </trkpt>
      <trkpt lat="44.63812" lon="4.25872">
        <ele>414</ele>
        <time>2018-05-16T11:35:43.1Z</time>
      </trkpt>
      <trkpt lat="44.63813" lon="4.25873">
        <ele>414</ele>
        <time>2018-05-16T11:35:46.1Z</time>
      </trkpt>
      <trkpt lat="44.63813" lon="4.25874">
        <ele>414</ele>
        <time>2018-05-16T11:35:48.1Z</time>
      </trkpt>
      <trkpt lat="44.63813" lon="4.25875">
        <ele>414</ele>
        <time>2018-05-16T11:35:50.1Z</time>
      </trkpt>
      <trkpt lat="44.63813" lon="4.25875">
        <ele>414</ele>
        <time>2018-05-16T11:35:53.1Z</time>
      </trkpt>
      <trkpt lat="44.63813" lon="4.25876">
        <ele>414</ele>
        <time>2018-05-16T11:35:55.1Z</time>
      </trkpt>
      <trkpt lat="44.63813" lon="4.25877">
        <ele>414</ele>
        <time>2018-05-16T11:35:58.1Z</time>
      </trkpt>
      <trkpt lat="44.63813" lon="4.25878">
        <ele>414</ele>
        <time>2018-05-16T11:36:00.1Z</time>
      </trkpt>
      <trkpt lat="44.63813" lon="4.25878">
        <ele>414</ele>
        <time>2018-05-16T11:36:02.1Z</time>
      </trkpt>
      <trkpt lat="44.63813" lon="4.25879">
        <ele>414</ele>
        <time>2018-05-16T11:36:05.1Z</time>
      </trkpt>
      <trkpt lat="44.63813" lon="4.25879">
        <ele>414</ele>
        <time>2018-05-16T11:36:07.1Z</time>
      </trkpt>
      <trkpt lat="44.63814" lon="4.2588">
        <ele>414</ele>
        <time>2018-05-16T11:36:10.1Z</time>
      </trkpt>
      <trkpt lat="44.63814" lon="4.2588">
        <ele>414</ele>
        <time>2018-05-16T11:36:15.1Z</time>
      </trkpt>
      <trkpt lat="44.63814" lon="4.2588">
        <ele>414</ele>
        <time>2018-05-16T11:36:22.1Z</time>
      </trkpt>
      <trkpt lat="44.63814" lon="4.2588">
        <ele>414</ele>
        <time>2018-05-16T11:36:25.1Z</time>
      </trkpt>
      <trkpt lat="44.63814" lon="4.25881">
        <ele>415</ele>
        <time>2018-05-16T11:36:29.1Z</time>
      </trkpt>
      <trkpt lat="44.63814" lon="4.25881">
        <ele>415</ele>
        <time>2018-05-16T11:36:31.1Z</time>
      </trkpt>
      <trkpt lat="44.63814" lon="4.2588">
        <ele>415</ele>
        <time>2018-05-16T11:36:34.1Z</time>
      </trkpt>
      <trkpt lat="44.63814" lon="4.2588">
        <ele>414</ele>
        <time>2018-05-16T11:36:37.1Z</time>
      </trkpt>
      <trkpt lat="44.63814" lon="4.25879">
        <ele>414</ele>
        <time>2018-05-16T11:36:40.1Z</time>
      </trkpt>
      <trkpt lat="44.63814" lon="4.25878">
        <ele>414</ele>
        <time>2018-05-16T11:36:42.1Z</time>
      </trkpt>
      <trkpt lat="44.63814" lon="4.25878">
        <ele>414</ele>
        <time>2018-05-16T11:36:45.1Z</time>
      </trkpt>
      <trkpt lat="44.63815" lon="4.25877">
        <ele>414</ele>
        <time>2018-05-16T11:36:47.1Z</time>
      </trkpt>
      <trkpt lat="44.63817" lon="4.25874">
        <ele>414</ele>
        <time>2018-05-16T11:36:51.1Z</time>
      </trkpt>
      <trkpt lat="44.63822" lon="4.25869">
        <ele>414</ele>
        <time>2018-05-16T11:36:54.1Z</time>
      </trkpt>
      <trkpt lat="44.63827" lon="4.25863">
        <ele>414</ele>
        <time>2018-05-16T11:36:57.1Z</time>
      </trkpt>
      <trkpt lat="44.63834" lon="4.25855">
        <ele>415</ele>
        <time>2018-05-16T11:37:00.1Z</time>
      </trkpt>
      <trkpt lat="44.6384" lon="4.25846">
        <ele>415</ele>
        <time>2018-05-16T11:37:03.1Z</time>
      </trkpt>
      <trkpt lat="44.63847" lon="4.25837">
        <ele>415</ele>
        <time>2018-05-16T11:37:06.1Z</time>
      </trkpt>
      <trkpt lat="44.63856" lon="4.25825">
        <ele>414</ele>
        <time>2018-05-16T11:37:09.1Z</time>
      </trkpt>
      <trkpt lat="44.63863" lon="4.25816">
        <ele>414</ele>
        <time>2018-05-16T11:37:11.1Z</time>
      </trkpt>
      <trkpt lat="44.63874" lon="4.25803">
        <ele>414</ele>
        <time>2018-05-16T11:37:13.1Z</time>
      </trkpt>
      <trkpt lat="44.63882" lon="4.25793">
        <ele>414</ele>
        <time>2018-05-16T11:37:15.1Z</time>
      </trkpt>
      <trkpt lat="44.63889" lon="4.25783">
        <ele>414</ele>
        <time>2018-05-16T11:37:17.1Z</time>
      </trkpt>
      <trkpt lat="44.63896" lon="4.25775">
        <ele>414</ele>
        <time>2018-05-16T11:37:19.1Z</time>
      </trkpt>
      <trkpt lat="44.63902" lon="4.25768">
        <ele>413</ele>
        <time>2018-05-16T11:37:22.1Z</time>
      </trkpt>
      <trkpt lat="44.6391" lon="4.25756">
        <ele>412</ele>
        <time>2018-05-16T11:37:24.1Z</time>
      </trkpt>
      <trkpt lat="44.63915" lon="4.25749">
        <ele>411</ele>
        <time>2018-05-16T11:37:27.1Z</time>
      </trkpt>
      <trkpt lat="44.63923" lon="4.25739">
        <ele>411</ele>
        <time>2018-05-16T11:37:29.1Z</time>
      </trkpt>
      <trkpt lat="44.63928" lon="4.25732">
        <ele>411</ele>
        <time>2018-05-16T11:37:32.1Z</time>
      </trkpt>
      <trkpt lat="44.63936" lon="4.25721">
        <ele>411</ele>
        <time>2018-05-16T11:37:34.1Z</time>
      </trkpt>
      <trkpt lat="44.63941" lon="4.25715">
        <ele>410</ele>
        <time>2018-05-16T11:37:37.1Z</time>
      </trkpt>
      <trkpt lat="44.6395" lon="4.25713">
        <ele>410</ele>
        <time>2018-05-16T11:37:39.1Z</time>
      </trkpt>
      <trkpt lat="44.6396" lon="4.25714">
        <ele>410</ele>
        <time>2018-05-16T11:37:41.1Z</time>
      </trkpt>
      <trkpt lat="44.63975" lon="4.25717">
        <ele>410</ele>
        <time>2018-05-16T11:37:44.1Z</time>
      </trkpt>
      <trkpt lat="44.63985" lon="4.25721">
        <ele>410</ele>
        <time>2018-05-16T11:37:46.1Z</time>
      </trkpt>
      <trkpt lat="44.63999" lon="4.25729">
        <ele>410</ele>
        <time>2018-05-16T11:37:49.1Z</time>
      </trkpt>
      <trkpt lat="44.64013" lon="4.25739">
        <ele>410</ele>
        <time>2018-05-16T11:37:52.1Z</time>
      </trkpt>
      <trkpt lat="44.64022" lon="4.25744">
        <ele>410</ele>
        <time>2018-05-16T11:37:54.1Z</time>
      </trkpt>
      <trkpt lat="44.64036" lon="4.25754">
        <ele>411</ele>
        <time>2018-05-16T11:37:57.1Z</time>
      </trkpt>
      <trkpt lat="44.64046" lon="4.25761">
        <ele>411</ele>
        <time>2018-05-16T11:37:59.1Z</time>
      </trkpt>
      <trkpt lat="44.6406" lon="4.25771">
        <ele>411</ele>
        <time>2018-05-16T11:38:02.1Z</time>
      </trkpt>
      <trkpt lat="44.64074" lon="4.25782">
        <ele>410</ele>
        <time>2018-05-16T11:38:04.1Z</time>
      </trkpt>
      <trkpt lat="44.64084" lon="4.2579">
        <ele>410</ele>
        <time>2018-05-16T11:38:06.1Z</time>
      </trkpt>
      <trkpt lat="44.64094" lon="4.25798">
        <ele>409</ele>
        <time>2018-05-16T11:38:09.1Z</time>
      </trkpt>
      <trkpt lat="44.64104" lon="4.25806">
        <ele>408</ele>
        <time>2018-05-16T11:38:11.1Z</time>
      </trkpt>
      <trkpt lat="44.64114" lon="4.25814">
        <ele>408</ele>
        <time>2018-05-16T11:38:13.1Z</time>
      </trkpt>
      <trkpt lat="44.64125" lon="4.25822">
        <ele>408</ele>
        <time>2018-05-16T11:38:15.1Z</time>
      </trkpt>
      <trkpt lat="44.6414" lon="4.25835">
        <ele>408</ele>
        <time>2018-05-16T11:38:17.1Z</time>
      </trkpt>
      <trkpt lat="44.64151" lon="4.25843">
        <ele>407</ele>
        <time>2018-05-16T11:38:20.1Z</time>
      </trkpt>
      <trkpt lat="44.64167" lon="4.25855">
        <ele>407</ele>
        <time>2018-05-16T11:38:22.1Z</time>
      </trkpt>
      <trkpt lat="44.64184" lon="4.25868">
        <ele>407</ele>
        <time>2018-05-16T11:38:25.1Z</time>
      </trkpt>
      <trkpt lat="44.64201" lon="4.2588">
        <ele>407</ele>
        <time>2018-05-16T11:38:28.1Z</time>
      </trkpt>
      <trkpt lat="44.64218" lon="4.25892">
        <ele>407</ele>
        <time>2018-05-16T11:38:31.1Z</time>
      </trkpt>
      <trkpt lat="44.64229" lon="4.259">
        <ele>407</ele>
        <time>2018-05-16T11:38:34.1Z</time>
      </trkpt>
      <trkpt lat="44.64245" lon="4.25912">
        <ele>407</ele>
        <time>2018-05-16T11:38:37.1Z</time>
      </trkpt>
      <trkpt lat="44.64261" lon="4.25923">
        <ele>407</ele>
        <time>2018-05-16T11:38:40.1Z</time>
      </trkpt>
      <trkpt lat="44.64275" lon="4.25933">
        <ele>407</ele>
        <time>2018-05-16T11:38:42.1Z</time>
      </trkpt>
      <trkpt lat="44.64285" lon="4.25941">
        <ele>407</ele>
        <time>2018-05-16T11:38:45.1Z</time>
      </trkpt>
      <trkpt lat="44.64296" lon="4.25949">
        <ele>407</ele>
        <time>2018-05-16T11:38:47.1Z</time>
      </trkpt>
      <trkpt lat="44.64313" lon="4.25962">
        <ele>407</ele>
        <time>2018-05-16T11:38:49.1Z</time>
      </trkpt>
      <trkpt lat="44.64323" lon="4.25972">
        <ele>407</ele>
        <time>2018-05-16T11:38:52.1Z</time>
      </trkpt>
      <trkpt lat="44.64337" lon="4.25989">
        <ele>406</ele>
        <time>2018-05-16T11:38:54.1Z</time>
      </trkpt>
      <trkpt lat="44.64349" lon="4.26009">
        <ele>405</ele>
        <time>2018-05-16T11:38:57.1Z</time>
      </trkpt>
      <trkpt lat="44.64357" lon="4.26021">
        <ele>406</ele>
        <time>2018-05-16T11:38:59.1Z</time>
      </trkpt>
      <trkpt lat="44.64369" lon="4.26038">
        <ele>406</ele>
        <time>2018-05-16T11:39:02.1Z</time>
      </trkpt>
      <trkpt lat="44.64378" lon="4.26048">
        <ele>406</ele>
        <time>2018-05-16T11:39:05.1Z</time>
      </trkpt>
      <trkpt lat="44.64391" lon="4.26064">
        <ele>405</ele>
        <time>2018-05-16T11:39:07.1Z</time>
      </trkpt>
      <trkpt lat="44.64401" lon="4.26075">
        <ele>405</ele>
        <time>2018-05-16T11:39:10.1Z</time>
      </trkpt>
      <trkpt lat="44.64416" lon="4.26088">
        <ele>405</ele>
        <time>2018-05-16T11:39:12.1Z</time>
      </trkpt>
      <trkpt lat="44.64427" lon="4.26095">
        <ele>404</ele>
        <time>2018-05-16T11:39:14.1Z</time>
      </trkpt>
      <trkpt lat="44.64437" lon="4.26102">
        <ele>404</ele>
        <time>2018-05-16T11:39:17.1Z</time>
      </trkpt>
      <trkpt lat="44.64453" lon="4.26114">
        <ele>404</ele>
        <time>2018-05-16T11:39:20.1Z</time>
      </trkpt>
      <trkpt lat="44.64469" lon="4.26126">
        <ele>404</ele>
        <time>2018-05-16T11:39:22.1Z</time>
      </trkpt>
      <trkpt lat="44.64479" lon="4.26135">
        <ele>403</ele>
        <time>2018-05-16T11:39:24.1Z</time>
      </trkpt>
      <trkpt lat="44.64489" lon="4.26143">
        <ele>403</ele>
        <time>2018-05-16T11:39:27.1Z</time>
      </trkpt>
      <trkpt lat="44.64505" lon="4.26155">
        <ele>402</ele>
        <time>2018-05-16T11:39:29.1Z</time>
      </trkpt>
      <trkpt lat="44.64515" lon="4.26164">
        <ele>401</ele>
        <time>2018-05-16T11:39:32.1Z</time>
      </trkpt>
      <trkpt lat="44.64529" lon="4.26177">
        <ele>401</ele>
        <time>2018-05-16T11:39:34.1Z</time>
      </trkpt>
      <trkpt lat="44.64539" lon="4.26186">
        <ele>401</ele>
        <time>2018-05-16T11:39:37.1Z</time>
      </trkpt>
      <trkpt lat="44.64552" lon="4.26198">
        <ele>401</ele>
        <time>2018-05-16T11:39:40.1Z</time>
      </trkpt>
      <trkpt lat="44.6456" lon="4.26208">
        <ele>401</ele>
        <time>2018-05-16T11:39:42.1Z</time>
      </trkpt>
      <trkpt lat="44.64568" lon="4.26217">
        <ele>401</ele>
        <time>2018-05-16T11:39:44.1Z</time>
      </trkpt>
      <trkpt lat="44.64576" lon="4.26227">
        <ele>400</ele>
        <time>2018-05-16T11:39:46.1Z</time>
      </trkpt>
      <trkpt lat="44.64588" lon="4.26243">
        <ele>400</ele>
        <time>2018-05-16T11:39:48.1Z</time>
      </trkpt>
      <trkpt lat="44.64596" lon="4.26255">
        <ele>399</ele>
        <time>2018-05-16T11:39:51.1Z</time>
      </trkpt>
      <trkpt lat="44.64607" lon="4.2627">
        <ele>399</ele>
        <time>2018-05-16T11:39:53.1Z</time>
      </trkpt>
      <trkpt lat="44.64613" lon="4.26281">
        <ele>399</ele>
        <time>2018-05-16T11:39:55.1Z</time>
      </trkpt>
      <trkpt lat="44.64624" lon="4.26298">
        <ele>399</ele>
        <time>2018-05-16T11:39:58.1Z</time>
      </trkpt>
      <trkpt lat="44.64631" lon="4.26308">
        <ele>399</ele>
        <time>2018-05-16T11:40:01.1Z</time>
      </trkpt>
      <trkpt lat="44.64641" lon="4.26323">
        <ele>399</ele>
        <time>2018-05-16T11:40:03.1Z</time>
      </trkpt>
      <trkpt lat="44.64647" lon="4.26332">
        <ele>399</ele>
        <time>2018-05-16T11:40:05.1Z</time>
      </trkpt>
      <trkpt lat="44.64651" lon="4.26339">
        <ele>399</ele>
        <time>2018-05-16T11:40:08.1Z</time>
      </trkpt>
      <trkpt lat="44.64655" lon="4.26346">
        <ele>399</ele>
        <time>2018-05-16T11:40:10.1Z</time>
      </trkpt>
      <trkpt lat="44.64658" lon="4.2635">
        <ele>399</ele>
        <time>2018-05-16T11:40:12.1Z</time>
      </trkpt>
      <trkpt lat="44.64661" lon="4.26358">
        <ele>399</ele>
        <time>2018-05-16T11:40:16.1Z</time>
      </trkpt>
      <trkpt lat="44.64667" lon="4.26369">
        <ele>398</ele>
        <time>2018-05-16T11:40:18.1Z</time>
      </trkpt>
      <trkpt lat="44.64673" lon="4.26377">
        <ele>398</ele>
        <time>2018-05-16T11:40:20.1Z</time>
      </trkpt>
      <trkpt lat="44.64679" lon="4.26387">
        <ele>399</ele>
        <time>2018-05-16T11:40:23.1Z</time>
      </trkpt>
      <trkpt lat="44.64686" lon="4.26398">
        <ele>398</ele>
        <time>2018-05-16T11:40:25.1Z</time>
      </trkpt>
      <trkpt lat="44.64693" lon="4.2641">
        <ele>399</ele>
        <time>2018-05-16T11:40:27.1Z</time>
      </trkpt>
      <trkpt lat="44.64706" lon="4.26427">
        <ele>398</ele>
        <time>2018-05-16T11:40:29.1Z</time>
      </trkpt>
      <trkpt lat="44.64715" lon="4.26438">
        <ele>397</ele>
        <time>2018-05-16T11:40:32.1Z</time>
      </trkpt>
      <trkpt lat="44.64729" lon="4.26453">
        <ele>397</ele>
        <time>2018-05-16T11:40:34.1Z</time>
      </trkpt>
      <trkpt lat="44.64738" lon="4.26462">
        <ele>396</ele>
        <time>2018-05-16T11:40:36.1Z</time>
      </trkpt>
      <trkpt lat="44.64748" lon="4.26471">
        <ele>396</ele>
        <time>2018-05-16T11:40:38.1Z</time>
      </trkpt>
      <trkpt lat="44.64757" lon="4.2648">
        <ele>396</ele>
        <time>2018-05-16T11:40:40.1Z</time>
      </trkpt>
      <trkpt lat="44.6477" lon="4.26493">
        <ele>396</ele>
        <time>2018-05-16T11:40:43.1Z</time>
      </trkpt>
      <trkpt lat="44.64778" lon="4.26503">
        <ele>396</ele>
        <time>2018-05-16T11:40:46.1Z</time>
      </trkpt>
      <trkpt lat="44.64792" lon="4.26516">
        <ele>395</ele>
        <time>2018-05-16T11:40:48.1Z</time>
      </trkpt>
      <trkpt lat="44.64801" lon="4.26525">
        <ele>395</ele>
        <time>2018-05-16T11:40:50.1Z</time>
      </trkpt>
      <trkpt lat="44.64811" lon="4.26532">
        <ele>395</ele>
        <time>2018-05-16T11:40:53.1Z</time>
      </trkpt>
      <trkpt lat="44.64828" lon="4.26542">
        <ele>395</ele>
        <time>2018-05-16T11:40:55.1Z</time>
      </trkpt>
      <trkpt lat="44.64846" lon="4.26552">
        <ele>395</ele>
        <time>2018-05-16T11:40:58.1Z</time>
      </trkpt>
      <trkpt lat="44.64865" lon="4.26562">
        <ele>394</ele>
        <time>2018-05-16T11:41:01.1Z</time>
      </trkpt>
      <trkpt lat="44.64884" lon="4.26573">
        <ele>393</ele>
        <time>2018-05-16T11:41:04.1Z</time>
      </trkpt>
      <trkpt lat="44.64897" lon="4.26579">
        <ele>392</ele>
        <time>2018-05-16T11:41:07.1Z</time>
      </trkpt>
      <trkpt lat="44.64917" lon="4.26589">
        <ele>392</ele>
        <time>2018-05-16T11:41:09.1Z</time>
      </trkpt>
      <trkpt lat="44.64935" lon="4.26599">
        <ele>392</ele>
        <time>2018-05-16T11:41:12.1Z</time>
      </trkpt>
      <trkpt lat="44.64943" lon="4.26603">
        <ele>391</ele>
        <time>2018-05-16T11:41:14.1Z</time>
      </trkpt>
      <trkpt lat="44.64953" lon="4.26606">
        <ele>391</ele>
        <time>2018-05-16T11:41:17.1Z</time>
      </trkpt>
      <trkpt lat="44.64956" lon="4.26606">
        <ele>390</ele>
        <time>2018-05-16T11:41:19.1Z</time>
      </trkpt>
      <trkpt lat="44.64956" lon="4.26602">
        <ele>390</ele>
        <time>2018-05-16T11:41:22.1Z</time>
      </trkpt>
      <trkpt lat="44.64956" lon="4.26596">
        <ele>390</ele>
        <time>2018-05-16T11:41:24.1Z</time>
      </trkpt>
      <trkpt lat="44.64957" lon="4.2659">
        <ele>390</ele>
        <time>2018-05-16T11:41:27.1Z</time>
      </trkpt>
      <trkpt lat="44.64959" lon="4.26583">
        <ele>390</ele>
        <time>2018-05-16T11:41:29.1Z</time>
      </trkpt>
      <trkpt lat="44.64961" lon="4.26572">
        <ele>390</ele>
        <time>2018-05-16T11:41:31.1Z</time>
      </trkpt>
      <trkpt lat="44.64962" lon="4.26566">
        <ele>390</ele>
        <time>2018-05-16T11:41:33.1Z</time>
      </trkpt>
      <trkpt lat="44.64963" lon="4.26563">
        <ele>390</ele>
        <time>2018-05-16T11:41:35.1Z</time>
      </trkpt>
      <trkpt lat="44.64963" lon="4.2656">
        <ele>390</ele>
        <time>2018-05-16T11:41:38.1Z</time>
      </trkpt>
      <trkpt lat="44.64963" lon="4.26558">
        <ele>390</ele>
        <time>2018-05-16T11:41:41.1Z</time>
      </trkpt>
      <trkpt lat="44.64963" lon="4.26557">
        <ele>390</ele>
        <time>2018-05-16T11:41:43.1Z</time>
      </trkpt>
      <trkpt lat="44.64962" lon="4.26556">
        <ele>389</ele>
        <time>2018-05-16T11:41:46.1Z</time>
      </trkpt>
      <trkpt lat="44.64962" lon="4.26556">
        <ele>389</ele>
        <time>2018-05-16T11:41:48.1Z</time>
      </trkpt>
      <trkpt lat="44.64963" lon="4.26556">
        <ele>389</ele>
        <time>2018-05-16T11:41:50.1Z</time>
      </trkpt>
      <trkpt lat="44.64963" lon="4.26556">
        <ele>389</ele>
        <time>2018-05-16T11:41:54.1Z</time>
      </trkpt>
      <trkpt lat="44.64963" lon="4.26555">
        <ele>389</ele>
        <time>2018-05-16T11:41:56.1Z</time>
      </trkpt>
      <trkpt lat="44.64963" lon="4.26555">
        <ele>389</ele>
        <time>2018-05-16T11:41:59.1Z</time>
      </trkpt>
      <trkpt lat="44.64962" lon="4.26555">
        <ele>389</ele>
        <time>2018-05-16T11:42:02.1Z</time>
      </trkpt>
      <trkpt lat="44.64962" lon="4.26555">
        <ele>389</ele>
        <time>2018-05-16T11:42:05.1Z</time>
      </trkpt>
      <trkpt lat="44.64962" lon="4.26555">
        <ele>389</ele>
        <time>2018-05-16T11:42:07.1Z</time>
      </trkpt>
      <trkpt lat="44.64961" lon="4.26555">
        <ele>389</ele>
        <time>2018-05-16T11:42:10.1Z</time>
      </trkpt>
      <trkpt lat="44.6496" lon="4.26556">
        <ele>389</ele>
        <time>2018-05-16T11:42:13.1Z</time>
      </trkpt>
      <trkpt lat="44.6496" lon="4.26556">
        <ele>389</ele>
        <time>2018-05-16T11:42:15.1Z</time>
      </trkpt>
      <trkpt lat="44.64959" lon="4.26557">
        <ele>389</ele>
        <time>2018-05-16T11:42:18.1Z</time>
      </trkpt>
      <trkpt lat="44.64958" lon="4.26558">
        <ele>389</ele>
        <time>2018-05-16T11:42:20.1Z</time>
      </trkpt>
      <trkpt lat="44.64957" lon="4.26559">
        <ele>389</ele>
        <time>2018-05-16T11:42:22.1Z</time>
      </trkpt>
      <trkpt lat="44.64957" lon="4.26559">
        <ele>389</ele>
        <time>2018-05-16T11:42:24.1Z</time>
      </trkpt>
      <trkpt lat="44.64956" lon="4.26559">
        <ele>389</ele>
        <time>2018-05-16T11:42:26.1Z</time>
      </trkpt>
      <trkpt lat="44.64955" lon="4.2656">
        <ele>389</ele>
        <time>2018-05-16T11:42:28.1Z</time>
      </trkpt>
      <trkpt lat="44.64955" lon="4.2656">
        <ele>389</ele>
        <time>2018-05-16T11:42:30.1Z</time>
      </trkpt>
      <trkpt lat="44.64955" lon="4.2656">
        <ele>389</ele>
        <time>2018-05-16T11:42:32.1Z</time>
      </trkpt>
      <trkpt lat="44.64953" lon="4.2656">
        <ele>389</ele>
        <time>2018-05-16T11:42:36.1Z</time>
      </trkpt>
      <trkpt lat="44.64952" lon="4.2656">
        <ele>389</ele>
        <time>2018-05-16T11:42:39.1Z</time>
      </trkpt>
      <trkpt lat="44.64951" lon="4.2656">
        <ele>389</ele>
        <time>2018-05-16T11:42:42.1Z</time>
      </trkpt>
      <trkpt lat="44.64951" lon="4.2656">
        <ele>389</ele>
        <time>2018-05-16T11:42:44.1Z</time>
      </trkpt>
      <trkpt lat="44.6495" lon="4.2656">
        <ele>389</ele>
        <time>2018-05-16T11:42:47.1Z</time>
      </trkpt>
      <trkpt lat="44.6495" lon="4.2656">
        <ele>389</ele>
        <time>2018-05-16T11:42:49.1Z</time>
      </trkpt>
      <trkpt lat="44.6495" lon="4.2656">
        <ele>389</ele>
        <time>2018-05-16T11:42:51.1Z</time>
      </trkpt>
      <trkpt lat="44.6495" lon="4.2656">
        <ele>389</ele>
        <time>2018-05-16T11:42:54.1Z</time>
      </trkpt>
      <trkpt lat="44.64949" lon="4.2656">
        <ele>389</ele>
        <time>2018-05-16T11:42:56.1Z</time>
      </trkpt>
      <trkpt lat="44.64948" lon="4.2656">
        <ele>389</ele>
        <time>2018-05-16T11:42:59.1Z</time>
      </trkpt>
      <trkpt lat="44.64948" lon="4.2656">
        <ele>389</ele>
        <time>2018-05-16T11:43:01.1Z</time>
      </trkpt>
      <trkpt lat="44.64948" lon="4.2656">
        <ele>389</ele>
        <time>2018-05-16T11:43:04.1Z</time>
      </trkpt>
      <trkpt lat="44.64948" lon="4.2656">
        <ele>389</ele>
        <time>2018-05-16T11:43:07.1Z</time>
      </trkpt>
      <trkpt lat="44.64949" lon="4.2656">
        <ele>389</ele>
        <time>2018-05-16T11:43:09.1Z</time>
      </trkpt>
      <trkpt lat="44.64949" lon="4.26561">
        <ele>389</ele>
        <time>2018-05-16T11:43:12.1Z</time>
      </trkpt>
      <trkpt lat="44.64949" lon="4.26561">
        <ele>389</ele>
        <time>2018-05-16T11:43:14.1Z</time>
      </trkpt>
      <trkpt lat="44.64948" lon="4.2656">
        <ele>389</ele>
        <time>2018-05-16T11:43:17.1Z</time>
      </trkpt>
      <trkpt lat="44.64948" lon="4.2656">
        <ele>389</ele>
        <time>2018-05-16T11:43:20.1Z</time>
      </trkpt>
      <trkpt lat="44.64949" lon="4.2656">
        <ele>389</ele>
        <time>2018-05-16T11:43:23.1Z</time>
      </trkpt>
      <trkpt lat="44.64951" lon="4.2656">
        <ele>388</ele>
        <time>2018-05-16T11:43:26.1Z</time>
      </trkpt>
      <trkpt lat="44.64952" lon="4.26561">
        <ele>389</ele>
        <time>2018-05-16T11:43:28.1Z</time>
      </trkpt>
      <trkpt lat="44.64953" lon="4.26561">
        <ele>389</ele>
        <time>2018-05-16T11:43:31.1Z</time>
      </trkpt>
      <trkpt lat="44.64954" lon="4.26561">
        <ele>389</ele>
        <time>2018-05-16T11:43:33.1Z</time>
      </trkpt>
      <trkpt lat="44.64954" lon="4.2656">
        <ele>389</ele>
        <time>2018-05-16T11:43:37.1Z</time>
      </trkpt>
      <trkpt lat="44.64954" lon="4.2656">
        <ele>389</ele>
        <time>2018-05-16T11:43:40.1Z</time>
      </trkpt>
      <trkpt lat="44.64955" lon="4.2656">
        <ele>389</ele>
        <time>2018-05-16T11:43:43.1Z</time>
      </trkpt>
      <trkpt lat="44.64956" lon="4.26561">
        <ele>389</ele>
        <time>2018-05-16T11:43:45.1Z</time>
      </trkpt>
      <trkpt lat="44.64956" lon="4.26561">
        <ele>389</ele>
        <time>2018-05-16T11:43:47.1Z</time>
      </trkpt>
      <trkpt lat="44.64957" lon="4.2656">
        <ele>389</ele>
        <time>2018-05-16T11:43:50.1Z</time>
      </trkpt>
      <trkpt lat="44.64957" lon="4.2656">
        <ele>389</ele>
        <time>2018-05-16T11:43:54.1Z</time>
      </trkpt>
      <trkpt lat="44.64957" lon="4.26561">
        <ele>389</ele>
        <time>2018-05-16T11:43:57.1Z</time>
      </trkpt>
      <trkpt lat="44.64957" lon="4.26561">
        <ele>389</ele>
        <time>2018-05-16T11:43:59.1Z</time>
      </trkpt>
      <trkpt lat="44.64957" lon="4.26561">
        <ele>389</ele>
        <time>2018-05-16T11:44:02.1Z</time>
      </trkpt>
      <trkpt lat="44.64957" lon="4.26561">
        <ele>389</ele>
        <time>2018-05-16T11:44:04.1Z</time>
      </trkpt>
      <trkpt lat="44.64957" lon="4.2656">
        <ele>389</ele>
        <time>2018-05-16T11:44:06.1Z</time>
      </trkpt>
      <trkpt lat="44.64958" lon="4.2656">
        <ele>389</ele>
        <time>2018-05-16T11:44:08.1Z</time>
      </trkpt>
      <trkpt lat="44.64959" lon="4.2656">
        <ele>389</ele>
        <time>2018-05-16T11:44:11.1Z</time>
      </trkpt>
      <trkpt lat="44.64959" lon="4.2656">
        <ele>389</ele>
        <time>2018-05-16T11:44:14.1Z</time>
      </trkpt>
      <trkpt lat="44.6496" lon="4.2656">
        <ele>389</ele>
        <time>2018-05-16T11:44:16.1Z</time>
      </trkpt>
      <trkpt lat="44.6496" lon="4.2656">
        <ele>391</ele>
        <time>2018-05-16T11:44:20.1Z</time>
      </trkpt>
      <trkpt lat="44.6496" lon="4.26561">
        <ele>391</ele>
        <time>2018-05-16T11:44:23.1Z</time>
      </trkpt>
      <trkpt lat="44.6496" lon="4.26561">
        <ele>391</ele>
        <time>2018-05-16T11:44:26.1Z</time>
      </trkpt>
      <trkpt lat="44.64961" lon="4.26563">
        <ele>390</ele>
        <time>2018-05-16T11:44:28.1Z</time>
      </trkpt>
      <trkpt lat="44.6496" lon="4.26567">
        <ele>390</ele>
        <time>2018-05-16T11:44:30.1Z</time>
      </trkpt>
      <trkpt lat="44.64959" lon="4.26571">
        <ele>391</ele>
        <time>2018-05-16T11:44:32.1Z</time>
      </trkpt>
      <trkpt lat="44.64959" lon="4.26575">
        <ele>391</ele>
        <time>2018-05-16T11:44:34.1Z</time>
      </trkpt>
      <trkpt lat="44.64957" lon="4.26581">
        <ele>392</ele>
        <time>2018-05-16T11:44:37.1Z</time>
      </trkpt>
      <trkpt lat="44.64956" lon="4.26587">
        <ele>392</ele>
        <time>2018-05-16T11:44:39.1Z</time>
      </trkpt>
      <trkpt lat="44.64956" lon="4.26591">
        <ele>392</ele>
        <time>2018-05-16T11:44:42.1Z</time>
      </trkpt>
      <trkpt lat="44.64956" lon="4.26597">
        <ele>392</ele>
        <time>2018-05-16T11:44:44.1Z</time>
      </trkpt>
      <trkpt lat="44.64958" lon="4.26601">
        <ele>392</ele>
        <time>2018-05-16T11:44:46.1Z</time>
      </trkpt>
      <trkpt lat="44.64962" lon="4.26605">
        <ele>392</ele>
        <time>2018-05-16T11:44:49.1Z</time>
      </trkpt>
      <trkpt lat="44.64968" lon="4.2661">
        <ele>391</ele>
        <time>2018-05-16T11:44:52.1Z</time>
      </trkpt>
      <trkpt lat="44.64974" lon="4.26611">
        <ele>392</ele>
        <time>2018-05-16T11:44:55.1Z</time>
      </trkpt>
      <trkpt lat="44.64984" lon="4.26614">
        <ele>393</ele>
        <time>2018-05-16T11:44:57.1Z</time>
      </trkpt>
      <trkpt lat="44.64991" lon="4.26616">
        <ele>393</ele>
        <time>2018-05-16T11:44:59.1Z</time>
      </trkpt>
      <trkpt lat="44.64998" lon="4.26617">
        <ele>394</ele>
        <time>2018-05-16T11:45:01.1Z</time>
      </trkpt>
      <trkpt lat="44.6501" lon="4.2662">
        <ele>393</ele>
        <time>2018-05-16T11:45:04.1Z</time>
      </trkpt>
      <trkpt lat="44.65022" lon="4.26624">
        <ele>393</ele>
        <time>2018-05-16T11:45:07.1Z</time>
      </trkpt>
      <trkpt lat="44.65031" lon="4.26626">
        <ele>393</ele>
        <time>2018-05-16T11:45:09.1Z</time>
      </trkpt>
      <trkpt lat="44.65044" lon="4.26629">
        <ele>392</ele>
        <time>2018-05-16T11:45:12.1Z</time>
      </trkpt>
      <trkpt lat="44.65057" lon="4.26632">
        <ele>392</ele>
        <time>2018-05-16T11:45:15.1Z</time>
      </trkpt>
      <trkpt lat="44.65071" lon="4.26636">
        <ele>392</ele>
        <time>2018-05-16T11:45:18.1Z</time>
      </trkpt>
      <trkpt lat="44.65081" lon="4.26639">
        <ele>393</ele>
        <time>2018-05-16T11:45:20.1Z</time>
      </trkpt>
      <trkpt lat="44.65091" lon="4.26642">
        <ele>393</ele>
        <time>2018-05-16T11:45:22.1Z</time>
      </trkpt>
      <trkpt lat="44.651" lon="4.26645">
        <ele>393</ele>
        <time>2018-05-16T11:45:25.1Z</time>
      </trkpt>
      <trkpt lat="44.65109" lon="4.26649">
        <ele>392</ele>
        <time>2018-05-16T11:45:27.1Z</time>
      </trkpt>
      <trkpt lat="44.65123" lon="4.2666">
        <ele>390</ele>
        <time>2018-05-16T11:45:29.1Z</time>
      </trkpt>
      <trkpt lat="44.65136" lon="4.26675">
        <ele>388</ele>
        <time>2018-05-16T11:45:32.1Z</time>
      </trkpt>
      <trkpt lat="44.65144" lon="4.26685">
        <ele>388</ele>
        <time>2018-05-16T11:45:34.1Z</time>
      </trkpt>
      <trkpt lat="44.65156" lon="4.26699">
        <ele>389</ele>
        <time>2018-05-16T11:45:37.1Z</time>
      </trkpt>
      <trkpt lat="44.65163" lon="4.26709">
        <ele>389</ele>
        <time>2018-05-16T11:45:39.1Z</time>
      </trkpt>
      <trkpt lat="44.6517" lon="4.26719">
        <ele>388</ele>
        <time>2018-05-16T11:45:41.1Z</time>
      </trkpt>
      <trkpt lat="44.65181" lon="4.26734">
        <ele>388</ele>
        <time>2018-05-16T11:45:44.1Z</time>
      </trkpt>
      <trkpt lat="44.65193" lon="4.26749">
        <ele>387</ele>
        <time>2018-05-16T11:45:47.1Z</time>
      </trkpt>
      <trkpt lat="44.65201" lon="4.2676">
        <ele>387</ele>
        <time>2018-05-16T11:45:49.1Z</time>
      </trkpt>
      <trkpt lat="44.6521" lon="4.2677">
        <ele>386</ele>
        <time>2018-05-16T11:45:51.1Z</time>
      </trkpt>
      <trkpt lat="44.65223" lon="4.26787">
        <ele>386</ele>
        <time>2018-05-16T11:45:54.1Z</time>
      </trkpt>
      <trkpt lat="44.65238" lon="4.26806">
        <ele>386</ele>
        <time>2018-05-16T11:45:57.1Z</time>
      </trkpt>
      <trkpt lat="44.65248" lon="4.26819">
        <ele>387</ele>
        <time>2018-05-16T11:45:59.1Z</time>
      </trkpt>
      <trkpt lat="44.65263" lon="4.26838">
        <ele>386</ele>
        <time>2018-05-16T11:46:02.1Z</time>
      </trkpt>
      <trkpt lat="44.65273" lon="4.26852">
        <ele>386</ele>
        <time>2018-05-16T11:46:04.1Z</time>
      </trkpt>
      <trkpt lat="44.65283" lon="4.26865">
        <ele>384</ele>
        <time>2018-05-16T11:46:06.1Z</time>
      </trkpt>
      <trkpt lat="44.65294" lon="4.26877">
        <ele>383</ele>
        <time>2018-05-16T11:46:08.1Z</time>
      </trkpt>
      <trkpt lat="44.65306" lon="4.26889">
        <ele>383</ele>
        <time>2018-05-16T11:46:11.1Z</time>
      </trkpt>
      <trkpt lat="44.65324" lon="4.26906">
        <ele>383</ele>
        <time>2018-05-16T11:46:13.1Z</time>
      </trkpt>
      <trkpt lat="44.65335" lon="4.26917">
        <ele>383</ele>
        <time>2018-05-16T11:46:15.1Z</time>
      </trkpt>
      <trkpt lat="44.65351" lon="4.26933">
        <ele>383</ele>
        <time>2018-05-16T11:46:18.1Z</time>
      </trkpt>
      <trkpt lat="44.65361" lon="4.26942">
        <ele>383</ele>
        <time>2018-05-16T11:46:20.1Z</time>
      </trkpt>
      <trkpt lat="44.65376" lon="4.26958">
        <ele>382</ele>
        <time>2018-05-16T11:46:23.1Z</time>
      </trkpt>
      <trkpt lat="44.65392" lon="4.26971">
        <ele>381</ele>
        <time>2018-05-16T11:46:26.1Z</time>
      </trkpt>
      <trkpt lat="44.65403" lon="4.26978">
        <ele>381</ele>
        <time>2018-05-16T11:46:28.1Z</time>
      </trkpt>
      <trkpt lat="44.65413" lon="4.26986">
        <ele>381</ele>
        <time>2018-05-16T11:46:30.1Z</time>
      </trkpt>
      <trkpt lat="44.65424" lon="4.26992">
        <ele>381</ele>
        <time>2018-05-16T11:46:32.1Z</time>
      </trkpt>
      <trkpt lat="44.65435" lon="4.26997">
        <ele>381</ele>
        <time>2018-05-16T11:46:34.1Z</time>
      </trkpt>
      <trkpt lat="44.65448" lon="4.27005">
        <ele>382</ele>
        <time>2018-05-16T11:46:37.1Z</time>
      </trkpt>
      <trkpt lat="44.65459" lon="4.2701">
        <ele>381</ele>
        <time>2018-05-16T11:46:39.1Z</time>
      </trkpt>
      <trkpt lat="44.65476" lon="4.27019">
        <ele>380</ele>
        <time>2018-05-16T11:46:42.1Z</time>
      </trkpt>
      <trkpt lat="44.65488" lon="4.27025">
        <ele>379</ele>
        <time>2018-05-16T11:46:44.1Z</time>
      </trkpt>
      <trkpt lat="44.65507" lon="4.27036">
        <ele>379</ele>
        <time>2018-05-16T11:46:47.1Z</time>
      </trkpt>
      <trkpt lat="44.65526" lon="4.27047">
        <ele>378</ele>
        <time>2018-05-16T11:46:50.1Z</time>
      </trkpt>
      <trkpt lat="44.6554" lon="4.27055">
        <ele>378</ele>
        <time>2018-05-16T11:46:52.1Z</time>
      </trkpt>
      <trkpt lat="44.6556" lon="4.27067">
        <ele>378</ele>
        <time>2018-05-16T11:46:55.1Z</time>
      </trkpt>
      <trkpt lat="44.65574" lon="4.27075">
        <ele>378</ele>
        <time>2018-05-16T11:46:57.1Z</time>
      </trkpt>
      <trkpt lat="44.65596" lon="4.27086">
        <ele>378</ele>
        <time>2018-05-16T11:47:00.1Z</time>
      </trkpt>
      <trkpt lat="44.6561" lon="4.27095">
        <ele>378</ele>
        <time>2018-05-16T11:47:02.1Z</time>
      </trkpt>
      <trkpt lat="44.65634" lon="4.27106">
        <ele>377</ele>
        <time>2018-05-16T11:47:05.1Z</time>
      </trkpt>
      <trkpt lat="44.65651" lon="4.27109">
        <ele>377</ele>
        <time>2018-05-16T11:47:07.1Z</time>
      </trkpt>
      <trkpt lat="44.65677" lon="4.27106">
        <ele>376</ele>
        <time>2018-05-16T11:47:10.1Z</time>
      </trkpt>
      <trkpt lat="44.65693" lon="4.271">
        <ele>375</ele>
        <time>2018-05-16T11:47:12.1Z</time>
      </trkpt>
      <trkpt lat="44.6571" lon="4.27094">
        <ele>375</ele>
        <time>2018-05-16T11:47:14.1Z</time>
      </trkpt>
      <trkpt lat="44.65728" lon="4.27087">
        <ele>375</ele>
        <time>2018-05-16T11:47:16.1Z</time>
      </trkpt>
      <trkpt lat="44.65753" lon="4.27075">
        <ele>375</ele>
        <time>2018-05-16T11:47:19.1Z</time>
      </trkpt>
      <trkpt lat="44.65769" lon="4.27064">
        <ele>375</ele>
        <time>2018-05-16T11:47:21.1Z</time>
      </trkpt>
      <trkpt lat="44.65791" lon="4.27045">
        <ele>375</ele>
        <time>2018-05-16T11:47:24.1Z</time>
      </trkpt>
      <trkpt lat="44.65805" lon="4.27032">
        <ele>374</ele>
        <time>2018-05-16T11:47:26.1Z</time>
      </trkpt>
      <trkpt lat="44.65825" lon="4.27013">
        <ele>373</ele>
        <time>2018-05-16T11:47:29.1Z</time>
      </trkpt>
      <trkpt lat="44.65845" lon="4.26994">
        <ele>372</ele>
        <time>2018-05-16T11:47:32.1Z</time>
      </trkpt>
      <trkpt lat="44.65859" lon="4.26983">
        <ele>372</ele>
        <time>2018-05-16T11:47:34.1Z</time>
      </trkpt>
      <trkpt lat="44.65881" lon="4.26972">
        <ele>372</ele>
        <time>2018-05-16T11:47:37.1Z</time>
      </trkpt>
      <trkpt lat="44.65895" lon="4.26968">
        <ele>372</ele>
        <time>2018-05-16T11:47:39.1Z</time>
      </trkpt>
      <trkpt lat="44.65918" lon="4.26965">
        <ele>372</ele>
        <time>2018-05-16T11:47:42.1Z</time>
      </trkpt>
      <trkpt lat="44.65932" lon="4.26963">
        <ele>372</ele>
        <time>2018-05-16T11:47:44.1Z</time>
      </trkpt>
      <trkpt lat="44.65955" lon="4.2696">
        <ele>371</ele>
        <time>2018-05-16T11:47:47.1Z</time>
      </trkpt>
      <trkpt lat="44.65969" lon="4.26959">
        <ele>372</ele>
        <time>2018-05-16T11:47:49.1Z</time>
      </trkpt>
      <trkpt lat="44.65992" lon="4.26957">
        <ele>370</ele>
        <time>2018-05-16T11:47:52.1Z</time>
      </trkpt>
      <trkpt lat="44.66008" lon="4.26955">
        <ele>369</ele>
        <time>2018-05-16T11:47:54.1Z</time>
      </trkpt>
      <trkpt lat="44.66024" lon="4.26955">
        <ele>368</ele>
        <time>2018-05-16T11:47:56.1Z</time>
      </trkpt>
      <trkpt lat="44.66039" lon="4.26957">
        <ele>367</ele>
        <time>2018-05-16T11:47:59.1Z</time>
      </trkpt>
      <trkpt lat="44.66063" lon="4.26964">
        <ele>367</ele>
        <time>2018-05-16T11:48:01.1Z</time>
      </trkpt>
      <trkpt lat="44.66079" lon="4.26968">
        <ele>367</ele>
        <time>2018-05-16T11:48:03.1Z</time>
      </trkpt>
      <trkpt lat="44.66104" lon="4.26973">
        <ele>367</ele>
        <time>2018-05-16T11:48:06.1Z</time>
      </trkpt>
      <trkpt lat="44.66128" lon="4.26978">
        <ele>366</ele>
        <time>2018-05-16T11:48:09.1Z</time>
      </trkpt>
      <trkpt lat="44.66143" lon="4.26982">
        <ele>366</ele>
        <time>2018-05-16T11:48:11.1Z</time>
      </trkpt>
      <trkpt lat="44.66167" lon="4.26986">
        <ele>365</ele>
        <time>2018-05-16T11:48:14.1Z</time>
      </trkpt>
      <trkpt lat="44.66191" lon="4.26995">
        <ele>365</ele>
        <time>2018-05-16T11:48:17.1Z</time>
      </trkpt>
      <trkpt lat="44.66207" lon="4.27003">
        <ele>364</ele>
        <time>2018-05-16T11:48:19.1Z</time>
      </trkpt>
      <trkpt lat="44.66229" lon="4.27017">
        <ele>362</ele>
        <time>2018-05-16T11:48:22.1Z</time>
      </trkpt>
      <trkpt lat="44.66244" lon="4.27028">
        <ele>361</ele>
        <time>2018-05-16T11:48:24.1Z</time>
      </trkpt>
      <trkpt lat="44.66259" lon="4.2704">
        <ele>360</ele>
        <time>2018-05-16T11:48:26.1Z</time>
      </trkpt>
      <trkpt lat="44.66273" lon="4.27053">
        <ele>359</ele>
        <time>2018-05-16T11:48:28.1Z</time>
      </trkpt>
      <trkpt lat="44.66287" lon="4.27068">
        <ele>358</ele>
        <time>2018-05-16T11:48:31.1Z</time>
      </trkpt>
      <trkpt lat="44.66306" lon="4.27092">
        <ele>357</ele>
        <time>2018-05-16T11:48:33.1Z</time>
      </trkpt>
      <trkpt lat="44.66325" lon="4.27115">
        <ele>355</ele>
        <time>2018-05-16T11:48:36.1Z</time>
      </trkpt>
      <trkpt lat="44.66338" lon="4.27132">
        <ele>355</ele>
        <time>2018-05-16T11:48:38.1Z</time>
      </trkpt>
      <trkpt lat="44.66359" lon="4.27156">
        <ele>356</ele>
        <time>2018-05-16T11:48:41.1Z</time>
      </trkpt>
      <trkpt lat="44.66372" lon="4.27173">
        <ele>356</ele>
        <time>2018-05-16T11:48:43.1Z</time>
      </trkpt>
      <trkpt lat="44.66392" lon="4.27197">
        <ele>356</ele>
        <time>2018-05-16T11:48:46.1Z</time>
      </trkpt>
      <trkpt lat="44.66405" lon="4.27213">
        <ele>355</ele>
        <time>2018-05-16T11:48:48.1Z</time>
      </trkpt>
      <trkpt lat="44.66423" lon="4.27236">
        <ele>354</ele>
        <time>2018-05-16T11:48:51.1Z</time>
      </trkpt>
      <trkpt lat="44.66434" lon="4.27251">
        <ele>354</ele>
        <time>2018-05-16T11:48:53.1Z</time>
      </trkpt>
      <trkpt lat="44.66451" lon="4.27273">
        <ele>354</ele>
        <time>2018-05-16T11:48:56.1Z</time>
      </trkpt>
      <trkpt lat="44.66469" lon="4.27294">
        <ele>354</ele>
        <time>2018-05-16T11:48:59.1Z</time>
      </trkpt>
      <trkpt lat="44.6648" lon="4.27309">
        <ele>354</ele>
        <time>2018-05-16T11:49:01.1Z</time>
      </trkpt>
      <trkpt lat="44.66496" lon="4.27328">
        <ele>353</ele>
        <time>2018-05-16T11:49:04.1Z</time>
      </trkpt>
      <trkpt lat="44.66506" lon="4.27341">
        <ele>353</ele>
        <time>2018-05-16T11:49:06.1Z</time>
      </trkpt>
      <trkpt lat="44.66515" lon="4.27352">
        <ele>353</ele>
        <time>2018-05-16T11:49:08.1Z</time>
      </trkpt>
      <trkpt lat="44.66524" lon="4.27363">
        <ele>353</ele>
        <time>2018-05-16T11:49:10.1Z</time>
      </trkpt>
      <trkpt lat="44.66533" lon="4.27374">
        <ele>353</ele>
        <time>2018-05-16T11:49:12.1Z</time>
      </trkpt>
      <trkpt lat="44.66545" lon="4.27389">
        <ele>352</ele>
        <time>2018-05-16T11:49:15.1Z</time>
      </trkpt>
      <trkpt lat="44.66553" lon="4.27399">
        <ele>352</ele>
        <time>2018-05-16T11:49:17.1Z</time>
      </trkpt>
      <trkpt lat="44.66566" lon="4.27415">
        <ele>352</ele>
        <time>2018-05-16T11:49:20.1Z</time>
      </trkpt>
      <trkpt lat="44.66574" lon="4.27434">
        <ele>353</ele>
        <time>2018-05-16T11:49:23.1Z</time>
      </trkpt>
      <trkpt lat="44.66579" lon="4.27457">
        <ele>354</ele>
        <time>2018-05-16T11:49:26.1Z</time>
      </trkpt>
      <trkpt lat="44.6658" lon="4.27481">
        <ele>355</ele>
        <time>2018-05-16T11:49:29.1Z</time>
      </trkpt>
      <trkpt lat="44.6658" lon="4.27504">
        <ele>355</ele>
        <time>2018-05-16T11:49:32.1Z</time>
      </trkpt>
      <trkpt lat="44.6658" lon="4.27526">
        <ele>354</ele>
        <time>2018-05-16T11:49:35.1Z</time>
      </trkpt>
      <trkpt lat="44.66582" lon="4.27541">
        <ele>353</ele>
        <time>2018-05-16T11:49:38.1Z</time>
      </trkpt>
      <trkpt lat="44.66586" lon="4.27549">
        <ele>352</ele>
        <time>2018-05-16T11:49:40.1Z</time>
      </trkpt>
      <trkpt lat="44.66594" lon="4.2755">
        <ele>352</ele>
        <time>2018-05-16T11:49:42.1Z</time>
      </trkpt>
      <trkpt lat="44.66602" lon="4.27545">
        <ele>352</ele>
        <time>2018-05-16T11:49:44.1Z</time>
      </trkpt>
      <trkpt lat="44.66616" lon="4.27538">
        <ele>352</ele>
        <time>2018-05-16T11:49:47.1Z</time>
      </trkpt>
      <trkpt lat="44.66632" lon="4.27529">
        <ele>352</ele>
        <time>2018-05-16T11:49:50.1Z</time>
      </trkpt>
      <trkpt lat="44.66643" lon="4.27522">
        <ele>352</ele>
        <time>2018-05-16T11:49:52.1Z</time>
      </trkpt>
      <trkpt lat="44.66661" lon="4.27512">
        <ele>351</ele>
        <time>2018-05-16T11:49:55.1Z</time>
      </trkpt>
      <trkpt lat="44.66679" lon="4.27501">
        <ele>350</ele>
        <time>2018-05-16T11:49:58.1Z</time>
      </trkpt>
      <trkpt lat="44.66697" lon="4.2749">
        <ele>349</ele>
        <time>2018-05-16T11:50:01.1Z</time>
      </trkpt>
      <trkpt lat="44.66709" lon="4.27483">
        <ele>349</ele>
        <time>2018-05-16T11:50:03.1Z</time>
      </trkpt>
      <trkpt lat="44.66726" lon="4.27472">
        <ele>349</ele>
        <time>2018-05-16T11:50:06.1Z</time>
      </trkpt>
      <trkpt lat="44.66743" lon="4.27462">
        <ele>348</ele>
        <time>2018-05-16T11:50:09.1Z</time>
      </trkpt>
      <trkpt lat="44.66754" lon="4.27455">
        <ele>348</ele>
        <time>2018-05-16T11:50:11.1Z</time>
      </trkpt>
      <trkpt lat="44.66766" lon="4.27447">
        <ele>348</ele>
        <time>2018-05-16T11:50:13.1Z</time>
      </trkpt>
      <trkpt lat="44.66786" lon="4.27435">
        <ele>348</ele>
        <time>2018-05-16T11:50:16.1Z</time>
      </trkpt>
      <trkpt lat="44.668" lon="4.27429">
        <ele>347</ele>
        <time>2018-05-16T11:50:18.1Z</time>
      </trkpt>
      <trkpt lat="44.66814" lon="4.27429">
        <ele>347</ele>
        <time>2018-05-16T11:50:20.1Z</time>
      </trkpt>
      <trkpt lat="44.66829" lon="4.27425">
        <ele>347</ele>
        <time>2018-05-16T11:50:23.1Z</time>
      </trkpt>
      <trkpt lat="44.6685" lon="4.27408">
        <ele>347</ele>
        <time>2018-05-16T11:50:25.1Z</time>
      </trkpt>
      <trkpt lat="44.66867" lon="4.27384">
        <ele>346</ele>
        <time>2018-05-16T11:50:28.1Z</time>
      </trkpt>
      <trkpt lat="44.66877" lon="4.27367">
        <ele>346</ele>
        <time>2018-05-16T11:50:30.1Z</time>
      </trkpt>
      <trkpt lat="44.66892" lon="4.2734">
        <ele>344</ele>
        <time>2018-05-16T11:50:33.1Z</time>
      </trkpt>
      <trkpt lat="44.66903" lon="4.27321">
        <ele>343</ele>
        <time>2018-05-16T11:50:35.1Z</time>
      </trkpt>
      <trkpt lat="44.66916" lon="4.27295">
        <ele>341</ele>
        <time>2018-05-16T11:50:38.1Z</time>
      </trkpt>
      <trkpt lat="44.66925" lon="4.27276">
        <ele>340</ele>
        <time>2018-05-16T11:50:40.1Z</time>
      </trkpt>
      <trkpt lat="44.66939" lon="4.27252">
        <ele>339</ele>
        <time>2018-05-16T11:50:43.1Z</time>
      </trkpt>
      <trkpt lat="44.66948" lon="4.27238">
        <ele>339</ele>
        <time>2018-05-16T11:50:45.1Z</time>
      </trkpt>
      <trkpt lat="44.66965" lon="4.2722">
        <ele>339</ele>
        <time>2018-05-16T11:50:48.1Z</time>
      </trkpt>
      <trkpt lat="44.66978" lon="4.2721">
        <ele>338</ele>
        <time>2018-05-16T11:50:50.1Z</time>
      </trkpt>
      <trkpt lat="44.66996" lon="4.27198">
        <ele>338</ele>
        <time>2018-05-16T11:50:53.1Z</time>
      </trkpt>
      <trkpt lat="44.67009" lon="4.27193">
        <ele>338</ele>
        <time>2018-05-16T11:50:55.1Z</time>
      </trkpt>
      <trkpt lat="44.67027" lon="4.27187">
        <ele>338</ele>
        <time>2018-05-16T11:50:58.1Z</time>
      </trkpt>
      <trkpt lat="44.67039" lon="4.27184">
        <ele>339</ele>
        <time>2018-05-16T11:51:00.1Z</time>
      </trkpt>
      <trkpt lat="44.67051" lon="4.27178">
        <ele>340</ele>
        <time>2018-05-16T11:51:02.1Z</time>
      </trkpt>
      <trkpt lat="44.67067" lon="4.27162">
        <ele>341</ele>
        <time>2018-05-16T11:51:05.1Z</time>
      </trkpt>
      <trkpt lat="44.67075" lon="4.27148">
        <ele>341</ele>
        <time>2018-05-16T11:51:07.1Z</time>
      </trkpt>
      <trkpt lat="44.67084" lon="4.27125">
        <ele>342</ele>
        <time>2018-05-16T11:51:10.1Z</time>
      </trkpt>
      <trkpt lat="44.67086" lon="4.27109">
        <ele>341</ele>
        <time>2018-05-16T11:51:12.1Z</time>
      </trkpt>
      <trkpt lat="44.67077" lon="4.27096">
        <ele>341</ele>
        <time>2018-05-16T11:51:15.1Z</time>
      </trkpt>
      <trkpt lat="44.67066" lon="4.27093">
        <ele>341</ele>
        <time>2018-05-16T11:51:17.1Z</time>
      </trkpt>
      <trkpt lat="44.67055" lon="4.2709">
        <ele>340</ele>
        <time>2018-05-16T11:51:19.1Z</time>
      </trkpt>
      <trkpt lat="44.67038" lon="4.2708">
        <ele>339</ele>
        <time>2018-05-16T11:51:22.1Z</time>
      </trkpt>
      <trkpt lat="44.67027" lon="4.27071">
        <ele>336</ele>
        <time>2018-05-16T11:51:24.1Z</time>
      </trkpt>
      <trkpt lat="44.67018" lon="4.27053">
        <ele>334</ele>
        <time>2018-05-16T11:51:27.1Z</time>
      </trkpt>
      <trkpt lat="44.67014" lon="4.27038">
        <ele>333</ele>
        <time>2018-05-16T11:51:29.1Z</time>
      </trkpt>
      <trkpt lat="44.6701" lon="4.27012">
        <ele>333</ele>
        <time>2018-05-16T11:51:32.1Z</time>
      </trkpt>
      <trkpt lat="44.67009" lon="4.26998">
        <ele>333</ele>
        <time>2018-05-16T11:51:34.1Z</time>
      </trkpt>
      <trkpt lat="44.67007" lon="4.26987">
        <ele>333</ele>
        <time>2018-05-16T11:51:36.1Z</time>
      </trkpt>
      <trkpt lat="44.67006" lon="4.26975">
        <ele>332</ele>
        <time>2018-05-16T11:51:39.1Z</time>
      </trkpt>
      <trkpt lat="44.67005" lon="4.26966">
        <ele>332</ele>
        <time>2018-05-16T11:51:42.1Z</time>
      </trkpt>
      <trkpt lat="44.67005" lon="4.26962">
        <ele>332</ele>
        <time>2018-05-16T11:51:45.1Z</time>
      </trkpt>
      <trkpt lat="44.67006" lon="4.26962">
        <ele>332</ele>
        <time>2018-05-16T11:51:47.1Z</time>
      </trkpt>
      <trkpt lat="44.67006" lon="4.26961">
        <ele>332</ele>
        <time>2018-05-16T11:51:49.1Z</time>
      </trkpt>
      <trkpt lat="44.67006" lon="4.26957">
        <ele>332</ele>
        <time>2018-05-16T11:51:52.1Z</time>
      </trkpt>
      <trkpt lat="44.67005" lon="4.26949">
        <ele>332</ele>
        <time>2018-05-16T11:51:55.1Z</time>
      </trkpt>
      <trkpt lat="44.67004" lon="4.26937">
        <ele>332</ele>
        <time>2018-05-16T11:51:58.1Z</time>
      </trkpt>
      <trkpt lat="44.67004" lon="4.26929">
        <ele>332</ele>
        <time>2018-05-16T11:52:00.1Z</time>
      </trkpt>
      <trkpt lat="44.67005" lon="4.26921">
        <ele>332</ele>
        <time>2018-05-16T11:52:02.1Z</time>
      </trkpt>
      <trkpt lat="44.67006" lon="4.26911">
        <ele>332</ele>
        <time>2018-05-16T11:52:05.1Z</time>
      </trkpt>
      <trkpt lat="44.67005" lon="4.26907">
        <ele>332</ele>
        <time>2018-05-16T11:52:07.1Z</time>
      </trkpt>
      <trkpt lat="44.67004" lon="4.26904">
        <ele>332</ele>
        <time>2018-05-16T11:52:09.1Z</time>
      </trkpt>
      <trkpt lat="44.67004" lon="4.26902">
        <ele>333</ele>
        <time>2018-05-16T11:52:13.1Z</time>
      </trkpt>
      <trkpt lat="44.67003" lon="4.269">
        <ele>333</ele>
        <time>2018-05-16T11:52:16.1Z</time>
      </trkpt>
      <trkpt lat="44.67003" lon="4.26898">
        <ele>333</ele>
        <time>2018-05-16T11:52:18.1Z</time>
      </trkpt>
      <trkpt lat="44.67003" lon="4.26897">
        <ele>333</ele>
        <time>2018-05-16T11:52:21.1Z</time>
      </trkpt>
      <trkpt lat="44.67002" lon="4.26896">
        <ele>333</ele>
        <time>2018-05-16T11:52:24.1Z</time>
      </trkpt>
      <trkpt lat="44.67002" lon="4.26894">
        <ele>333</ele>
        <time>2018-05-16T11:52:26.1Z</time>
      </trkpt>
      <trkpt lat="44.67002" lon="4.26891">
        <ele>333</ele>
        <time>2018-05-16T11:52:28.1Z</time>
      </trkpt>
      <trkpt lat="44.67002" lon="4.26885">
        <ele>333</ele>
        <time>2018-05-16T11:52:31.1Z</time>
      </trkpt>
      <trkpt lat="44.67003" lon="4.26881">
        <ele>333</ele>
        <time>2018-05-16T11:52:33.1Z</time>
      </trkpt>
      <trkpt lat="44.67005" lon="4.26876">
        <ele>333</ele>
        <time>2018-05-16T11:52:35.1Z</time>
      </trkpt>
      <trkpt lat="44.67009" lon="4.2687">
        <ele>332</ele>
        <time>2018-05-16T11:52:37.1Z</time>
      </trkpt>
      <trkpt lat="44.67013" lon="4.26865">
        <ele>333</ele>
        <time>2018-05-16T11:52:39.1Z</time>
      </trkpt>
      <trkpt lat="44.67022" lon="4.26856">
        <ele>333</ele>
        <time>2018-05-16T11:52:42.1Z</time>
      </trkpt>
      <trkpt lat="44.67027" lon="4.26851">
        <ele>333</ele>
        <time>2018-05-16T11:52:44.1Z</time>
      </trkpt>
      <trkpt lat="44.67032" lon="4.26846">
        <ele>334</ele>
        <time>2018-05-16T11:52:46.1Z</time>
      </trkpt>
      <trkpt lat="44.67038" lon="4.26841">
        <ele>334</ele>
        <time>2018-05-16T11:52:48.1Z</time>
      </trkpt>
      <trkpt lat="44.67047" lon="4.26834">
        <ele>334</ele>
        <time>2018-05-16T11:52:51.1Z</time>
      </trkpt>
      <trkpt lat="44.67055" lon="4.26825">
        <ele>335</ele>
        <time>2018-05-16T11:52:54.1Z</time>
      </trkpt>
      <trkpt lat="44.67063" lon="4.26817">
        <ele>335</ele>
        <time>2018-05-16T11:52:57.1Z</time>
      </trkpt>
      <trkpt lat="44.6707" lon="4.2681">
        <ele>335</ele>
        <time>2018-05-16T11:53:00.1Z</time>
      </trkpt>
      <trkpt lat="44.67075" lon="4.26805">
        <ele>335</ele>
        <time>2018-05-16T11:53:02.1Z</time>
      </trkpt>
      <trkpt lat="44.67085" lon="4.26799">
        <ele>336</ele>
        <time>2018-05-16T11:53:05.1Z</time>
      </trkpt>
      <trkpt lat="44.67092" lon="4.26796">
        <ele>336</ele>
        <time>2018-05-16T11:53:07.1Z</time>
      </trkpt>
      <trkpt lat="44.67103" lon="4.26795">
        <ele>336</ele>
        <time>2018-05-16T11:53:10.1Z</time>
      </trkpt>
      <trkpt lat="44.67112" lon="4.26799">
        <ele>336</ele>
        <time>2018-05-16T11:53:13.1Z</time>
      </trkpt>
      <trkpt lat="44.67119" lon="4.26801">
        <ele>336</ele>
        <time>2018-05-16T11:53:15.1Z</time>
      </trkpt>
      <trkpt lat="44.67125" lon="4.26804">
        <ele>337</ele>
        <time>2018-05-16T11:53:17.1Z</time>
      </trkpt>
      <trkpt lat="44.67135" lon="4.26808">
        <ele>337</ele>
        <time>2018-05-16T11:53:20.1Z</time>
      </trkpt>
      <trkpt lat="44.67145" lon="4.26814">
        <ele>338</ele>
        <time>2018-05-16T11:53:23.1Z</time>
      </trkpt>
      <trkpt lat="44.67153" lon="4.26823">
        <ele>337</ele>
        <time>2018-05-16T11:53:26.1Z</time>
      </trkpt>
      <trkpt lat="44.67159" lon="4.26835">
        <ele>338</ele>
        <time>2018-05-16T11:53:29.1Z</time>
      </trkpt>
      <trkpt lat="44.67163" lon="4.26844">
        <ele>338</ele>
        <time>2018-05-16T11:53:31.1Z</time>
      </trkpt>
      <trkpt lat="44.6717" lon="4.26857">
        <ele>339</ele>
        <time>2018-05-16T11:53:34.1Z</time>
      </trkpt>
      <trkpt lat="44.67174" lon="4.26865">
        <ele>339</ele>
        <time>2018-05-16T11:53:36.1Z</time>
      </trkpt>
      <trkpt lat="44.67178" lon="4.26872">
        <ele>339</ele>
        <time>2018-05-16T11:53:38.1Z</time>
      </trkpt>
      <trkpt lat="44.67184" lon="4.26884">
        <ele>339</ele>
        <time>2018-05-16T11:53:41.1Z</time>
      </trkpt>
      <trkpt lat="44.67189" lon="4.26891">
        <ele>339</ele>
        <time>2018-05-16T11:53:43.1Z</time>
      </trkpt>
      <trkpt lat="44.67196" lon="4.26902">
        <ele>339</ele>
        <time>2018-05-16T11:53:46.1Z</time>
      </trkpt>
      <trkpt lat="44.67201" lon="4.26909">
        <ele>340</ele>
        <time>2018-05-16T11:53:48.1Z</time>
      </trkpt>
      <trkpt lat="44.67206" lon="4.26916">
        <ele>340</ele>
        <time>2018-05-16T11:53:50.1Z</time>
      </trkpt>
      <trkpt lat="44.67212" lon="4.26922">
        <ele>341</ele>
        <time>2018-05-16T11:53:52.1Z</time>
      </trkpt>
      <trkpt lat="44.6722" lon="4.26931">
        <ele>341</ele>
        <time>2018-05-16T11:53:55.1Z</time>
      </trkpt>
      <trkpt lat="44.67227" lon="4.26941">
        <ele>341</ele>
        <time>2018-05-16T11:53:58.1Z</time>
      </trkpt>
      <trkpt lat="44.67231" lon="4.26949">
        <ele>341</ele>
        <time>2018-05-16T11:54:00.1Z</time>
      </trkpt>
      <trkpt lat="44.67238" lon="4.26962">
        <ele>342</ele>
        <time>2018-05-16T11:54:03.1Z</time>
      </trkpt>
      <trkpt lat="44.67245" lon="4.26975">
        <ele>342</ele>
        <time>2018-05-16T11:54:06.1Z</time>
      </trkpt>
      <trkpt lat="44.6725" lon="4.26989">
        <ele>343</ele>
        <time>2018-05-16T11:54:09.1Z</time>
      </trkpt>
      <trkpt lat="44.67256" lon="4.27002">
        <ele>343</ele>
        <time>2018-05-16T11:54:12.1Z</time>
      </trkpt>
      <trkpt lat="44.6726" lon="4.27014">
        <ele>343</ele>
        <time>2018-05-16T11:54:15.1Z</time>
      </trkpt>
      <trkpt lat="44.67262" lon="4.27019">
        <ele>344</ele>
        <time>2018-05-16T11:54:17.1Z</time>
      </trkpt>
      <trkpt lat="44.67265" lon="4.27025">
        <ele>344</ele>
        <time>2018-05-16T11:54:20.1Z</time>
      </trkpt>
      <trkpt lat="44.6727" lon="4.27033">
        <ele>344</ele>
        <time>2018-05-16T11:54:23.1Z</time>
      </trkpt>
      <trkpt lat="44.67273" lon="4.27046">
        <ele>345</ele>
        <time>2018-05-16T11:54:26.1Z</time>
      </trkpt>
      <trkpt lat="44.67273" lon="4.27058">
        <ele>345</ele>
        <time>2018-05-16T11:54:28.1Z</time>
      </trkpt>
      <trkpt lat="44.67274" lon="4.27071">
        <ele>346</ele>
        <time>2018-05-16T11:54:30.1Z</time>
      </trkpt>
      <trkpt lat="44.67276" lon="4.27093">
        <ele>347</ele>
        <time>2018-05-16T11:54:33.1Z</time>
      </trkpt>
      <trkpt lat="44.67276" lon="4.27109">
        <ele>347</ele>
        <time>2018-05-16T11:54:35.1Z</time>
      </trkpt>
      <trkpt lat="44.67275" lon="4.27126">
        <ele>347</ele>
        <time>2018-05-16T11:54:37.1Z</time>
      </trkpt>
      <trkpt lat="44.67273" lon="4.27151">
        <ele>347</ele>
        <time>2018-05-16T11:54:40.1Z</time>
      </trkpt>
      <trkpt lat="44.67265" lon="4.27174">
        <ele>347</ele>
        <time>2018-05-16T11:54:43.1Z</time>
      </trkpt>
      <trkpt lat="44.67258" lon="4.27189">
        <ele>346</ele>
        <time>2018-05-16T11:54:45.1Z</time>
      </trkpt>
      <trkpt lat="44.67243" lon="4.27209">
        <ele>345</ele>
        <time>2018-05-16T11:54:48.1Z</time>
      </trkpt>
      <trkpt lat="44.67225" lon="4.27225">
        <ele>345</ele>
        <time>2018-05-16T11:54:51.1Z</time>
      </trkpt>
      <trkpt lat="44.67205" lon="4.2724">
        <ele>344</ele>
        <time>2018-05-16T11:54:54.1Z</time>
      </trkpt>
      <trkpt lat="44.67186" lon="4.27256">
        <ele>343</ele>
        <time>2018-05-16T11:54:57.1Z</time>
      </trkpt>
      <trkpt lat="44.67169" lon="4.27277">
        <ele>343</ele>
        <time>2018-05-16T11:55:00.1Z</time>
      </trkpt>
      <trkpt lat="44.67154" lon="4.273">
        <ele>343</ele>
        <time>2018-05-16T11:55:03.1Z</time>
      </trkpt>
      <trkpt lat="44.67144" lon="4.27317">
        <ele>342</ele>
        <time>2018-05-16T11:55:05.1Z</time>
      </trkpt>
      <trkpt lat="44.67135" lon="4.27335">
        <ele>341</ele>
        <time>2018-05-16T11:55:07.1Z</time>
      </trkpt>
      <trkpt lat="44.67121" lon="4.27361">
        <ele>340</ele>
        <time>2018-05-16T11:55:10.1Z</time>
      </trkpt>
      <trkpt lat="44.67111" lon="4.27378">
        <ele>340</ele>
        <time>2018-05-16T11:55:12.1Z</time>
      </trkpt>
      <trkpt lat="44.67097" lon="4.27404">
        <ele>339</ele>
        <time>2018-05-16T11:55:15.1Z</time>
      </trkpt>
      <trkpt lat="44.67088" lon="4.2742">
        <ele>339</ele>
        <time>2018-05-16T11:55:17.1Z</time>
      </trkpt>
      <trkpt lat="44.67079" lon="4.27437">
        <ele>338</ele>
        <time>2018-05-16T11:55:19.1Z</time>
      </trkpt>
      <trkpt lat="44.67066" lon="4.27462">
        <ele>337</ele>
        <time>2018-05-16T11:55:22.1Z</time>
      </trkpt>
      <trkpt lat="44.67051" lon="4.2749">
        <ele>337</ele>
        <time>2018-05-16T11:55:25.1Z</time>
      </trkpt>
      <trkpt lat="44.67041" lon="4.27508">
        <ele>337</ele>
        <time>2018-05-16T11:55:27.1Z</time>
      </trkpt>
      <trkpt lat="44.67025" lon="4.27537">
        <ele>336</ele>
        <time>2018-05-16T11:55:30.1Z</time>
      </trkpt>
      <trkpt lat="44.67014" lon="4.27557">
        <ele>336</ele>
        <time>2018-05-16T11:55:32.1Z</time>
      </trkpt>
      <trkpt lat="44.66997" lon="4.27586">
        <ele>335</ele>
        <time>2018-05-16T11:55:35.1Z</time>
      </trkpt>
      <trkpt lat="44.66986" lon="4.27604">
        <ele>335</ele>
        <time>2018-05-16T11:55:37.1Z</time>
      </trkpt>
      <trkpt lat="44.66974" lon="4.27621">
        <ele>334</ele>
        <time>2018-05-16T11:55:39.1Z</time>
      </trkpt>
      <trkpt lat="44.66956" lon="4.27641">
        <ele>334</ele>
        <time>2018-05-16T11:55:42.1Z</time>
      </trkpt>
      <trkpt lat="44.66934" lon="4.2766">
        <ele>333</ele>
        <time>2018-05-16T11:55:45.1Z</time>
      </trkpt>
      <trkpt lat="44.66918" lon="4.27672">
        <ele>333</ele>
        <time>2018-05-16T11:55:47.1Z</time>
      </trkpt>
      <trkpt lat="44.66894" lon="4.27689">
        <ele>333</ele>
        <time>2018-05-16T11:55:50.1Z</time>
      </trkpt>
      <trkpt lat="44.66878" lon="4.27702">
        <ele>333</ele>
        <time>2018-05-16T11:55:52.1Z</time>
      </trkpt>
      <trkpt lat="44.66857" lon="4.27724">
        <ele>332</ele>
        <time>2018-05-16T11:55:55.1Z</time>
      </trkpt>
      <trkpt lat="44.66844" lon="4.27742">
        <ele>332</ele>
        <time>2018-05-16T11:55:57.1Z</time>
      </trkpt>
      <trkpt lat="44.66834" lon="4.27763">
        <ele>331</ele>
        <time>2018-05-16T11:55:59.1Z</time>
      </trkpt>
      <trkpt lat="44.66826" lon="4.27784">
        <ele>330</ele>
        <time>2018-05-16T11:56:01.1Z</time>
      </trkpt>
      <trkpt lat="44.66818" lon="4.27819">
        <ele>329</ele>
        <time>2018-05-16T11:56:04.1Z</time>
      </trkpt>
      <trkpt lat="44.66815" lon="4.27843">
        <ele>328</ele>
        <time>2018-05-16T11:56:06.1Z</time>
      </trkpt>
      <trkpt lat="44.66813" lon="4.2788">
        <ele>328</ele>
        <time>2018-05-16T11:56:09.1Z</time>
      </trkpt>
      <trkpt lat="44.66813" lon="4.27918">
        <ele>329</ele>
        <time>2018-05-16T11:56:12.1Z</time>
      </trkpt>
      <trkpt lat="44.66812" lon="4.27956">
        <ele>329</ele>
        <time>2018-05-16T11:56:15.1Z</time>
      </trkpt>
      <trkpt lat="44.66812" lon="4.27981">
        <ele>328</ele>
        <time>2018-05-16T11:56:17.1Z</time>
      </trkpt>
      <trkpt lat="44.66811" lon="4.28018">
        <ele>328</ele>
        <time>2018-05-16T11:56:20.1Z</time>
      </trkpt>
      <trkpt lat="44.66811" lon="4.28056">
        <ele>328</ele>
        <time>2018-05-16T11:56:23.1Z</time>
      </trkpt>
      <trkpt lat="44.66811" lon="4.28081">
        <ele>327</ele>
        <time>2018-05-16T11:56:25.1Z</time>
      </trkpt>
      <trkpt lat="44.6681" lon="4.28106">
        <ele>326</ele>
        <time>2018-05-16T11:56:27.1Z</time>
      </trkpt>
      <trkpt lat="44.66813" lon="4.28143">
        <ele>325</ele>
        <time>2018-05-16T11:56:30.1Z</time>
      </trkpt>
      <trkpt lat="44.66816" lon="4.28166">
        <ele>324</ele>
        <time>2018-05-16T11:56:32.1Z</time>
      </trkpt>
      <trkpt lat="44.66824" lon="4.28201">
        <ele>324</ele>
        <time>2018-05-16T11:56:35.1Z</time>
      </trkpt>
      <trkpt lat="44.66835" lon="4.28234">
        <ele>322</ele>
        <time>2018-05-16T11:56:38.1Z</time>
      </trkpt>
      <trkpt lat="44.66846" lon="4.28269">
        <ele>321</ele>
        <time>2018-05-16T11:56:41.1Z</time>
      </trkpt>
      <trkpt lat="44.66853" lon="4.28293">
        <ele>321</ele>
        <time>2018-05-16T11:56:43.1Z</time>
      </trkpt>
      <trkpt lat="44.6686" lon="4.2833">
        <ele>322</ele>
        <time>2018-05-16T11:56:46.1Z</time>
      </trkpt>
      <trkpt lat="44.66863" lon="4.28354">
        <ele>322</ele>
        <time>2018-05-16T11:56:48.1Z</time>
      </trkpt>
      <trkpt lat="44.66869" lon="4.28388">
        <ele>322</ele>
        <time>2018-05-16T11:56:51.1Z</time>
      </trkpt>
      <trkpt lat="44.66872" lon="4.28409">
        <ele>321</ele>
        <time>2018-05-16T11:56:53.1Z</time>
      </trkpt>
      <trkpt lat="44.66874" lon="4.28441">
        <ele>320</ele>
        <time>2018-05-16T11:56:56.1Z</time>
      </trkpt>
      <trkpt lat="44.66875" lon="4.28462">
        <ele>320</ele>
        <time>2018-05-16T11:56:58.1Z</time>
      </trkpt>
      <trkpt lat="44.66877" lon="4.28481">
        <ele>319</ele>
        <time>2018-05-16T11:57:00.1Z</time>
      </trkpt>
      <trkpt lat="44.66879" lon="4.28507">
        <ele>319</ele>
        <time>2018-05-16T11:57:03.1Z</time>
      </trkpt>
      <trkpt lat="44.66882" lon="4.28523">
        <ele>319</ele>
        <time>2018-05-16T11:57:05.1Z</time>
      </trkpt>
      <trkpt lat="44.66882" lon="4.28542">
        <ele>319</ele>
        <time>2018-05-16T11:57:08.1Z</time>
      </trkpt>
      <trkpt lat="44.6688" lon="4.28561">
        <ele>319</ele>
        <time>2018-05-16T11:57:11.1Z</time>
      </trkpt>
      <trkpt lat="44.66878" lon="4.28574">
        <ele>319</ele>
        <time>2018-05-16T11:57:13.1Z</time>
      </trkpt>
      <trkpt lat="44.6688" lon="4.28589">
        <ele>319</ele>
        <time>2018-05-16T11:57:15.1Z</time>
      </trkpt>
      <trkpt lat="44.66883" lon="4.28607">
        <ele>318</ele>
        <time>2018-05-16T11:57:17.1Z</time>
      </trkpt>
      <trkpt lat="44.66889" lon="4.28635">
        <ele>318</ele>
        <time>2018-05-16T11:57:20.1Z</time>
      </trkpt>
      <trkpt lat="44.66895" lon="4.28654">
        <ele>318</ele>
        <time>2018-05-16T11:57:22.1Z</time>
      </trkpt>
      <trkpt lat="44.66903" lon="4.28683">
        <ele>317</ele>
        <time>2018-05-16T11:57:25.1Z</time>
      </trkpt>
      <trkpt lat="44.66909" lon="4.28701">
        <ele>316</ele>
        <time>2018-05-16T11:57:27.1Z</time>
      </trkpt>
      <trkpt lat="44.66914" lon="4.28718">
        <ele>316</ele>
        <time>2018-05-16T11:57:29.1Z</time>
      </trkpt>
      <trkpt lat="44.66919" lon="4.28735">
        <ele>315</ele>
        <time>2018-05-16T11:57:31.1Z</time>
      </trkpt>
      <trkpt lat="44.66926" lon="4.28761">
        <ele>315</ele>
        <time>2018-05-16T11:57:34.1Z</time>
      </trkpt>
      <trkpt lat="44.66931" lon="4.28777">
        <ele>316</ele>
        <time>2018-05-16T11:57:36.1Z</time>
      </trkpt>
      <trkpt lat="44.66939" lon="4.28801">
        <ele>316</ele>
        <time>2018-05-16T11:57:39.1Z</time>
      </trkpt>
      <trkpt lat="44.66946" lon="4.28815">
        <ele>315</ele>
        <time>2018-05-16T11:57:41.1Z</time>
      </trkpt>
      <trkpt lat="44.66958" lon="4.28831">
        <ele>314</ele>
        <time>2018-05-16T11:57:44.1Z</time>
      </trkpt>
      <trkpt lat="44.66975" lon="4.28835">
        <ele>315</ele>
        <time>2018-05-16T11:57:47.1Z</time>
      </trkpt>
      <trkpt lat="44.6699" lon="4.28835">
        <ele>316</ele>
        <time>2018-05-16T11:57:50.1Z</time>
      </trkpt>
      <trkpt lat="44.67003" lon="4.28834">
        <ele>317</ele>
        <time>2018-05-16T11:57:53.1Z</time>
      </trkpt>
      <trkpt lat="44.67013" lon="4.28842">
        <ele>316</ele>
        <time>2018-05-16T11:57:56.1Z</time>
      </trkpt>
      <trkpt lat="44.67016" lon="4.28852">
        <ele>317</ele>
        <time>2018-05-16T11:57:58.1Z</time>
      </trkpt>
      <trkpt lat="44.67017" lon="4.28868">
        <ele>317</ele>
        <time>2018-05-16T11:58:01.1Z</time>
      </trkpt>
      <trkpt lat="44.67017" lon="4.28879">
        <ele>317</ele>
        <time>2018-05-16T11:58:03.1Z</time>
      </trkpt>
      <trkpt lat="44.67018" lon="4.28895">
        <ele>318</ele>
        <time>2018-05-16T11:58:06.1Z</time>
      </trkpt>
      <trkpt lat="44.67019" lon="4.2891">
        <ele>318</ele>
        <time>2018-05-16T11:58:09.1Z</time>
      </trkpt>
      <trkpt lat="44.67021" lon="4.28925">
        <ele>318</ele>
        <time>2018-05-16T11:58:12.1Z</time>
      </trkpt>
      <trkpt lat="44.67024" lon="4.28939">
        <ele>318</ele>
        <time>2018-05-16T11:58:15.1Z</time>
      </trkpt>
      <trkpt lat="44.67021" lon="4.28954">
        <ele>319</ele>
        <time>2018-05-16T11:58:18.1Z</time>
      </trkpt>
      <trkpt lat="44.67017" lon="4.28963">
        <ele>319</ele>
        <time>2018-05-16T11:58:20.1Z</time>
      </trkpt>
      <trkpt lat="44.67012" lon="4.28973">
        <ele>319</ele>
        <time>2018-05-16T11:58:22.1Z</time>
      </trkpt>
      <trkpt lat="44.67003" lon="4.28988">
        <ele>319</ele>
        <time>2018-05-16T11:58:25.1Z</time>
      </trkpt>
      <trkpt lat="44.66997" lon="4.28997">
        <ele>319</ele>
        <time>2018-05-16T11:58:27.1Z</time>
      </trkpt>
      <trkpt lat="44.66991" lon="4.29008">
        <ele>320</ele>
        <time>2018-05-16T11:58:29.1Z</time>
      </trkpt>
      <trkpt lat="44.66983" lon="4.29023">
        <ele>321</ele>
        <time>2018-05-16T11:58:32.1Z</time>
      </trkpt>
      <trkpt lat="44.66975" lon="4.29036">
        <ele>322</ele>
        <time>2018-05-16T11:58:35.1Z</time>
      </trkpt>
      <trkpt lat="44.66967" lon="4.29048">
        <ele>322</ele>
        <time>2018-05-16T11:58:38.1Z</time>
      </trkpt>
      <trkpt lat="44.66963" lon="4.29055">
        <ele>323</ele>
        <time>2018-05-16T11:58:40.1Z</time>
      </trkpt>
      <trkpt lat="44.66958" lon="4.29065">
        <ele>323</ele>
        <time>2018-05-16T11:58:43.1Z</time>
      </trkpt>
      <trkpt lat="44.66954" lon="4.29071">
        <ele>324</ele>
        <time>2018-05-16T11:58:45.1Z</time>
      </trkpt>
      <trkpt lat="44.66949" lon="4.29075">
        <ele>324</ele>
        <time>2018-05-16T11:58:47.1Z</time>
      </trkpt>
      <trkpt lat="44.66938" lon="4.29082">
        <ele>324</ele>
        <time>2018-05-16T11:58:50.1Z</time>
      </trkpt>
      <trkpt lat="44.66928" lon="4.29086">
        <ele>324</ele>
        <time>2018-05-16T11:58:52.1Z</time>
      </trkpt>
      <trkpt lat="44.66917" lon="4.29089">
        <ele>323</ele>
        <time>2018-05-16T11:58:54.1Z</time>
      </trkpt>
      <trkpt lat="44.66906" lon="4.29092">
        <ele>322</ele>
        <time>2018-05-16T11:58:56.1Z</time>
      </trkpt>
      <trkpt lat="44.6689" lon="4.29094">
        <ele>320</ele>
        <time>2018-05-16T11:58:59.1Z</time>
      </trkpt>
      <trkpt lat="44.66879" lon="4.29092">
        <ele>319</ele>
        <time>2018-05-16T11:59:01.1Z</time>
      </trkpt>
      <trkpt lat="44.66868" lon="4.29087">
        <ele>318</ele>
        <time>2018-05-16T11:59:03.1Z</time>
      </trkpt>
      <trkpt lat="44.66856" lon="4.29083">
        <ele>317</ele>
        <time>2018-05-16T11:59:05.1Z</time>
      </trkpt>
      <trkpt lat="44.66844" lon="4.29078">
        <ele>317</ele>
        <time>2018-05-16T11:59:07.1Z</time>
      </trkpt>
      <trkpt lat="44.66827" lon="4.29069">
        <ele>316</ele>
        <time>2018-05-16T11:59:10.1Z</time>
      </trkpt>
      <trkpt lat="44.66816" lon="4.29063">
        <ele>314</ele>
        <time>2018-05-16T11:59:12.1Z</time>
      </trkpt>
      <trkpt lat="44.66798" lon="4.29064">
        <ele>313</ele>
        <time>2018-05-16T11:59:15.1Z</time>
      </trkpt>
      <trkpt lat="44.66779" lon="4.29069">
        <ele>311</ele>
        <time>2018-05-16T11:59:18.1Z</time>
      </trkpt>
      <trkpt lat="44.66761" lon="4.29074">
        <ele>311</ele>
        <time>2018-05-16T11:59:21.1Z</time>
      </trkpt>
      <trkpt lat="44.66748" lon="4.29079">
        <ele>311</ele>
        <time>2018-05-16T11:59:23.1Z</time>
      </trkpt>
      <trkpt lat="44.66729" lon="4.29082">
        <ele>312</ele>
        <time>2018-05-16T11:59:26.1Z</time>
      </trkpt>
      <trkpt lat="44.66716" lon="4.29083">
        <ele>312</ele>
        <time>2018-05-16T11:59:28.1Z</time>
      </trkpt>
      <trkpt lat="44.66697" lon="4.29086">
        <ele>312</ele>
        <time>2018-05-16T11:59:31.1Z</time>
      </trkpt>
      <trkpt lat="44.66685" lon="4.29089">
        <ele>311</ele>
        <time>2018-05-16T11:59:33.1Z</time>
      </trkpt>
      <trkpt lat="44.66666" lon="4.29094">
        <ele>311</ele>
        <time>2018-05-16T11:59:36.1Z</time>
      </trkpt>
      <trkpt lat="44.66655" lon="4.29097">
        <ele>311</ele>
        <time>2018-05-16T11:59:38.1Z</time>
      </trkpt>
      <trkpt lat="44.66638" lon="4.29098">
        <ele>311</ele>
        <time>2018-05-16T11:59:41.1Z</time>
      </trkpt>
      <trkpt lat="44.66623" lon="4.29102">
        <ele>311</ele>
        <time>2018-05-16T11:59:44.1Z</time>
      </trkpt>
      <trkpt lat="44.66614" lon="4.29106">
        <ele>311</ele>
        <time>2018-05-16T11:59:46.1Z</time>
      </trkpt>
      <trkpt lat="44.666" lon="4.29109">
        <ele>311</ele>
        <time>2018-05-16T11:59:49.1Z</time>
      </trkpt>
      <trkpt lat="44.6659" lon="4.29113">
        <ele>311</ele>
        <time>2018-05-16T11:59:51.1Z</time>
      </trkpt>
      <trkpt lat="44.66578" lon="4.29123">
        <ele>311</ele>
        <time>2018-05-16T11:59:54.1Z</time>
      </trkpt>
      <trkpt lat="44.66569" lon="4.29129">
        <ele>311</ele>
        <time>2018-05-16T11:59:56.1Z</time>
      </trkpt>
      <trkpt lat="44.66557" lon="4.2914">
        <ele>312</ele>
        <time>2018-05-16T11:59:59.1Z</time>
      </trkpt>
      <trkpt lat="44.66552" lon="4.2915">
        <ele>311</ele>
        <time>2018-05-16T12:00:01.1Z</time>
      </trkpt>
      <trkpt lat="44.6655" lon="4.29163">
        <ele>311</ele>
        <time>2018-05-16T12:00:03.1Z</time>
      </trkpt>
      <trkpt lat="44.66547" lon="4.29183">
        <ele>312</ele>
        <time>2018-05-16T12:00:06.1Z</time>
      </trkpt>
      <trkpt lat="44.66545" lon="4.29196">
        <ele>312</ele>
        <time>2018-05-16T12:00:08.1Z</time>
      </trkpt>
      <trkpt lat="44.66544" lon="4.29216">
        <ele>312</ele>
        <time>2018-05-16T12:00:11.1Z</time>
      </trkpt>
      <trkpt lat="44.66542" lon="4.29237">
        <ele>312</ele>
        <time>2018-05-16T12:00:14.1Z</time>
      </trkpt>
      <trkpt lat="44.66541" lon="4.29251">
        <ele>313</ele>
        <time>2018-05-16T12:00:16.1Z</time>
      </trkpt>
      <trkpt lat="44.6654" lon="4.29272">
        <ele>312</ele>
        <time>2018-05-16T12:00:19.1Z</time>
      </trkpt>
      <trkpt lat="44.66539" lon="4.29286">
        <ele>312</ele>
        <time>2018-05-16T12:00:21.1Z</time>
      </trkpt>
      <trkpt lat="44.66539" lon="4.29307">
        <ele>312</ele>
        <time>2018-05-16T12:00:24.1Z</time>
      </trkpt>
      <trkpt lat="44.66538" lon="4.29329">
        <ele>312</ele>
        <time>2018-05-16T12:00:27.1Z</time>
      </trkpt>
      <trkpt lat="44.66535" lon="4.29352">
        <ele>312</ele>
        <time>2018-05-16T12:00:30.1Z</time>
      </trkpt>
      <trkpt lat="44.66535" lon="4.29367">
        <ele>312</ele>
        <time>2018-05-16T12:00:32.1Z</time>
      </trkpt>
      <trkpt lat="44.66533" lon="4.29389">
        <ele>311</ele>
        <time>2018-05-16T12:00:35.1Z</time>
      </trkpt>
      <trkpt lat="44.66533" lon="4.29403">
        <ele>311</ele>
        <time>2018-05-16T12:00:37.1Z</time>
      </trkpt>
      <trkpt lat="44.66533" lon="4.29424">
        <ele>311</ele>
        <time>2018-05-16T12:00:40.1Z</time>
      </trkpt>
      <trkpt lat="44.66533" lon="4.29438">
        <ele>311</ele>
        <time>2018-05-16T12:00:42.1Z</time>
      </trkpt>
      <trkpt lat="44.66533" lon="4.29453">
        <ele>312</ele>
        <time>2018-05-16T12:00:44.1Z</time>
      </trkpt>
      <trkpt lat="44.66534" lon="4.29474">
        <ele>312</ele>
        <time>2018-05-16T12:00:47.1Z</time>
      </trkpt>
      <trkpt lat="44.66535" lon="4.29489">
        <ele>312</ele>
        <time>2018-05-16T12:00:49.1Z</time>
      </trkpt>
      <trkpt lat="44.66536" lon="4.29503">
        <ele>312</ele>
        <time>2018-05-16T12:00:51.1Z</time>
      </trkpt>
      <trkpt lat="44.66537" lon="4.29518">
        <ele>312</ele>
        <time>2018-05-16T12:00:53.1Z</time>
      </trkpt>
      <trkpt lat="44.66537" lon="4.29539">
        <ele>312</ele>
        <time>2018-05-16T12:00:56.1Z</time>
      </trkpt>
      <trkpt lat="44.66537" lon="4.29554">
        <ele>312</ele>
        <time>2018-05-16T12:00:58.1Z</time>
      </trkpt>
      <trkpt lat="44.66539" lon="4.29576">
        <ele>311</ele>
        <time>2018-05-16T12:01:01.1Z</time>
      </trkpt>
      <trkpt lat="44.66542" lon="4.29597">
        <ele>311</ele>
        <time>2018-05-16T12:01:04.1Z</time>
      </trkpt>
      <trkpt lat="44.66547" lon="4.29616">
        <ele>311</ele>
        <time>2018-05-16T12:01:07.1Z</time>
      </trkpt>
      <trkpt lat="44.66547" lon="4.2963">
        <ele>311</ele>
        <time>2018-05-16T12:01:09.1Z</time>
      </trkpt>
      <trkpt lat="44.66543" lon="4.29643">
        <ele>311</ele>
        <time>2018-05-16T12:01:11.1Z</time>
      </trkpt>
      <trkpt lat="44.66537" lon="4.29654">
        <ele>311</ele>
        <time>2018-05-16T12:01:13.1Z</time>
      </trkpt>
      <trkpt lat="44.66529" lon="4.29662">
        <ele>310</ele>
        <time>2018-05-16T12:01:15.1Z</time>
      </trkpt>
      <trkpt lat="44.6652" lon="4.2967">
        <ele>310</ele>
        <time>2018-05-16T12:01:17.1Z</time>
      </trkpt>
      <trkpt lat="44.66505" lon="4.29683">
        <ele>310</ele>
        <time>2018-05-16T12:01:20.1Z</time>
      </trkpt>
      <trkpt lat="44.66488" lon="4.29696">
        <ele>309</ele>
        <time>2018-05-16T12:01:23.1Z</time>
      </trkpt>
      <trkpt lat="44.66477" lon="4.29704">
        <ele>308</ele>
        <time>2018-05-16T12:01:25.1Z</time>
      </trkpt>
      <trkpt lat="44.66462" lon="4.29714">
        <ele>307</ele>
        <time>2018-05-16T12:01:28.1Z</time>
      </trkpt>
      <trkpt lat="44.66442" lon="4.2972">
        <ele>306</ele>
        <time>2018-05-16T12:01:31.1Z</time>
      </trkpt>
      <trkpt lat="44.66426" lon="4.2972">
        <ele>306</ele>
        <time>2018-05-16T12:01:33.1Z</time>
      </trkpt>
      <trkpt lat="44.6641" lon="4.2972">
        <ele>305</ele>
        <time>2018-05-16T12:01:35.1Z</time>
      </trkpt>
      <trkpt lat="44.66387" lon="4.29729">
        <ele>305</ele>
        <time>2018-05-16T12:01:38.1Z</time>
      </trkpt>
      <trkpt lat="44.66374" lon="4.29742">
        <ele>305</ele>
        <time>2018-05-16T12:01:40.1Z</time>
      </trkpt>
      <trkpt lat="44.66357" lon="4.29761">
        <ele>304</ele>
        <time>2018-05-16T12:01:43.1Z</time>
      </trkpt>
      <trkpt lat="44.66344" lon="4.29771">
        <ele>304</ele>
        <time>2018-05-16T12:01:45.1Z</time>
      </trkpt>
      <trkpt lat="44.66324" lon="4.29783">
        <ele>304</ele>
        <time>2018-05-16T12:01:48.1Z</time>
      </trkpt>
      <trkpt lat="44.66311" lon="4.2979">
        <ele>304</ele>
        <time>2018-05-16T12:01:50.1Z</time>
      </trkpt>
      <trkpt lat="44.6629" lon="4.29801">
        <ele>303</ele>
        <time>2018-05-16T12:01:53.1Z</time>
      </trkpt>
      <trkpt lat="44.66277" lon="4.29808">
        <ele>303</ele>
        <time>2018-05-16T12:01:55.1Z</time>
      </trkpt>
      <trkpt lat="44.66265" lon="4.29815">
        <ele>302</ele>
        <time>2018-05-16T12:01:57.1Z</time>
      </trkpt>
      <trkpt lat="44.66254" lon="4.29824">
        <ele>302</ele>
        <time>2018-05-16T12:01:59.1Z</time>
      </trkpt>
      <trkpt lat="44.66244" lon="4.29834">
        <ele>302</ele>
        <time>2018-05-16T12:02:01.1Z</time>
      </trkpt>
      <trkpt lat="44.66231" lon="4.29846">
        <ele>301</ele>
        <time>2018-05-16T12:02:04.1Z</time>
      </trkpt>
      <trkpt lat="44.6622" lon="4.29857">
        <ele>301</ele>
        <time>2018-05-16T12:02:07.1Z</time>
      </trkpt>
      <trkpt lat="44.66207" lon="4.29867">
        <ele>301</ele>
        <time>2018-05-16T12:02:10.1Z</time>
      </trkpt>
      <trkpt lat="44.66196" lon="4.29878">
        <ele>302</ele>
        <time>2018-05-16T12:02:13.1Z</time>
      </trkpt>
      <trkpt lat="44.6619" lon="4.29887">
        <ele>302</ele>
        <time>2018-05-16T12:02:15.1Z</time>
      </trkpt>
      <trkpt lat="44.66182" lon="4.29902">
        <ele>302</ele>
        <time>2018-05-16T12:02:18.1Z</time>
      </trkpt>
      <trkpt lat="44.66175" lon="4.29911">
        <ele>302</ele>
        <time>2018-05-16T12:02:20.1Z</time>
      </trkpt>
      <trkpt lat="44.66163" lon="4.29923">
        <ele>303</ele>
        <time>2018-05-16T12:02:23.1Z</time>
      </trkpt>
      <trkpt lat="44.66156" lon="4.29931">
        <ele>304</ele>
        <time>2018-05-16T12:02:25.1Z</time>
      </trkpt>
      <trkpt lat="44.66147" lon="4.29943">
        <ele>305</ele>
        <time>2018-05-16T12:02:28.1Z</time>
      </trkpt>
      <trkpt lat="44.66141" lon="4.2995">
        <ele>305</ele>
        <time>2018-05-16T12:02:30.1Z</time>
      </trkpt>
      <trkpt lat="44.66133" lon="4.29958">
        <ele>306</ele>
        <time>2018-05-16T12:02:33.1Z</time>
      </trkpt>
      <trkpt lat="44.66124" lon="4.29963">
        <ele>307</ele>
        <time>2018-05-16T12:02:36.1Z</time>
      </trkpt>
      <trkpt lat="44.66114" lon="4.29969">
        <ele>308</ele>
        <time>2018-05-16T12:02:39.1Z</time>
      </trkpt>
      <trkpt lat="44.66103" lon="4.29974">
        <ele>308</ele>
        <time>2018-05-16T12:02:42.1Z</time>
      </trkpt>
      <trkpt lat="44.66092" lon="4.29978">
        <ele>309</ele>
        <time>2018-05-16T12:02:45.1Z</time>
      </trkpt>
      <trkpt lat="44.66081" lon="4.29978">
        <ele>310</ele>
        <time>2018-05-16T12:02:48.1Z</time>
      </trkpt>
      <trkpt lat="44.6607" lon="4.29976">
        <ele>310</ele>
        <time>2018-05-16T12:02:51.1Z</time>
      </trkpt>
      <trkpt lat="44.66063" lon="4.29976">
        <ele>311</ele>
        <time>2018-05-16T12:02:53.1Z</time>
      </trkpt>
      <trkpt lat="44.66056" lon="4.2998">
        <ele>311</ele>
        <time>2018-05-16T12:02:55.1Z</time>
      </trkpt>
      <trkpt lat="44.6605" lon="4.29991">
        <ele>311</ele>
        <time>2018-05-16T12:02:58.1Z</time>
      </trkpt>
      <trkpt lat="44.66047" lon="4.3">
        <ele>311</ele>
        <time>2018-05-16T12:03:00.1Z</time>
      </trkpt>
      <trkpt lat="44.66046" lon="4.30016">
        <ele>311</ele>
        <time>2018-05-16T12:03:03.1Z</time>
      </trkpt>
      <trkpt lat="44.66046" lon="4.30031">
        <ele>312</ele>
        <time>2018-05-16T12:03:06.1Z</time>
      </trkpt>
      <trkpt lat="44.66047" lon="4.30042">
        <ele>313</ele>
        <time>2018-05-16T12:03:08.1Z</time>
      </trkpt>
      <trkpt lat="44.66049" lon="4.30058">
        <ele>314</ele>
        <time>2018-05-16T12:03:11.1Z</time>
      </trkpt>
      <trkpt lat="44.6605" lon="4.30073">
        <ele>315</ele>
        <time>2018-05-16T12:03:14.1Z</time>
      </trkpt>
      <trkpt lat="44.66048" lon="4.30083">
        <ele>316</ele>
        <time>2018-05-16T12:03:16.1Z</time>
      </trkpt>
      <trkpt lat="44.66041" lon="4.30097">
        <ele>316</ele>
        <time>2018-05-16T12:03:19.1Z</time>
      </trkpt>
      <trkpt lat="44.66034" lon="4.30111">
        <ele>316</ele>
        <time>2018-05-16T12:03:22.1Z</time>
      </trkpt>
      <trkpt lat="44.66027" lon="4.30125">
        <ele>316</ele>
        <time>2018-05-16T12:03:25.1Z</time>
      </trkpt>
      <trkpt lat="44.66022" lon="4.30134">
        <ele>317</ele>
        <time>2018-05-16T12:03:27.1Z</time>
      </trkpt>
      <trkpt lat="44.66016" lon="4.3015">
        <ele>317</ele>
        <time>2018-05-16T12:03:30.1Z</time>
      </trkpt>
      <trkpt lat="44.66014" lon="4.30162">
        <ele>317</ele>
        <time>2018-05-16T12:03:32.1Z</time>
      </trkpt>
      <trkpt lat="44.66011" lon="4.3018">
        <ele>318</ele>
        <time>2018-05-16T12:03:35.1Z</time>
      </trkpt>
      <trkpt lat="44.66006" lon="4.30195">
        <ele>318</ele>
        <time>2018-05-16T12:03:38.1Z</time>
      </trkpt>
      <trkpt lat="44.66001" lon="4.30203">
        <ele>318</ele>
        <time>2018-05-16T12:03:40.1Z</time>
      </trkpt>
      <trkpt lat="44.65995" lon="4.30211">
        <ele>318</ele>
        <time>2018-05-16T12:03:42.1Z</time>
      </trkpt>
      <trkpt lat="44.65987" lon="4.30222">
        <ele>319</ele>
        <time>2018-05-16T12:03:45.1Z</time>
      </trkpt>
      <trkpt lat="44.65983" lon="4.30229">
        <ele>320</ele>
        <time>2018-05-16T12:03:47.1Z</time>
      </trkpt>
      <trkpt lat="44.6598" lon="4.30241">
        <ele>320</ele>
        <time>2018-05-16T12:03:50.1Z</time>
      </trkpt>
      <trkpt lat="44.65981" lon="4.30253">
        <ele>319</ele>
        <time>2018-05-16T12:03:53.1Z</time>
      </trkpt>
      <trkpt lat="44.65988" lon="4.30268">
        <ele>318</ele>
        <time>2018-05-16T12:03:56.1Z</time>
      </trkpt>
      <trkpt lat="44.66003" lon="4.30283">
        <ele>317</ele>
        <time>2018-05-16T12:03:59.1Z</time>
      </trkpt>
      <trkpt lat="44.66021" lon="4.303">
        <ele>315</ele>
        <time>2018-05-16T12:04:02.1Z</time>
      </trkpt>
      <trkpt lat="44.6603" lon="4.30309">
        <ele>313</ele>
        <time>2018-05-16T12:04:04.1Z</time>
      </trkpt>
      <trkpt lat="44.66045" lon="4.30326">
        <ele>312</ele>
        <time>2018-05-16T12:04:07.1Z</time>
      </trkpt>
      <trkpt lat="44.66058" lon="4.30349">
        <ele>312</ele>
        <time>2018-05-16T12:04:10.1Z</time>
      </trkpt>
      <trkpt lat="44.6607" lon="4.30374">
        <ele>313</ele>
        <time>2018-05-16T12:04:13.1Z</time>
      </trkpt>
      <trkpt lat="44.66077" lon="4.30397">
        <ele>313</ele>
        <time>2018-05-16T12:04:16.1Z</time>
      </trkpt>
      <trkpt lat="44.6608" lon="4.30417">
        <ele>313</ele>
        <time>2018-05-16T12:04:19.1Z</time>
      </trkpt>
      <trkpt lat="44.66083" lon="4.30434">
        <ele>313</ele>
        <time>2018-05-16T12:04:22.1Z</time>
      </trkpt>
      <trkpt lat="44.66087" lon="4.3045">
        <ele>313</ele>
        <time>2018-05-16T12:04:25.1Z</time>
      </trkpt>
      <trkpt lat="44.66091" lon="4.3046">
        <ele>313</ele>
        <time>2018-05-16T12:04:27.1Z</time>
      </trkpt>
      <trkpt lat="44.66095" lon="4.3047">
        <ele>313</ele>
        <time>2018-05-16T12:04:29.1Z</time>
      </trkpt>
      <trkpt lat="44.66101" lon="4.30487">
        <ele>313</ele>
        <time>2018-05-16T12:04:32.1Z</time>
      </trkpt>
      <trkpt lat="44.66104" lon="4.30499">
        <ele>313</ele>
        <time>2018-05-16T12:04:34.1Z</time>
      </trkpt>
      <trkpt lat="44.66109" lon="4.3052">
        <ele>313</ele>
        <time>2018-05-16T12:04:37.1Z</time>
      </trkpt>
      <trkpt lat="44.66117" lon="4.30543">
        <ele>312</ele>
        <time>2018-05-16T12:04:40.1Z</time>
      </trkpt>
      <trkpt lat="44.66124" lon="4.30551">
        <ele>311</ele>
        <time>2018-05-16T12:04:42.1Z</time>
      </trkpt>
      <trkpt lat="44.66138" lon="4.30561">
        <ele>309</ele>
        <time>2018-05-16T12:04:45.1Z</time>
      </trkpt>
      <trkpt lat="44.66145" lon="4.30575">
        <ele>309</ele>
        <time>2018-05-16T12:04:47.1Z</time>
      </trkpt>
      <trkpt lat="44.66148" lon="4.3059">
        <ele>310</ele>
        <time>2018-05-16T12:04:49.1Z</time>
      </trkpt>
      <trkpt lat="44.66148" lon="4.30609">
        <ele>311</ele>
        <time>2018-05-16T12:04:52.1Z</time>
      </trkpt>
      <trkpt lat="44.66148" lon="4.30626">
        <ele>312</ele>
        <time>2018-05-16T12:04:55.1Z</time>
      </trkpt>
      <trkpt lat="44.6615" lon="4.30644">
        <ele>311</ele>
        <time>2018-05-16T12:04:58.1Z</time>
      </trkpt>
      <trkpt lat="44.66153" lon="4.30661">
        <ele>311</ele>
        <time>2018-05-16T12:05:01.1Z</time>
      </trkpt>
      <trkpt lat="44.66155" lon="4.30673">
        <ele>311</ele>
        <time>2018-05-16T12:05:03.1Z</time>
      </trkpt>
      <trkpt lat="44.66157" lon="4.30683">
        <ele>312</ele>
        <time>2018-05-16T12:05:05.1Z</time>
      </trkpt>
      <trkpt lat="44.66159" lon="4.30695">
        <ele>312</ele>
        <time>2018-05-16T12:05:07.1Z</time>
      </trkpt>
      <trkpt lat="44.66164" lon="4.30713">
        <ele>311</ele>
        <time>2018-05-16T12:05:10.1Z</time>
      </trkpt>
      <trkpt lat="44.66169" lon="4.30725">
        <ele>311</ele>
        <time>2018-05-16T12:05:12.1Z</time>
      </trkpt>
      <trkpt lat="44.66175" lon="4.30742">
        <ele>311</ele>
        <time>2018-05-16T12:05:15.1Z</time>
      </trkpt>
      <trkpt lat="44.66182" lon="4.30762">
        <ele>311</ele>
        <time>2018-05-16T12:05:18.1Z</time>
      </trkpt>
      <trkpt lat="44.66185" lon="4.30787">
        <ele>310</ele>
        <time>2018-05-16T12:05:21.1Z</time>
      </trkpt>
      <trkpt lat="44.66178" lon="4.30814">
        <ele>311</ele>
        <time>2018-05-16T12:05:24.1Z</time>
      </trkpt>
      <trkpt lat="44.66172" lon="4.30842">
        <ele>311</ele>
        <time>2018-05-16T12:05:27.1Z</time>
      </trkpt>
      <trkpt lat="44.66175" lon="4.30874">
        <ele>310</ele>
        <time>2018-05-16T12:05:30.1Z</time>
      </trkpt>
      <trkpt lat="44.66182" lon="4.30905">
        <ele>308</ele>
        <time>2018-05-16T12:05:33.1Z</time>
      </trkpt>
      <trkpt lat="44.66187" lon="4.30939">
        <ele>308</ele>
        <time>2018-05-16T12:05:36.1Z</time>
      </trkpt>
      <trkpt lat="44.66185" lon="4.30962">
        <ele>308</ele>
        <time>2018-05-16T12:05:38.1Z</time>
      </trkpt>
      <trkpt lat="44.66181" lon="4.30984">
        <ele>307</ele>
        <time>2018-05-16T12:05:40.1Z</time>
      </trkpt>
      <trkpt lat="44.66174" lon="4.31017">
        <ele>306</ele>
        <time>2018-05-16T12:05:43.1Z</time>
      </trkpt>
      <trkpt lat="44.66177" lon="4.31038">
        <ele>304</ele>
        <time>2018-05-16T12:05:45.1Z</time>
      </trkpt>
      <trkpt lat="44.66181" lon="4.31056">
        <ele>303</ele>
        <time>2018-05-16T12:05:47.1Z</time>
      </trkpt>
      <trkpt lat="44.66179" lon="4.31075">
        <ele>304</ele>
        <time>2018-05-16T12:05:49.1Z</time>
      </trkpt>
      <trkpt lat="44.6617" lon="4.31101">
        <ele>303</ele>
        <time>2018-05-16T12:05:52.1Z</time>
      </trkpt>
      <trkpt lat="44.66168" lon="4.31121">
        <ele>303</ele>
        <time>2018-05-16T12:05:54.1Z</time>
      </trkpt>
      <trkpt lat="44.66168" lon="4.31142">
        <ele>303</ele>
        <time>2018-05-16T12:05:56.1Z</time>
      </trkpt>
      <trkpt lat="44.66169" lon="4.31173">
        <ele>302</ele>
        <time>2018-05-16T12:05:59.1Z</time>
      </trkpt>
      <trkpt lat="44.66168" lon="4.31194">
        <ele>302</ele>
        <time>2018-05-16T12:06:01.1Z</time>
      </trkpt>
      <trkpt lat="44.66156" lon="4.3122">
        <ele>302</ele>
        <time>2018-05-16T12:06:04.1Z</time>
      </trkpt>
      <trkpt lat="44.66146" lon="4.31248">
        <ele>301</ele>
        <time>2018-05-16T12:06:07.1Z</time>
      </trkpt>
      <trkpt lat="44.6614" lon="4.31268">
        <ele>300</ele>
        <time>2018-05-16T12:06:09.1Z</time>
      </trkpt>
      <trkpt lat="44.66133" lon="4.31289">
        <ele>299</ele>
        <time>2018-05-16T12:06:11.1Z</time>
      </trkpt>
      <trkpt lat="44.66121" lon="4.31318">
        <ele>298</ele>
        <time>2018-05-16T12:06:14.1Z</time>
      </trkpt>
      <trkpt lat="44.66114" lon="4.31339">
        <ele>298</ele>
        <time>2018-05-16T12:06:16.1Z</time>
      </trkpt>
      <trkpt lat="44.66112" lon="4.31362">
        <ele>298</ele>
        <time>2018-05-16T12:06:18.1Z</time>
      </trkpt>
      <trkpt lat="44.66106" lon="4.31397">
        <ele>298</ele>
        <time>2018-05-16T12:06:21.1Z</time>
      </trkpt>
      <trkpt lat="44.66098" lon="4.31419">
        <ele>297</ele>
        <time>2018-05-16T12:06:23.1Z</time>
      </trkpt>
      <trkpt lat="44.6609" lon="4.31441">
        <ele>297</ele>
        <time>2018-05-16T12:06:25.1Z</time>
      </trkpt>
      <trkpt lat="44.66077" lon="4.31475">
        <ele>296</ele>
        <time>2018-05-16T12:06:28.1Z</time>
      </trkpt>
      <trkpt lat="44.66068" lon="4.31498">
        <ele>296</ele>
        <time>2018-05-16T12:06:30.1Z</time>
      </trkpt>
      <trkpt lat="44.66058" lon="4.31519">
        <ele>294</ele>
        <time>2018-05-16T12:06:32.1Z</time>
      </trkpt>
      <trkpt lat="44.6604" lon="4.31548">
        <ele>293</ele>
        <time>2018-05-16T12:06:35.1Z</time>
      </trkpt>
      <trkpt lat="44.66027" lon="4.31566">
        <ele>293</ele>
        <time>2018-05-16T12:06:37.1Z</time>
      </trkpt>
      <trkpt lat="44.66009" lon="4.31592">
        <ele>293</ele>
        <time>2018-05-16T12:06:40.1Z</time>
      </trkpt>
      <trkpt lat="44.65998" lon="4.3161">
        <ele>293</ele>
        <time>2018-05-16T12:06:42.1Z</time>
      </trkpt>
      <trkpt lat="44.65982" lon="4.31634">
        <ele>291</ele>
        <time>2018-05-16T12:06:45.1Z</time>
      </trkpt>
      <trkpt lat="44.65971" lon="4.31647">
        <ele>290</ele>
        <time>2018-05-16T12:06:47.1Z</time>
      </trkpt>
      <trkpt lat="44.6596" lon="4.3166">
        <ele>290</ele>
        <time>2018-05-16T12:06:49.1Z</time>
      </trkpt>
      <trkpt lat="44.6594" lon="4.31678">
        <ele>290</ele>
        <time>2018-05-16T12:06:52.1Z</time>
      </trkpt>
      <trkpt lat="44.65926" lon="4.31688">
        <ele>291</ele>
        <time>2018-05-16T12:06:54.1Z</time>
      </trkpt>
      <trkpt lat="44.65913" lon="4.31698">
        <ele>289</ele>
        <time>2018-05-16T12:06:56.1Z</time>
      </trkpt>
      <trkpt lat="44.65896" lon="4.31719">
        <ele>287</ele>
        <time>2018-05-16T12:06:59.1Z</time>
      </trkpt>
      <trkpt lat="44.65886" lon="4.31733">
        <ele>286</ele>
        <time>2018-05-16T12:07:01.1Z</time>
      </trkpt>
      <trkpt lat="44.6587" lon="4.31756">
        <ele>287</ele>
        <time>2018-05-16T12:07:04.1Z</time>
      </trkpt>
      <trkpt lat="44.65859" lon="4.31769">
        <ele>287</ele>
        <time>2018-05-16T12:07:06.1Z</time>
      </trkpt>
      <trkpt lat="44.65846" lon="4.31789">
        <ele>287</ele>
        <time>2018-05-16T12:07:09.1Z</time>
      </trkpt>
      <trkpt lat="44.65837" lon="4.31801">
        <ele>287</ele>
        <time>2018-05-16T12:07:11.1Z</time>
      </trkpt>
      <trkpt lat="44.65829" lon="4.31812">
        <ele>286</ele>
        <time>2018-05-16T12:07:13.1Z</time>
      </trkpt>
      <trkpt lat="44.65819" lon="4.31827">
        <ele>286</ele>
        <time>2018-05-16T12:07:16.1Z</time>
      </trkpt>
      <trkpt lat="44.65813" lon="4.31838">
        <ele>286</ele>
        <time>2018-05-16T12:07:18.1Z</time>
      </trkpt>
      <trkpt lat="44.65807" lon="4.31856">
        <ele>286</ele>
        <time>2018-05-16T12:07:21.1Z</time>
      </trkpt>
      <trkpt lat="44.65802" lon="4.31868">
        <ele>286</ele>
        <time>2018-05-16T12:07:23.1Z</time>
      </trkpt>
      <trkpt lat="44.65794" lon="4.31885">
        <ele>287</ele>
        <time>2018-05-16T12:07:26.1Z</time>
      </trkpt>
      <trkpt lat="44.65785" lon="4.31903">
        <ele>288</ele>
        <time>2018-05-16T12:07:29.1Z</time>
      </trkpt>
      <trkpt lat="44.65777" lon="4.31921">
        <ele>288</ele>
        <time>2018-05-16T12:07:32.1Z</time>
      </trkpt>
      <trkpt lat="44.65771" lon="4.31933">
        <ele>288</ele>
        <time>2018-05-16T12:07:34.1Z</time>
      </trkpt>
      <trkpt lat="44.65763" lon="4.31951">
        <ele>289</ele>
        <time>2018-05-16T12:07:37.1Z</time>
      </trkpt>
      <trkpt lat="44.65758" lon="4.31964">
        <ele>289</ele>
        <time>2018-05-16T12:07:39.1Z</time>
      </trkpt>
      <trkpt lat="44.65751" lon="4.31982">
        <ele>289</ele>
        <time>2018-05-16T12:07:42.1Z</time>
      </trkpt>
      <trkpt lat="44.65747" lon="4.31994">
        <ele>289</ele>
        <time>2018-05-16T12:07:44.1Z</time>
      </trkpt>
      <trkpt lat="44.6574" lon="4.32011">
        <ele>290</ele>
        <time>2018-05-16T12:07:47.1Z</time>
      </trkpt>
      <trkpt lat="44.65735" lon="4.32023">
        <ele>290</ele>
        <time>2018-05-16T12:07:49.1Z</time>
      </trkpt>
      <trkpt lat="44.65728" lon="4.32041">
        <ele>290</ele>
        <time>2018-05-16T12:07:52.1Z</time>
      </trkpt>
      <trkpt lat="44.65722" lon="4.32052">
        <ele>290</ele>
        <time>2018-05-16T12:07:54.1Z</time>
      </trkpt>
      <trkpt lat="44.65714" lon="4.32068">
        <ele>290</ele>
        <time>2018-05-16T12:07:57.1Z</time>
      </trkpt>
      <trkpt lat="44.65702" lon="4.32084">
        <ele>289</ele>
        <time>2018-05-16T12:08:00.1Z</time>
      </trkpt>
      <trkpt lat="44.6569" lon="4.321">
        <ele>289</ele>
        <time>2018-05-16T12:08:03.1Z</time>
      </trkpt>
      <trkpt lat="44.65678" lon="4.32117">
        <ele>289</ele>
        <time>2018-05-16T12:08:06.1Z</time>
      </trkpt>
      <trkpt lat="44.6567" lon="4.32127">
        <ele>288</ele>
        <time>2018-05-16T12:08:08.1Z</time>
      </trkpt>
      <trkpt lat="44.65662" lon="4.32137">
        <ele>287</ele>
        <time>2018-05-16T12:08:10.1Z</time>
      </trkpt>
      <trkpt lat="44.6565" lon="4.3215">
        <ele>287</ele>
        <time>2018-05-16T12:08:13.1Z</time>
      </trkpt>
      <trkpt lat="44.65637" lon="4.32163">
        <ele>286</ele>
        <time>2018-05-16T12:08:16.1Z</time>
      </trkpt>
      <trkpt lat="44.65623" lon="4.32176">
        <ele>286</ele>
        <time>2018-05-16T12:08:19.1Z</time>
      </trkpt>
      <trkpt lat="44.65608" lon="4.32189">
        <ele>286</ele>
        <time>2018-05-16T12:08:22.1Z</time>
      </trkpt>
      <trkpt lat="44.65594" lon="4.32204">
        <ele>286</ele>
        <time>2018-05-16T12:08:25.1Z</time>
      </trkpt>
      <trkpt lat="44.65584" lon="4.32225">
        <ele>286</ele>
        <time>2018-05-16T12:08:28.1Z</time>
      </trkpt>
      <trkpt lat="44.65578" lon="4.32239">
        <ele>286</ele>
        <time>2018-05-16T12:08:30.1Z</time>
      </trkpt>
      <trkpt lat="44.65564" lon="4.32248">
        <ele>286</ele>
        <time>2018-05-16T12:08:33.1Z</time>
      </trkpt>
      <trkpt lat="44.65548" lon="4.32244">
        <ele>285</ele>
        <time>2018-05-16T12:08:36.1Z</time>
      </trkpt>
      <trkpt lat="44.65536" lon="4.3224">
        <ele>285</ele>
        <time>2018-05-16T12:08:38.1Z</time>
      </trkpt>
      <trkpt lat="44.65524" lon="4.32238">
        <ele>285</ele>
        <time>2018-05-16T12:08:40.1Z</time>
      </trkpt>
      <trkpt lat="44.65505" lon="4.32243">
        <ele>285</ele>
        <time>2018-05-16T12:08:43.1Z</time>
      </trkpt>
      <trkpt lat="44.65493" lon="4.32247">
        <ele>284</ele>
        <time>2018-05-16T12:08:45.1Z</time>
      </trkpt>
      <trkpt lat="44.6548" lon="4.32252">
        <ele>284</ele>
        <time>2018-05-16T12:08:47.1Z</time>
      </trkpt>
      <trkpt lat="44.65461" lon="4.32258">
        <ele>283</ele>
        <time>2018-05-16T12:08:50.1Z</time>
      </trkpt>
      <trkpt lat="44.65448" lon="4.32259">
        <ele>284</ele>
        <time>2018-05-16T12:08:52.1Z</time>
      </trkpt>
      <trkpt lat="44.65428" lon="4.3226">
        <ele>284</ele>
        <time>2018-05-16T12:08:55.1Z</time>
      </trkpt>
      <trkpt lat="44.65415" lon="4.32261">
        <ele>284</ele>
        <time>2018-05-16T12:08:57.1Z</time>
      </trkpt>
      <trkpt lat="44.65394" lon="4.32262">
        <ele>284</ele>
        <time>2018-05-16T12:09:00.1Z</time>
      </trkpt>
      <trkpt lat="44.65376" lon="4.32274">
        <ele>283</ele>
        <time>2018-05-16T12:09:03.1Z</time>
      </trkpt>
      <trkpt lat="44.65366" lon="4.32288">
        <ele>283</ele>
        <time>2018-05-16T12:09:05.1Z</time>
      </trkpt>
      <trkpt lat="44.65358" lon="4.32303">
        <ele>283</ele>
        <time>2018-05-16T12:09:07.1Z</time>
      </trkpt>
      <trkpt lat="44.65346" lon="4.32325">
        <ele>283</ele>
        <time>2018-05-16T12:09:10.1Z</time>
      </trkpt>
      <trkpt lat="44.65339" lon="4.32339">
        <ele>283</ele>
        <time>2018-05-16T12:09:12.1Z</time>
      </trkpt>
      <trkpt lat="44.65327" lon="4.32359">
        <ele>282</ele>
        <time>2018-05-16T12:09:15.1Z</time>
      </trkpt>
      <trkpt lat="44.6532" lon="4.32371">
        <ele>282</ele>
        <time>2018-05-16T12:09:17.1Z</time>
      </trkpt>
      <trkpt lat="44.6531" lon="4.3239">
        <ele>281</ele>
        <time>2018-05-16T12:09:20.1Z</time>
      </trkpt>
      <trkpt lat="44.65303" lon="4.32403">
        <ele>281</ele>
        <time>2018-05-16T12:09:22.1Z</time>
      </trkpt>
      <trkpt lat="44.65296" lon="4.32416">
        <ele>281</ele>
        <time>2018-05-16T12:09:24.1Z</time>
      </trkpt>
      <trkpt lat="44.6529" lon="4.32438">
        <ele>281</ele>
        <time>2018-05-16T12:09:27.1Z</time>
      </trkpt>
      <trkpt lat="44.65287" lon="4.32452">
        <ele>282</ele>
        <time>2018-05-16T12:09:29.1Z</time>
      </trkpt>
      <trkpt lat="44.65284" lon="4.32467">
        <ele>281</ele>
        <time>2018-05-16T12:09:31.1Z</time>
      </trkpt>
      <trkpt lat="44.65279" lon="4.32485">
        <ele>281</ele>
        <time>2018-05-16T12:09:34.1Z</time>
      </trkpt>
      <trkpt lat="44.65273" lon="4.32494">
        <ele>280</ele>
        <time>2018-05-16T12:09:36.1Z</time>
      </trkpt>
      <trkpt lat="44.65263" lon="4.32497">
        <ele>279</ele>
        <time>2018-05-16T12:09:38.1Z</time>
      </trkpt>
      <trkpt lat="44.65247" lon="4.32489">
        <ele>278</ele>
        <time>2018-05-16T12:09:41.1Z</time>
      </trkpt>
      <trkpt lat="44.65237" lon="4.32481">
        <ele>277</ele>
        <time>2018-05-16T12:09:43.1Z</time>
      </trkpt>
      <trkpt lat="44.65222" lon="4.32471">
        <ele>276</ele>
        <time>2018-05-16T12:09:46.1Z</time>
      </trkpt>
      <trkpt lat="44.65212" lon="4.32464">
        <ele>276</ele>
        <time>2018-05-16T12:09:48.1Z</time>
      </trkpt>
      <trkpt lat="44.65198" lon="4.32452">
        <ele>277</ele>
        <time>2018-05-16T12:09:51.1Z</time>
      </trkpt>
      <trkpt lat="44.65189" lon="4.32445">
        <ele>276</ele>
        <time>2018-05-16T12:09:53.1Z</time>
      </trkpt>
      <trkpt lat="44.65179" lon="4.32438">
        <ele>276</ele>
        <time>2018-05-16T12:09:55.1Z</time>
      </trkpt>
      <trkpt lat="44.65163" lon="4.32426">
        <ele>276</ele>
        <time>2018-05-16T12:09:58.1Z</time>
      </trkpt>
      <trkpt lat="44.65149" lon="4.32408">
        <ele>276</ele>
        <time>2018-05-16T12:10:01.1Z</time>
      </trkpt>
      <trkpt lat="44.6514" lon="4.32395">
        <ele>275</ele>
        <time>2018-05-16T12:10:03.1Z</time>
      </trkpt>
      <trkpt lat="44.65132" lon="4.32382">
        <ele>274</ele>
        <time>2018-05-16T12:10:05.1Z</time>
      </trkpt>
      <trkpt lat="44.65124" lon="4.32371">
        <ele>274</ele>
        <time>2018-05-16T12:10:07.1Z</time>
      </trkpt>
      <trkpt lat="44.65116" lon="4.32361">
        <ele>274</ele>
        <time>2018-05-16T12:10:09.1Z</time>
      </trkpt>
      <trkpt lat="44.65105" lon="4.32346">
        <ele>274</ele>
        <time>2018-05-16T12:10:12.1Z</time>
      </trkpt>
      <trkpt lat="44.65098" lon="4.32336">
        <ele>274</ele>
        <time>2018-05-16T12:10:14.1Z</time>
      </trkpt>
      <trkpt lat="44.65091" lon="4.32325">
        <ele>273</ele>
        <time>2018-05-16T12:10:17.1Z</time>
      </trkpt>
      <trkpt lat="44.65089" lon="4.32323">
        <ele>273</ele>
        <time>2018-05-16T12:10:19.1Z</time>
      </trkpt>
      <trkpt lat="44.65089" lon="4.32322">
        <ele>272</ele>
        <time>2018-05-16T12:10:22.1Z</time>
      </trkpt>
      <trkpt lat="44.65089" lon="4.32322">
        <ele>272</ele>
        <time>2018-05-16T12:10:26.1Z</time>
      </trkpt>
      <trkpt lat="44.65089" lon="4.32321">
        <ele>272</ele>
        <time>2018-05-16T12:10:28.1Z</time>
      </trkpt>
      <trkpt lat="44.65089" lon="4.32321">
        <ele>272</ele>
        <time>2018-05-16T12:10:32.1Z</time>
      </trkpt>
      <trkpt lat="44.65089" lon="4.32321">
        <ele>272</ele>
        <time>2018-05-16T12:10:34.1Z</time>
      </trkpt>
      <trkpt lat="44.65089" lon="4.32321">
        <ele>272</ele>
        <time>2018-05-16T12:10:37.1Z</time>
      </trkpt>
      <trkpt lat="44.65089" lon="4.32321">
        <ele>272</ele>
        <time>2018-05-16T12:10:43.1Z</time>
      </trkpt>
      <trkpt lat="44.65089" lon="4.32321">
        <ele>271</ele>
        <time>2018-05-16T12:10:47.1Z</time>
      </trkpt>
      <trkpt lat="44.65089" lon="4.3232">
        <ele>272</ele>
        <time>2018-05-16T12:10:51.1Z</time>
      </trkpt>
    </trkseg>
  </trk>
</gpx>